<?xml version='1.0' encoding='UTF-8'?><gpx version="1.1" creator="JPX - https://github.com/jenetics/jpx" xmlns="http://www.topografix.com/GPX/1/1"><trk><trkseg><trkpt lat="45.5305567" lon="10.939105"><ele>189.0</ele><time>2026-04-18T11:41:48.157Z</time></trkpt><trkpt lat="45.53058" lon="10.93897"><ele>189.0</ele><time>2026-04-18T11:41:50.155Z</time></trkpt><trkpt lat="45.53059" lon="10.9388667"><ele>189.0</ele><time>2026-04-18T11:41:51.154Z</time></trkpt><trkpt lat="45.530595" lon="10.93875"><ele>189.0</ele><time>2026-04-18T11:41:52.149Z</time></trkpt><trkpt lat="45.5306033" lon="10.9386133"><ele>189.0</ele><time>2026-04-18T11:41:53.161Z</time></trkpt><trkpt lat="45.5306167" lon="10.9384733"><ele>189.0</ele><time>2026-04-18T11:41:54.15Z</time></trkpt><trkpt lat="45.530635" lon="10.9383333"><ele>189.79999999999998</ele><time>2026-04-18T11:41:55.155Z</time></trkpt><trkpt lat="45.53065" lon="10.9381867"><ele>190.6</ele><time>2026-04-18T11:41:56.157Z</time></trkpt><trkpt lat="45.5306633" lon="10.9380367"><ele>191.4</ele><time>2026-04-18T11:41:57.15Z</time></trkpt><trkpt lat="45.5306733" lon="10.9378867"><ele>192.2</ele><time>2026-04-18T11:41:58.169Z</time></trkpt><trkpt lat="45.5306833" lon="10.9377417"><ele>193.0</ele><time>2026-04-18T11:41:59.152Z</time></trkpt><trkpt lat="45.5306967" lon="10.9376167"><ele>194.0</ele><time>2026-04-18T11:42:00.176Z</time></trkpt><trkpt lat="45.5307067" lon="10.93751"><ele>195.0</ele><time>2026-04-18T11:42:01.156Z</time></trkpt><trkpt lat="45.5307433" lon="10.9373683"><ele>196.0</ele><time>2026-04-18T11:42:03.16Z</time></trkpt><trkpt lat="45.5308067" lon="10.93727"><ele>197.0</ele><time>2026-04-18T11:42:05.176Z</time></trkpt><trkpt lat="45.530885" lon="10.9371717"><ele>198.0</ele><time>2026-04-18T11:42:07.155Z</time></trkpt><trkpt lat="45.530955" lon="10.9370167"><ele>198.0</ele><time>2026-04-18T11:42:09.159Z</time></trkpt><trkpt lat="45.5309883" lon="10.9369367"><ele>198.0</ele><time>2026-04-18T11:42:10.146Z</time></trkpt><trkpt lat="45.5310383" lon="10.9368017"><ele>198.0</ele><time>2026-04-18T11:42:12.157Z</time></trkpt><trkpt lat="45.5310783" lon="10.9367117"><ele>198.0</ele><time>2026-04-18T11:42:14.15Z</time></trkpt><trkpt lat="45.531045" lon="10.9366017"><ele>198.0</ele><time>2026-04-18T11:42:17.207Z</time></trkpt><trkpt lat="45.5310033" lon="10.93653"><ele>198.0</ele><time>2026-04-18T11:42:18.156Z</time></trkpt><trkpt lat="45.5309067" lon="10.93645"><ele>198.75</ele><time>2026-04-18T11:42:20.158Z</time></trkpt><trkpt lat="45.53075" lon="10.936435"><ele>199.5</ele><time>2026-04-18T11:42:22.149Z</time></trkpt><trkpt lat="45.5306633" lon="10.93646"><ele>200.25</ele><time>2026-04-18T11:42:23.153Z</time></trkpt><trkpt lat="45.53056" lon="10.93649"><ele>201.0</ele><time>2026-04-18T11:42:25.163Z</time></trkpt><trkpt lat="45.53046" lon="10.93651"><ele>199.25</ele><time>2026-04-18T11:42:27.149Z</time></trkpt><trkpt lat="45.53036" lon="10.9365183"><ele>197.5</ele><time>2026-04-18T11:42:29.157Z</time></trkpt><trkpt lat="45.5302183" lon="10.9364883"><ele>195.75</ele><time>2026-04-18T11:42:32.149Z</time></trkpt><trkpt lat="45.5300933" lon="10.9364533"><ele>194.0</ele><time>2026-04-18T11:42:34.149Z</time></trkpt><trkpt lat="45.5300133" lon="10.936415"><ele>194.0</ele><time>2026-04-18T11:42:35.154Z</time></trkpt><trkpt lat="45.5299333" lon="10.93637"><ele>194.0</ele><time>2026-04-18T11:42:36.159Z</time></trkpt><trkpt lat="45.529845" lon="10.9363217"><ele>194.0</ele><time>2026-04-18T11:42:37.152Z</time></trkpt><trkpt lat="45.5297583" lon="10.9362583"><ele>194.0</ele><time>2026-04-18T11:42:38.164Z</time></trkpt><trkpt lat="45.5296583" lon="10.9361933"><ele>194.0</ele><time>2026-04-18T11:42:39.169Z</time></trkpt><trkpt lat="45.529555" lon="10.9361217"><ele>193.25</ele><time>2026-04-18T11:42:40.148Z</time></trkpt><trkpt lat="45.529455" lon="10.9360617"><ele>192.5</ele><time>2026-04-18T11:42:41.149Z</time></trkpt><trkpt lat="45.5293533" lon="10.9359983"><ele>191.75</ele><time>2026-04-18T11:42:42.146Z</time></trkpt><trkpt lat="45.5292383" lon="10.9359383"><ele>191.0</ele><time>2026-04-18T11:42:43.157Z</time></trkpt><trkpt lat="45.5291233" lon="10.9358783"><ele>191.0</ele><time>2026-04-18T11:42:44.147Z</time></trkpt><trkpt lat="45.529005" lon="10.9358217"><ele>191.0</ele><time>2026-04-18T11:42:45.153Z</time></trkpt><trkpt lat="45.5288817" lon="10.9357783"><ele>191.0</ele><time>2026-04-18T11:42:46.146Z</time></trkpt><trkpt lat="45.528765" lon="10.9357217"><ele>191.0</ele><time>2026-04-18T11:42:47.156Z</time></trkpt><trkpt lat="45.52866" lon="10.9356717"><ele>189.20000000000002</ele><time>2026-04-18T11:42:48.151Z</time></trkpt><trkpt lat="45.5285617" lon="10.93562"><ele>187.4</ele><time>2026-04-18T11:42:49.154Z</time></trkpt><trkpt lat="45.5284717" lon="10.9355633"><ele>185.6</ele><time>2026-04-18T11:42:50.157Z</time></trkpt><trkpt lat="45.52838" lon="10.9355083"><ele>183.8</ele><time>2026-04-18T11:42:51.166Z</time></trkpt><trkpt lat="45.5282833" lon="10.9354517"><ele>182.0</ele><time>2026-04-18T11:42:52.146Z</time></trkpt><trkpt lat="45.52817" lon="10.93539"><ele>182.0</ele><time>2026-04-18T11:42:53.153Z</time></trkpt><trkpt lat="45.52804" lon="10.9353117"><ele>182.0</ele><time>2026-04-18T11:42:54.155Z</time></trkpt><trkpt lat="45.5279" lon="10.9352133"><ele>182.0</ele><time>2026-04-18T11:42:55.15Z</time></trkpt><trkpt lat="45.52776" lon="10.9351"><ele>182.75</ele><time>2026-04-18T11:42:56.153Z</time></trkpt><trkpt lat="45.5276267" lon="10.935"><ele>183.5</ele><time>2026-04-18T11:42:57.159Z</time></trkpt><trkpt lat="45.5275017" lon="10.934925"><ele>184.25</ele><time>2026-04-18T11:42:58.158Z</time></trkpt><trkpt lat="45.527375" lon="10.9348817"><ele>185.0</ele><time>2026-04-18T11:42:59.161Z</time></trkpt><trkpt lat="45.5272483" lon="10.9348617"><ele>185.0</ele><time>2026-04-18T11:43:00.159Z</time></trkpt><trkpt lat="45.5271133" lon="10.934855"><ele>185.0</ele><time>2026-04-18T11:43:01.159Z</time></trkpt><trkpt lat="45.52698" lon="10.9348517"><ele>185.0</ele><time>2026-04-18T11:43:02.15Z</time></trkpt><trkpt lat="45.5268533" lon="10.9348317"><ele>185.0</ele><time>2026-04-18T11:43:03.155Z</time></trkpt><trkpt lat="45.5267267" lon="10.9347967"><ele>184.0</ele><time>2026-04-18T11:43:04.152Z</time></trkpt><trkpt lat="45.5266017" lon="10.934755"><ele>183.0</ele><time>2026-04-18T11:43:05.152Z</time></trkpt><trkpt lat="45.5264817" lon="10.9347117"><ele>182.0</ele><time>2026-04-18T11:43:06.15Z</time></trkpt><trkpt lat="45.526365" lon="10.9346717"><ele>181.0</ele><time>2026-04-18T11:43:07.164Z</time></trkpt><trkpt lat="45.5262533" lon="10.9346333"><ele>179.60000000000002</ele><time>2026-04-18T11:43:08.147Z</time></trkpt><trkpt lat="45.52615" lon="10.9345883"><ele>178.2</ele><time>2026-04-18T11:43:09.159Z</time></trkpt><trkpt lat="45.526045" lon="10.9345467"><ele>176.8</ele><time>2026-04-18T11:43:10.151Z</time></trkpt><trkpt lat="45.5259333" lon="10.9345033"><ele>175.39999999999998</ele><time>2026-04-18T11:43:11.152Z</time></trkpt><trkpt lat="45.52582" lon="10.934465"><ele>174.0</ele><time>2026-04-18T11:43:12.147Z</time></trkpt><trkpt lat="45.52571" lon="10.9344217"><ele>174.0</ele><time>2026-04-18T11:43:13.157Z</time></trkpt><trkpt lat="45.5256067" lon="10.93437"><ele>174.0</ele><time>2026-04-18T11:43:14.15Z</time></trkpt><trkpt lat="45.52551" lon="10.9342967"><ele>174.0</ele><time>2026-04-18T11:43:15.157Z</time></trkpt><trkpt lat="45.525415" lon="10.9342"><ele>174.0</ele><time>2026-04-18T11:43:16.155Z</time></trkpt><trkpt lat="45.5253067" lon="10.9341067"><ele>175.0</ele><time>2026-04-18T11:43:17.154Z</time></trkpt><trkpt lat="45.5251783" lon="10.9340267"><ele>176.0</ele><time>2026-04-18T11:43:18.147Z</time></trkpt><trkpt lat="45.5250383" lon="10.93396"><ele>177.0</ele><time>2026-04-18T11:43:19.156Z</time></trkpt><trkpt lat="45.5248983" lon="10.9338967"><ele>178.0</ele><time>2026-04-18T11:43:20.155Z</time></trkpt><trkpt lat="45.5247617" lon="10.9338317"><ele>178.0</ele><time>2026-04-18T11:43:21.151Z</time></trkpt><trkpt lat="45.5246417" lon="10.93377"><ele>178.0</ele><time>2026-04-18T11:43:22.149Z</time></trkpt><trkpt lat="45.5245417" lon="10.9337133"><ele>178.0</ele><time>2026-04-18T11:43:23.157Z</time></trkpt><trkpt lat="45.5244667" lon="10.9336617"><ele>178.0</ele><time>2026-04-18T11:43:24.158Z</time></trkpt><trkpt lat="45.52439" lon="10.9336033"><ele>178.0</ele><time>2026-04-18T11:43:26.164Z</time></trkpt><trkpt lat="45.5243" lon="10.9335133"><ele>177.60000000000002</ele><time>2026-04-18T11:43:29.159Z</time></trkpt><trkpt lat="45.5242333" lon="10.933465"><ele>177.20000000000002</ele><time>2026-04-18T11:43:30.153Z</time></trkpt><trkpt lat="45.5241483" lon="10.9334083"><ele>176.8</ele><time>2026-04-18T11:43:31.152Z</time></trkpt><trkpt lat="45.524045" lon="10.9333383"><ele>176.4</ele><time>2026-04-18T11:43:32.153Z</time></trkpt><trkpt lat="45.5239233" lon="10.93325"><ele>176.0</ele><time>2026-04-18T11:43:33.154Z</time></trkpt><trkpt lat="45.5237783" lon="10.933155"><ele>173.66666666666666</ele><time>2026-04-18T11:43:34.154Z</time></trkpt><trkpt lat="45.52361" lon="10.933035"><ele>171.33333333333334</ele><time>2026-04-18T11:43:35.163Z</time></trkpt><trkpt lat="45.5234283" lon="10.9329033"><ele>169.0</ele><time>2026-04-18T11:43:36.151Z</time></trkpt><trkpt lat="45.5232267" lon="10.9327683"><ele>169.0</ele><time>2026-04-18T11:43:37.161Z</time></trkpt><trkpt lat="45.523005" lon="10.9326367"><ele>169.0</ele><time>2026-04-18T11:43:38.145Z</time></trkpt><trkpt lat="45.5227783" lon="10.93251"><ele>168.0</ele><time>2026-04-18T11:43:39.165Z</time></trkpt><trkpt lat="45.5225617" lon="10.9323833"><ele>167.0</ele><time>2026-04-18T11:43:40.145Z</time></trkpt><trkpt lat="45.5223567" lon="10.9322633"><ele>167.0</ele><time>2026-04-18T11:43:41.161Z</time></trkpt><trkpt lat="45.5221633" lon="10.9321533"><ele>167.0</ele><time>2026-04-18T11:43:42.16Z</time></trkpt><trkpt lat="45.5219817" lon="10.9320567"><ele>167.0</ele><time>2026-04-18T11:43:43.158Z</time></trkpt><trkpt lat="45.5218167" lon="10.931965"><ele>165.75</ele><time>2026-04-18T11:43:44.15Z</time></trkpt><trkpt lat="45.5216733" lon="10.9318883"><ele>164.5</ele><time>2026-04-18T11:43:45.163Z</time></trkpt><trkpt lat="45.5215483" lon="10.9318233"><ele>163.25</ele><time>2026-04-18T11:43:46.154Z</time></trkpt><trkpt lat="45.5214367" lon="10.9317633"><ele>162.0</ele><time>2026-04-18T11:43:47.168Z</time></trkpt><trkpt lat="45.5213283" lon="10.9317133"><ele>163.2</ele><time>2026-04-18T11:43:48.154Z</time></trkpt><trkpt lat="45.52122" lon="10.93168"><ele>164.39999999999998</ele><time>2026-04-18T11:43:49.158Z</time></trkpt><trkpt lat="45.5211133" lon="10.9316683"><ele>165.60000000000002</ele><time>2026-04-18T11:43:50.148Z</time></trkpt><trkpt lat="45.521015" lon="10.9316467"><ele>166.8</ele><time>2026-04-18T11:43:51.165Z</time></trkpt><trkpt lat="45.5209183" lon="10.9316067"><ele>168.0</ele><time>2026-04-18T11:43:52.15Z</time></trkpt><trkpt lat="45.5208167" lon="10.9315533"><ele>168.0</ele><time>2026-04-18T11:43:53.149Z</time></trkpt><trkpt lat="45.5207117" lon="10.9314817"><ele>168.0</ele><time>2026-04-18T11:43:54.154Z</time></trkpt><trkpt lat="45.5206017" lon="10.9314"><ele>168.0</ele><time>2026-04-18T11:43:55.162Z</time></trkpt><trkpt lat="45.5204917" lon="10.9313133"><ele>168.0</ele><time>2026-04-18T11:43:56.15Z</time></trkpt><trkpt lat="45.52039" lon="10.9312283"><ele>167.4</ele><time>2026-04-18T11:43:57.153Z</time></trkpt><trkpt lat="45.5202967" lon="10.9311533"><ele>166.8</ele><time>2026-04-18T11:43:58.163Z</time></trkpt><trkpt lat="45.5202167" lon="10.9310883"><ele>166.2</ele><time>2026-04-18T11:43:59.151Z</time></trkpt><trkpt lat="45.5201433" lon="10.9310233"><ele>165.6</ele><time>2026-04-18T11:44:00.153Z</time></trkpt><trkpt lat="45.5200733" lon="10.9309467"><ele>165.0</ele><time>2026-04-18T11:44:01.17Z</time></trkpt><trkpt lat="45.5200133" lon="10.9308667"><ele>165.0</ele><time>2026-04-18T11:44:02.151Z</time></trkpt><trkpt lat="45.5199667" lon="10.9307817"><ele>165.0</ele><time>2026-04-18T11:44:03.154Z</time></trkpt><trkpt lat="45.5199283" lon="10.9307017"><ele>165.0</ele><time>2026-04-18T11:44:04.15Z</time></trkpt><trkpt lat="45.5198967" lon="10.930615"><ele>165.0</ele><time>2026-04-18T11:44:05.145Z</time></trkpt><trkpt lat="45.5198733" lon="10.9305183"><ele>165.0</ele><time>2026-04-18T11:44:06.152Z</time></trkpt><trkpt lat="45.5198533" lon="10.9304067"><ele>165.0</ele><time>2026-04-18T11:44:07.159Z</time></trkpt><trkpt lat="45.5198333" lon="10.9302833"><ele>165.0</ele><time>2026-04-18T11:44:08.149Z</time></trkpt><trkpt lat="45.5198133" lon="10.930155"><ele>165.0</ele><time>2026-04-18T11:44:09.152Z</time></trkpt><trkpt lat="45.519805" lon="10.93001"><ele>165.0</ele><time>2026-04-18T11:44:10.146Z</time></trkpt><trkpt lat="45.519795" lon="10.92986"><ele>165.0</ele><time>2026-04-18T11:44:11.156Z</time></trkpt><trkpt lat="45.51977" lon="10.9297017"><ele>165.0</ele><time>2026-04-18T11:44:12.155Z</time></trkpt><trkpt lat="45.5197283" lon="10.929535"><ele>165.25</ele><time>2026-04-18T11:44:13.159Z</time></trkpt><trkpt lat="45.5196833" lon="10.9293683"><ele>165.5</ele><time>2026-04-18T11:44:14.15Z</time></trkpt><trkpt lat="45.5196367" lon="10.9292117"><ele>165.75</ele><time>2026-04-18T11:44:15.157Z</time></trkpt><trkpt lat="45.5195833" lon="10.9290717"><ele>166.0</ele><time>2026-04-18T11:44:16.149Z</time></trkpt><trkpt lat="45.519525" lon="10.9289483"><ele>164.4</ele><time>2026-04-18T11:44:17.165Z</time></trkpt><trkpt lat="45.5194633" lon="10.9288367"><ele>162.8</ele><time>2026-04-18T11:44:18.151Z</time></trkpt><trkpt lat="45.51939" lon="10.9287467"><ele>161.20000000000002</ele><time>2026-04-18T11:44:19.165Z</time></trkpt><trkpt lat="45.5192983" lon="10.9286767"><ele>159.60000000000002</ele><time>2026-04-18T11:44:20.165Z</time></trkpt><trkpt lat="45.5191983" lon="10.9286367"><ele>158.0</ele><time>2026-04-18T11:44:21.165Z</time></trkpt><trkpt lat="45.5190883" lon="10.92863"><ele>158.0</ele><time>2026-04-18T11:44:22.15Z</time></trkpt><trkpt lat="45.5189633" lon="10.928645"><ele>158.0</ele><time>2026-04-18T11:44:23.168Z</time></trkpt><trkpt lat="45.5188317" lon="10.9286667"><ele>158.0</ele><time>2026-04-18T11:44:24.164Z</time></trkpt><trkpt lat="45.5186967" lon="10.9286733"><ele>158.0</ele><time>2026-04-18T11:44:25.158Z</time></trkpt><trkpt lat="45.5185583" lon="10.9286633"><ele>157.75</ele><time>2026-04-18T11:44:26.155Z</time></trkpt><trkpt lat="45.518425" lon="10.9286333"><ele>157.5</ele><time>2026-04-18T11:44:27.162Z</time></trkpt><trkpt lat="45.518295" lon="10.928585"><ele>157.25</ele><time>2026-04-18T11:44:28.148Z</time></trkpt><trkpt lat="45.518175" lon="10.9285383"><ele>157.0</ele><time>2026-04-18T11:44:29.159Z</time></trkpt><trkpt lat="45.5180633" lon="10.9284883"><ele>157.0</ele><time>2026-04-18T11:44:30.159Z</time></trkpt><trkpt lat="45.5179533" lon="10.9284433"><ele>157.0</ele><time>2026-04-18T11:44:31.169Z</time></trkpt><trkpt lat="45.5178433" lon="10.9283983"><ele>157.0</ele><time>2026-04-18T11:44:32.154Z</time></trkpt><trkpt lat="45.51773" lon="10.9283567"><ele>157.0</ele><time>2026-04-18T11:44:33.155Z</time></trkpt><trkpt lat="45.5176233" lon="10.92831"><ele>158.39999999999998</ele><time>2026-04-18T11:44:34.151Z</time></trkpt><trkpt lat="45.5175267" lon="10.9282617"><ele>159.79999999999998</ele><time>2026-04-18T11:44:35.155Z</time></trkpt><trkpt lat="45.517435" lon="10.9282183"><ele>161.2</ele><time>2026-04-18T11:44:36.157Z</time></trkpt><trkpt lat="45.5173417" lon="10.9281983"><ele>162.6</ele><time>2026-04-18T11:44:37.155Z</time></trkpt><trkpt lat="45.51725" lon="10.9281917"><ele>164.0</ele><time>2026-04-18T11:44:38.151Z</time></trkpt><trkpt lat="45.517155" lon="10.9281983"><ele>163.33333333333331</ele><time>2026-04-18T11:44:39.17Z</time></trkpt><trkpt lat="45.5170617" lon="10.9282117"><ele>162.66666666666666</ele><time>2026-04-18T11:44:40.158Z</time></trkpt><trkpt lat="45.5169767" lon="10.9282133"><ele>162.0</ele><time>2026-04-18T11:44:41.155Z</time></trkpt><trkpt lat="45.5169017" lon="10.9282233"><ele>161.33333333333334</ele><time>2026-04-18T11:44:42.148Z</time></trkpt><trkpt lat="45.5168017" lon="10.92821"><ele>160.66666666666669</ele><time>2026-04-18T11:44:44.154Z</time></trkpt><trkpt lat="45.51676" lon="10.9281283"><ele>160.0</ele><time>2026-04-18T11:44:46.148Z</time></trkpt><trkpt lat="45.5167517" lon="10.9279683"><ele>160.0</ele><time>2026-04-18T11:44:48.15Z</time></trkpt><trkpt lat="45.51676" lon="10.9278083"><ele>160.0</ele><time>2026-04-18T11:44:50.148Z</time></trkpt><trkpt lat="45.516785" lon="10.9276183"><ele>160.0</ele><time>2026-04-18T11:44:52.154Z</time></trkpt><trkpt lat="45.5168083" lon="10.927505"><ele>160.0</ele><time>2026-04-18T11:44:53.159Z</time></trkpt><trkpt lat="45.5168417" lon="10.9273983"><ele>160.0</ele><time>2026-04-18T11:44:54.15Z</time></trkpt><trkpt lat="45.5168733" lon="10.9272867"><ele>159.66666666666669</ele><time>2026-04-18T11:44:55.16Z</time></trkpt><trkpt lat="45.51692" lon="10.92718"><ele>159.33333333333334</ele><time>2026-04-18T11:44:56.156Z</time></trkpt><trkpt lat="45.5169767" lon="10.9270767"><ele>159.0</ele><time>2026-04-18T11:44:57.151Z</time></trkpt><trkpt lat="45.51703" lon="10.9269833"><ele>158.66666666666666</ele><time>2026-04-18T11:44:58.152Z</time></trkpt><trkpt lat="45.5170733" lon="10.9269017"><ele>158.33333333333331</ele><time>2026-04-18T11:44:59.157Z</time></trkpt><trkpt lat="45.5171083" lon="10.926755"><ele>158.0</ele><time>2026-04-18T11:45:01.167Z</time></trkpt><trkpt lat="45.5170667" lon="10.9266233"><ele>157.85714285714286</ele><time>2026-04-18T11:45:03.151Z</time></trkpt><trkpt lat="45.51702" lon="10.92656"><ele>157.71428571428572</ele><time>2026-04-18T11:45:04.155Z</time></trkpt><trkpt lat="45.5169633" lon="10.9265083"><ele>157.57142857142856</ele><time>2026-04-18T11:45:05.171Z</time></trkpt><trkpt lat="45.5169067" lon="10.9264517"><ele>157.42857142857144</ele><time>2026-04-18T11:45:06.152Z</time></trkpt><trkpt lat="45.5168517" lon="10.9264"><ele>157.28571428571428</ele><time>2026-04-18T11:45:07.15Z</time></trkpt><trkpt lat="45.5168" lon="10.9263483"><ele>157.14285714285714</ele><time>2026-04-18T11:45:08.153Z</time></trkpt><trkpt lat="45.5167133" lon="10.926255"><ele>157.0</ele><time>2026-04-18T11:45:10.15Z</time></trkpt><trkpt lat="45.5166433" lon="10.9261883"><ele>157.0</ele><time>2026-04-18T11:45:12.159Z</time></trkpt><trkpt lat="45.51658" lon="10.9261283"><ele>157.0</ele><time>2026-04-18T11:45:14.148Z</time></trkpt><trkpt lat="45.5165183" lon="10.9260933"><ele>157.0</ele><time>2026-04-18T11:45:16.152Z</time></trkpt><trkpt lat="45.5164367" lon="10.92612"><ele>157.0</ele><time>2026-04-18T11:45:19.162Z</time></trkpt><trkpt lat="45.5163533" lon="10.9261517"><ele>157.0</ele><time>2026-04-18T11:45:21.164Z</time></trkpt><trkpt lat="45.5162683" lon="10.926115"><ele>157.0</ele><time>2026-04-18T11:45:23.155Z</time></trkpt><trkpt lat="45.516195" lon="10.92605"><ele>157.0</ele><time>2026-04-18T11:45:25.158Z</time></trkpt><trkpt lat="45.5161233" lon="10.9259917"><ele>157.0</ele><time>2026-04-18T11:45:27.162Z</time></trkpt><trkpt lat="45.5160383" lon="10.925925"><ele>157.0</ele><time>2026-04-18T11:45:29.155Z</time></trkpt><trkpt lat="45.5159817" lon="10.9258767"><ele>157.0</ele><time>2026-04-18T11:45:30.15Z</time></trkpt><trkpt lat="45.5159117" lon="10.925825"><ele>157.0</ele><time>2026-04-18T11:45:31.187Z</time></trkpt><trkpt lat="45.5158317" lon="10.9257667"><ele>157.0</ele><time>2026-04-18T11:45:32.149Z</time></trkpt><trkpt lat="45.5157333" lon="10.9257167"><ele>157.0</ele><time>2026-04-18T11:45:33.153Z</time></trkpt><trkpt lat="45.5156133" lon="10.9256517"><ele>157.0</ele><time>2026-04-18T11:45:34.153Z</time></trkpt><trkpt lat="45.5154917" lon="10.9255333"><ele>157.0</ele><time>2026-04-18T11:45:35.149Z</time></trkpt><trkpt lat="45.51536" lon="10.9254433"><ele>157.0</ele><time>2026-04-18T11:45:36.157Z</time></trkpt><trkpt lat="45.5152433" lon="10.9253317"><ele>157.0</ele><time>2026-04-18T11:45:37.156Z</time></trkpt><trkpt lat="45.5151383" lon="10.9252267"><ele>157.0</ele><time>2026-04-18T11:45:38.156Z</time></trkpt><trkpt lat="45.5150167" lon="10.9251467"><ele>157.0</ele><time>2026-04-18T11:45:39.16Z</time></trkpt><trkpt lat="45.5149167" lon="10.925045"><ele>157.0</ele><time>2026-04-18T11:45:40.151Z</time></trkpt><trkpt lat="45.514815" lon="10.9249483"><ele>157.0</ele><time>2026-04-18T11:45:41.154Z</time></trkpt><trkpt lat="45.5147267" lon="10.924855"><ele>157.0</ele><time>2026-04-18T11:45:42.149Z</time></trkpt><trkpt lat="45.5146317" lon="10.924715"><ele>157.0</ele><time>2026-04-18T11:45:43.16Z</time></trkpt><trkpt lat="45.5145467" lon="10.92459"><ele>157.0</ele><time>2026-04-18T11:45:44.156Z</time></trkpt><trkpt lat="45.5144617" lon="10.9244783"><ele>155.75</ele><time>2026-04-18T11:45:45.152Z</time></trkpt><trkpt lat="45.51436" lon="10.9243483"><ele>154.5</ele><time>2026-04-18T11:45:46.148Z</time></trkpt><trkpt lat="45.514255" lon="10.9242483"><ele>153.25</ele><time>2026-04-18T11:45:47.177Z</time></trkpt><trkpt lat="45.51416" lon="10.924165"><ele>152.0</ele><time>2026-04-18T11:45:48.155Z</time></trkpt><trkpt lat="45.5140683" lon="10.9240783"><ele>152.0</ele><time>2026-04-18T11:45:49.166Z</time></trkpt><trkpt lat="45.5139883" lon="10.9239867"><ele>152.0</ele><time>2026-04-18T11:45:50.159Z</time></trkpt><trkpt lat="45.513925" lon="10.9238833"><ele>152.0</ele><time>2026-04-18T11:45:51.161Z</time></trkpt><trkpt lat="45.513875" lon="10.923775"><ele>152.0</ele><time>2026-04-18T11:45:52.147Z</time></trkpt><trkpt lat="45.5138383" lon="10.923675"><ele>152.0</ele><time>2026-04-18T11:45:53.165Z</time></trkpt><trkpt lat="45.51382" lon="10.9235733"><ele>152.0</ele><time>2026-04-18T11:45:54.155Z</time></trkpt><trkpt lat="45.5138" lon="10.9234767"><ele>152.79999999999998</ele><time>2026-04-18T11:45:55.158Z</time></trkpt><trkpt lat="45.51377" lon="10.92337"><ele>153.6</ele><time>2026-04-18T11:45:56.155Z</time></trkpt><trkpt lat="45.5137367" lon="10.9232483"><ele>154.39999999999998</ele><time>2026-04-18T11:45:57.164Z</time></trkpt><trkpt lat="45.5137083" lon="10.923115"><ele>155.2</ele><time>2026-04-18T11:45:58.149Z</time></trkpt><trkpt lat="45.5136883" lon="10.9229683"><ele>156.0</ele><time>2026-04-18T11:45:59.165Z</time></trkpt><trkpt lat="45.5136667" lon="10.922865"><ele>153.6</ele><time>2026-04-18T11:46:00.176Z</time></trkpt><trkpt lat="45.5136167" lon="10.9227933"><ele>151.2</ele><time>2026-04-18T11:46:01.165Z</time></trkpt><trkpt lat="45.51355" lon="10.92275"><ele>148.8</ele><time>2026-04-18T11:46:02.146Z</time></trkpt><trkpt lat="45.513455" lon="10.9227433"><ele>146.4</ele><time>2026-04-18T11:46:03.162Z</time></trkpt><trkpt lat="45.5133417" lon="10.9227417"><ele>144.0</ele><time>2026-04-18T11:46:04.15Z</time></trkpt><trkpt lat="45.5132267" lon="10.9227417"><ele>144.0</ele><time>2026-04-18T11:46:05.154Z</time></trkpt><trkpt lat="45.51311" lon="10.922745"><ele>144.0</ele><time>2026-04-18T11:46:06.154Z</time></trkpt><trkpt lat="45.5129867" lon="10.9227783"><ele>144.0</ele><time>2026-04-18T11:46:07.152Z</time></trkpt><trkpt lat="45.5128583" lon="10.9227933"><ele>144.0</ele><time>2026-04-18T11:46:08.151Z</time></trkpt><trkpt lat="45.512725" lon="10.9227933"><ele>142.4</ele><time>2026-04-18T11:46:09.16Z</time></trkpt><trkpt lat="45.5126033" lon="10.9227933"><ele>140.8</ele><time>2026-04-18T11:46:10.152Z</time></trkpt><trkpt lat="45.5124867" lon="10.9228"><ele>139.2</ele><time>2026-04-18T11:46:11.171Z</time></trkpt><trkpt lat="45.512395" lon="10.9227783"><ele>137.6</ele><time>2026-04-18T11:46:12.153Z</time></trkpt><trkpt lat="45.5123233" lon="10.9227667"><ele>136.0</ele><time>2026-04-18T11:46:13.16Z</time></trkpt><trkpt lat="45.5122567" lon="10.9227517"><ele>136.0</ele><time>2026-04-18T11:46:14.148Z</time></trkpt><trkpt lat="45.5121517" lon="10.9227333"><ele>136.0</ele><time>2026-04-18T11:46:16.152Z</time></trkpt><trkpt lat="45.5120883" lon="10.9227033"><ele>136.0</ele><time>2026-04-18T11:46:19.165Z</time></trkpt><trkpt lat="45.51206" lon="10.9225917"><ele>136.0</ele><time>2026-04-18T11:46:34.155Z</time></trkpt><trkpt lat="45.5120617" lon="10.9224417"><ele>136.0</ele><time>2026-04-18T11:46:36.147Z</time></trkpt><trkpt lat="45.51204" lon="10.9222933"><ele>137.4</ele><time>2026-04-18T11:46:38.152Z</time></trkpt><trkpt lat="45.51198" lon="10.9221683"><ele>138.8</ele><time>2026-04-18T11:46:40.161Z</time></trkpt><trkpt lat="45.5118967" lon="10.922115"><ele>140.20000000000002</ele><time>2026-04-18T11:46:42.159Z</time></trkpt><trkpt lat="45.51178" lon="10.9221117"><ele>141.6</ele><time>2026-04-18T11:46:44.158Z</time></trkpt><trkpt lat="45.5117033" lon="10.9221267"><ele>143.0</ele><time>2026-04-18T11:46:45.164Z</time></trkpt><trkpt lat="45.5116183" lon="10.9221533"><ele>143.0</ele><time>2026-04-18T11:46:46.16Z</time></trkpt><trkpt lat="45.51153" lon="10.92218"><ele>143.0</ele><time>2026-04-18T11:46:47.16Z</time></trkpt><trkpt lat="45.5114433" lon="10.9222133"><ele>143.0</ele><time>2026-04-18T11:46:48.153Z</time></trkpt><trkpt lat="45.51136" lon="10.9222367"><ele>143.0</ele><time>2026-04-18T11:46:49.152Z</time></trkpt><trkpt lat="45.5112767" lon="10.9222583"><ele>143.0</ele><time>2026-04-18T11:46:50.157Z</time></trkpt><trkpt lat="45.5111917" lon="10.9222867"><ele>143.0</ele><time>2026-04-18T11:46:51.169Z</time></trkpt><trkpt lat="45.5111067" lon="10.92232"><ele>143.66666666666666</ele><time>2026-04-18T11:46:52.145Z</time></trkpt><trkpt lat="45.5110217" lon="10.92236"><ele>144.33333333333331</ele><time>2026-04-18T11:46:53.163Z</time></trkpt><trkpt lat="45.51094" lon="10.922385"><ele>145.0</ele><time>2026-04-18T11:46:54.153Z</time></trkpt><trkpt lat="45.5108567" lon="10.92241"><ele>145.66666666666666</ele><time>2026-04-18T11:46:55.163Z</time></trkpt><trkpt lat="45.5107717" lon="10.9224367"><ele>146.33333333333334</ele><time>2026-04-18T11:46:56.147Z</time></trkpt><trkpt lat="45.510685" lon="10.922475"><ele>147.0</ele><time>2026-04-18T11:46:57.169Z</time></trkpt><trkpt lat="45.510595" lon="10.9225117"><ele>147.0</ele><time>2026-04-18T11:46:58.147Z</time></trkpt><trkpt lat="45.510495" lon="10.9225617"><ele>147.0</ele><time>2026-04-18T11:46:59.159Z</time></trkpt><trkpt lat="45.5103833" lon="10.9226317"><ele>147.0</ele><time>2026-04-18T11:47:00.161Z</time></trkpt><trkpt lat="45.5102917" lon="10.92269"><ele>147.0</ele><time>2026-04-18T11:47:01.155Z</time></trkpt><trkpt lat="45.5102017" lon="10.9227333"><ele>147.0</ele><time>2026-04-18T11:47:02.152Z</time></trkpt><trkpt lat="45.51011" lon="10.9227817"><ele>143.6</ele><time>2026-04-18T11:47:03.157Z</time></trkpt><trkpt lat="45.5100267" lon="10.92282"><ele>140.2</ele><time>2026-04-18T11:47:04.157Z</time></trkpt><trkpt lat="45.509935" lon="10.9228283"><ele>136.8</ele><time>2026-04-18T11:47:05.15Z</time></trkpt><trkpt lat="45.5098333" lon="10.9228567"><ele>133.4</ele><time>2026-04-18T11:47:06.154Z</time></trkpt><trkpt lat="45.509725" lon="10.9228867"><ele>130.0</ele><time>2026-04-18T11:47:07.156Z</time></trkpt><trkpt lat="45.5096367" lon="10.9228983"><ele>130.66666666666669</ele><time>2026-04-18T11:47:08.15Z</time></trkpt><trkpt lat="45.509555" lon="10.9229167"><ele>131.33333333333334</ele><time>2026-04-18T11:47:09.153Z</time></trkpt><trkpt lat="45.5094867" lon="10.9229117"><ele>132.0</ele><time>2026-04-18T11:47:10.153Z</time></trkpt><trkpt lat="45.5093967" lon="10.9228983"><ele>132.66666666666666</ele><time>2026-04-18T11:47:12.153Z</time></trkpt><trkpt lat="45.50934" lon="10.9228117"><ele>133.33333333333331</ele><time>2026-04-18T11:47:14.158Z</time></trkpt><trkpt lat="45.50925" lon="10.922775"><ele>134.0</ele><time>2026-04-18T11:47:16.153Z</time></trkpt><trkpt lat="45.5091283" lon="10.9227633"><ele>134.0</ele><time>2026-04-18T11:47:18.149Z</time></trkpt><trkpt lat="45.509025" lon="10.9227533"><ele>134.0</ele><time>2026-04-18T11:47:20.153Z</time></trkpt><trkpt lat="45.5089333" lon="10.9227433"><ele>134.0</ele><time>2026-04-18T11:47:22.144Z</time></trkpt><trkpt lat="45.50884" lon="10.922735"><ele>134.0</ele><time>2026-04-18T11:47:24.148Z</time></trkpt><trkpt lat="45.50873" lon="10.9227183"><ele>134.0</ele><time>2026-04-18T11:47:26.153Z</time></trkpt><trkpt lat="45.508605" lon="10.922705"><ele>132.5</ele><time>2026-04-18T11:47:28.149Z</time></trkpt><trkpt lat="45.5085367" lon="10.9226883"><ele>131.0</ele><time>2026-04-18T11:47:29.156Z</time></trkpt><trkpt lat="45.5084617" lon="10.9226583"><ele>129.5</ele><time>2026-04-18T11:47:30.148Z</time></trkpt><trkpt lat="45.5083833" lon="10.9226117"><ele>128.0</ele><time>2026-04-18T11:47:31.155Z</time></trkpt><trkpt lat="45.5083067" lon="10.9225617"><ele>126.49999999999999</ele><time>2026-04-18T11:47:32.153Z</time></trkpt><trkpt lat="45.5082267" lon="10.9225133"><ele>125.0</ele><time>2026-04-18T11:47:33.155Z</time></trkpt><trkpt lat="45.5081417" lon="10.9224667"><ele>125.6</ele><time>2026-04-18T11:47:34.144Z</time></trkpt><trkpt lat="45.5080517" lon="10.92242"><ele>126.2</ele><time>2026-04-18T11:47:35.153Z</time></trkpt><trkpt lat="45.507965" lon="10.9223717"><ele>126.80000000000001</ele><time>2026-04-18T11:47:36.17Z</time></trkpt><trkpt lat="45.50787" lon="10.9223267"><ele>127.4</ele><time>2026-04-18T11:47:37.153Z</time></trkpt><trkpt lat="45.507775" lon="10.9222817"><ele>128.0</ele><time>2026-04-18T11:47:38.151Z</time></trkpt><trkpt lat="45.5076817" lon="10.9222183"><ele>127.99999999999999</ele><time>2026-04-18T11:47:39.159Z</time></trkpt><trkpt lat="45.5075817" lon="10.922195"><ele>128.0</ele><time>2026-04-18T11:47:40.146Z</time></trkpt><trkpt lat="45.5074933" lon="10.9221533"><ele>128.0</ele><time>2026-04-18T11:47:41.157Z</time></trkpt><trkpt lat="45.5074117" lon="10.9221067"><ele>128.0</ele><time>2026-04-18T11:47:42.153Z</time></trkpt><trkpt lat="45.5073317" lon="10.9220617"><ele>127.99999999999999</ele><time>2026-04-18T11:47:43.16Z</time></trkpt><trkpt lat="45.5072567" lon="10.9220267"><ele>128.0</ele><time>2026-04-18T11:47:44.152Z</time></trkpt><trkpt lat="45.5071817" lon="10.9219917"><ele>128.0</ele><time>2026-04-18T11:47:45.169Z</time></trkpt><trkpt lat="45.50711" lon="10.9219667"><ele>127.99999999999999</ele><time>2026-04-18T11:47:46.168Z</time></trkpt><trkpt lat="45.5070417" lon="10.92195"><ele>128.0</ele><time>2026-04-18T11:47:47.153Z</time></trkpt><trkpt lat="45.5069717" lon="10.9219367"><ele>128.0</ele><time>2026-04-18T11:47:48.154Z</time></trkpt><trkpt lat="45.5069017" lon="10.9219283"><ele>127.99999999999999</ele><time>2026-04-18T11:47:49.165Z</time></trkpt><trkpt lat="45.5068333" lon="10.9219167"><ele>128.0</ele><time>2026-04-18T11:47:50.156Z</time></trkpt><trkpt lat="45.506765" lon="10.9219033"><ele>128.0</ele><time>2026-04-18T11:47:51.16Z</time></trkpt><trkpt lat="45.506695" lon="10.921875"><ele>128.66666666666666</ele><time>2026-04-18T11:47:52.15Z</time></trkpt><trkpt lat="45.5066233" lon="10.92184"><ele>129.33333333333331</ele><time>2026-04-18T11:47:53.162Z</time></trkpt><trkpt lat="45.5065483" lon="10.921805"><ele>130.0</ele><time>2026-04-18T11:47:54.148Z</time></trkpt><trkpt lat="45.5064717" lon="10.9217717"><ele>130.66666666666666</ele><time>2026-04-18T11:47:55.174Z</time></trkpt><trkpt lat="45.50639" lon="10.92174"><ele>131.33333333333334</ele><time>2026-04-18T11:47:56.15Z</time></trkpt><trkpt lat="45.5063133" lon="10.9217133"><ele>132.0</ele><time>2026-04-18T11:47:57.158Z</time></trkpt><trkpt lat="45.5062417" lon="10.9216917"><ele>130.16666666666666</ele><time>2026-04-18T11:47:58.154Z</time></trkpt><trkpt lat="45.5061783" lon="10.9216717"><ele>128.33333333333334</ele><time>2026-04-18T11:47:59.157Z</time></trkpt><trkpt lat="45.50608" lon="10.9216217"><ele>126.5</ele><time>2026-04-18T11:48:01.155Z</time></trkpt><trkpt lat="45.5059933" lon="10.921565"><ele>124.66666666666667</ele><time>2026-04-18T11:48:03.169Z</time></trkpt><trkpt lat="45.505925" lon="10.9215383"><ele>122.83333333333334</ele><time>2026-04-18T11:48:05.155Z</time></trkpt><trkpt lat="45.5058617" lon="10.921595"><ele>121.0</ele><time>2026-04-18T11:48:07.152Z</time></trkpt><trkpt lat="45.5058183" lon="10.9216817"><ele>121.0</ele><time>2026-04-18T11:48:09.154Z</time></trkpt><trkpt lat="45.5057633" lon="10.9217717"><ele>121.0</ele><time>2026-04-18T11:48:12.151Z</time></trkpt><trkpt lat="45.5056667" lon="10.9217033"><ele>121.0</ele><time>2026-04-18T11:48:15.149Z</time></trkpt><trkpt lat="45.5055617" lon="10.9216033"><ele>121.0</ele><time>2026-04-18T11:48:17.171Z</time></trkpt><trkpt lat="45.5054917" lon="10.92154"><ele>121.0</ele><time>2026-04-18T11:48:18.156Z</time></trkpt><trkpt lat="45.5054083" lon="10.921465"><ele>119.5</ele><time>2026-04-18T11:48:19.15Z</time></trkpt><trkpt lat="45.5053083" lon="10.92137"><ele>118.0</ele><time>2026-04-18T11:48:20.152Z</time></trkpt><trkpt lat="45.5052117" lon="10.921275"><ele>116.5</ele><time>2026-04-18T11:48:21.15Z</time></trkpt><trkpt lat="45.505105" lon="10.9211867"><ele>115.0</ele><time>2026-04-18T11:48:22.149Z</time></trkpt><trkpt lat="45.504975" lon="10.921075"><ele>115.0</ele><time>2026-04-18T11:48:23.175Z</time></trkpt><trkpt lat="45.5048367" lon="10.9209367"><ele>115.0</ele><time>2026-04-18T11:48:24.159Z</time></trkpt><trkpt lat="45.5047233" lon="10.9207767"><ele>115.0</ele><time>2026-04-18T11:48:25.152Z</time></trkpt><trkpt lat="45.5046417" lon="10.9206233"><ele>115.0</ele><time>2026-04-18T11:48:26.154Z</time></trkpt><trkpt lat="45.5045717" lon="10.92049"><ele>115.0</ele><time>2026-04-18T11:48:27.159Z</time></trkpt><trkpt lat="45.5044983" lon="10.92038"><ele>115.0</ele><time>2026-04-18T11:48:28.158Z</time></trkpt><trkpt lat="45.5044233" lon="10.92032"><ele>115.0</ele><time>2026-04-18T11:48:29.163Z</time></trkpt><trkpt lat="45.5043483" lon="10.9202717"><ele>115.0</ele><time>2026-04-18T11:48:30.175Z</time></trkpt><trkpt lat="45.5042667" lon="10.92019"><ele>115.8</ele><time>2026-04-18T11:48:32.159Z</time></trkpt><trkpt lat="45.5042333" lon="10.9200483"><ele>116.6</ele><time>2026-04-18T11:48:34.146Z</time></trkpt><trkpt lat="45.5042" lon="10.9198917"><ele>117.4</ele><time>2026-04-18T11:48:36.161Z</time></trkpt><trkpt lat="45.5041767" lon="10.919755"><ele>118.2</ele><time>2026-04-18T11:48:38.148Z</time></trkpt><trkpt lat="45.5041483" lon="10.9195883"><ele>119.0</ele><time>2026-04-18T11:48:40.159Z</time></trkpt><trkpt lat="45.5041367" lon="10.919465"><ele>118.99999999999999</ele><time>2026-04-18T11:48:41.148Z</time></trkpt><trkpt lat="45.5041233" lon="10.9193467"><ele>119.0</ele><time>2026-04-18T11:48:42.152Z</time></trkpt><trkpt lat="45.504105" lon="10.9192333"><ele>119.0</ele><time>2026-04-18T11:48:43.165Z</time></trkpt><trkpt lat="45.5040883" lon="10.919125"><ele>119.0</ele><time>2026-04-18T11:48:44.161Z</time></trkpt><trkpt lat="45.50407" lon="10.9190267"><ele>118.99999999999999</ele><time>2026-04-18T11:48:45.149Z</time></trkpt><trkpt lat="45.5040417" lon="10.9188667"><ele>119.0</ele><time>2026-04-18T11:48:47.156Z</time></trkpt><trkpt lat="45.5039833" lon="10.9187283"><ele>119.0</ele><time>2026-04-18T11:48:49.157Z</time></trkpt><trkpt lat="45.50392" lon="10.9186733"><ele>119.0</ele><time>2026-04-18T11:48:50.158Z</time></trkpt><trkpt lat="45.5038133" lon="10.9185983"><ele>119.0</ele><time>2026-04-18T11:48:52.151Z</time></trkpt><trkpt lat="45.5036483" lon="10.918605"><ele>119.0</ele><time>2026-04-18T11:49:00.155Z</time></trkpt><trkpt lat="45.50357" lon="10.9186567"><ele>119.0</ele><time>2026-04-18T11:49:01.161Z</time></trkpt><trkpt lat="45.5034067" lon="10.918775"><ele>118.16666666666666</ele><time>2026-04-18T11:49:03.155Z</time></trkpt><trkpt lat="45.5033267" lon="10.91883"><ele>117.33333333333333</ele><time>2026-04-18T11:49:04.149Z</time></trkpt><trkpt lat="45.5032533" lon="10.9188883"><ele>116.5</ele><time>2026-04-18T11:49:05.153Z</time></trkpt><trkpt lat="45.5031767" lon="10.918945"><ele>115.66666666666666</ele><time>2026-04-18T11:49:06.151Z</time></trkpt><trkpt lat="45.5031083" lon="10.918995"><ele>114.83333333333333</ele><time>2026-04-18T11:49:07.155Z</time></trkpt><trkpt lat="45.5030317" lon="10.9190317"><ele>114.0</ele><time>2026-04-18T11:49:08.153Z</time></trkpt><trkpt lat="45.50296" lon="10.919045"><ele>113.2</ele><time>2026-04-18T11:49:09.154Z</time></trkpt><trkpt lat="45.502895" lon="10.9190633"><ele>112.4</ele><time>2026-04-18T11:49:10.147Z</time></trkpt><trkpt lat="45.502785" lon="10.9190817"><ele>111.6</ele><time>2026-04-18T11:49:12.155Z</time></trkpt><trkpt lat="45.5027083" lon="10.9191067"><ele>110.8</ele><time>2026-04-18T11:49:14.152Z</time></trkpt><trkpt lat="45.5026233" lon="10.91916"><ele>110.0</ele><time>2026-04-18T11:49:25.171Z</time></trkpt><trkpt lat="45.5024967" lon="10.9191817"><ele>110.0</ele><time>2026-04-18T11:49:27.169Z</time></trkpt><trkpt lat="45.5023717" lon="10.9191983"><ele>110.0</ele><time>2026-04-18T11:49:28.146Z</time></trkpt><trkpt lat="45.5022317" lon="10.91922"><ele>110.0</ele><time>2026-04-18T11:49:29.184Z</time></trkpt><trkpt lat="45.5021" lon="10.9192617"><ele>110.0</ele><time>2026-04-18T11:49:30.147Z</time></trkpt><trkpt lat="45.50195" lon="10.9193133"><ele>109.33333333333333</ele><time>2026-04-18T11:49:31.157Z</time></trkpt><trkpt lat="45.5017817" lon="10.9193867"><ele>108.66666666666666</ele><time>2026-04-18T11:49:32.147Z</time></trkpt><trkpt lat="45.50162" lon="10.919435"><ele>108.0</ele><time>2026-04-18T11:49:33.161Z</time></trkpt><trkpt lat="45.5014467" lon="10.9194833"><ele>108.0</ele><time>2026-04-18T11:49:34.159Z</time></trkpt><trkpt lat="45.5013183" lon="10.9195567"><ele>108.00000000000001</ele><time>2026-04-18T11:49:35.166Z</time></trkpt><trkpt lat="45.5012383" lon="10.9196183"><ele>108.00000000000001</ele><time>2026-04-18T11:49:36.148Z</time></trkpt><trkpt lat="45.501165" lon="10.9196617"><ele>108.0</ele><time>2026-04-18T11:49:37.164Z</time></trkpt><trkpt lat="45.5010833" lon="10.9197083"><ele>108.0</ele><time>2026-04-18T11:49:38.145Z</time></trkpt><trkpt lat="45.501005" lon="10.9197567"><ele>108.0</ele><time>2026-04-18T11:49:39.165Z</time></trkpt><trkpt lat="45.500885" lon="10.9198017"><ele>108.0</ele><time>2026-04-18T11:49:40.152Z</time></trkpt><trkpt lat="45.5007883" lon="10.91984"><ele>108.0</ele><time>2026-04-18T11:49:41.159Z</time></trkpt><trkpt lat="45.500665" lon="10.9198883"><ele>108.0</ele><time>2026-04-18T11:49:42.147Z</time></trkpt><trkpt lat="45.5005517" lon="10.91995"><ele>108.0</ele><time>2026-04-18T11:49:43.154Z</time></trkpt><trkpt lat="45.5004233" lon="10.9200117"><ele>108.0</ele><time>2026-04-18T11:49:44.151Z</time></trkpt><trkpt lat="45.500315" lon="10.9200667"><ele>108.0</ele><time>2026-04-18T11:49:45.157Z</time></trkpt><trkpt lat="45.500195" lon="10.920115"><ele>108.0</ele><time>2026-04-18T11:49:46.15Z</time></trkpt><trkpt lat="45.5000783" lon="10.9201417"><ele>107.2</ele><time>2026-04-18T11:49:47.157Z</time></trkpt><trkpt lat="45.49995" lon="10.9201867"><ele>106.4</ele><time>2026-04-18T11:49:48.145Z</time></trkpt><trkpt lat="45.49984" lon="10.9202033"><ele>105.60000000000001</ele><time>2026-04-18T11:49:49.152Z</time></trkpt><trkpt lat="45.4997583" lon="10.92021"><ele>104.80000000000001</ele><time>2026-04-18T11:49:50.155Z</time></trkpt><trkpt lat="45.49966" lon="10.9201983"><ele>104.0</ele><time>2026-04-18T11:49:51.153Z</time></trkpt><trkpt lat="45.499555" lon="10.9201883"><ele>104.0</ele><time>2026-04-18T11:49:52.155Z</time></trkpt><trkpt lat="45.4994483" lon="10.9201983"><ele>104.0</ele><time>2026-04-18T11:49:53.162Z</time></trkpt><trkpt lat="45.4993433" lon="10.9202033"><ele>104.0</ele><time>2026-04-18T11:49:54.16Z</time></trkpt><trkpt lat="45.499215" lon="10.9202017"><ele>104.0</ele><time>2026-04-18T11:49:55.149Z</time></trkpt><trkpt lat="45.49909" lon="10.920195"><ele>104.0</ele><time>2026-04-18T11:49:56.149Z</time></trkpt><trkpt lat="45.4989367" lon="10.9202"><ele>104.0</ele><time>2026-04-18T11:49:57.151Z</time></trkpt><trkpt lat="45.4987733" lon="10.9202067"><ele>104.0</ele><time>2026-04-18T11:49:58.153Z</time></trkpt><trkpt lat="45.4986067" lon="10.9202183"><ele>103.25</ele><time>2026-04-18T11:49:59.165Z</time></trkpt><trkpt lat="45.498455" lon="10.9202067"><ele>102.5</ele><time>2026-04-18T11:50:00.152Z</time></trkpt><trkpt lat="45.4983233" lon="10.9202033"><ele>101.75</ele><time>2026-04-18T11:50:01.159Z</time></trkpt><trkpt lat="45.4981767" lon="10.9201917"><ele>101.0</ele><time>2026-04-18T11:50:02.157Z</time></trkpt><trkpt lat="45.4980383" lon="10.92018"><ele>99.5</ele><time>2026-04-18T11:50:03.166Z</time></trkpt><trkpt lat="45.4978967" lon="10.920185"><ele>98.0</ele><time>2026-04-18T11:50:04.149Z</time></trkpt><trkpt lat="45.49776" lon="10.92017"><ele>96.5</ele><time>2026-04-18T11:50:05.166Z</time></trkpt><trkpt lat="45.49762" lon="10.9201567"><ele>95.0</ele><time>2026-04-18T11:50:06.154Z</time></trkpt><trkpt lat="45.4974767" lon="10.920155"><ele>95.0</ele><time>2026-04-18T11:50:07.161Z</time></trkpt><trkpt lat="45.4973467" lon="10.9201467"><ele>95.0</ele><time>2026-04-18T11:50:08.148Z</time></trkpt><trkpt lat="45.49723" lon="10.9201433"><ele>95.0</ele><time>2026-04-18T11:50:09.154Z</time></trkpt><trkpt lat="45.4971367" lon="10.9201717"><ele>95.0</ele><time>2026-04-18T11:50:10.146Z</time></trkpt><trkpt lat="45.4970533" lon="10.92022"><ele>95.0</ele><time>2026-04-18T11:50:11.166Z</time></trkpt><trkpt lat="45.4969933" lon="10.920295"><ele>94.66666666666667</ele><time>2026-04-18T11:50:12.156Z</time></trkpt><trkpt lat="45.49694" lon="10.9203783"><ele>94.33333333333334</ele><time>2026-04-18T11:50:13.157Z</time></trkpt><trkpt lat="45.4968867" lon="10.9204383"><ele>94.0</ele><time>2026-04-18T11:50:14.156Z</time></trkpt><trkpt lat="45.4967833" lon="10.92045"><ele>93.66666666666667</ele><time>2026-04-18T11:50:16.156Z</time></trkpt><trkpt lat="45.4967267" lon="10.9203983"><ele>93.33333333333333</ele><time>2026-04-18T11:50:17.156Z</time></trkpt><trkpt lat="45.49667" lon="10.920315"><ele>93.0</ele><time>2026-04-18T11:50:18.151Z</time></trkpt><trkpt lat="45.4966233" lon="10.9201783"><ele>93.25</ele><time>2026-04-18T11:50:19.16Z</time></trkpt><trkpt lat="45.4965883" lon="10.92"><ele>93.5</ele><time>2026-04-18T11:50:20.149Z</time></trkpt><trkpt lat="45.4965167" lon="10.9198317"><ele>93.75</ele><time>2026-04-18T11:50:21.151Z</time></trkpt><trkpt lat="45.4964433" lon="10.9196717"><ele>94.0</ele><time>2026-04-18T11:50:22.155Z</time></trkpt><trkpt lat="45.496365" lon="10.9194967"><ele>94.0</ele><time>2026-04-18T11:50:23.157Z</time></trkpt><trkpt lat="45.49629" lon="10.9192983"><ele>94.0</ele><time>2026-04-18T11:50:24.158Z</time></trkpt><trkpt lat="45.4962067" lon="10.91911"><ele>94.0</ele><time>2026-04-18T11:50:25.151Z</time></trkpt><trkpt lat="45.4961317" lon="10.9189217"><ele>94.25</ele><time>2026-04-18T11:50:26.15Z</time></trkpt><trkpt lat="45.49606" lon="10.9187383"><ele>94.5</ele><time>2026-04-18T11:50:27.15Z</time></trkpt><trkpt lat="45.495975" lon="10.9185683"><ele>94.75</ele><time>2026-04-18T11:50:28.155Z</time></trkpt><trkpt lat="45.49589" lon="10.918395"><ele>95.0</ele><time>2026-04-18T11:50:29.155Z</time></trkpt><trkpt lat="45.4957933" lon="10.9182383"><ele>96.0</ele><time>2026-04-18T11:50:30.147Z</time></trkpt><trkpt lat="45.4956867" lon="10.9180567"><ele>97.0</ele><time>2026-04-18T11:50:31.163Z</time></trkpt><trkpt lat="45.4955917" lon="10.91788"><ele>98.0</ele><time>2026-04-18T11:50:32.175Z</time></trkpt><trkpt lat="45.4955017" lon="10.917685"><ele>97.75</ele><time>2026-04-18T11:50:33.153Z</time></trkpt><trkpt lat="45.49541" lon="10.917515"><ele>97.5</ele><time>2026-04-18T11:50:34.146Z</time></trkpt><trkpt lat="45.4953167" lon="10.9173517"><ele>97.25</ele><time>2026-04-18T11:50:35.16Z</time></trkpt><trkpt lat="45.495235" lon="10.91722"><ele>97.0</ele><time>2026-04-18T11:50:36.149Z</time></trkpt><trkpt lat="45.4951067" lon="10.9171233"><ele>97.0</ele><time>2026-04-18T11:50:37.157Z</time></trkpt><trkpt lat="45.494995" lon="10.9170317"><ele>97.0</ele><time>2026-04-18T11:50:38.153Z</time></trkpt><trkpt lat="45.4948717" lon="10.916935"><ele>97.0</ele><time>2026-04-18T11:50:39.16Z</time></trkpt><trkpt lat="45.49473" lon="10.9168317"><ele>97.0</ele><time>2026-04-18T11:50:40.146Z</time></trkpt><trkpt lat="45.4945817" lon="10.91676"><ele>98.66666666666667</ele><time>2026-04-18T11:50:41.163Z</time></trkpt><trkpt lat="45.4944267" lon="10.9167367"><ele>100.33333333333334</ele><time>2026-04-18T11:50:42.158Z</time></trkpt><trkpt lat="45.494265" lon="10.9166783"><ele>102.0</ele><time>2026-04-18T11:50:43.158Z</time></trkpt><trkpt lat="45.4941067" lon="10.916645"><ele>102.33333333333334</ele><time>2026-04-18T11:50:44.161Z</time></trkpt><trkpt lat="45.49394" lon="10.9165783"><ele>102.66666666666667</ele><time>2026-04-18T11:50:45.165Z</time></trkpt><trkpt lat="45.493755" lon="10.91653"><ele>103.0</ele><time>2026-04-18T11:50:46.147Z</time></trkpt><trkpt lat="45.4935783" lon="10.9164817"><ele>103.0</ele><time>2026-04-18T11:50:47.15Z</time></trkpt><trkpt lat="45.4934117" lon="10.9163983"><ele>103.0</ele><time>2026-04-18T11:50:48.158Z</time></trkpt><trkpt lat="45.4932267" lon="10.916355"><ele>103.0</ele><time>2026-04-18T11:50:49.158Z</time></trkpt><trkpt lat="45.4930617" lon="10.91631"><ele>103.0</ele><time>2026-04-18T11:50:50.151Z</time></trkpt><trkpt lat="45.49291" lon="10.91626"><ele>103.0</ele><time>2026-04-18T11:50:51.154Z</time></trkpt><trkpt lat="45.492765" lon="10.9161917"><ele>103.0</ele><time>2026-04-18T11:50:52.15Z</time></trkpt><trkpt lat="45.4926017" lon="10.91611"><ele>103.0</ele><time>2026-04-18T11:50:53.164Z</time></trkpt><trkpt lat="45.4924533" lon="10.9160183"><ele>103.0</ele><time>2026-04-18T11:50:54.162Z</time></trkpt><trkpt lat="45.4923467" lon="10.915895"><ele>103.0</ele><time>2026-04-18T11:50:55.156Z</time></trkpt><trkpt lat="45.4922217" lon="10.9157417"><ele>103.33333333333334</ele><time>2026-04-18T11:50:56.156Z</time></trkpt><trkpt lat="45.4920983" lon="10.91558"><ele>103.66666666666666</ele><time>2026-04-18T11:50:57.155Z</time></trkpt><trkpt lat="45.4919667" lon="10.91541"><ele>104.0</ele><time>2026-04-18T11:50:58.151Z</time></trkpt><trkpt lat="45.491845" lon="10.9152533"><ele>104.0</ele><time>2026-04-18T11:50:59.156Z</time></trkpt><trkpt lat="45.4917133" lon="10.9151"><ele>104.0</ele><time>2026-04-18T11:51:00.149Z</time></trkpt><trkpt lat="45.49158" lon="10.9149417"><ele>104.0</ele><time>2026-04-18T11:51:01.147Z</time></trkpt><trkpt lat="45.49146" lon="10.9147717"><ele>104.33333333333333</ele><time>2026-04-18T11:51:02.145Z</time></trkpt><trkpt lat="45.4913233" lon="10.91459"><ele>104.66666666666666</ele><time>2026-04-18T11:51:03.164Z</time></trkpt><trkpt lat="45.4911683" lon="10.9144117"><ele>105.0</ele><time>2026-04-18T11:51:04.149Z</time></trkpt><trkpt lat="45.4910317" lon="10.9142483"><ele>105.33333333333334</ele><time>2026-04-18T11:51:05.153Z</time></trkpt><trkpt lat="45.4909083" lon="10.9140917"><ele>105.66666666666667</ele><time>2026-04-18T11:51:06.146Z</time></trkpt><trkpt lat="45.4907633" lon="10.9139283"><ele>106.0</ele><time>2026-04-18T11:51:07.165Z</time></trkpt><trkpt lat="45.4906283" lon="10.9137617"><ele>106.0</ele><time>2026-04-18T11:51:08.149Z</time></trkpt><trkpt lat="45.4904883" lon="10.913605"><ele>106.0</ele><time>2026-04-18T11:51:09.152Z</time></trkpt><trkpt lat="45.4903433" lon="10.913455"><ele>106.0</ele><time>2026-04-18T11:51:10.155Z</time></trkpt><trkpt lat="45.4902167" lon="10.9132967"><ele>106.0</ele><time>2026-04-18T11:51:11.154Z</time></trkpt><trkpt lat="45.4901033" lon="10.9131417"><ele>106.0</ele><time>2026-04-18T11:51:12.145Z</time></trkpt><trkpt lat="45.4899967" lon="10.9130217"><ele>106.0</ele><time>2026-04-18T11:51:13.161Z</time></trkpt><trkpt lat="45.48989" lon="10.912885"><ele>106.0</ele><time>2026-04-18T11:51:14.152Z</time></trkpt><trkpt lat="45.4897867" lon="10.9127667"><ele>106.0</ele><time>2026-04-18T11:51:15.153Z</time></trkpt><trkpt lat="45.4896883" lon="10.91267"><ele>106.0</ele><time>2026-04-18T11:51:16.15Z</time></trkpt><trkpt lat="45.4896" lon="10.91257"><ele>106.0</ele><time>2026-04-18T11:51:17.168Z</time></trkpt><trkpt lat="45.48953" lon="10.9124633"><ele>106.0</ele><time>2026-04-18T11:51:18.147Z</time></trkpt><trkpt lat="45.48947" lon="10.9123817"><ele>106.0</ele><time>2026-04-18T11:51:19.163Z</time></trkpt><trkpt lat="45.4894033" lon="10.912285"><ele>106.0</ele><time>2026-04-18T11:51:20.15Z</time></trkpt><trkpt lat="45.4893383" lon="10.9121617"><ele>106.0</ele><time>2026-04-18T11:51:21.162Z</time></trkpt><trkpt lat="45.4892967" lon="10.9120033"><ele>106.0</ele><time>2026-04-18T11:51:22.153Z</time></trkpt><trkpt lat="45.4892367" lon="10.911885"><ele>106.0</ele><time>2026-04-18T11:51:23.167Z</time></trkpt><trkpt lat="45.4891833" lon="10.91177"><ele>106.0</ele><time>2026-04-18T11:51:24.155Z</time></trkpt><trkpt lat="45.48914" lon="10.9116633"><ele>106.5</ele><time>2026-04-18T11:51:25.158Z</time></trkpt><trkpt lat="45.48909" lon="10.9115183"><ele>107.0</ele><time>2026-04-18T11:51:26.152Z</time></trkpt><trkpt lat="45.4890267" lon="10.9113567"><ele>107.5</ele><time>2026-04-18T11:51:27.155Z</time></trkpt><trkpt lat="45.4889683" lon="10.9111967"><ele>108.0</ele><time>2026-04-18T11:51:28.154Z</time></trkpt><trkpt lat="45.488905" lon="10.9110267"><ele>108.25</ele><time>2026-04-18T11:51:29.157Z</time></trkpt><trkpt lat="45.4888533" lon="10.910845"><ele>108.5</ele><time>2026-04-18T11:51:30.165Z</time></trkpt><trkpt lat="45.4887817" lon="10.9106833"><ele>108.75</ele><time>2026-04-18T11:51:31.153Z</time></trkpt><trkpt lat="45.4887167" lon="10.9105167"><ele>109.0</ele><time>2026-04-18T11:51:32.15Z</time></trkpt><trkpt lat="45.4886583" lon="10.9103717"><ele>109.0</ele><time>2026-04-18T11:51:33.155Z</time></trkpt><trkpt lat="45.488595" lon="10.910215"><ele>109.0</ele><time>2026-04-18T11:51:34.146Z</time></trkpt><trkpt lat="45.488555" lon="10.9100733"><ele>109.0</ele><time>2026-04-18T11:51:35.153Z</time></trkpt><trkpt lat="45.4884933" lon="10.9099067"><ele>109.0</ele><time>2026-04-18T11:51:36.153Z</time></trkpt><trkpt lat="45.4884167" lon="10.9097333"><ele>109.75</ele><time>2026-04-18T11:51:37.152Z</time></trkpt><trkpt lat="45.48835" lon="10.9095517"><ele>110.5</ele><time>2026-04-18T11:51:38.145Z</time></trkpt><trkpt lat="45.4882767" lon="10.9093917"><ele>111.25</ele><time>2026-04-18T11:51:39.148Z</time></trkpt><trkpt lat="45.48822" lon="10.9092367"><ele>112.0</ele><time>2026-04-18T11:51:40.153Z</time></trkpt><trkpt lat="45.48817" lon="10.9090517"><ele>112.25</ele><time>2026-04-18T11:51:41.157Z</time></trkpt><trkpt lat="45.4881383" lon="10.90886"><ele>112.5</ele><time>2026-04-18T11:51:42.151Z</time></trkpt><trkpt lat="45.4881117" lon="10.908685"><ele>112.75</ele><time>2026-04-18T11:51:43.153Z</time></trkpt><trkpt lat="45.4880817" lon="10.9085133"><ele>113.0</ele><time>2026-04-18T11:51:44.145Z</time></trkpt><trkpt lat="45.4880567" lon="10.9083883"><ele>113.4</ele><time>2026-04-18T11:51:45.152Z</time></trkpt><trkpt lat="45.4879883" lon="10.908255"><ele>113.80000000000001</ele><time>2026-04-18T11:51:46.145Z</time></trkpt><trkpt lat="45.487995" lon="10.908115"><ele>114.2</ele><time>2026-04-18T11:51:47.157Z</time></trkpt><trkpt lat="45.487965" lon="10.9079617"><ele>114.6</ele><time>2026-04-18T11:51:48.156Z</time></trkpt><trkpt lat="45.48794" lon="10.907825"><ele>115.0</ele><time>2026-04-18T11:51:49.159Z</time></trkpt><trkpt lat="45.4879167" lon="10.9077"><ele>112.75</ele><time>2026-04-18T11:51:50.152Z</time></trkpt><trkpt lat="45.4878917" lon="10.9075717"><ele>110.5</ele><time>2026-04-18T11:51:51.166Z</time></trkpt><trkpt lat="45.487875" lon="10.9074317"><ele>108.25</ele><time>2026-04-18T11:51:52.149Z</time></trkpt><trkpt lat="45.4878733" lon="10.9072283"><ele>106.0</ele><time>2026-04-18T11:51:53.179Z</time></trkpt><trkpt lat="45.4878867" lon="10.9069833"><ele>107.0</ele><time>2026-04-18T11:51:54.158Z</time></trkpt><trkpt lat="45.4879217" lon="10.9067217"><ele>108.0</ele><time>2026-04-18T11:51:55.154Z</time></trkpt><trkpt lat="45.4879617" lon="10.90645"><ele>109.0</ele><time>2026-04-18T11:51:56.146Z</time></trkpt><trkpt lat="45.4880233" lon="10.9062033"><ele>110.66666666666667</ele><time>2026-04-18T11:51:57.152Z</time></trkpt><trkpt lat="45.4880783" lon="10.9059783"><ele>112.33333333333334</ele><time>2026-04-18T11:51:58.154Z</time></trkpt><trkpt lat="45.4881383" lon="10.9057533"><ele>114.0</ele><time>2026-04-18T11:51:59.15Z</time></trkpt><trkpt lat="45.4881883" lon="10.9055467"><ele>114.0</ele><time>2026-04-18T11:52:00.161Z</time></trkpt><trkpt lat="45.488245" lon="10.9053283"><ele>114.0</ele><time>2026-04-18T11:52:01.165Z</time></trkpt><trkpt lat="45.488305" lon="10.9050933"><ele>114.0</ele><time>2026-04-18T11:52:02.151Z</time></trkpt><trkpt lat="45.4883767" lon="10.9048583"><ele>114.0</ele><time>2026-04-18T11:52:03.151Z</time></trkpt><trkpt lat="45.4884367" lon="10.9046133"><ele>114.0</ele><time>2026-04-18T11:52:04.151Z</time></trkpt><trkpt lat="45.488475" lon="10.9043583"><ele>114.0</ele><time>2026-04-18T11:52:05.164Z</time></trkpt><trkpt lat="45.4885067" lon="10.9041233"><ele>113.66666666666666</ele><time>2026-04-18T11:52:06.15Z</time></trkpt><trkpt lat="45.4885167" lon="10.9039033"><ele>113.33333333333333</ele><time>2026-04-18T11:52:07.164Z</time></trkpt><trkpt lat="45.4885167" lon="10.9036967"><ele>113.0</ele><time>2026-04-18T11:52:08.148Z</time></trkpt><trkpt lat="45.488495" lon="10.9034783"><ele>113.33333333333333</ele><time>2026-04-18T11:52:09.155Z</time></trkpt><trkpt lat="45.4884633" lon="10.9032717"><ele>113.66666666666666</ele><time>2026-04-18T11:52:10.147Z</time></trkpt><trkpt lat="45.4884183" lon="10.9030483"><ele>114.0</ele><time>2026-04-18T11:52:11.155Z</time></trkpt><trkpt lat="45.48841" lon="10.9028183"><ele>114.0</ele><time>2026-04-18T11:52:12.149Z</time></trkpt><trkpt lat="45.4884183" lon="10.9025983"><ele>114.0</ele><time>2026-04-18T11:52:13.167Z</time></trkpt><trkpt lat="45.4884617" lon="10.9021967"><ele>114.0</ele><time>2026-04-18T11:52:15.165Z</time></trkpt><trkpt lat="45.4884783" lon="10.9020033"><ele>114.0</ele><time>2026-04-18T11:52:16.155Z</time></trkpt><trkpt lat="45.48848" lon="10.9018333"><ele>114.0</ele><time>2026-04-18T11:52:17.174Z</time></trkpt><trkpt lat="45.4885" lon="10.901675"><ele>114.0</ele><time>2026-04-18T11:52:18.146Z</time></trkpt><trkpt lat="45.4885567" lon="10.90152"><ele>114.0</ele><time>2026-04-18T11:52:19.157Z</time></trkpt><trkpt lat="45.488555" lon="10.9013733"><ele>114.0</ele><time>2026-04-18T11:52:20.152Z</time></trkpt><trkpt lat="45.4885633" lon="10.9012317"><ele>114.0</ele><time>2026-04-18T11:52:21.149Z</time></trkpt><trkpt lat="45.488575" lon="10.9010983"><ele>114.0</ele><time>2026-04-18T11:52:22.151Z</time></trkpt><trkpt lat="45.4885933" lon="10.90097"><ele>114.0</ele><time>2026-04-18T11:52:23.156Z</time></trkpt><trkpt lat="45.4886133" lon="10.90084"><ele>114.0</ele><time>2026-04-18T11:52:24.149Z</time></trkpt><trkpt lat="45.48865" lon="10.9006917"><ele>113.75</ele><time>2026-04-18T11:52:25.151Z</time></trkpt><trkpt lat="45.48872" lon="10.900545"><ele>113.5</ele><time>2026-04-18T11:52:26.144Z</time></trkpt><trkpt lat="45.488775" lon="10.9004"><ele>113.25</ele><time>2026-04-18T11:52:27.153Z</time></trkpt><trkpt lat="45.4888617" lon="10.90028"><ele>113.0</ele><time>2026-04-18T11:52:28.152Z</time></trkpt><trkpt lat="45.4888833" lon="10.9001517"><ele>113.60000000000001</ele><time>2026-04-18T11:52:29.151Z</time></trkpt><trkpt lat="45.48891" lon="10.9000117"><ele>114.20000000000002</ele><time>2026-04-18T11:52:30.152Z</time></trkpt><trkpt lat="45.4889267" lon="10.8998683"><ele>114.8</ele><time>2026-04-18T11:52:31.153Z</time></trkpt><trkpt lat="45.4889083" lon="10.8997183"><ele>115.4</ele><time>2026-04-18T11:52:32.152Z</time></trkpt><trkpt lat="45.4889033" lon="10.8995583"><ele>116.0</ele><time>2026-04-18T11:52:33.163Z</time></trkpt><trkpt lat="45.488865" lon="10.89939"><ele>115.0</ele><time>2026-04-18T11:52:34.15Z</time></trkpt><trkpt lat="45.4888583" lon="10.8992167"><ele>114.0</ele><time>2026-04-18T11:52:35.156Z</time></trkpt><trkpt lat="45.4888017" lon="10.8990067"><ele>113.0</ele><time>2026-04-18T11:52:36.151Z</time></trkpt><trkpt lat="45.4887367" lon="10.898845"><ele>112.0</ele><time>2026-04-18T11:52:37.154Z</time></trkpt><trkpt lat="45.4886667" lon="10.898665"><ele>109.25</ele><time>2026-04-18T11:52:38.148Z</time></trkpt><trkpt lat="45.488595" lon="10.89848"><ele>106.5</ele><time>2026-04-18T11:52:39.162Z</time></trkpt><trkpt lat="45.488515" lon="10.8982933"><ele>103.75</ele><time>2026-04-18T11:52:40.148Z</time></trkpt><trkpt lat="45.4884417" lon="10.8981133"><ele>101.0</ele><time>2026-04-18T11:52:41.151Z</time></trkpt><trkpt lat="45.4883783" lon="10.8979433"><ele>100.5</ele><time>2026-04-18T11:52:42.146Z</time></trkpt><trkpt lat="45.4883183" lon="10.897775"><ele>100.0</ele><time>2026-04-18T11:52:43.158Z</time></trkpt><trkpt lat="45.488265" lon="10.8976117"><ele>99.5</ele><time>2026-04-18T11:52:44.152Z</time></trkpt><trkpt lat="45.4882017" lon="10.8974467"><ele>99.0</ele><time>2026-04-18T11:52:45.152Z</time></trkpt><trkpt lat="45.4881283" lon="10.8972783"><ele>98.75</ele><time>2026-04-18T11:52:46.158Z</time></trkpt><trkpt lat="45.4880533" lon="10.8971017"><ele>98.5</ele><time>2026-04-18T11:52:47.163Z</time></trkpt><trkpt lat="45.4879983" lon="10.8969033"><ele>98.25</ele><time>2026-04-18T11:52:48.159Z</time></trkpt><trkpt lat="45.48793" lon="10.8967567"><ele>98.0</ele><time>2026-04-18T11:52:49.154Z</time></trkpt><trkpt lat="45.4878833" lon="10.8965983"><ele>97.2</ele><time>2026-04-18T11:52:50.147Z</time></trkpt><trkpt lat="45.4878333" lon="10.8964417"><ele>96.4</ele><time>2026-04-18T11:52:51.156Z</time></trkpt><trkpt lat="45.4877883" lon="10.8962933"><ele>95.60000000000001</ele><time>2026-04-18T11:52:52.153Z</time></trkpt><trkpt lat="45.4877317" lon="10.8961617"><ele>94.80000000000001</ele><time>2026-04-18T11:52:53.16Z</time></trkpt><trkpt lat="45.4876817" lon="10.8960267"><ele>94.0</ele><time>2026-04-18T11:52:54.148Z</time></trkpt><trkpt lat="45.4876283" lon="10.89589"><ele>94.0</ele><time>2026-04-18T11:52:55.153Z</time></trkpt><trkpt lat="45.4875767" lon="10.8957533"><ele>94.0</ele><time>2026-04-18T11:52:56.151Z</time></trkpt><trkpt lat="45.4875333" lon="10.8956133"><ele>94.0</ele><time>2026-04-18T11:52:57.152Z</time></trkpt><trkpt lat="45.4874433" lon="10.8955467"><ele>94.0</ele><time>2026-04-18T11:52:58.15Z</time></trkpt><trkpt lat="45.487415" lon="10.895415"><ele>94.0</ele><time>2026-04-18T11:52:59.186Z</time></trkpt><trkpt lat="45.487385" lon="10.8952817"><ele>94.0</ele><time>2026-04-18T11:53:00.15Z</time></trkpt><trkpt lat="45.4873433" lon="10.8951383"><ele>94.0</ele><time>2026-04-18T11:53:01.156Z</time></trkpt><trkpt lat="45.4873433" lon="10.8949617"><ele>94.0</ele><time>2026-04-18T11:53:02.151Z</time></trkpt><trkpt lat="45.4873217" lon="10.894815"><ele>94.0</ele><time>2026-04-18T11:53:03.151Z</time></trkpt><trkpt lat="45.48732" lon="10.8946433"><ele>93.25</ele><time>2026-04-18T11:53:04.159Z</time></trkpt><trkpt lat="45.487315" lon="10.8944533"><ele>92.5</ele><time>2026-04-18T11:53:05.154Z</time></trkpt><trkpt lat="45.48732" lon="10.8942283"><ele>91.75</ele><time>2026-04-18T11:53:06.159Z</time></trkpt><trkpt lat="45.4873083" lon="10.894045"><ele>91.0</ele><time>2026-04-18T11:53:07.152Z</time></trkpt><trkpt lat="45.4873" lon="10.89385"><ele>91.0</ele><time>2026-04-18T11:53:08.156Z</time></trkpt><trkpt lat="45.4872883" lon="10.8936967"><ele>91.0</ele><time>2026-04-18T11:53:09.155Z</time></trkpt><trkpt lat="45.4873117" lon="10.8935133"><ele>91.0</ele><time>2026-04-18T11:53:10.146Z</time></trkpt><trkpt lat="45.4873383" lon="10.893325"><ele>91.0</ele><time>2026-04-18T11:53:11.158Z</time></trkpt><trkpt lat="45.4873767" lon="10.8931417"><ele>91.0</ele><time>2026-04-18T11:53:12.155Z</time></trkpt><trkpt lat="45.4874083" lon="10.89297"><ele>91.0</ele><time>2026-04-18T11:53:13.15Z</time></trkpt><trkpt lat="45.4874517" lon="10.892765"><ele>91.0</ele><time>2026-04-18T11:53:14.15Z</time></trkpt><trkpt lat="45.4875017" lon="10.892545"><ele>91.0</ele><time>2026-04-18T11:53:15.158Z</time></trkpt><trkpt lat="45.4875783" lon="10.8923367"><ele>91.33333333333333</ele><time>2026-04-18T11:53:16.149Z</time></trkpt><trkpt lat="45.4876733" lon="10.892125"><ele>91.66666666666667</ele><time>2026-04-18T11:53:17.154Z</time></trkpt><trkpt lat="45.487765" lon="10.891925"><ele>92.0</ele><time>2026-04-18T11:53:18.159Z</time></trkpt><trkpt lat="45.4878783" lon="10.8917467"><ele>92.66666666666667</ele><time>2026-04-18T11:53:19.16Z</time></trkpt><trkpt lat="45.4879633" lon="10.89154"><ele>93.33333333333333</ele><time>2026-04-18T11:53:20.161Z</time></trkpt><trkpt lat="45.4880883" lon="10.8913333"><ele>94.0</ele><time>2026-04-18T11:53:21.159Z</time></trkpt><trkpt lat="45.4881833" lon="10.891105"><ele>93.66666666666666</ele><time>2026-04-18T11:53:22.153Z</time></trkpt><trkpt lat="45.48831" lon="10.8908817"><ele>93.33333333333333</ele><time>2026-04-18T11:53:23.155Z</time></trkpt><trkpt lat="45.4884517" lon="10.890685"><ele>93.0</ele><time>2026-04-18T11:53:24.155Z</time></trkpt><trkpt lat="45.4885633" lon="10.8904683"><ele>93.0</ele><time>2026-04-18T11:53:25.165Z</time></trkpt><trkpt lat="45.488705" lon="10.8903033"><ele>93.0</ele><time>2026-04-18T11:53:26.15Z</time></trkpt><trkpt lat="45.4888417" lon="10.8901217"><ele>93.0</ele><time>2026-04-18T11:53:27.168Z</time></trkpt><trkpt lat="45.48911" lon="10.8897383"><ele>94.33333333333334</ele><time>2026-04-18T11:53:29.154Z</time></trkpt><trkpt lat="45.48926" lon="10.889545"><ele>95.66666666666667</ele><time>2026-04-18T11:53:30.158Z</time></trkpt><trkpt lat="45.4893933" lon="10.8893683"><ele>97.0</ele><time>2026-04-18T11:53:31.158Z</time></trkpt><trkpt lat="45.4895083" lon="10.8892217"><ele>97.33333333333334</ele><time>2026-04-18T11:53:32.154Z</time></trkpt><trkpt lat="45.4895867" lon="10.8890817"><ele>97.66666666666667</ele><time>2026-04-18T11:53:33.151Z</time></trkpt><trkpt lat="45.48963" lon="10.888985"><ele>98.0</ele><time>2026-04-18T11:53:34.155Z</time></trkpt><trkpt lat="45.489625" lon="10.8888933"><ele>98.33333333333334</ele><time>2026-04-18T11:53:35.161Z</time></trkpt><trkpt lat="45.4896133" lon="10.8887983"><ele>98.66666666666667</ele><time>2026-04-18T11:53:36.171Z</time></trkpt><trkpt lat="45.48957" lon="10.888685"><ele>99.0</ele><time>2026-04-18T11:53:37.169Z</time></trkpt><trkpt lat="45.4895067" lon="10.8885717"><ele>99.0</ele><time>2026-04-18T11:53:38.163Z</time></trkpt><trkpt lat="45.4894283" lon="10.888455"><ele>99.0</ele><time>2026-04-18T11:53:39.165Z</time></trkpt><trkpt lat="45.4893567" lon="10.8883433"><ele>99.0</ele><time>2026-04-18T11:53:40.162Z</time></trkpt><trkpt lat="45.48929" lon="10.8882333"><ele>99.0</ele><time>2026-04-18T11:53:41.155Z</time></trkpt><trkpt lat="45.48922" lon="10.8881567"><ele>99.0</ele><time>2026-04-18T11:53:42.158Z</time></trkpt><trkpt lat="45.4891783" lon="10.88805"><ele>99.25</ele><time>2026-04-18T11:53:43.157Z</time></trkpt><trkpt lat="45.489135" lon="10.8879133"><ele>99.5</ele><time>2026-04-18T11:53:44.164Z</time></trkpt><trkpt lat="45.4890883" lon="10.8877617"><ele>99.75</ele><time>2026-04-18T11:53:45.154Z</time></trkpt><trkpt lat="45.4890367" lon="10.88756"><ele>100.0</ele><time>2026-04-18T11:53:46.151Z</time></trkpt><trkpt lat="45.4889783" lon="10.8873667"><ele>100.25</ele><time>2026-04-18T11:53:47.155Z</time></trkpt><trkpt lat="45.48893" lon="10.8871833"><ele>100.5</ele><time>2026-04-18T11:53:48.161Z</time></trkpt><trkpt lat="45.48888" lon="10.88699"><ele>100.75</ele><time>2026-04-18T11:53:49.154Z</time></trkpt><trkpt lat="45.4888167" lon="10.8867833"><ele>101.0</ele><time>2026-04-18T11:53:50.157Z</time></trkpt><trkpt lat="45.4887833" lon="10.8865767"><ele>100.5</ele><time>2026-04-18T11:53:51.165Z</time></trkpt><trkpt lat="45.4887617" lon="10.886375"><ele>100.0</ele><time>2026-04-18T11:53:52.147Z</time></trkpt><trkpt lat="45.48873" lon="10.8861867"><ele>99.5</ele><time>2026-04-18T11:53:53.165Z</time></trkpt><trkpt lat="45.4887217" lon="10.8859767"><ele>99.0</ele><time>2026-04-18T11:53:54.15Z</time></trkpt><trkpt lat="45.4887117" lon="10.88576"><ele>99.0</ele><time>2026-04-18T11:53:55.191Z</time></trkpt><trkpt lat="45.4886967" lon="10.8855933"><ele>99.0</ele><time>2026-04-18T11:53:56.154Z</time></trkpt><trkpt lat="45.4886683" lon="10.8854267"><ele>99.0</ele><time>2026-04-18T11:53:57.17Z</time></trkpt><trkpt lat="45.4886283" lon="10.885295"><ele>99.0</ele><time>2026-04-18T11:53:58.148Z</time></trkpt><trkpt lat="45.4885867" lon="10.8852017"><ele>99.0</ele><time>2026-04-18T11:53:59.156Z</time></trkpt><trkpt lat="45.488515" lon="10.8851217"><ele>99.25</ele><time>2026-04-18T11:54:00.164Z</time></trkpt><trkpt lat="45.4884117" lon="10.885085"><ele>99.5</ele><time>2026-04-18T11:54:01.156Z</time></trkpt><trkpt lat="45.4882783" lon="10.8850733"><ele>99.75</ele><time>2026-04-18T11:54:02.17Z</time></trkpt><trkpt lat="45.48816" lon="10.885035"><ele>100.0</ele><time>2026-04-18T11:54:03.156Z</time></trkpt><trkpt lat="45.4880683" lon="10.8849933"><ele>100.0</ele><time>2026-04-18T11:54:04.149Z</time></trkpt><trkpt lat="45.4879867" lon="10.8849417"><ele>100.0</ele><time>2026-04-18T11:54:05.161Z</time></trkpt><trkpt lat="45.487925" lon="10.8848617"><ele>100.0</ele><time>2026-04-18T11:54:06.155Z</time></trkpt><trkpt lat="45.4878683" lon="10.8847583"><ele>100.0</ele><time>2026-04-18T11:54:07.154Z</time></trkpt><trkpt lat="45.4878117" lon="10.8846283"><ele>100.0</ele><time>2026-04-18T11:54:08.157Z</time></trkpt><trkpt lat="45.4877317" lon="10.8845017"><ele>99.5</ele><time>2026-04-18T11:54:09.157Z</time></trkpt><trkpt lat="45.4876367" lon="10.88438"><ele>99.0</ele><time>2026-04-18T11:54:10.17Z</time></trkpt><trkpt lat="45.4875333" lon="10.8842633"><ele>98.5</ele><time>2026-04-18T11:54:11.151Z</time></trkpt><trkpt lat="45.487415" lon="10.88413"><ele>98.0</ele><time>2026-04-18T11:54:12.161Z</time></trkpt><trkpt lat="45.4872817" lon="10.883995"><ele>97.33333333333333</ele><time>2026-04-18T11:54:13.148Z</time></trkpt><trkpt lat="45.48714" lon="10.8838717"><ele>96.66666666666666</ele><time>2026-04-18T11:54:14.167Z</time></trkpt><trkpt lat="45.4869833" lon="10.8837433"><ele>96.0</ele><time>2026-04-18T11:54:15.17Z</time></trkpt><trkpt lat="45.4868067" lon="10.883595"><ele>95.33333333333333</ele><time>2026-04-18T11:54:16.161Z</time></trkpt><trkpt lat="45.4866483" lon="10.8834217"><ele>94.66666666666666</ele><time>2026-04-18T11:54:17.155Z</time></trkpt><trkpt lat="45.4864983" lon="10.883285"><ele>94.0</ele><time>2026-04-18T11:54:18.152Z</time></trkpt><trkpt lat="45.4863967" lon="10.8831667"><ele>94.0</ele><time>2026-04-18T11:54:19.156Z</time></trkpt><trkpt lat="45.486305" lon="10.883045"><ele>94.0</ele><time>2026-04-18T11:54:20.156Z</time></trkpt><trkpt lat="45.486225" lon="10.8829433"><ele>94.0</ele><time>2026-04-18T11:54:21.157Z</time></trkpt><trkpt lat="45.486155" lon="10.8828883"><ele>94.0</ele><time>2026-04-18T11:54:22.175Z</time></trkpt><trkpt lat="45.4860867" lon="10.8828117"><ele>94.0</ele><time>2026-04-18T11:54:23.162Z</time></trkpt><trkpt lat="45.4860167" lon="10.8827"><ele>94.0</ele><time>2026-04-18T11:54:24.153Z</time></trkpt><trkpt lat="45.4859483" lon="10.882565"><ele>94.0</ele><time>2026-04-18T11:54:25.155Z</time></trkpt><trkpt lat="45.4858533" lon="10.8824367"><ele>94.0</ele><time>2026-04-18T11:54:26.148Z</time></trkpt><trkpt lat="45.4857883" lon="10.8823217"><ele>94.0</ele><time>2026-04-18T11:54:27.159Z</time></trkpt><trkpt lat="45.4857183" lon="10.8822283"><ele>94.0</ele><time>2026-04-18T11:54:29.154Z</time></trkpt><trkpt lat="45.4856233" lon="10.882245"><ele>94.0</ele><time>2026-04-18T11:54:33.155Z</time></trkpt><trkpt lat="45.4855767" lon="10.8823117"><ele>94.0</ele><time>2026-04-18T11:54:34.159Z</time></trkpt><trkpt lat="45.485515" lon="10.88244"><ele>94.0</ele><time>2026-04-18T11:54:35.149Z</time></trkpt><trkpt lat="45.4854633" lon="10.88259"><ele>94.0</ele><time>2026-04-18T11:54:36.167Z</time></trkpt><trkpt lat="45.48539" lon="10.88275"><ele>94.0</ele><time>2026-04-18T11:54:37.15Z</time></trkpt><trkpt lat="45.485305" lon="10.8829267"><ele>93.66666666666666</ele><time>2026-04-18T11:54:38.15Z</time></trkpt><trkpt lat="45.48522" lon="10.8831083"><ele>93.33333333333333</ele><time>2026-04-18T11:54:39.163Z</time></trkpt><trkpt lat="45.4851217" lon="10.8833133"><ele>93.0</ele><time>2026-04-18T11:54:40.149Z</time></trkpt><trkpt lat="45.4850233" lon="10.8835467"><ele>93.0</ele><time>2026-04-18T11:54:41.149Z</time></trkpt><trkpt lat="45.4849033" lon="10.8838"><ele>93.0</ele><time>2026-04-18T11:54:42.158Z</time></trkpt><trkpt lat="45.4847917" lon="10.884015"><ele>93.0</ele><time>2026-04-18T11:54:43.151Z</time></trkpt><trkpt lat="45.4846883" lon="10.8842083"><ele>92.5</ele><time>2026-04-18T11:54:44.152Z</time></trkpt><trkpt lat="45.4845783" lon="10.88437"><ele>92.0</ele><time>2026-04-18T11:54:45.151Z</time></trkpt><trkpt lat="45.4844717" lon="10.8845117"><ele>91.5</ele><time>2026-04-18T11:54:46.162Z</time></trkpt><trkpt lat="45.4843783" lon="10.884645"><ele>91.0</ele><time>2026-04-18T11:54:47.161Z</time></trkpt><trkpt lat="45.4842883" lon="10.88474"><ele>91.0</ele><time>2026-04-18T11:54:48.172Z</time></trkpt><trkpt lat="45.4841733" lon="10.8847883"><ele>91.0</ele><time>2026-04-18T11:54:49.163Z</time></trkpt><trkpt lat="45.4840867" lon="10.8848233"><ele>91.0</ele><time>2026-04-18T11:54:50.157Z</time></trkpt><trkpt lat="45.4840167" lon="10.884825"><ele>91.0</ele><time>2026-04-18T11:54:51.157Z</time></trkpt><trkpt lat="45.4839533" lon="10.884805"><ele>91.0</ele><time>2026-04-18T11:54:52.145Z</time></trkpt><trkpt lat="45.483915" lon="10.8846867"><ele>91.0</ele><time>2026-04-18T11:54:53.176Z</time></trkpt><trkpt lat="45.4838783" lon="10.884575"><ele>91.0</ele><time>2026-04-18T11:54:54.152Z</time></trkpt><trkpt lat="45.4838633" lon="10.8844183"><ele>91.0</ele><time>2026-04-18T11:54:55.16Z</time></trkpt><trkpt lat="45.483855" lon="10.8842517"><ele>91.0</ele><time>2026-04-18T11:54:56.146Z</time></trkpt><trkpt lat="45.4838117" lon="10.8840967"><ele>91.0</ele><time>2026-04-18T11:54:57.158Z</time></trkpt><trkpt lat="45.483775" lon="10.8839133"><ele>90.75</ele><time>2026-04-18T11:54:58.145Z</time></trkpt><trkpt lat="45.483725" lon="10.88373"><ele>90.5</ele><time>2026-04-18T11:54:59.15Z</time></trkpt><trkpt lat="45.4836717" lon="10.8835617"><ele>90.25</ele><time>2026-04-18T11:55:00.151Z</time></trkpt><trkpt lat="45.4836317" lon="10.8834117"><ele>90.0</ele><time>2026-04-18T11:55:01.16Z</time></trkpt><trkpt lat="45.4836033" lon="10.8832167"><ele>90.0</ele><time>2026-04-18T11:55:02.145Z</time></trkpt><trkpt lat="45.4835883" lon="10.8830383"><ele>90.0</ele><time>2026-04-18T11:55:03.151Z</time></trkpt><trkpt lat="45.48356" lon="10.88289"><ele>90.0</ele><time>2026-04-18T11:55:04.153Z</time></trkpt><trkpt lat="45.4835133" lon="10.88274"><ele>90.0</ele><time>2026-04-18T11:55:05.166Z</time></trkpt><trkpt lat="45.4834867" lon="10.8825867"><ele>90.0</ele><time>2026-04-18T11:55:06.147Z</time></trkpt><trkpt lat="45.4834467" lon="10.88244"><ele>90.0</ele><time>2026-04-18T11:55:07.156Z</time></trkpt><trkpt lat="45.4834133" lon="10.88229"><ele>90.0</ele><time>2026-04-18T11:55:08.144Z</time></trkpt><trkpt lat="45.483375" lon="10.8821467"><ele>90.0</ele><time>2026-04-18T11:55:09.162Z</time></trkpt><trkpt lat="45.4833367" lon="10.8819733"><ele>90.0</ele><time>2026-04-18T11:55:10.151Z</time></trkpt><trkpt lat="45.48331" lon="10.88181"><ele>90.0</ele><time>2026-04-18T11:55:11.156Z</time></trkpt><trkpt lat="45.483265" lon="10.881665"><ele>90.0</ele><time>2026-04-18T11:55:12.151Z</time></trkpt><trkpt lat="45.4832283" lon="10.8815217"><ele>90.0</ele><time>2026-04-18T11:55:13.154Z</time></trkpt><trkpt lat="45.4831917" lon="10.8813983"><ele>90.0</ele><time>2026-04-18T11:55:14.147Z</time></trkpt><trkpt lat="45.4831633" lon="10.8812917"><ele>90.0</ele><time>2026-04-18T11:55:15.156Z</time></trkpt><trkpt lat="45.4831317" lon="10.8811767"><ele>90.0</ele><time>2026-04-18T11:55:16.151Z</time></trkpt><trkpt lat="45.4831017" lon="10.8810633"><ele>90.0</ele><time>2026-04-18T11:55:17.152Z</time></trkpt><trkpt lat="45.48308" lon="10.8809517"><ele>90.0</ele><time>2026-04-18T11:55:18.148Z</time></trkpt><trkpt lat="45.4830833" lon="10.8808467"><ele>90.0</ele><time>2026-04-18T11:55:19.165Z</time></trkpt><trkpt lat="45.4831133" lon="10.8807483"><ele>90.0</ele><time>2026-04-18T11:55:20.155Z</time></trkpt><trkpt lat="45.483175" lon="10.8806517"><ele>90.0</ele><time>2026-04-18T11:55:21.151Z</time></trkpt><trkpt lat="45.483255" lon="10.8805483"><ele>90.0</ele><time>2026-04-18T11:55:22.144Z</time></trkpt><trkpt lat="45.4833667" lon="10.8804367"><ele>90.0</ele><time>2026-04-18T11:55:23.153Z</time></trkpt><trkpt lat="45.48346" lon="10.8803167"><ele>90.0</ele><time>2026-04-18T11:55:24.146Z</time></trkpt><trkpt lat="45.4835467" lon="10.8801833"><ele>90.25</ele><time>2026-04-18T11:55:25.155Z</time></trkpt><trkpt lat="45.4836533" lon="10.8800583"><ele>90.5</ele><time>2026-04-18T11:55:26.147Z</time></trkpt><trkpt lat="45.483755" lon="10.8799417"><ele>90.75</ele><time>2026-04-18T11:55:27.154Z</time></trkpt><trkpt lat="45.4838567" lon="10.8798367"><ele>91.0</ele><time>2026-04-18T11:55:28.145Z</time></trkpt><trkpt lat="45.483935" lon="10.8797467"><ele>90.25</ele><time>2026-04-18T11:55:29.154Z</time></trkpt><trkpt lat="45.4840433" lon="10.879635"><ele>89.5</ele><time>2026-04-18T11:55:30.148Z</time></trkpt><trkpt lat="45.4841217" lon="10.8795017"><ele>88.75</ele><time>2026-04-18T11:55:31.147Z</time></trkpt><trkpt lat="45.48419" lon="10.8793483"><ele>88.0</ele><time>2026-04-18T11:55:32.159Z</time></trkpt><trkpt lat="45.4842417" lon="10.8791583"><ele>88.0</ele><time>2026-04-18T11:55:33.16Z</time></trkpt><trkpt lat="45.4843183" lon="10.879"><ele>88.0</ele><time>2026-04-18T11:55:34.159Z</time></trkpt><trkpt lat="45.4843817" lon="10.8788217"><ele>88.0</ele><time>2026-04-18T11:55:35.164Z</time></trkpt><trkpt lat="45.4844417" lon="10.8786617"><ele>88.0</ele><time>2026-04-18T11:55:36.15Z</time></trkpt><trkpt lat="45.484495" lon="10.87849"><ele>88.0</ele><time>2026-04-18T11:55:37.167Z</time></trkpt><trkpt lat="45.4845267" lon="10.8783033"><ele>88.0</ele><time>2026-04-18T11:55:38.147Z</time></trkpt><trkpt lat="45.484555" lon="10.8781217"><ele>88.0</ele><time>2026-04-18T11:55:39.161Z</time></trkpt><trkpt lat="45.48458" lon="10.8779333"><ele>88.0</ele><time>2026-04-18T11:55:40.146Z</time></trkpt><trkpt lat="45.4846083" lon="10.8777117"><ele>87.75</ele><time>2026-04-18T11:55:41.152Z</time></trkpt><trkpt lat="45.4846183" lon="10.8775017"><ele>87.5</ele><time>2026-04-18T11:55:42.148Z</time></trkpt><trkpt lat="45.4846717" lon="10.8773083"><ele>87.25</ele><time>2026-04-18T11:55:43.151Z</time></trkpt><trkpt lat="45.4847067" lon="10.8771367"><ele>87.0</ele><time>2026-04-18T11:55:44.151Z</time></trkpt><trkpt lat="45.484735" lon="10.8769383"><ele>87.25</ele><time>2026-04-18T11:55:45.158Z</time></trkpt><trkpt lat="45.4847733" lon="10.8767633"><ele>87.5</ele><time>2026-04-18T11:55:46.153Z</time></trkpt><trkpt lat="45.4847967" lon="10.8765683"><ele>87.75</ele><time>2026-04-18T11:55:47.149Z</time></trkpt><trkpt lat="45.4848367" lon="10.8763983"><ele>88.0</ele><time>2026-04-18T11:55:48.151Z</time></trkpt><trkpt lat="45.4848733" lon="10.8761783"><ele>88.0</ele><time>2026-04-18T11:55:49.15Z</time></trkpt><trkpt lat="45.4848933" lon="10.8760217"><ele>88.0</ele><time>2026-04-18T11:55:50.151Z</time></trkpt><trkpt lat="45.4849117" lon="10.8758367"><ele>88.0</ele><time>2026-04-18T11:55:51.155Z</time></trkpt><trkpt lat="45.4849417" lon="10.87566"><ele>88.0</ele><time>2026-04-18T11:55:52.152Z</time></trkpt><trkpt lat="45.4849633" lon="10.8755033"><ele>88.25</ele><time>2026-04-18T11:55:53.16Z</time></trkpt><trkpt lat="45.4849867" lon="10.8752667"><ele>88.5</ele><time>2026-04-18T11:55:54.162Z</time></trkpt><trkpt lat="45.485" lon="10.8750833"><ele>88.75</ele><time>2026-04-18T11:55:55.155Z</time></trkpt><trkpt lat="45.485035" lon="10.8748917"><ele>89.0</ele><time>2026-04-18T11:55:56.149Z</time></trkpt><trkpt lat="45.4850867" lon="10.8746883"><ele>89.0</ele><time>2026-04-18T11:55:57.152Z</time></trkpt><trkpt lat="45.485125" lon="10.8745067"><ele>89.0</ele><time>2026-04-18T11:55:58.146Z</time></trkpt><trkpt lat="45.4851567" lon="10.8743433"><ele>89.0</ele><time>2026-04-18T11:55:59.161Z</time></trkpt><trkpt lat="45.4851733" lon="10.8742017"><ele>89.0</ele><time>2026-04-18T11:56:00.147Z</time></trkpt><trkpt lat="45.4851617" lon="10.87407"><ele>89.0</ele><time>2026-04-18T11:56:01.154Z</time></trkpt><trkpt lat="45.4851783" lon="10.8739717"><ele>89.0</ele><time>2026-04-18T11:56:02.148Z</time></trkpt><trkpt lat="45.4852083" lon="10.8738133"><ele>89.0</ele><time>2026-04-18T11:56:04.15Z</time></trkpt><trkpt lat="45.4852067" lon="10.8737083"><ele>89.0</ele><time>2026-04-18T11:56:05.159Z</time></trkpt><trkpt lat="45.485195" lon="10.8735717"><ele>89.0</ele><time>2026-04-18T11:56:06.149Z</time></trkpt><trkpt lat="45.4851717" lon="10.873395"><ele>89.0</ele><time>2026-04-18T11:56:07.159Z</time></trkpt><trkpt lat="45.485115" lon="10.8731433"><ele>89.0</ele><time>2026-04-18T11:56:08.149Z</time></trkpt><trkpt lat="45.485045" lon="10.8728967"><ele>89.0</ele><time>2026-04-18T11:56:09.152Z</time></trkpt><trkpt lat="45.4849867" lon="10.872665"><ele>89.0</ele><time>2026-04-18T11:56:10.149Z</time></trkpt><trkpt lat="45.484945" lon="10.8724467"><ele>89.0</ele><time>2026-04-18T11:56:11.16Z</time></trkpt><trkpt lat="45.4849217" lon="10.87224"><ele>89.0</ele><time>2026-04-18T11:56:12.144Z</time></trkpt><trkpt lat="45.484865" lon="10.87205"><ele>89.0</ele><time>2026-04-18T11:56:13.145Z</time></trkpt><trkpt lat="45.484835" lon="10.8718717"><ele>89.0</ele><time>2026-04-18T11:56:14.154Z</time></trkpt><trkpt lat="45.4847933" lon="10.8717183"><ele>89.0</ele><time>2026-04-18T11:56:15.147Z</time></trkpt><trkpt lat="45.48475" lon="10.8715567"><ele>89.0</ele><time>2026-04-18T11:56:16.155Z</time></trkpt><trkpt lat="45.4847117" lon="10.8713933"><ele>89.0</ele><time>2026-04-18T11:56:17.151Z</time></trkpt><trkpt lat="45.4846733" lon="10.87123"><ele>89.0</ele><time>2026-04-18T11:56:18.154Z</time></trkpt><trkpt lat="45.4846383" lon="10.871085"><ele>89.0</ele><time>2026-04-18T11:56:19.15Z</time></trkpt><trkpt lat="45.4845967" lon="10.8709167"><ele>89.0</ele><time>2026-04-18T11:56:20.157Z</time></trkpt><trkpt lat="45.4845617" lon="10.8707467"><ele>89.0</ele><time>2026-04-18T11:56:21.151Z</time></trkpt><trkpt lat="45.484545" lon="10.8705667"><ele>89.0</ele><time>2026-04-18T11:56:22.147Z</time></trkpt><trkpt lat="45.4845333" lon="10.870385"><ele>89.25</ele><time>2026-04-18T11:56:23.158Z</time></trkpt><trkpt lat="45.484525" lon="10.8702017"><ele>89.5</ele><time>2026-04-18T11:56:24.149Z</time></trkpt><trkpt lat="45.4845233" lon="10.8700183"><ele>89.75</ele><time>2026-04-18T11:56:25.144Z</time></trkpt><trkpt lat="45.484525" lon="10.8698283"><ele>90.0</ele><time>2026-04-18T11:56:26.149Z</time></trkpt><trkpt lat="45.4845283" lon="10.8696433"><ele>90.25</ele><time>2026-04-18T11:56:27.155Z</time></trkpt><trkpt lat="45.4845317" lon="10.8694433"><ele>90.5</ele><time>2026-04-18T11:56:28.146Z</time></trkpt><trkpt lat="45.4845433" lon="10.8692533"><ele>90.75</ele><time>2026-04-18T11:56:29.155Z</time></trkpt><trkpt lat="45.4845517" lon="10.8690633"><ele>91.0</ele><time>2026-04-18T11:56:30.158Z</time></trkpt><trkpt lat="45.48456" lon="10.86887"><ele>91.19999999999999</ele><time>2026-04-18T11:56:31.155Z</time></trkpt><trkpt lat="45.4845633" lon="10.8686883"><ele>91.39999999999999</ele><time>2026-04-18T11:56:32.147Z</time></trkpt><trkpt lat="45.48457" lon="10.8685233"><ele>91.6</ele><time>2026-04-18T11:56:33.163Z</time></trkpt><trkpt lat="45.48457" lon="10.86837"><ele>91.8</ele><time>2026-04-18T11:56:34.148Z</time></trkpt><trkpt lat="45.484565" lon="10.8682483"><ele>92.0</ele><time>2026-04-18T11:56:35.148Z</time></trkpt><trkpt lat="45.4845583" lon="10.8681467"><ele>92.0</ele><time>2026-04-18T11:56:36.148Z</time></trkpt><trkpt lat="45.4845367" lon="10.8680417"><ele>92.0</ele><time>2026-04-18T11:56:38.147Z</time></trkpt><trkpt lat="45.4844717" lon="10.8679917"><ele>92.0</ele><time>2026-04-18T11:56:43.146Z</time></trkpt><trkpt lat="45.4843833" lon="10.86797"><ele>92.0</ele><time>2026-04-18T11:56:44.147Z</time></trkpt><trkpt lat="45.4842917" lon="10.8679433"><ele>92.0</ele><time>2026-04-18T11:56:45.157Z</time></trkpt><trkpt lat="45.4841733" lon="10.8679067"><ele>92.0</ele><time>2026-04-18T11:56:46.152Z</time></trkpt><trkpt lat="45.48409" lon="10.8678983"><ele>92.0</ele><time>2026-04-18T11:56:47.146Z</time></trkpt><trkpt lat="45.4840033" lon="10.8678783"><ele>92.0</ele><time>2026-04-18T11:56:48.156Z</time></trkpt><trkpt lat="45.4839217" lon="10.8678633"><ele>92.0</ele><time>2026-04-18T11:56:49.153Z</time></trkpt><trkpt lat="45.4838433" lon="10.86784"><ele>92.0</ele><time>2026-04-18T11:56:50.149Z</time></trkpt><trkpt lat="45.4837533" lon="10.8678183"><ele>92.0</ele><time>2026-04-18T11:56:51.149Z</time></trkpt><trkpt lat="45.4836733" lon="10.8677983"><ele>92.0</ele><time>2026-04-18T11:56:52.149Z</time></trkpt><trkpt lat="45.4835967" lon="10.8677767"><ele>92.0</ele><time>2026-04-18T11:56:53.152Z</time></trkpt><trkpt lat="45.48353" lon="10.8677567"><ele>92.0</ele><time>2026-04-18T11:56:54.157Z</time></trkpt><trkpt lat="45.4834433" lon="10.8676933"><ele>92.0</ele><time>2026-04-18T11:56:56.147Z</time></trkpt><trkpt lat="45.483355" lon="10.867655"><ele>92.0</ele><time>2026-04-18T11:56:58.145Z</time></trkpt><trkpt lat="45.4832833" lon="10.8676517"><ele>92.0</ele><time>2026-04-18T11:56:59.168Z</time></trkpt><trkpt lat="45.4832033" lon="10.8676383"><ele>92.0</ele><time>2026-04-18T11:57:00.174Z</time></trkpt><trkpt lat="45.4831217" lon="10.8676233"><ele>92.0</ele><time>2026-04-18T11:57:01.155Z</time></trkpt><trkpt lat="45.4830383" lon="10.8676067"><ele>92.0</ele><time>2026-04-18T11:57:02.147Z</time></trkpt><trkpt lat="45.4829667" lon="10.8675833"><ele>92.0</ele><time>2026-04-18T11:57:03.153Z</time></trkpt><trkpt lat="45.4829017" lon="10.8675833"><ele>92.0</ele><time>2026-04-18T11:57:04.144Z</time></trkpt><trkpt lat="45.4828017" lon="10.86758"><ele>92.0</ele><time>2026-04-18T11:57:06.148Z</time></trkpt><trkpt lat="45.4827033" lon="10.8675817"><ele>91.66666666666667</ele><time>2026-04-18T11:57:08.164Z</time></trkpt><trkpt lat="45.4825883" lon="10.8675933"><ele>91.33333333333334</ele><time>2026-04-18T11:57:10.142Z</time></trkpt><trkpt lat="45.482525" lon="10.86759"><ele>91.0</ele><time>2026-04-18T11:57:11.152Z</time></trkpt><trkpt lat="45.482445" lon="10.8675517"><ele>90.66666666666667</ele><time>2026-04-18T11:57:12.156Z</time></trkpt><trkpt lat="45.48238" lon="10.8675"><ele>90.33333333333333</ele><time>2026-04-18T11:57:13.152Z</time></trkpt><trkpt lat="45.482305" lon="10.8674217"><ele>90.0</ele><time>2026-04-18T11:57:14.157Z</time></trkpt><trkpt lat="45.48222" lon="10.86739"><ele>89.2</ele><time>2026-04-18T11:57:15.16Z</time></trkpt><trkpt lat="45.4820417" lon="10.8673417"><ele>88.4</ele><time>2026-04-18T11:57:17.141Z</time></trkpt><trkpt lat="45.48196" lon="10.8673417"><ele>87.6</ele><time>2026-04-18T11:57:18.145Z</time></trkpt><trkpt lat="45.4818867" lon="10.8673533"><ele>86.8</ele><time>2026-04-18T11:57:19.154Z</time></trkpt><trkpt lat="45.48181" lon="10.86737"><ele>86.0</ele><time>2026-04-18T11:57:20.144Z</time></trkpt><trkpt lat="45.4817317" lon="10.8673917"><ele>86.0</ele><time>2026-04-18T11:57:21.16Z</time></trkpt><trkpt lat="45.48164" lon="10.867435"><ele>86.0</ele><time>2026-04-18T11:57:22.143Z</time></trkpt><trkpt lat="45.4815583" lon="10.86747"><ele>86.0</ele><time>2026-04-18T11:57:23.146Z</time></trkpt><trkpt lat="45.48143" lon="10.867505"><ele>86.0</ele><time>2026-04-18T11:57:25.152Z</time></trkpt><trkpt lat="45.4813683" lon="10.8675267"><ele>86.0</ele><time>2026-04-18T11:57:26.145Z</time></trkpt><trkpt lat="45.4812483" lon="10.8675383"><ele>85.0</ele><time>2026-04-18T11:57:28.143Z</time></trkpt><trkpt lat="45.4811283" lon="10.86752"><ele>84.0</ele><time>2026-04-18T11:57:30.147Z</time></trkpt><trkpt lat="45.4810417" lon="10.867525"><ele>83.0</ele><time>2026-04-18T11:57:32.149Z</time></trkpt><trkpt lat="45.4809833" lon="10.867365"><ele>82.0</ele><time>2026-04-18T11:57:34.145Z</time></trkpt><trkpt lat="45.4809633" lon="10.8672667"><ele>81.0</ele><time>2026-04-18T11:57:35.151Z</time></trkpt><trkpt lat="45.4809417" lon="10.8671683"><ele>81.0</ele><time>2026-04-18T11:57:36.141Z</time></trkpt><trkpt lat="45.4809167" lon="10.8670533"><ele>81.0</ele><time>2026-04-18T11:57:37.153Z</time></trkpt><trkpt lat="45.4808933" lon="10.8669367"><ele>81.0</ele><time>2026-04-18T11:57:38.144Z</time></trkpt><trkpt lat="45.4808683" lon="10.86681"><ele>81.0</ele><time>2026-04-18T11:57:39.151Z</time></trkpt><trkpt lat="45.4808417" lon="10.866705"><ele>81.0</ele><time>2026-04-18T11:57:40.149Z</time></trkpt><trkpt lat="45.48081" lon="10.8665917"><ele>81.0</ele><time>2026-04-18T11:57:41.162Z</time></trkpt><trkpt lat="45.48078" lon="10.8664733"><ele>81.0</ele><time>2026-04-18T11:57:42.145Z</time></trkpt><trkpt lat="45.4807433" lon="10.8663633"><ele>81.0</ele><time>2026-04-18T11:57:43.155Z</time></trkpt><trkpt lat="45.4807083" lon="10.8662467"><ele>81.0</ele><time>2026-04-18T11:57:44.149Z</time></trkpt><trkpt lat="45.48068" lon="10.86613"><ele>81.0</ele><time>2026-04-18T11:57:45.15Z</time></trkpt><trkpt lat="45.4806483" lon="10.86602"><ele>81.0</ele><time>2026-04-18T11:57:46.147Z</time></trkpt><trkpt lat="45.4806217" lon="10.8659183"><ele>81.0</ele><time>2026-04-18T11:57:47.161Z</time></trkpt><trkpt lat="45.480585" lon="10.8658117"><ele>81.0</ele><time>2026-04-18T11:57:48.152Z</time></trkpt><trkpt lat="45.4805383" lon="10.8657"><ele>81.0</ele><time>2026-04-18T11:57:49.165Z</time></trkpt><trkpt lat="45.4804967" lon="10.865595"><ele>81.0</ele><time>2026-04-18T11:57:50.154Z</time></trkpt><trkpt lat="45.48045" lon="10.86549"><ele>81.0</ele><time>2026-04-18T11:57:51.148Z</time></trkpt><trkpt lat="45.4804067" lon="10.865395"><ele>81.0</ele><time>2026-04-18T11:57:52.15Z</time></trkpt><trkpt lat="45.4803717" lon="10.8653067"><ele>81.0</ele><time>2026-04-18T11:57:53.151Z</time></trkpt><trkpt lat="45.4803433" lon="10.8652067"><ele>80.39999999999999</ele><time>2026-04-18T11:57:54.154Z</time></trkpt><trkpt lat="45.480315" lon="10.86512"><ele>79.8</ele><time>2026-04-18T11:57:55.156Z</time></trkpt><trkpt lat="45.48027" lon="10.86502"><ele>79.19999999999999</ele><time>2026-04-18T11:57:57.154Z</time></trkpt><trkpt lat="45.4802283" lon="10.864905"><ele>78.6</ele><time>2026-04-18T11:58:09.152Z</time></trkpt><trkpt lat="45.480235" lon="10.864745"><ele>78.0</ele><time>2026-04-18T11:58:31.152Z</time></trkpt><trkpt lat="45.48021" lon="10.8645767"><ele>78.0</ele><time>2026-04-18T11:58:33.15Z</time></trkpt><trkpt lat="45.4801883" lon="10.864475"><ele>78.0</ele><time>2026-04-18T11:58:34.146Z</time></trkpt><trkpt lat="45.48016" lon="10.86437"><ele>78.0</ele><time>2026-04-18T11:58:35.17Z</time></trkpt><trkpt lat="45.4801367" lon="10.86426"><ele>78.0</ele><time>2026-04-18T11:58:36.143Z</time></trkpt><trkpt lat="45.4801017" lon="10.86415"><ele>78.0</ele><time>2026-04-18T11:58:37.16Z</time></trkpt><trkpt lat="45.4800683" lon="10.8640417"><ele>78.0</ele><time>2026-04-18T11:58:38.149Z</time></trkpt><trkpt lat="45.4800383" lon="10.8639383"><ele>78.5</ele><time>2026-04-18T11:58:39.159Z</time></trkpt><trkpt lat="45.4800083" lon="10.8638567"><ele>79.0</ele><time>2026-04-18T11:58:40.144Z</time></trkpt><trkpt lat="45.47998" lon="10.86375"><ele>79.5</ele><time>2026-04-18T11:58:41.156Z</time></trkpt><trkpt lat="45.47994" lon="10.86367"><ele>80.0</ele><time>2026-04-18T11:58:42.149Z</time></trkpt><trkpt lat="45.4799333" lon="10.8635683"><ele>80.5</ele><time>2026-04-18T11:58:44.149Z</time></trkpt><trkpt lat="45.4798533" lon="10.8635"><ele>81.0</ele><time>2026-04-18T11:58:46.148Z</time></trkpt><trkpt lat="45.4797817" lon="10.863515"><ele>81.0</ele><time>2026-04-18T11:58:47.162Z</time></trkpt><trkpt lat="45.4797117" lon="10.8635283"><ele>81.0</ele><time>2026-04-18T11:58:48.153Z</time></trkpt><trkpt lat="45.4796433" lon="10.8635567"><ele>81.0</ele><time>2026-04-18T11:58:49.164Z</time></trkpt><trkpt lat="45.4795633" lon="10.8636317"><ele>81.0</ele><time>2026-04-18T11:58:50.16Z</time></trkpt><trkpt lat="45.479475" lon="10.863715"><ele>81.0</ele><time>2026-04-18T11:58:51.164Z</time></trkpt><trkpt lat="45.4793467" lon="10.86382"><ele>80.25</ele><time>2026-04-18T11:58:52.148Z</time></trkpt><trkpt lat="45.4792367" lon="10.8639067"><ele>79.5</ele><time>2026-04-18T11:58:53.161Z</time></trkpt><trkpt lat="45.4791317" lon="10.8639683"><ele>78.75</ele><time>2026-04-18T11:58:54.15Z</time></trkpt><trkpt lat="45.4790167" lon="10.8640483"><ele>78.0</ele><time>2026-04-18T11:58:55.152Z</time></trkpt><trkpt lat="45.4789" lon="10.8641283"><ele>78.0</ele><time>2026-04-18T11:58:56.148Z</time></trkpt><trkpt lat="45.47881" lon="10.8642067"><ele>78.0</ele><time>2026-04-18T11:58:57.179Z</time></trkpt><trkpt lat="45.4787533" lon="10.8642617"><ele>78.0</ele><time>2026-04-18T11:58:58.15Z</time></trkpt><trkpt lat="45.4786767" lon="10.8643067"><ele>78.0</ele><time>2026-04-18T11:58:59.18Z</time></trkpt><trkpt lat="45.47861" lon="10.8643217"><ele>78.0</ele><time>2026-04-18T11:59:00.155Z</time></trkpt><trkpt lat="45.4785483" lon="10.864285"><ele>78.0</ele><time>2026-04-18T11:59:01.152Z</time></trkpt><trkpt lat="45.4785067" lon="10.8641783"><ele>79.0</ele><time>2026-04-18T11:59:02.147Z</time></trkpt><trkpt lat="45.478465" lon="10.8640633"><ele>80.0</ele><time>2026-04-18T11:59:03.154Z</time></trkpt><trkpt lat="45.478445" lon="10.8639017"><ele>81.0</ele><time>2026-04-18T11:59:04.15Z</time></trkpt><trkpt lat="45.4783933" lon="10.863795"><ele>82.0</ele><time>2026-04-18T11:59:05.156Z</time></trkpt><trkpt lat="45.47832" lon="10.8636533"><ele>83.0</ele><time>2026-04-18T11:59:06.149Z</time></trkpt><trkpt lat="45.47828" lon="10.8634983"><ele>82.25</ele><time>2026-04-18T11:59:07.157Z</time></trkpt><trkpt lat="45.47823" lon="10.8633433"><ele>81.5</ele><time>2026-04-18T11:59:08.149Z</time></trkpt><trkpt lat="45.4781683" lon="10.8632017"><ele>80.75</ele><time>2026-04-18T11:59:09.161Z</time></trkpt><trkpt lat="45.4781133" lon="10.8630167"><ele>80.0</ele><time>2026-04-18T11:59:10.147Z</time></trkpt><trkpt lat="45.4780467" lon="10.8628467"><ele>80.0</ele><time>2026-04-18T11:59:11.153Z</time></trkpt><trkpt lat="45.4779817" lon="10.8626633"><ele>80.0</ele><time>2026-04-18T11:59:12.15Z</time></trkpt><trkpt lat="45.4779117" lon="10.862475"><ele>80.0</ele><time>2026-04-18T11:59:13.158Z</time></trkpt><trkpt lat="45.4778333" lon="10.8622933"><ele>80.0</ele><time>2026-04-18T11:59:14.144Z</time></trkpt><trkpt lat="45.4777567" lon="10.8620817"><ele>82.33333333333334</ele><time>2026-04-18T11:59:15.149Z</time></trkpt><trkpt lat="45.4777083" lon="10.8618933"><ele>84.66666666666667</ele><time>2026-04-18T11:59:16.151Z</time></trkpt><trkpt lat="45.47765" lon="10.8616883"><ele>87.0</ele><time>2026-04-18T11:59:17.151Z</time></trkpt><trkpt lat="45.4775917" lon="10.8614667"><ele>87.0</ele><time>2026-04-18T11:59:18.145Z</time></trkpt><trkpt lat="45.4775433" lon="10.8612783"><ele>87.0</ele><time>2026-04-18T11:59:19.151Z</time></trkpt><trkpt lat="45.477485" lon="10.8610733"><ele>87.0</ele><time>2026-04-18T11:59:20.152Z</time></trkpt><trkpt lat="45.4774133" lon="10.8608567"><ele>86.25</ele><time>2026-04-18T11:59:21.159Z</time></trkpt><trkpt lat="45.4773433" lon="10.8606517"><ele>85.5</ele><time>2026-04-18T11:59:22.152Z</time></trkpt><trkpt lat="45.4772933" lon="10.8604633"><ele>84.75</ele><time>2026-04-18T11:59:23.155Z</time></trkpt><trkpt lat="45.47724" lon="10.860295"><ele>84.0</ele><time>2026-04-18T11:59:24.144Z</time></trkpt><trkpt lat="45.4771883" lon="10.86017"><ele>83.83333333333333</ele><time>2026-04-18T11:59:25.148Z</time></trkpt><trkpt lat="45.4771517" lon="10.86006"><ele>83.66666666666667</ele><time>2026-04-18T11:59:26.153Z</time></trkpt><trkpt lat="45.47711" lon="10.859955"><ele>83.5</ele><time>2026-04-18T11:59:27.154Z</time></trkpt><trkpt lat="45.4770717" lon="10.8598733"><ele>83.33333333333334</ele><time>2026-04-18T11:59:28.15Z</time></trkpt><trkpt lat="45.4770267" lon="10.8597367"><ele>83.16666666666667</ele><time>2026-04-18T11:59:30.148Z</time></trkpt><trkpt lat="45.4770083" lon="10.85964"><ele>83.0</ele><time>2026-04-18T11:59:33.151Z</time></trkpt><trkpt lat="45.4769933" lon="10.85954"><ele>84.25</ele><time>2026-04-18T12:00:39.155Z</time></trkpt><trkpt lat="45.4769717" lon="10.85943"><ele>85.5</ele><time>2026-04-18T12:00:40.148Z</time></trkpt><trkpt lat="45.476925" lon="10.8592683"><ele>86.75</ele><time>2026-04-18T12:00:41.163Z</time></trkpt><trkpt lat="45.4768883" lon="10.8590883"><ele>88.0</ele><time>2026-04-18T12:00:42.146Z</time></trkpt><trkpt lat="45.4768417" lon="10.8588483"><ele>88.0</ele><time>2026-04-18T12:00:43.163Z</time></trkpt><trkpt lat="45.476785" lon="10.8586117"><ele>88.0</ele><time>2026-04-18T12:00:44.144Z</time></trkpt><trkpt lat="45.4767383" lon="10.8584067"><ele>88.0</ele><time>2026-04-18T12:00:45.159Z</time></trkpt><trkpt lat="45.4767167" lon="10.858255"><ele>88.0</ele><time>2026-04-18T12:00:46.149Z</time></trkpt><trkpt lat="45.4766417" lon="10.8580383"><ele>87.0</ele><time>2026-04-18T12:00:47.158Z</time></trkpt><trkpt lat="45.4766033" lon="10.8578383"><ele>86.0</ele><time>2026-04-18T12:00:48.146Z</time></trkpt><trkpt lat="45.47655" lon="10.8576183"><ele>85.0</ele><time>2026-04-18T12:00:49.161Z</time></trkpt><trkpt lat="45.4765067" lon="10.8573983"><ele>84.0</ele><time>2026-04-18T12:00:50.147Z</time></trkpt><trkpt lat="45.47646" lon="10.8571767"><ele>83.0</ele><time>2026-04-18T12:00:51.153Z</time></trkpt><trkpt lat="45.4763767" lon="10.856955"><ele>82.0</ele><time>2026-04-18T12:00:52.147Z</time></trkpt><trkpt lat="45.47629" lon="10.8567417"><ele>84.33333333333333</ele><time>2026-04-18T12:00:53.172Z</time></trkpt><trkpt lat="45.4762" lon="10.856545"><ele>86.66666666666667</ele><time>2026-04-18T12:00:54.152Z</time></trkpt><trkpt lat="45.476105" lon="10.8563733"><ele>89.0</ele><time>2026-04-18T12:00:55.158Z</time></trkpt><trkpt lat="45.4760233" lon="10.856225"><ele>89.0</ele><time>2026-04-18T12:00:56.152Z</time></trkpt><trkpt lat="45.475925" lon="10.8560733"><ele>89.0</ele><time>2026-04-18T12:00:57.154Z</time></trkpt><trkpt lat="45.4758433" lon="10.8559"><ele>89.0</ele><time>2026-04-18T12:00:58.162Z</time></trkpt><trkpt lat="45.475755" lon="10.8556933"><ele>91.0</ele><time>2026-04-18T12:00:59.166Z</time></trkpt><trkpt lat="45.4756783" lon="10.855445"><ele>93.0</ele><time>2026-04-18T12:01:00.148Z</time></trkpt><trkpt lat="45.4756083" lon="10.85522"><ele>95.0</ele><time>2026-04-18T12:01:01.159Z</time></trkpt><trkpt lat="45.4755317" lon="10.854975"><ele>97.0</ele><time>2026-04-18T12:01:02.142Z</time></trkpt><trkpt lat="45.475475" lon="10.85472"><ele>99.0</ele><time>2026-04-18T12:01:03.148Z</time></trkpt><trkpt lat="45.4754" lon="10.85448"><ele>101.0</ele><time>2026-04-18T12:01:04.148Z</time></trkpt><trkpt lat="45.4753133" lon="10.8542367"><ele>104.66666666666666</ele><time>2026-04-18T12:01:05.153Z</time></trkpt><trkpt lat="45.4752033" lon="10.8540167"><ele>108.33333333333334</ele><time>2026-04-18T12:01:06.151Z</time></trkpt><trkpt lat="45.475115" lon="10.8538317"><ele>112.0</ele><time>2026-04-18T12:01:07.158Z</time></trkpt><trkpt lat="45.4750167" lon="10.8536733"><ele>112.0</ele><time>2026-04-18T12:01:08.154Z</time></trkpt><trkpt lat="45.4749783" lon="10.853525"><ele>111.99999999999999</ele><time>2026-04-18T12:01:09.151Z</time></trkpt><trkpt lat="45.4749333" lon="10.8534067"><ele>111.99999999999999</ele><time>2026-04-18T12:01:10.15Z</time></trkpt><trkpt lat="45.4748967" lon="10.853295"><ele>112.0</ele><time>2026-04-18T12:01:11.177Z</time></trkpt><trkpt lat="45.4748467" lon="10.8531767"><ele>112.0</ele><time>2026-04-18T12:01:12.16Z</time></trkpt><trkpt lat="45.4747983" lon="10.85306"><ele>112.39999999999999</ele><time>2026-04-18T12:01:13.149Z</time></trkpt><trkpt lat="45.4747483" lon="10.8529217"><ele>112.79999999999998</ele><time>2026-04-18T12:01:14.143Z</time></trkpt><trkpt lat="45.4747167" lon="10.8527767"><ele>113.2</ele><time>2026-04-18T12:01:15.167Z</time></trkpt><trkpt lat="45.474665" lon="10.8526333"><ele>113.6</ele><time>2026-04-18T12:01:16.143Z</time></trkpt><trkpt lat="45.4746183" lon="10.85248"><ele>114.0</ele><time>2026-04-18T12:01:17.16Z</time></trkpt><trkpt lat="45.4745467" lon="10.8523517"><ele>114.80000000000001</ele><time>2026-04-18T12:01:18.164Z</time></trkpt><trkpt lat="45.4744867" lon="10.852225"><ele>115.60000000000001</ele><time>2026-04-18T12:01:19.157Z</time></trkpt><trkpt lat="45.4744667" lon="10.8520667"><ele>116.4</ele><time>2026-04-18T12:01:20.153Z</time></trkpt><trkpt lat="45.4744367" lon="10.85192"><ele>117.2</ele><time>2026-04-18T12:01:21.154Z</time></trkpt><trkpt lat="45.4744267" lon="10.8517717"><ele>118.0</ele><time>2026-04-18T12:01:22.152Z</time></trkpt><trkpt lat="45.4744283" lon="10.8516133"><ele>118.5</ele><time>2026-04-18T12:01:23.162Z</time></trkpt><trkpt lat="45.4744367" lon="10.8514517"><ele>119.0</ele><time>2026-04-18T12:01:24.163Z</time></trkpt><trkpt lat="45.4744517" lon="10.851275"><ele>119.5</ele><time>2026-04-18T12:01:25.155Z</time></trkpt><trkpt lat="45.47446" lon="10.851095"><ele>120.0</ele><time>2026-04-18T12:01:26.146Z</time></trkpt><trkpt lat="45.4744667" lon="10.8509267"><ele>120.2</ele><time>2026-04-18T12:01:27.158Z</time></trkpt><trkpt lat="45.47448" lon="10.8507733"><ele>120.4</ele><time>2026-04-18T12:01:28.148Z</time></trkpt><trkpt lat="45.4745083" lon="10.8506467"><ele>120.6</ele><time>2026-04-18T12:01:29.151Z</time></trkpt><trkpt lat="45.4745617" lon="10.85054"><ele>120.8</ele><time>2026-04-18T12:01:30.145Z</time></trkpt><trkpt lat="45.4746367" lon="10.8504483"><ele>121.0</ele><time>2026-04-18T12:01:31.15Z</time></trkpt><trkpt lat="45.4747633" lon="10.85036"><ele>121.0</ele><time>2026-04-18T12:01:32.152Z</time></trkpt><trkpt lat="45.47485" lon="10.850265"><ele>121.0</ele><time>2026-04-18T12:01:33.155Z</time></trkpt><trkpt lat="45.474935" lon="10.8501633"><ele>121.0</ele><time>2026-04-18T12:01:34.147Z</time></trkpt><trkpt lat="45.4750067" lon="10.8500183"><ele>121.0</ele><time>2026-04-18T12:01:35.158Z</time></trkpt><trkpt lat="45.47506" lon="10.849845"><ele>121.5</ele><time>2026-04-18T12:01:36.154Z</time></trkpt><trkpt lat="45.4751083" lon="10.849655"><ele>122.0</ele><time>2026-04-18T12:01:37.151Z</time></trkpt><trkpt lat="45.4751583" lon="10.8494867"><ele>122.5</ele><time>2026-04-18T12:01:38.144Z</time></trkpt><trkpt lat="45.4752083" lon="10.8493167"><ele>123.0</ele><time>2026-04-18T12:01:39.164Z</time></trkpt><trkpt lat="45.475265" lon="10.8491267"><ele>123.75</ele><time>2026-04-18T12:01:40.149Z</time></trkpt><trkpt lat="45.47531" lon="10.84894"><ele>124.5</ele><time>2026-04-18T12:01:41.152Z</time></trkpt><trkpt lat="45.4753117" lon="10.8487367"><ele>125.25</ele><time>2026-04-18T12:01:42.142Z</time></trkpt><trkpt lat="45.475285" lon="10.8485683"><ele>126.0</ele><time>2026-04-18T12:01:43.166Z</time></trkpt><trkpt lat="45.475305" lon="10.848395"><ele>126.25</ele><time>2026-04-18T12:01:44.151Z</time></trkpt><trkpt lat="45.47534" lon="10.8482333"><ele>126.5</ele><time>2026-04-18T12:01:45.158Z</time></trkpt><trkpt lat="45.475375" lon="10.8480267"><ele>126.75</ele><time>2026-04-18T12:01:46.151Z</time></trkpt><trkpt lat="45.4754117" lon="10.8478833"><ele>127.0</ele><time>2026-04-18T12:01:47.152Z</time></trkpt><trkpt lat="45.4754583" lon="10.8477783"><ele>127.00000000000001</ele><time>2026-04-18T12:01:48.148Z</time></trkpt><trkpt lat="45.4755017" lon="10.84766"><ele>127.0</ele><time>2026-04-18T12:01:49.15Z</time></trkpt><trkpt lat="45.4755467" lon="10.847545"><ele>127.0</ele><time>2026-04-18T12:01:50.157Z</time></trkpt><trkpt lat="45.4755817" lon="10.847435"><ele>127.0</ele><time>2026-04-18T12:01:52.146Z</time></trkpt><trkpt lat="45.4755633" lon="10.8473383"><ele>127.00000000000001</ele><time>2026-04-18T12:01:55.161Z</time></trkpt><trkpt lat="45.47547" lon="10.8472817"><ele>127.0</ele><time>2026-04-18T12:01:57.151Z</time></trkpt><trkpt lat="45.4753917" lon="10.8472433"><ele>127.0</ele><time>2026-04-18T12:01:59.159Z</time></trkpt><trkpt lat="45.47531" lon="10.8472067"><ele>126.99999999999999</ele><time>2026-04-18T12:02:08.156Z</time></trkpt><trkpt lat="45.475155" lon="10.8471817"><ele>126.99999999999999</ele><time>2026-04-18T12:02:09.165Z</time></trkpt><trkpt lat="45.4750833" lon="10.847145"><ele>127.0</ele><time>2026-04-18T12:02:10.149Z</time></trkpt><trkpt lat="45.47502" lon="10.8470967"><ele>127.0</ele><time>2026-04-18T12:02:11.151Z</time></trkpt><trkpt lat="45.4749517" lon="10.8470583"><ele>127.0</ele><time>2026-04-18T12:02:12.15Z</time></trkpt><trkpt lat="45.4748883" lon="10.84702"><ele>126.99999999999999</ele><time>2026-04-18T12:02:13.162Z</time></trkpt><trkpt lat="45.4748833" lon="10.8469233"><ele>126.99999999999999</ele><time>2026-04-18T12:02:14.16Z</time></trkpt><trkpt lat="45.474895" lon="10.846805"><ele>127.0</ele><time>2026-04-18T12:02:15.154Z</time></trkpt><trkpt lat="45.4749133" lon="10.8466733"><ele>127.0</ele><time>2026-04-18T12:02:16.148Z</time></trkpt><trkpt lat="45.47497" lon="10.8464917"><ele>127.5</ele><time>2026-04-18T12:02:17.152Z</time></trkpt><trkpt lat="45.4750383" lon="10.84634"><ele>128.0</ele><time>2026-04-18T12:02:18.144Z</time></trkpt><trkpt lat="45.4750783" lon="10.8461317"><ele>128.5</ele><time>2026-04-18T12:02:19.155Z</time></trkpt><trkpt lat="45.475125" lon="10.8459583"><ele>129.0</ele><time>2026-04-18T12:02:20.147Z</time></trkpt><trkpt lat="45.4751217" lon="10.8457317"><ele>129.0</ele><time>2026-04-18T12:02:21.157Z</time></trkpt><trkpt lat="45.4751583" lon="10.845545"><ele>129.0</ele><time>2026-04-18T12:02:22.149Z</time></trkpt><trkpt lat="45.4752" lon="10.845355"><ele>129.0</ele><time>2026-04-18T12:02:23.172Z</time></trkpt><trkpt lat="45.4752567" lon="10.8451833"><ele>129.0</ele><time>2026-04-18T12:02:24.148Z</time></trkpt><trkpt lat="45.475295" lon="10.8450317"><ele>128.75</ele><time>2026-04-18T12:02:25.155Z</time></trkpt><trkpt lat="45.4753283" lon="10.8448717"><ele>128.5</ele><time>2026-04-18T12:02:26.144Z</time></trkpt><trkpt lat="45.475365" lon="10.8446867"><ele>128.25</ele><time>2026-04-18T12:02:27.164Z</time></trkpt><trkpt lat="45.4753983" lon="10.8445017"><ele>128.0</ele><time>2026-04-18T12:02:28.143Z</time></trkpt><trkpt lat="45.4754317" lon="10.844335"><ele>127.66666666666666</ele><time>2026-04-18T12:02:29.148Z</time></trkpt><trkpt lat="45.4754167" lon="10.8441417"><ele>127.33333333333334</ele><time>2026-04-18T12:02:30.147Z</time></trkpt><trkpt lat="45.4754867" lon="10.84396"><ele>127.0</ele><time>2026-04-18T12:02:31.152Z</time></trkpt><trkpt lat="45.4755467" lon="10.8437233"><ele>127.39999999999999</ele><time>2026-04-18T12:02:32.149Z</time></trkpt><trkpt lat="45.4756017" lon="10.84357"><ele>127.79999999999998</ele><time>2026-04-18T12:02:33.164Z</time></trkpt><trkpt lat="45.4756367" lon="10.8434117"><ele>128.2</ele><time>2026-04-18T12:02:34.141Z</time></trkpt><trkpt lat="45.4756667" lon="10.843275"><ele>128.6</ele><time>2026-04-18T12:02:35.183Z</time></trkpt><trkpt lat="45.475695" lon="10.843145"><ele>129.0</ele><time>2026-04-18T12:02:36.143Z</time></trkpt><trkpt lat="45.4757267" lon="10.8430183"><ele>129.0</ele><time>2026-04-18T12:02:37.149Z</time></trkpt><trkpt lat="45.4757583" lon="10.8428967"><ele>129.0</ele><time>2026-04-18T12:02:38.15Z</time></trkpt><trkpt lat="45.4757833" lon="10.842785"><ele>129.0</ele><time>2026-04-18T12:02:39.155Z</time></trkpt><trkpt lat="45.4758083" lon="10.842675"><ele>129.0</ele><time>2026-04-18T12:02:40.146Z</time></trkpt><trkpt lat="45.4758317" lon="10.8425667"><ele>129.0</ele><time>2026-04-18T12:02:41.153Z</time></trkpt><trkpt lat="45.4758733" lon="10.8424467"><ele>129.0</ele><time>2026-04-18T12:02:42.146Z</time></trkpt><trkpt lat="45.4759117" lon="10.8423183"><ele>129.0</ele><time>2026-04-18T12:02:43.172Z</time></trkpt><trkpt lat="45.4759517" lon="10.8421817"><ele>129.0</ele><time>2026-04-18T12:02:44.149Z</time></trkpt><trkpt lat="45.47599" lon="10.8420467"><ele>129.0</ele><time>2026-04-18T12:02:45.162Z</time></trkpt><trkpt lat="45.4760083" lon="10.8419283"><ele>129.0</ele><time>2026-04-18T12:02:46.144Z</time></trkpt><trkpt lat="45.4760283" lon="10.8417283"><ele>129.0</ele><time>2026-04-18T12:02:47.156Z</time></trkpt><trkpt lat="45.4760717" lon="10.8415683"><ele>128.75</ele><time>2026-04-18T12:02:48.157Z</time></trkpt><trkpt lat="45.4761117" lon="10.8414133"><ele>128.5</ele><time>2026-04-18T12:02:49.151Z</time></trkpt><trkpt lat="45.4761267" lon="10.8412583"><ele>128.25</ele><time>2026-04-18T12:02:50.146Z</time></trkpt><trkpt lat="45.4761833" lon="10.841085"><ele>128.0</ele><time>2026-04-18T12:02:51.155Z</time></trkpt><trkpt lat="45.4762" lon="10.840915"><ele>127.75</ele><time>2026-04-18T12:02:52.144Z</time></trkpt><trkpt lat="45.4762267" lon="10.8407617"><ele>127.5</ele><time>2026-04-18T12:02:53.158Z</time></trkpt><trkpt lat="45.4762633" lon="10.8406"><ele>127.25</ele><time>2026-04-18T12:02:54.148Z</time></trkpt><trkpt lat="45.4762983" lon="10.8404483"><ele>127.0</ele><time>2026-04-18T12:02:55.159Z</time></trkpt><trkpt lat="45.4763317" lon="10.8402833"><ele>126.75</ele><time>2026-04-18T12:02:56.148Z</time></trkpt><trkpt lat="45.476355" lon="10.8401267"><ele>126.5</ele><time>2026-04-18T12:02:57.16Z</time></trkpt><trkpt lat="45.4763733" lon="10.8399617"><ele>126.25</ele><time>2026-04-18T12:02:58.146Z</time></trkpt><trkpt lat="45.4764133" lon="10.83979"><ele>126.0</ele><time>2026-04-18T12:02:59.155Z</time></trkpt><trkpt lat="45.4764483" lon="10.8396167"><ele>126.0</ele><time>2026-04-18T12:03:00.151Z</time></trkpt><trkpt lat="45.4765017" lon="10.8394233"><ele>126.0</ele><time>2026-04-18T12:03:01.159Z</time></trkpt><trkpt lat="45.47651" lon="10.8392867"><ele>126.0</ele><time>2026-04-18T12:03:02.143Z</time></trkpt><trkpt lat="45.47654" lon="10.8391033"><ele>126.0</ele><time>2026-04-18T12:03:03.155Z</time></trkpt><trkpt lat="45.4765583" lon="10.838945"><ele>125.75</ele><time>2026-04-18T12:03:04.152Z</time></trkpt><trkpt lat="45.4765867" lon="10.838785"><ele>125.5</ele><time>2026-04-18T12:03:05.157Z</time></trkpt><trkpt lat="45.476615" lon="10.8386233"><ele>125.25</ele><time>2026-04-18T12:03:06.152Z</time></trkpt><trkpt lat="45.47665" lon="10.8384583"><ele>125.0</ele><time>2026-04-18T12:03:07.156Z</time></trkpt><trkpt lat="45.4766617" lon="10.83828"><ele>125.0</ele><time>2026-04-18T12:03:08.141Z</time></trkpt><trkpt lat="45.4767017" lon="10.8381167"><ele>125.0</ele><time>2026-04-18T12:03:09.147Z</time></trkpt><trkpt lat="45.4767483" lon="10.8379483"><ele>125.0</ele><time>2026-04-18T12:03:10.154Z</time></trkpt><trkpt lat="45.476785" lon="10.8377633"><ele>125.0</ele><time>2026-04-18T12:03:11.151Z</time></trkpt><trkpt lat="45.4768383" lon="10.83754"><ele>125.25</ele><time>2026-04-18T12:03:12.15Z</time></trkpt><trkpt lat="45.4768483" lon="10.8373783"><ele>125.5</ele><time>2026-04-18T12:03:13.15Z</time></trkpt><trkpt lat="45.476875" lon="10.8371967"><ele>125.75</ele><time>2026-04-18T12:03:14.157Z</time></trkpt><trkpt lat="45.476895" lon="10.8370183"><ele>126.0</ele><time>2026-04-18T12:03:15.156Z</time></trkpt><trkpt lat="45.4769033" lon="10.8368383"><ele>126.5</ele><time>2026-04-18T12:03:16.151Z</time></trkpt><trkpt lat="45.4769133" lon="10.8366517"><ele>127.0</ele><time>2026-04-18T12:03:17.151Z</time></trkpt><trkpt lat="45.4769233" lon="10.8364717"><ele>127.5</ele><time>2026-04-18T12:03:18.163Z</time></trkpt><trkpt lat="45.4769367" lon="10.8362967"><ele>128.0</ele><time>2026-04-18T12:03:19.158Z</time></trkpt><trkpt lat="45.476955" lon="10.8361317"><ele>128.0</ele><time>2026-04-18T12:03:20.165Z</time></trkpt><trkpt lat="45.4769267" lon="10.83598"><ele>128.0</ele><time>2026-04-18T12:03:21.152Z</time></trkpt><trkpt lat="45.4769417" lon="10.8358233"><ele>128.0</ele><time>2026-04-18T12:03:22.143Z</time></trkpt><trkpt lat="45.4769583" lon="10.835685"><ele>128.0</ele><time>2026-04-18T12:03:23.152Z</time></trkpt><trkpt lat="45.4769667" lon="10.83557"><ele>128.0</ele><time>2026-04-18T12:03:24.147Z</time></trkpt><trkpt lat="45.4769617" lon="10.8354733"><ele>128.6</ele><time>2026-04-18T12:03:25.149Z</time></trkpt><trkpt lat="45.47696" lon="10.8353733"><ele>129.20000000000002</ele><time>2026-04-18T12:03:26.145Z</time></trkpt><trkpt lat="45.476945" lon="10.8352083"><ele>129.8</ele><time>2026-04-18T12:03:28.153Z</time></trkpt><trkpt lat="45.476935" lon="10.8350117"><ele>130.4</ele><time>2026-04-18T12:03:30.149Z</time></trkpt><trkpt lat="45.4769317" lon="10.8348833"><ele>131.0</ele><time>2026-04-18T12:03:31.147Z</time></trkpt><trkpt lat="45.4769433" lon="10.8347417"><ele>131.5</ele><time>2026-04-18T12:03:32.15Z</time></trkpt><trkpt lat="45.4769617" lon="10.8345633"><ele>132.0</ele><time>2026-04-18T12:03:33.155Z</time></trkpt><trkpt lat="45.4769617" lon="10.8344067"><ele>132.5</ele><time>2026-04-18T12:03:34.144Z</time></trkpt><trkpt lat="45.47696" lon="10.834245"><ele>133.0</ele><time>2026-04-18T12:03:35.148Z</time></trkpt><trkpt lat="45.4769717" lon="10.8340617"><ele>133.5</ele><time>2026-04-18T12:03:36.145Z</time></trkpt><trkpt lat="45.47697" lon="10.83387"><ele>134.0</ele><time>2026-04-18T12:03:37.149Z</time></trkpt><trkpt lat="45.4769633" lon="10.833685"><ele>134.5</ele><time>2026-04-18T12:03:38.15Z</time></trkpt><trkpt lat="45.4769733" lon="10.8335017"><ele>135.0</ele><time>2026-04-18T12:03:39.155Z</time></trkpt><trkpt lat="45.4769967" lon="10.8333117"><ele>135.0</ele><time>2026-04-18T12:03:40.141Z</time></trkpt><trkpt lat="45.4770017" lon="10.83313"><ele>135.0</ele><time>2026-04-18T12:03:41.156Z</time></trkpt><trkpt lat="45.4769817" lon="10.8329717"><ele>135.0</ele><time>2026-04-18T12:03:42.153Z</time></trkpt><trkpt lat="45.4769883" lon="10.8328133"><ele>135.0</ele><time>2026-04-18T12:03:43.148Z</time></trkpt><trkpt lat="45.477" lon="10.83265"><ele>135.4</ele><time>2026-04-18T12:03:44.146Z</time></trkpt><trkpt lat="45.4770133" lon="10.832495"><ele>135.8</ele><time>2026-04-18T12:03:45.16Z</time></trkpt><trkpt lat="45.4770283" lon="10.83235"><ele>136.2</ele><time>2026-04-18T12:03:46.148Z</time></trkpt><trkpt lat="45.4770517" lon="10.8321833"><ele>136.6</ele><time>2026-04-18T12:03:47.149Z</time></trkpt><trkpt lat="45.477035" lon="10.8320717"><ele>137.0</ele><time>2026-04-18T12:03:48.151Z</time></trkpt><trkpt lat="45.4770433" lon="10.831915"><ele>137.0</ele><time>2026-04-18T12:03:49.149Z</time></trkpt><trkpt lat="45.4770667" lon="10.8317733"><ele>137.0</ele><time>2026-04-18T12:03:50.152Z</time></trkpt><trkpt lat="45.4771" lon="10.8316117"><ele>137.0</ele><time>2026-04-18T12:03:51.157Z</time></trkpt><trkpt lat="45.4771333" lon="10.831445"><ele>137.0</ele><time>2026-04-18T12:03:52.153Z</time></trkpt><trkpt lat="45.4771583" lon="10.8312567"><ele>137.0</ele><time>2026-04-18T12:03:53.146Z</time></trkpt><trkpt lat="45.47718" lon="10.83106"><ele>137.0</ele><time>2026-04-18T12:03:54.147Z</time></trkpt><trkpt lat="45.4771867" lon="10.8308717"><ele>137.0</ele><time>2026-04-18T12:03:55.155Z</time></trkpt><trkpt lat="45.4772283" lon="10.8306567"><ele>137.0</ele><time>2026-04-18T12:03:56.144Z</time></trkpt><trkpt lat="45.4772383" lon="10.8304633"><ele>138.0</ele><time>2026-04-18T12:03:57.153Z</time></trkpt><trkpt lat="45.4772633" lon="10.8302667"><ele>139.0</ele><time>2026-04-18T12:03:58.158Z</time></trkpt><trkpt lat="45.477275" lon="10.8300817"><ele>140.0</ele><time>2026-04-18T12:03:59.167Z</time></trkpt><trkpt lat="45.4772833" lon="10.8299133"><ele>141.0</ele><time>2026-04-18T12:04:00.148Z</time></trkpt><trkpt lat="45.4773017" lon="10.829735"><ele>141.0</ele><time>2026-04-18T12:04:01.161Z</time></trkpt><trkpt lat="45.477325" lon="10.8295783"><ele>141.0</ele><time>2026-04-18T12:04:02.148Z</time></trkpt><trkpt lat="45.4773367" lon="10.82944"><ele>141.0</ele><time>2026-04-18T12:04:03.151Z</time></trkpt><trkpt lat="45.477345" lon="10.8293"><ele>141.0</ele><time>2026-04-18T12:04:04.143Z</time></trkpt><trkpt lat="45.4773533" lon="10.8291583"><ele>141.0</ele><time>2026-04-18T12:04:05.156Z</time></trkpt><trkpt lat="45.4773667" lon="10.8290083"><ele>141.4</ele><time>2026-04-18T12:04:06.147Z</time></trkpt><trkpt lat="45.4773783" lon="10.82885"><ele>141.8</ele><time>2026-04-18T12:04:07.149Z</time></trkpt><trkpt lat="45.477385" lon="10.82871"><ele>142.20000000000002</ele><time>2026-04-18T12:04:08.154Z</time></trkpt><trkpt lat="45.4773883" lon="10.828555"><ele>142.6</ele><time>2026-04-18T12:04:09.149Z</time></trkpt><trkpt lat="45.4773883" lon="10.82841"><ele>143.0</ele><time>2026-04-18T12:04:10.153Z</time></trkpt><trkpt lat="45.47741" lon="10.8282483"><ele>143.6</ele><time>2026-04-18T12:04:11.153Z</time></trkpt><trkpt lat="45.4773867" lon="10.8280717"><ele>144.20000000000002</ele><time>2026-04-18T12:04:12.149Z</time></trkpt><trkpt lat="45.4774133" lon="10.8279367"><ele>144.8</ele><time>2026-04-18T12:04:13.158Z</time></trkpt><trkpt lat="45.477405" lon="10.8278"><ele>145.4</ele><time>2026-04-18T12:04:14.152Z</time></trkpt><trkpt lat="45.4774067" lon="10.82766"><ele>146.0</ele><time>2026-04-18T12:04:15.145Z</time></trkpt><trkpt lat="45.4774167" lon="10.8275017"><ele>146.4</ele><time>2026-04-18T12:04:16.145Z</time></trkpt><trkpt lat="45.4774133" lon="10.8273483"><ele>146.8</ele><time>2026-04-18T12:04:17.15Z</time></trkpt><trkpt lat="45.4774267" lon="10.8271817"><ele>147.20000000000002</ele><time>2026-04-18T12:04:18.145Z</time></trkpt><trkpt lat="45.4774417" lon="10.8270333"><ele>147.6</ele><time>2026-04-18T12:04:19.158Z</time></trkpt><trkpt lat="45.47746" lon="10.826875"><ele>148.0</ele><time>2026-04-18T12:04:20.153Z</time></trkpt><trkpt lat="45.4774533" lon="10.8266917"><ele>148.5</ele><time>2026-04-18T12:04:21.169Z</time></trkpt><trkpt lat="45.477455" lon="10.8264983"><ele>149.0</ele><time>2026-04-18T12:04:22.144Z</time></trkpt><trkpt lat="45.4774583" lon="10.8263183"><ele>149.5</ele><time>2026-04-18T12:04:23.149Z</time></trkpt><trkpt lat="45.4774617" lon="10.8261333"><ele>150.0</ele><time>2026-04-18T12:04:24.146Z</time></trkpt><trkpt lat="45.47747" lon="10.8259283"><ele>150.75</ele><time>2026-04-18T12:04:25.148Z</time></trkpt><trkpt lat="45.4774883" lon="10.8257333"><ele>151.5</ele><time>2026-04-18T12:04:26.145Z</time></trkpt><trkpt lat="45.47748" lon="10.82555"><ele>152.25</ele><time>2026-04-18T12:04:27.156Z</time></trkpt><trkpt lat="45.47748" lon="10.8253667"><ele>153.0</ele><time>2026-04-18T12:04:28.142Z</time></trkpt><trkpt lat="45.4774733" lon="10.82517"><ele>153.25</ele><time>2026-04-18T12:04:29.154Z</time></trkpt><trkpt lat="45.477485" lon="10.8249983"><ele>153.5</ele><time>2026-04-18T12:04:30.148Z</time></trkpt><trkpt lat="45.47748" lon="10.824815"><ele>153.75</ele><time>2026-04-18T12:04:31.146Z</time></trkpt><trkpt lat="45.4774717" lon="10.8246217"><ele>154.0</ele><time>2026-04-18T12:04:32.144Z</time></trkpt><trkpt lat="45.4774717" lon="10.8244483"><ele>154.75</ele><time>2026-04-18T12:04:33.154Z</time></trkpt><trkpt lat="45.4774733" lon="10.8242633"><ele>155.5</ele><time>2026-04-18T12:04:34.144Z</time></trkpt><trkpt lat="45.4774767" lon="10.8240783"><ele>156.25</ele><time>2026-04-18T12:04:35.153Z</time></trkpt><trkpt lat="45.4774767" lon="10.82389"><ele>157.0</ele><time>2026-04-18T12:04:36.158Z</time></trkpt><trkpt lat="45.4774717" lon="10.8236933"><ele>157.0</ele><time>2026-04-18T12:04:37.16Z</time></trkpt><trkpt lat="45.4774633" lon="10.8235017"><ele>157.0</ele><time>2026-04-18T12:04:38.149Z</time></trkpt><trkpt lat="45.4774483" lon="10.8233117"><ele>157.0</ele><time>2026-04-18T12:04:39.154Z</time></trkpt><trkpt lat="45.4774383" lon="10.8231183"><ele>157.0</ele><time>2026-04-18T12:04:40.148Z</time></trkpt><trkpt lat="45.477425" lon="10.8229167"><ele>157.75</ele><time>2026-04-18T12:04:41.154Z</time></trkpt><trkpt lat="45.47744" lon="10.82272"><ele>158.5</ele><time>2026-04-18T12:04:42.151Z</time></trkpt><trkpt lat="45.4774267" lon="10.822525"><ele>159.25</ele><time>2026-04-18T12:04:43.154Z</time></trkpt><trkpt lat="45.4774183" lon="10.8223283"><ele>160.0</ele><time>2026-04-18T12:04:44.155Z</time></trkpt><trkpt lat="45.4774183" lon="10.8221483"><ele>160.5</ele><time>2026-04-18T12:04:45.159Z</time></trkpt><trkpt lat="45.4774183" lon="10.8219633"><ele>161.0</ele><time>2026-04-18T12:04:46.152Z</time></trkpt><trkpt lat="45.47742" lon="10.8217717"><ele>161.5</ele><time>2026-04-18T12:04:47.155Z</time></trkpt><trkpt lat="45.4774367" lon="10.821575"><ele>162.0</ele><time>2026-04-18T12:04:48.159Z</time></trkpt><trkpt lat="45.4774667" lon="10.8213917"><ele>162.25</ele><time>2026-04-18T12:04:49.158Z</time></trkpt><trkpt lat="45.477515" lon="10.821205"><ele>162.5</ele><time>2026-04-18T12:04:50.156Z</time></trkpt><trkpt lat="45.47757" lon="10.821015"><ele>162.75</ele><time>2026-04-18T12:04:51.151Z</time></trkpt><trkpt lat="45.47763" lon="10.8208667"><ele>163.0</ele><time>2026-04-18T12:04:52.162Z</time></trkpt><trkpt lat="45.47771" lon="10.8207067"><ele>164.66666666666669</ele><time>2026-04-18T12:04:53.153Z</time></trkpt><trkpt lat="45.4778333" lon="10.8205767"><ele>166.33333333333334</ele><time>2026-04-18T12:04:54.145Z</time></trkpt><trkpt lat="45.4779433" lon="10.8204283"><ele>168.0</ele><time>2026-04-18T12:04:55.155Z</time></trkpt><trkpt lat="45.4780717" lon="10.8203083"><ele>168.0</ele><time>2026-04-18T12:04:56.161Z</time></trkpt><trkpt lat="45.47818" lon="10.8201817"><ele>168.0</ele><time>2026-04-18T12:04:57.144Z</time></trkpt><trkpt lat="45.478255" lon="10.8200933"><ele>168.0</ele><time>2026-04-18T12:04:58.15Z</time></trkpt><trkpt lat="45.4783333" lon="10.8200233"><ele>168.0</ele><time>2026-04-18T12:04:59.166Z</time></trkpt><trkpt lat="45.4783883" lon="10.8199683"><ele>168.0</ele><time>2026-04-18T12:05:00.163Z</time></trkpt><trkpt lat="45.478465" lon="10.8198617"><ele>168.0</ele><time>2026-04-18T12:05:02.157Z</time></trkpt><trkpt lat="45.4783733" lon="10.8198767"><ele>168.0</ele><time>2026-04-18T12:05:12.15Z</time></trkpt><trkpt lat="45.4782733" lon="10.8200067"><ele>168.0</ele><time>2026-04-18T12:05:13.154Z</time></trkpt><trkpt lat="45.4781717" lon="10.8201433"><ele>168.0</ele><time>2026-04-18T12:05:14.155Z</time></trkpt><trkpt lat="45.478065" lon="10.8202967"><ele>168.0</ele><time>2026-04-18T12:05:15.159Z</time></trkpt><trkpt lat="45.4779533" lon="10.8205033"><ele>168.0</ele><time>2026-04-18T12:05:16.157Z</time></trkpt><trkpt lat="45.4778317" lon="10.8206433"><ele>168.0</ele><time>2026-04-18T12:05:17.15Z</time></trkpt><trkpt lat="45.47773" lon="10.82077"><ele>168.8</ele><time>2026-04-18T12:05:18.155Z</time></trkpt><trkpt lat="45.4776567" lon="10.82088"><ele>169.60000000000002</ele><time>2026-04-18T12:05:19.146Z</time></trkpt><trkpt lat="45.477585" lon="10.820985"><ele>170.39999999999998</ele><time>2026-04-18T12:05:20.159Z</time></trkpt><trkpt lat="45.4775183" lon="10.821045"><ele>171.2</ele><time>2026-04-18T12:05:21.153Z</time></trkpt><trkpt lat="45.4774317" lon="10.8210583"><ele>172.0</ele><time>2026-04-18T12:05:23.164Z</time></trkpt><trkpt lat="45.4773983" lon="10.82095"><ele>172.0</ele><time>2026-04-18T12:05:25.15Z</time></trkpt><trkpt lat="45.4773733" lon="10.8207717"><ele>172.0</ele><time>2026-04-18T12:05:27.171Z</time></trkpt><trkpt lat="45.4773617" lon="10.820665"><ele>172.0</ele><time>2026-04-18T12:05:28.147Z</time></trkpt><trkpt lat="45.4773433" lon="10.8205533"><ele>172.0</ele><time>2026-04-18T12:05:29.151Z</time></trkpt><trkpt lat="45.477325" lon="10.8204317"><ele>172.0</ele><time>2026-04-18T12:05:30.164Z</time></trkpt><trkpt lat="45.4773" lon="10.82031"><ele>172.0</ele><time>2026-04-18T12:05:31.164Z</time></trkpt><trkpt lat="45.4772783" lon="10.8201633"><ele>172.0</ele><time>2026-04-18T12:05:32.153Z</time></trkpt><trkpt lat="45.4772667" lon="10.8200167"><ele>172.0</ele><time>2026-04-18T12:05:33.16Z</time></trkpt><trkpt lat="45.4772383" lon="10.8198783"><ele>172.0</ele><time>2026-04-18T12:05:34.155Z</time></trkpt><trkpt lat="45.4772083" lon="10.8197667"><ele>172.0</ele><time>2026-04-18T12:05:35.161Z</time></trkpt><trkpt lat="45.4772017" lon="10.8196617"><ele>173.0</ele><time>2026-04-18T12:05:36.16Z</time></trkpt><trkpt lat="45.47728" lon="10.8195833"><ele>174.0</ele><time>2026-04-18T12:05:37.151Z</time></trkpt><trkpt lat="45.47738" lon="10.8195217"><ele>175.0</ele><time>2026-04-18T12:05:39.153Z</time></trkpt><trkpt lat="45.4774567" lon="10.8195017"><ele>176.0</ele><time>2026-04-18T12:05:41.168Z</time></trkpt><trkpt lat="45.47756" lon="10.8195233"><ele>177.0</ele><time>2026-04-18T12:05:43.165Z</time></trkpt><trkpt lat="45.4776733" lon="10.8195417"><ele>177.0</ele><time>2026-04-18T12:05:45.159Z</time></trkpt><trkpt lat="45.477545" lon="10.8195067"><ele>177.0</ele><time>2026-04-18T12:05:55.179Z</time></trkpt><trkpt lat="45.477465" lon="10.8195167"><ele>177.0</ele><time>2026-04-18T12:05:56.158Z</time></trkpt><trkpt lat="45.477395" lon="10.819525"><ele>177.0</ele><time>2026-04-18T12:05:57.149Z</time></trkpt><trkpt lat="45.47733" lon="10.8195467"><ele>177.0</ele><time>2026-04-18T12:05:58.149Z</time></trkpt><trkpt lat="45.4772133" lon="10.8196167"><ele>177.0</ele><time>2026-04-18T12:06:00.186Z</time></trkpt><trkpt lat="45.4771433" lon="10.81965"><ele>177.0</ele><time>2026-04-18T12:06:01.172Z</time></trkpt><trkpt lat="45.4770733" lon="10.819665"><ele>177.0</ele><time>2026-04-18T12:06:02.147Z</time></trkpt><trkpt lat="45.4770017" lon="10.8196667"><ele>177.0</ele><time>2026-04-18T12:06:03.151Z</time></trkpt><trkpt lat="45.4769333" lon="10.8196533"><ele>177.0</ele><time>2026-04-18T12:06:04.147Z</time></trkpt><trkpt lat="45.4768267" lon="10.819595"><ele>177.0</ele><time>2026-04-18T12:06:06.148Z</time></trkpt><trkpt lat="45.4767733" lon="10.8194783"><ele>177.8</ele><time>2026-04-18T12:06:08.159Z</time></trkpt><trkpt lat="45.476715" lon="10.8193367"><ele>178.6</ele><time>2026-04-18T12:06:10.146Z</time></trkpt><trkpt lat="45.4766183" lon="10.819225"><ele>179.4</ele><time>2026-04-18T12:06:12.153Z</time></trkpt><trkpt lat="45.476555" lon="10.8191917"><ele>180.20000000000002</ele><time>2026-04-18T12:06:13.156Z</time></trkpt><trkpt lat="45.4764833" lon="10.8191717"><ele>181.0</ele><time>2026-04-18T12:06:14.149Z</time></trkpt><trkpt lat="45.4764017" lon="10.819155"><ele>181.60000000000002</ele><time>2026-04-18T12:06:15.154Z</time></trkpt><trkpt lat="45.4763167" lon="10.8191383"><ele>182.2</ele><time>2026-04-18T12:06:16.144Z</time></trkpt><trkpt lat="45.4762233" lon="10.8191133"><ele>182.8</ele><time>2026-04-18T12:06:17.153Z</time></trkpt><trkpt lat="45.4761317" lon="10.8190933"><ele>183.39999999999998</ele><time>2026-04-18T12:06:18.154Z</time></trkpt><trkpt lat="45.4760533" lon="10.819075"><ele>184.0</ele><time>2026-04-18T12:06:19.153Z</time></trkpt><trkpt lat="45.4759483" lon="10.819035"><ele>184.39999999999998</ele><time>2026-04-18T12:06:20.145Z</time></trkpt><trkpt lat="45.475845" lon="10.8190317"><ele>184.8</ele><time>2026-04-18T12:06:21.151Z</time></trkpt><trkpt lat="45.47577" lon="10.8190233"><ele>185.2</ele><time>2026-04-18T12:06:22.156Z</time></trkpt><trkpt lat="45.475695" lon="10.8190283"><ele>185.60000000000002</ele><time>2026-04-18T12:06:23.163Z</time></trkpt><trkpt lat="45.4755717" lon="10.819015"><ele>186.0</ele><time>2026-04-18T12:06:25.161Z</time></trkpt><trkpt lat="45.4754733" lon="10.8189467"><ele>186.0</ele><time>2026-04-18T12:06:27.151Z</time></trkpt><trkpt lat="45.4754867" lon="10.8187833"><ele>186.0</ele><time>2026-04-18T12:06:29.159Z</time></trkpt><trkpt lat="45.475495" lon="10.81868"><ele>186.0</ele><time>2026-04-18T12:06:30.147Z</time></trkpt><trkpt lat="45.4755017" lon="10.8185683"><ele>186.0</ele><time>2026-04-18T12:06:31.148Z</time></trkpt><trkpt lat="45.475505" lon="10.8184433"><ele>186.0</ele><time>2026-04-18T12:06:32.149Z</time></trkpt><trkpt lat="45.4755067" lon="10.8183183"><ele>186.0</ele><time>2026-04-18T12:06:33.15Z</time></trkpt><trkpt lat="45.4755083" lon="10.8181983"><ele>186.33333333333334</ele><time>2026-04-18T12:06:34.157Z</time></trkpt><trkpt lat="45.4755167" lon="10.818095"><ele>186.66666666666666</ele><time>2026-04-18T12:06:35.156Z</time></trkpt><trkpt lat="45.47553" lon="10.8180033"><ele>187.0</ele><time>2026-04-18T12:06:36.151Z</time></trkpt><trkpt lat="45.4755567" lon="10.81784"><ele>187.33333333333331</ele><time>2026-04-18T12:06:38.159Z</time></trkpt><trkpt lat="45.47558" lon="10.8177533"><ele>187.66666666666666</ele><time>2026-04-18T12:06:39.15Z</time></trkpt><trkpt lat="45.4756033" lon="10.8176633"><ele>188.0</ele><time>2026-04-18T12:06:40.151Z</time></trkpt><trkpt lat="45.4756367" lon="10.8175683"><ele>189.0</ele><time>2026-04-18T12:06:41.162Z</time></trkpt><trkpt lat="45.4756733" lon="10.8174783"><ele>190.0</ele><time>2026-04-18T12:06:42.149Z</time></trkpt><trkpt lat="45.4757033" lon="10.817395"><ele>191.0</ele><time>2026-04-18T12:06:43.16Z</time></trkpt><trkpt lat="45.4757467" lon="10.8172917"><ele>192.0</ele><time>2026-04-18T12:06:45.159Z</time></trkpt><trkpt lat="45.475765" lon="10.817165"><ele>193.00000000000003</ele><time>2026-04-18T12:06:49.153Z</time></trkpt><trkpt lat="45.4757867" lon="10.817065"><ele>194.0</ele><time>2026-04-18T12:06:51.154Z</time></trkpt><trkpt lat="45.4757467" lon="10.81718"><ele>194.0</ele><time>2026-04-18T12:06:56.15Z</time></trkpt><trkpt lat="45.475735" lon="10.8172733"><ele>194.0</ele><time>2026-04-18T12:06:57.154Z</time></trkpt><trkpt lat="45.4757133" lon="10.8173817"><ele>194.0</ele><time>2026-04-18T12:06:58.16Z</time></trkpt><trkpt lat="45.4756783" lon="10.8175017"><ele>194.0</ele><time>2026-04-18T12:06:59.157Z</time></trkpt><trkpt lat="45.4756267" lon="10.8176383"><ele>194.0</ele><time>2026-04-18T12:07:00.171Z</time></trkpt><trkpt lat="45.4755717" lon="10.8177867"><ele>192.5</ele><time>2026-04-18T12:07:01.195Z</time></trkpt><trkpt lat="45.4755367" lon="10.818075"><ele>191.0</ele><time>2026-04-18T12:07:03.156Z</time></trkpt><trkpt lat="45.4755333" lon="10.8182317"><ele>189.5</ele><time>2026-04-18T12:07:04.16Z</time></trkpt><trkpt lat="45.475525" lon="10.8184067"><ele>188.0</ele><time>2026-04-18T12:07:05.153Z</time></trkpt><trkpt lat="45.4755117" lon="10.8185767"><ele>187.8</ele><time>2026-04-18T12:07:06.152Z</time></trkpt><trkpt lat="45.4755133" lon="10.8187283"><ele>187.60000000000002</ele><time>2026-04-18T12:07:07.162Z</time></trkpt><trkpt lat="45.4755183" lon="10.8188483"><ele>187.39999999999998</ele><time>2026-04-18T12:07:08.152Z</time></trkpt><trkpt lat="45.4755117" lon="10.8189917"><ele>187.2</ele><time>2026-04-18T12:07:10.148Z</time></trkpt><trkpt lat="45.475465" lon="10.8190567"><ele>187.0</ele><time>2026-04-18T12:07:12.148Z</time></trkpt><trkpt lat="45.4753383" lon="10.819065"><ele>187.0</ele><time>2026-04-18T12:07:14.153Z</time></trkpt><trkpt lat="45.4752467" lon="10.81906"><ele>187.0</ele><time>2026-04-18T12:07:15.148Z</time></trkpt><trkpt lat="45.4751333" lon="10.8190467"><ele>187.0</ele><time>2026-04-18T12:07:16.155Z</time></trkpt><trkpt lat="45.4750133" lon="10.8190483"><ele>187.0</ele><time>2026-04-18T12:07:17.157Z</time></trkpt><trkpt lat="45.4749033" lon="10.8190533"><ele>187.0</ele><time>2026-04-18T12:07:18.151Z</time></trkpt><trkpt lat="45.4748217" lon="10.8190317"><ele>187.0</ele><time>2026-04-18T12:07:19.161Z</time></trkpt><trkpt lat="45.4747383" lon="10.8189933"><ele>187.0</ele><time>2026-04-18T12:07:20.151Z</time></trkpt><trkpt lat="45.4746717" lon="10.8189217"><ele>187.0</ele><time>2026-04-18T12:07:21.153Z</time></trkpt><trkpt lat="45.474635" lon="10.8188067"><ele>187.0</ele><time>2026-04-18T12:07:22.154Z</time></trkpt><trkpt lat="45.4746217" lon="10.818655"><ele>187.0</ele><time>2026-04-18T12:07:23.162Z</time></trkpt><trkpt lat="45.4746" lon="10.818495"><ele>188.0</ele><time>2026-04-18T12:07:24.144Z</time></trkpt><trkpt lat="45.47455" lon="10.8183467"><ele>189.0</ele><time>2026-04-18T12:07:25.15Z</time></trkpt><trkpt lat="45.4745167" lon="10.81819"><ele>190.0</ele><time>2026-04-18T12:07:26.149Z</time></trkpt><trkpt lat="45.4744817" lon="10.8180467"><ele>191.0</ele><time>2026-04-18T12:07:27.149Z</time></trkpt><trkpt lat="45.474445" lon="10.8179233"><ele>192.0</ele><time>2026-04-18T12:07:28.158Z</time></trkpt><trkpt lat="45.4743983" lon="10.8178"><ele>192.0</ele><time>2026-04-18T12:07:29.154Z</time></trkpt><trkpt lat="45.4743517" lon="10.8177183"><ele>192.0</ele><time>2026-04-18T12:07:30.149Z</time></trkpt><trkpt lat="45.474295" lon="10.8176383"><ele>192.0</ele><time>2026-04-18T12:07:31.151Z</time></trkpt><trkpt lat="45.4742217" lon="10.8175817"><ele>192.0</ele><time>2026-04-18T12:07:32.148Z</time></trkpt><trkpt lat="45.474135" lon="10.8175333"><ele>192.0</ele><time>2026-04-18T12:07:33.157Z</time></trkpt><trkpt lat="45.4740467" lon="10.81748"><ele>192.0</ele><time>2026-04-18T12:07:34.146Z</time></trkpt><trkpt lat="45.4739533" lon="10.81743"><ele>191.6</ele><time>2026-04-18T12:07:35.154Z</time></trkpt><trkpt lat="45.4738517" lon="10.8173867"><ele>191.2</ele><time>2026-04-18T12:07:36.15Z</time></trkpt><trkpt lat="45.4737417" lon="10.8173483"><ele>190.8</ele><time>2026-04-18T12:07:37.149Z</time></trkpt><trkpt lat="45.4736167" lon="10.81734"><ele>190.4</ele><time>2026-04-18T12:07:38.145Z</time></trkpt><trkpt lat="45.4735383" lon="10.8173217"><ele>190.0</ele><time>2026-04-18T12:07:39.163Z</time></trkpt><trkpt lat="45.4734417" lon="10.8172567"><ele>190.0</ele><time>2026-04-18T12:07:41.169Z</time></trkpt><trkpt lat="45.47339" lon="10.81709"><ele>190.0</ele><time>2026-04-18T12:07:43.158Z</time></trkpt><trkpt lat="45.4733867" lon="10.81698"><ele>190.0</ele><time>2026-04-18T12:07:44.144Z</time></trkpt><trkpt lat="45.473395" lon="10.81684"><ele>190.0</ele><time>2026-04-18T12:07:45.16Z</time></trkpt><trkpt lat="45.4734017" lon="10.81668"><ele>190.0</ele><time>2026-04-18T12:07:46.142Z</time></trkpt><trkpt lat="45.4734" lon="10.816535"><ele>190.75</ele><time>2026-04-18T12:07:47.147Z</time></trkpt><trkpt lat="45.473395" lon="10.81636"><ele>191.5</ele><time>2026-04-18T12:07:48.148Z</time></trkpt><trkpt lat="45.47338" lon="10.8162067"><ele>192.25</ele><time>2026-04-18T12:07:49.161Z</time></trkpt><trkpt lat="45.4733667" lon="10.816035"><ele>193.0</ele><time>2026-04-18T12:07:50.143Z</time></trkpt><trkpt lat="45.47336" lon="10.8158667"><ele>193.2</ele><time>2026-04-18T12:07:51.149Z</time></trkpt><trkpt lat="45.4733483" lon="10.8157"><ele>193.4</ele><time>2026-04-18T12:07:52.16Z</time></trkpt><trkpt lat="45.473335" lon="10.8155317"><ele>193.6</ele><time>2026-04-18T12:07:53.149Z</time></trkpt><trkpt lat="45.4733483" lon="10.8154083"><ele>193.79999999999998</ele><time>2026-04-18T12:07:54.147Z</time></trkpt><trkpt lat="45.4733583" lon="10.8152917"><ele>194.0</ele><time>2026-04-18T12:07:55.156Z</time></trkpt><trkpt lat="45.4733883" lon="10.8151783"><ele>194.2</ele><time>2026-04-18T12:07:56.144Z</time></trkpt><trkpt lat="45.4734167" lon="10.8150567"><ele>194.39999999999998</ele><time>2026-04-18T12:07:57.146Z</time></trkpt><trkpt lat="45.47342" lon="10.8149167"><ele>194.6</ele><time>2026-04-18T12:07:58.152Z</time></trkpt><trkpt lat="45.4734467" lon="10.8148083"><ele>194.8</ele><time>2026-04-18T12:07:59.151Z</time></trkpt><trkpt lat="45.4734167" lon="10.8146083"><ele>195.0</ele><time>2026-04-18T12:08:00.155Z</time></trkpt><trkpt lat="45.4734517" lon="10.81448"><ele>195.0</ele><time>2026-04-18T12:08:01.154Z</time></trkpt><trkpt lat="45.47347" lon="10.8143367"><ele>195.0</ele><time>2026-04-18T12:08:02.148Z</time></trkpt><trkpt lat="45.4734933" lon="10.8141383"><ele>195.0</ele><time>2026-04-18T12:08:03.167Z</time></trkpt><trkpt lat="45.4735167" lon="10.8139683"><ele>195.0</ele><time>2026-04-18T12:08:04.153Z</time></trkpt><trkpt lat="45.47353" lon="10.8138383"><ele>194.8</ele><time>2026-04-18T12:08:05.147Z</time></trkpt><trkpt lat="45.4735333" lon="10.813715"><ele>194.6</ele><time>2026-04-18T12:08:06.147Z</time></trkpt><trkpt lat="45.4735567" lon="10.8135833"><ele>194.39999999999998</ele><time>2026-04-18T12:08:07.152Z</time></trkpt><trkpt lat="45.4735883" lon="10.8134283"><ele>194.2</ele><time>2026-04-18T12:08:08.145Z</time></trkpt><trkpt lat="45.4736433" lon="10.8132883"><ele>194.0</ele><time>2026-04-18T12:08:09.148Z</time></trkpt><trkpt lat="45.4736833" lon="10.8131583"><ele>194.0</ele><time>2026-04-18T12:08:10.144Z</time></trkpt><trkpt lat="45.4737083" lon="10.8130317"><ele>194.0</ele><time>2026-04-18T12:08:11.161Z</time></trkpt><trkpt lat="45.4736783" lon="10.8129283"><ele>194.0</ele><time>2026-04-18T12:08:12.145Z</time></trkpt><trkpt lat="45.4737167" lon="10.8127633"><ele>194.0</ele><time>2026-04-18T12:08:13.152Z</time></trkpt><trkpt lat="45.473765" lon="10.8126567"><ele>194.0</ele><time>2026-04-18T12:08:14.163Z</time></trkpt><trkpt lat="45.47382" lon="10.8125367"><ele>194.25</ele><time>2026-04-18T12:08:15.15Z</time></trkpt><trkpt lat="45.4738767" lon="10.8124267"><ele>194.5</ele><time>2026-04-18T12:08:16.14Z</time></trkpt><trkpt lat="45.473955" lon="10.8123267"><ele>194.75</ele><time>2026-04-18T12:08:17.158Z</time></trkpt><trkpt lat="45.474055" lon="10.8122383"><ele>195.0</ele><time>2026-04-18T12:08:18.144Z</time></trkpt><trkpt lat="45.4741783" lon="10.81215"><ele>195.0</ele><time>2026-04-18T12:08:19.148Z</time></trkpt><trkpt lat="45.47432" lon="10.8120633"><ele>195.0</ele><time>2026-04-18T12:08:20.146Z</time></trkpt><trkpt lat="45.4744533" lon="10.81195"><ele>195.0</ele><time>2026-04-18T12:08:21.15Z</time></trkpt><trkpt lat="45.4745933" lon="10.8118183"><ele>196.33333333333331</ele><time>2026-04-18T12:08:22.145Z</time></trkpt><trkpt lat="45.4747383" lon="10.8116833"><ele>197.66666666666666</ele><time>2026-04-18T12:08:23.156Z</time></trkpt><trkpt lat="45.4748933" lon="10.8115433"><ele>199.0</ele><time>2026-04-18T12:08:24.147Z</time></trkpt><trkpt lat="45.4750583" lon="10.811395"><ele>199.0</ele><time>2026-04-18T12:08:25.157Z</time></trkpt><trkpt lat="45.4752283" lon="10.8112367"><ele>199.0</ele><time>2026-04-18T12:08:26.176Z</time></trkpt><trkpt lat="45.4754017" lon="10.8110933"><ele>199.0</ele><time>2026-04-18T12:08:27.154Z</time></trkpt><trkpt lat="45.475565" lon="10.8109617"><ele>198.0</ele><time>2026-04-18T12:08:28.162Z</time></trkpt><trkpt lat="45.4757283" lon="10.8108233"><ele>197.0</ele><time>2026-04-18T12:08:29.151Z</time></trkpt><trkpt lat="45.47588" lon="10.8107017"><ele>196.0</ele><time>2026-04-18T12:08:30.154Z</time></trkpt><trkpt lat="45.4760217" lon="10.8105883"><ele>196.0</ele><time>2026-04-18T12:08:31.148Z</time></trkpt><trkpt lat="45.4761367" lon="10.8105083"><ele>196.0</ele><time>2026-04-18T12:08:32.151Z</time></trkpt><trkpt lat="45.4762567" lon="10.810415"><ele>196.0</ele><time>2026-04-18T12:08:33.16Z</time></trkpt><trkpt lat="45.4763767" lon="10.8103333"><ele>196.0</ele><time>2026-04-18T12:08:34.158Z</time></trkpt><trkpt lat="45.47649" lon="10.8102533"><ele>196.8</ele><time>2026-04-18T12:08:35.154Z</time></trkpt><trkpt lat="45.47659" lon="10.8101867"><ele>197.60000000000002</ele><time>2026-04-18T12:08:36.151Z</time></trkpt><trkpt lat="45.4766633" lon="10.8101217"><ele>198.4</ele><time>2026-04-18T12:08:37.159Z</time></trkpt><trkpt lat="45.47674" lon="10.8100767"><ele>199.2</ele><time>2026-04-18T12:08:38.153Z</time></trkpt><trkpt lat="45.4768383" lon="10.8100067"><ele>200.0</ele><time>2026-04-18T12:08:39.153Z</time></trkpt><trkpt lat="45.4769317" lon="10.80993"><ele>200.0</ele><time>2026-04-18T12:08:40.148Z</time></trkpt><trkpt lat="45.477035" lon="10.8098283"><ele>200.0</ele><time>2026-04-18T12:08:41.159Z</time></trkpt><trkpt lat="45.47713" lon="10.809715"><ele>200.0</ele><time>2026-04-18T12:08:42.142Z</time></trkpt><trkpt lat="45.477245" lon="10.8095767"><ele>200.0</ele><time>2026-04-18T12:08:43.15Z</time></trkpt><trkpt lat="45.4773567" lon="10.80945"><ele>200.25</ele><time>2026-04-18T12:08:44.154Z</time></trkpt><trkpt lat="45.4774733" lon="10.8093167"><ele>200.5</ele><time>2026-04-18T12:08:45.159Z</time></trkpt><trkpt lat="45.4775817" lon="10.809195"><ele>200.75</ele><time>2026-04-18T12:08:46.149Z</time></trkpt><trkpt lat="45.4776933" lon="10.809065"><ele>201.0</ele><time>2026-04-18T12:08:47.156Z</time></trkpt><trkpt lat="45.4778067" lon="10.8089183"><ele>201.33333333333331</ele><time>2026-04-18T12:08:48.149Z</time></trkpt><trkpt lat="45.4779383" lon="10.808765"><ele>201.66666666666666</ele><time>2026-04-18T12:08:49.153Z</time></trkpt><trkpt lat="45.4780783" lon="10.8086233"><ele>202.0</ele><time>2026-04-18T12:08:50.154Z</time></trkpt><trkpt lat="45.4782183" lon="10.8085117"><ele>201.66666666666666</ele><time>2026-04-18T12:08:51.15Z</time></trkpt><trkpt lat="45.4783583" lon="10.8084183"><ele>201.33333333333331</ele><time>2026-04-18T12:08:52.154Z</time></trkpt><trkpt lat="45.4784883" lon="10.8083283"><ele>201.0</ele><time>2026-04-18T12:08:53.168Z</time></trkpt><trkpt lat="45.4786283" lon="10.80824"><ele>201.0</ele><time>2026-04-18T12:08:54.153Z</time></trkpt><trkpt lat="45.4787383" lon="10.8082267"><ele>201.0</ele><time>2026-04-18T12:08:55.159Z</time></trkpt><trkpt lat="45.478865" lon="10.8081967"><ele>201.0</ele><time>2026-04-18T12:08:56.149Z</time></trkpt><trkpt lat="45.4789917" lon="10.8082233"><ele>201.0</ele><time>2026-04-18T12:08:57.147Z</time></trkpt><trkpt lat="45.4791017" lon="10.8082483"><ele>201.0</ele><time>2026-04-18T12:08:58.149Z</time></trkpt><trkpt lat="45.4792217" lon="10.8082567"><ele>201.0</ele><time>2026-04-18T12:08:59.152Z</time></trkpt><trkpt lat="45.47935" lon="10.8082867"><ele>201.0</ele><time>2026-04-18T12:09:00.15Z</time></trkpt><trkpt lat="45.4794817" lon="10.8083117"><ele>201.0</ele><time>2026-04-18T12:09:01.15Z</time></trkpt><trkpt lat="45.4796233" lon="10.8082767"><ele>200.20000000000002</ele><time>2026-04-18T12:09:02.153Z</time></trkpt><trkpt lat="45.4797517" lon="10.80827"><ele>199.4</ele><time>2026-04-18T12:09:03.163Z</time></trkpt><trkpt lat="45.4798717" lon="10.8082233"><ele>198.6</ele><time>2026-04-18T12:09:04.154Z</time></trkpt><trkpt lat="45.4799667" lon="10.8081667"><ele>197.8</ele><time>2026-04-18T12:09:05.154Z</time></trkpt><trkpt lat="45.4800517" lon="10.8081433"><ele>197.0</ele><time>2026-04-18T12:09:06.154Z</time></trkpt><trkpt lat="45.4801633" lon="10.8081083"><ele>197.0</ele><time>2026-04-18T12:09:08.148Z</time></trkpt><trkpt lat="45.4802583" lon="10.8080517"><ele>197.0</ele><time>2026-04-18T12:09:10.14Z</time></trkpt><trkpt lat="45.4803167" lon="10.8079917"><ele>197.0</ele><time>2026-04-18T12:09:11.162Z</time></trkpt><trkpt lat="45.48038" lon="10.80791"><ele>197.0</ele><time>2026-04-18T12:09:12.148Z</time></trkpt><trkpt lat="45.4804567" lon="10.8077633"><ele>197.0</ele><time>2026-04-18T12:09:13.147Z</time></trkpt><trkpt lat="45.48053" lon="10.8076517"><ele>196.0</ele><time>2026-04-18T12:09:14.146Z</time></trkpt><trkpt lat="45.480595" lon="10.8075433"><ele>195.0</ele><time>2026-04-18T12:09:15.152Z</time></trkpt><trkpt lat="45.48071" lon="10.80747"><ele>194.0</ele><time>2026-04-18T12:09:16.148Z</time></trkpt><trkpt lat="45.4808067" lon="10.80738"><ele>193.0</ele><time>2026-04-18T12:09:17.148Z</time></trkpt><trkpt lat="45.4809233" lon="10.807315"><ele>193.0</ele><time>2026-04-18T12:09:18.148Z</time></trkpt><trkpt lat="45.4810383" lon="10.8072417"><ele>193.0</ele><time>2026-04-18T12:09:19.142Z</time></trkpt><trkpt lat="45.481155" lon="10.8071817"><ele>193.0</ele><time>2026-04-18T12:09:20.153Z</time></trkpt><trkpt lat="45.48129" lon="10.8071283"><ele>193.0</ele><time>2026-04-18T12:09:21.157Z</time></trkpt><trkpt lat="45.4814417" lon="10.8070617"><ele>193.66666666666666</ele><time>2026-04-18T12:09:22.15Z</time></trkpt><trkpt lat="45.4816017" lon="10.8070083"><ele>194.33333333333331</ele><time>2026-04-18T12:09:23.148Z</time></trkpt><trkpt lat="45.4817867" lon="10.8069633"><ele>195.0</ele><time>2026-04-18T12:09:24.151Z</time></trkpt><trkpt lat="45.481915" lon="10.8069017"><ele>195.0</ele><time>2026-04-18T12:09:25.153Z</time></trkpt><trkpt lat="45.4820283" lon="10.806855"><ele>195.0</ele><time>2026-04-18T12:09:26.143Z</time></trkpt><trkpt lat="45.482155" lon="10.80677"><ele>195.0</ele><time>2026-04-18T12:09:27.155Z</time></trkpt><trkpt lat="45.4822717" lon="10.806705"><ele>195.0</ele><time>2026-04-18T12:09:28.153Z</time></trkpt><trkpt lat="45.4823883" lon="10.8065967"><ele>193.8</ele><time>2026-04-18T12:09:29.156Z</time></trkpt><trkpt lat="45.48249" lon="10.8065083"><ele>192.6</ele><time>2026-04-18T12:09:30.153Z</time></trkpt><trkpt lat="45.4825883" lon="10.806445"><ele>191.39999999999998</ele><time>2026-04-18T12:09:31.159Z</time></trkpt><trkpt lat="45.4826683" lon="10.80637"><ele>190.2</ele><time>2026-04-18T12:09:32.149Z</time></trkpt><trkpt lat="45.48275" lon="10.8062967"><ele>189.0</ele><time>2026-04-18T12:09:33.145Z</time></trkpt><trkpt lat="45.482815" lon="10.8062417"><ele>189.0</ele><time>2026-04-18T12:09:34.145Z</time></trkpt><trkpt lat="45.4828867" lon="10.8061967"><ele>189.0</ele><time>2026-04-18T12:09:35.167Z</time></trkpt><trkpt lat="45.4829567" lon="10.8061583"><ele>189.0</ele><time>2026-04-18T12:09:36.148Z</time></trkpt><trkpt lat="45.48302" lon="10.8061367"><ele>189.0</ele><time>2026-04-18T12:09:37.149Z</time></trkpt><trkpt lat="45.4830967" lon="10.8061283"><ele>189.0</ele><time>2026-04-18T12:09:39.163Z</time></trkpt><trkpt lat="45.4831733" lon="10.8061783"><ele>189.0</ele><time>2026-04-18T12:10:04.15Z</time></trkpt><trkpt lat="45.4832667" lon="10.8062467"><ele>188.83333333333334</ele><time>2026-04-18T12:10:06.149Z</time></trkpt><trkpt lat="45.483335" lon="10.8062417"><ele>188.66666666666666</ele><time>2026-04-18T12:10:08.152Z</time></trkpt><trkpt lat="45.4833933" lon="10.8061217"><ele>188.5</ele><time>2026-04-18T12:10:11.157Z</time></trkpt><trkpt lat="45.4833983" lon="10.80603"><ele>188.33333333333331</ele><time>2026-04-18T12:10:12.163Z</time></trkpt><trkpt lat="45.4834" lon="10.8059283"><ele>188.16666666666666</ele><time>2026-04-18T12:10:13.155Z</time></trkpt><trkpt lat="45.4833933" lon="10.8058167"><ele>188.0</ele><time>2026-04-18T12:10:14.155Z</time></trkpt><trkpt lat="45.483385" lon="10.8056883"><ele>188.0</ele><time>2026-04-18T12:10:15.161Z</time></trkpt><trkpt lat="45.48338" lon="10.80554"><ele>188.0</ele><time>2026-04-18T12:10:16.152Z</time></trkpt><trkpt lat="45.483375" lon="10.805375"><ele>188.0</ele><time>2026-04-18T12:10:17.152Z</time></trkpt><trkpt lat="45.4833633" lon="10.8051883"><ele>188.0</ele><time>2026-04-18T12:10:18.148Z</time></trkpt><trkpt lat="45.4833583" lon="10.8050167"><ele>188.0</ele><time>2026-04-18T12:10:19.162Z</time></trkpt><trkpt lat="45.4833517" lon="10.804815"><ele>188.0</ele><time>2026-04-18T12:10:20.147Z</time></trkpt><trkpt lat="45.4833017" lon="10.8046067"><ele>188.0</ele><time>2026-04-18T12:10:21.157Z</time></trkpt><trkpt lat="45.4832983" lon="10.8044217"><ele>188.0</ele><time>2026-04-18T12:10:22.15Z</time></trkpt><trkpt lat="45.4833017" lon="10.8042383"><ele>188.0</ele><time>2026-04-18T12:10:23.154Z</time></trkpt><trkpt lat="45.4833067" lon="10.8040817"><ele>188.0</ele><time>2026-04-18T12:10:24.143Z</time></trkpt><trkpt lat="45.4833033" lon="10.8038783"><ele>188.0</ele><time>2026-04-18T12:10:25.157Z</time></trkpt><trkpt lat="45.4833033" lon="10.8036933"><ele>188.0</ele><time>2026-04-18T12:10:26.15Z</time></trkpt><trkpt lat="45.4832767" lon="10.8035233"><ele>186.5</ele><time>2026-04-18T12:10:27.145Z</time></trkpt><trkpt lat="45.4832583" lon="10.80336"><ele>185.0</ele><time>2026-04-18T12:10:28.145Z</time></trkpt><trkpt lat="45.4832533" lon="10.8031883"><ele>183.5</ele><time>2026-04-18T12:10:29.145Z</time></trkpt><trkpt lat="45.4832583" lon="10.803"><ele>182.0</ele><time>2026-04-18T12:10:30.146Z</time></trkpt><trkpt lat="45.4832683" lon="10.8028"><ele>180.0</ele><time>2026-04-18T12:10:31.148Z</time></trkpt><trkpt lat="45.4832783" lon="10.8025717"><ele>178.0</ele><time>2026-04-18T12:10:32.146Z</time></trkpt><trkpt lat="45.483295" lon="10.8023617"><ele>176.0</ele><time>2026-04-18T12:10:33.148Z</time></trkpt><trkpt lat="45.483305" lon="10.802155"><ele>176.0</ele><time>2026-04-18T12:10:34.151Z</time></trkpt><trkpt lat="45.483325" lon="10.8019583"><ele>176.0</ele><time>2026-04-18T12:10:35.148Z</time></trkpt><trkpt lat="45.4833517" lon="10.8017767"><ele>176.0</ele><time>2026-04-18T12:10:36.149Z</time></trkpt><trkpt lat="45.4834017" lon="10.8015867"><ele>176.0</ele><time>2026-04-18T12:10:37.147Z</time></trkpt><trkpt lat="45.48345" lon="10.801385"><ele>175.0</ele><time>2026-04-18T12:10:38.163Z</time></trkpt><trkpt lat="45.4834967" lon="10.8011683"><ele>174.0</ele><time>2026-04-18T12:10:39.151Z</time></trkpt><trkpt lat="45.483535" lon="10.80095"><ele>173.0</ele><time>2026-04-18T12:10:40.157Z</time></trkpt><trkpt lat="45.483575" lon="10.8007317"><ele>172.33333333333331</ele><time>2026-04-18T12:10:41.17Z</time></trkpt><trkpt lat="45.4836183" lon="10.8005167"><ele>171.66666666666666</ele><time>2026-04-18T12:10:42.163Z</time></trkpt><trkpt lat="45.483675" lon="10.800305"><ele>171.0</ele><time>2026-04-18T12:10:43.16Z</time></trkpt><trkpt lat="45.4837483" lon="10.800085"><ele>172.66666666666666</ele><time>2026-04-18T12:10:44.141Z</time></trkpt><trkpt lat="45.48387" lon="10.799885"><ele>174.33333333333331</ele><time>2026-04-18T12:10:45.152Z</time></trkpt><trkpt lat="45.4839717" lon="10.7996817"><ele>176.0</ele><time>2026-04-18T12:10:46.17Z</time></trkpt><trkpt lat="45.484095" lon="10.799495"><ele>172.33333333333331</ele><time>2026-04-18T12:10:47.157Z</time></trkpt><trkpt lat="45.4841917" lon="10.7992983"><ele>168.66666666666666</ele><time>2026-04-18T12:10:48.148Z</time></trkpt><trkpt lat="45.4843017" lon="10.799145"><ele>165.0</ele><time>2026-04-18T12:10:49.149Z</time></trkpt><trkpt lat="45.4843917" lon="10.79896"><ele>165.0</ele><time>2026-04-18T12:10:50.144Z</time></trkpt><trkpt lat="45.4844617" lon="10.79879"><ele>165.0</ele><time>2026-04-18T12:10:51.163Z</time></trkpt><trkpt lat="45.4845217" lon="10.7986033"><ele>165.0</ele><time>2026-04-18T12:10:52.149Z</time></trkpt><trkpt lat="45.4845833" lon="10.7983683"><ele>165.0</ele><time>2026-04-18T12:10:53.156Z</time></trkpt><trkpt lat="45.4846083" lon="10.7980917"><ele>165.0</ele><time>2026-04-18T12:10:54.148Z</time></trkpt><trkpt lat="45.4846267" lon="10.7978217"><ele>165.0</ele><time>2026-04-18T12:10:55.16Z</time></trkpt><trkpt lat="45.48462" lon="10.7975467"><ele>165.0</ele><time>2026-04-18T12:10:56.144Z</time></trkpt><trkpt lat="45.4846167" lon="10.797285"><ele>165.0</ele><time>2026-04-18T12:10:57.156Z</time></trkpt><trkpt lat="45.48463" lon="10.797035"><ele>165.0</ele><time>2026-04-18T12:10:58.144Z</time></trkpt><trkpt lat="45.48458" lon="10.7969067"><ele>161.33333333333334</ele><time>2026-04-18T12:10:59.153Z</time></trkpt><trkpt lat="45.4845717" lon="10.7966833"><ele>157.66666666666669</ele><time>2026-04-18T12:11:00.149Z</time></trkpt><trkpt lat="45.4845567" lon="10.7964633"><ele>154.0</ele><time>2026-04-18T12:11:01.16Z</time></trkpt><trkpt lat="45.48457" lon="10.7961733"><ele>155.33333333333334</ele><time>2026-04-18T12:11:02.145Z</time></trkpt><trkpt lat="45.4845767" lon="10.7959317"><ele>156.66666666666666</ele><time>2026-04-18T12:11:03.151Z</time></trkpt><trkpt lat="45.4846333" lon="10.795665"><ele>158.0</ele><time>2026-04-18T12:11:04.146Z</time></trkpt><trkpt lat="45.48467" lon="10.79543"><ele>158.0</ele><time>2026-04-18T12:11:05.147Z</time></trkpt><trkpt lat="45.48474" lon="10.79519"><ele>158.0</ele><time>2026-04-18T12:11:06.149Z</time></trkpt><trkpt lat="45.484855" lon="10.794935"><ele>158.0</ele><time>2026-04-18T12:11:07.151Z</time></trkpt><trkpt lat="45.484995" lon="10.794695"><ele>155.0</ele><time>2026-04-18T12:11:08.146Z</time></trkpt><trkpt lat="45.4851267" lon="10.7944767"><ele>152.0</ele><time>2026-04-18T12:11:09.153Z</time></trkpt><trkpt lat="45.485255" lon="10.7942533"><ele>149.0</ele><time>2026-04-18T12:11:10.149Z</time></trkpt><trkpt lat="45.4853933" lon="10.7940417"><ele>148.33333333333331</ele><time>2026-04-18T12:11:11.161Z</time></trkpt><trkpt lat="45.48551" lon="10.79385"><ele>147.66666666666666</ele><time>2026-04-18T12:11:12.142Z</time></trkpt><trkpt lat="45.4856383" lon="10.79368"><ele>147.0</ele><time>2026-04-18T12:11:13.145Z</time></trkpt><trkpt lat="45.48575" lon="10.793525"><ele>146.0</ele><time>2026-04-18T12:11:14.158Z</time></trkpt><trkpt lat="45.4859117" lon="10.79339"><ele>145.0</ele><time>2026-04-18T12:11:15.151Z</time></trkpt><trkpt lat="45.4860717" lon="10.79326"><ele>144.0</ele><time>2026-04-18T12:11:16.15Z</time></trkpt><trkpt lat="45.4862517" lon="10.793105"><ele>144.66666666666666</ele><time>2026-04-18T12:11:17.145Z</time></trkpt><trkpt lat="45.486435" lon="10.79298"><ele>145.33333333333331</ele><time>2026-04-18T12:11:18.147Z</time></trkpt><trkpt lat="45.48664" lon="10.7928417"><ele>146.0</ele><time>2026-04-18T12:11:19.155Z</time></trkpt><trkpt lat="45.4868383" lon="10.792675"><ele>144.5</ele><time>2026-04-18T12:11:20.146Z</time></trkpt><trkpt lat="45.48704" lon="10.7925383"><ele>143.0</ele><time>2026-04-18T12:11:21.159Z</time></trkpt><trkpt lat="45.48725" lon="10.792405"><ele>143.0</ele><time>2026-04-18T12:11:22.142Z</time></trkpt><trkpt lat="45.4874167" lon="10.79229"><ele>143.0</ele><time>2026-04-18T12:11:23.178Z</time></trkpt><trkpt lat="45.4875717" lon="10.79216"><ele>143.0</ele><time>2026-04-18T12:11:24.143Z</time></trkpt><trkpt lat="45.4877167" lon="10.7920033"><ele>142.66666666666666</ele><time>2026-04-18T12:11:25.153Z</time></trkpt><trkpt lat="45.4878583" lon="10.791825"><ele>142.33333333333334</ele><time>2026-04-18T12:11:26.149Z</time></trkpt><trkpt lat="45.48796" lon="10.7915983"><ele>142.0</ele><time>2026-04-18T12:11:27.165Z</time></trkpt><trkpt lat="45.488055" lon="10.7913667"><ele>142.0</ele><time>2026-04-18T12:11:28.145Z</time></trkpt><trkpt lat="45.4881267" lon="10.7911033"><ele>142.0</ele><time>2026-04-18T12:11:29.157Z</time></trkpt><trkpt lat="45.48818" lon="10.7908383"><ele>142.0</ele><time>2026-04-18T12:11:30.146Z</time></trkpt><trkpt lat="45.4881767" lon="10.790565"><ele>141.66666666666669</ele><time>2026-04-18T12:11:31.145Z</time></trkpt><trkpt lat="45.4881733" lon="10.7902933"><ele>141.33333333333334</ele><time>2026-04-18T12:11:32.145Z</time></trkpt><trkpt lat="45.4881467" lon="10.7900067"><ele>141.0</ele><time>2026-04-18T12:11:33.154Z</time></trkpt><trkpt lat="45.4881583" lon="10.7897317"><ele>142.0</ele><time>2026-04-18T12:11:34.152Z</time></trkpt><trkpt lat="45.4881483" lon="10.78948"><ele>143.0</ele><time>2026-04-18T12:11:35.164Z</time></trkpt><trkpt lat="45.4881383" lon="10.7892117"><ele>144.0</ele><time>2026-04-18T12:11:36.148Z</time></trkpt><trkpt lat="45.48813" lon="10.7889417"><ele>145.33333333333334</ele><time>2026-04-18T12:11:37.144Z</time></trkpt><trkpt lat="45.48812" lon="10.78868"><ele>146.66666666666669</ele><time>2026-04-18T12:11:38.16Z</time></trkpt><trkpt lat="45.48812" lon="10.7884017"><ele>148.0</ele><time>2026-04-18T12:11:39.151Z</time></trkpt><trkpt lat="45.4881217" lon="10.7880967"><ele>149.66666666666669</ele><time>2026-04-18T12:11:40.147Z</time></trkpt><trkpt lat="45.4881333" lon="10.787795"><ele>151.33333333333334</ele><time>2026-04-18T12:11:41.156Z</time></trkpt><trkpt lat="45.4881433" lon="10.7874817"><ele>153.0</ele><time>2026-04-18T12:11:42.157Z</time></trkpt><trkpt lat="45.4881517" lon="10.7871617"><ele>152.0</ele><time>2026-04-18T12:11:43.159Z</time></trkpt><trkpt lat="45.4881617" lon="10.7868333"><ele>151.0</ele><time>2026-04-18T12:11:44.148Z</time></trkpt><trkpt lat="45.4881633" lon="10.7865017"><ele>151.0</ele><time>2026-04-18T12:11:45.16Z</time></trkpt><trkpt lat="45.4881483" lon="10.786185"><ele>151.0</ele><time>2026-04-18T12:11:46.146Z</time></trkpt><trkpt lat="45.4881267" lon="10.78589"><ele>151.0</ele><time>2026-04-18T12:11:47.146Z</time></trkpt><trkpt lat="45.4880333" lon="10.78557"><ele>147.5</ele><time>2026-04-18T12:11:48.15Z</time></trkpt><trkpt lat="45.48791" lon="10.78527"><ele>144.0</ele><time>2026-04-18T12:11:49.155Z</time></trkpt><trkpt lat="45.4878133" lon="10.784985"><ele>142.33333333333334</ele><time>2026-04-18T12:11:50.149Z</time></trkpt><trkpt lat="45.48774" lon="10.78472"><ele>140.66666666666669</ele><time>2026-04-18T12:11:51.159Z</time></trkpt><trkpt lat="45.487645" lon="10.7844483"><ele>139.0</ele><time>2026-04-18T12:11:52.157Z</time></trkpt><trkpt lat="45.487565" lon="10.784215"><ele>137.33333333333334</ele><time>2026-04-18T12:11:53.151Z</time></trkpt><trkpt lat="45.487515" lon="10.7839367"><ele>135.66666666666666</ele><time>2026-04-18T12:11:54.15Z</time></trkpt><trkpt lat="45.487485" lon="10.7836283"><ele>134.0</ele><time>2026-04-18T12:11:55.155Z</time></trkpt><trkpt lat="45.4874967" lon="10.7833317"><ele>133.33333333333331</ele><time>2026-04-18T12:11:56.142Z</time></trkpt><trkpt lat="45.4875283" lon="10.78303"><ele>132.66666666666666</ele><time>2026-04-18T12:11:57.151Z</time></trkpt><trkpt lat="45.487525" lon="10.7827333"><ele>132.0</ele><time>2026-04-18T12:11:58.148Z</time></trkpt><trkpt lat="45.487505" lon="10.7824567"><ele>132.0</ele><time>2026-04-18T12:11:59.162Z</time></trkpt><trkpt lat="45.4874883" lon="10.7821717"><ele>132.0</ele><time>2026-04-18T12:12:00.144Z</time></trkpt><trkpt lat="45.4874733" lon="10.7818783"><ele>132.0</ele><time>2026-04-18T12:12:01.15Z</time></trkpt><trkpt lat="45.4874633" lon="10.7815967"><ele>132.0</ele><time>2026-04-18T12:12:02.145Z</time></trkpt><trkpt lat="45.4874567" lon="10.781325"><ele>132.0</ele><time>2026-04-18T12:12:03.15Z</time></trkpt><trkpt lat="45.4874617" lon="10.78107"><ele>132.0</ele><time>2026-04-18T12:12:04.14Z</time></trkpt><trkpt lat="45.48745" lon="10.7808033"><ele>132.0</ele><time>2026-04-18T12:12:05.144Z</time></trkpt><trkpt lat="45.4874567" lon="10.7805133"><ele>132.0</ele><time>2026-04-18T12:12:06.141Z</time></trkpt><trkpt lat="45.48744" lon="10.780245"><ele>132.0</ele><time>2026-04-18T12:12:07.141Z</time></trkpt><trkpt lat="45.4874317" lon="10.779985"><ele>132.33333333333334</ele><time>2026-04-18T12:12:08.147Z</time></trkpt><trkpt lat="45.487425" lon="10.7797333"><ele>132.66666666666669</ele><time>2026-04-18T12:12:09.153Z</time></trkpt><trkpt lat="45.4874367" lon="10.7795"><ele>133.0</ele><time>2026-04-18T12:12:10.147Z</time></trkpt><trkpt lat="45.4874383" lon="10.779245"><ele>133.0</ele><time>2026-04-18T12:12:11.151Z</time></trkpt><trkpt lat="45.48744" lon="10.7789933"><ele>133.0</ele><time>2026-04-18T12:12:12.139Z</time></trkpt><trkpt lat="45.4874433" lon="10.778735"><ele>133.0</ele><time>2026-04-18T12:12:13.145Z</time></trkpt><trkpt lat="45.4874383" lon="10.7784983"><ele>133.0</ele><time>2026-04-18T12:12:14.146Z</time></trkpt><trkpt lat="45.4874167" lon="10.778225"><ele>133.0</ele><time>2026-04-18T12:12:15.146Z</time></trkpt><trkpt lat="45.4874183" lon="10.7779583"><ele>133.0</ele><time>2026-04-18T12:12:16.151Z</time></trkpt><trkpt lat="45.4874233" lon="10.777725"><ele>133.0</ele><time>2026-04-18T12:12:17.164Z</time></trkpt><trkpt lat="45.4874167" lon="10.7774783"><ele>133.0</ele><time>2026-04-18T12:12:18.15Z</time></trkpt><trkpt lat="45.4874233" lon="10.7772433"><ele>133.0</ele><time>2026-04-18T12:12:19.146Z</time></trkpt><trkpt lat="45.4874183" lon="10.7770067"><ele>134.33333333333334</ele><time>2026-04-18T12:12:20.147Z</time></trkpt><trkpt lat="45.48741" lon="10.7767717"><ele>135.66666666666666</ele><time>2026-04-18T12:12:21.145Z</time></trkpt><trkpt lat="45.4874183" lon="10.776535"><ele>137.0</ele><time>2026-04-18T12:12:22.141Z</time></trkpt><trkpt lat="45.48743" lon="10.7762933"><ele>137.0</ele><time>2026-04-18T12:12:23.177Z</time></trkpt><trkpt lat="45.4874267" lon="10.776045"><ele>137.0</ele><time>2026-04-18T12:12:24.149Z</time></trkpt><trkpt lat="45.4874283" lon="10.775805"><ele>137.0</ele><time>2026-04-18T12:12:25.152Z</time></trkpt><trkpt lat="45.48744" lon="10.7755733"><ele>137.0</ele><time>2026-04-18T12:12:26.162Z</time></trkpt><trkpt lat="45.4874567" lon="10.7753583"><ele>137.0</ele><time>2026-04-18T12:12:27.144Z</time></trkpt><trkpt lat="45.4874917" lon="10.7751433"><ele>137.0</ele><time>2026-04-18T12:12:28.147Z</time></trkpt><trkpt lat="45.4875217" lon="10.7749467"><ele>137.0</ele><time>2026-04-18T12:12:29.149Z</time></trkpt><trkpt lat="45.487555" lon="10.7747317"><ele>137.0</ele><time>2026-04-18T12:12:30.151Z</time></trkpt><trkpt lat="45.4876" lon="10.7745117"><ele>137.0</ele><time>2026-04-18T12:12:31.154Z</time></trkpt><trkpt lat="45.4876683" lon="10.7742933"><ele>137.0</ele><time>2026-04-18T12:12:32.145Z</time></trkpt><trkpt lat="45.4877383" lon="10.7740867"><ele>137.0</ele><time>2026-04-18T12:12:33.157Z</time></trkpt><trkpt lat="45.4878083" lon="10.77383"><ele>137.0</ele><time>2026-04-18T12:12:34.142Z</time></trkpt><trkpt lat="45.4878817" lon="10.773555"><ele>137.0</ele><time>2026-04-18T12:12:35.149Z</time></trkpt><trkpt lat="45.48796" lon="10.773275"><ele>137.0</ele><time>2026-04-18T12:12:36.151Z</time></trkpt><trkpt lat="45.4880367" lon="10.772995"><ele>137.0</ele><time>2026-04-18T12:12:37.153Z</time></trkpt><trkpt lat="45.488105" lon="10.772735"><ele>137.0</ele><time>2026-04-18T12:12:38.144Z</time></trkpt><trkpt lat="45.4881617" lon="10.77251"><ele>136.75</ele><time>2026-04-18T12:12:39.146Z</time></trkpt><trkpt lat="45.4882133" lon="10.772315"><ele>136.5</ele><time>2026-04-18T12:12:40.142Z</time></trkpt><trkpt lat="45.4882567" lon="10.772135"><ele>136.25</ele><time>2026-04-18T12:12:41.146Z</time></trkpt><trkpt lat="45.4882967" lon="10.771975"><ele>136.0</ele><time>2026-04-18T12:12:42.153Z</time></trkpt><trkpt lat="45.488335" lon="10.7718383"><ele>136.0</ele><time>2026-04-18T12:12:43.173Z</time></trkpt><trkpt lat="45.488375" lon="10.7717283"><ele>136.0</ele><time>2026-04-18T12:12:44.147Z</time></trkpt><trkpt lat="45.4884233" lon="10.771645"><ele>136.0</ele><time>2026-04-18T12:12:45.156Z</time></trkpt><trkpt lat="45.4884783" lon="10.77157"><ele>136.0</ele><time>2026-04-18T12:12:46.168Z</time></trkpt><trkpt lat="45.4885267" lon="10.7714867"><ele>136.0</ele><time>2026-04-18T12:12:47.156Z</time></trkpt><trkpt lat="45.48856" lon="10.7713933"><ele>136.0</ele><time>2026-04-18T12:12:48.155Z</time></trkpt><trkpt lat="45.48858" lon="10.7712983"><ele>136.0</ele><time>2026-04-18T12:12:49.165Z</time></trkpt><trkpt lat="45.48857" lon="10.771175"><ele>136.0</ele><time>2026-04-18T12:12:50.146Z</time></trkpt><trkpt lat="45.4885733" lon="10.7710467"><ele>136.0</ele><time>2026-04-18T12:12:51.148Z</time></trkpt><trkpt lat="45.4885983" lon="10.7709033"><ele>136.0</ele><time>2026-04-18T12:12:52.145Z</time></trkpt><trkpt lat="45.48864" lon="10.7707317"><ele>136.0</ele><time>2026-04-18T12:12:53.147Z</time></trkpt><trkpt lat="45.4886817" lon="10.770545"><ele>136.0</ele><time>2026-04-18T12:12:54.162Z</time></trkpt><trkpt lat="45.4887233" lon="10.7703517"><ele>136.0</ele><time>2026-04-18T12:12:55.164Z</time></trkpt><trkpt lat="45.4887617" lon="10.7701283"><ele>136.0</ele><time>2026-04-18T12:12:56.146Z</time></trkpt><trkpt lat="45.4888133" lon="10.769895"><ele>136.0</ele><time>2026-04-18T12:12:57.147Z</time></trkpt><trkpt lat="45.4888883" lon="10.7696717"><ele>136.0</ele><time>2026-04-18T12:12:58.142Z</time></trkpt><trkpt lat="45.48896" lon="10.7694533"><ele>136.0</ele><time>2026-04-18T12:12:59.161Z</time></trkpt><trkpt lat="45.4890417" lon="10.7692317"><ele>135.33333333333334</ele><time>2026-04-18T12:13:00.142Z</time></trkpt><trkpt lat="45.48914" lon="10.769005"><ele>134.66666666666666</ele><time>2026-04-18T12:13:01.149Z</time></trkpt><trkpt lat="45.4892183" lon="10.7687633"><ele>134.0</ele><time>2026-04-18T12:13:02.152Z</time></trkpt><trkpt lat="45.4893117" lon="10.7685417"><ele>134.0</ele><time>2026-04-18T12:13:03.142Z</time></trkpt><trkpt lat="45.48939" lon="10.7683067"><ele>134.0</ele><time>2026-04-18T12:13:04.142Z</time></trkpt><trkpt lat="45.48948" lon="10.7681083"><ele>134.0</ele><time>2026-04-18T12:13:05.146Z</time></trkpt><trkpt lat="45.489595" lon="10.767935"><ele>134.0</ele><time>2026-04-18T12:13:06.141Z</time></trkpt><trkpt lat="45.489705" lon="10.767735"><ele>134.0</ele><time>2026-04-18T12:13:07.155Z</time></trkpt><trkpt lat="45.4898" lon="10.7675417"><ele>134.0</ele><time>2026-04-18T12:13:08.147Z</time></trkpt><trkpt lat="45.48991" lon="10.7673317"><ele>133.33333333333331</ele><time>2026-04-18T12:13:09.169Z</time></trkpt><trkpt lat="45.4900167" lon="10.76712"><ele>132.66666666666666</ele><time>2026-04-18T12:13:10.142Z</time></trkpt><trkpt lat="45.4901217" lon="10.7669117"><ele>132.0</ele><time>2026-04-18T12:13:11.157Z</time></trkpt><trkpt lat="45.4902333" lon="10.76672"><ele>131.66666666666666</ele><time>2026-04-18T12:13:12.154Z</time></trkpt><trkpt lat="45.4903533" lon="10.76651"><ele>131.33333333333331</ele><time>2026-04-18T12:13:13.151Z</time></trkpt><trkpt lat="45.490475" lon="10.7663033"><ele>131.0</ele><time>2026-04-18T12:13:14.145Z</time></trkpt><trkpt lat="45.490585" lon="10.7661033"><ele>130.0</ele><time>2026-04-18T12:13:15.164Z</time></trkpt><trkpt lat="45.4906917" lon="10.7658933"><ele>129.0</ele><time>2026-04-18T12:13:16.142Z</time></trkpt><trkpt lat="45.49081" lon="10.76569"><ele>128.0</ele><time>2026-04-18T12:13:17.157Z</time></trkpt><trkpt lat="45.49092" lon="10.7654617"><ele>128.0</ele><time>2026-04-18T12:13:18.15Z</time></trkpt><trkpt lat="45.49103" lon="10.765225"><ele>128.0</ele><time>2026-04-18T12:13:19.146Z</time></trkpt><trkpt lat="45.4911583" lon="10.76497"><ele>128.0</ele><time>2026-04-18T12:13:20.144Z</time></trkpt><trkpt lat="45.491275" lon="10.76474"><ele>128.0</ele><time>2026-04-18T12:13:21.16Z</time></trkpt><trkpt lat="45.4913983" lon="10.764515"><ele>128.0</ele><time>2026-04-18T12:13:22.147Z</time></trkpt><trkpt lat="45.4915217" lon="10.764275"><ele>128.0</ele><time>2026-04-18T12:13:23.147Z</time></trkpt><trkpt lat="45.491675" lon="10.7640417"><ele>129.33333333333331</ele><time>2026-04-18T12:13:24.144Z</time></trkpt><trkpt lat="45.4918183" lon="10.7638417"><ele>130.66666666666666</ele><time>2026-04-18T12:13:25.153Z</time></trkpt><trkpt lat="45.4919417" lon="10.763635"><ele>132.0</ele><time>2026-04-18T12:13:26.15Z</time></trkpt><trkpt lat="45.4920683" lon="10.7634283"><ele>132.33333333333334</ele><time>2026-04-18T12:13:27.163Z</time></trkpt><trkpt lat="45.4921883" lon="10.763225"><ele>132.66666666666669</ele><time>2026-04-18T12:13:28.143Z</time></trkpt><trkpt lat="45.492285" lon="10.76304"><ele>133.0</ele><time>2026-04-18T12:13:29.147Z</time></trkpt><trkpt lat="45.4923767" lon="10.7628017"><ele>134.33333333333334</ele><time>2026-04-18T12:13:30.143Z</time></trkpt><trkpt lat="45.4924467" lon="10.7625667"><ele>135.66666666666666</ele><time>2026-04-18T12:13:31.174Z</time></trkpt><trkpt lat="45.4924933" lon="10.7623083"><ele>137.0</ele><time>2026-04-18T12:13:32.153Z</time></trkpt><trkpt lat="45.4925367" lon="10.7620417"><ele>137.66666666666666</ele><time>2026-04-18T12:13:33.144Z</time></trkpt><trkpt lat="45.4925483" lon="10.7617583"><ele>138.33333333333334</ele><time>2026-04-18T12:13:34.143Z</time></trkpt><trkpt lat="45.49255" lon="10.76148"><ele>139.0</ele><time>2026-04-18T12:13:35.149Z</time></trkpt><trkpt lat="45.4925367" lon="10.7612067"><ele>139.0</ele><time>2026-04-18T12:13:36.144Z</time></trkpt><trkpt lat="45.4925167" lon="10.7609367"><ele>139.0</ele><time>2026-04-18T12:13:37.157Z</time></trkpt><trkpt lat="45.4924683" lon="10.7606717"><ele>139.0</ele><time>2026-04-18T12:13:38.145Z</time></trkpt><trkpt lat="45.4924017" lon="10.76041"><ele>138.66666666666669</ele><time>2026-04-18T12:13:39.154Z</time></trkpt><trkpt lat="45.492335" lon="10.760135"><ele>138.33333333333334</ele><time>2026-04-18T12:13:40.149Z</time></trkpt><trkpt lat="45.4922333" lon="10.7599017"><ele>138.0</ele><time>2026-04-18T12:13:41.152Z</time></trkpt><trkpt lat="45.492145" lon="10.75967"><ele>137.66666666666666</ele><time>2026-04-18T12:13:42.143Z</time></trkpt><trkpt lat="45.49207" lon="10.759425"><ele>137.33333333333331</ele><time>2026-04-18T12:13:43.147Z</time></trkpt><trkpt lat="45.4920167" lon="10.7592167"><ele>137.0</ele><time>2026-04-18T12:13:44.146Z</time></trkpt><trkpt lat="45.4919867" lon="10.7589583"><ele>137.0</ele><time>2026-04-18T12:13:45.147Z</time></trkpt><trkpt lat="45.4919733" lon="10.75873"><ele>137.0</ele><time>2026-04-18T12:13:46.146Z</time></trkpt><trkpt lat="45.4919933" lon="10.758495"><ele>137.0</ele><time>2026-04-18T12:13:47.161Z</time></trkpt><trkpt lat="45.492" lon="10.758285"><ele>137.25</ele><time>2026-04-18T12:13:48.145Z</time></trkpt><trkpt lat="45.4920283" lon="10.75808"><ele>137.5</ele><time>2026-04-18T12:13:49.155Z</time></trkpt><trkpt lat="45.4920683" lon="10.7578833"><ele>137.75</ele><time>2026-04-18T12:13:50.163Z</time></trkpt><trkpt lat="45.492115" lon="10.7576833"><ele>138.0</ele><time>2026-04-18T12:13:51.149Z</time></trkpt><trkpt lat="45.492175" lon="10.7574867"><ele>138.0</ele><time>2026-04-18T12:13:52.147Z</time></trkpt><trkpt lat="45.492255" lon="10.7573167"><ele>138.0</ele><time>2026-04-18T12:13:53.156Z</time></trkpt><trkpt lat="45.49235" lon="10.7571617"><ele>138.0</ele><time>2026-04-18T12:13:54.148Z</time></trkpt><trkpt lat="45.4924283" lon="10.7570067"><ele>138.0</ele><time>2026-04-18T12:13:55.167Z</time></trkpt><trkpt lat="45.4925267" lon="10.7568617"><ele>136.0</ele><time>2026-04-18T12:13:56.148Z</time></trkpt><trkpt lat="45.492605" lon="10.756735"><ele>134.0</ele><time>2026-04-18T12:13:57.15Z</time></trkpt><trkpt lat="45.492695" lon="10.7566283"><ele>132.0</ele><time>2026-04-18T12:13:58.141Z</time></trkpt><trkpt lat="45.492765" lon="10.7565417"><ele>130.0</ele><time>2026-04-18T12:13:59.146Z</time></trkpt><trkpt lat="45.4928117" lon="10.7564617"><ele>128.0</ele><time>2026-04-18T12:14:00.16Z</time></trkpt><trkpt lat="45.4928033" lon="10.75633"><ele>127.99999999999999</ele><time>2026-04-18T12:14:02.144Z</time></trkpt><trkpt lat="45.4927583" lon="10.7562483"><ele>128.0</ele><time>2026-04-18T12:14:04.146Z</time></trkpt><trkpt lat="45.4927283" lon="10.7561467"><ele>128.0</ele><time>2026-04-18T12:14:07.148Z</time></trkpt><trkpt lat="45.4926883" lon="10.75625"><ele>128.0</ele><time>2026-04-18T12:14:14.147Z</time></trkpt><trkpt lat="45.4926683" lon="10.756345"><ele>127.99999999999999</ele><time>2026-04-18T12:14:16.151Z</time></trkpt><trkpt lat="45.4926067" lon="10.756425"><ele>128.0</ele><time>2026-04-18T12:14:19.17Z</time></trkpt><trkpt lat="45.4925317" lon="10.7564667"><ele>128.0</ele><time>2026-04-18T12:14:22.148Z</time></trkpt><trkpt lat="45.49241" lon="10.75645"><ele>128.0</ele><time>2026-04-18T12:21:00.165Z</time></trkpt><trkpt lat="45.4923533" lon="10.7563933"><ele>128.0</ele><time>2026-04-18T12:21:01.155Z</time></trkpt><trkpt lat="45.4922883" lon="10.75633"><ele>128.0</ele><time>2026-04-18T12:21:02.151Z</time></trkpt><trkpt lat="45.49221" lon="10.7562767"><ele>128.0</ele><time>2026-04-18T12:21:03.151Z</time></trkpt><trkpt lat="45.492115" lon="10.7562417"><ele>126.0</ele><time>2026-04-18T12:21:04.149Z</time></trkpt><trkpt lat="45.492025" lon="10.7562167"><ele>124.00000000000001</ele><time>2026-04-18T12:21:05.164Z</time></trkpt><trkpt lat="45.4919383" lon="10.7561867"><ele>122.00000000000001</ele><time>2026-04-18T12:21:06.146Z</time></trkpt><trkpt lat="45.4918517" lon="10.756145"><ele>120.0</ele><time>2026-04-18T12:21:07.148Z</time></trkpt><trkpt lat="45.49176" lon="10.7560983"><ele>118.0</ele><time>2026-04-18T12:21:08.153Z</time></trkpt><trkpt lat="45.49167" lon="10.7560383"><ele>118.4</ele><time>2026-04-18T12:21:09.155Z</time></trkpt><trkpt lat="45.4915867" lon="10.755955"><ele>118.80000000000001</ele><time>2026-04-18T12:21:10.151Z</time></trkpt><trkpt lat="45.491505" lon="10.7558617"><ele>119.2</ele><time>2026-04-18T12:21:11.149Z</time></trkpt><trkpt lat="45.49142" lon="10.7557717"><ele>119.6</ele><time>2026-04-18T12:21:12.157Z</time></trkpt><trkpt lat="45.4913383" lon="10.7556817"><ele>120.0</ele><time>2026-04-18T12:21:13.152Z</time></trkpt><trkpt lat="45.4912583" lon="10.75559"><ele>117.6</ele><time>2026-04-18T12:21:14.147Z</time></trkpt><trkpt lat="45.4911783" lon="10.7555017"><ele>115.2</ele><time>2026-04-18T12:21:15.155Z</time></trkpt><trkpt lat="45.4910983" lon="10.7554267"><ele>112.80000000000001</ele><time>2026-04-18T12:21:16.149Z</time></trkpt><trkpt lat="45.491015" lon="10.7553533"><ele>110.4</ele><time>2026-04-18T12:21:17.145Z</time></trkpt><trkpt lat="45.4909333" lon="10.7552833"><ele>108.0</ele><time>2026-04-18T12:21:18.159Z</time></trkpt><trkpt lat="45.490855" lon="10.7552167"><ele>108.0</ele><time>2026-04-18T12:21:19.159Z</time></trkpt><trkpt lat="45.4907833" lon="10.75515"><ele>108.0</ele><time>2026-04-18T12:21:20.153Z</time></trkpt><trkpt lat="45.4907217" lon="10.7550817"><ele>108.0</ele><time>2026-04-18T12:21:21.156Z</time></trkpt><trkpt lat="45.4906717" lon="10.7550067"><ele>108.0</ele><time>2026-04-18T12:21:22.154Z</time></trkpt><trkpt lat="45.4906317" lon="10.7549333"><ele>108.0</ele><time>2026-04-18T12:21:23.163Z</time></trkpt><trkpt lat="45.4906" lon="10.754855"><ele>108.0</ele><time>2026-04-18T12:21:24.159Z</time></trkpt><trkpt lat="45.4905517" lon="10.7547167"><ele>108.0</ele><time>2026-04-18T12:21:26.143Z</time></trkpt><trkpt lat="45.4906267" lon="10.7546083"><ele>108.00000000000001</ele><time>2026-04-18T12:21:43.154Z</time></trkpt><trkpt lat="45.4907383" lon="10.7546117"><ele>108.00000000000001</ele><time>2026-04-18T12:21:45.153Z</time></trkpt><trkpt lat="45.49081" lon="10.7546167"><ele>108.0</ele><time>2026-04-18T12:21:46.148Z</time></trkpt><trkpt lat="45.490905" lon="10.7546317"><ele>108.0</ele><time>2026-04-18T12:21:47.153Z</time></trkpt><trkpt lat="45.4909833" lon="10.7546383"><ele>108.0</ele><time>2026-04-18T12:21:48.146Z</time></trkpt><trkpt lat="45.491055" lon="10.7546517"><ele>108.0</ele><time>2026-04-18T12:21:49.155Z</time></trkpt><trkpt lat="45.4911417" lon="10.75467"><ele>108.0</ele><time>2026-04-18T12:21:50.167Z</time></trkpt><trkpt lat="45.4912317" lon="10.75469"><ele>108.0</ele><time>2026-04-18T12:21:51.144Z</time></trkpt><trkpt lat="45.4913267" lon="10.7546933"><ele>108.0</ele><time>2026-04-18T12:21:52.154Z</time></trkpt><trkpt lat="45.491425" lon="10.7546867"><ele>108.0</ele><time>2026-04-18T12:21:53.159Z</time></trkpt><trkpt lat="45.491525" lon="10.7546683"><ele>108.80000000000001</ele><time>2026-04-18T12:21:54.161Z</time></trkpt><trkpt lat="45.4916183" lon="10.75465"><ele>109.60000000000001</ele><time>2026-04-18T12:21:55.142Z</time></trkpt><trkpt lat="45.4917117" lon="10.7546333"><ele>110.39999999999999</ele><time>2026-04-18T12:21:56.152Z</time></trkpt><trkpt lat="45.4918067" lon="10.7546067"><ele>111.19999999999999</ele><time>2026-04-18T12:21:57.142Z</time></trkpt><trkpt lat="45.491905" lon="10.7545783"><ele>112.0</ele><time>2026-04-18T12:21:58.144Z</time></trkpt><trkpt lat="45.4920083" lon="10.7545467"><ele>112.6</ele><time>2026-04-18T12:21:59.157Z</time></trkpt><trkpt lat="45.4921083" lon="10.7545067"><ele>113.19999999999999</ele><time>2026-04-18T12:22:00.149Z</time></trkpt><trkpt lat="45.4922" lon="10.7544617"><ele>113.8</ele><time>2026-04-18T12:22:01.154Z</time></trkpt><trkpt lat="45.49229" lon="10.7544217"><ele>114.4</ele><time>2026-04-18T12:22:02.146Z</time></trkpt><trkpt lat="45.4923783" lon="10.75438"><ele>115.0</ele><time>2026-04-18T12:22:03.151Z</time></trkpt><trkpt lat="45.4924633" lon="10.7543467"><ele>115.00000000000001</ele><time>2026-04-18T12:22:04.146Z</time></trkpt><trkpt lat="45.4925467" lon="10.75433"><ele>115.0</ele><time>2026-04-18T12:22:05.15Z</time></trkpt><trkpt lat="45.492625" lon="10.7543217"><ele>115.0</ele><time>2026-04-18T12:22:06.159Z</time></trkpt><trkpt lat="45.4926983" lon="10.7543167"><ele>115.0</ele><time>2026-04-18T12:22:07.149Z</time></trkpt><trkpt lat="45.4927733" lon="10.7543333"><ele>115.00000000000001</ele><time>2026-04-18T12:22:08.143Z</time></trkpt><trkpt lat="45.492845" lon="10.7543583"><ele>115.0</ele><time>2026-04-18T12:22:09.147Z</time></trkpt><trkpt lat="45.4929083" lon="10.754375"><ele>113.2</ele><time>2026-04-18T12:22:10.151Z</time></trkpt><trkpt lat="45.4930217" lon="10.7544167"><ele>111.4</ele><time>2026-04-18T12:22:12.153Z</time></trkpt><trkpt lat="45.4931133" lon="10.7544583"><ele>109.6</ele><time>2026-04-18T12:22:14.149Z</time></trkpt><trkpt lat="45.4932" lon="10.754485"><ele>107.8</ele><time>2026-04-18T12:22:16.148Z</time></trkpt><trkpt lat="45.4933133" lon="10.7545067"><ele>106.0</ele><time>2026-04-18T12:22:18.147Z</time></trkpt><trkpt lat="45.493415" lon="10.7545267"><ele>106.0</ele><time>2026-04-18T12:22:20.143Z</time></trkpt><trkpt lat="45.4935267" lon="10.7545467"><ele>106.0</ele><time>2026-04-18T12:22:22.147Z</time></trkpt><trkpt lat="45.4936233" lon="10.7545283"><ele>106.0</ele><time>2026-04-18T12:22:24.15Z</time></trkpt><trkpt lat="45.49372" lon="10.7544417"><ele>106.0</ele><time>2026-04-18T12:22:26.151Z</time></trkpt><trkpt lat="45.4937767" lon="10.7543783"><ele>106.0</ele><time>2026-04-18T12:22:27.148Z</time></trkpt><trkpt lat="45.493825" lon="10.754305"><ele>105.33333333333334</ele><time>2026-04-18T12:22:28.15Z</time></trkpt><trkpt lat="45.4938717" lon="10.75422"><ele>104.66666666666667</ele><time>2026-04-18T12:22:29.154Z</time></trkpt><trkpt lat="45.4939117" lon="10.7541283"><ele>104.0</ele><time>2026-04-18T12:22:30.146Z</time></trkpt><trkpt lat="45.49397" lon="10.7540217"><ele>103.33333333333334</ele><time>2026-04-18T12:22:31.146Z</time></trkpt><trkpt lat="45.494035" lon="10.7539167"><ele>102.66666666666667</ele><time>2026-04-18T12:22:32.152Z</time></trkpt><trkpt lat="45.494095" lon="10.75381"><ele>102.0</ele><time>2026-04-18T12:22:33.142Z</time></trkpt><trkpt lat="45.4941633" lon="10.7537067"><ele>102.0</ele><time>2026-04-18T12:22:34.147Z</time></trkpt><trkpt lat="45.4942367" lon="10.7536117"><ele>102.0</ele><time>2026-04-18T12:22:35.152Z</time></trkpt><trkpt lat="45.49432" lon="10.75353"><ele>102.0</ele><time>2026-04-18T12:22:36.146Z</time></trkpt><trkpt lat="45.49441" lon="10.7534633"><ele>102.0</ele><time>2026-04-18T12:22:37.152Z</time></trkpt><trkpt lat="45.494505" lon="10.7534017"><ele>102.0</ele><time>2026-04-18T12:22:38.158Z</time></trkpt><trkpt lat="45.4946017" lon="10.753345"><ele>102.0</ele><time>2026-04-18T12:22:39.156Z</time></trkpt><trkpt lat="45.4947" lon="10.7532917"><ele>102.0</ele><time>2026-04-18T12:22:40.142Z</time></trkpt><trkpt lat="45.4948067" lon="10.75324"><ele>102.0</ele><time>2026-04-18T12:22:41.157Z</time></trkpt><trkpt lat="45.4949133" lon="10.753185"><ele>102.0</ele><time>2026-04-18T12:22:42.154Z</time></trkpt><trkpt lat="45.4950267" lon="10.7531217"><ele>102.0</ele><time>2026-04-18T12:22:43.144Z</time></trkpt><trkpt lat="45.495145" lon="10.753065"><ele>102.0</ele><time>2026-04-18T12:22:44.15Z</time></trkpt><trkpt lat="45.4952667" lon="10.7530167"><ele>102.0</ele><time>2026-04-18T12:22:45.156Z</time></trkpt><trkpt lat="45.4953867" lon="10.752975"><ele>102.0</ele><time>2026-04-18T12:22:46.142Z</time></trkpt><trkpt lat="45.4955033" lon="10.7529367"><ele>102.75</ele><time>2026-04-18T12:22:47.151Z</time></trkpt><trkpt lat="45.4956217" lon="10.7529"><ele>103.5</ele><time>2026-04-18T12:22:48.158Z</time></trkpt><trkpt lat="45.495735" lon="10.7528667"><ele>104.25</ele><time>2026-04-18T12:22:49.142Z</time></trkpt><trkpt lat="45.4958483" lon="10.7528367"><ele>105.0</ele><time>2026-04-18T12:22:50.149Z</time></trkpt><trkpt lat="45.495965" lon="10.7527983"><ele>105.0</ele><time>2026-04-18T12:22:51.159Z</time></trkpt><trkpt lat="45.4960833" lon="10.7527667"><ele>105.0</ele><time>2026-04-18T12:22:52.146Z</time></trkpt><trkpt lat="45.4961983" lon="10.7527433"><ele>105.0</ele><time>2026-04-18T12:22:53.146Z</time></trkpt><trkpt lat="45.4963083" lon="10.7527267"><ele>105.0</ele><time>2026-04-18T12:22:54.154Z</time></trkpt><trkpt lat="45.49641" lon="10.7527167"><ele>105.0</ele><time>2026-04-18T12:22:55.15Z</time></trkpt><trkpt lat="45.4965133" lon="10.7527067"><ele>105.2</ele><time>2026-04-18T12:22:56.145Z</time></trkpt><trkpt lat="45.49661" lon="10.7527067"><ele>105.4</ele><time>2026-04-18T12:22:57.153Z</time></trkpt><trkpt lat="45.4967133" lon="10.75271"><ele>105.6</ele><time>2026-04-18T12:22:58.155Z</time></trkpt><trkpt lat="45.4968233" lon="10.7527167"><ele>105.8</ele><time>2026-04-18T12:22:59.143Z</time></trkpt><trkpt lat="45.496935" lon="10.7527217"><ele>106.0</ele><time>2026-04-18T12:23:00.162Z</time></trkpt><trkpt lat="45.49704" lon="10.7527183"><ele>106.19999999999999</ele><time>2026-04-18T12:23:01.142Z</time></trkpt><trkpt lat="45.49714" lon="10.7527117"><ele>106.39999999999999</ele><time>2026-04-18T12:23:02.156Z</time></trkpt><trkpt lat="45.4972267" lon="10.752705"><ele>106.6</ele><time>2026-04-18T12:23:03.151Z</time></trkpt><trkpt lat="45.4973" lon="10.7527033"><ele>106.8</ele><time>2026-04-18T12:23:04.145Z</time></trkpt><trkpt lat="45.497395" lon="10.7527033"><ele>107.0</ele><time>2026-04-18T12:23:06.149Z</time></trkpt><trkpt lat="45.4974433" lon="10.7525867"><ele>107.19999999999999</ele><time>2026-04-18T12:23:25.149Z</time></trkpt><trkpt lat="45.497445" lon="10.7523983"><ele>107.39999999999999</ele><time>2026-04-18T12:23:27.146Z</time></trkpt><trkpt lat="45.4974467" lon="10.752275"><ele>107.60000000000001</ele><time>2026-04-18T12:23:28.145Z</time></trkpt><trkpt lat="45.4974533" lon="10.7521333"><ele>107.80000000000001</ele><time>2026-04-18T12:23:29.144Z</time></trkpt><trkpt lat="45.49746" lon="10.7519783"><ele>108.0</ele><time>2026-04-18T12:23:30.152Z</time></trkpt><trkpt lat="45.49747" lon="10.75181"><ele>107.25</ele><time>2026-04-18T12:23:31.15Z</time></trkpt><trkpt lat="45.4974867" lon="10.7516367"><ele>106.5</ele><time>2026-04-18T12:23:32.153Z</time></trkpt><trkpt lat="45.497515" lon="10.7514567"><ele>105.75</ele><time>2026-04-18T12:23:33.142Z</time></trkpt><trkpt lat="45.4975617" lon="10.7512583"><ele>105.0</ele><time>2026-04-18T12:23:34.144Z</time></trkpt><trkpt lat="45.4976117" lon="10.7510583"><ele>104.75</ele><time>2026-04-18T12:23:35.153Z</time></trkpt><trkpt lat="45.4976667" lon="10.7508733"><ele>104.5</ele><time>2026-04-18T12:23:36.147Z</time></trkpt><trkpt lat="45.497735" lon="10.75071"><ele>104.25</ele><time>2026-04-18T12:23:37.147Z</time></trkpt><trkpt lat="45.497805" lon="10.7505617"><ele>104.0</ele><time>2026-04-18T12:23:38.149Z</time></trkpt><trkpt lat="45.4978717" lon="10.7504417"><ele>103.99999999999999</ele><time>2026-04-18T12:23:39.155Z</time></trkpt><trkpt lat="45.4979283" lon="10.7503583"><ele>104.0</ele><time>2026-04-18T12:23:40.147Z</time></trkpt><trkpt lat="45.4978867" lon="10.7502817"><ele>104.0</ele><time>2026-04-18T12:23:44.147Z</time></trkpt><trkpt lat="45.49779" lon="10.75035"><ele>104.0</ele><time>2026-04-18T12:23:46.143Z</time></trkpt><trkpt lat="45.4977167" lon="10.7504133"><ele>103.99999999999999</ele><time>2026-04-18T12:23:47.155Z</time></trkpt><trkpt lat="45.49763" lon="10.7505"><ele>104.0</ele><time>2026-04-18T12:23:48.154Z</time></trkpt><trkpt lat="45.4975483" lon="10.750575"><ele>103.99999999999999</ele><time>2026-04-18T12:23:49.15Z</time></trkpt><trkpt lat="45.4974633" lon="10.75065"><ele>104.0</ele><time>2026-04-18T12:23:50.145Z</time></trkpt><trkpt lat="45.4973817" lon="10.750725"><ele>104.0</ele><time>2026-04-18T12:23:51.156Z</time></trkpt><trkpt lat="45.497305" lon="10.7507933"><ele>104.0</ele><time>2026-04-18T12:23:52.159Z</time></trkpt><trkpt lat="45.4972367" lon="10.750845"><ele>103.99999999999999</ele><time>2026-04-18T12:23:53.14Z</time></trkpt><trkpt lat="45.4971717" lon="10.7508717"><ele>104.0</ele><time>2026-04-18T12:23:54.161Z</time></trkpt><trkpt lat="45.497075" lon="10.7508317"><ele>103.83333333333333</ele><time>2026-04-18T12:23:56.15Z</time></trkpt><trkpt lat="45.4970217" lon="10.7507667"><ele>103.66666666666666</ele><time>2026-04-18T12:23:57.148Z</time></trkpt><trkpt lat="45.4969617" lon="10.750705"><ele>103.5</ele><time>2026-04-18T12:23:58.165Z</time></trkpt><trkpt lat="45.4968933" lon="10.750655"><ele>103.33333333333334</ele><time>2026-04-18T12:23:59.154Z</time></trkpt><trkpt lat="45.4968167" lon="10.7506067"><ele>103.16666666666667</ele><time>2026-04-18T12:24:00.154Z</time></trkpt><trkpt lat="45.4967383" lon="10.7505733"><ele>103.0</ele><time>2026-04-18T12:24:01.157Z</time></trkpt><trkpt lat="45.4966567" lon="10.7505317"><ele>103.0</ele><time>2026-04-18T12:24:02.153Z</time></trkpt><trkpt lat="45.4965683" lon="10.7504983"><ele>103.0</ele><time>2026-04-18T12:24:03.146Z</time></trkpt><trkpt lat="45.4964783" lon="10.7504567"><ele>103.0</ele><time>2026-04-18T12:24:04.147Z</time></trkpt><trkpt lat="45.496385" lon="10.7504217"><ele>103.0</ele><time>2026-04-18T12:24:05.143Z</time></trkpt><trkpt lat="45.49629" lon="10.7503833"><ele>103.0</ele><time>2026-04-18T12:24:06.145Z</time></trkpt><trkpt lat="45.496185" lon="10.7503467"><ele>102.5</ele><time>2026-04-18T12:24:07.157Z</time></trkpt><trkpt lat="45.496075" lon="10.7503117"><ele>102.0</ele><time>2026-04-18T12:24:08.152Z</time></trkpt><trkpt lat="45.4959667" lon="10.7502617"><ele>101.5</ele><time>2026-04-18T12:24:09.145Z</time></trkpt><trkpt lat="45.4958583" lon="10.7502"><ele>101.0</ele><time>2026-04-18T12:24:10.147Z</time></trkpt><trkpt lat="45.4957417" lon="10.750145"><ele>102.5</ele><time>2026-04-18T12:24:11.148Z</time></trkpt><trkpt lat="45.4956233" lon="10.7500983"><ele>104.0</ele><time>2026-04-18T12:24:12.151Z</time></trkpt><trkpt lat="45.4955017" lon="10.7500783"><ele>105.5</ele><time>2026-04-18T12:24:13.147Z</time></trkpt><trkpt lat="45.4953933" lon="10.750065"><ele>107.0</ele><time>2026-04-18T12:24:14.155Z</time></trkpt><trkpt lat="45.4952967" lon="10.7500633"><ele>106.99999999999999</ele><time>2026-04-18T12:24:15.149Z</time></trkpt><trkpt lat="45.495215" lon="10.7500583"><ele>107.0</ele><time>2026-04-18T12:24:16.145Z</time></trkpt><trkpt lat="45.4951367" lon="10.7500433"><ele>107.0</ele><time>2026-04-18T12:24:17.153Z</time></trkpt><trkpt lat="45.49506" lon="10.7500167"><ele>107.0</ele><time>2026-04-18T12:24:18.139Z</time></trkpt><trkpt lat="45.4949833" lon="10.749975"><ele>106.99999999999999</ele><time>2026-04-18T12:24:19.144Z</time></trkpt><trkpt lat="45.4948983" lon="10.7499317"><ele>107.0</ele><time>2026-04-18T12:24:20.146Z</time></trkpt><trkpt lat="45.49481" lon="10.74989"><ele>107.0</ele><time>2026-04-18T12:24:21.149Z</time></trkpt><trkpt lat="45.4947217" lon="10.7498567"><ele>106.99999999999999</ele><time>2026-04-18T12:24:22.152Z</time></trkpt><trkpt lat="45.4946267" lon="10.7498317"><ele>106.99999999999999</ele><time>2026-04-18T12:24:23.149Z</time></trkpt><trkpt lat="45.49453" lon="10.7498117"><ele>107.0</ele><time>2026-04-18T12:24:24.158Z</time></trkpt><trkpt lat="45.49443" lon="10.74979"><ele>107.0</ele><time>2026-04-18T12:24:25.154Z</time></trkpt><trkpt lat="45.4943333" lon="10.74977"><ele>105.8</ele><time>2026-04-18T12:24:26.149Z</time></trkpt><trkpt lat="45.4942367" lon="10.7497467"><ele>104.6</ele><time>2026-04-18T12:24:27.149Z</time></trkpt><trkpt lat="45.494145" lon="10.7497267"><ele>103.39999999999999</ele><time>2026-04-18T12:24:28.144Z</time></trkpt><trkpt lat="45.494055" lon="10.7497083"><ele>102.19999999999999</ele><time>2026-04-18T12:24:29.142Z</time></trkpt><trkpt lat="45.4939667" lon="10.7496917"><ele>101.0</ele><time>2026-04-18T12:24:30.156Z</time></trkpt><trkpt lat="45.4938767" lon="10.749675"><ele>100.99999999999999</ele><time>2026-04-18T12:24:31.146Z</time></trkpt><trkpt lat="45.4937867" lon="10.7496633"><ele>101.0</ele><time>2026-04-18T12:24:32.155Z</time></trkpt><trkpt lat="45.493705" lon="10.7496617"><ele>101.0</ele><time>2026-04-18T12:24:33.148Z</time></trkpt><trkpt lat="45.4936233" lon="10.749665"><ele>101.0</ele><time>2026-04-18T12:24:34.147Z</time></trkpt><trkpt lat="45.4935383" lon="10.749665"><ele>100.99999999999999</ele><time>2026-04-18T12:24:35.146Z</time></trkpt><trkpt lat="45.49345" lon="10.7496633"><ele>101.0</ele><time>2026-04-18T12:24:36.149Z</time></trkpt><trkpt lat="45.4933617" lon="10.74965"><ele>100.99999999999999</ele><time>2026-04-18T12:24:37.141Z</time></trkpt><trkpt lat="45.4932717" lon="10.7496283"><ele>101.0</ele><time>2026-04-18T12:24:38.142Z</time></trkpt><trkpt lat="45.4931833" lon="10.7496"><ele>101.0</ele><time>2026-04-18T12:24:39.148Z</time></trkpt><trkpt lat="45.4931017" lon="10.7495783"><ele>101.0</ele><time>2026-04-18T12:24:40.145Z</time></trkpt><trkpt lat="45.4930317" lon="10.7495533"><ele>100.99999999999999</ele><time>2026-04-18T12:24:41.166Z</time></trkpt><trkpt lat="45.4929733" lon="10.7495117"><ele>101.0</ele><time>2026-04-18T12:24:42.144Z</time></trkpt><trkpt lat="45.492925" lon="10.7494533"><ele>101.66666666666666</ele><time>2026-04-18T12:24:43.156Z</time></trkpt><trkpt lat="45.4928917" lon="10.749375"><ele>102.33333333333333</ele><time>2026-04-18T12:24:44.153Z</time></trkpt><trkpt lat="45.4928683" lon="10.749285"><ele>103.0</ele><time>2026-04-18T12:24:45.158Z</time></trkpt><trkpt lat="45.4928633" lon="10.74919"><ele>103.66666666666666</ele><time>2026-04-18T12:24:46.155Z</time></trkpt><trkpt lat="45.4928533" lon="10.7490383"><ele>104.33333333333333</ele><time>2026-04-18T12:24:48.155Z</time></trkpt><trkpt lat="45.49278" lon="10.7489317"><ele>105.0</ele><time>2026-04-18T12:24:50.15Z</time></trkpt><trkpt lat="45.4927017" lon="10.7488983"><ele>105.0</ele><time>2026-04-18T12:24:51.148Z</time></trkpt><trkpt lat="45.4926117" lon="10.74886"><ele>105.0</ele><time>2026-04-18T12:24:52.15Z</time></trkpt><trkpt lat="45.4925183" lon="10.7488417"><ele>105.0</ele><time>2026-04-18T12:24:53.157Z</time></trkpt><trkpt lat="45.4924083" lon="10.748795"><ele>105.0</ele><time>2026-04-18T12:24:54.147Z</time></trkpt><trkpt lat="45.492305" lon="10.7487283"><ele>105.0</ele><time>2026-04-18T12:24:55.162Z</time></trkpt><trkpt lat="45.4922117" lon="10.748675"><ele>105.0</ele><time>2026-04-18T12:24:56.155Z</time></trkpt><trkpt lat="45.4921117" lon="10.7486283"><ele>105.0</ele><time>2026-04-18T12:24:57.147Z</time></trkpt><trkpt lat="45.492035" lon="10.7486"><ele>105.0</ele><time>2026-04-18T12:24:58.148Z</time></trkpt><trkpt lat="45.4919517" lon="10.7485533"><ele>105.0</ele><time>2026-04-18T12:25:00.154Z</time></trkpt><trkpt lat="45.49193" lon="10.7484683"><ele>105.0</ele><time>2026-04-18T12:25:02.188Z</time></trkpt><trkpt lat="45.4919083" lon="10.7483167"><ele>105.0</ele><time>2026-04-18T12:25:04.149Z</time></trkpt><trkpt lat="45.4919267" lon="10.7481517"><ele>105.5</ele><time>2026-04-18T12:25:06.159Z</time></trkpt><trkpt lat="45.491965" lon="10.7480117"><ele>106.0</ele><time>2026-04-18T12:25:08.146Z</time></trkpt><trkpt lat="45.4919517" lon="10.7479083"><ele>106.5</ele><time>2026-04-18T12:25:10.15Z</time></trkpt><trkpt lat="45.49185" lon="10.7478367"><ele>107.0</ele><time>2026-04-18T12:25:12.151Z</time></trkpt><trkpt lat="45.49178" lon="10.7477983"><ele>107.5</ele><time>2026-04-18T12:25:13.153Z</time></trkpt><trkpt lat="45.49171" lon="10.74775"><ele>108.0</ele><time>2026-04-18T12:25:14.155Z</time></trkpt><trkpt lat="45.4916333" lon="10.7477033"><ele>110.0</ele><time>2026-04-18T12:25:15.149Z</time></trkpt><trkpt lat="45.4915633" lon="10.7476617"><ele>112.0</ele><time>2026-04-18T12:25:16.146Z</time></trkpt><trkpt lat="45.4914983" lon="10.747575"><ele>114.0</ele><time>2026-04-18T12:25:18.155Z</time></trkpt><trkpt lat="45.4914983" lon="10.74747"><ele>116.0</ele><time>2026-04-18T12:25:20.143Z</time></trkpt><trkpt lat="45.4915433" lon="10.747355"><ele>118.0</ele><time>2026-04-18T12:25:22.15Z</time></trkpt><trkpt lat="45.4915883" lon="10.7472167"><ele>120.0</ele><time>2026-04-18T12:25:24.154Z</time></trkpt><trkpt lat="45.4916267" lon="10.7471017"><ele>120.0</ele><time>2026-04-18T12:25:26.152Z</time></trkpt><trkpt lat="45.4916617" lon="10.7469867"><ele>120.0</ele><time>2026-04-18T12:25:29.163Z</time></trkpt><trkpt lat="45.49159" lon="10.746875"><ele>120.0</ele><time>2026-04-18T12:25:32.153Z</time></trkpt><trkpt lat="45.4914617" lon="10.7467717"><ele>120.0</ele><time>2026-04-18T12:25:34.153Z</time></trkpt><trkpt lat="45.4913833" lon="10.746705"><ele>120.0</ele><time>2026-04-18T12:25:35.143Z</time></trkpt><trkpt lat="45.4913017" lon="10.7466317"><ele>120.0</ele><time>2026-04-18T12:25:36.148Z</time></trkpt><trkpt lat="45.49123" lon="10.746505"><ele>120.0</ele><time>2026-04-18T12:25:37.151Z</time></trkpt><trkpt lat="45.4911583" lon="10.7464167"><ele>120.0</ele><time>2026-04-18T12:25:38.153Z</time></trkpt><trkpt lat="45.491075" lon="10.7463383"><ele>120.0</ele><time>2026-04-18T12:25:39.14Z</time></trkpt><trkpt lat="45.49098" lon="10.746265"><ele>120.0</ele><time>2026-04-18T12:25:40.155Z</time></trkpt><trkpt lat="45.4908983" lon="10.7461933"><ele>120.0</ele><time>2026-04-18T12:25:41.148Z</time></trkpt><trkpt lat="45.49083" lon="10.746125"><ele>120.0</ele><time>2026-04-18T12:25:42.147Z</time></trkpt><trkpt lat="45.49075" lon="10.7460667"><ele>120.0</ele><time>2026-04-18T12:25:43.166Z</time></trkpt><trkpt lat="45.49067" lon="10.7460217"><ele>120.0</ele><time>2026-04-18T12:25:44.146Z</time></trkpt><trkpt lat="45.4905917" lon="10.7459683"><ele>120.0</ele><time>2026-04-18T12:25:45.15Z</time></trkpt><trkpt lat="45.4905083" lon="10.74592"><ele>120.0</ele><time>2026-04-18T12:25:46.175Z</time></trkpt><trkpt lat="45.4904167" lon="10.7458583"><ele>119.5</ele><time>2026-04-18T12:25:47.144Z</time></trkpt><trkpt lat="45.4903133" lon="10.74579"><ele>119.0</ele><time>2026-04-18T12:25:48.157Z</time></trkpt><trkpt lat="45.4902067" lon="10.7457117"><ele>118.5</ele><time>2026-04-18T12:25:49.145Z</time></trkpt><trkpt lat="45.490095" lon="10.745635"><ele>118.0</ele><time>2026-04-18T12:25:50.155Z</time></trkpt><trkpt lat="45.4899683" lon="10.7455567"><ele>118.0</ele><time>2026-04-18T12:25:51.159Z</time></trkpt><trkpt lat="45.489835" lon="10.7454583"><ele>118.0</ele><time>2026-04-18T12:25:52.163Z</time></trkpt><trkpt lat="45.4897067" lon="10.745395"><ele>118.0</ele><time>2026-04-18T12:25:53.155Z</time></trkpt><trkpt lat="45.4895867" lon="10.74531"><ele>118.0</ele><time>2026-04-18T12:25:54.152Z</time></trkpt><trkpt lat="45.4894667" lon="10.745245"><ele>116.75</ele><time>2026-04-18T12:25:55.146Z</time></trkpt><trkpt lat="45.4893517" lon="10.7451767"><ele>115.5</ele><time>2026-04-18T12:25:56.154Z</time></trkpt><trkpt lat="45.4892067" lon="10.745115"><ele>114.25</ele><time>2026-04-18T12:25:57.152Z</time></trkpt><trkpt lat="45.489075" lon="10.7450317"><ele>113.0</ele><time>2026-04-18T12:25:58.144Z</time></trkpt><trkpt lat="45.48895" lon="10.7449567"><ele>113.0</ele><time>2026-04-18T12:25:59.155Z</time></trkpt><trkpt lat="45.4888417" lon="10.7448883"><ele>113.00000000000001</ele><time>2026-04-18T12:26:00.147Z</time></trkpt><trkpt lat="45.4887567" lon="10.74483"><ele>113.00000000000001</ele><time>2026-04-18T12:26:01.148Z</time></trkpt><trkpt lat="45.4886583" lon="10.7447683"><ele>113.0</ele><time>2026-04-18T12:26:02.158Z</time></trkpt><trkpt lat="45.4885983" lon="10.7447233"><ele>113.0</ele><time>2026-04-18T12:26:03.153Z</time></trkpt><trkpt lat="45.488495" lon="10.74465"><ele>113.0</ele><time>2026-04-18T12:26:05.145Z</time></trkpt><trkpt lat="45.4884033" lon="10.744575"><ele>113.00000000000001</ele><time>2026-04-18T12:26:07.149Z</time></trkpt><trkpt lat="45.4882817" lon="10.7444817"><ele>113.00000000000001</ele><time>2026-04-18T12:26:09.16Z</time></trkpt><trkpt lat="45.4882033" lon="10.7444217"><ele>113.0</ele><time>2026-04-18T12:26:10.161Z</time></trkpt><trkpt lat="45.488115" lon="10.7443567"><ele>113.0</ele><time>2026-04-18T12:26:11.142Z</time></trkpt><trkpt lat="45.48799" lon="10.7442867"><ele>112.2</ele><time>2026-04-18T12:26:12.147Z</time></trkpt><trkpt lat="45.4878883" lon="10.744235"><ele>111.4</ele><time>2026-04-18T12:26:13.142Z</time></trkpt><trkpt lat="45.487785" lon="10.74417"><ele>110.60000000000001</ele><time>2026-04-18T12:26:14.161Z</time></trkpt><trkpt lat="45.4876633" lon="10.7440833"><ele>109.80000000000001</ele><time>2026-04-18T12:26:15.149Z</time></trkpt><trkpt lat="45.4876083" lon="10.744"><ele>109.0</ele><time>2026-04-18T12:26:16.158Z</time></trkpt><trkpt lat="45.4875333" lon="10.7438833"><ele>109.0</ele><time>2026-04-18T12:26:17.143Z</time></trkpt><trkpt lat="45.487465" lon="10.743765"><ele>109.0</ele><time>2026-04-18T12:26:18.15Z</time></trkpt><trkpt lat="45.4873967" lon="10.74365"><ele>109.0</ele><time>2026-04-18T12:26:19.153Z</time></trkpt><trkpt lat="45.487305" lon="10.7435367"><ele>109.0</ele><time>2026-04-18T12:26:20.142Z</time></trkpt><trkpt lat="45.4872033" lon="10.743395"><ele>108.75</ele><time>2026-04-18T12:26:21.152Z</time></trkpt><trkpt lat="45.48714" lon="10.7432767"><ele>108.5</ele><time>2026-04-18T12:26:22.156Z</time></trkpt><trkpt lat="45.4870517" lon="10.743135"><ele>108.25</ele><time>2026-04-18T12:26:23.146Z</time></trkpt><trkpt lat="45.4869417" lon="10.7429833"><ele>108.0</ele><time>2026-04-18T12:26:24.162Z</time></trkpt><trkpt lat="45.4868667" lon="10.742855"><ele>108.0</ele><time>2026-04-18T12:26:25.156Z</time></trkpt><trkpt lat="45.4867783" lon="10.7427283"><ele>108.0</ele><time>2026-04-18T12:26:26.16Z</time></trkpt><trkpt lat="45.4867083" lon="10.742625"><ele>108.0</ele><time>2026-04-18T12:26:27.152Z</time></trkpt><trkpt lat="45.4866617" lon="10.7425217"><ele>108.0</ele><time>2026-04-18T12:26:28.149Z</time></trkpt><trkpt lat="45.486535" lon="10.74244"><ele>107.66666666666667</ele><time>2026-04-18T12:26:29.151Z</time></trkpt><trkpt lat="45.4864867" lon="10.7423567"><ele>107.33333333333334</ele><time>2026-04-18T12:26:30.15Z</time></trkpt><trkpt lat="45.4864333" lon="10.7422867"><ele>107.0</ele><time>2026-04-18T12:26:31.149Z</time></trkpt><trkpt lat="45.48636" lon="10.7421833"><ele>106.66666666666667</ele><time>2026-04-18T12:26:33.141Z</time></trkpt><trkpt lat="45.4863167" lon="10.742115"><ele>106.33333333333334</ele><time>2026-04-18T12:26:35.152Z</time></trkpt><trkpt lat="45.486275" lon="10.7420117"><ele>106.0</ele><time>2026-04-18T12:26:42.156Z</time></trkpt><trkpt lat="45.4861983" lon="10.741885"><ele>108.75</ele><time>2026-04-18T12:26:43.144Z</time></trkpt><trkpt lat="45.486135" lon="10.741765"><ele>111.5</ele><time>2026-04-18T12:26:44.157Z</time></trkpt><trkpt lat="45.486085" lon="10.7416283"><ele>114.25</ele><time>2026-04-18T12:26:45.147Z</time></trkpt><trkpt lat="45.48602" lon="10.7414733"><ele>117.0</ele><time>2026-04-18T12:26:46.142Z</time></trkpt><trkpt lat="45.4859233" lon="10.741345"><ele>117.0</ele><time>2026-04-18T12:26:47.151Z</time></trkpt><trkpt lat="45.4858183" lon="10.7412067"><ele>117.0</ele><time>2026-04-18T12:26:48.151Z</time></trkpt><trkpt lat="45.4856683" lon="10.7410867"><ele>117.0</ele><time>2026-04-18T12:26:49.15Z</time></trkpt><trkpt lat="45.4855283" lon="10.74098"><ele>117.33333333333334</ele><time>2026-04-18T12:26:50.146Z</time></trkpt><trkpt lat="45.4853683" lon="10.74086"><ele>117.66666666666667</ele><time>2026-04-18T12:26:51.155Z</time></trkpt><trkpt lat="45.4852167" lon="10.7407517"><ele>118.0</ele><time>2026-04-18T12:26:52.157Z</time></trkpt><trkpt lat="45.4850533" lon="10.7406467"><ele>118.0</ele><time>2026-04-18T12:26:53.158Z</time></trkpt><trkpt lat="45.484895" lon="10.74052"><ele>118.0</ele><time>2026-04-18T12:26:54.149Z</time></trkpt><trkpt lat="45.4847333" lon="10.7403733"><ele>118.0</ele><time>2026-04-18T12:26:55.154Z</time></trkpt><trkpt lat="45.4845567" lon="10.74022"><ele>118.33333333333334</ele><time>2026-04-18T12:26:56.149Z</time></trkpt><trkpt lat="45.4844017" lon="10.7400267"><ele>118.66666666666666</ele><time>2026-04-18T12:26:57.144Z</time></trkpt><trkpt lat="45.4842667" lon="10.7398217"><ele>119.0</ele><time>2026-04-18T12:26:58.148Z</time></trkpt><trkpt lat="45.4841417" lon="10.7396217"><ele>119.0</ele><time>2026-04-18T12:26:59.144Z</time></trkpt><trkpt lat="45.4839933" lon="10.7394883"><ele>119.0</ele><time>2026-04-18T12:27:00.153Z</time></trkpt><trkpt lat="45.4838433" lon="10.7393467"><ele>119.0</ele><time>2026-04-18T12:27:01.143Z</time></trkpt><trkpt lat="45.4837083" lon="10.73919"><ele>119.33333333333333</ele><time>2026-04-18T12:27:02.143Z</time></trkpt><trkpt lat="45.48358" lon="10.7390217"><ele>119.66666666666666</ele><time>2026-04-18T12:27:03.149Z</time></trkpt><trkpt lat="45.4834233" lon="10.7388317"><ele>120.0</ele><time>2026-04-18T12:27:04.157Z</time></trkpt><trkpt lat="45.4832783" lon="10.7386433"><ele>120.0</ele><time>2026-04-18T12:27:05.169Z</time></trkpt><trkpt lat="45.4831333" lon="10.7384033"><ele>120.0</ele><time>2026-04-18T12:27:06.156Z</time></trkpt><trkpt lat="45.4830267" lon="10.7381617"><ele>120.0</ele><time>2026-04-18T12:27:07.15Z</time></trkpt><trkpt lat="45.4828767" lon="10.7379517"><ele>121.0</ele><time>2026-04-18T12:27:08.146Z</time></trkpt><trkpt lat="45.482725" lon="10.737705"><ele>122.0</ele><time>2026-04-18T12:27:09.145Z</time></trkpt><trkpt lat="45.482555" lon="10.73748"><ele>122.0</ele><time>2026-04-18T12:27:10.157Z</time></trkpt><trkpt lat="45.4823967" lon="10.7372567"><ele>122.0</ele><time>2026-04-18T12:27:11.146Z</time></trkpt><trkpt lat="45.482235" lon="10.737065"><ele>122.0</ele><time>2026-04-18T12:27:12.154Z</time></trkpt><trkpt lat="45.4820967" lon="10.7368567"><ele>120.66666666666666</ele><time>2026-04-18T12:27:13.152Z</time></trkpt><trkpt lat="45.4819783" lon="10.7366383"><ele>119.33333333333334</ele><time>2026-04-18T12:27:14.157Z</time></trkpt><trkpt lat="45.4818217" lon="10.7364333"><ele>118.0</ele><time>2026-04-18T12:27:15.15Z</time></trkpt><trkpt lat="45.4816617" lon="10.73626"><ele>118.0</ele><time>2026-04-18T12:27:16.148Z</time></trkpt><trkpt lat="45.4814783" lon="10.7360683"><ele>118.0</ele><time>2026-04-18T12:27:17.145Z</time></trkpt><trkpt lat="45.481295" lon="10.7358917"><ele>118.0</ele><time>2026-04-18T12:27:18.146Z</time></trkpt><trkpt lat="45.4811267" lon="10.7357283"><ele>116.66666666666667</ele><time>2026-04-18T12:27:19.149Z</time></trkpt><trkpt lat="45.4809633" lon="10.7355733"><ele>115.33333333333334</ele><time>2026-04-18T12:27:20.151Z</time></trkpt><trkpt lat="45.4808133" lon="10.7354333"><ele>114.0</ele><time>2026-04-18T12:27:21.139Z</time></trkpt><trkpt lat="45.48067" lon="10.73529"><ele>114.0</ele><time>2026-04-18T12:27:22.149Z</time></trkpt><trkpt lat="45.4805267" lon="10.73515"><ele>114.0</ele><time>2026-04-18T12:27:23.166Z</time></trkpt><trkpt lat="45.4803917" lon="10.73502"><ele>114.0</ele><time>2026-04-18T12:27:24.146Z</time></trkpt><trkpt lat="45.4802617" lon="10.73489"><ele>114.0</ele><time>2026-04-18T12:27:25.146Z</time></trkpt><trkpt lat="45.4801483" lon="10.7347717"><ele>114.0</ele><time>2026-04-18T12:27:26.147Z</time></trkpt><trkpt lat="45.4800283" lon="10.73464"><ele>114.0</ele><time>2026-04-18T12:27:27.159Z</time></trkpt><trkpt lat="45.479895" lon="10.7345317"><ele>114.0</ele><time>2026-04-18T12:27:28.146Z</time></trkpt><trkpt lat="45.4797717" lon="10.734395"><ele>113.33333333333334</ele><time>2026-04-18T12:27:29.155Z</time></trkpt><trkpt lat="45.47964" lon="10.7342733"><ele>112.66666666666667</ele><time>2026-04-18T12:27:30.144Z</time></trkpt><trkpt lat="45.4795017" lon="10.7341467"><ele>112.0</ele><time>2026-04-18T12:27:31.144Z</time></trkpt><trkpt lat="45.47937" lon="10.7340283"><ele>112.0</ele><time>2026-04-18T12:27:32.15Z</time></trkpt><trkpt lat="45.479255" lon="10.7338967"><ele>112.0</ele><time>2026-04-18T12:27:33.144Z</time></trkpt><trkpt lat="45.479125" lon="10.73378"><ele>112.0</ele><time>2026-04-18T12:27:34.146Z</time></trkpt><trkpt lat="45.47902" lon="10.733645"><ele>112.0</ele><time>2026-04-18T12:27:35.149Z</time></trkpt><trkpt lat="45.4789167" lon="10.733515"><ele>112.25</ele><time>2026-04-18T12:27:36.154Z</time></trkpt><trkpt lat="45.478815" lon="10.7333967"><ele>112.5</ele><time>2026-04-18T12:27:37.148Z</time></trkpt><trkpt lat="45.4787" lon="10.73328"><ele>112.75</ele><time>2026-04-18T12:27:38.153Z</time></trkpt><trkpt lat="45.4785467" lon="10.7331683"><ele>113.0</ele><time>2026-04-18T12:27:39.144Z</time></trkpt><trkpt lat="45.4784183" lon="10.73304"><ele>113.0</ele><time>2026-04-18T12:27:40.153Z</time></trkpt><trkpt lat="45.4783033" lon="10.73289"><ele>113.0</ele><time>2026-04-18T12:27:41.145Z</time></trkpt><trkpt lat="45.4781867" lon="10.7327583"><ele>113.0</ele><time>2026-04-18T12:27:42.148Z</time></trkpt><trkpt lat="45.4780633" lon="10.732635"><ele>113.0</ele><time>2026-04-18T12:27:43.145Z</time></trkpt><trkpt lat="45.47794" lon="10.7325017"><ele>113.0</ele><time>2026-04-18T12:27:44.159Z</time></trkpt><trkpt lat="45.4778317" lon="10.7323833"><ele>113.0</ele><time>2026-04-18T12:27:45.158Z</time></trkpt><trkpt lat="45.4777067" lon="10.732275"><ele>113.0</ele><time>2026-04-18T12:27:46.15Z</time></trkpt><trkpt lat="45.4775783" lon="10.7321833"><ele>113.2</ele><time>2026-04-18T12:27:47.145Z</time></trkpt><trkpt lat="45.477465" lon="10.7320817"><ele>113.4</ele><time>2026-04-18T12:27:48.159Z</time></trkpt><trkpt lat="45.477375" lon="10.731975"><ele>113.60000000000001</ele><time>2026-04-18T12:27:49.148Z</time></trkpt><trkpt lat="45.4773" lon="10.731885"><ele>113.80000000000001</ele><time>2026-04-18T12:27:50.153Z</time></trkpt><trkpt lat="45.4772233" lon="10.73181"><ele>114.0</ele><time>2026-04-18T12:27:51.153Z</time></trkpt><trkpt lat="45.477165" lon="10.731755"><ele>114.0</ele><time>2026-04-18T12:27:52.151Z</time></trkpt><trkpt lat="45.4771033" lon="10.731665"><ele>114.0</ele><time>2026-04-18T12:27:54.159Z</time></trkpt><trkpt lat="45.4769983" lon="10.7315667"><ele>114.0</ele><time>2026-04-18T12:27:56.145Z</time></trkpt><trkpt lat="45.4769217" lon="10.73152"><ele>114.0</ele><time>2026-04-18T12:27:57.163Z</time></trkpt><trkpt lat="45.4768333" lon="10.73147"><ele>114.0</ele><time>2026-04-18T12:27:58.153Z</time></trkpt><trkpt lat="45.4767367" lon="10.73142"><ele>114.5</ele><time>2026-04-18T12:27:59.147Z</time></trkpt><trkpt lat="45.4766633" lon="10.7313783"><ele>115.0</ele><time>2026-04-18T12:28:00.149Z</time></trkpt><trkpt lat="45.4765983" lon="10.7313483"><ele>115.5</ele><time>2026-04-18T12:28:01.176Z</time></trkpt><trkpt lat="45.47653" lon="10.7312933"><ele>116.0</ele><time>2026-04-18T12:28:03.144Z</time></trkpt><trkpt lat="45.476455" lon="10.7312917"><ele>116.5</ele><time>2026-04-18T12:28:10.146Z</time></trkpt><trkpt lat="45.4765283" lon="10.7313783"><ele>117.0</ele><time>2026-04-18T12:28:14.157Z</time></trkpt><trkpt lat="45.476605" lon="10.7314083"><ele>117.0</ele><time>2026-04-18T12:28:15.145Z</time></trkpt><trkpt lat="45.4766967" lon="10.7314633"><ele>116.99999999999999</ele><time>2026-04-18T12:28:16.151Z</time></trkpt><trkpt lat="45.4768133" lon="10.7315383"><ele>116.99999999999999</ele><time>2026-04-18T12:28:17.156Z</time></trkpt><trkpt lat="45.4769167" lon="10.731595"><ele>117.0</ele><time>2026-04-18T12:28:18.153Z</time></trkpt><trkpt lat="45.4769767" lon="10.7316467"><ele>117.0</ele><time>2026-04-18T12:28:19.144Z</time></trkpt><trkpt lat="45.4770667" lon="10.7317167"><ele>116.5</ele><time>2026-04-18T12:28:21.156Z</time></trkpt><trkpt lat="45.477135" lon="10.7317117"><ele>116.0</ele><time>2026-04-18T12:28:25.145Z</time></trkpt><trkpt lat="45.47714" lon="10.7315867"><ele>115.5</ele><time>2026-04-18T12:28:37.139Z</time></trkpt><trkpt lat="45.477145" lon="10.7314533"><ele>115.0</ele><time>2026-04-18T12:28:39.149Z</time></trkpt><trkpt lat="45.4771517" lon="10.731275"><ele>114.5</ele><time>2026-04-18T12:28:41.142Z</time></trkpt><trkpt lat="45.4771567" lon="10.7311733"><ele>114.0</ele><time>2026-04-18T12:28:42.164Z</time></trkpt><trkpt lat="45.4771617" lon="10.7310683"><ele>114.33333333333333</ele><time>2026-04-18T12:28:43.149Z</time></trkpt><trkpt lat="45.4771683" lon="10.7309667"><ele>114.66666666666666</ele><time>2026-04-18T12:28:44.143Z</time></trkpt><trkpt lat="45.477175" lon="10.730875"><ele>115.0</ele><time>2026-04-18T12:28:45.148Z</time></trkpt><trkpt lat="45.477175" lon="10.7307333"><ele>115.33333333333333</ele><time>2026-04-18T12:28:47.149Z</time></trkpt><trkpt lat="45.4771183" lon="10.73064"><ele>115.66666666666666</ele><time>2026-04-18T12:28:50.145Z</time></trkpt><trkpt lat="45.47708" lon="10.7305367"><ele>116.0</ele><time>2026-04-18T12:28:53.137Z</time></trkpt><trkpt lat="45.4770933" lon="10.7304467"><ele>115.16666666666666</ele><time>2026-04-18T12:28:55.144Z</time></trkpt><trkpt lat="45.4771083" lon="10.730355"><ele>114.33333333333333</ele><time>2026-04-18T12:28:57.145Z</time></trkpt><trkpt lat="45.4771183" lon="10.730255"><ele>113.5</ele><time>2026-04-18T12:28:59.145Z</time></trkpt><trkpt lat="45.4771217" lon="10.7301317"><ele>112.66666666666666</ele><time>2026-04-18T12:29:01.146Z</time></trkpt><trkpt lat="45.4771333" lon="10.730005"><ele>111.83333333333333</ele><time>2026-04-18T12:29:03.146Z</time></trkpt><trkpt lat="45.47714" lon="10.7298867"><ele>111.0</ele><time>2026-04-18T12:29:05.154Z</time></trkpt><trkpt lat="45.4771533" lon="10.7297617"><ele>111.0</ele><time>2026-04-18T12:29:07.142Z</time></trkpt><trkpt lat="45.47718" lon="10.7296383"><ele>111.0</ele><time>2026-04-18T12:29:09.145Z</time></trkpt><trkpt lat="45.4772217" lon="10.729535"><ele>111.0</ele><time>2026-04-18T12:29:11.148Z</time></trkpt><trkpt lat="45.47728" lon="10.7294667"><ele>111.0</ele><time>2026-04-18T12:29:13.141Z</time></trkpt><trkpt lat="45.4773533" lon="10.72946"><ele>111.0</ele><time>2026-04-18T12:29:15.146Z</time></trkpt><trkpt lat="45.47744" lon="10.729485"><ele>111.0</ele><time>2026-04-18T12:29:17.144Z</time></trkpt><trkpt lat="45.477525" lon="10.7294767"><ele>110.8</ele><time>2026-04-18T12:29:19.151Z</time></trkpt><trkpt lat="45.4775933" lon="10.72938"><ele>110.6</ele><time>2026-04-18T12:29:21.151Z</time></trkpt><trkpt lat="45.477645" lon="10.7292317"><ele>110.4</ele><time>2026-04-18T12:29:23.154Z</time></trkpt><trkpt lat="45.4776667" lon="10.7291467"><ele>110.2</ele><time>2026-04-18T12:29:24.151Z</time></trkpt><trkpt lat="45.477695" lon="10.7289967"><ele>110.0</ele><time>2026-04-18T12:29:26.156Z</time></trkpt><trkpt lat="45.4777233" lon="10.728855"><ele>110.0</ele><time>2026-04-18T12:29:28.155Z</time></trkpt><trkpt lat="45.47777" lon="10.7287033"><ele>110.0</ele><time>2026-04-18T12:29:30.151Z</time></trkpt><trkpt lat="45.4778017" lon="10.72862"><ele>110.0</ele><time>2026-04-18T12:29:31.158Z</time></trkpt><trkpt lat="45.47783" lon="10.7285317"><ele>110.0</ele><time>2026-04-18T12:29:32.151Z</time></trkpt><trkpt lat="45.4778733" lon="10.7283767"><ele>110.0</ele><time>2026-04-18T12:29:34.164Z</time></trkpt><trkpt lat="45.4778967" lon="10.7282417"><ele>109.49999999999999</ele><time>2026-04-18T12:29:36.157Z</time></trkpt><trkpt lat="45.4778717" lon="10.72812"><ele>109.0</ele><time>2026-04-18T12:29:38.145Z</time></trkpt><trkpt lat="45.47783" lon="10.728025"><ele>108.5</ele><time>2026-04-18T12:29:40.152Z</time></trkpt><trkpt lat="45.4778033" lon="10.727925"><ele>108.0</ele><time>2026-04-18T12:30:02.142Z</time></trkpt><trkpt lat="45.477715" lon="10.7278117"><ele>107.49999999999999</ele><time>2026-04-18T12:30:04.143Z</time></trkpt><trkpt lat="45.4776433" lon="10.7277467"><ele>107.0</ele><time>2026-04-18T12:30:05.153Z</time></trkpt><trkpt lat="45.4775633" lon="10.727665"><ele>107.0</ele><time>2026-04-18T12:30:06.175Z</time></trkpt><trkpt lat="45.47745" lon="10.7275483"><ele>107.0</ele><time>2026-04-18T12:30:07.15Z</time></trkpt><trkpt lat="45.47732" lon="10.727415"><ele>107.0</ele><time>2026-04-18T12:30:08.145Z</time></trkpt><trkpt lat="45.47719" lon="10.7273133"><ele>107.0</ele><time>2026-04-18T12:30:09.156Z</time></trkpt><trkpt lat="45.477075" lon="10.7271967"><ele>107.0</ele><time>2026-04-18T12:30:10.139Z</time></trkpt><trkpt lat="45.4769633" lon="10.7270433"><ele>107.0</ele><time>2026-04-18T12:30:11.148Z</time></trkpt><trkpt lat="45.4768567" lon="10.726885"><ele>107.0</ele><time>2026-04-18T12:30:12.153Z</time></trkpt><trkpt lat="45.476755" lon="10.7267"><ele>106.75</ele><time>2026-04-18T12:30:13.154Z</time></trkpt><trkpt lat="45.47666" lon="10.7265683"><ele>106.5</ele><time>2026-04-18T12:30:14.146Z</time></trkpt><trkpt lat="45.47656" lon="10.726445"><ele>106.25</ele><time>2026-04-18T12:30:15.144Z</time></trkpt><trkpt lat="45.4764767" lon="10.7263267"><ele>106.0</ele><time>2026-04-18T12:30:16.141Z</time></trkpt><trkpt lat="45.4763983" lon="10.72622"><ele>106.0</ele><time>2026-04-18T12:30:17.142Z</time></trkpt><trkpt lat="45.476315" lon="10.7261167"><ele>106.0</ele><time>2026-04-18T12:30:18.148Z</time></trkpt><trkpt lat="45.4762267" lon="10.7260117"><ele>106.0</ele><time>2026-04-18T12:30:19.144Z</time></trkpt><trkpt lat="45.4761383" lon="10.7259167"><ele>106.0</ele><time>2026-04-18T12:30:20.154Z</time></trkpt><trkpt lat="45.4760583" lon="10.7258067"><ele>106.0</ele><time>2026-04-18T12:30:21.146Z</time></trkpt><trkpt lat="45.4759667" lon="10.72571"><ele>105.25</ele><time>2026-04-18T12:30:22.15Z</time></trkpt><trkpt lat="45.4758683" lon="10.7256217"><ele>104.5</ele><time>2026-04-18T12:30:23.146Z</time></trkpt><trkpt lat="45.4757617" lon="10.7255467"><ele>103.75</ele><time>2026-04-18T12:30:24.151Z</time></trkpt><trkpt lat="45.47566" lon="10.725455"><ele>103.0</ele><time>2026-04-18T12:30:25.153Z</time></trkpt><trkpt lat="45.47555" lon="10.725365"><ele>103.0</ele><time>2026-04-18T12:30:26.156Z</time></trkpt><trkpt lat="45.4754417" lon="10.72528"><ele>103.0</ele><time>2026-04-18T12:30:27.143Z</time></trkpt><trkpt lat="45.4753283" lon="10.7251967"><ele>103.0</ele><time>2026-04-18T12:30:28.146Z</time></trkpt><trkpt lat="45.4752133" lon="10.725115"><ele>103.0</ele><time>2026-04-18T12:30:29.148Z</time></trkpt><trkpt lat="45.4750883" lon="10.7250267"><ele>103.5</ele><time>2026-04-18T12:30:30.151Z</time></trkpt><trkpt lat="45.474965" lon="10.7249633"><ele>104.0</ele><time>2026-04-18T12:30:31.146Z</time></trkpt><trkpt lat="45.4748417" lon="10.7249383"><ele>104.5</ele><time>2026-04-18T12:30:32.158Z</time></trkpt><trkpt lat="45.4747067" lon="10.7248967"><ele>105.0</ele><time>2026-04-18T12:30:33.15Z</time></trkpt><trkpt lat="45.47457" lon="10.7248433"><ele>105.25</ele><time>2026-04-18T12:30:34.144Z</time></trkpt><trkpt lat="45.4744317" lon="10.724815"><ele>105.5</ele><time>2026-04-18T12:30:35.163Z</time></trkpt><trkpt lat="45.4742867" lon="10.7247867"><ele>105.75</ele><time>2026-04-18T12:30:36.141Z</time></trkpt><trkpt lat="45.47415" lon="10.7247717"><ele>106.0</ele><time>2026-04-18T12:30:37.148Z</time></trkpt><trkpt lat="45.4740083" lon="10.724715"><ele>106.0</ele><time>2026-04-18T12:30:38.154Z</time></trkpt><trkpt lat="45.47386" lon="10.7246567"><ele>106.0</ele><time>2026-04-18T12:30:39.162Z</time></trkpt><trkpt lat="45.47371" lon="10.724615"><ele>106.0</ele><time>2026-04-18T12:30:40.141Z</time></trkpt><trkpt lat="45.473555" lon="10.7245583"><ele>106.0</ele><time>2026-04-18T12:30:41.162Z</time></trkpt><trkpt lat="45.47342" lon="10.7245167"><ele>106.0</ele><time>2026-04-18T12:30:42.146Z</time></trkpt><trkpt lat="45.4732583" lon="10.7244867"><ele>106.0</ele><time>2026-04-18T12:30:43.15Z</time></trkpt><trkpt lat="45.4730967" lon="10.7244633"><ele>106.0</ele><time>2026-04-18T12:30:44.159Z</time></trkpt><trkpt lat="45.4729483" lon="10.7244233"><ele>106.0</ele><time>2026-04-18T12:30:45.146Z</time></trkpt><trkpt lat="45.4727933" lon="10.72436"><ele>106.0</ele><time>2026-04-18T12:30:46.151Z</time></trkpt><trkpt lat="45.4726433" lon="10.7242933"><ele>104.66666666666667</ele><time>2026-04-18T12:30:47.156Z</time></trkpt><trkpt lat="45.472485" lon="10.7242217"><ele>103.33333333333334</ele><time>2026-04-18T12:30:48.152Z</time></trkpt><trkpt lat="45.4723233" lon="10.7241533"><ele>102.0</ele><time>2026-04-18T12:30:49.143Z</time></trkpt><trkpt lat="45.4721783" lon="10.724105"><ele>103.0</ele><time>2026-04-18T12:30:50.156Z</time></trkpt><trkpt lat="45.4720083" lon="10.7240283"><ele>104.0</ele><time>2026-04-18T12:30:51.155Z</time></trkpt><trkpt lat="45.4718383" lon="10.723935"><ele>105.0</ele><time>2026-04-18T12:30:52.143Z</time></trkpt><trkpt lat="45.47174" lon="10.7238483"><ele>105.0</ele><time>2026-04-18T12:30:53.14Z</time></trkpt><trkpt lat="45.471615" lon="10.723755"><ele>105.0</ele><time>2026-04-18T12:30:54.15Z</time></trkpt><trkpt lat="45.4714583" lon="10.7236683"><ele>105.0</ele><time>2026-04-18T12:30:55.145Z</time></trkpt><trkpt lat="45.47133" lon="10.7236033"><ele>105.0</ele><time>2026-04-18T12:30:56.148Z</time></trkpt><trkpt lat="45.4711967" lon="10.7235117"><ele>105.0</ele><time>2026-04-18T12:30:57.149Z</time></trkpt><trkpt lat="45.4710683" lon="10.7234"><ele>105.0</ele><time>2026-04-18T12:30:58.148Z</time></trkpt><trkpt lat="45.4709483" lon="10.7232833"><ele>105.0</ele><time>2026-04-18T12:30:59.141Z</time></trkpt><trkpt lat="45.4708267" lon="10.7231517"><ele>105.0</ele><time>2026-04-18T12:31:00.151Z</time></trkpt><trkpt lat="45.4707367" lon="10.7229983"><ele>105.0</ele><time>2026-04-18T12:31:01.149Z</time></trkpt><trkpt lat="45.4706417" lon="10.7228517"><ele>105.0</ele><time>2026-04-18T12:31:02.143Z</time></trkpt><trkpt lat="45.470555" lon="10.7227033"><ele>105.0</ele><time>2026-04-18T12:31:03.146Z</time></trkpt><trkpt lat="45.47049" lon="10.7225617"><ele>105.0</ele><time>2026-04-18T12:31:04.149Z</time></trkpt><trkpt lat="45.4704433" lon="10.722435"><ele>104.4</ele><time>2026-04-18T12:31:05.142Z</time></trkpt><trkpt lat="45.4703933" lon="10.7223167"><ele>103.8</ele><time>2026-04-18T12:31:06.141Z</time></trkpt><trkpt lat="45.47035" lon="10.7221933"><ele>103.19999999999999</ele><time>2026-04-18T12:31:07.144Z</time></trkpt><trkpt lat="45.470295" lon="10.7220683"><ele>102.6</ele><time>2026-04-18T12:31:08.141Z</time></trkpt><trkpt lat="45.4702417" lon="10.7219333"><ele>102.0</ele><time>2026-04-18T12:31:09.144Z</time></trkpt><trkpt lat="45.47019" lon="10.7217967"><ele>102.0</ele><time>2026-04-18T12:31:10.141Z</time></trkpt><trkpt lat="45.4701283" lon="10.721695"><ele>102.0</ele><time>2026-04-18T12:31:11.141Z</time></trkpt><trkpt lat="45.470055" lon="10.7215583"><ele>102.0</ele><time>2026-04-18T12:31:12.148Z</time></trkpt><trkpt lat="45.469975" lon="10.7214133"><ele>102.0</ele><time>2026-04-18T12:31:13.139Z</time></trkpt><trkpt lat="45.4699033" lon="10.7212983"><ele>102.0</ele><time>2026-04-18T12:31:14.14Z</time></trkpt><trkpt lat="45.4697783" lon="10.7212383"><ele>102.0</ele><time>2026-04-18T12:31:15.149Z</time></trkpt><trkpt lat="45.4696617" lon="10.7211333"><ele>102.0</ele><time>2026-04-18T12:31:16.146Z</time></trkpt><trkpt lat="45.46955" lon="10.72106"><ele>102.0</ele><time>2026-04-18T12:31:17.149Z</time></trkpt><trkpt lat="45.4694283" lon="10.72101"><ele>102.0</ele><time>2026-04-18T12:31:18.153Z</time></trkpt><trkpt lat="45.4693167" lon="10.7209733"><ele>102.0</ele><time>2026-04-18T12:31:19.16Z</time></trkpt><trkpt lat="45.4691783" lon="10.720955"><ele>102.0</ele><time>2026-04-18T12:31:20.141Z</time></trkpt><trkpt lat="45.469055" lon="10.7209283"><ele>102.0</ele><time>2026-04-18T12:31:21.147Z</time></trkpt><trkpt lat="45.468915" lon="10.7209167"><ele>102.0</ele><time>2026-04-18T12:31:22.148Z</time></trkpt><trkpt lat="45.4687867" lon="10.7209117"><ele>102.0</ele><time>2026-04-18T12:31:23.152Z</time></trkpt><trkpt lat="45.4686733" lon="10.720895"><ele>102.0</ele><time>2026-04-18T12:31:24.145Z</time></trkpt><trkpt lat="45.468545" lon="10.7208667"><ele>102.0</ele><time>2026-04-18T12:31:25.143Z</time></trkpt><trkpt lat="45.4684417" lon="10.72084"><ele>102.0</ele><time>2026-04-18T12:31:26.144Z</time></trkpt><trkpt lat="45.4683667" lon="10.720835"><ele>102.0</ele><time>2026-04-18T12:31:27.147Z</time></trkpt><trkpt lat="45.468295" lon="10.72082"><ele>102.0</ele><time>2026-04-18T12:31:28.14Z</time></trkpt><trkpt lat="45.468235" lon="10.7207917"><ele>102.0</ele><time>2026-04-18T12:31:29.145Z</time></trkpt><trkpt lat="45.4681717" lon="10.7207667"><ele>102.0</ele><time>2026-04-18T12:31:30.146Z</time></trkpt><trkpt lat="45.4680567" lon="10.7206867"><ele>102.0</ele><time>2026-04-18T12:31:32.149Z</time></trkpt><trkpt lat="45.4679967" lon="10.7206483"><ele>102.16666666666667</ele><time>2026-04-18T12:31:33.155Z</time></trkpt><trkpt lat="45.46793" lon="10.72064"><ele>102.33333333333334</ele><time>2026-04-18T12:31:34.142Z</time></trkpt><trkpt lat="45.4678617" lon="10.7206617"><ele>102.5</ele><time>2026-04-18T12:31:35.146Z</time></trkpt><trkpt lat="45.46779" lon="10.7206817"><ele>102.66666666666667</ele><time>2026-04-18T12:31:36.156Z</time></trkpt><trkpt lat="45.4677133" lon="10.7206917"><ele>102.83333333333334</ele><time>2026-04-18T12:31:37.138Z</time></trkpt><trkpt lat="45.4676333" lon="10.720695"><ele>103.0</ele><time>2026-04-18T12:31:38.142Z</time></trkpt><trkpt lat="45.4675483" lon="10.7206867"><ele>103.00000000000001</ele><time>2026-04-18T12:31:39.153Z</time></trkpt><trkpt lat="45.4674567" lon="10.72069"><ele>103.0</ele><time>2026-04-18T12:31:40.144Z</time></trkpt><trkpt lat="45.46737" lon="10.7206867"><ele>103.0</ele><time>2026-04-18T12:31:41.142Z</time></trkpt><trkpt lat="45.4672867" lon="10.7206917"><ele>103.0</ele><time>2026-04-18T12:31:42.15Z</time></trkpt><trkpt lat="45.4672033" lon="10.7206933"><ele>103.00000000000001</ele><time>2026-04-18T12:31:43.157Z</time></trkpt><trkpt lat="45.46712" lon="10.7206933"><ele>103.0</ele><time>2026-04-18T12:31:44.138Z</time></trkpt><trkpt lat="45.4670383" lon="10.7206817"><ele>103.33333333333334</ele><time>2026-04-18T12:31:45.15Z</time></trkpt><trkpt lat="45.46696" lon="10.7206667"><ele>103.66666666666667</ele><time>2026-04-18T12:31:46.148Z</time></trkpt><trkpt lat="45.46688" lon="10.7206467"><ele>104.0</ele><time>2026-04-18T12:31:47.151Z</time></trkpt><trkpt lat="45.4667983" lon="10.7206283"><ele>104.33333333333334</ele><time>2026-04-18T12:31:48.145Z</time></trkpt><trkpt lat="45.4667133" lon="10.72061"><ele>104.66666666666667</ele><time>2026-04-18T12:31:49.148Z</time></trkpt><trkpt lat="45.4666283" lon="10.720595"><ele>105.0</ele><time>2026-04-18T12:31:50.158Z</time></trkpt><trkpt lat="45.46654" lon="10.7205917"><ele>105.0</ele><time>2026-04-18T12:31:51.149Z</time></trkpt><trkpt lat="45.46645" lon="10.7205817"><ele>105.0</ele><time>2026-04-18T12:31:52.144Z</time></trkpt><trkpt lat="45.4663667" lon="10.7205483"><ele>105.0</ele><time>2026-04-18T12:31:53.139Z</time></trkpt><trkpt lat="45.4662717" lon="10.7204967"><ele>105.0</ele><time>2026-04-18T12:31:54.143Z</time></trkpt><trkpt lat="45.4662667" lon="10.7203717"><ele>105.0</ele><time>2026-04-18T12:31:55.151Z</time></trkpt><trkpt lat="45.4661533" lon="10.7203217"><ele>104.8</ele><time>2026-04-18T12:31:56.146Z</time></trkpt><trkpt lat="45.46604" lon="10.720275"><ele>104.6</ele><time>2026-04-18T12:31:57.136Z</time></trkpt><trkpt lat="45.465955" lon="10.7202817"><ele>104.4</ele><time>2026-04-18T12:31:58.148Z</time></trkpt><trkpt lat="45.4658517" lon="10.72026"><ele>104.2</ele><time>2026-04-18T12:31:59.153Z</time></trkpt><trkpt lat="45.4657483" lon="10.7202667"><ele>104.0</ele><time>2026-04-18T12:32:00.142Z</time></trkpt><trkpt lat="45.4656367" lon="10.720265"><ele>104.0</ele><time>2026-04-18T12:32:01.145Z</time></trkpt><trkpt lat="45.465535" lon="10.7202433"><ele>104.0</ele><time>2026-04-18T12:32:02.145Z</time></trkpt><trkpt lat="45.465425" lon="10.720215"><ele>104.0</ele><time>2026-04-18T12:32:03.146Z</time></trkpt><trkpt lat="45.465325" lon="10.72019"><ele>104.0</ele><time>2026-04-18T12:32:04.145Z</time></trkpt><trkpt lat="45.4652083" lon="10.7201567"><ele>104.0</ele><time>2026-04-18T12:32:05.146Z</time></trkpt><trkpt lat="45.4650883" lon="10.7201317"><ele>104.25</ele><time>2026-04-18T12:32:06.14Z</time></trkpt><trkpt lat="45.4649667" lon="10.7201"><ele>104.5</ele><time>2026-04-18T12:32:07.147Z</time></trkpt><trkpt lat="45.4648433" lon="10.7200783"><ele>104.75</ele><time>2026-04-18T12:32:08.151Z</time></trkpt><trkpt lat="45.4647233" lon="10.7200467"><ele>105.0</ele><time>2026-04-18T12:32:09.145Z</time></trkpt><trkpt lat="45.464595" lon="10.7200133"><ele>104.5</ele><time>2026-04-18T12:32:10.138Z</time></trkpt><trkpt lat="45.4644717" lon="10.7200383"><ele>104.0</ele><time>2026-04-18T12:32:11.145Z</time></trkpt><trkpt lat="45.4643583" lon="10.71999"><ele>103.5</ele><time>2026-04-18T12:32:12.145Z</time></trkpt><trkpt lat="45.46423" lon="10.7199767"><ele>103.0</ele><time>2026-04-18T12:32:13.153Z</time></trkpt><trkpt lat="45.4641233" lon="10.7199667"><ele>103.0</ele><time>2026-04-18T12:32:14.155Z</time></trkpt><trkpt lat="45.4640333" lon="10.71992"><ele>103.0</ele><time>2026-04-18T12:32:15.156Z</time></trkpt><trkpt lat="45.4639383" lon="10.7198783"><ele>103.0</ele><time>2026-04-18T12:32:16.141Z</time></trkpt><trkpt lat="45.46383" lon="10.7198283"><ele>103.0</ele><time>2026-04-18T12:32:17.144Z</time></trkpt><trkpt lat="45.46373" lon="10.7197783"><ele>103.0</ele><time>2026-04-18T12:32:18.144Z</time></trkpt><trkpt lat="45.46363" lon="10.7197383"><ele>102.2</ele><time>2026-04-18T12:32:19.141Z</time></trkpt><trkpt lat="45.4635183" lon="10.7197067"><ele>101.4</ele><time>2026-04-18T12:32:20.147Z</time></trkpt><trkpt lat="45.4634233" lon="10.7196417"><ele>100.60000000000001</ele><time>2026-04-18T12:32:21.145Z</time></trkpt><trkpt lat="45.4633283" lon="10.7195633"><ele>99.80000000000001</ele><time>2026-04-18T12:32:22.14Z</time></trkpt><trkpt lat="45.4632633" lon="10.7194867"><ele>99.0</ele><time>2026-04-18T12:32:23.141Z</time></trkpt><trkpt lat="45.46319" lon="10.719395"><ele>98.4</ele><time>2026-04-18T12:32:24.147Z</time></trkpt><trkpt lat="45.4631033" lon="10.719295"><ele>97.80000000000001</ele><time>2026-04-18T12:32:25.143Z</time></trkpt><trkpt lat="45.4630317" lon="10.7192167"><ele>97.19999999999999</ele><time>2026-04-18T12:32:26.155Z</time></trkpt><trkpt lat="45.4629467" lon="10.7190883"><ele>96.6</ele><time>2026-04-18T12:32:27.144Z</time></trkpt><trkpt lat="45.46288" lon="10.718955"><ele>96.0</ele><time>2026-04-18T12:32:28.142Z</time></trkpt><trkpt lat="45.4628167" lon="10.7188133"><ele>95.83333333333333</ele><time>2026-04-18T12:32:29.139Z</time></trkpt><trkpt lat="45.4627667" lon="10.7187017"><ele>95.66666666666667</ele><time>2026-04-18T12:32:30.139Z</time></trkpt><trkpt lat="45.4627117" lon="10.7186067"><ele>95.5</ele><time>2026-04-18T12:32:31.143Z</time></trkpt><trkpt lat="45.462685" lon="10.7185183"><ele>95.33333333333334</ele><time>2026-04-18T12:32:32.148Z</time></trkpt><trkpt lat="45.4626317" lon="10.718365"><ele>95.16666666666667</ele><time>2026-04-18T12:32:34.163Z</time></trkpt><trkpt lat="45.462605" lon="10.7182717"><ele>95.0</ele><time>2026-04-18T12:32:35.145Z</time></trkpt><trkpt lat="45.4625667" lon="10.7181767"><ele>95.0</ele><time>2026-04-18T12:32:36.15Z</time></trkpt><trkpt lat="45.4625183" lon="10.718095"><ele>95.0</ele><time>2026-04-18T12:32:37.141Z</time></trkpt><trkpt lat="45.4624533" lon="10.7180317"><ele>95.0</ele><time>2026-04-18T12:32:38.184Z</time></trkpt><trkpt lat="45.4623767" lon="10.7179833"><ele>95.0</ele><time>2026-04-18T12:32:39.156Z</time></trkpt><trkpt lat="45.4622283" lon="10.71786"><ele>95.0</ele><time>2026-04-18T12:32:41.148Z</time></trkpt><trkpt lat="45.46219" lon="10.7177667"><ele>94.5</ele><time>2026-04-18T12:32:42.144Z</time></trkpt><trkpt lat="45.4620817" lon="10.7177083"><ele>94.0</ele><time>2026-04-18T12:32:43.146Z</time></trkpt><trkpt lat="45.461955" lon="10.717665"><ele>93.5</ele><time>2026-04-18T12:32:44.143Z</time></trkpt><trkpt lat="45.4618417" lon="10.7176483"><ele>93.0</ele><time>2026-04-18T12:32:45.152Z</time></trkpt><trkpt lat="45.4617233" lon="10.7176083"><ele>93.0</ele><time>2026-04-18T12:32:46.145Z</time></trkpt><trkpt lat="45.461615" lon="10.71756"><ele>93.0</ele><time>2026-04-18T12:32:47.141Z</time></trkpt><trkpt lat="45.4615067" lon="10.717535"><ele>93.0</ele><time>2026-04-18T12:32:48.139Z</time></trkpt><trkpt lat="45.4613983" lon="10.7175033"><ele>93.0</ele><time>2026-04-18T12:32:49.146Z</time></trkpt><trkpt lat="45.461285" lon="10.7174783"><ele>93.0</ele><time>2026-04-18T12:32:50.135Z</time></trkpt><trkpt lat="45.461175" lon="10.7174183"><ele>93.5</ele><time>2026-04-18T12:32:51.142Z</time></trkpt><trkpt lat="45.4610733" lon="10.7173667"><ele>94.0</ele><time>2026-04-18T12:32:52.146Z</time></trkpt><trkpt lat="45.4609683" lon="10.717345"><ele>94.5</ele><time>2026-04-18T12:32:53.147Z</time></trkpt><trkpt lat="45.4608517" lon="10.7173083"><ele>95.0</ele><time>2026-04-18T12:32:54.15Z</time></trkpt><trkpt lat="45.4607183" lon="10.7172617"><ele>95.0</ele><time>2026-04-18T12:32:55.149Z</time></trkpt><trkpt lat="45.4605883" lon="10.7172283"><ele>95.0</ele><time>2026-04-18T12:32:56.147Z</time></trkpt><trkpt lat="45.4604633" lon="10.71717"><ele>95.0</ele><time>2026-04-18T12:32:57.144Z</time></trkpt><trkpt lat="45.4603383" lon="10.7171133"><ele>95.0</ele><time>2026-04-18T12:32:58.145Z</time></trkpt><trkpt lat="45.4602" lon="10.71709"><ele>94.6</ele><time>2026-04-18T12:32:59.147Z</time></trkpt><trkpt lat="45.4601017" lon="10.717035"><ele>94.2</ele><time>2026-04-18T12:33:00.161Z</time></trkpt><trkpt lat="45.4599933" lon="10.716985"><ele>93.80000000000001</ele><time>2026-04-18T12:33:01.147Z</time></trkpt><trkpt lat="45.4598983" lon="10.7169467"><ele>93.4</ele><time>2026-04-18T12:33:02.149Z</time></trkpt><trkpt lat="45.4598017" lon="10.7169017"><ele>93.0</ele><time>2026-04-18T12:33:03.141Z</time></trkpt><trkpt lat="45.459705" lon="10.716875"><ele>93.0</ele><time>2026-04-18T12:33:04.146Z</time></trkpt><trkpt lat="45.45959" lon="10.716825"><ele>93.0</ele><time>2026-04-18T12:33:05.142Z</time></trkpt><trkpt lat="45.4594783" lon="10.716795"><ele>93.0</ele><time>2026-04-18T12:33:06.146Z</time></trkpt><trkpt lat="45.4593767" lon="10.7167517"><ele>93.0</ele><time>2026-04-18T12:33:07.15Z</time></trkpt><trkpt lat="45.4592633" lon="10.7167033"><ele>93.0</ele><time>2026-04-18T12:33:08.144Z</time></trkpt><trkpt lat="45.45915" lon="10.7166917"><ele>93.0</ele><time>2026-04-18T12:33:09.147Z</time></trkpt><trkpt lat="45.459035" lon="10.71666"><ele>93.0</ele><time>2026-04-18T12:33:10.143Z</time></trkpt><trkpt lat="45.45893" lon="10.71661"><ele>93.0</ele><time>2026-04-18T12:33:11.144Z</time></trkpt><trkpt lat="45.4588183" lon="10.7165783"><ele>92.75</ele><time>2026-04-18T12:33:12.142Z</time></trkpt><trkpt lat="45.4586883" lon="10.7165283"><ele>92.5</ele><time>2026-04-18T12:33:13.138Z</time></trkpt><trkpt lat="45.458575" lon="10.716495"><ele>92.25</ele><time>2026-04-18T12:33:14.141Z</time></trkpt><trkpt lat="45.4584483" lon="10.716455"><ele>92.0</ele><time>2026-04-18T12:33:15.142Z</time></trkpt><trkpt lat="45.4583283" lon="10.7164367"><ele>92.0</ele><time>2026-04-18T12:33:16.141Z</time></trkpt><trkpt lat="45.4582183" lon="10.7163967"><ele>92.0</ele><time>2026-04-18T12:33:17.144Z</time></trkpt><trkpt lat="45.4581017" lon="10.716365"><ele>92.0</ele><time>2026-04-18T12:33:18.145Z</time></trkpt><trkpt lat="45.4579883" lon="10.7163383"><ele>92.0</ele><time>2026-04-18T12:33:19.146Z</time></trkpt><trkpt lat="45.45787" lon="10.7163"><ele>90.75</ele><time>2026-04-18T12:33:20.146Z</time></trkpt><trkpt lat="45.4577517" lon="10.7162517"><ele>89.5</ele><time>2026-04-18T12:33:21.141Z</time></trkpt><trkpt lat="45.4576283" lon="10.716225"><ele>88.25</ele><time>2026-04-18T12:33:22.148Z</time></trkpt><trkpt lat="45.4575133" lon="10.7161783"><ele>87.0</ele><time>2026-04-18T12:33:23.141Z</time></trkpt><trkpt lat="45.4573867" lon="10.716135"><ele>87.0</ele><time>2026-04-18T12:33:24.139Z</time></trkpt><trkpt lat="45.4572567" lon="10.7161033"><ele>87.0</ele><time>2026-04-18T12:33:25.149Z</time></trkpt><trkpt lat="45.4571383" lon="10.7160633"><ele>87.0</ele><time>2026-04-18T12:33:26.141Z</time></trkpt><trkpt lat="45.4570133" lon="10.7160267"><ele>87.0</ele><time>2026-04-18T12:33:27.145Z</time></trkpt><trkpt lat="45.4568867" lon="10.71597"><ele>86.5</ele><time>2026-04-18T12:33:28.148Z</time></trkpt><trkpt lat="45.45678" lon="10.7159367"><ele>86.0</ele><time>2026-04-18T12:33:29.141Z</time></trkpt><trkpt lat="45.45666" lon="10.7159017"><ele>85.5</ele><time>2026-04-18T12:33:30.146Z</time></trkpt><trkpt lat="45.4565517" lon="10.7158817"><ele>85.0</ele><time>2026-04-18T12:33:31.144Z</time></trkpt><trkpt lat="45.45643" lon="10.7158583"><ele>85.0</ele><time>2026-04-18T12:33:32.144Z</time></trkpt><trkpt lat="45.4563033" lon="10.71581"><ele>85.0</ele><time>2026-04-18T12:33:33.142Z</time></trkpt><trkpt lat="45.45619" lon="10.7157767"><ele>85.0</ele><time>2026-04-18T12:33:34.148Z</time></trkpt><trkpt lat="45.4560817" lon="10.715725"><ele>85.0</ele><time>2026-04-18T12:33:35.142Z</time></trkpt><trkpt lat="45.455955" lon="10.7156717"><ele>84.25</ele><time>2026-04-18T12:33:36.148Z</time></trkpt><trkpt lat="45.455835" lon="10.7156283"><ele>83.5</ele><time>2026-04-18T12:33:37.15Z</time></trkpt><trkpt lat="45.4557083" lon="10.7155767"><ele>82.75</ele><time>2026-04-18T12:33:38.153Z</time></trkpt><trkpt lat="45.455585" lon="10.7155267"><ele>82.0</ele><time>2026-04-18T12:33:39.143Z</time></trkpt><trkpt lat="45.45547" lon="10.7154833"><ele>82.75</ele><time>2026-04-18T12:33:40.158Z</time></trkpt><trkpt lat="45.455355" lon="10.7154217"><ele>83.5</ele><time>2026-04-18T12:33:41.138Z</time></trkpt><trkpt lat="45.4552267" lon="10.715395"><ele>84.25</ele><time>2026-04-18T12:33:42.142Z</time></trkpt><trkpt lat="45.4550867" lon="10.7153417"><ele>85.0</ele><time>2026-04-18T12:33:43.148Z</time></trkpt><trkpt lat="45.4549567" lon="10.71529"><ele>85.0</ele><time>2026-04-18T12:33:44.139Z</time></trkpt><trkpt lat="45.4548383" lon="10.7152383"><ele>85.0</ele><time>2026-04-18T12:33:45.135Z</time></trkpt><trkpt lat="45.4547233" lon="10.7151967"><ele>85.0</ele><time>2026-04-18T12:33:46.139Z</time></trkpt><trkpt lat="45.4546183" lon="10.7151417"><ele>85.0</ele><time>2026-04-18T12:33:47.14Z</time></trkpt><trkpt lat="45.4545083" lon="10.715065"><ele>86.0</ele><time>2026-04-18T12:33:48.139Z</time></trkpt><trkpt lat="45.454385" lon="10.7150167"><ele>87.0</ele><time>2026-04-18T12:33:49.151Z</time></trkpt><trkpt lat="45.45426" lon="10.7149633"><ele>88.0</ele><time>2026-04-18T12:33:50.146Z</time></trkpt><trkpt lat="45.4541433" lon="10.71493"><ele>89.0</ele><time>2026-04-18T12:33:51.143Z</time></trkpt><trkpt lat="45.454025" lon="10.7148817"><ele>89.0</ele><time>2026-04-18T12:33:52.141Z</time></trkpt><trkpt lat="45.453905" lon="10.7148217"><ele>89.0</ele><time>2026-04-18T12:33:53.139Z</time></trkpt><trkpt lat="45.4537833" lon="10.714785"><ele>89.0</ele><time>2026-04-18T12:33:54.139Z</time></trkpt><trkpt lat="45.4536583" lon="10.7147367"><ele>89.0</ele><time>2026-04-18T12:33:55.152Z</time></trkpt><trkpt lat="45.4535333" lon="10.7146783"><ele>89.5</ele><time>2026-04-18T12:33:56.145Z</time></trkpt><trkpt lat="45.4534083" lon="10.7146517"><ele>90.0</ele><time>2026-04-18T12:33:57.141Z</time></trkpt><trkpt lat="45.453275" lon="10.71463"><ele>90.5</ele><time>2026-04-18T12:33:58.147Z</time></trkpt><trkpt lat="45.4531517" lon="10.7145967"><ele>91.0</ele><time>2026-04-18T12:33:59.153Z</time></trkpt><trkpt lat="45.45302" lon="10.71457"><ele>91.0</ele><time>2026-04-18T12:34:00.156Z</time></trkpt><trkpt lat="45.452875" lon="10.71452"><ele>91.0</ele><time>2026-04-18T12:34:01.136Z</time></trkpt><trkpt lat="45.452735" lon="10.7144683"><ele>91.0</ele><time>2026-04-18T12:34:02.147Z</time></trkpt><trkpt lat="45.4526083" lon="10.7144067"><ele>91.0</ele><time>2026-04-18T12:34:03.145Z</time></trkpt><trkpt lat="45.4524667" lon="10.7143483"><ele>91.0</ele><time>2026-04-18T12:34:04.146Z</time></trkpt><trkpt lat="45.4523417" lon="10.7142417"><ele>91.0</ele><time>2026-04-18T12:34:05.14Z</time></trkpt><trkpt lat="45.4522333" lon="10.7141717"><ele>91.0</ele><time>2026-04-18T12:34:06.139Z</time></trkpt><trkpt lat="45.45212" lon="10.71407"><ele>91.0</ele><time>2026-04-18T12:34:07.139Z</time></trkpt><trkpt lat="45.4520133" lon="10.7139617"><ele>91.0</ele><time>2026-04-18T12:34:08.143Z</time></trkpt><trkpt lat="45.4518933" lon="10.7138717"><ele>91.0</ele><time>2026-04-18T12:34:09.141Z</time></trkpt><trkpt lat="45.4517867" lon="10.7137783"><ele>91.0</ele><time>2026-04-18T12:34:10.148Z</time></trkpt><trkpt lat="45.4516917" lon="10.713675"><ele>91.0</ele><time>2026-04-18T12:34:11.141Z</time></trkpt><trkpt lat="45.4515983" lon="10.71358"><ele>91.0</ele><time>2026-04-18T12:34:12.154Z</time></trkpt><trkpt lat="45.4515067" lon="10.7135"><ele>91.0</ele><time>2026-04-18T12:34:13.152Z</time></trkpt><trkpt lat="45.4514083" lon="10.713425"><ele>91.0</ele><time>2026-04-18T12:34:14.137Z</time></trkpt><trkpt lat="45.45132" lon="10.713335"><ele>91.0</ele><time>2026-04-18T12:34:15.145Z</time></trkpt><trkpt lat="45.4512433" lon="10.71326"><ele>91.0</ele><time>2026-04-18T12:34:16.14Z</time></trkpt><trkpt lat="45.4511917" lon="10.713155"><ele>90.33333333333333</ele><time>2026-04-18T12:34:17.142Z</time></trkpt><trkpt lat="45.45115" lon="10.7130567"><ele>89.66666666666666</ele><time>2026-04-18T12:34:18.142Z</time></trkpt><trkpt lat="45.4511083" lon="10.7129617"><ele>89.0</ele><time>2026-04-18T12:34:19.144Z</time></trkpt><trkpt lat="45.4510683" lon="10.7128783"><ele>88.33333333333333</ele><time>2026-04-18T12:34:20.147Z</time></trkpt><trkpt lat="45.45102" lon="10.7128183"><ele>87.66666666666667</ele><time>2026-04-18T12:34:21.145Z</time></trkpt><trkpt lat="45.45089" lon="10.7127667"><ele>87.0</ele><time>2026-04-18T12:34:23.14Z</time></trkpt><trkpt lat="45.4508083" lon="10.71277"><ele>87.0</ele><time>2026-04-18T12:34:24.148Z</time></trkpt><trkpt lat="45.450715" lon="10.7127717"><ele>87.0</ele><time>2026-04-18T12:34:25.152Z</time></trkpt><trkpt lat="45.4506067" lon="10.7127733"><ele>87.0</ele><time>2026-04-18T12:34:26.135Z</time></trkpt><trkpt lat="45.45051" lon="10.7127517"><ele>87.0</ele><time>2026-04-18T12:34:27.133Z</time></trkpt><trkpt lat="45.4504133" lon="10.7126833"><ele>87.0</ele><time>2026-04-18T12:34:28.139Z</time></trkpt><trkpt lat="45.4503167" lon="10.7125983"><ele>87.0</ele><time>2026-04-18T12:34:29.147Z</time></trkpt><trkpt lat="45.45019" lon="10.7125267"><ele>87.0</ele><time>2026-04-18T12:34:30.146Z</time></trkpt><trkpt lat="45.45007" lon="10.7124517"><ele>87.0</ele><time>2026-04-18T12:34:31.144Z</time></trkpt><trkpt lat="45.4499567" lon="10.712365"><ele>87.0</ele><time>2026-04-18T12:34:32.153Z</time></trkpt><trkpt lat="45.4498217" lon="10.71227"><ele>87.0</ele><time>2026-04-18T12:34:33.146Z</time></trkpt><trkpt lat="45.4497" lon="10.712175"><ele>87.0</ele><time>2026-04-18T12:34:34.149Z</time></trkpt><trkpt lat="45.4495517" lon="10.71209"><ele>87.0</ele><time>2026-04-18T12:34:35.143Z</time></trkpt><trkpt lat="45.44941" lon="10.7120117"><ele>87.0</ele><time>2026-04-18T12:34:36.14Z</time></trkpt><trkpt lat="45.44927" lon="10.711915"><ele>87.0</ele><time>2026-04-18T12:34:37.14Z</time></trkpt><trkpt lat="45.449155" lon="10.7118117"><ele>87.0</ele><time>2026-04-18T12:34:38.152Z</time></trkpt><trkpt lat="45.449005" lon="10.7117317"><ele>87.0</ele><time>2026-04-18T12:34:39.137Z</time></trkpt><trkpt lat="45.4488833" lon="10.71165"><ele>87.0</ele><time>2026-04-18T12:34:40.148Z</time></trkpt><trkpt lat="45.44878" lon="10.7115683"><ele>87.0</ele><time>2026-04-18T12:34:41.148Z</time></trkpt><trkpt lat="45.4486633" lon="10.711505"><ele>87.0</ele><time>2026-04-18T12:34:42.172Z</time></trkpt><trkpt lat="45.4485683" lon="10.7114267"><ele>88.0</ele><time>2026-04-18T12:34:43.139Z</time></trkpt><trkpt lat="45.4484783" lon="10.7113533"><ele>89.0</ele><time>2026-04-18T12:34:44.151Z</time></trkpt><trkpt lat="45.44837" lon="10.711285"><ele>90.0</ele><time>2026-04-18T12:34:45.143Z</time></trkpt><trkpt lat="45.448265" lon="10.7112167"><ele>91.0</ele><time>2026-04-18T12:34:46.143Z</time></trkpt><trkpt lat="45.4481483" lon="10.7111467"><ele>91.0</ele><time>2026-04-18T12:34:47.143Z</time></trkpt><trkpt lat="45.44806" lon="10.711075"><ele>91.0</ele><time>2026-04-18T12:34:48.141Z</time></trkpt><trkpt lat="45.4479683" lon="10.7110067"><ele>91.0</ele><time>2026-04-18T12:34:49.136Z</time></trkpt><trkpt lat="45.44787" lon="10.7109433"><ele>91.0</ele><time>2026-04-18T12:34:50.146Z</time></trkpt><trkpt lat="45.4477683" lon="10.7108567"><ele>91.0</ele><time>2026-04-18T12:34:51.138Z</time></trkpt><trkpt lat="45.4476567" lon="10.710795"><ele>90.19999999999999</ele><time>2026-04-18T12:34:52.138Z</time></trkpt><trkpt lat="45.4475667" lon="10.71072"><ele>89.39999999999999</ele><time>2026-04-18T12:34:53.141Z</time></trkpt><trkpt lat="45.447465" lon="10.7106567"><ele>88.6</ele><time>2026-04-18T12:34:54.153Z</time></trkpt><trkpt lat="45.4473633" lon="10.710595"><ele>87.8</ele><time>2026-04-18T12:34:55.149Z</time></trkpt><trkpt lat="45.4472683" lon="10.71052"><ele>87.0</ele><time>2026-04-18T12:34:56.144Z</time></trkpt><trkpt lat="45.4471533" lon="10.7104667"><ele>87.0</ele><time>2026-04-18T12:34:57.158Z</time></trkpt><trkpt lat="45.4470533" lon="10.7103817"><ele>87.0</ele><time>2026-04-18T12:34:58.141Z</time></trkpt><trkpt lat="45.4469383" lon="10.7102967"><ele>87.0</ele><time>2026-04-18T12:34:59.137Z</time></trkpt><trkpt lat="45.4468317" lon="10.7102083"><ele>87.0</ele><time>2026-04-18T12:35:00.147Z</time></trkpt><trkpt lat="45.44671" lon="10.7101233"><ele>87.0</ele><time>2026-04-18T12:35:01.141Z</time></trkpt><trkpt lat="45.4466067" lon="10.71002"><ele>87.0</ele><time>2026-04-18T12:35:02.139Z</time></trkpt><trkpt lat="45.4465217" lon="10.709905"><ele>87.0</ele><time>2026-04-18T12:35:03.144Z</time></trkpt><trkpt lat="45.4464283" lon="10.70979"><ele>87.0</ele><time>2026-04-18T12:35:04.136Z</time></trkpt><trkpt lat="45.4463433" lon="10.7096433"><ele>87.0</ele><time>2026-04-18T12:35:05.152Z</time></trkpt><trkpt lat="45.44628" lon="10.7095"><ele>87.0</ele><time>2026-04-18T12:35:06.147Z</time></trkpt><trkpt lat="45.4462033" lon="10.7093683"><ele>87.0</ele><time>2026-04-18T12:35:07.15Z</time></trkpt><trkpt lat="45.4461433" lon="10.709235"><ele>87.0</ele><time>2026-04-18T12:35:08.137Z</time></trkpt><trkpt lat="45.4461033" lon="10.7090967"><ele>87.0</ele><time>2026-04-18T12:35:09.138Z</time></trkpt><trkpt lat="45.446045" lon="10.708995"><ele>87.0</ele><time>2026-04-18T12:35:10.144Z</time></trkpt><trkpt lat="45.445995" lon="10.708905"><ele>87.0</ele><time>2026-04-18T12:35:11.146Z</time></trkpt><trkpt lat="45.4459467" lon="10.7087967"><ele>87.0</ele><time>2026-04-18T12:35:12.141Z</time></trkpt><trkpt lat="45.4459083" lon="10.7086883"><ele>87.0</ele><time>2026-04-18T12:35:13.146Z</time></trkpt><trkpt lat="45.44589" lon="10.7085717"><ele>87.0</ele><time>2026-04-18T12:35:14.148Z</time></trkpt><trkpt lat="45.44588" lon="10.7084483"><ele>86.57142857142857</ele><time>2026-04-18T12:35:15.144Z</time></trkpt><trkpt lat="45.4458767" lon="10.708325"><ele>86.14285714285714</ele><time>2026-04-18T12:35:16.15Z</time></trkpt><trkpt lat="45.4458617" lon="10.7082167"><ele>85.71428571428572</ele><time>2026-04-18T12:35:17.142Z</time></trkpt><trkpt lat="45.4458317" lon="10.708125"><ele>85.28571428571428</ele><time>2026-04-18T12:35:18.156Z</time></trkpt><trkpt lat="45.4457883" lon="10.7080517"><ele>84.85714285714286</ele><time>2026-04-18T12:35:19.151Z</time></trkpt><trkpt lat="45.44573" lon="10.708"><ele>84.42857142857143</ele><time>2026-04-18T12:35:20.141Z</time></trkpt><trkpt lat="45.4456633" lon="10.707955"><ele>84.0</ele><time>2026-04-18T12:35:21.14Z</time></trkpt><trkpt lat="45.4455933" lon="10.7079017"><ele>84.0</ele><time>2026-04-18T12:35:22.144Z</time></trkpt><trkpt lat="45.445525" lon="10.7078367"><ele>84.0</ele><time>2026-04-18T12:35:23.15Z</time></trkpt><trkpt lat="45.4454617" lon="10.707755"><ele>84.0</ele><time>2026-04-18T12:35:24.146Z</time></trkpt><trkpt lat="45.4454017" lon="10.7076583"><ele>84.0</ele><time>2026-04-18T12:35:25.155Z</time></trkpt><trkpt lat="45.4453333" lon="10.707555"><ele>84.0</ele><time>2026-04-18T12:35:26.151Z</time></trkpt><trkpt lat="45.44526" lon="10.707445"><ele>84.25</ele><time>2026-04-18T12:35:27.144Z</time></trkpt><trkpt lat="45.445185" lon="10.7073183"><ele>84.5</ele><time>2026-04-18T12:35:28.146Z</time></trkpt><trkpt lat="45.44511" lon="10.707195"><ele>84.75</ele><time>2026-04-18T12:35:29.149Z</time></trkpt><trkpt lat="45.4450083" lon="10.7070767"><ele>85.0</ele><time>2026-04-18T12:35:30.137Z</time></trkpt><trkpt lat="45.4449333" lon="10.706965"><ele>84.83333333333333</ele><time>2026-04-18T12:35:31.141Z</time></trkpt><trkpt lat="45.44487" lon="10.7068667"><ele>84.66666666666666</ele><time>2026-04-18T12:35:32.141Z</time></trkpt><trkpt lat="45.4447983" lon="10.7067883"><ele>84.5</ele><time>2026-04-18T12:35:33.149Z</time></trkpt><trkpt lat="45.4447267" lon="10.7067183"><ele>84.33333333333333</ele><time>2026-04-18T12:35:34.137Z</time></trkpt><trkpt lat="45.4446567" lon="10.7066533"><ele>84.16666666666667</ele><time>2026-04-18T12:35:35.147Z</time></trkpt><trkpt lat="45.4445883" lon="10.706585"><ele>84.0</ele><time>2026-04-18T12:35:36.152Z</time></trkpt><trkpt lat="45.44452" lon="10.7065117"><ele>84.0</ele><time>2026-04-18T12:35:37.145Z</time></trkpt><trkpt lat="45.4444483" lon="10.7064383"><ele>84.0</ele><time>2026-04-18T12:35:38.14Z</time></trkpt><trkpt lat="45.4443767" lon="10.7063667"><ele>84.0</ele><time>2026-04-18T12:35:39.138Z</time></trkpt><trkpt lat="45.4443017" lon="10.7062917"><ele>84.0</ele><time>2026-04-18T12:35:40.143Z</time></trkpt><trkpt lat="45.4442233" lon="10.7062033"><ele>84.0</ele><time>2026-04-18T12:35:41.142Z</time></trkpt><trkpt lat="45.4441417" lon="10.7061067"><ele>84.2</ele><time>2026-04-18T12:35:42.142Z</time></trkpt><trkpt lat="45.4440567" lon="10.706015"><ele>84.4</ele><time>2026-04-18T12:35:43.139Z</time></trkpt><trkpt lat="45.4439683" lon="10.70593"><ele>84.6</ele><time>2026-04-18T12:35:44.142Z</time></trkpt><trkpt lat="45.443885" lon="10.70584"><ele>84.8</ele><time>2026-04-18T12:35:45.141Z</time></trkpt><trkpt lat="45.4438017" lon="10.705755"><ele>85.0</ele><time>2026-04-18T12:35:46.138Z</time></trkpt><trkpt lat="45.4437183" lon="10.705665"><ele>85.0</ele><time>2026-04-18T12:35:47.154Z</time></trkpt><trkpt lat="45.4436383" lon="10.70557"><ele>85.0</ele><time>2026-04-18T12:35:48.14Z</time></trkpt><trkpt lat="45.443555" lon="10.70548"><ele>85.0</ele><time>2026-04-18T12:35:49.142Z</time></trkpt><trkpt lat="45.4434683" lon="10.7053833"><ele>85.0</ele><time>2026-04-18T12:35:50.138Z</time></trkpt><trkpt lat="45.4433867" lon="10.7052733"><ele>85.0</ele><time>2026-04-18T12:35:51.143Z</time></trkpt><trkpt lat="45.4433067" lon="10.7051483"><ele>83.75</ele><time>2026-04-18T12:35:52.142Z</time></trkpt><trkpt lat="45.443225" lon="10.705015"><ele>82.5</ele><time>2026-04-18T12:35:53.152Z</time></trkpt><trkpt lat="45.4431633" lon="10.7048667"><ele>81.25</ele><time>2026-04-18T12:35:54.141Z</time></trkpt><trkpt lat="45.443095" lon="10.70473"><ele>80.0</ele><time>2026-04-18T12:35:55.175Z</time></trkpt><trkpt lat="45.44303" lon="10.704595"><ele>80.0</ele><time>2026-04-18T12:35:56.14Z</time></trkpt><trkpt lat="45.442975" lon="10.70445"><ele>80.0</ele><time>2026-04-18T12:35:57.147Z</time></trkpt><trkpt lat="45.442915" lon="10.7043133"><ele>80.0</ele><time>2026-04-18T12:35:58.155Z</time></trkpt><trkpt lat="45.44286" lon="10.7041583"><ele>80.0</ele><time>2026-04-18T12:35:59.17Z</time></trkpt><trkpt lat="45.4428117" lon="10.704005"><ele>78.6</ele><time>2026-04-18T12:36:00.143Z</time></trkpt><trkpt lat="45.4427783" lon="10.7038733"><ele>77.2</ele><time>2026-04-18T12:36:01.138Z</time></trkpt><trkpt lat="45.4427417" lon="10.70375"><ele>75.8</ele><time>2026-04-18T12:36:02.149Z</time></trkpt><trkpt lat="45.4427133" lon="10.7036333"><ele>74.4</ele><time>2026-04-18T12:36:03.143Z</time></trkpt><trkpt lat="45.4426783" lon="10.7035217"><ele>73.0</ele><time>2026-04-18T12:36:04.144Z</time></trkpt><trkpt lat="45.442645" lon="10.7034"><ele>72.8</ele><time>2026-04-18T12:36:05.136Z</time></trkpt><trkpt lat="45.4426083" lon="10.7032783"><ele>72.6</ele><time>2026-04-18T12:36:06.151Z</time></trkpt><trkpt lat="45.44258" lon="10.7031367"><ele>72.4</ele><time>2026-04-18T12:36:07.147Z</time></trkpt><trkpt lat="45.442535" lon="10.702995"><ele>72.2</ele><time>2026-04-18T12:36:08.142Z</time></trkpt><trkpt lat="45.4424833" lon="10.7028483"><ele>72.0</ele><time>2026-04-18T12:36:09.143Z</time></trkpt><trkpt lat="45.4424333" lon="10.7027283"><ele>71.8</ele><time>2026-04-18T12:36:10.142Z</time></trkpt><trkpt lat="45.44238" lon="10.7026"><ele>71.6</ele><time>2026-04-18T12:36:11.143Z</time></trkpt><trkpt lat="45.44232" lon="10.7024933"><ele>71.39999999999999</ele><time>2026-04-18T12:36:12.139Z</time></trkpt><trkpt lat="45.4422783" lon="10.7023833"><ele>71.2</ele><time>2026-04-18T12:36:13.148Z</time></trkpt><trkpt lat="45.4422283" lon="10.7022783"><ele>71.0</ele><time>2026-04-18T12:36:14.138Z</time></trkpt><trkpt lat="45.442175" lon="10.7021767"><ele>70.8</ele><time>2026-04-18T12:36:15.149Z</time></trkpt><trkpt lat="45.44213" lon="10.7020817"><ele>70.6</ele><time>2026-04-18T12:36:16.139Z</time></trkpt><trkpt lat="45.4420867" lon="10.7019933"><ele>70.4</ele><time>2026-04-18T12:36:17.133Z</time></trkpt><trkpt lat="45.4420467" lon="10.7019183"><ele>70.2</ele><time>2026-04-18T12:36:18.143Z</time></trkpt><trkpt lat="45.44197" lon="10.7018133"><ele>70.0</ele><time>2026-04-18T12:36:20.147Z</time></trkpt><trkpt lat="45.4418633" lon="10.7016967"><ele>70.0</ele><time>2026-04-18T12:36:22.15Z</time></trkpt><trkpt lat="45.4417867" lon="10.7016183"><ele>70.0</ele><time>2026-04-18T12:36:23.145Z</time></trkpt><trkpt lat="45.4416983" lon="10.7015533"><ele>70.0</ele><time>2026-04-18T12:36:24.153Z</time></trkpt><trkpt lat="45.441605" lon="10.7014717"><ele>70.0</ele><time>2026-04-18T12:36:25.143Z</time></trkpt><trkpt lat="45.441505" lon="10.7013717"><ele>70.0</ele><time>2026-04-18T12:36:26.136Z</time></trkpt><trkpt lat="45.4414117" lon="10.7012683"><ele>70.0</ele><time>2026-04-18T12:36:27.155Z</time></trkpt><trkpt lat="45.4413217" lon="10.7011667"><ele>70.0</ele><time>2026-04-18T12:36:28.142Z</time></trkpt><trkpt lat="45.441235" lon="10.701065"><ele>70.0</ele><time>2026-04-18T12:36:29.145Z</time></trkpt><trkpt lat="45.44119" lon="10.7009483"><ele>70.0</ele><time>2026-04-18T12:36:30.149Z</time></trkpt><trkpt lat="45.4410983" lon="10.7008783"><ele>70.0</ele><time>2026-04-18T12:36:31.141Z</time></trkpt><trkpt lat="45.4410033" lon="10.7007883"><ele>70.2</ele><time>2026-04-18T12:36:32.149Z</time></trkpt><trkpt lat="45.440915" lon="10.7006967"><ele>70.4</ele><time>2026-04-18T12:36:33.143Z</time></trkpt><trkpt lat="45.4408317" lon="10.7006117"><ele>70.6</ele><time>2026-04-18T12:36:34.145Z</time></trkpt><trkpt lat="45.4407533" lon="10.700525"><ele>70.8</ele><time>2026-04-18T12:36:35.141Z</time></trkpt><trkpt lat="45.4406767" lon="10.7004417"><ele>71.0</ele><time>2026-04-18T12:36:36.152Z</time></trkpt><trkpt lat="45.44059" lon="10.70037"><ele>71.0</ele><time>2026-04-18T12:36:37.155Z</time></trkpt><trkpt lat="45.4405267" lon="10.70028"><ele>71.0</ele><time>2026-04-18T12:36:38.139Z</time></trkpt><trkpt lat="45.4404617" lon="10.7001883"><ele>71.0</ele><time>2026-04-18T12:36:39.143Z</time></trkpt><trkpt lat="45.4403883" lon="10.7001133"><ele>71.0</ele><time>2026-04-18T12:36:40.139Z</time></trkpt><trkpt lat="45.4403517" lon="10.7000083"><ele>71.0</ele><time>2026-04-18T12:36:41.139Z</time></trkpt><trkpt lat="45.44032" lon="10.6999117"><ele>71.0</ele><time>2026-04-18T12:36:42.144Z</time></trkpt><trkpt lat="45.4403033" lon="10.6998067"><ele>70.71428571428571</ele><time>2026-04-18T12:36:43.139Z</time></trkpt><trkpt lat="45.4402917" lon="10.6996967"><ele>70.42857142857142</ele><time>2026-04-18T12:36:44.146Z</time></trkpt><trkpt lat="45.4402867" lon="10.6995917"><ele>70.14285714285714</ele><time>2026-04-18T12:36:45.137Z</time></trkpt><trkpt lat="45.4403033" lon="10.6995017"><ele>69.85714285714286</ele><time>2026-04-18T12:36:46.134Z</time></trkpt><trkpt lat="45.440325" lon="10.6994067"><ele>69.57142857142858</ele><time>2026-04-18T12:36:47.139Z</time></trkpt><trkpt lat="45.4403517" lon="10.69932"><ele>69.28571428571429</ele><time>2026-04-18T12:36:48.14Z</time></trkpt><trkpt lat="45.44038" lon="10.6992333"><ele>69.0</ele><time>2026-04-18T12:36:49.159Z</time></trkpt><trkpt lat="45.4404033" lon="10.6991417"><ele>68.4</ele><time>2026-04-18T12:36:50.136Z</time></trkpt><trkpt lat="45.4404167" lon="10.6990533"><ele>67.80000000000001</ele><time>2026-04-18T12:36:51.146Z</time></trkpt><trkpt lat="45.4404417" lon="10.6988867"><ele>67.19999999999999</ele><time>2026-04-18T12:36:53.141Z</time></trkpt><trkpt lat="45.4404783" lon="10.6987317"><ele>66.6</ele><time>2026-04-18T12:36:55.137Z</time></trkpt><trkpt lat="45.4405367" lon="10.69859"><ele>66.0</ele><time>2026-04-18T12:36:57.142Z</time></trkpt><trkpt lat="45.440605" lon="10.698455"><ele>65.8</ele><time>2026-04-18T12:36:59.14Z</time></trkpt><trkpt lat="45.44067" lon="10.6983233"><ele>65.6</ele><time>2026-04-18T12:37:01.143Z</time></trkpt><trkpt lat="45.4407017" lon="10.6981883"><ele>65.4</ele><time>2026-04-18T12:37:03.137Z</time></trkpt><trkpt lat="45.4407117" lon="10.698055"><ele>65.2</ele><time>2026-04-18T12:37:05.153Z</time></trkpt><trkpt lat="45.4407117" lon="10.6979283"><ele>65.0</ele><time>2026-04-18T12:37:07.141Z</time></trkpt><trkpt lat="45.44071" lon="10.6977933"><ele>65.0</ele><time>2026-04-18T12:37:09.138Z</time></trkpt><trkpt lat="45.4407083" lon="10.697655"><ele>65.0</ele><time>2026-04-18T12:37:11.141Z</time></trkpt><trkpt lat="45.4407067" lon="10.6975167"><ele>65.0</ele><time>2026-04-18T12:37:13.149Z</time></trkpt><trkpt lat="45.4407067" lon="10.697375"><ele>65.0</ele><time>2026-04-18T12:37:15.145Z</time></trkpt><trkpt lat="45.4407017" lon="10.6972417"><ele>65.0</ele><time>2026-04-18T12:37:17.135Z</time></trkpt><trkpt lat="45.4406933" lon="10.6970967"><ele>65.0</ele><time>2026-04-18T12:37:19.143Z</time></trkpt><trkpt lat="45.44068" lon="10.6969967"><ele>65.0</ele><time>2026-04-18T12:37:20.138Z</time></trkpt><trkpt lat="45.4406583" lon="10.696875"><ele>65.0</ele><time>2026-04-18T12:37:21.149Z</time></trkpt><trkpt lat="45.4406283" lon="10.69676"><ele>65.0</ele><time>2026-04-18T12:37:22.146Z</time></trkpt><trkpt lat="45.4405883" lon="10.696665"><ele>65.0</ele><time>2026-04-18T12:37:23.133Z</time></trkpt><trkpt lat="45.4405117" lon="10.6965467"><ele>65.0</ele><time>2026-04-18T12:37:25.142Z</time></trkpt><trkpt lat="45.4404383" lon="10.69648"><ele>65.33333333333334</ele><time>2026-04-18T12:37:27.146Z</time></trkpt><trkpt lat="45.4403767" lon="10.696435"><ele>65.66666666666667</ele><time>2026-04-18T12:37:29.142Z</time></trkpt><trkpt lat="45.4402917" lon="10.6964033"><ele>66.0</ele><time>2026-04-18T12:37:32.141Z</time></trkpt><trkpt lat="45.4402167" lon="10.69637"><ele>66.33333333333333</ele><time>2026-04-18T12:37:34.138Z</time></trkpt><trkpt lat="45.4401533" lon="10.6963283"><ele>66.66666666666666</ele><time>2026-04-18T12:37:36.143Z</time></trkpt><trkpt lat="45.4400867" lon="10.6962667"><ele>67.0</ele><time>2026-04-18T12:37:46.14Z</time></trkpt><trkpt lat="45.4400167" lon="10.6962"><ele>67.0</ele><time>2026-04-18T12:37:49.136Z</time></trkpt><trkpt lat="45.439945" lon="10.6961567"><ele>67.0</ele><time>2026-04-18T12:37:51.138Z</time></trkpt><trkpt lat="45.439865" lon="10.6960983"><ele>67.0</ele><time>2026-04-18T12:37:53.143Z</time></trkpt><trkpt lat="45.4397917" lon="10.696035"><ele>67.0</ele><time>2026-04-18T12:37:55.135Z</time></trkpt><trkpt lat="45.4397383" lon="10.6959867"><ele>67.0</ele><time>2026-04-18T12:37:57.14Z</time></trkpt><trkpt lat="45.43968" lon="10.6959467"><ele>67.0</ele><time>2026-04-18T12:37:59.141Z</time></trkpt><trkpt lat="45.4396017" lon="10.69588"><ele>67.0</ele><time>2026-04-18T12:38:01.145Z</time></trkpt><trkpt lat="45.4395083" lon="10.6957983"><ele>67.0</ele><time>2026-04-18T12:38:03.147Z</time></trkpt><trkpt lat="45.4394483" lon="10.69569"><ele>67.0</ele><time>2026-04-18T12:38:05.135Z</time></trkpt><trkpt lat="45.439425" lon="10.6955417"><ele>67.0</ele><time>2026-04-18T12:38:07.136Z</time></trkpt><trkpt lat="45.4394383" lon="10.6953767"><ele>67.0</ele><time>2026-04-18T12:38:09.137Z</time></trkpt><trkpt lat="45.43947" lon="10.6952083"><ele>67.4</ele><time>2026-04-18T12:38:11.137Z</time></trkpt><trkpt lat="45.4395033" lon="10.69505"><ele>67.80000000000001</ele><time>2026-04-18T12:38:13.132Z</time></trkpt><trkpt lat="45.43953" lon="10.6948733"><ele>68.2</ele><time>2026-04-18T12:38:15.149Z</time></trkpt><trkpt lat="45.4395483" lon="10.694775"><ele>68.60000000000001</ele><time>2026-04-18T12:38:16.144Z</time></trkpt><trkpt lat="45.4395733" lon="10.6946767"><ele>69.0</ele><time>2026-04-18T12:38:17.141Z</time></trkpt><trkpt lat="45.4395983" lon="10.69458"><ele>69.0</ele><time>2026-04-18T12:38:18.141Z</time></trkpt><trkpt lat="45.43963" lon="10.694435"><ele>69.0</ele><time>2026-04-18T12:38:20.135Z</time></trkpt><trkpt lat="45.439645" lon="10.6943467"><ele>69.0</ele><time>2026-04-18T12:38:23.154Z</time></trkpt><trkpt lat="45.43967" lon="10.69425"><ele>69.0</ele><time>2026-04-18T12:38:26.143Z</time></trkpt><trkpt lat="45.4397117" lon="10.6941183"><ele>69.0</ele><time>2026-04-18T12:38:28.15Z</time></trkpt><trkpt lat="45.4397483" lon="10.6939617"><ele>69.0</ele><time>2026-04-18T12:38:30.138Z</time></trkpt><trkpt lat="45.4397917" lon="10.6938417"><ele>69.0</ele><time>2026-04-18T12:38:32.147Z</time></trkpt><trkpt lat="45.4398367" lon="10.6937117"><ele>69.0</ele><time>2026-04-18T12:38:35.136Z</time></trkpt><trkpt lat="45.43985" lon="10.6935667"><ele>69.0</ele><time>2026-04-18T12:38:37.139Z</time></trkpt><trkpt lat="45.4398183" lon="10.6934267"><ele>69.0</ele><time>2026-04-18T12:38:39.138Z</time></trkpt><trkpt lat="45.43978" lon="10.6933383"><ele>68.8</ele><time>2026-04-18T12:38:41.135Z</time></trkpt><trkpt lat="45.4397083" lon="10.6932383"><ele>68.60000000000001</ele><time>2026-04-18T12:38:43.152Z</time></trkpt><trkpt lat="45.4396133" lon="10.693145"><ele>68.4</ele><time>2026-04-18T12:38:45.137Z</time></trkpt><trkpt lat="45.4395267" lon="10.6930567"><ele>68.2</ele><time>2026-04-18T12:38:47.14Z</time></trkpt><trkpt lat="45.4394567" lon="10.6929933"><ele>68.0</ele><time>2026-04-18T12:38:49.147Z</time></trkpt><trkpt lat="45.4393967" lon="10.692955"><ele>68.33333333333334</ele><time>2026-04-18T12:38:51.139Z</time></trkpt><trkpt lat="45.4393233" lon="10.6929083"><ele>68.66666666666667</ele><time>2026-04-18T12:38:54.146Z</time></trkpt><trkpt lat="45.439255" lon="10.6928233"><ele>69.0</ele><time>2026-04-18T12:38:57.14Z</time></trkpt><trkpt lat="45.439235" lon="10.6927217"><ele>69.33333333333333</ele><time>2026-04-18T12:38:59.146Z</time></trkpt><trkpt lat="45.43924" lon="10.692595"><ele>69.66666666666666</ele><time>2026-04-18T12:39:01.14Z</time></trkpt><trkpt lat="45.4392717" lon="10.692445"><ele>70.0</ele><time>2026-04-18T12:39:03.136Z</time></trkpt><trkpt lat="45.4393033" lon="10.692285"><ele>70.0</ele><time>2026-04-18T12:39:05.143Z</time></trkpt><trkpt lat="45.4393433" lon="10.6921317"><ele>70.0</ele><time>2026-04-18T12:39:07.145Z</time></trkpt><trkpt lat="45.439385" lon="10.6919967"><ele>70.0</ele><time>2026-04-18T12:39:09.157Z</time></trkpt><trkpt lat="45.43942" lon="10.6918833"><ele>70.0</ele><time>2026-04-18T12:39:11.142Z</time></trkpt><trkpt lat="45.4394567" lon="10.69179"><ele>70.0</ele><time>2026-04-18T12:39:13.154Z</time></trkpt><trkpt lat="45.43949" lon="10.691705"><ele>70.0</ele><time>2026-04-18T12:39:15.134Z</time></trkpt><trkpt lat="45.439525" lon="10.691625"><ele>69.85714285714286</ele><time>2026-04-18T12:39:18.144Z</time></trkpt><trkpt lat="45.4395567" lon="10.6915467"><ele>69.71428571428572</ele><time>2026-04-18T12:39:20.139Z</time></trkpt><trkpt lat="45.4396" lon="10.6914383"><ele>69.57142857142857</ele><time>2026-04-18T12:39:22.144Z</time></trkpt><trkpt lat="45.4396383" lon="10.69134"><ele>69.42857142857143</ele><time>2026-04-18T12:39:24.139Z</time></trkpt><trkpt lat="45.43967" lon="10.6912583"><ele>69.28571428571429</ele><time>2026-04-18T12:39:26.14Z</time></trkpt><trkpt lat="45.4397117" lon="10.6911783"><ele>69.14285714285714</ele><time>2026-04-18T12:39:29.146Z</time></trkpt><trkpt lat="45.439755" lon="10.6910833"><ele>69.0</ele><time>2026-04-18T12:39:32.137Z</time></trkpt><trkpt lat="45.439795" lon="10.6909967"><ele>68.33333333333333</ele><time>2026-04-18T12:39:34.141Z</time></trkpt><trkpt lat="45.43984" lon="10.690915"><ele>67.66666666666667</ele><time>2026-04-18T12:39:36.14Z</time></trkpt><trkpt lat="45.4398867" lon="10.6908383"><ele>67.0</ele><time>2026-04-18T12:39:38.14Z</time></trkpt><trkpt lat="45.4399317" lon="10.6907683"><ele>66.33333333333334</ele><time>2026-04-18T12:39:40.137Z</time></trkpt><trkpt lat="45.4399833" lon="10.69064"><ele>65.66666666666667</ele><time>2026-04-18T12:39:43.14Z</time></trkpt><trkpt lat="45.4400233" lon="10.6905183"><ele>65.0</ele><time>2026-04-18T12:39:45.143Z</time></trkpt><trkpt lat="45.44005" lon="10.6903783"><ele>65.33333333333334</ele><time>2026-04-18T12:39:47.137Z</time></trkpt><trkpt lat="45.4400883" lon="10.6902217"><ele>65.66666666666667</ele><time>2026-04-18T12:39:49.146Z</time></trkpt><trkpt lat="45.44011" lon="10.6901333"><ele>66.0</ele><time>2026-04-18T12:39:50.137Z</time></trkpt><trkpt lat="45.4401283" lon="10.6900383"><ele>66.33333333333333</ele><time>2026-04-18T12:39:51.138Z</time></trkpt><trkpt lat="45.440145" lon="10.6899367"><ele>66.66666666666666</ele><time>2026-04-18T12:39:52.14Z</time></trkpt><trkpt lat="45.44016" lon="10.6898283"><ele>67.0</ele><time>2026-04-18T12:39:53.146Z</time></trkpt><trkpt lat="45.4401733" lon="10.68972"><ele>67.0</ele><time>2026-04-18T12:39:54.133Z</time></trkpt><trkpt lat="45.4401883" lon="10.689495"><ele>67.0</ele><time>2026-04-18T12:39:56.14Z</time></trkpt><trkpt lat="45.4401933" lon="10.6893783"><ele>67.0</ele><time>2026-04-18T12:39:57.153Z</time></trkpt><trkpt lat="45.440195" lon="10.689265"><ele>67.0</ele><time>2026-04-18T12:39:58.136Z</time></trkpt><trkpt lat="45.4401883" lon="10.6891517"><ele>67.0</ele><time>2026-04-18T12:39:59.14Z</time></trkpt><trkpt lat="45.44016" lon="10.6890383"><ele>67.57142857142857</ele><time>2026-04-18T12:40:00.149Z</time></trkpt><trkpt lat="45.4401417" lon="10.6889417"><ele>68.14285714285714</ele><time>2026-04-18T12:40:01.147Z</time></trkpt><trkpt lat="45.4401233" lon="10.68885"><ele>68.71428571428571</ele><time>2026-04-18T12:40:02.139Z</time></trkpt><trkpt lat="45.4401117" lon="10.68876"><ele>69.28571428571428</ele><time>2026-04-18T12:40:03.139Z</time></trkpt><trkpt lat="45.4401" lon="10.6886667"><ele>69.85714285714285</ele><time>2026-04-18T12:40:04.137Z</time></trkpt><trkpt lat="45.44009" lon="10.6885733"><ele>70.42857142857143</ele><time>2026-04-18T12:40:05.146Z</time></trkpt><trkpt lat="45.440075" lon="10.68847"><ele>71.0</ele><time>2026-04-18T12:40:06.143Z</time></trkpt><trkpt lat="45.4400567" lon="10.6883667"><ele>71.33333333333334</ele><time>2026-04-18T12:40:07.157Z</time></trkpt><trkpt lat="45.44004" lon="10.6882583"><ele>71.66666666666667</ele><time>2026-04-18T12:40:08.143Z</time></trkpt><trkpt lat="45.4400233" lon="10.6881483"><ele>72.0</ele><time>2026-04-18T12:40:09.141Z</time></trkpt><trkpt lat="45.44001" lon="10.6880367"><ele>72.33333333333333</ele><time>2026-04-18T12:40:10.163Z</time></trkpt><trkpt lat="45.44" lon="10.6879333"><ele>72.66666666666666</ele><time>2026-04-18T12:40:11.14Z</time></trkpt><trkpt lat="45.43999" lon="10.6878283"><ele>73.0</ele><time>2026-04-18T12:40:12.143Z</time></trkpt><trkpt lat="45.4399767" lon="10.68772"><ele>73.0</ele><time>2026-04-18T12:40:13.135Z</time></trkpt><trkpt lat="45.43996" lon="10.6876167"><ele>73.0</ele><time>2026-04-18T12:40:14.147Z</time></trkpt><trkpt lat="45.4399433" lon="10.6875233"><ele>73.0</ele><time>2026-04-18T12:40:15.137Z</time></trkpt><trkpt lat="45.439925" lon="10.6874333"><ele>73.0</ele><time>2026-04-18T12:40:16.137Z</time></trkpt><trkpt lat="45.4399083" lon="10.6873467"><ele>73.0</ele><time>2026-04-18T12:40:17.14Z</time></trkpt><trkpt lat="45.4398883" lon="10.687205"><ele>73.0</ele><time>2026-04-18T12:40:19.139Z</time></trkpt><trkpt lat="45.4398867" lon="10.687075"><ele>73.0</ele><time>2026-04-18T12:40:21.14Z</time></trkpt><trkpt lat="45.4398833" lon="10.6869417"><ele>73.0</ele><time>2026-04-18T12:40:23.143Z</time></trkpt><trkpt lat="45.4398617" lon="10.68682"><ele>73.0</ele><time>2026-04-18T12:40:25.141Z</time></trkpt><trkpt lat="45.43984" lon="10.6866617"><ele>73.0</ele><time>2026-04-18T12:40:27.147Z</time></trkpt><trkpt lat="45.4398317" lon="10.6865617"><ele>73.0</ele><time>2026-04-18T12:40:28.147Z</time></trkpt><trkpt lat="45.4398267" lon="10.6864583"><ele>73.0</ele><time>2026-04-18T12:40:29.138Z</time></trkpt><trkpt lat="45.4398267" lon="10.6863483"><ele>73.5</ele><time>2026-04-18T12:40:30.141Z</time></trkpt><trkpt lat="45.4398317" lon="10.6862433"><ele>74.0</ele><time>2026-04-18T12:40:31.142Z</time></trkpt><trkpt lat="45.4398417" lon="10.6861367"><ele>74.5</ele><time>2026-04-18T12:40:32.166Z</time></trkpt><trkpt lat="45.43986" lon="10.6860333"><ele>75.0</ele><time>2026-04-18T12:40:33.139Z</time></trkpt><trkpt lat="45.4398817" lon="10.685925"><ele>75.5</ele><time>2026-04-18T12:40:34.138Z</time></trkpt><trkpt lat="45.4399033" lon="10.685815"><ele>76.0</ele><time>2026-04-18T12:40:35.138Z</time></trkpt><trkpt lat="45.43992" lon="10.685705"><ele>76.16666666666666</ele><time>2026-04-18T12:40:36.14Z</time></trkpt><trkpt lat="45.439945" lon="10.685595"><ele>76.33333333333333</ele><time>2026-04-18T12:40:37.14Z</time></trkpt><trkpt lat="45.4399783" lon="10.685485"><ele>76.5</ele><time>2026-04-18T12:40:38.143Z</time></trkpt><trkpt lat="45.4400083" lon="10.6853717"><ele>76.66666666666667</ele><time>2026-04-18T12:40:39.148Z</time></trkpt><trkpt lat="45.4400417" lon="10.68525"><ele>76.83333333333334</ele><time>2026-04-18T12:40:40.141Z</time></trkpt><trkpt lat="45.4400733" lon="10.6851267"><ele>77.0</ele><time>2026-04-18T12:40:41.143Z</time></trkpt><trkpt lat="45.4401" lon="10.68498"><ele>77.0</ele><time>2026-04-18T12:40:42.153Z</time></trkpt><trkpt lat="45.4401217" lon="10.6848467"><ele>77.0</ele><time>2026-04-18T12:40:43.144Z</time></trkpt><trkpt lat="45.4401717" lon="10.6847167"><ele>77.0</ele><time>2026-04-18T12:40:44.141Z</time></trkpt><trkpt lat="45.440205" lon="10.68455"><ele>77.0</ele><time>2026-04-18T12:40:45.143Z</time></trkpt><trkpt lat="45.4402383" lon="10.6844"><ele>77.0</ele><time>2026-04-18T12:40:46.147Z</time></trkpt><trkpt lat="45.4402833" lon="10.68426"><ele>77.75</ele><time>2026-04-18T12:40:47.139Z</time></trkpt><trkpt lat="45.4403267" lon="10.6841383"><ele>78.5</ele><time>2026-04-18T12:40:48.136Z</time></trkpt><trkpt lat="45.4403483" lon="10.6839717"><ele>79.25</ele><time>2026-04-18T12:40:49.153Z</time></trkpt><trkpt lat="45.44039" lon="10.68383"><ele>80.0</ele><time>2026-04-18T12:40:50.146Z</time></trkpt><trkpt lat="45.440435" lon="10.6836583"><ele>80.5</ele><time>2026-04-18T12:40:51.143Z</time></trkpt><trkpt lat="45.4404617" lon="10.6835033"><ele>81.0</ele><time>2026-04-18T12:40:52.15Z</time></trkpt><trkpt lat="45.440495" lon="10.6833517"><ele>81.5</ele><time>2026-04-18T12:40:53.142Z</time></trkpt><trkpt lat="45.440525" lon="10.683195"><ele>82.0</ele><time>2026-04-18T12:40:54.14Z</time></trkpt><trkpt lat="45.4405883" lon="10.683055"><ele>82.19999999999999</ele><time>2026-04-18T12:40:55.136Z</time></trkpt><trkpt lat="45.4406517" lon="10.6829167"><ele>82.4</ele><time>2026-04-18T12:40:56.147Z</time></trkpt><trkpt lat="45.4406933" lon="10.6827683"><ele>82.6</ele><time>2026-04-18T12:40:57.158Z</time></trkpt><trkpt lat="45.4407317" lon="10.68263"><ele>82.80000000000001</ele><time>2026-04-18T12:40:58.135Z</time></trkpt><trkpt lat="45.4407683" lon="10.682515"><ele>83.0</ele><time>2026-04-18T12:40:59.143Z</time></trkpt><trkpt lat="45.440795" lon="10.6824067"><ele>83.33333333333334</ele><time>2026-04-18T12:41:00.149Z</time></trkpt><trkpt lat="45.4408183" lon="10.6823167"><ele>83.66666666666667</ele><time>2026-04-18T12:41:01.139Z</time></trkpt><trkpt lat="45.440845" lon="10.6821733"><ele>84.0</ele><time>2026-04-18T12:41:03.133Z</time></trkpt><trkpt lat="45.440875" lon="10.682065"><ele>84.33333333333333</ele><time>2026-04-18T12:41:05.14Z</time></trkpt><trkpt lat="45.4409067" lon="10.6819317"><ele>84.66666666666666</ele><time>2026-04-18T12:41:07.138Z</time></trkpt><trkpt lat="45.4409283" lon="10.6818433"><ele>85.0</ele><time>2026-04-18T12:41:08.141Z</time></trkpt><trkpt lat="45.44095" lon="10.68174"><ele>85.33333333333333</ele><time>2026-04-18T12:41:09.14Z</time></trkpt><trkpt lat="45.440975" lon="10.681625"><ele>85.66666666666666</ele><time>2026-04-18T12:41:10.165Z</time></trkpt><trkpt lat="45.4409983" lon="10.6815067"><ele>86.0</ele><time>2026-04-18T12:41:11.147Z</time></trkpt><trkpt lat="45.441025" lon="10.6814017"><ele>86.33333333333333</ele><time>2026-04-18T12:41:12.142Z</time></trkpt><trkpt lat="45.4410333" lon="10.6812633"><ele>86.66666666666667</ele><time>2026-04-18T12:41:14.139Z</time></trkpt><trkpt lat="45.440955" lon="10.6812417"><ele>87.0</ele><time>2026-04-18T12:41:17.143Z</time></trkpt><trkpt lat="45.4409283" lon="10.6814817"><ele>87.0</ele><time>2026-04-18T12:41:20.138Z</time></trkpt><trkpt lat="45.44093" lon="10.681585"><ele>87.0</ele><time>2026-04-18T12:41:21.149Z</time></trkpt><trkpt lat="45.4409117" lon="10.681695"><ele>87.0</ele><time>2026-04-18T12:41:22.141Z</time></trkpt><trkpt lat="45.4408933" lon="10.6818067"><ele>87.0</ele><time>2026-04-18T12:41:23.138Z</time></trkpt><trkpt lat="45.4408717" lon="10.6819067"><ele>87.0</ele><time>2026-04-18T12:41:24.138Z</time></trkpt><trkpt lat="45.4408533" lon="10.6820033"><ele>87.0</ele><time>2026-04-18T12:41:25.135Z</time></trkpt><trkpt lat="45.440835" lon="10.6820933"><ele>87.0</ele><time>2026-04-18T12:41:26.144Z</time></trkpt><trkpt lat="45.4408217" lon="10.682185"><ele>86.6</ele><time>2026-04-18T12:41:27.139Z</time></trkpt><trkpt lat="45.4408017" lon="10.682275"><ele>86.19999999999999</ele><time>2026-04-18T12:41:28.138Z</time></trkpt><trkpt lat="45.440775" lon="10.682385"><ele>85.8</ele><time>2026-04-18T12:41:29.145Z</time></trkpt><trkpt lat="45.4407417" lon="10.6825083"><ele>85.4</ele><time>2026-04-18T12:41:30.148Z</time></trkpt><trkpt lat="45.4407033" lon="10.6826583"><ele>85.0</ele><time>2026-04-18T12:41:31.151Z</time></trkpt><trkpt lat="45.4406583" lon="10.6828033"><ele>84.5</ele><time>2026-04-18T12:41:32.141Z</time></trkpt><trkpt lat="45.4406217" lon="10.6829667"><ele>84.0</ele><time>2026-04-18T12:41:33.144Z</time></trkpt><trkpt lat="45.4405967" lon="10.683135"><ele>83.5</ele><time>2026-04-18T12:41:34.144Z</time></trkpt><trkpt lat="45.4405533" lon="10.6833067"><ele>83.0</ele><time>2026-04-18T12:41:35.134Z</time></trkpt><trkpt lat="45.4405033" lon="10.68348"><ele>82.25</ele><time>2026-04-18T12:41:36.138Z</time></trkpt><trkpt lat="45.440445" lon="10.6836517"><ele>81.5</ele><time>2026-04-18T12:41:37.142Z</time></trkpt><trkpt lat="45.4403983" lon="10.6838283"><ele>80.75</ele><time>2026-04-18T12:41:38.142Z</time></trkpt><trkpt lat="45.4403467" lon="10.684"><ele>80.0</ele><time>2026-04-18T12:41:39.163Z</time></trkpt><trkpt lat="45.4403133" lon="10.6841717"><ele>80.0</ele><time>2026-04-18T12:41:40.141Z</time></trkpt><trkpt lat="45.4402733" lon="10.6843167"><ele>80.0</ele><time>2026-04-18T12:41:41.147Z</time></trkpt><trkpt lat="45.4402283" lon="10.684445"><ele>80.0</ele><time>2026-04-18T12:41:42.146Z</time></trkpt><trkpt lat="45.4401983" lon="10.6845683"><ele>80.0</ele><time>2026-04-18T12:41:43.144Z</time></trkpt><trkpt lat="45.4401617" lon="10.6847067"><ele>80.0</ele><time>2026-04-18T12:41:44.144Z</time></trkpt><trkpt lat="45.44012" lon="10.68484"><ele>79.6</ele><time>2026-04-18T12:41:45.141Z</time></trkpt><trkpt lat="45.4400867" lon="10.68498"><ele>79.2</ele><time>2026-04-18T12:41:46.14Z</time></trkpt><trkpt lat="45.4400383" lon="10.6850917"><ele>78.8</ele><time>2026-04-18T12:41:47.152Z</time></trkpt><trkpt lat="45.44001" lon="10.6852083"><ele>78.4</ele><time>2026-04-18T12:41:48.134Z</time></trkpt><trkpt lat="45.43998" lon="10.68533"><ele>78.0</ele><time>2026-04-18T12:41:49.143Z</time></trkpt><trkpt lat="45.4399467" lon="10.68546"><ele>78.0</ele><time>2026-04-18T12:41:50.142Z</time></trkpt><trkpt lat="45.4399167" lon="10.685585"><ele>78.0</ele><time>2026-04-18T12:41:51.139Z</time></trkpt><trkpt lat="45.4398733" lon="10.6857117"><ele>78.0</ele><time>2026-04-18T12:41:52.141Z</time></trkpt><trkpt lat="45.4398483" lon="10.6858367"><ele>78.0</ele><time>2026-04-18T12:41:53.143Z</time></trkpt><trkpt lat="45.4398267" lon="10.6859583"><ele>78.0</ele><time>2026-04-18T12:41:54.136Z</time></trkpt><trkpt lat="45.4398033" lon="10.686055"><ele>78.0</ele><time>2026-04-18T12:41:55.147Z</time></trkpt><trkpt lat="45.4397733" lon="10.68615"><ele>77.66666666666667</ele><time>2026-04-18T12:41:56.145Z</time></trkpt><trkpt lat="45.4397483" lon="10.6862433"><ele>77.33333333333333</ele><time>2026-04-18T12:41:57.135Z</time></trkpt><trkpt lat="45.4397267" lon="10.68633"><ele>77.0</ele><time>2026-04-18T12:41:58.144Z</time></trkpt><trkpt lat="45.4396933" lon="10.6864833"><ele>76.66666666666666</ele><time>2026-04-18T12:42:00.161Z</time></trkpt><trkpt lat="45.4396617" lon="10.6865817"><ele>76.33333333333333</ele><time>2026-04-18T12:42:02.143Z</time></trkpt><trkpt lat="45.4396283" lon="10.68671"><ele>76.0</ele><time>2026-04-18T12:42:04.142Z</time></trkpt><trkpt lat="45.4395833" lon="10.6868967"><ele>76.39999999999999</ele><time>2026-04-18T12:42:06.145Z</time></trkpt><trkpt lat="45.4395583" lon="10.6870017"><ele>76.8</ele><time>2026-04-18T12:42:07.141Z</time></trkpt><trkpt lat="45.439535" lon="10.6871033"><ele>77.19999999999999</ele><time>2026-04-18T12:42:08.146Z</time></trkpt><trkpt lat="45.43951" lon="10.687195"><ele>77.6</ele><time>2026-04-18T12:42:09.146Z</time></trkpt><trkpt lat="45.4394467" lon="10.6873317"><ele>78.0</ele><time>2026-04-18T12:42:11.149Z</time></trkpt><trkpt lat="45.4393267" lon="10.6873383"><ele>78.0</ele><time>2026-04-18T12:42:13.141Z</time></trkpt><trkpt lat="45.4392567" lon="10.6873033"><ele>78.0</ele><time>2026-04-18T12:42:14.148Z</time></trkpt><trkpt lat="45.43918" lon="10.68724"><ele>78.0</ele><time>2026-04-18T12:42:15.141Z</time></trkpt><trkpt lat="45.4391033" lon="10.6871567"><ele>78.0</ele><time>2026-04-18T12:42:16.144Z</time></trkpt><trkpt lat="45.43901" lon="10.6870683"><ele>78.0</ele><time>2026-04-18T12:42:17.14Z</time></trkpt><trkpt lat="45.4389183" lon="10.6869833"><ele>78.4</ele><time>2026-04-18T12:42:18.139Z</time></trkpt><trkpt lat="45.438825" lon="10.6869117"><ele>78.8</ele><time>2026-04-18T12:42:19.141Z</time></trkpt><trkpt lat="45.438725" lon="10.6868333"><ele>79.2</ele><time>2026-04-18T12:42:20.14Z</time></trkpt><trkpt lat="45.43861" lon="10.6867717"><ele>79.6</ele><time>2026-04-18T12:42:21.134Z</time></trkpt><trkpt lat="45.4385217" lon="10.6867"><ele>80.0</ele><time>2026-04-18T12:42:22.138Z</time></trkpt><trkpt lat="45.4384217" lon="10.6866067"><ele>80.8</ele><time>2026-04-18T12:42:23.131Z</time></trkpt><trkpt lat="45.4383283" lon="10.6865317"><ele>81.6</ele><time>2026-04-18T12:42:24.139Z</time></trkpt><trkpt lat="45.4382333" lon="10.6864183"><ele>82.4</ele><time>2026-04-18T12:42:25.147Z</time></trkpt><trkpt lat="45.4381317" lon="10.6863883"><ele>83.2</ele><time>2026-04-18T12:42:26.139Z</time></trkpt><trkpt lat="45.4380367" lon="10.686325"><ele>84.0</ele><time>2026-04-18T12:42:27.136Z</time></trkpt><trkpt lat="45.4379483" lon="10.68624"><ele>84.6</ele><time>2026-04-18T12:42:28.142Z</time></trkpt><trkpt lat="45.4378617" lon="10.6861183"><ele>85.2</ele><time>2026-04-18T12:42:29.15Z</time></trkpt><trkpt lat="45.4377767" lon="10.6860417"><ele>85.8</ele><time>2026-04-18T12:42:30.136Z</time></trkpt><trkpt lat="45.4376867" lon="10.6859733"><ele>86.39999999999999</ele><time>2026-04-18T12:42:31.145Z</time></trkpt><trkpt lat="45.437585" lon="10.6859083"><ele>87.0</ele><time>2026-04-18T12:42:32.143Z</time></trkpt><trkpt lat="45.4374833" lon="10.6858383"><ele>87.0</ele><time>2026-04-18T12:42:33.14Z</time></trkpt><trkpt lat="45.4373817" lon="10.6857783"><ele>87.0</ele><time>2026-04-18T12:42:34.14Z</time></trkpt><trkpt lat="45.4372883" lon="10.6857233"><ele>87.0</ele><time>2026-04-18T12:42:35.137Z</time></trkpt><trkpt lat="45.437215" lon="10.6856267"><ele>87.0</ele><time>2026-04-18T12:42:36.138Z</time></trkpt><trkpt lat="45.4371567" lon="10.6855167"><ele>87.0</ele><time>2026-04-18T12:42:37.142Z</time></trkpt><trkpt lat="45.4371167" lon="10.685405"><ele>87.6</ele><time>2026-04-18T12:42:38.141Z</time></trkpt><trkpt lat="45.43708" lon="10.6852783"><ele>88.19999999999999</ele><time>2026-04-18T12:42:39.141Z</time></trkpt><trkpt lat="45.437055" lon="10.6851483"><ele>88.8</ele><time>2026-04-18T12:42:40.139Z</time></trkpt><trkpt lat="45.4370383" lon="10.6850067"><ele>89.4</ele><time>2026-04-18T12:42:41.15Z</time></trkpt><trkpt lat="45.4370167" lon="10.684865"><ele>90.0</ele><time>2026-04-18T12:42:42.134Z</time></trkpt><trkpt lat="45.4369933" lon="10.68473"><ele>90.0</ele><time>2026-04-18T12:42:43.156Z</time></trkpt><trkpt lat="45.4369583" lon="10.684595"><ele>90.0</ele><time>2026-04-18T12:42:44.137Z</time></trkpt><trkpt lat="45.43694" lon="10.6844733"><ele>90.0</ele><time>2026-04-18T12:42:45.155Z</time></trkpt><trkpt lat="45.43692" lon="10.6843433"><ele>90.0</ele><time>2026-04-18T12:42:46.145Z</time></trkpt><trkpt lat="45.4369017" lon="10.6842017"><ele>90.0</ele><time>2026-04-18T12:42:47.136Z</time></trkpt><trkpt lat="45.4368733" lon="10.6840733"><ele>89.6</ele><time>2026-04-18T12:42:48.139Z</time></trkpt><trkpt lat="45.4368483" lon="10.6839317"><ele>89.2</ele><time>2026-04-18T12:42:49.139Z</time></trkpt><trkpt lat="45.4368033" lon="10.683805"><ele>88.80000000000001</ele><time>2026-04-18T12:42:50.141Z</time></trkpt><trkpt lat="45.4367767" lon="10.6836833"><ele>88.4</ele><time>2026-04-18T12:42:51.141Z</time></trkpt><trkpt lat="45.4367467" lon="10.68356"><ele>88.0</ele><time>2026-04-18T12:42:52.151Z</time></trkpt><trkpt lat="45.4367083" lon="10.6834467"><ele>88.0</ele><time>2026-04-18T12:42:53.14Z</time></trkpt><trkpt lat="45.4366533" lon="10.6833233"><ele>88.0</ele><time>2026-04-18T12:42:54.14Z</time></trkpt><trkpt lat="45.43662" lon="10.6831983"><ele>88.0</ele><time>2026-04-18T12:42:55.142Z</time></trkpt><trkpt lat="45.4365083" lon="10.6829633"><ele>88.0</ele><time>2026-04-18T12:42:57.141Z</time></trkpt><trkpt lat="45.4364417" lon="10.682835"><ele>88.2</ele><time>2026-04-18T12:42:58.135Z</time></trkpt><trkpt lat="45.4364233" lon="10.6827067"><ele>88.4</ele><time>2026-04-18T12:42:59.139Z</time></trkpt><trkpt lat="45.4363667" lon="10.682595"><ele>88.60000000000001</ele><time>2026-04-18T12:43:00.146Z</time></trkpt><trkpt lat="45.436305" lon="10.682455"><ele>88.80000000000001</ele><time>2026-04-18T12:43:01.137Z</time></trkpt><trkpt lat="45.43624" lon="10.6823417"><ele>89.0</ele><time>2026-04-18T12:43:02.156Z</time></trkpt><trkpt lat="45.436165" lon="10.6822183"><ele>89.75</ele><time>2026-04-18T12:43:03.14Z</time></trkpt><trkpt lat="45.4361033" lon="10.6820983"><ele>90.5</ele><time>2026-04-18T12:43:04.136Z</time></trkpt><trkpt lat="45.4360083" lon="10.6820033"><ele>91.25</ele><time>2026-04-18T12:43:05.137Z</time></trkpt><trkpt lat="45.4359283" lon="10.6818517"><ele>92.0</ele><time>2026-04-18T12:43:06.142Z</time></trkpt><trkpt lat="45.4358583" lon="10.6817217"><ele>92.0</ele><time>2026-04-18T12:43:07.151Z</time></trkpt><trkpt lat="45.43579" lon="10.6815983"><ele>92.0</ele><time>2026-04-18T12:43:08.139Z</time></trkpt><trkpt lat="45.4357183" lon="10.68146"><ele>92.0</ele><time>2026-04-18T12:43:09.135Z</time></trkpt><trkpt lat="45.4355483" lon="10.6812333"><ele>92.0</ele><time>2026-04-18T12:43:11.14Z</time></trkpt><trkpt lat="45.435445" lon="10.6811667"><ele>92.0</ele><time>2026-04-18T12:43:12.14Z</time></trkpt><trkpt lat="45.4353867" lon="10.6810567"><ele>92.0</ele><time>2026-04-18T12:43:13.14Z</time></trkpt><trkpt lat="45.4353333" lon="10.6809633"><ele>92.0</ele><time>2026-04-18T12:43:14.137Z</time></trkpt><trkpt lat="45.4352717" lon="10.6808817"><ele>92.0</ele><time>2026-04-18T12:43:15.139Z</time></trkpt><trkpt lat="45.435205" lon="10.6807833"><ele>92.0</ele><time>2026-04-18T12:43:16.132Z</time></trkpt><trkpt lat="45.4351117" lon="10.6806467"><ele>92.0</ele><time>2026-04-18T12:43:17.14Z</time></trkpt><trkpt lat="45.43502" lon="10.6805083"><ele>92.0</ele><time>2026-04-18T12:43:18.14Z</time></trkpt><trkpt lat="45.434925" lon="10.68036"><ele>92.0</ele><time>2026-04-18T12:43:19.155Z</time></trkpt><trkpt lat="45.434845" lon="10.6802033"><ele>92.0</ele><time>2026-04-18T12:43:20.145Z</time></trkpt><trkpt lat="45.434775" lon="10.68004"><ele>92.0</ele><time>2026-04-18T12:43:21.137Z</time></trkpt><trkpt lat="45.4347167" lon="10.6798583"><ele>92.0</ele><time>2026-04-18T12:43:22.144Z</time></trkpt><trkpt lat="45.4346517" lon="10.679665"><ele>92.0</ele><time>2026-04-18T12:43:23.149Z</time></trkpt><trkpt lat="45.4346033" lon="10.6794733"><ele>91.33333333333334</ele><time>2026-04-18T12:43:24.145Z</time></trkpt><trkpt lat="45.434595" lon="10.6792483"><ele>90.66666666666667</ele><time>2026-04-18T12:43:25.144Z</time></trkpt><trkpt lat="45.434575" lon="10.6790233"><ele>90.0</ele><time>2026-04-18T12:43:26.149Z</time></trkpt><trkpt lat="45.434565" lon="10.67878"><ele>89.0</ele><time>2026-04-18T12:43:27.149Z</time></trkpt><trkpt lat="45.4345667" lon="10.6785333"><ele>88.0</ele><time>2026-04-18T12:43:28.171Z</time></trkpt><trkpt lat="45.4345783" lon="10.6782667"><ele>87.0</ele><time>2026-04-18T12:43:29.146Z</time></trkpt><trkpt lat="45.43458" lon="10.67804"><ele>87.0</ele><time>2026-04-18T12:43:30.142Z</time></trkpt><trkpt lat="45.4345733" lon="10.6778383"><ele>87.0</ele><time>2026-04-18T12:43:31.142Z</time></trkpt><trkpt lat="45.43457" lon="10.6776617"><ele>87.0</ele><time>2026-04-18T12:43:32.146Z</time></trkpt><trkpt lat="45.43458" lon="10.6775033"><ele>87.0</ele><time>2026-04-18T12:43:33.14Z</time></trkpt><trkpt lat="45.4346067" lon="10.6773667"><ele>86.83333333333333</ele><time>2026-04-18T12:43:34.136Z</time></trkpt><trkpt lat="45.434625" lon="10.6772433"><ele>86.66666666666667</ele><time>2026-04-18T12:43:35.15Z</time></trkpt><trkpt lat="45.4346117" lon="10.6771467"><ele>86.5</ele><time>2026-04-18T12:43:36.142Z</time></trkpt><trkpt lat="45.434575" lon="10.6770617"><ele>86.33333333333334</ele><time>2026-04-18T12:43:37.138Z</time></trkpt><trkpt lat="45.4344983" lon="10.6770083"><ele>86.16666666666667</ele><time>2026-04-18T12:43:38.138Z</time></trkpt><trkpt lat="45.4344133" lon="10.6769817"><ele>86.0</ele><time>2026-04-18T12:43:39.139Z</time></trkpt><trkpt lat="45.4343117" lon="10.676975"><ele>86.0</ele><time>2026-04-18T12:43:40.136Z</time></trkpt><trkpt lat="45.4341783" lon="10.676985"><ele>86.0</ele><time>2026-04-18T12:43:41.144Z</time></trkpt><trkpt lat="45.43406" lon="10.6769633"><ele>86.0</ele><time>2026-04-18T12:43:42.14Z</time></trkpt><trkpt lat="45.4339417" lon="10.6768883"><ele>86.0</ele><time>2026-04-18T12:43:43.135Z</time></trkpt><trkpt lat="45.4337967" lon="10.6768367"><ele>89.33333333333334</ele><time>2026-04-18T12:43:44.143Z</time></trkpt><trkpt lat="45.43363" lon="10.6767417"><ele>92.66666666666667</ele><time>2026-04-18T12:43:45.141Z</time></trkpt><trkpt lat="45.4334633" lon="10.6766133"><ele>96.0</ele><time>2026-04-18T12:43:46.142Z</time></trkpt><trkpt lat="45.433305" lon="10.6764967"><ele>96.0</ele><time>2026-04-18T12:43:47.153Z</time></trkpt><trkpt lat="45.4331383" lon="10.6763683"><ele>96.0</ele><time>2026-04-18T12:43:48.148Z</time></trkpt><trkpt lat="45.4330067" lon="10.6762133"><ele>96.0</ele><time>2026-04-18T12:43:49.135Z</time></trkpt><trkpt lat="45.4328417" lon="10.6761217"><ele>93.0</ele><time>2026-04-18T12:43:50.138Z</time></trkpt><trkpt lat="45.4326967" lon="10.6760033"><ele>90.0</ele><time>2026-04-18T12:43:51.146Z</time></trkpt><trkpt lat="45.4325583" lon="10.67588"><ele>87.0</ele><time>2026-04-18T12:43:52.155Z</time></trkpt><trkpt lat="45.4324217" lon="10.675755"><ele>87.0</ele><time>2026-04-18T12:43:53.138Z</time></trkpt><trkpt lat="45.4322933" lon="10.675635"><ele>87.0</ele><time>2026-04-18T12:43:54.15Z</time></trkpt><trkpt lat="45.43217" lon="10.675515"><ele>87.0</ele><time>2026-04-18T12:43:55.143Z</time></trkpt><trkpt lat="45.4320467" lon="10.6753983"><ele>86.0</ele><time>2026-04-18T12:43:56.157Z</time></trkpt><trkpt lat="45.43192" lon="10.6752817"><ele>85.0</ele><time>2026-04-18T12:43:57.143Z</time></trkpt><trkpt lat="45.4317983" lon="10.6751567"><ele>84.0</ele><time>2026-04-18T12:43:58.142Z</time></trkpt><trkpt lat="45.4316783" lon="10.67501"><ele>84.0</ele><time>2026-04-18T12:43:59.14Z</time></trkpt><trkpt lat="45.431565" lon="10.67484"><ele>84.0</ele><time>2026-04-18T12:44:00.136Z</time></trkpt><trkpt lat="45.4314633" lon="10.674645"><ele>84.0</ele><time>2026-04-18T12:44:01.145Z</time></trkpt><trkpt lat="45.4313733" lon="10.6744383"><ele>83.66666666666667</ele><time>2026-04-18T12:44:02.132Z</time></trkpt><trkpt lat="45.4313" lon="10.6742267"><ele>83.33333333333334</ele><time>2026-04-18T12:44:03.136Z</time></trkpt><trkpt lat="45.431215" lon="10.6740017"><ele>83.0</ele><time>2026-04-18T12:44:04.143Z</time></trkpt><trkpt lat="45.4311267" lon="10.6738367"><ele>83.0</ele><time>2026-04-18T12:44:05.137Z</time></trkpt><trkpt lat="45.431045" lon="10.6736817"><ele>83.0</ele><time>2026-04-18T12:44:06.141Z</time></trkpt><trkpt lat="45.430925" lon="10.6735883"><ele>83.0</ele><time>2026-04-18T12:44:07.141Z</time></trkpt><trkpt lat="45.43077" lon="10.6735467"><ele>83.0</ele><time>2026-04-18T12:44:08.14Z</time></trkpt><trkpt lat="45.4306267" lon="10.673515"><ele>83.0</ele><time>2026-04-18T12:44:09.145Z</time></trkpt><trkpt lat="45.430485" lon="10.6735017"><ele>83.0</ele><time>2026-04-18T12:44:10.141Z</time></trkpt><trkpt lat="45.4303533" lon="10.67349"><ele>83.0</ele><time>2026-04-18T12:44:11.141Z</time></trkpt><trkpt lat="45.4302167" lon="10.6734733"><ele>83.0</ele><time>2026-04-18T12:44:12.144Z</time></trkpt><trkpt lat="45.430075" lon="10.6734717"><ele>83.0</ele><time>2026-04-18T12:44:13.139Z</time></trkpt><trkpt lat="45.4299717" lon="10.6734633"><ele>83.0</ele><time>2026-04-18T12:44:14.142Z</time></trkpt><trkpt lat="45.42984" lon="10.6733533"><ele>83.0</ele><time>2026-04-18T12:44:16.152Z</time></trkpt><trkpt lat="45.42977" lon="10.6732883"><ele>83.0</ele><time>2026-04-18T12:44:17.14Z</time></trkpt><trkpt lat="45.429685" lon="10.673235"><ele>83.0</ele><time>2026-04-18T12:44:18.195Z</time></trkpt><trkpt lat="45.4295867" lon="10.67318"><ele>82.75</ele><time>2026-04-18T12:44:19.135Z</time></trkpt><trkpt lat="45.4294833" lon="10.673085"><ele>82.5</ele><time>2026-04-18T12:44:20.151Z</time></trkpt><trkpt lat="45.4293867" lon="10.67298"><ele>82.25</ele><time>2026-04-18T12:44:21.135Z</time></trkpt><trkpt lat="45.4293133" lon="10.67284"><ele>82.0</ele><time>2026-04-18T12:44:22.139Z</time></trkpt><trkpt lat="45.4292283" lon="10.6727217"><ele>82.0</ele><time>2026-04-18T12:44:23.152Z</time></trkpt><trkpt lat="45.4291433" lon="10.6725867"><ele>82.0</ele><time>2026-04-18T12:44:24.143Z</time></trkpt><trkpt lat="45.4290667" lon="10.672445"><ele>82.0</ele><time>2026-04-18T12:44:25.135Z</time></trkpt><trkpt lat="45.428985" lon="10.67228"><ele>82.0</ele><time>2026-04-18T12:44:26.138Z</time></trkpt><trkpt lat="45.4288767" lon="10.6720933"><ele>82.33333333333333</ele><time>2026-04-18T12:44:27.137Z</time></trkpt><trkpt lat="45.4287533" lon="10.6719183"><ele>82.66666666666667</ele><time>2026-04-18T12:44:28.147Z</time></trkpt><trkpt lat="45.4286467" lon="10.6717233"><ele>83.0</ele><time>2026-04-18T12:44:29.144Z</time></trkpt><trkpt lat="45.4285283" lon="10.671555"><ele>83.0</ele><time>2026-04-18T12:44:30.144Z</time></trkpt><trkpt lat="45.428435" lon="10.6713833"><ele>83.0</ele><time>2026-04-18T12:44:31.144Z</time></trkpt><trkpt lat="45.4283667" lon="10.6712267"><ele>83.0</ele><time>2026-04-18T12:44:32.139Z</time></trkpt><trkpt lat="45.4283067" lon="10.6710717"><ele>83.0</ele><time>2026-04-18T12:44:33.151Z</time></trkpt><trkpt lat="45.4282617" lon="10.670925"><ele>84.75</ele><time>2026-04-18T12:44:34.139Z</time></trkpt><trkpt lat="45.428245" lon="10.670735"><ele>86.5</ele><time>2026-04-18T12:44:35.142Z</time></trkpt><trkpt lat="45.4282333" lon="10.6705317"><ele>88.25</ele><time>2026-04-18T12:44:36.14Z</time></trkpt><trkpt lat="45.4282067" lon="10.67031"><ele>90.0</ele><time>2026-04-18T12:44:37.141Z</time></trkpt><trkpt lat="45.4281783" lon="10.6700967"><ele>91.0</ele><time>2026-04-18T12:44:38.136Z</time></trkpt><trkpt lat="45.4281333" lon="10.6698867"><ele>92.0</ele><time>2026-04-18T12:44:39.136Z</time></trkpt><trkpt lat="45.4280533" lon="10.6696717"><ele>93.0</ele><time>2026-04-18T12:44:40.142Z</time></trkpt><trkpt lat="45.427965" lon="10.66946"><ele>91.33333333333333</ele><time>2026-04-18T12:44:41.137Z</time></trkpt><trkpt lat="45.4278783" lon="10.6692433"><ele>89.66666666666666</ele><time>2026-04-18T12:44:42.141Z</time></trkpt><trkpt lat="45.427785" lon="10.669035"><ele>88.0</ele><time>2026-04-18T12:44:43.144Z</time></trkpt><trkpt lat="45.4276767" lon="10.668835"><ele>88.0</ele><time>2026-04-18T12:44:44.136Z</time></trkpt><trkpt lat="45.4275567" lon="10.66866"><ele>88.0</ele><time>2026-04-18T12:44:45.138Z</time></trkpt><trkpt lat="45.4274067" lon="10.668495"><ele>88.0</ele><time>2026-04-18T12:44:46.158Z</time></trkpt><trkpt lat="45.4272083" lon="10.6683517"><ele>87.33333333333333</ele><time>2026-04-18T12:44:47.133Z</time></trkpt><trkpt lat="45.4270167" lon="10.668225"><ele>86.66666666666667</ele><time>2026-04-18T12:44:48.138Z</time></trkpt><trkpt lat="45.4268383" lon="10.6681017"><ele>86.0</ele><time>2026-04-18T12:44:49.141Z</time></trkpt><trkpt lat="45.4266717" lon="10.6679917"><ele>86.0</ele><time>2026-04-18T12:44:50.142Z</time></trkpt><trkpt lat="45.426505" lon="10.6679233"><ele>86.0</ele><time>2026-04-18T12:44:51.141Z</time></trkpt><trkpt lat="45.4263567" lon="10.6679017"><ele>86.0</ele><time>2026-04-18T12:44:52.141Z</time></trkpt><trkpt lat="45.4262183" lon="10.66794"><ele>85.66666666666667</ele><time>2026-04-18T12:44:53.139Z</time></trkpt><trkpt lat="45.4260717" lon="10.6679917"><ele>85.33333333333333</ele><time>2026-04-18T12:44:54.146Z</time></trkpt><trkpt lat="45.4259367" lon="10.6680583"><ele>85.0</ele><time>2026-04-18T12:44:55.138Z</time></trkpt><trkpt lat="45.425625" lon="10.66821"><ele>85.0</ele><time>2026-04-18T12:44:57.137Z</time></trkpt><trkpt lat="45.4254817" lon="10.66829"><ele>85.0</ele><time>2026-04-18T12:44:58.142Z</time></trkpt><trkpt lat="45.4253167" lon="10.668375"><ele>85.0</ele><time>2026-04-18T12:44:59.151Z</time></trkpt><trkpt lat="45.42516" lon="10.6684267"><ele>88.0</ele><time>2026-04-18T12:45:00.162Z</time></trkpt><trkpt lat="45.4249983" lon="10.6684517"><ele>91.0</ele><time>2026-04-18T12:45:01.141Z</time></trkpt><trkpt lat="45.4248267" lon="10.6684533"><ele>94.0</ele><time>2026-04-18T12:45:02.143Z</time></trkpt><trkpt lat="45.424655" lon="10.6684383"><ele>97.33333333333333</ele><time>2026-04-18T12:45:03.148Z</time></trkpt><trkpt lat="45.4244983" lon="10.6684067"><ele>100.66666666666666</ele><time>2026-04-18T12:45:04.146Z</time></trkpt><trkpt lat="45.42436" lon="10.6683317"><ele>104.0</ele><time>2026-04-18T12:45:05.143Z</time></trkpt><trkpt lat="45.4242367" lon="10.6682083"><ele>104.0</ele><time>2026-04-18T12:45:06.152Z</time></trkpt><trkpt lat="45.42412" lon="10.6679867"><ele>104.0</ele><time>2026-04-18T12:45:07.139Z</time></trkpt><trkpt lat="45.4240167" lon="10.6677733"><ele>104.0</ele><time>2026-04-18T12:45:08.142Z</time></trkpt><trkpt lat="45.4239567" lon="10.6675183"><ele>102.0</ele><time>2026-04-18T12:45:09.153Z</time></trkpt><trkpt lat="45.4239083" lon="10.6672433"><ele>100.0</ele><time>2026-04-18T12:45:10.14Z</time></trkpt><trkpt lat="45.4238383" lon="10.66698"><ele>98.0</ele><time>2026-04-18T12:45:11.158Z</time></trkpt><trkpt lat="45.423755" lon="10.6666783"><ele>105.0</ele><time>2026-04-18T12:45:12.141Z</time></trkpt><trkpt lat="45.4236133" lon="10.66641"><ele>112.0</ele><time>2026-04-18T12:45:13.141Z</time></trkpt><trkpt lat="45.4234667" lon="10.6661433"><ele>109.5</ele><time>2026-04-18T12:45:14.151Z</time></trkpt><trkpt lat="45.4233483" lon="10.66585"><ele>107.0</ele><time>2026-04-18T12:45:15.144Z</time></trkpt><trkpt lat="45.4232083" lon="10.6655883"><ele>107.0</ele><time>2026-04-18T12:45:16.139Z</time></trkpt><trkpt lat="45.423065" lon="10.6653683"><ele>107.0</ele><time>2026-04-18T12:45:17.137Z</time></trkpt><trkpt lat="45.422995" lon="10.6652033"><ele>107.0</ele><time>2026-04-18T12:45:18.14Z</time></trkpt><trkpt lat="45.4229083" lon="10.6650167"><ele>108.33333333333333</ele><time>2026-04-18T12:45:19.137Z</time></trkpt><trkpt lat="45.422825" lon="10.66485"><ele>109.66666666666666</ele><time>2026-04-18T12:45:20.151Z</time></trkpt><trkpt lat="45.422745" lon="10.664645"><ele>111.0</ele><time>2026-04-18T12:45:21.145Z</time></trkpt><trkpt lat="45.4226683" lon="10.664435"><ele>111.0</ele><time>2026-04-18T12:45:22.148Z</time></trkpt><trkpt lat="45.42261" lon="10.66423"><ele>111.0</ele><time>2026-04-18T12:45:23.134Z</time></trkpt><trkpt lat="45.42255" lon="10.6640383"><ele>111.0</ele><time>2026-04-18T12:45:24.155Z</time></trkpt><trkpt lat="45.4225167" lon="10.6638983"><ele>111.0</ele><time>2026-04-18T12:45:25.137Z</time></trkpt><trkpt lat="45.4224467" lon="10.663725"><ele>111.0</ele><time>2026-04-18T12:45:26.144Z</time></trkpt><trkpt lat="45.4223567" lon="10.663535"><ele>111.0</ele><time>2026-04-18T12:45:27.149Z</time></trkpt><trkpt lat="45.422315" lon="10.66331"><ele>111.0</ele><time>2026-04-18T12:45:28.146Z</time></trkpt><trkpt lat="45.422285" lon="10.6630617"><ele>111.0</ele><time>2026-04-18T12:45:29.14Z</time></trkpt><trkpt lat="45.4222617" lon="10.6627867"><ele>111.0</ele><time>2026-04-18T12:45:30.141Z</time></trkpt><trkpt lat="45.42223" lon="10.6624883"><ele>111.0</ele><time>2026-04-18T12:45:31.155Z</time></trkpt><trkpt lat="45.4222" lon="10.6621983"><ele>112.66666666666666</ele><time>2026-04-18T12:45:32.143Z</time></trkpt><trkpt lat="45.4221567" lon="10.6619117"><ele>114.33333333333333</ele><time>2026-04-18T12:45:33.146Z</time></trkpt><trkpt lat="45.42213" lon="10.661635"><ele>116.0</ele><time>2026-04-18T12:45:34.14Z</time></trkpt><trkpt lat="45.4221117" lon="10.6613633"><ele>116.33333333333333</ele><time>2026-04-18T12:45:35.15Z</time></trkpt><trkpt lat="45.4220817" lon="10.6611083"><ele>116.66666666666666</ele><time>2026-04-18T12:45:36.141Z</time></trkpt><trkpt lat="45.4220733" lon="10.6608733"><ele>117.0</ele><time>2026-04-18T12:45:37.141Z</time></trkpt><trkpt lat="45.4220783" lon="10.6606317"><ele>117.0</ele><time>2026-04-18T12:45:38.146Z</time></trkpt><trkpt lat="45.4221067" lon="10.66039"><ele>117.0</ele><time>2026-04-18T12:45:39.141Z</time></trkpt><trkpt lat="45.4221117" lon="10.6601767"><ele>117.0</ele><time>2026-04-18T12:45:40.149Z</time></trkpt><trkpt lat="45.4221067" lon="10.65995"><ele>118.0</ele><time>2026-04-18T12:45:41.152Z</time></trkpt><trkpt lat="45.4221" lon="10.6597283"><ele>119.0</ele><time>2026-04-18T12:45:42.146Z</time></trkpt><trkpt lat="45.42208" lon="10.65953"><ele>120.0</ele><time>2026-04-18T12:45:43.163Z</time></trkpt><trkpt lat="45.4220683" lon="10.6592767"><ele>120.66666666666666</ele><time>2026-04-18T12:45:44.153Z</time></trkpt><trkpt lat="45.4220333" lon="10.6590433"><ele>121.33333333333333</ele><time>2026-04-18T12:45:45.139Z</time></trkpt><trkpt lat="45.4219733" lon="10.65885"><ele>122.0</ele><time>2026-04-18T12:45:46.162Z</time></trkpt><trkpt lat="45.4219533" lon="10.658625"><ele>121.66666666666666</ele><time>2026-04-18T12:45:47.145Z</time></trkpt><trkpt lat="45.421945" lon="10.6583917"><ele>121.33333333333334</ele><time>2026-04-18T12:45:48.142Z</time></trkpt><trkpt lat="45.42194" lon="10.6581717"><ele>121.0</ele><time>2026-04-18T12:45:49.141Z</time></trkpt><trkpt lat="45.4219333" lon="10.65793"><ele>121.33333333333334</ele><time>2026-04-18T12:45:50.145Z</time></trkpt><trkpt lat="45.4219533" lon="10.6577167"><ele>121.66666666666666</ele><time>2026-04-18T12:45:51.147Z</time></trkpt><trkpt lat="45.42196" lon="10.6574883"><ele>122.0</ele><time>2026-04-18T12:45:52.141Z</time></trkpt><trkpt lat="45.4219783" lon="10.6572483"><ele>122.0</ele><time>2026-04-18T12:45:53.149Z</time></trkpt><trkpt lat="45.4219767" lon="10.65704"><ele>122.0</ele><time>2026-04-18T12:45:54.145Z</time></trkpt><trkpt lat="45.4219717" lon="10.6568517"><ele>122.0</ele><time>2026-04-18T12:45:55.145Z</time></trkpt><trkpt lat="45.4219683" lon="10.6566717"><ele>122.0</ele><time>2026-04-18T12:45:56.137Z</time></trkpt><trkpt lat="45.4219683" lon="10.6565083"><ele>122.16666666666666</ele><time>2026-04-18T12:45:57.139Z</time></trkpt><trkpt lat="45.42199" lon="10.6563467"><ele>122.33333333333333</ele><time>2026-04-18T12:45:58.134Z</time></trkpt><trkpt lat="45.4219933" lon="10.6562517"><ele>122.5</ele><time>2026-04-18T12:45:59.146Z</time></trkpt><trkpt lat="45.4219633" lon="10.6561717"><ele>122.66666666666666</ele><time>2026-04-18T12:46:00.151Z</time></trkpt><trkpt lat="45.421905" lon="10.65609"><ele>122.83333333333333</ele><time>2026-04-18T12:46:01.135Z</time></trkpt><trkpt lat="45.4217967" lon="10.6560267"><ele>123.0</ele><time>2026-04-18T12:46:02.14Z</time></trkpt><trkpt lat="45.4216717" lon="10.6559533"><ele>123.25</ele><time>2026-04-18T12:46:03.148Z</time></trkpt><trkpt lat="45.4215483" lon="10.6559183"><ele>123.5</ele><time>2026-04-18T12:46:04.139Z</time></trkpt><trkpt lat="45.421415" lon="10.65585"><ele>123.75</ele><time>2026-04-18T12:46:05.138Z</time></trkpt><trkpt lat="45.4212783" lon="10.655795"><ele>124.0</ele><time>2026-04-18T12:46:06.153Z</time></trkpt><trkpt lat="45.421165" lon="10.6557617"><ele>124.0</ele><time>2026-04-18T12:46:07.141Z</time></trkpt><trkpt lat="45.4210733" lon="10.6557633"><ele>124.0</ele><time>2026-04-18T12:46:08.137Z</time></trkpt><trkpt lat="45.4210067" lon="10.6557567"><ele>124.0</ele><time>2026-04-18T12:46:09.147Z</time></trkpt><trkpt lat="45.4209167" lon="10.6558167"><ele>124.0</ele><time>2026-04-18T12:46:10.135Z</time></trkpt><trkpt lat="45.4208083" lon="10.6559033"><ele>124.0</ele><time>2026-04-18T12:46:11.151Z</time></trkpt><trkpt lat="45.4207" lon="10.656"><ele>124.00000000000001</ele><time>2026-04-18T12:46:12.142Z</time></trkpt><trkpt lat="45.4205967" lon="10.6560783"><ele>124.0</ele><time>2026-04-18T12:46:13.142Z</time></trkpt><trkpt lat="45.42051" lon="10.656145"><ele>124.0</ele><time>2026-04-18T12:46:14.159Z</time></trkpt><trkpt lat="45.4204517" lon="10.6561917"><ele>124.0</ele><time>2026-04-18T12:46:15.15Z</time></trkpt><trkpt lat="45.420385" lon="10.6562367"><ele>124.00000000000001</ele><time>2026-04-18T12:46:16.154Z</time></trkpt><trkpt lat="45.4203267" lon="10.6562833"><ele>124.0</ele><time>2026-04-18T12:46:17.154Z</time></trkpt><trkpt lat="45.420225" lon="10.6563617"><ele>124.4</ele><time>2026-04-18T12:46:19.146Z</time></trkpt><trkpt lat="45.4201167" lon="10.6564417"><ele>124.80000000000001</ele><time>2026-04-18T12:46:21.139Z</time></trkpt><trkpt lat="45.420035" lon="10.6564833"><ele>125.19999999999999</ele><time>2026-04-18T12:46:23.141Z</time></trkpt><trkpt lat="45.4201267" lon="10.656435"><ele>125.6</ele><time>2026-04-18T12:46:43.145Z</time></trkpt><trkpt lat="45.4201967" lon="10.65639"><ele>126.0</ele><time>2026-04-18T12:46:44.145Z</time></trkpt><trkpt lat="45.4202717" lon="10.6563367"><ele>126.0</ele><time>2026-04-18T12:46:45.169Z</time></trkpt><trkpt lat="45.4203533" lon="10.6562783"><ele>126.0</ele><time>2026-04-18T12:46:46.149Z</time></trkpt><trkpt lat="45.42043" lon="10.6562167"><ele>126.0</ele><time>2026-04-18T12:46:47.142Z</time></trkpt><trkpt lat="45.4205083" lon="10.656155"><ele>126.0</ele><time>2026-04-18T12:46:48.146Z</time></trkpt><trkpt lat="45.4205867" lon="10.656095"><ele>126.0</ele><time>2026-04-18T12:46:49.136Z</time></trkpt><trkpt lat="45.420665" lon="10.65604"><ele>126.0</ele><time>2026-04-18T12:46:50.163Z</time></trkpt><trkpt lat="45.420735" lon="10.655995"><ele>125.6</ele><time>2026-04-18T12:46:51.141Z</time></trkpt><trkpt lat="45.4207967" lon="10.655955"><ele>125.19999999999999</ele><time>2026-04-18T12:46:52.138Z</time></trkpt><trkpt lat="45.420905" lon="10.655895"><ele>124.80000000000001</ele><time>2026-04-18T12:46:54.158Z</time></trkpt><trkpt lat="45.42098" lon="10.655855"><ele>124.4</ele><time>2026-04-18T12:46:56.147Z</time></trkpt><trkpt lat="45.4208683" lon="10.655915"><ele>124.0</ele><time>2026-04-18T12:47:10.145Z</time></trkpt><trkpt lat="45.4208017" lon="10.6559667"><ele>124.00000000000001</ele><time>2026-04-18T12:47:11.15Z</time></trkpt><trkpt lat="45.4207267" lon="10.6560033"><ele>124.0</ele><time>2026-04-18T12:47:12.164Z</time></trkpt><trkpt lat="45.4206483" lon="10.6560367"><ele>124.0</ele><time>2026-04-18T12:47:13.135Z</time></trkpt><trkpt lat="45.4205717" lon="10.6560833"><ele>124.0</ele><time>2026-04-18T12:47:14.138Z</time></trkpt><trkpt lat="45.4205017" lon="10.6561367"><ele>124.00000000000001</ele><time>2026-04-18T12:47:15.141Z</time></trkpt><trkpt lat="45.4204333" lon="10.6561883"><ele>124.0</ele><time>2026-04-18T12:47:16.152Z</time></trkpt><trkpt lat="45.4203683" lon="10.65624"><ele>124.33333333333334</ele><time>2026-04-18T12:47:17.148Z</time></trkpt><trkpt lat="45.42031" lon="10.6562883"><ele>124.66666666666667</ele><time>2026-04-18T12:47:18.143Z</time></trkpt><trkpt lat="45.42025" lon="10.6563317"><ele>125.0</ele><time>2026-04-18T12:47:19.138Z</time></trkpt><trkpt lat="45.4201433" lon="10.6564067"><ele>125.33333333333334</ele><time>2026-04-18T12:47:21.141Z</time></trkpt><trkpt lat="45.4200517" lon="10.6564767"><ele>125.66666666666667</ele><time>2026-04-18T12:47:23.15Z</time></trkpt><trkpt lat="45.4199733" lon="10.6565283"><ele>126.0</ele><time>2026-04-18T12:47:25.138Z</time></trkpt><trkpt lat="45.4198717" lon="10.6565917"><ele>126.0</ele><time>2026-04-18T12:47:27.141Z</time></trkpt><trkpt lat="45.419815" lon="10.6566317"><ele>126.0</ele><time>2026-04-18T12:47:28.141Z</time></trkpt><trkpt lat="45.4197517" lon="10.6566783"><ele>126.0</ele><time>2026-04-18T12:47:29.142Z</time></trkpt><trkpt lat="45.4196833" lon="10.65673"><ele>126.0</ele><time>2026-04-18T12:47:30.14Z</time></trkpt><trkpt lat="45.4196117" lon="10.6567883"><ele>126.0</ele><time>2026-04-18T12:47:31.138Z</time></trkpt><trkpt lat="45.4195383" lon="10.6568583"><ele>126.0</ele><time>2026-04-18T12:47:32.147Z</time></trkpt><trkpt lat="45.4194583" lon="10.65693"><ele>127.5</ele><time>2026-04-18T12:47:33.143Z</time></trkpt><trkpt lat="45.41939" lon="10.657"><ele>129.0</ele><time>2026-04-18T12:47:34.14Z</time></trkpt><trkpt lat="45.4193133" lon="10.657045"><ele>130.5</ele><time>2026-04-18T12:47:35.139Z</time></trkpt><trkpt lat="45.41924" lon="10.6570783"><ele>132.0</ele><time>2026-04-18T12:47:36.148Z</time></trkpt><trkpt lat="45.419165" lon="10.6570983"><ele>133.5</ele><time>2026-04-18T12:47:37.139Z</time></trkpt><trkpt lat="45.419095" lon="10.6571117"><ele>135.0</ele><time>2026-04-18T12:47:38.137Z</time></trkpt><trkpt lat="45.41902" lon="10.6571183"><ele>135.0</ele><time>2026-04-18T12:47:39.16Z</time></trkpt><trkpt lat="45.41893" lon="10.65711"><ele>135.0</ele><time>2026-04-18T12:47:40.139Z</time></trkpt><trkpt lat="45.4188433" lon="10.6570883"><ele>135.0</ele><time>2026-04-18T12:47:41.143Z</time></trkpt><trkpt lat="45.418775" lon="10.657065"><ele>135.0</ele><time>2026-04-18T12:47:42.147Z</time></trkpt><trkpt lat="45.41867" lon="10.6570167"><ele>135.0</ele><time>2026-04-18T12:47:44.141Z</time></trkpt><trkpt lat="45.418605" lon="10.6569733"><ele>135.0</ele><time>2026-04-18T12:47:47.153Z</time></trkpt><trkpt lat="45.4185633" lon="10.6568767"><ele>133.6</ele><time>2026-04-18T12:47:50.139Z</time></trkpt><trkpt lat="45.4185667" lon="10.6567233"><ele>132.2</ele><time>2026-04-18T12:47:52.155Z</time></trkpt><trkpt lat="45.4185717" lon="10.6566167"><ele>130.8</ele><time>2026-04-18T12:47:53.134Z</time></trkpt><trkpt lat="45.4185833" lon="10.6564983"><ele>129.4</ele><time>2026-04-18T12:47:54.147Z</time></trkpt><trkpt lat="45.4185967" lon="10.6563767"><ele>128.0</ele><time>2026-04-18T12:47:55.141Z</time></trkpt><trkpt lat="45.418625" lon="10.6562433"><ele>127.99999999999999</ele><time>2026-04-18T12:47:56.14Z</time></trkpt><trkpt lat="45.41864" lon="10.6561233"><ele>128.0</ele><time>2026-04-18T12:47:57.138Z</time></trkpt><trkpt lat="45.4186483" lon="10.6560083"><ele>128.0</ele><time>2026-04-18T12:47:58.149Z</time></trkpt><trkpt lat="45.418655" lon="10.65589"><ele>128.0</ele><time>2026-04-18T12:47:59.145Z</time></trkpt><trkpt lat="45.4186633" lon="10.6557667"><ele>127.99999999999999</ele><time>2026-04-18T12:48:00.147Z</time></trkpt><trkpt lat="45.4186633" lon="10.655645"><ele>128.0</ele><time>2026-04-18T12:48:01.143Z</time></trkpt><trkpt lat="45.4186667" lon="10.6555233"><ele>127.33333333333333</ele><time>2026-04-18T12:48:02.152Z</time></trkpt><trkpt lat="45.4186767" lon="10.6553967"><ele>126.66666666666666</ele><time>2026-04-18T12:48:03.144Z</time></trkpt><trkpt lat="45.4186867" lon="10.65527"><ele>126.0</ele><time>2026-04-18T12:48:04.144Z</time></trkpt><trkpt lat="45.418685" lon="10.6551483"><ele>125.33333333333334</ele><time>2026-04-18T12:48:05.139Z</time></trkpt><trkpt lat="45.41868" lon="10.6550317"><ele>124.66666666666667</ele><time>2026-04-18T12:48:06.148Z</time></trkpt><trkpt lat="45.4186717" lon="10.654925"><ele>124.0</ele><time>2026-04-18T12:48:07.134Z</time></trkpt><trkpt lat="45.4186583" lon="10.6548283"><ele>124.0</ele><time>2026-04-18T12:48:08.148Z</time></trkpt><trkpt lat="45.418645" lon="10.6547333"><ele>124.00000000000001</ele><time>2026-04-18T12:48:09.14Z</time></trkpt><trkpt lat="45.4186333" lon="10.6546383"><ele>124.0</ele><time>2026-04-18T12:48:10.142Z</time></trkpt><trkpt lat="45.41863" lon="10.6545433"><ele>124.0</ele><time>2026-04-18T12:48:11.143Z</time></trkpt><trkpt lat="45.4186267" lon="10.65445"><ele>124.00000000000001</ele><time>2026-04-18T12:48:12.137Z</time></trkpt><trkpt lat="45.4186217" lon="10.65436"><ele>124.0</ele><time>2026-04-18T12:48:13.14Z</time></trkpt><trkpt lat="45.418605" lon="10.654205"><ele>124.0</ele><time>2026-04-18T12:48:15.143Z</time></trkpt><trkpt lat="45.418605" lon="10.6540483"><ele>123.66666666666667</ele><time>2026-04-18T12:48:17.147Z</time></trkpt><trkpt lat="45.4186117" lon="10.6539567"><ele>123.33333333333334</ele><time>2026-04-18T12:48:18.137Z</time></trkpt><trkpt lat="45.4186233" lon="10.65385"><ele>123.0</ele><time>2026-04-18T12:48:19.139Z</time></trkpt><trkpt lat="45.4186317" lon="10.6537317"><ele>122.66666666666666</ele><time>2026-04-18T12:48:20.15Z</time></trkpt><trkpt lat="45.41865" lon="10.6536083"><ele>122.33333333333333</ele><time>2026-04-18T12:48:21.141Z</time></trkpt><trkpt lat="45.4186683" lon="10.653485"><ele>122.0</ele><time>2026-04-18T12:48:22.138Z</time></trkpt><trkpt lat="45.4187" lon="10.6533467"><ele>121.16666666666666</ele><time>2026-04-18T12:48:23.142Z</time></trkpt><trkpt lat="45.4186933" lon="10.6531967"><ele>120.33333333333333</ele><time>2026-04-18T12:48:24.14Z</time></trkpt><trkpt lat="45.4187167" lon="10.653075"><ele>119.5</ele><time>2026-04-18T12:48:25.131Z</time></trkpt><trkpt lat="45.41875" lon="10.652965"><ele>118.66666666666666</ele><time>2026-04-18T12:48:26.136Z</time></trkpt><trkpt lat="45.4187567" lon="10.6528533"><ele>117.83333333333333</ele><time>2026-04-18T12:48:27.148Z</time></trkpt><trkpt lat="45.4187783" lon="10.652755"><ele>117.0</ele><time>2026-04-18T12:48:28.133Z</time></trkpt><trkpt lat="45.4188083" lon="10.652645"><ele>117.0</ele><time>2026-04-18T12:48:29.131Z</time></trkpt><trkpt lat="45.4188333" lon="10.6525367"><ele>117.0</ele><time>2026-04-18T12:48:30.144Z</time></trkpt><trkpt lat="45.4188533" lon="10.6524283"><ele>117.0</ele><time>2026-04-18T12:48:31.135Z</time></trkpt><trkpt lat="45.4188733" lon="10.6523167"><ele>117.0</ele><time>2026-04-18T12:48:32.148Z</time></trkpt><trkpt lat="45.4189017" lon="10.6522017"><ele>117.0</ele><time>2026-04-18T12:48:33.138Z</time></trkpt><trkpt lat="45.418935" lon="10.6520883"><ele>117.0</ele><time>2026-04-18T12:48:34.133Z</time></trkpt><trkpt lat="45.4189717" lon="10.6519767"><ele>116.5</ele><time>2026-04-18T12:48:35.138Z</time></trkpt><trkpt lat="45.41901" lon="10.6518667"><ele>116.0</ele><time>2026-04-18T12:48:36.148Z</time></trkpt><trkpt lat="45.4190483" lon="10.651765"><ele>115.5</ele><time>2026-04-18T12:48:37.146Z</time></trkpt><trkpt lat="45.419085" lon="10.651675"><ele>115.0</ele><time>2026-04-18T12:48:38.137Z</time></trkpt><trkpt lat="45.4191167" lon="10.6515917"><ele>114.5</ele><time>2026-04-18T12:48:39.138Z</time></trkpt><trkpt lat="45.4191533" lon="10.65151"><ele>114.0</ele><time>2026-04-18T12:48:40.133Z</time></trkpt><trkpt lat="45.4191917" lon="10.6514183"><ele>114.0</ele><time>2026-04-18T12:48:41.139Z</time></trkpt><trkpt lat="45.4192417" lon="10.6513233"><ele>114.0</ele><time>2026-04-18T12:48:42.138Z</time></trkpt><trkpt lat="45.4192983" lon="10.6512317"><ele>114.0</ele><time>2026-04-18T12:48:43.144Z</time></trkpt><trkpt lat="45.419355" lon="10.65114"><ele>114.0</ele><time>2026-04-18T12:48:44.136Z</time></trkpt><trkpt lat="45.4194067" lon="10.6510517"><ele>114.0</ele><time>2026-04-18T12:48:45.162Z</time></trkpt><trkpt lat="45.4194467" lon="10.65097"><ele>114.0</ele><time>2026-04-18T12:48:46.141Z</time></trkpt><trkpt lat="45.4194817" lon="10.650895"><ele>114.0</ele><time>2026-04-18T12:48:47.147Z</time></trkpt><trkpt lat="45.4195417" lon="10.6507433"><ele>114.0</ele><time>2026-04-18T12:48:49.146Z</time></trkpt><trkpt lat="45.41957" lon="10.6506567"><ele>114.0</ele><time>2026-04-18T12:48:50.141Z</time></trkpt><trkpt lat="45.4195967" lon="10.6505533"><ele>114.0</ele><time>2026-04-18T12:48:51.141Z</time></trkpt><trkpt lat="45.419625" lon="10.6504433"><ele>114.0</ele><time>2026-04-18T12:48:52.143Z</time></trkpt><trkpt lat="45.4196533" lon="10.6503283"><ele>114.0</ele><time>2026-04-18T12:48:53.149Z</time></trkpt><trkpt lat="45.4196783" lon="10.6502167"><ele>115.33333333333333</ele><time>2026-04-18T12:48:54.136Z</time></trkpt><trkpt lat="45.4197083" lon="10.6501083"><ele>116.66666666666666</ele><time>2026-04-18T12:48:55.149Z</time></trkpt><trkpt lat="45.4197433" lon="10.6499983"><ele>118.0</ele><time>2026-04-18T12:48:56.142Z</time></trkpt><trkpt lat="45.419775" lon="10.6498917"><ele>119.33333333333333</ele><time>2026-04-18T12:48:57.137Z</time></trkpt><trkpt lat="45.4198017" lon="10.6497983"><ele>120.66666666666666</ele><time>2026-04-18T12:48:58.151Z</time></trkpt><trkpt lat="45.4198517" lon="10.6496833"><ele>122.0</ele><time>2026-04-18T12:49:00.14Z</time></trkpt><trkpt lat="45.419875" lon="10.64959"><ele>122.0</ele><time>2026-04-18T12:49:10.137Z</time></trkpt><trkpt lat="45.4199433" lon="10.64945"><ele>121.99999999999999</ele><time>2026-04-18T12:49:12.149Z</time></trkpt><trkpt lat="45.4199867" lon="10.6493483"><ele>121.99999999999999</ele><time>2026-04-18T12:49:13.142Z</time></trkpt><trkpt lat="45.42004" lon="10.649245"><ele>122.0</ele><time>2026-04-18T12:49:14.136Z</time></trkpt><trkpt lat="45.4201083" lon="10.649135"><ele>122.0</ele><time>2026-04-18T12:49:15.138Z</time></trkpt><trkpt lat="45.4201717" lon="10.6489867"><ele>122.0</ele><time>2026-04-18T12:49:16.138Z</time></trkpt><trkpt lat="45.4202583" lon="10.6488417"><ele>122.0</ele><time>2026-04-18T12:49:17.15Z</time></trkpt><trkpt lat="45.4203233" lon="10.6487133"><ele>122.0</ele><time>2026-04-18T12:49:18.148Z</time></trkpt><trkpt lat="45.420405" lon="10.6485667"><ele>122.0</ele><time>2026-04-18T12:49:19.148Z</time></trkpt><trkpt lat="45.420475" lon="10.64841"><ele>123.19999999999999</ele><time>2026-04-18T12:49:20.133Z</time></trkpt><trkpt lat="45.42055" lon="10.6482933"><ele>124.39999999999999</ele><time>2026-04-18T12:49:21.151Z</time></trkpt><trkpt lat="45.4206167" lon="10.6481733"><ele>125.60000000000001</ele><time>2026-04-18T12:49:22.137Z</time></trkpt><trkpt lat="45.4206633" lon="10.648075"><ele>126.80000000000001</ele><time>2026-04-18T12:49:23.135Z</time></trkpt><trkpt lat="45.4207167" lon="10.64799"><ele>128.0</ele><time>2026-04-18T12:49:24.139Z</time></trkpt><trkpt lat="45.420805" lon="10.6478833"><ele>127.99999999999999</ele><time>2026-04-18T12:49:26.147Z</time></trkpt><trkpt lat="45.42089" lon="10.6477667"><ele>128.0</ele><time>2026-04-18T12:49:28.139Z</time></trkpt><trkpt lat="45.42094" lon="10.647695"><ele>128.0</ele><time>2026-04-18T12:49:29.14Z</time></trkpt><trkpt lat="45.4209983" lon="10.6476167"><ele>128.0</ele><time>2026-04-18T12:49:30.142Z</time></trkpt><trkpt lat="45.4210633" lon="10.647535"><ele>127.99999999999999</ele><time>2026-04-18T12:49:31.144Z</time></trkpt><trkpt lat="45.4211333" lon="10.6474533"><ele>128.0</ele><time>2026-04-18T12:49:32.147Z</time></trkpt><trkpt lat="45.4212" lon="10.6473867"><ele>127.99999999999999</ele><time>2026-04-18T12:49:33.141Z</time></trkpt><trkpt lat="45.4212667" lon="10.6473317"><ele>128.0</ele><time>2026-04-18T12:49:34.146Z</time></trkpt><trkpt lat="45.4213317" lon="10.6472833"><ele>128.0</ele><time>2026-04-18T12:49:35.142Z</time></trkpt><trkpt lat="45.421395" lon="10.64724"><ele>128.0</ele><time>2026-04-18T12:49:36.14Z</time></trkpt><trkpt lat="45.4214583" lon="10.6471983"><ele>127.99999999999999</ele><time>2026-04-18T12:49:37.144Z</time></trkpt><trkpt lat="45.42158" lon="10.64714"><ele>128.0</ele><time>2026-04-18T12:49:39.138Z</time></trkpt><trkpt lat="45.42171" lon="10.64712"><ele>127.99999999999999</ele><time>2026-04-18T12:49:41.152Z</time></trkpt><trkpt lat="45.4217817" lon="10.6471133"><ele>128.0</ele><time>2026-04-18T12:49:42.142Z</time></trkpt><trkpt lat="45.4218767" lon="10.6470933"><ele>128.0</ele><time>2026-04-18T12:49:44.158Z</time></trkpt><trkpt lat="45.4218917" lon="10.6469883"><ele>128.0</ele><time>2026-04-18T12:49:59.141Z</time></trkpt><trkpt lat="45.42184" lon="10.6468317"><ele>127.99999999999999</ele><time>2026-04-18T12:50:01.137Z</time></trkpt><trkpt lat="45.4218" lon="10.64674"><ele>128.0</ele><time>2026-04-18T12:50:02.145Z</time></trkpt><trkpt lat="45.42175" lon="10.6466417"><ele>128.0</ele><time>2026-04-18T12:50:03.137Z</time></trkpt><trkpt lat="45.4216967" lon="10.6465367"><ele>128.0</ele><time>2026-04-18T12:50:04.135Z</time></trkpt><trkpt lat="45.42163" lon="10.64642"><ele>128.0</ele><time>2026-04-18T12:50:05.139Z</time></trkpt><trkpt lat="45.421575" lon="10.64632"><ele>128.0</ele><time>2026-04-18T12:50:06.141Z</time></trkpt><trkpt lat="45.421505" lon="10.64619"><ele>128.0</ele><time>2026-04-18T12:50:07.163Z</time></trkpt><trkpt lat="45.4214367" lon="10.64607"><ele>128.0</ele><time>2026-04-18T12:50:08.143Z</time></trkpt><trkpt lat="45.4213617" lon="10.645935"><ele>128.0</ele><time>2026-04-18T12:50:09.148Z</time></trkpt><trkpt lat="45.4213017" lon="10.645805"><ele>128.0</ele><time>2026-04-18T12:50:10.138Z</time></trkpt><trkpt lat="45.4212267" lon="10.64569"><ele>128.0</ele><time>2026-04-18T12:50:11.14Z</time></trkpt><trkpt lat="45.4211533" lon="10.64555"><ele>129.0</ele><time>2026-04-18T12:50:12.139Z</time></trkpt><trkpt lat="45.42107" lon="10.6454517"><ele>130.0</ele><time>2026-04-18T12:50:13.136Z</time></trkpt><trkpt lat="45.4209817" lon="10.6453417"><ele>131.0</ele><time>2026-04-18T12:50:14.137Z</time></trkpt><trkpt lat="45.420915" lon="10.6452433"><ele>132.0</ele><time>2026-04-18T12:50:15.143Z</time></trkpt><trkpt lat="45.4208467" lon="10.645175"><ele>133.0</ele><time>2026-04-18T12:50:16.139Z</time></trkpt><trkpt lat="45.420815" lon="10.645065"><ele>133.0</ele><time>2026-04-18T12:50:17.154Z</time></trkpt><trkpt lat="45.4207583" lon="10.6449783"><ele>133.0</ele><time>2026-04-18T12:50:18.141Z</time></trkpt><trkpt lat="45.4206983" lon="10.6448783"><ele>133.0</ele><time>2026-04-18T12:50:19.145Z</time></trkpt><trkpt lat="45.4206383" lon="10.644785"><ele>133.0</ele><time>2026-04-18T12:50:20.139Z</time></trkpt><trkpt lat="45.4205783" lon="10.6446733"><ele>133.0</ele><time>2026-04-18T12:50:21.145Z</time></trkpt><trkpt lat="45.42052" lon="10.6445567"><ele>133.8</ele><time>2026-04-18T12:50:22.139Z</time></trkpt><trkpt lat="45.420475" lon="10.6444483"><ele>134.60000000000002</ele><time>2026-04-18T12:50:23.145Z</time></trkpt><trkpt lat="45.420425" lon="10.644315"><ele>135.39999999999998</ele><time>2026-04-18T12:50:24.139Z</time></trkpt><trkpt lat="45.4203717" lon="10.6441817"><ele>136.2</ele><time>2026-04-18T12:50:25.14Z</time></trkpt><trkpt lat="45.42032" lon="10.6440967"><ele>137.0</ele><time>2026-04-18T12:50:26.134Z</time></trkpt><trkpt lat="45.4202583" lon="10.6440083"><ele>137.0</ele><time>2026-04-18T12:50:27.138Z</time></trkpt><trkpt lat="45.42019" lon="10.643925"><ele>137.0</ele><time>2026-04-18T12:50:28.135Z</time></trkpt><trkpt lat="45.4201183" lon="10.6438483"><ele>137.0</ele><time>2026-04-18T12:50:29.141Z</time></trkpt><trkpt lat="45.42005" lon="10.6437767"><ele>137.0</ele><time>2026-04-18T12:50:30.143Z</time></trkpt><trkpt lat="45.41998" lon="10.643715"><ele>137.0</ele><time>2026-04-18T12:50:31.142Z</time></trkpt><trkpt lat="45.419905" lon="10.643655"><ele>137.0</ele><time>2026-04-18T12:50:32.142Z</time></trkpt><trkpt lat="45.41983" lon="10.6436033"><ele>137.16666666666666</ele><time>2026-04-18T12:50:33.135Z</time></trkpt><trkpt lat="45.419745" lon="10.6435583"><ele>137.33333333333331</ele><time>2026-04-18T12:50:34.14Z</time></trkpt><trkpt lat="45.41966" lon="10.6435283"><ele>137.5</ele><time>2026-04-18T12:50:35.15Z</time></trkpt><trkpt lat="45.4195717" lon="10.6435133"><ele>137.66666666666666</ele><time>2026-04-18T12:50:36.151Z</time></trkpt><trkpt lat="45.4194983" lon="10.6435167"><ele>137.83333333333334</ele><time>2026-04-18T12:50:37.14Z</time></trkpt><trkpt lat="45.4194283" lon="10.6435217"><ele>138.0</ele><time>2026-04-18T12:50:38.15Z</time></trkpt><trkpt lat="45.419355" lon="10.6435383"><ele>138.0</ele><time>2026-04-18T12:50:39.142Z</time></trkpt><trkpt lat="45.4192767" lon="10.6435633"><ele>138.0</ele><time>2026-04-18T12:50:40.146Z</time></trkpt><trkpt lat="45.4191883" lon="10.6435933"><ele>138.0</ele><time>2026-04-18T12:50:41.142Z</time></trkpt><trkpt lat="45.4190933" lon="10.64363"><ele>138.0</ele><time>2026-04-18T12:50:42.133Z</time></trkpt><trkpt lat="45.419005" lon="10.6436817"><ele>138.0</ele><time>2026-04-18T12:50:43.15Z</time></trkpt><trkpt lat="45.4189083" lon="10.6437183"><ele>135.4</ele><time>2026-04-18T12:50:44.141Z</time></trkpt><trkpt lat="45.418815" lon="10.6437367"><ele>132.8</ele><time>2026-04-18T12:50:45.138Z</time></trkpt><trkpt lat="45.4187117" lon="10.6437517"><ele>130.2</ele><time>2026-04-18T12:50:46.137Z</time></trkpt><trkpt lat="45.41861" lon="10.643745"><ele>127.6</ele><time>2026-04-18T12:50:47.143Z</time></trkpt><trkpt lat="45.4185067" lon="10.6437467"><ele>125.0</ele><time>2026-04-18T12:50:48.14Z</time></trkpt><trkpt lat="45.4184" lon="10.643755"><ele>125.0</ele><time>2026-04-18T12:50:49.137Z</time></trkpt><trkpt lat="45.418305" lon="10.64376"><ele>125.0</ele><time>2026-04-18T12:50:50.142Z</time></trkpt><trkpt lat="45.4182083" lon="10.6437667"><ele>125.0</ele><time>2026-04-18T12:50:51.142Z</time></trkpt><trkpt lat="45.4181167" lon="10.64376"><ele>125.0</ele><time>2026-04-18T12:50:52.14Z</time></trkpt><trkpt lat="45.4180233" lon="10.6437467"><ele>125.0</ele><time>2026-04-18T12:50:53.155Z</time></trkpt><trkpt lat="45.4179383" lon="10.6437233"><ele>124.2</ele><time>2026-04-18T12:50:54.148Z</time></trkpt><trkpt lat="45.41786" lon="10.6436917"><ele>123.4</ele><time>2026-04-18T12:50:55.146Z</time></trkpt><trkpt lat="45.4177933" lon="10.643655"><ele>122.6</ele><time>2026-04-18T12:50:56.144Z</time></trkpt><trkpt lat="45.4177" lon="10.64357"><ele>121.8</ele><time>2026-04-18T12:50:58.143Z</time></trkpt><trkpt lat="45.41768" lon="10.6434667"><ele>121.0</ele><time>2026-04-18T12:51:00.138Z</time></trkpt><trkpt lat="45.4177233" lon="10.6432983"><ele>121.0</ele><time>2026-04-18T12:51:02.131Z</time></trkpt><trkpt lat="45.4177433" lon="10.643185"><ele>121.0</ele><time>2026-04-18T12:51:03.144Z</time></trkpt><trkpt lat="45.4177617" lon="10.64306"><ele>121.0</ele><time>2026-04-18T12:51:04.14Z</time></trkpt><trkpt lat="45.4177717" lon="10.64292"><ele>121.0</ele><time>2026-04-18T12:51:05.135Z</time></trkpt><trkpt lat="45.417795" lon="10.6427533"><ele>121.0</ele><time>2026-04-18T12:51:06.141Z</time></trkpt><trkpt lat="45.4178117" lon="10.6426133"><ele>120.83333333333334</ele><time>2026-04-18T12:51:07.144Z</time></trkpt><trkpt lat="45.4178183" lon="10.6424967"><ele>120.66666666666667</ele><time>2026-04-18T12:51:08.146Z</time></trkpt><trkpt lat="45.4178367" lon="10.6423817"><ele>120.5</ele><time>2026-04-18T12:51:09.139Z</time></trkpt><trkpt lat="45.4178717" lon="10.6422833"><ele>120.33333333333334</ele><time>2026-04-18T12:51:10.143Z</time></trkpt><trkpt lat="45.4179117" lon="10.6422033"><ele>120.16666666666667</ele><time>2026-04-18T12:51:11.133Z</time></trkpt><trkpt lat="45.41796" lon="10.642135"><ele>120.0</ele><time>2026-04-18T12:51:12.136Z</time></trkpt><trkpt lat="45.4180233" lon="10.6420717"><ele>121.2</ele><time>2026-04-18T12:51:13.129Z</time></trkpt><trkpt lat="45.4180867" lon="10.6420067"><ele>122.4</ele><time>2026-04-18T12:51:14.139Z</time></trkpt><trkpt lat="45.4181533" lon="10.6419333"><ele>123.6</ele><time>2026-04-18T12:51:15.15Z</time></trkpt><trkpt lat="45.4182183" lon="10.6418383"><ele>124.8</ele><time>2026-04-18T12:51:16.141Z</time></trkpt><trkpt lat="45.4182867" lon="10.6417283"><ele>126.0</ele><time>2026-04-18T12:51:17.135Z</time></trkpt><trkpt lat="45.4183567" lon="10.6415967"><ele>126.0</ele><time>2026-04-18T12:51:18.143Z</time></trkpt><trkpt lat="45.41842" lon="10.6414667"><ele>126.0</ele><time>2026-04-18T12:51:19.15Z</time></trkpt><trkpt lat="45.4184833" lon="10.6413167"><ele>126.0</ele><time>2026-04-18T12:51:20.139Z</time></trkpt><trkpt lat="45.4185533" lon="10.6411667"><ele>126.0</ele><time>2026-04-18T12:51:21.136Z</time></trkpt><trkpt lat="45.418605" lon="10.6409867"><ele>125.19999999999999</ele><time>2026-04-18T12:51:22.155Z</time></trkpt><trkpt lat="45.418655" lon="10.6408333"><ele>124.39999999999999</ele><time>2026-04-18T12:51:23.14Z</time></trkpt><trkpt lat="45.4186983" lon="10.6406983"><ele>123.6</ele><time>2026-04-18T12:51:24.144Z</time></trkpt><trkpt lat="45.4187383" lon="10.6405617"><ele>122.8</ele><time>2026-04-18T12:51:25.134Z</time></trkpt><trkpt lat="45.4187883" lon="10.6404583"><ele>122.0</ele><time>2026-04-18T12:51:26.144Z</time></trkpt><trkpt lat="45.4188483" lon="10.6403217"><ele>124.39999999999999</ele><time>2026-04-18T12:51:27.139Z</time></trkpt><trkpt lat="45.4188983" lon="10.640205"><ele>126.79999999999998</ele><time>2026-04-18T12:51:28.132Z</time></trkpt><trkpt lat="45.4189267" lon="10.6400933"><ele>129.2</ele><time>2026-04-18T12:51:29.137Z</time></trkpt><trkpt lat="45.4189417" lon="10.63995"><ele>131.6</ele><time>2026-04-18T12:51:30.135Z</time></trkpt><trkpt lat="45.4189383" lon="10.6397883"><ele>134.0</ele><time>2026-04-18T12:51:31.134Z</time></trkpt><trkpt lat="45.4189433" lon="10.6396617"><ele>134.0</ele><time>2026-04-18T12:51:32.141Z</time></trkpt><trkpt lat="45.4189517" lon="10.6395383"><ele>134.0</ele><time>2026-04-18T12:51:33.139Z</time></trkpt><trkpt lat="45.418975" lon="10.6394083"><ele>134.0</ele><time>2026-04-18T12:51:34.137Z</time></trkpt><trkpt lat="45.4189967" lon="10.63929"><ele>134.0</ele><time>2026-04-18T12:51:35.139Z</time></trkpt><trkpt lat="45.4190217" lon="10.6391867"><ele>134.0</ele><time>2026-04-18T12:51:36.144Z</time></trkpt><trkpt lat="45.4190583" lon="10.6390883"><ele>134.0</ele><time>2026-04-18T12:51:37.135Z</time></trkpt><trkpt lat="45.4190983" lon="10.6389817"><ele>133.5</ele><time>2026-04-18T12:51:38.143Z</time></trkpt><trkpt lat="45.41915" lon="10.6388683"><ele>133.0</ele><time>2026-04-18T12:51:39.147Z</time></trkpt><trkpt lat="45.419215" lon="10.6387383"><ele>132.5</ele><time>2026-04-18T12:51:40.133Z</time></trkpt><trkpt lat="45.4192983" lon="10.6386117"><ele>132.0</ele><time>2026-04-18T12:51:41.133Z</time></trkpt><trkpt lat="45.4193767" lon="10.638465"><ele>129.5</ele><time>2026-04-18T12:51:42.146Z</time></trkpt><trkpt lat="45.4194533" lon="10.638315"><ele>127.0</ele><time>2026-04-18T12:51:43.134Z</time></trkpt><trkpt lat="45.4195233" lon="10.6381867"><ele>124.5</ele><time>2026-04-18T12:51:44.14Z</time></trkpt><trkpt lat="45.4195883" lon="10.6380417"><ele>122.0</ele><time>2026-04-18T12:51:45.143Z</time></trkpt><trkpt lat="45.41965" lon="10.63789"><ele>122.0</ele><time>2026-04-18T12:51:46.135Z</time></trkpt><trkpt lat="45.4197133" lon="10.637755"><ele>121.99999999999999</ele><time>2026-04-18T12:51:47.135Z</time></trkpt><trkpt lat="45.4197667" lon="10.6376033"><ele>121.99999999999999</ele><time>2026-04-18T12:51:48.142Z</time></trkpt><trkpt lat="45.4198167" lon="10.6374667"><ele>122.0</ele><time>2026-04-18T12:51:49.137Z</time></trkpt><trkpt lat="45.4198583" lon="10.6373483"><ele>122.0</ele><time>2026-04-18T12:51:50.137Z</time></trkpt><trkpt lat="45.4198933" lon="10.6372317"><ele>121.99999999999999</ele><time>2026-04-18T12:51:51.138Z</time></trkpt><trkpt lat="45.4199217" lon="10.6371167"><ele>122.0</ele><time>2026-04-18T12:51:52.141Z</time></trkpt><trkpt lat="45.4199367" lon="10.6370017"><ele>122.0</ele><time>2026-04-18T12:51:53.155Z</time></trkpt><trkpt lat="45.4199417" lon="10.6368767"><ele>122.0</ele><time>2026-04-18T12:51:54.184Z</time></trkpt><trkpt lat="45.4199333" lon="10.6367433"><ele>121.99999999999999</ele><time>2026-04-18T12:51:55.153Z</time></trkpt><trkpt lat="45.4199033" lon="10.6366317"><ele>122.0</ele><time>2026-04-18T12:51:56.142Z</time></trkpt><trkpt lat="45.4198633" lon="10.6365283"><ele>121.99999999999999</ele><time>2026-04-18T12:51:57.159Z</time></trkpt><trkpt lat="45.4198233" lon="10.6364267"><ele>122.0</ele><time>2026-04-18T12:51:58.138Z</time></trkpt><trkpt lat="45.4197883" lon="10.6363267"><ele>121.99999999999999</ele><time>2026-04-18T12:51:59.144Z</time></trkpt><trkpt lat="45.4197583" lon="10.6362283"><ele>121.99999999999999</ele><time>2026-04-18T12:52:00.154Z</time></trkpt><trkpt lat="45.4197283" lon="10.636135"><ele>122.0</ele><time>2026-04-18T12:52:01.148Z</time></trkpt><trkpt lat="45.4197" lon="10.636045"><ele>121.99999999999999</ele><time>2026-04-18T12:52:02.139Z</time></trkpt><trkpt lat="45.41967" lon="10.635965"><ele>121.99999999999999</ele><time>2026-04-18T12:52:03.14Z</time></trkpt><trkpt lat="45.419625" lon="10.63582"><ele>121.39999999999999</ele><time>2026-04-18T12:52:05.145Z</time></trkpt><trkpt lat="45.4195817" lon="10.6356733"><ele>120.79999999999998</ele><time>2026-04-18T12:52:07.138Z</time></trkpt><trkpt lat="45.4195367" lon="10.63552"><ele>120.2</ele><time>2026-04-18T12:52:09.141Z</time></trkpt><trkpt lat="45.419495" lon="10.6353767"><ele>119.6</ele><time>2026-04-18T12:52:11.155Z</time></trkpt><trkpt lat="45.419465" lon="10.6352417"><ele>119.0</ele><time>2026-04-18T12:52:13.135Z</time></trkpt><trkpt lat="45.4194417" lon="10.6351367"><ele>118.99999999999999</ele><time>2026-04-18T12:52:15.137Z</time></trkpt><trkpt lat="45.41941" lon="10.6350483"><ele>119.0</ele><time>2026-04-18T12:52:17.139Z</time></trkpt><trkpt lat="45.4193867" lon="10.6348617"><ele>119.0</ele><time>2026-04-18T12:52:27.144Z</time></trkpt><trkpt lat="45.419395" lon="10.6347717"><ele>119.0</ele><time>2026-04-18T12:52:28.141Z</time></trkpt><trkpt lat="45.4193983" lon="10.63467"><ele>118.99999999999999</ele><time>2026-04-18T12:52:29.152Z</time></trkpt><trkpt lat="45.419385" lon="10.6345667"><ele>119.0</ele><time>2026-04-18T12:52:30.143Z</time></trkpt><trkpt lat="45.419355" lon="10.6344483"><ele>118.5</ele><time>2026-04-18T12:52:31.139Z</time></trkpt><trkpt lat="45.4193083" lon="10.6342867"><ele>118.0</ele><time>2026-04-18T12:52:32.135Z</time></trkpt><trkpt lat="45.4192383" lon="10.6341183"><ele>117.5</ele><time>2026-04-18T12:52:33.14Z</time></trkpt><trkpt lat="45.4191867" lon="10.6339383"><ele>117.0</ele><time>2026-04-18T12:52:34.138Z</time></trkpt><trkpt lat="45.419165" lon="10.6337883"><ele>116.5</ele><time>2026-04-18T12:52:35.135Z</time></trkpt><trkpt lat="45.4191433" lon="10.6336117"><ele>116.0</ele><time>2026-04-18T12:52:36.141Z</time></trkpt><trkpt lat="45.4190917" lon="10.633415"><ele>115.5</ele><time>2026-04-18T12:52:37.146Z</time></trkpt><trkpt lat="45.4190617" lon="10.6332367"><ele>115.0</ele><time>2026-04-18T12:52:38.144Z</time></trkpt><trkpt lat="45.4190633" lon="10.633075"><ele>115.0</ele><time>2026-04-18T12:52:39.142Z</time></trkpt><trkpt lat="45.41903" lon="10.6329417"><ele>115.0</ele><time>2026-04-18T12:52:40.206Z</time></trkpt><trkpt lat="45.4190083" lon="10.6327917"><ele>115.0</ele><time>2026-04-18T12:52:41.139Z</time></trkpt><trkpt lat="45.4189983" lon="10.63264"><ele>115.0</ele><time>2026-04-18T12:52:42.142Z</time></trkpt><trkpt lat="45.4189717" lon="10.6324817"><ele>115.0</ele><time>2026-04-18T12:52:43.164Z</time></trkpt><trkpt lat="45.418955" lon="10.6323333"><ele>115.0</ele><time>2026-04-18T12:52:44.14Z</time></trkpt><trkpt lat="45.4189117" lon="10.6321467"><ele>115.0</ele><time>2026-04-18T12:52:45.137Z</time></trkpt><trkpt lat="45.4189117" lon="10.6319683"><ele>115.0</ele><time>2026-04-18T12:52:46.148Z</time></trkpt><trkpt lat="45.418935" lon="10.6318033"><ele>115.0</ele><time>2026-04-18T12:52:47.137Z</time></trkpt><trkpt lat="45.4189333" lon="10.6316283"><ele>115.6</ele><time>2026-04-18T12:52:48.141Z</time></trkpt><trkpt lat="45.4189433" lon="10.6314633"><ele>116.2</ele><time>2026-04-18T12:52:49.14Z</time></trkpt><trkpt lat="45.4189383" lon="10.6313217"><ele>116.80000000000001</ele><time>2026-04-18T12:52:50.133Z</time></trkpt><trkpt lat="45.4189233" lon="10.6312"><ele>117.4</ele><time>2026-04-18T12:52:51.139Z</time></trkpt><trkpt lat="45.41891" lon="10.631065"><ele>118.0</ele><time>2026-04-18T12:52:52.143Z</time></trkpt><trkpt lat="45.41891" lon="10.6309233"><ele>118.2</ele><time>2026-04-18T12:52:53.139Z</time></trkpt><trkpt lat="45.4189183" lon="10.630785"><ele>118.4</ele><time>2026-04-18T12:52:54.138Z</time></trkpt><trkpt lat="45.418935" lon="10.63065"><ele>118.60000000000001</ele><time>2026-04-18T12:52:55.146Z</time></trkpt><trkpt lat="45.418975" lon="10.6305333"><ele>118.80000000000001</ele><time>2026-04-18T12:52:56.143Z</time></trkpt><trkpt lat="45.4190067" lon="10.6304233"><ele>119.0</ele><time>2026-04-18T12:52:57.185Z</time></trkpt><trkpt lat="45.4190433" lon="10.6303133"><ele>118.6</ele><time>2026-04-18T12:52:58.13Z</time></trkpt><trkpt lat="45.4190867" lon="10.630205"><ele>118.2</ele><time>2026-04-18T12:52:59.14Z</time></trkpt><trkpt lat="45.4191033" lon="10.6300683"><ele>117.79999999999998</ele><time>2026-04-18T12:53:00.16Z</time></trkpt><trkpt lat="45.41911" lon="10.6299083"><ele>117.39999999999999</ele><time>2026-04-18T12:53:01.152Z</time></trkpt><trkpt lat="45.4190933" lon="10.6297167"><ele>117.0</ele><time>2026-04-18T12:53:02.142Z</time></trkpt><trkpt lat="45.4190717" lon="10.62953"><ele>116.5</ele><time>2026-04-18T12:53:03.138Z</time></trkpt><trkpt lat="45.4190833" lon="10.6293167"><ele>116.0</ele><time>2026-04-18T12:53:04.153Z</time></trkpt><trkpt lat="45.4191" lon="10.6291383"><ele>115.5</ele><time>2026-04-18T12:53:05.147Z</time></trkpt><trkpt lat="45.419095" lon="10.628975"><ele>115.0</ele><time>2026-04-18T12:53:06.136Z</time></trkpt><trkpt lat="45.4190833" lon="10.6288367"><ele>115.0</ele><time>2026-04-18T12:53:07.136Z</time></trkpt><trkpt lat="45.4190683" lon="10.6287117"><ele>115.0</ele><time>2026-04-18T12:53:08.142Z</time></trkpt><trkpt lat="45.4190567" lon="10.6285617"><ele>115.0</ele><time>2026-04-18T12:53:09.132Z</time></trkpt><trkpt lat="45.419015" lon="10.6283917"><ele>115.0</ele><time>2026-04-18T12:53:10.129Z</time></trkpt><trkpt lat="45.4189783" lon="10.628265"><ele>115.0</ele><time>2026-04-18T12:53:11.141Z</time></trkpt><trkpt lat="45.4189383" lon="10.6281117"><ele>115.0</ele><time>2026-04-18T12:53:12.141Z</time></trkpt><trkpt lat="45.418895" lon="10.6279583"><ele>115.0</ele><time>2026-04-18T12:53:13.143Z</time></trkpt><trkpt lat="45.4188533" lon="10.6277917"><ele>115.0</ele><time>2026-04-18T12:53:14.145Z</time></trkpt><trkpt lat="45.418825" lon="10.62762"><ele>115.0</ele><time>2026-04-18T12:53:15.134Z</time></trkpt><trkpt lat="45.4187917" lon="10.6274683"><ele>115.0</ele><time>2026-04-18T12:53:16.135Z</time></trkpt><trkpt lat="45.41875" lon="10.6272767"><ele>115.0</ele><time>2026-04-18T12:53:17.135Z</time></trkpt><trkpt lat="45.4187033" lon="10.6271117"><ele>115.0</ele><time>2026-04-18T12:53:18.14Z</time></trkpt><trkpt lat="45.4186717" lon="10.6269483"><ele>115.0</ele><time>2026-04-18T12:53:19.136Z</time></trkpt><trkpt lat="45.418625" lon="10.6267717"><ele>115.0</ele><time>2026-04-18T12:53:20.141Z</time></trkpt><trkpt lat="45.4185967" lon="10.6266117"><ele>115.0</ele><time>2026-04-18T12:53:21.149Z</time></trkpt><trkpt lat="45.4185583" lon="10.6264367"><ele>115.0</ele><time>2026-04-18T12:53:22.139Z</time></trkpt><trkpt lat="45.41854" lon="10.6262633"><ele>115.0</ele><time>2026-04-18T12:53:23.142Z</time></trkpt><trkpt lat="45.4185467" lon="10.6261033"><ele>115.0</ele><time>2026-04-18T12:53:24.14Z</time></trkpt><trkpt lat="45.41855" lon="10.62593"><ele>115.0</ele><time>2026-04-18T12:53:25.145Z</time></trkpt><trkpt lat="45.4185567" lon="10.6257567"><ele>115.0</ele><time>2026-04-18T12:53:26.14Z</time></trkpt><trkpt lat="45.4185733" lon="10.625595"><ele>115.0</ele><time>2026-04-18T12:53:27.141Z</time></trkpt><trkpt lat="45.4185583" lon="10.62546"><ele>115.00000000000001</ele><time>2026-04-18T12:53:28.14Z</time></trkpt><trkpt lat="45.418555" lon="10.6253317"><ele>115.0</ele><time>2026-04-18T12:53:29.155Z</time></trkpt><trkpt lat="45.41855" lon="10.625205"><ele>115.0</ele><time>2026-04-18T12:53:30.14Z</time></trkpt><trkpt lat="45.4185467" lon="10.6250833"><ele>115.0</ele><time>2026-04-18T12:53:31.144Z</time></trkpt><trkpt lat="45.4185383" lon="10.62496"><ele>115.00000000000001</ele><time>2026-04-18T12:53:32.141Z</time></trkpt><trkpt lat="45.41855" lon="10.62485"><ele>115.0</ele><time>2026-04-18T12:53:33.139Z</time></trkpt><trkpt lat="45.4185533" lon="10.6247133"><ele>114.6</ele><time>2026-04-18T12:53:34.135Z</time></trkpt><trkpt lat="45.41855" lon="10.6245667"><ele>114.2</ele><time>2026-04-18T12:53:35.148Z</time></trkpt><trkpt lat="45.418545" lon="10.6244067"><ele>113.80000000000001</ele><time>2026-04-18T12:53:36.141Z</time></trkpt><trkpt lat="45.4185567" lon="10.62426"><ele>113.4</ele><time>2026-04-18T12:53:37.145Z</time></trkpt><trkpt lat="45.418575" lon="10.6240933"><ele>113.0</ele><time>2026-04-18T12:53:38.144Z</time></trkpt><trkpt lat="45.4185983" lon="10.6239383"><ele>112.0</ele><time>2026-04-18T12:53:39.135Z</time></trkpt><trkpt lat="45.4186117" lon="10.6237767"><ele>111.0</ele><time>2026-04-18T12:53:40.157Z</time></trkpt><trkpt lat="45.418645" lon="10.6236183"><ele>110.0</ele><time>2026-04-18T12:53:41.142Z</time></trkpt><trkpt lat="45.4186733" lon="10.62345"><ele>109.0</ele><time>2026-04-18T12:53:42.139Z</time></trkpt><trkpt lat="45.418695" lon="10.6232767"><ele>108.83333333333334</ele><time>2026-04-18T12:53:43.142Z</time></trkpt><trkpt lat="45.4187083" lon="10.6231317"><ele>108.66666666666667</ele><time>2026-04-18T12:53:44.141Z</time></trkpt><trkpt lat="45.4187183" lon="10.623"><ele>108.5</ele><time>2026-04-18T12:53:45.134Z</time></trkpt><trkpt lat="45.41875" lon="10.62287"><ele>108.33333333333334</ele><time>2026-04-18T12:53:46.139Z</time></trkpt><trkpt lat="45.4187633" lon="10.62276"><ele>108.16666666666667</ele><time>2026-04-18T12:53:47.135Z</time></trkpt><trkpt lat="45.41877" lon="10.6226617"><ele>108.0</ele><time>2026-04-18T12:53:48.142Z</time></trkpt><trkpt lat="45.41873" lon="10.622525"><ele>108.0</ele><time>2026-04-18T12:53:50.137Z</time></trkpt><trkpt lat="45.4186283" lon="10.6224767"><ele>108.0</ele><time>2026-04-18T12:53:52.142Z</time></trkpt><trkpt lat="45.4185483" lon="10.622405"><ele>108.0</ele><time>2026-04-18T12:53:54.144Z</time></trkpt><trkpt lat="45.4185317" lon="10.6222617"><ele>108.0</ele><time>2026-04-18T12:53:56.133Z</time></trkpt><trkpt lat="45.4185317" lon="10.6221633"><ele>108.0</ele><time>2026-04-18T12:53:57.141Z</time></trkpt><trkpt lat="45.4185283" lon="10.6220567"><ele>108.0</ele><time>2026-04-18T12:53:58.137Z</time></trkpt><trkpt lat="45.4185133" lon="10.62196"><ele>108.2</ele><time>2026-04-18T12:53:59.145Z</time></trkpt><trkpt lat="45.4184783" lon="10.6218683"><ele>108.4</ele><time>2026-04-18T12:54:00.144Z</time></trkpt><trkpt lat="45.418435" lon="10.6217767"><ele>108.60000000000001</ele><time>2026-04-18T12:54:01.134Z</time></trkpt><trkpt lat="45.4183667" lon="10.6216983"><ele>108.80000000000001</ele><time>2026-04-18T12:54:02.141Z</time></trkpt><trkpt lat="45.4182583" lon="10.621635"><ele>109.0</ele><time>2026-04-18T12:54:03.139Z</time></trkpt><trkpt lat="45.4181333" lon="10.62159"><ele>109.0</ele><time>2026-04-18T12:54:04.135Z</time></trkpt><trkpt lat="45.4180133" lon="10.6215167"><ele>109.0</ele><time>2026-04-18T12:54:05.15Z</time></trkpt><trkpt lat="45.417895" lon="10.6214267"><ele>109.0</ele><time>2026-04-18T12:54:06.142Z</time></trkpt><trkpt lat="45.4177767" lon="10.6213233"><ele>109.0</ele><time>2026-04-18T12:54:07.152Z</time></trkpt><trkpt lat="45.4176617" lon="10.6212283"><ele>107.5</ele><time>2026-04-18T12:54:08.137Z</time></trkpt><trkpt lat="45.417545" lon="10.6211383"><ele>106.0</ele><time>2026-04-18T12:54:09.146Z</time></trkpt><trkpt lat="45.4174383" lon="10.6210333"><ele>104.5</ele><time>2026-04-18T12:54:10.138Z</time></trkpt><trkpt lat="45.417325" lon="10.620955"><ele>103.0</ele><time>2026-04-18T12:54:11.139Z</time></trkpt><trkpt lat="45.4172133" lon="10.6208667"><ele>104.0</ele><time>2026-04-18T12:54:12.144Z</time></trkpt><trkpt lat="45.4171" lon="10.6207667"><ele>105.0</ele><time>2026-04-18T12:54:13.135Z</time></trkpt><trkpt lat="45.4169883" lon="10.62068"><ele>106.0</ele><time>2026-04-18T12:54:14.132Z</time></trkpt><trkpt lat="45.4168733" lon="10.6205917"><ele>107.0</ele><time>2026-04-18T12:54:15.145Z</time></trkpt><trkpt lat="45.4167533" lon="10.6205033"><ele>107.0</ele><time>2026-04-18T12:54:16.142Z</time></trkpt><trkpt lat="45.416625" lon="10.6204083"><ele>107.0</ele><time>2026-04-18T12:54:17.138Z</time></trkpt><trkpt lat="45.416505" lon="10.62031"><ele>107.0</ele><time>2026-04-18T12:54:18.139Z</time></trkpt><trkpt lat="45.4163883" lon="10.6201983"><ele>107.0</ele><time>2026-04-18T12:54:19.137Z</time></trkpt><trkpt lat="45.4162617" lon="10.620095"><ele>107.5</ele><time>2026-04-18T12:54:20.138Z</time></trkpt><trkpt lat="45.41614" lon="10.6200033"><ele>108.0</ele><time>2026-04-18T12:54:21.132Z</time></trkpt><trkpt lat="45.41601" lon="10.61989"><ele>108.5</ele><time>2026-04-18T12:54:22.138Z</time></trkpt><trkpt lat="45.4158817" lon="10.619785"><ele>109.0</ele><time>2026-04-18T12:54:23.138Z</time></trkpt><trkpt lat="45.4157267" lon="10.6197783"><ele>109.0</ele><time>2026-04-18T12:54:24.14Z</time></trkpt><trkpt lat="45.4156017" lon="10.6197283"><ele>109.0</ele><time>2026-04-18T12:54:25.139Z</time></trkpt><trkpt lat="45.4154833" lon="10.61966"><ele>109.0</ele><time>2026-04-18T12:54:26.151Z</time></trkpt><trkpt lat="45.4153283" lon="10.61961"><ele>109.0</ele><time>2026-04-18T12:54:27.139Z</time></trkpt><trkpt lat="45.4151917" lon="10.6195567"><ele>109.0</ele><time>2026-04-18T12:54:28.145Z</time></trkpt><trkpt lat="45.41504" lon="10.6195083"><ele>109.0</ele><time>2026-04-18T12:54:29.139Z</time></trkpt><trkpt lat="45.41487" lon="10.6194617"><ele>109.0</ele><time>2026-04-18T12:54:30.137Z</time></trkpt><trkpt lat="45.4147167" lon="10.61942"><ele>108.66666666666667</ele><time>2026-04-18T12:54:31.141Z</time></trkpt><trkpt lat="45.4145583" lon="10.6193633"><ele>108.33333333333334</ele><time>2026-04-18T12:54:32.141Z</time></trkpt><trkpt lat="45.4144033" lon="10.6192817"><ele>108.0</ele><time>2026-04-18T12:54:33.138Z</time></trkpt><trkpt lat="45.4142467" lon="10.6192383"><ele>108.0</ele><time>2026-04-18T12:54:34.138Z</time></trkpt><trkpt lat="45.4141167" lon="10.6192033"><ele>108.0</ele><time>2026-04-18T12:54:35.146Z</time></trkpt><trkpt lat="45.4139817" lon="10.6191683"><ele>108.0</ele><time>2026-04-18T12:54:36.134Z</time></trkpt><trkpt lat="45.4138533" lon="10.619125"><ele>108.0</ele><time>2026-04-18T12:54:37.14Z</time></trkpt><trkpt lat="45.4137267" lon="10.6190933"><ele>107.4</ele><time>2026-04-18T12:54:38.139Z</time></trkpt><trkpt lat="45.413615" lon="10.619065"><ele>106.80000000000001</ele><time>2026-04-18T12:54:39.143Z</time></trkpt><trkpt lat="45.4135117" lon="10.61902"><ele>106.2</ele><time>2026-04-18T12:54:40.141Z</time></trkpt><trkpt lat="45.4134267" lon="10.619"><ele>105.6</ele><time>2026-04-18T12:54:41.14Z</time></trkpt><trkpt lat="45.41336" lon="10.618975"><ele>105.0</ele><time>2026-04-18T12:54:42.135Z</time></trkpt><trkpt lat="45.4132717" lon="10.61893"><ele>105.0</ele><time>2026-04-18T12:54:44.141Z</time></trkpt><trkpt lat="45.41321" lon="10.6188567"><ele>105.0</ele><time>2026-04-18T12:54:47.147Z</time></trkpt><trkpt lat="45.41322" lon="10.6187417"><ele>105.0</ele><time>2026-04-18T12:54:49.147Z</time></trkpt><trkpt lat="45.4132733" lon="10.61857"><ele>105.0</ele><time>2026-04-18T12:54:51.141Z</time></trkpt><trkpt lat="45.4133117" lon="10.6184567"><ele>105.0</ele><time>2026-04-18T12:54:52.131Z</time></trkpt><trkpt lat="45.4133583" lon="10.618315"><ele>104.75</ele><time>2026-04-18T12:54:53.137Z</time></trkpt><trkpt lat="45.4134017" lon="10.6181667"><ele>104.5</ele><time>2026-04-18T12:54:54.142Z</time></trkpt><trkpt lat="45.4134467" lon="10.61802"><ele>104.25</ele><time>2026-04-18T12:54:55.137Z</time></trkpt><trkpt lat="45.4134833" lon="10.61787"><ele>104.0</ele><time>2026-04-18T12:54:56.147Z</time></trkpt><trkpt lat="45.4135217" lon="10.617695"><ele>104.75</ele><time>2026-04-18T12:54:57.149Z</time></trkpt><trkpt lat="45.4135617" lon="10.617515"><ele>105.5</ele><time>2026-04-18T12:54:58.14Z</time></trkpt><trkpt lat="45.4136033" lon="10.6173267"><ele>106.25</ele><time>2026-04-18T12:54:59.137Z</time></trkpt><trkpt lat="45.4136467" lon="10.61715"><ele>107.0</ele><time>2026-04-18T12:55:00.144Z</time></trkpt><trkpt lat="45.4136883" lon="10.61698"><ele>107.19999999999999</ele><time>2026-04-18T12:55:01.148Z</time></trkpt><trkpt lat="45.4137467" lon="10.616835"><ele>107.39999999999999</ele><time>2026-04-18T12:55:02.134Z</time></trkpt><trkpt lat="45.4137833" lon="10.6166833"><ele>107.60000000000001</ele><time>2026-04-18T12:55:03.142Z</time></trkpt><trkpt lat="45.4138" lon="10.61658"><ele>107.80000000000001</ele><time>2026-04-18T12:55:04.145Z</time></trkpt><trkpt lat="45.4138083" lon="10.61646"><ele>108.0</ele><time>2026-04-18T12:55:05.138Z</time></trkpt><trkpt lat="45.41383" lon="10.61635"><ele>108.0</ele><time>2026-04-18T12:55:06.147Z</time></trkpt><trkpt lat="45.4138567" lon="10.616255"><ele>108.0</ele><time>2026-04-18T12:55:07.154Z</time></trkpt><trkpt lat="45.4138767" lon="10.61616"><ele>108.0</ele><time>2026-04-18T12:55:08.135Z</time></trkpt><trkpt lat="45.4138917" lon="10.6160717"><ele>108.0</ele><time>2026-04-18T12:55:09.146Z</time></trkpt><trkpt lat="45.4139033" lon="10.6159717"><ele>108.0</ele><time>2026-04-18T12:55:10.138Z</time></trkpt><trkpt lat="45.413915" lon="10.6158683"><ele>108.0</ele><time>2026-04-18T12:55:11.142Z</time></trkpt><trkpt lat="45.41392" lon="10.6157667"><ele>108.0</ele><time>2026-04-18T12:55:12.131Z</time></trkpt><trkpt lat="45.4139233" lon="10.6156583"><ele>108.2</ele><time>2026-04-18T12:55:13.147Z</time></trkpt><trkpt lat="45.4139183" lon="10.6155367"><ele>108.4</ele><time>2026-04-18T12:55:14.135Z</time></trkpt><trkpt lat="45.4139083" lon="10.61541"><ele>108.60000000000001</ele><time>2026-04-18T12:55:15.141Z</time></trkpt><trkpt lat="45.4138967" lon="10.6152617"><ele>108.80000000000001</ele><time>2026-04-18T12:55:16.135Z</time></trkpt><trkpt lat="45.4138783" lon="10.615125"><ele>109.0</ele><time>2026-04-18T12:55:17.141Z</time></trkpt><trkpt lat="45.41387" lon="10.61499"><ele>108.66666666666667</ele><time>2026-04-18T12:55:18.141Z</time></trkpt><trkpt lat="45.41386" lon="10.614855"><ele>108.33333333333334</ele><time>2026-04-18T12:55:19.169Z</time></trkpt><trkpt lat="45.4138533" lon="10.6147383"><ele>108.0</ele><time>2026-04-18T12:55:20.148Z</time></trkpt><trkpt lat="45.413845" lon="10.6146233"><ele>107.66666666666666</ele><time>2026-04-18T12:55:21.136Z</time></trkpt><trkpt lat="45.4138283" lon="10.6144983"><ele>107.33333333333333</ele><time>2026-04-18T12:55:22.141Z</time></trkpt><trkpt lat="45.4138167" lon="10.6143733"><ele>107.0</ele><time>2026-04-18T12:55:23.152Z</time></trkpt><trkpt lat="45.41381" lon="10.6142467"><ele>106.6</ele><time>2026-04-18T12:55:24.147Z</time></trkpt><trkpt lat="45.413805" lon="10.6141317"><ele>106.19999999999999</ele><time>2026-04-18T12:55:25.153Z</time></trkpt><trkpt lat="45.4138217" lon="10.6139817"><ele>105.8</ele><time>2026-04-18T12:55:26.148Z</time></trkpt><trkpt lat="45.4138667" lon="10.6138483"><ele>105.4</ele><time>2026-04-18T12:55:27.139Z</time></trkpt><trkpt lat="45.413905" lon="10.613715"><ele>105.0</ele><time>2026-04-18T12:55:28.159Z</time></trkpt><trkpt lat="45.41393" lon="10.6135733"><ele>104.83333333333333</ele><time>2026-04-18T12:55:29.138Z</time></trkpt><trkpt lat="45.4139633" lon="10.6134667"><ele>104.66666666666666</ele><time>2026-04-18T12:55:30.141Z</time></trkpt><trkpt lat="45.4140067" lon="10.6133417"><ele>104.5</ele><time>2026-04-18T12:55:31.149Z</time></trkpt><trkpt lat="45.41405" lon="10.61323"><ele>104.33333333333333</ele><time>2026-04-18T12:55:32.15Z</time></trkpt><trkpt lat="45.41409" lon="10.6131183"><ele>104.16666666666666</ele><time>2026-04-18T12:55:33.15Z</time></trkpt><trkpt lat="45.4141317" lon="10.6130167"><ele>104.0</ele><time>2026-04-18T12:55:34.132Z</time></trkpt><trkpt lat="45.414185" lon="10.6129233"><ele>103.99999999999999</ele><time>2026-04-18T12:55:35.147Z</time></trkpt><trkpt lat="45.4142417" lon="10.612825"><ele>104.0</ele><time>2026-04-18T12:55:36.14Z</time></trkpt><trkpt lat="45.4142817" lon="10.61272"><ele>104.0</ele><time>2026-04-18T12:55:37.141Z</time></trkpt><trkpt lat="45.4143283" lon="10.612615"><ele>104.0</ele><time>2026-04-18T12:55:38.14Z</time></trkpt><trkpt lat="45.414365" lon="10.6125017"><ele>103.99999999999999</ele><time>2026-04-18T12:55:39.149Z</time></trkpt><trkpt lat="45.4143983" lon="10.6123883"><ele>104.0</ele><time>2026-04-18T12:55:40.138Z</time></trkpt><trkpt lat="45.4144317" lon="10.6122867"><ele>103.66666666666666</ele><time>2026-04-18T12:55:41.139Z</time></trkpt><trkpt lat="45.41446" lon="10.6121883"><ele>103.33333333333333</ele><time>2026-04-18T12:55:42.144Z</time></trkpt><trkpt lat="45.4144883" lon="10.612085"><ele>103.0</ele><time>2026-04-18T12:55:43.134Z</time></trkpt><trkpt lat="45.41451" lon="10.6119667"><ele>102.66666666666666</ele><time>2026-04-18T12:55:44.135Z</time></trkpt><trkpt lat="45.4145267" lon="10.6118317"><ele>102.33333333333333</ele><time>2026-04-18T12:55:45.146Z</time></trkpt><trkpt lat="45.4145467" lon="10.6116783"><ele>102.0</ele><time>2026-04-18T12:55:46.136Z</time></trkpt><trkpt lat="45.4145867" lon="10.6115483"><ele>101.6</ele><time>2026-04-18T12:55:47.15Z</time></trkpt><trkpt lat="45.4146117" lon="10.61142"><ele>101.19999999999999</ele><time>2026-04-18T12:55:48.146Z</time></trkpt><trkpt lat="45.41461" lon="10.6112517"><ele>100.8</ele><time>2026-04-18T12:55:49.133Z</time></trkpt><trkpt lat="45.4146217" lon="10.6110917"><ele>100.4</ele><time>2026-04-18T12:55:50.131Z</time></trkpt><trkpt lat="45.414635" lon="10.6109267"><ele>100.0</ele><time>2026-04-18T12:55:51.14Z</time></trkpt><trkpt lat="45.41465" lon="10.610765"><ele>100.25</ele><time>2026-04-18T12:55:52.143Z</time></trkpt><trkpt lat="45.414665" lon="10.6105983"><ele>100.5</ele><time>2026-04-18T12:55:53.15Z</time></trkpt><trkpt lat="45.414695" lon="10.6104383"><ele>100.75</ele><time>2026-04-18T12:55:54.143Z</time></trkpt><trkpt lat="45.414725" lon="10.6102867"><ele>101.0</ele><time>2026-04-18T12:55:55.136Z</time></trkpt><trkpt lat="45.4147617" lon="10.6101317"><ele>101.0</ele><time>2026-04-18T12:55:56.139Z</time></trkpt><trkpt lat="45.4148033" lon="10.6099733"><ele>101.0</ele><time>2026-04-18T12:55:57.137Z</time></trkpt><trkpt lat="45.4148517" lon="10.6098117"><ele>101.0</ele><time>2026-04-18T12:55:58.14Z</time></trkpt><trkpt lat="45.4149033" lon="10.609645"><ele>101.0</ele><time>2026-04-18T12:55:59.141Z</time></trkpt><trkpt lat="45.4149533" lon="10.6094817"><ele>101.0</ele><time>2026-04-18T12:56:00.144Z</time></trkpt><trkpt lat="45.415" lon="10.60933"><ele>101.0</ele><time>2026-04-18T12:56:01.14Z</time></trkpt><trkpt lat="45.4150433" lon="10.6091817"><ele>101.0</ele><time>2026-04-18T12:56:02.135Z</time></trkpt><trkpt lat="45.4151033" lon="10.6090867"><ele>101.0</ele><time>2026-04-18T12:56:03.138Z</time></trkpt><trkpt lat="45.4151767" lon="10.6089217"><ele>100.99999999999999</ele><time>2026-04-18T12:56:04.139Z</time></trkpt><trkpt lat="45.4152283" lon="10.6088567"><ele>101.0</ele><time>2026-04-18T12:56:05.14Z</time></trkpt><trkpt lat="45.4153017" lon="10.608805"><ele>101.0</ele><time>2026-04-18T12:56:06.141Z</time></trkpt><trkpt lat="45.415355" lon="10.6087517"><ele>101.0</ele><time>2026-04-18T12:56:07.139Z</time></trkpt><trkpt lat="45.4154283" lon="10.6086383"><ele>100.99999999999999</ele><time>2026-04-18T12:56:09.138Z</time></trkpt><trkpt lat="45.4154067" lon="10.6085333"><ele>101.0</ele><time>2026-04-18T12:56:11.135Z</time></trkpt><trkpt lat="45.4153333" lon="10.6084733"><ele>100.33333333333333</ele><time>2026-04-18T12:56:14.131Z</time></trkpt><trkpt lat="45.4152683" lon="10.6084717"><ele>99.66666666666666</ele><time>2026-04-18T12:56:17.151Z</time></trkpt><trkpt lat="45.4152" lon="10.6084717"><ele>99.0</ele><time>2026-04-18T12:56:19.135Z</time></trkpt><trkpt lat="45.4151133" lon="10.60847"><ele>98.33333333333334</ele><time>2026-04-18T12:56:21.133Z</time></trkpt><trkpt lat="45.4149883" lon="10.6084567"><ele>97.66666666666667</ele><time>2026-04-18T12:56:23.141Z</time></trkpt><trkpt lat="45.4149183" lon="10.6084517"><ele>97.0</ele><time>2026-04-18T12:56:24.152Z</time></trkpt><trkpt lat="45.4148483" lon="10.6084483"><ele>97.0</ele><time>2026-04-18T12:56:25.135Z</time></trkpt><trkpt lat="45.41478" lon="10.608445"><ele>97.0</ele><time>2026-04-18T12:56:26.144Z</time></trkpt><trkpt lat="45.4147133" lon="10.60844"><ele>97.0</ele><time>2026-04-18T12:56:27.133Z</time></trkpt><trkpt lat="45.4146433" lon="10.6084367"><ele>97.0</ele><time>2026-04-18T12:56:28.14Z</time></trkpt><trkpt lat="45.4145717" lon="10.6084317"><ele>97.0</ele><time>2026-04-18T12:56:29.138Z</time></trkpt><trkpt lat="45.4144983" lon="10.6084217"><ele>97.0</ele><time>2026-04-18T12:56:30.14Z</time></trkpt><trkpt lat="45.4144233" lon="10.6084117"><ele>97.0</ele><time>2026-04-18T12:56:31.147Z</time></trkpt><trkpt lat="45.414355" lon="10.6084067"><ele>97.0</ele><time>2026-04-18T12:56:32.146Z</time></trkpt><trkpt lat="45.4142533" lon="10.6083967"><ele>97.0</ele><time>2026-04-18T12:56:34.138Z</time></trkpt><trkpt lat="45.4141883" lon="10.6083783"><ele>97.0</ele><time>2026-04-18T12:56:37.137Z</time></trkpt><trkpt lat="45.4141783" lon="10.6082367"><ele>97.0</ele><time>2026-04-18T12:56:41.134Z</time></trkpt><trkpt lat="45.4142117" lon="10.60808"><ele>97.0</ele><time>2026-04-18T12:56:43.141Z</time></trkpt><trkpt lat="45.41423" lon="10.6079833"><ele>97.0</ele><time>2026-04-18T12:56:44.14Z</time></trkpt><trkpt lat="45.414245" lon="10.607875"><ele>97.0</ele><time>2026-04-18T12:56:45.142Z</time></trkpt><trkpt lat="45.4142617" lon="10.6077617"><ele>97.0</ele><time>2026-04-18T12:56:46.142Z</time></trkpt><trkpt lat="45.4142783" lon="10.6076417"><ele>97.0</ele><time>2026-04-18T12:56:47.151Z</time></trkpt><trkpt lat="45.414295" lon="10.60751"><ele>97.0</ele><time>2026-04-18T12:56:48.137Z</time></trkpt><trkpt lat="45.4142983" lon="10.6073433"><ele>96.5</ele><time>2026-04-18T12:56:49.14Z</time></trkpt><trkpt lat="45.4143083" lon="10.607185"><ele>96.0</ele><time>2026-04-18T12:56:50.137Z</time></trkpt><trkpt lat="45.4143267" lon="10.6070167"><ele>95.5</ele><time>2026-04-18T12:56:51.13Z</time></trkpt><trkpt lat="45.4143483" lon="10.606835"><ele>95.0</ele><time>2026-04-18T12:56:52.141Z</time></trkpt><trkpt lat="45.4143733" lon="10.60669"><ele>95.0</ele><time>2026-04-18T12:56:53.137Z</time></trkpt><trkpt lat="45.4143867" lon="10.6065267"><ele>95.0</ele><time>2026-04-18T12:56:54.137Z</time></trkpt><trkpt lat="45.4144067" lon="10.6063533"><ele>95.0</ele><time>2026-04-18T12:56:55.147Z</time></trkpt><trkpt lat="45.414435" lon="10.6061383"><ele>95.0</ele><time>2026-04-18T12:56:56.141Z</time></trkpt><trkpt lat="45.4144917" lon="10.6059967"><ele>95.0</ele><time>2026-04-18T12:56:57.137Z</time></trkpt><trkpt lat="45.4144767" lon="10.6058467"><ele>95.0</ele><time>2026-04-18T12:56:58.138Z</time></trkpt><trkpt lat="45.4144917" lon="10.6057033"><ele>95.0</ele><time>2026-04-18T12:56:59.141Z</time></trkpt><trkpt lat="45.4144933" lon="10.6055867"><ele>95.0</ele><time>2026-04-18T12:57:00.15Z</time></trkpt><trkpt lat="45.4145" lon="10.6054617"><ele>95.0</ele><time>2026-04-18T12:57:01.131Z</time></trkpt><trkpt lat="45.41452" lon="10.6053317"><ele>95.0</ele><time>2026-04-18T12:57:02.144Z</time></trkpt><trkpt lat="45.4145333" lon="10.605205"><ele>95.0</ele><time>2026-04-18T12:57:03.152Z</time></trkpt><trkpt lat="45.4145483" lon="10.6050783"><ele>95.0</ele><time>2026-04-18T12:57:04.142Z</time></trkpt><trkpt lat="45.4145567" lon="10.6049633"><ele>95.0</ele><time>2026-04-18T12:57:05.138Z</time></trkpt><trkpt lat="45.41457" lon="10.60486"><ele>95.0</ele><time>2026-04-18T12:57:06.138Z</time></trkpt><trkpt lat="45.4145883" lon="10.6047233"><ele>95.0</ele><time>2026-04-18T12:57:08.138Z</time></trkpt><trkpt lat="45.4145633" lon="10.6048267"><ele>95.0</ele><time>2026-04-18T12:57:33.185Z</time></trkpt><trkpt lat="45.4145583" lon="10.604965"><ele>95.0</ele><time>2026-04-18T12:57:35.136Z</time></trkpt><trkpt lat="45.4145383" lon="10.605145"><ele>95.0</ele><time>2026-04-18T12:57:37.14Z</time></trkpt><trkpt lat="45.4145317" lon="10.60524"><ele>95.0</ele><time>2026-04-18T12:57:38.135Z</time></trkpt><trkpt lat="45.414525" lon="10.6053333"><ele>95.0</ele><time>2026-04-18T12:57:39.135Z</time></trkpt><trkpt lat="45.41452" lon="10.60543"><ele>95.0</ele><time>2026-04-18T12:57:40.143Z</time></trkpt><trkpt lat="45.4145033" lon="10.6055933"><ele>95.0</ele><time>2026-04-18T12:57:42.141Z</time></trkpt><trkpt lat="45.4144983" lon="10.6056983"><ele>95.0</ele><time>2026-04-18T12:57:44.14Z</time></trkpt><trkpt lat="45.4145067" lon="10.6058"><ele>95.0</ele><time>2026-04-18T12:57:48.141Z</time></trkpt><trkpt lat="45.414475" lon="10.6059567"><ele>95.0</ele><time>2026-04-18T12:57:51.134Z</time></trkpt><trkpt lat="45.4144583" lon="10.6060433"><ele>95.0</ele><time>2026-04-18T12:57:52.134Z</time></trkpt><trkpt lat="45.4144433" lon="10.6061433"><ele>95.0</ele><time>2026-04-18T12:57:53.14Z</time></trkpt><trkpt lat="45.4144317" lon="10.6062533"><ele>95.0</ele><time>2026-04-18T12:57:54.138Z</time></trkpt><trkpt lat="45.41442" lon="10.6063667"><ele>95.0</ele><time>2026-04-18T12:57:55.137Z</time></trkpt><trkpt lat="45.4144067" lon="10.6064817"><ele>95.0</ele><time>2026-04-18T12:57:56.141Z</time></trkpt><trkpt lat="45.414395" lon="10.6065983"><ele>95.0</ele><time>2026-04-18T12:57:57.133Z</time></trkpt><trkpt lat="45.4143817" lon="10.6067233"><ele>95.0</ele><time>2026-04-18T12:57:58.139Z</time></trkpt><trkpt lat="45.414365" lon="10.60687"><ele>95.0</ele><time>2026-04-18T12:57:59.136Z</time></trkpt><trkpt lat="45.41436" lon="10.60701"><ele>95.0</ele><time>2026-04-18T12:58:00.164Z</time></trkpt><trkpt lat="45.4143167" lon="10.6072733"><ele>95.0</ele><time>2026-04-18T12:58:02.137Z</time></trkpt><trkpt lat="45.4142933" lon="10.60741"><ele>95.0</ele><time>2026-04-18T12:58:03.14Z</time></trkpt><trkpt lat="45.4142783" lon="10.607545"><ele>95.0</ele><time>2026-04-18T12:58:04.134Z</time></trkpt><trkpt lat="45.4142667" lon="10.6076833"><ele>95.0</ele><time>2026-04-18T12:58:05.141Z</time></trkpt><trkpt lat="45.4142533" lon="10.6078083"><ele>95.0</ele><time>2026-04-18T12:58:06.141Z</time></trkpt><trkpt lat="45.41422" lon="10.6079483"><ele>95.0</ele><time>2026-04-18T12:58:07.135Z</time></trkpt><trkpt lat="45.41421" lon="10.6080667"><ele>95.0</ele><time>2026-04-18T12:58:08.146Z</time></trkpt><trkpt lat="45.4142" lon="10.6081817"><ele>95.0</ele><time>2026-04-18T12:58:09.143Z</time></trkpt><trkpt lat="45.4141917" lon="10.60833"><ele>95.33333333333334</ele><time>2026-04-18T12:58:11.139Z</time></trkpt><trkpt lat="45.4142267" lon="10.6084283"><ele>95.66666666666667</ele><time>2026-04-18T12:58:14.142Z</time></trkpt><trkpt lat="45.414315" lon="10.60846"><ele>96.0</ele><time>2026-04-18T12:58:16.138Z</time></trkpt><trkpt lat="45.4143783" lon="10.6084717"><ele>96.33333333333334</ele><time>2026-04-18T12:58:17.137Z</time></trkpt><trkpt lat="45.41445" lon="10.60847"><ele>96.66666666666667</ele><time>2026-04-18T12:58:18.149Z</time></trkpt><trkpt lat="45.4145283" lon="10.60847"><ele>97.0</ele><time>2026-04-18T12:58:19.152Z</time></trkpt><trkpt lat="45.4146167" lon="10.60847"><ele>97.0</ele><time>2026-04-18T12:58:20.144Z</time></trkpt><trkpt lat="45.4147217" lon="10.6084667"><ele>97.0</ele><time>2026-04-18T12:58:21.153Z</time></trkpt><trkpt lat="45.4148283" lon="10.60847"><ele>97.0</ele><time>2026-04-18T12:58:22.134Z</time></trkpt><trkpt lat="45.4149217" lon="10.6084717"><ele>97.0</ele><time>2026-04-18T12:58:23.138Z</time></trkpt><trkpt lat="45.4149983" lon="10.6084717"><ele>97.0</ele><time>2026-04-18T12:58:24.137Z</time></trkpt><trkpt lat="45.4150783" lon="10.6084733"><ele>97.00000000000001</ele><time>2026-04-18T12:58:25.142Z</time></trkpt><trkpt lat="45.4151633" lon="10.6084833"><ele>97.0</ele><time>2026-04-18T12:58:26.133Z</time></trkpt><trkpt lat="45.4152433" lon="10.60849"><ele>97.0</ele><time>2026-04-18T12:58:27.136Z</time></trkpt><trkpt lat="45.4153217" lon="10.6084983"><ele>97.0</ele><time>2026-04-18T12:58:28.139Z</time></trkpt><trkpt lat="45.4153867" lon="10.6085067"><ele>97.00000000000001</ele><time>2026-04-18T12:58:29.14Z</time></trkpt><trkpt lat="45.41545" lon="10.6085033"><ele>97.0</ele><time>2026-04-18T12:58:30.137Z</time></trkpt><trkpt lat="45.4155683" lon="10.6084617"><ele>97.16666666666667</ele><time>2026-04-18T12:58:32.145Z</time></trkpt><trkpt lat="45.4156217" lon="10.60841"><ele>97.33333333333334</ele><time>2026-04-18T12:58:33.144Z</time></trkpt><trkpt lat="45.4156717" lon="10.6083367"><ele>97.5</ele><time>2026-04-18T12:58:34.149Z</time></trkpt><trkpt lat="45.4157183" lon="10.60825"><ele>97.66666666666666</ele><time>2026-04-18T12:58:35.139Z</time></trkpt><trkpt lat="45.4157617" lon="10.608145"><ele>97.83333333333333</ele><time>2026-04-18T12:58:36.137Z</time></trkpt><trkpt lat="45.4158" lon="10.60803"><ele>98.0</ele><time>2026-04-18T12:58:37.129Z</time></trkpt><trkpt lat="45.4158633" lon="10.6077517"><ele>97.99999999999999</ele><time>2026-04-18T12:58:39.147Z</time></trkpt><trkpt lat="45.4158817" lon="10.6076267"><ele>98.0</ele><time>2026-04-18T12:58:40.148Z</time></trkpt><trkpt lat="45.415915" lon="10.6075017"><ele>98.0</ele><time>2026-04-18T12:58:41.151Z</time></trkpt><trkpt lat="45.415935" lon="10.6074"><ele>98.0</ele><time>2026-04-18T12:58:42.141Z</time></trkpt><trkpt lat="45.4159467" lon="10.6073067"><ele>97.99999999999999</ele><time>2026-04-18T12:58:43.137Z</time></trkpt><trkpt lat="45.4159767" lon="10.607145"><ele>98.0</ele><time>2026-04-18T12:58:45.137Z</time></trkpt><trkpt lat="45.4160083" lon="10.606975"><ele>98.0</ele><time>2026-04-18T12:58:47.14Z</time></trkpt><trkpt lat="45.416035" lon="10.6068133"><ele>98.0</ele><time>2026-04-18T12:58:49.148Z</time></trkpt><trkpt lat="45.41608" lon="10.6067133"><ele>98.0</ele><time>2026-04-18T12:58:51.162Z</time></trkpt><trkpt lat="45.41616" lon="10.6066783"><ele>98.0</ele><time>2026-04-18T12:58:53.146Z</time></trkpt><trkpt lat="45.4162767" lon="10.6066933"><ele>98.0</ele><time>2026-04-18T12:58:55.137Z</time></trkpt><trkpt lat="45.4163783" lon="10.6066817"><ele>97.66666666666666</ele><time>2026-04-18T12:58:57.143Z</time></trkpt><trkpt lat="45.4164517" lon="10.6066033"><ele>97.33333333333333</ele><time>2026-04-18T12:58:59.135Z</time></trkpt><trkpt lat="45.4164917" lon="10.6064517"><ele>97.0</ele><time>2026-04-18T12:59:01.13Z</time></trkpt><trkpt lat="45.4165117" lon="10.6063567"><ele>96.66666666666666</ele><time>2026-04-18T12:59:02.136Z</time></trkpt><trkpt lat="45.416535" lon="10.6062583"><ele>96.33333333333333</ele><time>2026-04-18T12:59:03.14Z</time></trkpt><trkpt lat="45.4165583" lon="10.6061617"><ele>96.0</ele><time>2026-04-18T12:59:04.137Z</time></trkpt><trkpt lat="45.4165817" lon="10.60606"><ele>96.0</ele><time>2026-04-18T12:59:05.134Z</time></trkpt><trkpt lat="45.4166083" lon="10.6059533"><ele>96.0</ele><time>2026-04-18T12:59:06.139Z</time></trkpt><trkpt lat="45.416635" lon="10.6058417"><ele>96.0</ele><time>2026-04-18T12:59:07.133Z</time></trkpt><trkpt lat="45.4166633" lon="10.6057267"><ele>96.0</ele><time>2026-04-18T12:59:08.135Z</time></trkpt><trkpt lat="45.4166933" lon="10.6056183"><ele>96.0</ele><time>2026-04-18T12:59:09.134Z</time></trkpt><trkpt lat="45.4167233" lon="10.6055217"><ele>96.0</ele><time>2026-04-18T12:59:10.141Z</time></trkpt><trkpt lat="45.4167483" lon="10.6054317"><ele>96.0</ele><time>2026-04-18T12:59:11.133Z</time></trkpt><trkpt lat="45.4167767" lon="10.6053467"><ele>96.0</ele><time>2026-04-18T12:59:12.144Z</time></trkpt><trkpt lat="45.4168083" lon="10.605265"><ele>96.0</ele><time>2026-04-18T12:59:13.141Z</time></trkpt><trkpt lat="45.4168417" lon="10.6051817"><ele>96.0</ele><time>2026-04-18T12:59:14.143Z</time></trkpt><trkpt lat="45.4169017" lon="10.6050633"><ele>96.0</ele><time>2026-04-18T12:59:16.137Z</time></trkpt><trkpt lat="45.417" lon="10.60505"><ele>96.0</ele><time>2026-04-18T12:59:19.135Z</time></trkpt><trkpt lat="45.417065" lon="10.6050967"><ele>96.16666666666667</ele><time>2026-04-18T12:59:20.163Z</time></trkpt><trkpt lat="45.4171367" lon="10.6051433"><ele>96.33333333333334</ele><time>2026-04-18T12:59:21.135Z</time></trkpt><trkpt lat="45.4172133" lon="10.6051917"><ele>96.5</ele><time>2026-04-18T12:59:22.135Z</time></trkpt><trkpt lat="45.4172967" lon="10.6052433"><ele>96.66666666666667</ele><time>2026-04-18T12:59:23.141Z</time></trkpt><trkpt lat="45.41739" lon="10.6053183"><ele>96.83333333333334</ele><time>2026-04-18T12:59:24.141Z</time></trkpt><trkpt lat="45.4174717" lon="10.605355"><ele>97.0</ele><time>2026-04-18T12:59:25.139Z</time></trkpt><trkpt lat="45.4175417" lon="10.6054"><ele>97.00000000000001</ele><time>2026-04-18T12:59:26.137Z</time></trkpt><trkpt lat="45.4176033" lon="10.6054567"><ele>97.0</ele><time>2026-04-18T12:59:27.133Z</time></trkpt><trkpt lat="45.417655" lon="10.6055367"><ele>97.0</ele><time>2026-04-18T12:59:28.132Z</time></trkpt><trkpt lat="45.417705" lon="10.6056233"><ele>97.0</ele><time>2026-04-18T12:59:29.135Z</time></trkpt><trkpt lat="45.4177667" lon="10.6057067"><ele>97.00000000000001</ele><time>2026-04-18T12:59:30.153Z</time></trkpt><trkpt lat="45.4178367" lon="10.6057867"><ele>97.0</ele><time>2026-04-18T12:59:31.147Z</time></trkpt><trkpt lat="45.4179017" lon="10.6058733"><ele>97.75</ele><time>2026-04-18T12:59:32.133Z</time></trkpt><trkpt lat="45.41804" lon="10.6060533"><ele>98.5</ele><time>2026-04-18T12:59:34.137Z</time></trkpt><trkpt lat="45.41811" lon="10.6061317"><ele>99.25</ele><time>2026-04-18T12:59:35.138Z</time></trkpt><trkpt lat="45.418185" lon="10.606215"><ele>100.0</ele><time>2026-04-18T12:59:36.144Z</time></trkpt><trkpt lat="45.4182567" lon="10.6062983"><ele>100.0</ele><time>2026-04-18T12:59:37.141Z</time></trkpt><trkpt lat="45.41834" lon="10.6063667"><ele>100.0</ele><time>2026-04-18T12:59:38.145Z</time></trkpt><trkpt lat="45.4184017" lon="10.6064317"><ele>100.0</ele><time>2026-04-18T12:59:39.132Z</time></trkpt><trkpt lat="45.4184833" lon="10.606525"><ele>100.0</ele><time>2026-04-18T12:59:41.142Z</time></trkpt><trkpt lat="45.418505" lon="10.6066467"><ele>100.0</ele><time>2026-04-18T12:59:44.137Z</time></trkpt><trkpt lat="45.4184467" lon="10.6067783"><ele>100.0</ele><time>2026-04-18T12:59:46.13Z</time></trkpt><trkpt lat="45.4183967" lon="10.60686"><ele>100.0</ele><time>2026-04-18T12:59:47.14Z</time></trkpt><trkpt lat="45.41834" lon="10.6069533"><ele>100.0</ele><time>2026-04-18T12:59:48.139Z</time></trkpt><trkpt lat="45.41828" lon="10.607055"><ele>100.0</ele><time>2026-04-18T12:59:49.134Z</time></trkpt><trkpt lat="45.4182117" lon="10.6071767"><ele>100.0</ele><time>2026-04-18T12:59:50.135Z</time></trkpt><trkpt lat="45.418155" lon="10.6072717"><ele>99.4</ele><time>2026-04-18T12:59:51.148Z</time></trkpt><trkpt lat="45.4181017" lon="10.6073667"><ele>98.8</ele><time>2026-04-18T12:59:52.14Z</time></trkpt><trkpt lat="45.418055" lon="10.6074633"><ele>98.19999999999999</ele><time>2026-04-18T12:59:53.138Z</time></trkpt><trkpt lat="45.4179867" lon="10.60756"><ele>97.6</ele><time>2026-04-18T12:59:54.145Z</time></trkpt><trkpt lat="45.41792" lon="10.60766"><ele>97.0</ele><time>2026-04-18T12:59:55.14Z</time></trkpt><trkpt lat="45.4178567" lon="10.6077633"><ele>97.33333333333334</ele><time>2026-04-18T12:59:56.146Z</time></trkpt><trkpt lat="45.4178033" lon="10.6078533"><ele>97.66666666666667</ele><time>2026-04-18T12:59:57.138Z</time></trkpt><trkpt lat="45.4177517" lon="10.60794"><ele>98.0</ele><time>2026-04-18T12:59:58.136Z</time></trkpt><trkpt lat="45.4176983" lon="10.608025"><ele>98.33333333333334</ele><time>2026-04-18T12:59:59.133Z</time></trkpt><trkpt lat="45.4176533" lon="10.6080983"><ele>98.66666666666667</ele><time>2026-04-18T13:00:00.149Z</time></trkpt><trkpt lat="45.417615" lon="10.60817"><ele>99.0</ele><time>2026-04-18T13:00:01.143Z</time></trkpt><trkpt lat="45.417555" lon="10.6083267"><ele>99.0</ele><time>2026-04-18T13:00:03.142Z</time></trkpt><trkpt lat="45.41752" lon="10.60842"><ele>99.0</ele><time>2026-04-18T13:00:04.14Z</time></trkpt><trkpt lat="45.4174833" lon="10.608515"><ele>99.0</ele><time>2026-04-18T13:00:05.141Z</time></trkpt><trkpt lat="45.4174417" lon="10.6086133"><ele>99.0</ele><time>2026-04-18T13:00:06.133Z</time></trkpt><trkpt lat="45.4174033" lon="10.6087117"><ele>99.0</ele><time>2026-04-18T13:00:07.151Z</time></trkpt><trkpt lat="45.4173683" lon="10.6088033"><ele>99.0</ele><time>2026-04-18T13:00:08.141Z</time></trkpt><trkpt lat="45.4173367" lon="10.6088833"><ele>99.0</ele><time>2026-04-18T13:00:09.144Z</time></trkpt><trkpt lat="45.4172867" lon="10.60899"><ele>99.66666666666667</ele><time>2026-04-18T13:00:11.133Z</time></trkpt><trkpt lat="45.4172683" lon="10.609085"><ele>100.33333333333334</ele><time>2026-04-18T13:00:15.139Z</time></trkpt><trkpt lat="45.4173433" lon="10.6091317"><ele>101.0</ele><time>2026-04-18T13:00:17.139Z</time></trkpt><trkpt lat="45.4174033" lon="10.6091617"><ele>101.66666666666667</ele><time>2026-04-18T13:00:18.14Z</time></trkpt><trkpt lat="45.4174783" lon="10.6092"><ele>102.33333333333334</ele><time>2026-04-18T13:00:19.134Z</time></trkpt><trkpt lat="45.41756" lon="10.6092433"><ele>103.0</ele><time>2026-04-18T13:00:20.141Z</time></trkpt><trkpt lat="45.4176367" lon="10.6092883"><ele>103.0</ele><time>2026-04-18T13:00:21.142Z</time></trkpt><trkpt lat="45.4177033" lon="10.60933"><ele>103.0</ele><time>2026-04-18T13:00:22.131Z</time></trkpt><trkpt lat="45.4177917" lon="10.6093967"><ele>103.0</ele><time>2026-04-18T13:00:24.167Z</time></trkpt><trkpt lat="45.4178067" lon="10.6095267"><ele>103.0</ele><time>2026-04-18T13:00:27.144Z</time></trkpt><trkpt lat="45.41776" lon="10.6096567"><ele>103.0</ele><time>2026-04-18T13:00:29.138Z</time></trkpt><trkpt lat="45.4177183" lon="10.6098067"><ele>103.42857142857142</ele><time>2026-04-18T13:00:31.14Z</time></trkpt><trkpt lat="45.4176983" lon="10.6098933"><ele>103.85714285714286</ele><time>2026-04-18T13:00:32.139Z</time></trkpt><trkpt lat="45.4176817" lon="10.60999"><ele>104.28571428571428</ele><time>2026-04-18T13:00:33.145Z</time></trkpt><trkpt lat="45.417665" lon="10.6100867"><ele>104.71428571428571</ele><time>2026-04-18T13:00:34.144Z</time></trkpt><trkpt lat="45.4176517" lon="10.6101817"><ele>105.14285714285714</ele><time>2026-04-18T13:00:35.139Z</time></trkpt><trkpt lat="45.4176383" lon="10.6102783"><ele>105.57142857142857</ele><time>2026-04-18T13:00:36.138Z</time></trkpt><trkpt lat="45.417625" lon="10.6103733"><ele>106.0</ele><time>2026-04-18T13:00:37.13Z</time></trkpt><trkpt lat="45.41761" lon="10.61047"><ele>106.50000000000001</ele><time>2026-04-18T13:00:38.133Z</time></trkpt><trkpt lat="45.4175917" lon="10.61057"><ele>107.0</ele><time>2026-04-18T13:00:39.147Z</time></trkpt><trkpt lat="45.4175717" lon="10.610675"><ele>107.5</ele><time>2026-04-18T13:00:40.136Z</time></trkpt><trkpt lat="45.4175533" lon="10.61078"><ele>108.0</ele><time>2026-04-18T13:00:41.138Z</time></trkpt><trkpt lat="45.417535" lon="10.6108883"><ele>108.50000000000001</ele><time>2026-04-18T13:00:42.153Z</time></trkpt><trkpt lat="45.4175167" lon="10.6109983"><ele>109.0</ele><time>2026-04-18T13:00:43.138Z</time></trkpt><trkpt lat="45.4174983" lon="10.61111"><ele>109.0</ele><time>2026-04-18T13:00:44.134Z</time></trkpt><trkpt lat="45.4174833" lon="10.6112117"><ele>109.0</ele><time>2026-04-18T13:00:45.136Z</time></trkpt><trkpt lat="45.41747" lon="10.611305"><ele>109.0</ele><time>2026-04-18T13:00:46.146Z</time></trkpt><trkpt lat="45.4174583" lon="10.6113967"><ele>109.0</ele><time>2026-04-18T13:00:47.138Z</time></trkpt><trkpt lat="45.4174467" lon="10.6114933"><ele>109.0</ele><time>2026-04-18T13:00:48.138Z</time></trkpt><trkpt lat="45.417435" lon="10.6115933"><ele>109.0</ele><time>2026-04-18T13:00:49.137Z</time></trkpt><trkpt lat="45.4174217" lon="10.611695"><ele>109.0</ele><time>2026-04-18T13:00:50.138Z</time></trkpt><trkpt lat="45.41741" lon="10.611795"><ele>109.0</ele><time>2026-04-18T13:00:51.134Z</time></trkpt><trkpt lat="45.4173967" lon="10.611885"><ele>109.0</ele><time>2026-04-18T13:00:52.135Z</time></trkpt><trkpt lat="45.4173783" lon="10.6120283"><ele>109.0</ele><time>2026-04-18T13:00:54.142Z</time></trkpt><trkpt lat="45.4173567" lon="10.6121533"><ele>109.0</ele><time>2026-04-18T13:00:56.14Z</time></trkpt><trkpt lat="45.417335" lon="10.6122833"><ele>109.0</ele><time>2026-04-18T13:00:58.139Z</time></trkpt><trkpt lat="45.417295" lon="10.6124283"><ele>108.66666666666667</ele><time>2026-04-18T13:01:00.145Z</time></trkpt><trkpt lat="45.4172717" lon="10.6125133"><ele>108.33333333333334</ele><time>2026-04-18T13:01:01.139Z</time></trkpt><trkpt lat="45.417245" lon="10.6126033"><ele>108.0</ele><time>2026-04-18T13:01:02.138Z</time></trkpt><trkpt lat="45.4172183" lon="10.6126933"><ele>107.66666666666666</ele><time>2026-04-18T13:01:03.133Z</time></trkpt><trkpt lat="45.4171933" lon="10.6127783"><ele>107.33333333333333</ele><time>2026-04-18T13:01:04.131Z</time></trkpt><trkpt lat="45.41715" lon="10.61293"><ele>107.0</ele><time>2026-04-18T13:01:06.138Z</time></trkpt><trkpt lat="45.4171033" lon="10.6130683"><ele>107.0</ele><time>2026-04-18T13:01:08.137Z</time></trkpt><trkpt lat="45.4170567" lon="10.6132"><ele>106.99999999999999</ele><time>2026-04-18T13:01:10.138Z</time></trkpt><trkpt lat="45.4169883" lon="10.6133167"><ele>106.99999999999999</ele><time>2026-04-18T13:01:12.157Z</time></trkpt><trkpt lat="45.4169183" lon="10.6133767"><ele>107.0</ele><time>2026-04-18T13:01:14.146Z</time></trkpt><trkpt lat="45.4169933" lon="10.6132833"><ele>107.0</ele><time>2026-04-18T13:01:20.145Z</time></trkpt><trkpt lat="45.4170217" lon="10.613195"><ele>106.99999999999999</ele><time>2026-04-18T13:01:21.143Z</time></trkpt><trkpt lat="45.4170617" lon="10.613095"><ele>107.0</ele><time>2026-04-18T13:01:22.136Z</time></trkpt><trkpt lat="45.4171" lon="10.61299"><ele>107.0</ele><time>2026-04-18T13:01:23.133Z</time></trkpt><trkpt lat="45.4171383" lon="10.61288"><ele>107.0</ele><time>2026-04-18T13:01:24.138Z</time></trkpt><trkpt lat="45.417175" lon="10.6127717"><ele>106.99999999999999</ele><time>2026-04-18T13:01:25.137Z</time></trkpt><trkpt lat="45.41721" lon="10.61266"><ele>107.0</ele><time>2026-04-18T13:01:26.133Z</time></trkpt><trkpt lat="45.4172467" lon="10.61255"><ele>106.83333333333333</ele><time>2026-04-18T13:01:27.138Z</time></trkpt><trkpt lat="45.4172767" lon="10.6124533"><ele>106.66666666666666</ele><time>2026-04-18T13:01:28.142Z</time></trkpt><trkpt lat="45.4173067" lon="10.6123667"><ele>106.5</ele><time>2026-04-18T13:01:29.131Z</time></trkpt><trkpt lat="45.4173333" lon="10.6122833"><ele>106.33333333333334</ele><time>2026-04-18T13:01:30.136Z</time></trkpt><trkpt lat="45.4173617" lon="10.6121117"><ele>106.16666666666667</ele><time>2026-04-18T13:01:32.14Z</time></trkpt><trkpt lat="45.4173667" lon="10.6120167"><ele>106.0</ele><time>2026-04-18T13:01:33.133Z</time></trkpt><trkpt lat="45.4173717" lon="10.6119167"><ele>106.6</ele><time>2026-04-18T13:01:34.141Z</time></trkpt><trkpt lat="45.41738" lon="10.611815"><ele>107.19999999999999</ele><time>2026-04-18T13:01:35.144Z</time></trkpt><trkpt lat="45.4173917" lon="10.6117183"><ele>107.80000000000001</ele><time>2026-04-18T13:01:36.138Z</time></trkpt><trkpt lat="45.4174167" lon="10.611555"><ele>108.4</ele><time>2026-04-18T13:01:38.134Z</time></trkpt><trkpt lat="45.4174433" lon="10.61138"><ele>109.0</ele><time>2026-04-18T13:01:40.148Z</time></trkpt><trkpt lat="45.4174617" lon="10.6112767"><ele>109.0</ele><time>2026-04-18T13:01:41.133Z</time></trkpt><trkpt lat="45.4174867" lon="10.61116"><ele>109.0</ele><time>2026-04-18T13:01:42.135Z</time></trkpt><trkpt lat="45.4175167" lon="10.61103"><ele>109.0</ele><time>2026-04-18T13:01:43.138Z</time></trkpt><trkpt lat="45.4175267" lon="10.6108883"><ele>109.0</ele><time>2026-04-18T13:01:44.155Z</time></trkpt><trkpt lat="45.4175483" lon="10.6107467"><ele>109.0</ele><time>2026-04-18T13:01:45.134Z</time></trkpt><trkpt lat="45.4175667" lon="10.6105983"><ele>109.0</ele><time>2026-04-18T13:01:46.15Z</time></trkpt><trkpt lat="45.4175833" lon="10.6104483"><ele>109.0</ele><time>2026-04-18T13:01:47.144Z</time></trkpt><trkpt lat="45.4176083" lon="10.6103017"><ele>109.0</ele><time>2026-04-18T13:01:48.137Z</time></trkpt><trkpt lat="45.4176333" lon="10.6101683"><ele>109.0</ele><time>2026-04-18T13:01:49.142Z</time></trkpt><trkpt lat="45.4176533" lon="10.6100467"><ele>109.0</ele><time>2026-04-18T13:01:50.148Z</time></trkpt><trkpt lat="45.4176717" lon="10.6099433"><ele>108.50000000000001</ele><time>2026-04-18T13:01:51.144Z</time></trkpt><trkpt lat="45.41769" lon="10.6098217"><ele>108.0</ele><time>2026-04-18T13:01:53.145Z</time></trkpt><trkpt lat="45.4177017" lon="10.609695"><ele>107.5</ele><time>2026-04-18T13:01:57.136Z</time></trkpt><trkpt lat="45.4177267" lon="10.6095733"><ele>107.0</ele><time>2026-04-18T13:01:59.136Z</time></trkpt><trkpt lat="45.417755" lon="10.6094733"><ele>106.50000000000001</ele><time>2026-04-18T13:02:01.138Z</time></trkpt><trkpt lat="45.4178" lon="10.6093917"><ele>106.0</ele><time>2026-04-18T13:02:04.141Z</time></trkpt><trkpt lat="45.4177417" lon="10.6093117"><ele>105.50000000000001</ele><time>2026-04-18T13:02:09.151Z</time></trkpt><trkpt lat="45.41764" lon="10.6092583"><ele>105.0</ele><time>2026-04-18T13:02:11.141Z</time></trkpt><trkpt lat="45.4175717" lon="10.6092267"><ele>104.5</ele><time>2026-04-18T13:02:12.144Z</time></trkpt><trkpt lat="45.417495" lon="10.60919"><ele>104.0</ele><time>2026-04-18T13:02:13.131Z</time></trkpt><trkpt lat="45.4174183" lon="10.60915"><ele>103.50000000000001</ele><time>2026-04-18T13:02:14.142Z</time></trkpt><trkpt lat="45.417355" lon="10.60911"><ele>103.0</ele><time>2026-04-18T13:02:15.141Z</time></trkpt><trkpt lat="45.4172833" lon="10.6090167"><ele>103.0</ele><time>2026-04-18T13:02:17.138Z</time></trkpt><trkpt lat="45.4172783" lon="10.6088867"><ele>103.0</ele><time>2026-04-18T13:02:19.135Z</time></trkpt><trkpt lat="45.4173433" lon="10.6087583"><ele>103.0</ele><time>2026-04-18T13:02:21.146Z</time></trkpt><trkpt lat="45.417415" lon="10.608605"><ele>103.0</ele><time>2026-04-18T13:02:23.132Z</time></trkpt><trkpt lat="45.4174533" lon="10.6085133"><ele>103.0</ele><time>2026-04-18T13:02:24.157Z</time></trkpt><trkpt lat="45.4174917" lon="10.60841"><ele>102.2</ele><time>2026-04-18T13:02:25.14Z</time></trkpt><trkpt lat="45.4175317" lon="10.6082983"><ele>101.4</ele><time>2026-04-18T13:02:26.132Z</time></trkpt><trkpt lat="45.4175767" lon="10.6081833"><ele>100.60000000000001</ele><time>2026-04-18T13:02:27.14Z</time></trkpt><trkpt lat="45.4176117" lon="10.60805"><ele>99.80000000000001</ele><time>2026-04-18T13:02:28.141Z</time></trkpt><trkpt lat="45.4176667" lon="10.6079317"><ele>99.0</ele><time>2026-04-18T13:02:29.134Z</time></trkpt><trkpt lat="45.41774" lon="10.6078133"><ele>98.5</ele><time>2026-04-18T13:02:30.136Z</time></trkpt><trkpt lat="45.4178183" lon="10.6076967"><ele>98.0</ele><time>2026-04-18T13:02:31.145Z</time></trkpt><trkpt lat="45.4178983" lon="10.60757"><ele>97.5</ele><time>2026-04-18T13:02:32.136Z</time></trkpt><trkpt lat="45.4179917" lon="10.6074567"><ele>97.0</ele><time>2026-04-18T13:02:33.136Z</time></trkpt><trkpt lat="45.4180633" lon="10.6073333"><ele>96.8</ele><time>2026-04-18T13:02:34.141Z</time></trkpt><trkpt lat="45.4181433" lon="10.6072067"><ele>96.6</ele><time>2026-04-18T13:02:35.138Z</time></trkpt><trkpt lat="45.4182167" lon="10.607085"><ele>96.39999999999999</ele><time>2026-04-18T13:02:36.14Z</time></trkpt><trkpt lat="45.4182783" lon="10.6069767"><ele>96.19999999999999</ele><time>2026-04-18T13:02:37.144Z</time></trkpt><trkpt lat="45.41834" lon="10.6068783"><ele>96.0</ele><time>2026-04-18T13:02:38.141Z</time></trkpt><trkpt lat="45.4183917" lon="10.606795"><ele>96.8</ele><time>2026-04-18T13:02:39.146Z</time></trkpt><trkpt lat="45.4184367" lon="10.606725"><ele>97.6</ele><time>2026-04-18T13:02:40.138Z</time></trkpt><trkpt lat="45.4184917" lon="10.6066367"><ele>98.4</ele><time>2026-04-18T13:02:42.138Z</time></trkpt><trkpt lat="45.4184933" lon="10.6065283"><ele>99.2</ele><time>2026-04-18T13:02:50.174Z</time></trkpt><trkpt lat="45.4184167" lon="10.60645"><ele>100.0</ele><time>2026-04-18T13:02:52.133Z</time></trkpt><trkpt lat="45.418305" lon="10.6063333"><ele>100.00000000000001</ele><time>2026-04-18T13:02:54.15Z</time></trkpt><trkpt lat="45.4182333" lon="10.6062617"><ele>100.0</ele><time>2026-04-18T13:02:55.137Z</time></trkpt><trkpt lat="45.4181583" lon="10.6061883"><ele>100.0</ele><time>2026-04-18T13:02:56.141Z</time></trkpt><trkpt lat="45.4180767" lon="10.6061217"><ele>100.0</ele><time>2026-04-18T13:02:57.149Z</time></trkpt><trkpt lat="45.4180083" lon="10.60604"><ele>100.00000000000001</ele><time>2026-04-18T13:02:58.145Z</time></trkpt><trkpt lat="45.41795" lon="10.605965"><ele>100.0</ele><time>2026-04-18T13:02:59.143Z</time></trkpt><trkpt lat="45.41789" lon="10.6058917"><ele>99.50000000000001</ele><time>2026-04-18T13:03:00.135Z</time></trkpt><trkpt lat="45.41783" lon="10.6058217"><ele>99.0</ele><time>2026-04-18T13:03:01.14Z</time></trkpt><trkpt lat="45.4177717" lon="10.6057533"><ele>98.5</ele><time>2026-04-18T13:03:02.157Z</time></trkpt><trkpt lat="45.4177167" lon="10.6056917"><ele>98.0</ele><time>2026-04-18T13:03:03.141Z</time></trkpt><trkpt lat="45.4176683" lon="10.6056283"><ele>97.50000000000001</ele><time>2026-04-18T13:03:04.138Z</time></trkpt><trkpt lat="45.4176267" lon="10.605555"><ele>97.0</ele><time>2026-04-18T13:03:05.141Z</time></trkpt><trkpt lat="45.4175683" lon="10.6054283"><ele>97.0</ele><time>2026-04-18T13:03:07.178Z</time></trkpt><trkpt lat="45.4174617" lon="10.60534"><ele>97.0</ele><time>2026-04-18T13:03:09.147Z</time></trkpt><trkpt lat="45.4173883" lon="10.6053017"><ele>97.0</ele><time>2026-04-18T13:03:10.147Z</time></trkpt><trkpt lat="45.4173017" lon="10.6052567"><ele>97.0</ele><time>2026-04-18T13:03:11.132Z</time></trkpt><trkpt lat="45.4172133" lon="10.6052183"><ele>97.0</ele><time>2026-04-18T13:03:12.138Z</time></trkpt><trkpt lat="45.4171367" lon="10.6051617"><ele>97.0</ele><time>2026-04-18T13:03:13.136Z</time></trkpt><trkpt lat="45.41707" lon="10.60512"><ele>97.0</ele><time>2026-04-18T13:03:14.146Z</time></trkpt><trkpt lat="45.4169733" lon="10.6050567"><ele>97.0</ele><time>2026-04-18T13:03:16.136Z</time></trkpt><trkpt lat="45.41692" lon="10.6049783"><ele>97.0</ele><time>2026-04-18T13:03:18.147Z</time></trkpt><trkpt lat="45.4169533" lon="10.6048517"><ele>97.0</ele><time>2026-04-18T13:03:20.146Z</time></trkpt><trkpt lat="45.4170133" lon="10.6046817"><ele>97.0</ele><time>2026-04-18T13:03:22.149Z</time></trkpt><trkpt lat="45.417045" lon="10.604585"><ele>97.0</ele><time>2026-04-18T13:03:23.133Z</time></trkpt><trkpt lat="45.41707" lon="10.6044983"><ele>97.0</ele><time>2026-04-18T13:03:24.134Z</time></trkpt><trkpt lat="45.4171033" lon="10.6043917"><ele>97.0</ele><time>2026-04-18T13:03:26.149Z</time></trkpt><trkpt lat="45.41717" lon="10.604345"><ele>97.0</ele><time>2026-04-18T13:03:30.13Z</time></trkpt><trkpt lat="45.4172417" lon="10.6043767"><ele>97.0</ele><time>2026-04-18T13:03:32.153Z</time></trkpt><trkpt lat="45.4173083" lon="10.604405"><ele>97.0</ele><time>2026-04-18T13:03:35.148Z</time></trkpt><trkpt lat="45.41732" lon="10.6043033"><ele>97.00000000000001</ele><time>2026-04-18T13:03:40.14Z</time></trkpt><trkpt lat="45.4172433" lon="10.6043167"><ele>97.0</ele><time>2026-04-18T13:03:44.151Z</time></trkpt><trkpt lat="45.4171767" lon="10.6043267"><ele>97.0</ele><time>2026-04-18T13:03:46.129Z</time></trkpt><trkpt lat="45.41711" lon="10.6043667"><ele>97.0</ele><time>2026-04-18T13:03:48.139Z</time></trkpt><trkpt lat="45.4170583" lon="10.60453"><ele>97.00000000000001</ele><time>2026-04-18T13:03:50.133Z</time></trkpt><trkpt lat="45.4170367" lon="10.6046217"><ele>97.0</ele><time>2026-04-18T13:03:51.143Z</time></trkpt><trkpt lat="45.417015" lon="10.604725"><ele>97.0</ele><time>2026-04-18T13:03:52.139Z</time></trkpt><trkpt lat="45.416985" lon="10.604835"><ele>97.0</ele><time>2026-04-18T13:03:53.132Z</time></trkpt><trkpt lat="45.4169433" lon="10.60495"><ele>97.0</ele><time>2026-04-18T13:03:54.14Z</time></trkpt><trkpt lat="45.4168933" lon="10.605095"><ele>97.0</ele><time>2026-04-18T13:03:55.139Z</time></trkpt><trkpt lat="45.4168267" lon="10.60524"><ele>97.0</ele><time>2026-04-18T13:03:56.131Z</time></trkpt><trkpt lat="45.4167633" lon="10.6053917"><ele>96.8</ele><time>2026-04-18T13:03:57.135Z</time></trkpt><trkpt lat="45.4166967" lon="10.60552"><ele>96.6</ele><time>2026-04-18T13:03:58.142Z</time></trkpt><trkpt lat="45.4166517" lon="10.6056333"><ele>96.39999999999999</ele><time>2026-04-18T13:03:59.139Z</time></trkpt><trkpt lat="45.416625" lon="10.605765"><ele>96.19999999999999</ele><time>2026-04-18T13:04:00.148Z</time></trkpt><trkpt lat="45.4166" lon="10.6058967"><ele>96.0</ele><time>2026-04-18T13:04:01.143Z</time></trkpt><trkpt lat="45.416575" lon="10.60603"><ele>96.0</ele><time>2026-04-18T13:04:02.133Z</time></trkpt><trkpt lat="45.41654" lon="10.6061433"><ele>96.0</ele><time>2026-04-18T13:04:03.132Z</time></trkpt><trkpt lat="45.4165133" lon="10.606255"><ele>96.0</ele><time>2026-04-18T13:04:04.15Z</time></trkpt><trkpt lat="45.41648" lon="10.6064"><ele>96.0</ele><time>2026-04-18T13:04:05.142Z</time></trkpt><trkpt lat="45.4164367" lon="10.606525"><ele>96.0</ele><time>2026-04-18T13:04:06.134Z</time></trkpt><trkpt lat="45.416405" lon="10.6066183"><ele>96.0</ele><time>2026-04-18T13:04:07.138Z</time></trkpt><trkpt lat="45.4163667" lon="10.6066983"><ele>96.0</ele><time>2026-04-18T13:04:08.137Z</time></trkpt><trkpt lat="45.416325" lon="10.6068433"><ele>96.0</ele><time>2026-04-18T13:04:10.143Z</time></trkpt><trkpt lat="45.416295" lon="10.6069267"><ele>96.0</ele><time>2026-04-18T13:04:11.144Z</time></trkpt><trkpt lat="45.4162617" lon="10.6070233"><ele>96.0</ele><time>2026-04-18T13:04:12.133Z</time></trkpt><trkpt lat="45.4162017" lon="10.60717"><ele>96.0</ele><time>2026-04-18T13:04:14.142Z</time></trkpt><trkpt lat="45.4161317" lon="10.60721"><ele>96.0</ele><time>2026-04-18T13:04:16.137Z</time></trkpt><trkpt lat="45.4160833" lon="10.60713"><ele>95.83333333333333</ele><time>2026-04-18T13:04:18.153Z</time></trkpt><trkpt lat="45.41608" lon="10.6069817"><ele>95.66666666666667</ele><time>2026-04-18T13:04:20.145Z</time></trkpt><trkpt lat="45.4161233" lon="10.60684"><ele>95.5</ele><time>2026-04-18T13:04:22.13Z</time></trkpt><trkpt lat="45.4161433" lon="10.6067333"><ele>95.33333333333334</ele><time>2026-04-18T13:04:24.138Z</time></trkpt><trkpt lat="45.416075" lon="10.60672"><ele>95.16666666666667</ele><time>2026-04-18T13:04:27.137Z</time></trkpt><trkpt lat="45.4160333" lon="10.6068317"><ele>95.0</ele><time>2026-04-18T13:04:29.138Z</time></trkpt><trkpt lat="45.4160033" lon="10.6070167"><ele>95.0</ele><time>2026-04-18T13:04:31.138Z</time></trkpt><trkpt lat="45.4159833" lon="10.6071183"><ele>95.0</ele><time>2026-04-18T13:04:32.15Z</time></trkpt><trkpt lat="45.41596" lon="10.6072317"><ele>95.0</ele><time>2026-04-18T13:04:33.152Z</time></trkpt><trkpt lat="45.4159333" lon="10.6073583"><ele>95.0</ele><time>2026-04-18T13:04:34.141Z</time></trkpt><trkpt lat="45.41589" lon="10.6075233"><ele>95.0</ele><time>2026-04-18T13:04:35.13Z</time></trkpt><trkpt lat="45.4158667" lon="10.6076833"><ele>95.0</ele><time>2026-04-18T13:04:36.142Z</time></trkpt><trkpt lat="45.4158317" lon="10.6078167"><ele>95.0</ele><time>2026-04-18T13:04:37.15Z</time></trkpt><trkpt lat="45.4157917" lon="10.6079433"><ele>95.0</ele><time>2026-04-18T13:04:38.138Z</time></trkpt><trkpt lat="45.4157533" lon="10.6080933"><ele>95.0</ele><time>2026-04-18T13:04:39.15Z</time></trkpt><trkpt lat="45.4157033" lon="10.6082417"><ele>95.0</ele><time>2026-04-18T13:04:40.145Z</time></trkpt><trkpt lat="45.4156383" lon="10.6083867"><ele>95.5</ele><time>2026-04-18T13:04:41.141Z</time></trkpt><trkpt lat="45.4155517" lon="10.6085067"><ele>96.0</ele><time>2026-04-18T13:04:42.134Z</time></trkpt><trkpt lat="45.4154567" lon="10.6086283"><ele>96.5</ele><time>2026-04-18T13:04:43.138Z</time></trkpt><trkpt lat="45.4153633" lon="10.6087367"><ele>97.0</ele><time>2026-04-18T13:04:44.132Z</time></trkpt><trkpt lat="45.4152733" lon="10.6088567"><ele>98.0</ele><time>2026-04-18T13:04:45.17Z</time></trkpt><trkpt lat="45.4152017" lon="10.6089583"><ele>99.0</ele><time>2026-04-18T13:04:46.143Z</time></trkpt><trkpt lat="45.41513" lon="10.6090833"><ele>100.0</ele><time>2026-04-18T13:04:47.149Z</time></trkpt><trkpt lat="45.415075" lon="10.60921"><ele>101.0</ele><time>2026-04-18T13:04:48.138Z</time></trkpt><trkpt lat="45.4150117" lon="10.609385"><ele>101.5</ele><time>2026-04-18T13:04:49.139Z</time></trkpt><trkpt lat="45.41494" lon="10.6095733"><ele>102.0</ele><time>2026-04-18T13:04:50.139Z</time></trkpt><trkpt lat="45.4148883" lon="10.6097533"><ele>102.5</ele><time>2026-04-18T13:04:51.136Z</time></trkpt><trkpt lat="45.4148233" lon="10.6099383"><ele>103.0</ele><time>2026-04-18T13:04:52.134Z</time></trkpt><trkpt lat="45.414775" lon="10.610125"><ele>103.0</ele><time>2026-04-18T13:04:53.139Z</time></trkpt><trkpt lat="45.4147333" lon="10.6103017"><ele>103.0</ele><time>2026-04-18T13:04:54.134Z</time></trkpt><trkpt lat="45.4147033" lon="10.610495"><ele>103.0</ele><time>2026-04-18T13:04:55.142Z</time></trkpt><trkpt lat="45.4146733" lon="10.6106817"><ele>103.0</ele><time>2026-04-18T13:04:56.14Z</time></trkpt><trkpt lat="45.4146517" lon="10.61091"><ele>102.25</ele><time>2026-04-18T13:04:57.143Z</time></trkpt><trkpt lat="45.41464" lon="10.6111267"><ele>101.5</ele><time>2026-04-18T13:04:58.152Z</time></trkpt><trkpt lat="45.4146333" lon="10.6113017"><ele>100.75</ele><time>2026-04-18T13:04:59.138Z</time></trkpt><trkpt lat="45.4145933" lon="10.6114917"><ele>100.0</ele><time>2026-04-18T13:05:00.145Z</time></trkpt><trkpt lat="45.4145583" lon="10.611685"><ele>99.75</ele><time>2026-04-18T13:05:01.13Z</time></trkpt><trkpt lat="45.41453" lon="10.6118617"><ele>99.5</ele><time>2026-04-18T13:05:02.13Z</time></trkpt><trkpt lat="45.4144983" lon="10.6120283"><ele>99.25</ele><time>2026-04-18T13:05:03.138Z</time></trkpt><trkpt lat="45.4144767" lon="10.6122117"><ele>99.0</ele><time>2026-04-18T13:05:04.153Z</time></trkpt><trkpt lat="45.4144467" lon="10.612375"><ele>99.75</ele><time>2026-04-18T13:05:05.137Z</time></trkpt><trkpt lat="45.414385" lon="10.6125267"><ele>100.5</ele><time>2026-04-18T13:05:06.144Z</time></trkpt><trkpt lat="45.41432" lon="10.6126717"><ele>101.25</ele><time>2026-04-18T13:05:07.141Z</time></trkpt><trkpt lat="45.41425" lon="10.6127983"><ele>102.0</ele><time>2026-04-18T13:05:08.138Z</time></trkpt><trkpt lat="45.4142067" lon="10.6129267"><ele>102.39999999999999</ele><time>2026-04-18T13:05:09.136Z</time></trkpt><trkpt lat="45.414145" lon="10.6130167"><ele>102.8</ele><time>2026-04-18T13:05:10.139Z</time></trkpt><trkpt lat="45.4140733" lon="10.61316"><ele>103.2</ele><time>2026-04-18T13:05:12.133Z</time></trkpt><trkpt lat="45.4140333" lon="10.6133233"><ele>103.6</ele><time>2026-04-18T13:05:14.139Z</time></trkpt><trkpt lat="45.4140183" lon="10.613415"><ele>104.0</ele><time>2026-04-18T13:05:15.141Z</time></trkpt><trkpt lat="45.4139983" lon="10.6135083"><ele>103.99999999999999</ele><time>2026-04-18T13:05:16.136Z</time></trkpt><trkpt lat="45.4139717" lon="10.613605"><ele>104.0</ele><time>2026-04-18T13:05:17.135Z</time></trkpt><trkpt lat="45.413945" lon="10.6137117"><ele>104.0</ele><time>2026-04-18T13:05:18.145Z</time></trkpt><trkpt lat="45.4139167" lon="10.6138233"><ele>104.0</ele><time>2026-04-18T13:05:19.138Z</time></trkpt><trkpt lat="45.4138883" lon="10.6139367"><ele>103.99999999999999</ele><time>2026-04-18T13:05:20.14Z</time></trkpt><trkpt lat="45.4138567" lon="10.61406"><ele>104.0</ele><time>2026-04-18T13:05:21.134Z</time></trkpt><trkpt lat="45.413835" lon="10.6142083"><ele>104.25</ele><time>2026-04-18T13:05:22.138Z</time></trkpt><trkpt lat="45.413845" lon="10.61436"><ele>104.5</ele><time>2026-04-18T13:05:23.146Z</time></trkpt><trkpt lat="45.41385" lon="10.6145217"><ele>104.75</ele><time>2026-04-18T13:05:24.14Z</time></trkpt><trkpt lat="45.4138667" lon="10.61474"><ele>105.0</ele><time>2026-04-18T13:05:25.135Z</time></trkpt><trkpt lat="45.4138783" lon="10.614955"><ele>105.5</ele><time>2026-04-18T13:05:26.14Z</time></trkpt><trkpt lat="45.4138867" lon="10.6151667"><ele>106.0</ele><time>2026-04-18T13:05:27.144Z</time></trkpt><trkpt lat="45.4138967" lon="10.61537"><ele>106.5</ele><time>2026-04-18T13:05:28.141Z</time></trkpt><trkpt lat="45.4139133" lon="10.61554"><ele>107.0</ele><time>2026-04-18T13:05:29.132Z</time></trkpt><trkpt lat="45.4139167" lon="10.6157317"><ele>107.19999999999999</ele><time>2026-04-18T13:05:30.145Z</time></trkpt><trkpt lat="45.4139217" lon="10.6159267"><ele>107.39999999999999</ele><time>2026-04-18T13:05:31.133Z</time></trkpt><trkpt lat="45.41391" lon="10.616075"><ele>107.60000000000001</ele><time>2026-04-18T13:05:32.138Z</time></trkpt><trkpt lat="45.413885" lon="10.6162183"><ele>107.80000000000001</ele><time>2026-04-18T13:05:33.135Z</time></trkpt><trkpt lat="45.4138417" lon="10.61634"><ele>108.0</ele><time>2026-04-18T13:05:34.14Z</time></trkpt><trkpt lat="45.4138183" lon="10.6164333"><ele>108.16666666666667</ele><time>2026-04-18T13:05:35.144Z</time></trkpt><trkpt lat="45.4137833" lon="10.61659"><ele>108.33333333333334</ele><time>2026-04-18T13:05:37.129Z</time></trkpt><trkpt lat="45.4137817" lon="10.616685"><ele>108.5</ele><time>2026-04-18T13:09:05.134Z</time></trkpt><trkpt lat="45.4137567" lon="10.61681"><ele>108.66666666666667</ele><time>2026-04-18T13:09:07.137Z</time></trkpt><trkpt lat="45.4137317" lon="10.6168967"><ele>108.83333333333334</ele><time>2026-04-18T13:09:08.146Z</time></trkpt><trkpt lat="45.4136967" lon="10.6170017"><ele>109.0</ele><time>2026-04-18T13:09:09.14Z</time></trkpt><trkpt lat="45.4136533" lon="10.6171283"><ele>108.0</ele><time>2026-04-18T13:09:10.167Z</time></trkpt><trkpt lat="45.413555" lon="10.6174783"><ele>107.0</ele><time>2026-04-18T13:09:12.13Z</time></trkpt><trkpt lat="45.413455" lon="10.61786"><ele>106.0</ele><time>2026-04-18T13:09:14.14Z</time></trkpt><trkpt lat="45.4134067" lon="10.61805"><ele>105.0</ele><time>2026-04-18T13:09:15.137Z</time></trkpt><trkpt lat="45.4133433" lon="10.6182733"><ele>104.0</ele><time>2026-04-18T13:09:16.132Z</time></trkpt><trkpt lat="45.41329" lon="10.618515"><ele>104.33333333333333</ele><time>2026-04-18T13:09:17.155Z</time></trkpt><trkpt lat="45.413235" lon="10.6186917"><ele>104.66666666666666</ele><time>2026-04-18T13:09:18.135Z</time></trkpt><trkpt lat="45.4131783" lon="10.6189367"><ele>105.0</ele><time>2026-04-18T13:09:19.137Z</time></trkpt><trkpt lat="45.4131217" lon="10.6191683"><ele>105.0</ele><time>2026-04-18T13:09:20.14Z</time></trkpt><trkpt lat="45.4130667" lon="10.619375"><ele>105.0</ele><time>2026-04-18T13:09:21.142Z</time></trkpt><trkpt lat="45.4130167" lon="10.6195533"><ele>105.0</ele><time>2026-04-18T13:09:22.13Z</time></trkpt><trkpt lat="45.4129683" lon="10.6197333"><ele>105.0</ele><time>2026-04-18T13:09:23.136Z</time></trkpt><trkpt lat="45.4129233" lon="10.6199183"><ele>105.5</ele><time>2026-04-18T13:09:24.149Z</time></trkpt><trkpt lat="45.4128767" lon="10.620105"><ele>106.0</ele><time>2026-04-18T13:09:25.127Z</time></trkpt><trkpt lat="45.4128233" lon="10.6202917"><ele>106.5</ele><time>2026-04-18T13:09:26.128Z</time></trkpt><trkpt lat="45.4127633" lon="10.6204883"><ele>107.0</ele><time>2026-04-18T13:09:27.126Z</time></trkpt><trkpt lat="45.4127217" lon="10.6206667"><ele>107.25</ele><time>2026-04-18T13:09:28.133Z</time></trkpt><trkpt lat="45.4126767" lon="10.620855"><ele>107.5</ele><time>2026-04-18T13:09:29.14Z</time></trkpt><trkpt lat="45.4126367" lon="10.6210183"><ele>107.75</ele><time>2026-04-18T13:09:30.169Z</time></trkpt><trkpt lat="45.4125683" lon="10.6211583"><ele>108.0</ele><time>2026-04-18T13:09:31.147Z</time></trkpt><trkpt lat="45.4124983" lon="10.6213133"><ele>108.0</ele><time>2026-04-18T13:09:32.138Z</time></trkpt><trkpt lat="45.4124217" lon="10.6214667"><ele>108.0</ele><time>2026-04-18T13:09:33.141Z</time></trkpt><trkpt lat="45.4123367" lon="10.6216117"><ele>108.0</ele><time>2026-04-18T13:09:34.13Z</time></trkpt><trkpt lat="45.4122517" lon="10.62175"><ele>108.0</ele><time>2026-04-18T13:09:35.132Z</time></trkpt><trkpt lat="45.4121617" lon="10.621895"><ele>108.5</ele><time>2026-04-18T13:09:36.141Z</time></trkpt><trkpt lat="45.412055" lon="10.622015"><ele>109.0</ele><time>2026-04-18T13:09:37.134Z</time></trkpt><trkpt lat="45.4119633" lon="10.6221483"><ele>109.5</ele><time>2026-04-18T13:09:38.138Z</time></trkpt><trkpt lat="45.4118667" lon="10.6222783"><ele>110.0</ele><time>2026-04-18T13:09:39.134Z</time></trkpt><trkpt lat="45.4117933" lon="10.6224083"><ele>110.0</ele><time>2026-04-18T13:09:40.131Z</time></trkpt><trkpt lat="45.411695" lon="10.6225433"><ele>110.0</ele><time>2026-04-18T13:09:41.139Z</time></trkpt><trkpt lat="45.4115933" lon="10.6226867"><ele>110.0</ele><time>2026-04-18T13:09:42.14Z</time></trkpt><trkpt lat="45.4114883" lon="10.6228267"><ele>110.0</ele><time>2026-04-18T13:09:43.137Z</time></trkpt><trkpt lat="45.4113933" lon="10.6229433"><ele>110.2</ele><time>2026-04-18T13:09:44.137Z</time></trkpt><trkpt lat="45.4113083" lon="10.62307"><ele>110.4</ele><time>2026-04-18T13:09:45.133Z</time></trkpt><trkpt lat="45.4112083" lon="10.6231617"><ele>110.6</ele><time>2026-04-18T13:09:46.137Z</time></trkpt><trkpt lat="45.4111217" lon="10.62324"><ele>110.8</ele><time>2026-04-18T13:09:47.129Z</time></trkpt><trkpt lat="45.41103" lon="10.6232933"><ele>111.0</ele><time>2026-04-18T13:09:48.131Z</time></trkpt><trkpt lat="45.4109433" lon="10.6233633"><ele>111.0</ele><time>2026-04-18T13:09:49.148Z</time></trkpt><trkpt lat="45.4108617" lon="10.6234333"><ele>111.0</ele><time>2026-04-18T13:09:50.136Z</time></trkpt><trkpt lat="45.4107867" lon="10.623515"><ele>111.0</ele><time>2026-04-18T13:09:51.146Z</time></trkpt><trkpt lat="45.410715" lon="10.6235933"><ele>111.0</ele><time>2026-04-18T13:09:52.189Z</time></trkpt><trkpt lat="45.410645" lon="10.623685"><ele>111.0</ele><time>2026-04-18T13:09:53.138Z</time></trkpt><trkpt lat="45.410585" lon="10.623805"><ele>111.4</ele><time>2026-04-18T13:09:54.129Z</time></trkpt><trkpt lat="45.4105317" lon="10.623925"><ele>111.8</ele><time>2026-04-18T13:09:55.139Z</time></trkpt><trkpt lat="45.4104833" lon="10.6240533"><ele>112.20000000000002</ele><time>2026-04-18T13:09:56.134Z</time></trkpt><trkpt lat="45.41045" lon="10.6241933"><ele>112.60000000000001</ele><time>2026-04-18T13:09:57.14Z</time></trkpt><trkpt lat="45.4104283" lon="10.624335"><ele>113.0</ele><time>2026-04-18T13:09:58.132Z</time></trkpt><trkpt lat="45.4104183" lon="10.62445"><ele>109.25</ele><time>2026-04-18T13:09:59.146Z</time></trkpt><trkpt lat="45.4103833" lon="10.62463"><ele>105.5</ele><time>2026-04-18T13:10:00.159Z</time></trkpt><trkpt lat="45.4103833" lon="10.6247933"><ele>101.75</ele><time>2026-04-18T13:10:01.137Z</time></trkpt><trkpt lat="45.410385" lon="10.6249667"><ele>98.0</ele><time>2026-04-18T13:10:02.137Z</time></trkpt><trkpt lat="45.4103683" lon="10.6251"><ele>98.0</ele><time>2026-04-18T13:10:03.135Z</time></trkpt><trkpt lat="45.4103367" lon="10.6252633"><ele>98.0</ele><time>2026-04-18T13:10:04.137Z</time></trkpt><trkpt lat="45.4103417" lon="10.6254933"><ele>98.0</ele><time>2026-04-18T13:10:06.134Z</time></trkpt><trkpt lat="45.4103683" lon="10.6255967"><ele>98.0</ele><time>2026-04-18T13:10:07.141Z</time></trkpt><trkpt lat="45.4104267" lon="10.6256883"><ele>98.0</ele><time>2026-04-18T13:10:08.129Z</time></trkpt><trkpt lat="45.4105067" lon="10.6257867"><ele>98.80000000000001</ele><time>2026-04-18T13:10:09.126Z</time></trkpt><trkpt lat="45.410585" lon="10.6258733"><ele>99.6</ele><time>2026-04-18T13:10:10.139Z</time></trkpt><trkpt lat="45.4106533" lon="10.6259717"><ele>100.4</ele><time>2026-04-18T13:10:11.133Z</time></trkpt><trkpt lat="45.410715" lon="10.626095"><ele>101.19999999999999</ele><time>2026-04-18T13:10:12.136Z</time></trkpt><trkpt lat="45.4107733" lon="10.6261933"><ele>102.0</ele><time>2026-04-18T13:10:13.134Z</time></trkpt><trkpt lat="45.4108317" lon="10.6262533"><ele>102.0</ele><time>2026-04-18T13:10:14.131Z</time></trkpt><trkpt lat="45.410905" lon="10.626305"><ele>102.0</ele><time>2026-04-18T13:10:16.138Z</time></trkpt><trkpt lat="45.41089" lon="10.6262133"><ele>102.0</ele><time>2026-04-18T13:10:19.127Z</time></trkpt><trkpt lat="45.4108167" lon="10.62611"><ele>102.0</ele><time>2026-04-18T13:10:21.138Z</time></trkpt><trkpt lat="45.4107283" lon="10.6259733"><ele>102.0</ele><time>2026-04-18T13:10:23.132Z</time></trkpt><trkpt lat="45.41068" lon="10.625895"><ele>101.33333333333333</ele><time>2026-04-18T13:10:24.135Z</time></trkpt><trkpt lat="45.410635" lon="10.62582"><ele>100.66666666666666</ele><time>2026-04-18T13:10:25.141Z</time></trkpt><trkpt lat="45.4105917" lon="10.6257367"><ele>100.0</ele><time>2026-04-18T13:10:26.139Z</time></trkpt><trkpt lat="45.410555" lon="10.6256433"><ele>99.33333333333333</ele><time>2026-04-18T13:10:27.134Z</time></trkpt><trkpt lat="45.4105233" lon="10.6255267"><ele>98.66666666666666</ele><time>2026-04-18T13:10:28.14Z</time></trkpt><trkpt lat="45.4104983" lon="10.6253867"><ele>98.0</ele><time>2026-04-18T13:10:29.131Z</time></trkpt><trkpt lat="45.4104783" lon="10.6252317"><ele>98.0</ele><time>2026-04-18T13:10:30.136Z</time></trkpt><trkpt lat="45.41047" lon="10.6250417"><ele>98.0</ele><time>2026-04-18T13:10:31.137Z</time></trkpt><trkpt lat="45.4104667" lon="10.6248267"><ele>98.0</ele><time>2026-04-18T13:10:32.145Z</time></trkpt><trkpt lat="45.4104617" lon="10.6245983"><ele>98.0</ele><time>2026-04-18T13:10:33.129Z</time></trkpt><trkpt lat="45.41047" lon="10.6243733"><ele>103.0</ele><time>2026-04-18T13:10:34.126Z</time></trkpt><trkpt lat="45.4104917" lon="10.6241733"><ele>108.0</ele><time>2026-04-18T13:10:35.127Z</time></trkpt><trkpt lat="45.4105367" lon="10.62399"><ele>113.0</ele><time>2026-04-18T13:10:36.127Z</time></trkpt><trkpt lat="45.4106783" lon="10.6236667"><ele>112.66666666666666</ele><time>2026-04-18T13:10:38.137Z</time></trkpt><trkpt lat="45.4107683" lon="10.6235617"><ele>112.33333333333333</ele><time>2026-04-18T13:10:39.136Z</time></trkpt><trkpt lat="45.4108417" lon="10.62349"><ele>112.0</ele><time>2026-04-18T13:10:40.129Z</time></trkpt><trkpt lat="45.4108933" lon="10.6234217"><ele>111.66666666666666</ele><time>2026-04-18T13:10:41.136Z</time></trkpt><trkpt lat="45.4109083" lon="10.62333"><ele>111.33333333333333</ele><time>2026-04-18T13:10:43.133Z</time></trkpt><trkpt lat="45.4108383" lon="10.6232833"><ele>111.0</ele><time>2026-04-18T13:10:46.143Z</time></trkpt><trkpt lat="45.4107533" lon="10.623235"><ele>111.0</ele><time>2026-04-18T13:10:49.134Z</time></trkpt><trkpt lat="45.4106667" lon="10.6232067"><ele>111.0</ele><time>2026-04-18T13:10:51.133Z</time></trkpt><trkpt lat="45.4105833" lon="10.623185"><ele>111.0</ele><time>2026-04-18T13:10:53.135Z</time></trkpt><trkpt lat="45.4105083" lon="10.6231583"><ele>111.0</ele><time>2026-04-18T13:10:55.139Z</time></trkpt><trkpt lat="45.4104433" lon="10.6231367"><ele>111.0</ele><time>2026-04-18T13:10:57.141Z</time></trkpt><trkpt lat="45.41037" lon="10.6231183"><ele>111.0</ele><time>2026-04-18T13:10:59.138Z</time></trkpt><trkpt lat="45.4102867" lon="10.6230883"><ele>108.8</ele><time>2026-04-18T13:11:01.134Z</time></trkpt><trkpt lat="45.410185" lon="10.6230417"><ele>106.6</ele><time>2026-04-18T13:11:03.132Z</time></trkpt><trkpt lat="45.41008" lon="10.6229783"><ele>104.4</ele><time>2026-04-18T13:11:05.144Z</time></trkpt><trkpt lat="45.40997" lon="10.6229017"><ele>102.2</ele><time>2026-04-18T13:11:07.139Z</time></trkpt><trkpt lat="45.4099117" lon="10.6228617"><ele>100.0</ele><time>2026-04-18T13:11:08.13Z</time></trkpt><trkpt lat="45.4098517" lon="10.622815"><ele>99.71428571428572</ele><time>2026-04-18T13:11:09.134Z</time></trkpt><trkpt lat="45.4097917" lon="10.6227633"><ele>99.42857142857143</ele><time>2026-04-18T13:11:10.136Z</time></trkpt><trkpt lat="45.4097317" lon="10.622705"><ele>99.14285714285714</ele><time>2026-04-18T13:11:11.132Z</time></trkpt><trkpt lat="45.40968" lon="10.62265"><ele>98.85714285714286</ele><time>2026-04-18T13:11:12.139Z</time></trkpt><trkpt lat="45.40963" lon="10.6225917"><ele>98.57142857142857</ele><time>2026-04-18T13:11:13.142Z</time></trkpt><trkpt lat="45.40958" lon="10.6225283"><ele>98.28571428571429</ele><time>2026-04-18T13:11:14.136Z</time></trkpt><trkpt lat="45.4095217" lon="10.62246"><ele>98.0</ele><time>2026-04-18T13:11:15.133Z</time></trkpt><trkpt lat="45.4094583" lon="10.6223983"><ele>98.0</ele><time>2026-04-18T13:11:16.153Z</time></trkpt><trkpt lat="45.4093933" lon="10.6223333"><ele>98.0</ele><time>2026-04-18T13:11:17.133Z</time></trkpt><trkpt lat="45.4093417" lon="10.6222817"><ele>98.0</ele><time>2026-04-18T13:11:18.136Z</time></trkpt><trkpt lat="45.4092817" lon="10.6222167"><ele>98.0</ele><time>2026-04-18T13:11:19.134Z</time></trkpt><trkpt lat="45.40922" lon="10.62215"><ele>98.0</ele><time>2026-04-18T13:11:20.139Z</time></trkpt><trkpt lat="45.4091617" lon="10.62209"><ele>98.0</ele><time>2026-04-18T13:11:21.126Z</time></trkpt><trkpt lat="45.4090967" lon="10.62203"><ele>98.0</ele><time>2026-04-18T13:11:22.136Z</time></trkpt><trkpt lat="45.4090367" lon="10.62197"><ele>97.66666666666666</ele><time>2026-04-18T13:11:23.132Z</time></trkpt><trkpt lat="45.4089833" lon="10.62192"><ele>97.33333333333333</ele><time>2026-04-18T13:11:24.133Z</time></trkpt><trkpt lat="45.4089317" lon="10.6218633"><ele>97.0</ele><time>2026-04-18T13:11:25.143Z</time></trkpt><trkpt lat="45.40887" lon="10.6217983"><ele>96.66666666666666</ele><time>2026-04-18T13:11:26.138Z</time></trkpt><trkpt lat="45.408805" lon="10.62173"><ele>96.33333333333333</ele><time>2026-04-18T13:11:27.132Z</time></trkpt><trkpt lat="45.4087383" lon="10.62165"><ele>96.0</ele><time>2026-04-18T13:11:28.143Z</time></trkpt><trkpt lat="45.40867" lon="10.6215667"><ele>96.0</ele><time>2026-04-18T13:11:29.139Z</time></trkpt><trkpt lat="45.4086" lon="10.6214633"><ele>96.0</ele><time>2026-04-18T13:11:30.131Z</time></trkpt><trkpt lat="45.40853" lon="10.6213583"><ele>96.0</ele><time>2026-04-18T13:11:31.136Z</time></trkpt><trkpt lat="45.408425" lon="10.62123"><ele>96.0</ele><time>2026-04-18T13:11:32.149Z</time></trkpt><trkpt lat="45.4083167" lon="10.6211117"><ele>95.75</ele><time>2026-04-18T13:11:33.131Z</time></trkpt><trkpt lat="45.408215" lon="10.6209917"><ele>95.5</ele><time>2026-04-18T13:11:34.135Z</time></trkpt><trkpt lat="45.408125" lon="10.6208533"><ele>95.25</ele><time>2026-04-18T13:11:35.139Z</time></trkpt><trkpt lat="45.408035" lon="10.6207317"><ele>95.0</ele><time>2026-04-18T13:11:36.136Z</time></trkpt><trkpt lat="45.40792" lon="10.6206317"><ele>95.0</ele><time>2026-04-18T13:11:37.145Z</time></trkpt><trkpt lat="45.4078217" lon="10.6205483"><ele>95.0</ele><time>2026-04-18T13:11:38.147Z</time></trkpt><trkpt lat="45.4077233" lon="10.6204667"><ele>95.0</ele><time>2026-04-18T13:11:39.141Z</time></trkpt><trkpt lat="45.4076467" lon="10.62039"><ele>95.0</ele><time>2026-04-18T13:11:40.135Z</time></trkpt><trkpt lat="45.4075717" lon="10.6203133"><ele>95.0</ele><time>2026-04-18T13:11:41.149Z</time></trkpt><trkpt lat="45.4074967" lon="10.6202567"><ele>95.83333333333334</ele><time>2026-04-18T13:11:42.14Z</time></trkpt><trkpt lat="45.4074333" lon="10.6201783"><ele>96.66666666666667</ele><time>2026-04-18T13:11:43.132Z</time></trkpt><trkpt lat="45.4073683" lon="10.6200967"><ele>97.5</ele><time>2026-04-18T13:11:44.136Z</time></trkpt><trkpt lat="45.4073" lon="10.6200067"><ele>98.33333333333334</ele><time>2026-04-18T13:11:45.14Z</time></trkpt><trkpt lat="45.40723" lon="10.6199083"><ele>99.16666666666667</ele><time>2026-04-18T13:11:46.132Z</time></trkpt><trkpt lat="45.4071867" lon="10.61981"><ele>100.0</ele><time>2026-04-18T13:11:47.141Z</time></trkpt><trkpt lat="45.4071483" lon="10.6197133"><ele>98.50000000000001</ele><time>2026-04-18T13:11:48.138Z</time></trkpt><trkpt lat="45.407115" lon="10.6196217"><ele>97.0</ele><time>2026-04-18T13:11:49.129Z</time></trkpt><trkpt lat="45.4070783" lon="10.61954"><ele>95.5</ele><time>2026-04-18T13:11:50.152Z</time></trkpt><trkpt lat="45.4070283" lon="10.6194833"><ele>94.0</ele><time>2026-04-18T13:11:51.142Z</time></trkpt><trkpt lat="45.40692" lon="10.61944"><ele>92.5</ele><time>2026-04-18T13:11:53.14Z</time></trkpt><trkpt lat="45.4068167" lon="10.6194367"><ele>91.0</ele><time>2026-04-18T13:11:55.139Z</time></trkpt><trkpt lat="45.4067333" lon="10.6194083"><ele>91.0</ele><time>2026-04-18T13:11:57.134Z</time></trkpt><trkpt lat="45.4066533" lon="10.6193783"><ele>91.0</ele><time>2026-04-18T13:11:59.129Z</time></trkpt><trkpt lat="45.4065433" lon="10.6193933"><ele>91.0</ele><time>2026-04-18T13:12:01.161Z</time></trkpt><trkpt lat="45.406475" lon="10.6194167"><ele>91.0</ele><time>2026-04-18T13:12:02.126Z</time></trkpt><trkpt lat="45.4064" lon="10.619435"><ele>91.0</ele><time>2026-04-18T13:12:03.127Z</time></trkpt><trkpt lat="45.406325" lon="10.6194417"><ele>91.0</ele><time>2026-04-18T13:12:04.13Z</time></trkpt><trkpt lat="45.406245" lon="10.6194333"><ele>91.0</ele><time>2026-04-18T13:12:05.127Z</time></trkpt><trkpt lat="45.4061567" lon="10.6194133"><ele>91.0</ele><time>2026-04-18T13:12:06.133Z</time></trkpt><trkpt lat="45.4060633" lon="10.6193667"><ele>91.0</ele><time>2026-04-18T13:12:07.13Z</time></trkpt><trkpt lat="45.4058283" lon="10.6192333"><ele>91.0</ele><time>2026-04-18T13:12:09.136Z</time></trkpt><trkpt lat="45.4057067" lon="10.6191983"><ele>91.0</ele><time>2026-04-18T13:12:10.141Z</time></trkpt><trkpt lat="45.40558" lon="10.619135"><ele>91.0</ele><time>2026-04-18T13:12:11.136Z</time></trkpt><trkpt lat="45.4054633" lon="10.6191117"><ele>91.0</ele><time>2026-04-18T13:12:12.139Z</time></trkpt><trkpt lat="45.4053517" lon="10.61909"><ele>91.0</ele><time>2026-04-18T13:12:13.137Z</time></trkpt><trkpt lat="45.4052367" lon="10.6190517"><ele>90.75</ele><time>2026-04-18T13:12:14.132Z</time></trkpt><trkpt lat="45.4051267" lon="10.6189917"><ele>90.5</ele><time>2026-04-18T13:12:15.162Z</time></trkpt><trkpt lat="45.405035" lon="10.61894"><ele>90.25</ele><time>2026-04-18T13:12:16.131Z</time></trkpt><trkpt lat="45.404945" lon="10.6189067"><ele>90.0</ele><time>2026-04-18T13:12:17.133Z</time></trkpt><trkpt lat="45.4047717" lon="10.6188117"><ele>90.0</ele><time>2026-04-18T13:12:19.132Z</time></trkpt><trkpt lat="45.4046733" lon="10.6187733"><ele>90.0</ele><time>2026-04-18T13:12:20.136Z</time></trkpt><trkpt lat="45.4045783" lon="10.6187317"><ele>90.0</ele><time>2026-04-18T13:12:21.133Z</time></trkpt><trkpt lat="45.40448" lon="10.6187183"><ele>90.0</ele><time>2026-04-18T13:12:22.136Z</time></trkpt><trkpt lat="45.404385" lon="10.6187"><ele>90.0</ele><time>2026-04-18T13:12:23.138Z</time></trkpt><trkpt lat="45.404275" lon="10.6186683"><ele>90.0</ele><time>2026-04-18T13:12:24.137Z</time></trkpt><trkpt lat="45.4041733" lon="10.6186567"><ele>90.0</ele><time>2026-04-18T13:12:25.135Z</time></trkpt><trkpt lat="45.4040683" lon="10.61863"><ele>90.0</ele><time>2026-04-18T13:12:26.136Z</time></trkpt><trkpt lat="45.4039617" lon="10.6185917"><ele>90.0</ele><time>2026-04-18T13:12:27.13Z</time></trkpt><trkpt lat="45.4038417" lon="10.6185483"><ele>90.0</ele><time>2026-04-18T13:12:28.136Z</time></trkpt><trkpt lat="45.4037217" lon="10.61852"><ele>90.75</ele><time>2026-04-18T13:12:29.137Z</time></trkpt><trkpt lat="45.4036083" lon="10.618505"><ele>91.5</ele><time>2026-04-18T13:12:30.139Z</time></trkpt><trkpt lat="45.40349" lon="10.618465"><ele>92.25</ele><time>2026-04-18T13:12:31.134Z</time></trkpt><trkpt lat="45.403385" lon="10.618445"><ele>93.0</ele><time>2026-04-18T13:12:32.135Z</time></trkpt><trkpt lat="45.403265" lon="10.6184367"><ele>93.0</ele><time>2026-04-18T13:12:33.14Z</time></trkpt><trkpt lat="45.4031667" lon="10.6184217"><ele>93.0</ele><time>2026-04-18T13:12:34.136Z</time></trkpt><trkpt lat="45.40305" lon="10.6184133"><ele>93.0</ele><time>2026-04-18T13:12:35.133Z</time></trkpt><trkpt lat="45.402945" lon="10.6184367"><ele>93.0</ele><time>2026-04-18T13:12:36.136Z</time></trkpt><trkpt lat="45.4028467" lon="10.6184417"><ele>93.0</ele><time>2026-04-18T13:12:37.133Z</time></trkpt><trkpt lat="45.402765" lon="10.618465"><ele>93.0</ele><time>2026-04-18T13:12:38.139Z</time></trkpt><trkpt lat="45.4026783" lon="10.6184933"><ele>93.0</ele><time>2026-04-18T13:12:39.134Z</time></trkpt><trkpt lat="45.4026167" lon="10.6185483"><ele>93.0</ele><time>2026-04-18T13:12:40.144Z</time></trkpt><trkpt lat="45.4025533" lon="10.6186417"><ele>93.0</ele><time>2026-04-18T13:12:41.132Z</time></trkpt><trkpt lat="45.4025017" lon="10.618775"><ele>93.0</ele><time>2026-04-18T13:12:42.144Z</time></trkpt><trkpt lat="45.4024383" lon="10.6189267"><ele>93.5</ele><time>2026-04-18T13:12:43.139Z</time></trkpt><trkpt lat="45.4023583" lon="10.61908"><ele>94.0</ele><time>2026-04-18T13:12:44.128Z</time></trkpt><trkpt lat="45.4022583" lon="10.6192267"><ele>94.5</ele><time>2026-04-18T13:12:45.135Z</time></trkpt><trkpt lat="45.4021533" lon="10.619395"><ele>95.0</ele><time>2026-04-18T13:12:46.125Z</time></trkpt><trkpt lat="45.4020517" lon="10.6195617"><ele>95.0</ele><time>2026-04-18T13:12:47.136Z</time></trkpt><trkpt lat="45.4019433" lon="10.619755"><ele>95.0</ele><time>2026-04-18T13:12:48.133Z</time></trkpt><trkpt lat="45.4018183" lon="10.6199567"><ele>95.0</ele><time>2026-04-18T13:12:49.134Z</time></trkpt><trkpt lat="45.4016917" lon="10.62016"><ele>95.33333333333334</ele><time>2026-04-18T13:12:50.133Z</time></trkpt><trkpt lat="45.4015633" lon="10.6203783"><ele>95.66666666666667</ele><time>2026-04-18T13:12:51.136Z</time></trkpt><trkpt lat="45.4014383" lon="10.6205567"><ele>96.0</ele><time>2026-04-18T13:12:52.138Z</time></trkpt><trkpt lat="45.4013267" lon="10.620735"><ele>96.33333333333334</ele><time>2026-04-18T13:12:53.133Z</time></trkpt><trkpt lat="45.401215" lon="10.620905"><ele>96.66666666666667</ele><time>2026-04-18T13:12:54.143Z</time></trkpt><trkpt lat="45.40111" lon="10.621065"><ele>97.0</ele><time>2026-04-18T13:12:55.136Z</time></trkpt><trkpt lat="45.4010183" lon="10.6212217"><ele>98.8</ele><time>2026-04-18T13:12:56.134Z</time></trkpt><trkpt lat="45.400945" lon="10.621335"><ele>100.6</ele><time>2026-04-18T13:12:57.15Z</time></trkpt><trkpt lat="45.40088" lon="10.6214283"><ele>102.39999999999999</ele><time>2026-04-18T13:12:58.148Z</time></trkpt><trkpt lat="45.4007667" lon="10.6214883"><ele>104.19999999999999</ele><time>2026-04-18T13:13:00.132Z</time></trkpt><trkpt lat="45.4006917" lon="10.6214717"><ele>106.0</ele><time>2026-04-18T13:13:01.141Z</time></trkpt><trkpt lat="45.4005967" lon="10.6214383"><ele>108.25</ele><time>2026-04-18T13:13:02.148Z</time></trkpt><trkpt lat="45.4004733" lon="10.6213683"><ele>110.5</ele><time>2026-04-18T13:13:03.149Z</time></trkpt><trkpt lat="45.4003167" lon="10.6213083"><ele>112.75</ele><time>2026-04-18T13:13:04.139Z</time></trkpt><trkpt lat="45.400185" lon="10.62124"><ele>115.0</ele><time>2026-04-18T13:13:05.138Z</time></trkpt><trkpt lat="45.4000733" lon="10.6211683"><ele>113.2</ele><time>2026-04-18T13:13:06.133Z</time></trkpt><trkpt lat="45.39999" lon="10.6211367"><ele>111.4</ele><time>2026-04-18T13:13:07.143Z</time></trkpt><trkpt lat="45.399865" lon="10.6210517"><ele>109.6</ele><time>2026-04-18T13:13:09.13Z</time></trkpt><trkpt lat="45.3997867" lon="10.6210217"><ele>107.8</ele><time>2026-04-18T13:13:10.134Z</time></trkpt><trkpt lat="45.3997233" lon="10.62099"><ele>106.0</ele><time>2026-04-18T13:13:11.138Z</time></trkpt><trkpt lat="45.39964" lon="10.6209783"><ele>105.6</ele><time>2026-04-18T13:13:13.134Z</time></trkpt><trkpt lat="45.399565" lon="10.621085"><ele>105.19999999999999</ele><time>2026-04-18T13:13:15.141Z</time></trkpt><trkpt lat="45.399525" lon="10.6211683"><ele>104.80000000000001</ele><time>2026-04-18T13:13:16.13Z</time></trkpt><trkpt lat="45.3994833" lon="10.6212667"><ele>104.4</ele><time>2026-04-18T13:13:17.135Z</time></trkpt><trkpt lat="45.3994467" lon="10.6213567"><ele>104.0</ele><time>2026-04-18T13:13:18.132Z</time></trkpt><trkpt lat="45.3994117" lon="10.6215817"><ele>104.83333333333333</ele><time>2026-04-18T13:13:21.132Z</time></trkpt><trkpt lat="45.39941" lon="10.621675"><ele>105.66666666666666</ele><time>2026-04-18T13:13:22.137Z</time></trkpt><trkpt lat="45.3994117" lon="10.621785"><ele>106.5</ele><time>2026-04-18T13:13:23.134Z</time></trkpt><trkpt lat="45.3994183" lon="10.6219033"><ele>107.33333333333334</ele><time>2026-04-18T13:13:24.14Z</time></trkpt><trkpt lat="45.399425" lon="10.6220233"><ele>108.16666666666667</ele><time>2026-04-18T13:13:25.127Z</time></trkpt><trkpt lat="45.3994333" lon="10.6221383"><ele>109.0</ele><time>2026-04-18T13:13:26.135Z</time></trkpt><trkpt lat="45.399445" lon="10.62224"><ele>109.4</ele><time>2026-04-18T13:13:27.146Z</time></trkpt><trkpt lat="45.3994517" lon="10.6223917"><ele>109.80000000000001</ele><time>2026-04-18T13:13:29.133Z</time></trkpt><trkpt lat="45.399395" lon="10.6224367"><ele>110.19999999999999</ele><time>2026-04-18T13:13:31.133Z</time></trkpt><trkpt lat="45.3992633" lon="10.622385"><ele>110.6</ele><time>2026-04-18T13:13:33.136Z</time></trkpt><trkpt lat="45.3991583" lon="10.622335"><ele>111.0</ele><time>2026-04-18T13:13:34.134Z</time></trkpt><trkpt lat="45.39905" lon="10.6222717"><ele>111.0</ele><time>2026-04-18T13:13:35.131Z</time></trkpt><trkpt lat="45.3989233" lon="10.62225"><ele>111.0</ele><time>2026-04-18T13:13:36.139Z</time></trkpt><trkpt lat="45.3987883" lon="10.6222183"><ele>111.0</ele><time>2026-04-18T13:13:37.14Z</time></trkpt><trkpt lat="45.39865" lon="10.6222317"><ele>111.0</ele><time>2026-04-18T13:13:38.137Z</time></trkpt><trkpt lat="45.3984917" lon="10.62223"><ele>109.75</ele><time>2026-04-18T13:13:39.135Z</time></trkpt><trkpt lat="45.398335" lon="10.6222267"><ele>108.5</ele><time>2026-04-18T13:13:40.141Z</time></trkpt><trkpt lat="45.398195" lon="10.6222117"><ele>107.25</ele><time>2026-04-18T13:13:41.137Z</time></trkpt><trkpt lat="45.3980533" lon="10.6222033"><ele>106.0</ele><time>2026-04-18T13:13:42.134Z</time></trkpt><trkpt lat="45.3979117" lon="10.622245"><ele>104.33333333333334</ele><time>2026-04-18T13:13:43.14Z</time></trkpt><trkpt lat="45.3977733" lon="10.6222483"><ele>102.66666666666666</ele><time>2026-04-18T13:13:44.138Z</time></trkpt><trkpt lat="45.3976333" lon="10.6223033"><ele>101.0</ele><time>2026-04-18T13:13:45.143Z</time></trkpt><trkpt lat="45.3974317" lon="10.62239"><ele>101.0</ele><time>2026-04-18T13:13:46.135Z</time></trkpt><trkpt lat="45.397235" lon="10.6224933"><ele>101.0</ele><time>2026-04-18T13:13:47.131Z</time></trkpt><trkpt lat="45.39703" lon="10.622595"><ele>101.0</ele><time>2026-04-18T13:13:48.133Z</time></trkpt><trkpt lat="45.3968383" lon="10.6226783"><ele>102.0</ele><time>2026-04-18T13:13:49.144Z</time></trkpt><trkpt lat="45.3966633" lon="10.6227633"><ele>103.0</ele><time>2026-04-18T13:13:50.129Z</time></trkpt><trkpt lat="45.3965183" lon="10.6228233"><ele>104.0</ele><time>2026-04-18T13:13:51.132Z</time></trkpt><trkpt lat="45.3964" lon="10.6228667"><ele>102.25</ele><time>2026-04-18T13:13:52.141Z</time></trkpt><trkpt lat="45.3962833" lon="10.6228883"><ele>100.5</ele><time>2026-04-18T13:13:53.139Z</time></trkpt><trkpt lat="45.3961583" lon="10.6228683"><ele>98.75</ele><time>2026-04-18T13:13:54.13Z</time></trkpt><trkpt lat="45.3960317" lon="10.6227933"><ele>97.0</ele><time>2026-04-18T13:13:55.13Z</time></trkpt><trkpt lat="45.39592" lon="10.622685"><ele>95.25</ele><time>2026-04-18T13:13:56.131Z</time></trkpt><trkpt lat="45.3958433" lon="10.62257"><ele>93.5</ele><time>2026-04-18T13:13:57.13Z</time></trkpt><trkpt lat="45.39579" lon="10.622415"><ele>91.75</ele><time>2026-04-18T13:13:58.138Z</time></trkpt><trkpt lat="45.3957267" lon="10.6222483"><ele>90.0</ele><time>2026-04-18T13:13:59.132Z</time></trkpt><trkpt lat="45.3956733" lon="10.622085"><ele>90.33333333333333</ele><time>2026-04-18T13:14:00.142Z</time></trkpt><trkpt lat="45.3956717" lon="10.62191"><ele>90.66666666666666</ele><time>2026-04-18T13:14:01.126Z</time></trkpt><trkpt lat="45.3956833" lon="10.6216833"><ele>91.0</ele><time>2026-04-18T13:14:02.149Z</time></trkpt><trkpt lat="45.3957383" lon="10.621155"><ele>91.66666666666666</ele><time>2026-04-18T13:14:04.134Z</time></trkpt><trkpt lat="45.39576" lon="10.620865"><ele>92.33333333333333</ele><time>2026-04-18T13:14:05.138Z</time></trkpt><trkpt lat="45.395745" lon="10.6205467"><ele>93.0</ele><time>2026-04-18T13:14:06.144Z</time></trkpt><trkpt lat="45.3956833" lon="10.6202183"><ele>94.0</ele><time>2026-04-18T13:14:07.145Z</time></trkpt><trkpt lat="45.395615" lon="10.6198933"><ele>95.0</ele><time>2026-04-18T13:14:08.136Z</time></trkpt><trkpt lat="45.395525" lon="10.6195717"><ele>94.5</ele><time>2026-04-18T13:14:09.14Z</time></trkpt><trkpt lat="45.395395" lon="10.6192183"><ele>94.0</ele><time>2026-04-18T13:14:10.131Z</time></trkpt><trkpt lat="45.3952717" lon="10.618855"><ele>95.5</ele><time>2026-04-18T13:14:11.137Z</time></trkpt><trkpt lat="45.395135" lon="10.6184983"><ele>97.0</ele><time>2026-04-18T13:14:12.137Z</time></trkpt><trkpt lat="45.3950033" lon="10.6181317"><ele>99.5</ele><time>2026-04-18T13:14:13.129Z</time></trkpt><trkpt lat="45.3948633" lon="10.6177617"><ele>102.0</ele><time>2026-04-18T13:14:14.15Z</time></trkpt><trkpt lat="45.394715" lon="10.6174067"><ele>101.0</ele><time>2026-04-18T13:14:15.135Z</time></trkpt><trkpt lat="45.3945567" lon="10.6170717"><ele>100.0</ele><time>2026-04-18T13:14:16.13Z</time></trkpt><trkpt lat="45.394405" lon="10.616775"><ele>100.0</ele><time>2026-04-18T13:14:17.137Z</time></trkpt><trkpt lat="45.3942667" lon="10.6165067"><ele>100.0</ele><time>2026-04-18T13:14:18.142Z</time></trkpt><trkpt lat="45.3941517" lon="10.616255"><ele>100.0</ele><time>2026-04-18T13:14:19.134Z</time></trkpt><trkpt lat="45.3940317" lon="10.6160167"><ele>100.66666666666667</ele><time>2026-04-18T13:14:20.132Z</time></trkpt><trkpt lat="45.393945" lon="10.6157917"><ele>101.33333333333334</ele><time>2026-04-18T13:14:21.141Z</time></trkpt><trkpt lat="45.393875" lon="10.615615"><ele>102.0</ele><time>2026-04-18T13:14:22.138Z</time></trkpt><trkpt lat="45.3938117" lon="10.615435"><ele>100.5</ele><time>2026-04-18T13:14:23.137Z</time></trkpt><trkpt lat="45.3937583" lon="10.61525"><ele>99.0</ele><time>2026-04-18T13:14:24.139Z</time></trkpt><trkpt lat="45.3937067" lon="10.61511"><ele>97.5</ele><time>2026-04-18T13:14:25.144Z</time></trkpt><trkpt lat="45.3936617" lon="10.6149633"><ele>96.0</ele><time>2026-04-18T13:14:26.165Z</time></trkpt><trkpt lat="45.3936333" lon="10.6148283"><ele>96.0</ele><time>2026-04-18T13:14:27.131Z</time></trkpt><trkpt lat="45.39359" lon="10.6146917"><ele>96.0</ele><time>2026-04-18T13:14:28.132Z</time></trkpt><trkpt lat="45.3935517" lon="10.6145683"><ele>96.0</ele><time>2026-04-18T13:14:29.133Z</time></trkpt><trkpt lat="45.39353" lon="10.6144417"><ele>96.0</ele><time>2026-04-18T13:14:30.134Z</time></trkpt><trkpt lat="45.3935283" lon="10.6143283"><ele>96.0</ele><time>2026-04-18T13:14:31.133Z</time></trkpt><trkpt lat="45.3935367" lon="10.6141933"><ele>96.5</ele><time>2026-04-18T13:14:32.131Z</time></trkpt><trkpt lat="45.3935383" lon="10.61408"><ele>97.0</ele><time>2026-04-18T13:14:33.13Z</time></trkpt><trkpt lat="45.3935683" lon="10.6139717"><ele>97.5</ele><time>2026-04-18T13:14:34.136Z</time></trkpt><trkpt lat="45.3936" lon="10.6138733"><ele>98.0</ele><time>2026-04-18T13:14:35.126Z</time></trkpt><trkpt lat="45.3936383" lon="10.6137883"><ele>98.5</ele><time>2026-04-18T13:14:36.131Z</time></trkpt><trkpt lat="45.3937283" lon="10.613665"><ele>99.0</ele><time>2026-04-18T13:14:38.127Z</time></trkpt><trkpt lat="45.39381" lon="10.6135933"><ele>100.16666666666667</ele><time>2026-04-18T13:14:40.133Z</time></trkpt><trkpt lat="45.3938733" lon="10.613585"><ele>101.33333333333334</ele><time>2026-04-18T13:14:42.153Z</time></trkpt><trkpt lat="45.393885" lon="10.61343"><ele>102.5</ele><time>2026-04-18T13:14:45.132Z</time></trkpt><trkpt lat="45.3938783" lon="10.613335"><ele>103.66666666666667</ele><time>2026-04-18T13:14:46.133Z</time></trkpt><trkpt lat="45.3938783" lon="10.6132367"><ele>104.83333333333334</ele><time>2026-04-18T13:14:47.133Z</time></trkpt><trkpt lat="45.3938833" lon="10.6131267"><ele>106.0</ele><time>2026-04-18T13:14:48.136Z</time></trkpt><trkpt lat="45.3939017" lon="10.6130167"><ele>106.00000000000001</ele><time>2026-04-18T13:14:49.146Z</time></trkpt><trkpt lat="45.39392" lon="10.6129017"><ele>106.0</ele><time>2026-04-18T13:14:50.137Z</time></trkpt><trkpt lat="45.3939333" lon="10.6127933"><ele>106.0</ele><time>2026-04-18T13:14:51.136Z</time></trkpt><trkpt lat="45.3939417" lon="10.6126933"><ele>106.0</ele><time>2026-04-18T13:14:52.131Z</time></trkpt><trkpt lat="45.393945" lon="10.6125983"><ele>106.00000000000001</ele><time>2026-04-18T13:14:53.133Z</time></trkpt><trkpt lat="45.3939583" lon="10.61241"><ele>106.0</ele><time>2026-04-18T13:14:55.128Z</time></trkpt><trkpt lat="45.3939733" lon="10.6123"><ele>105.83333333333334</ele><time>2026-04-18T13:14:56.132Z</time></trkpt><trkpt lat="45.3939883" lon="10.612185"><ele>105.66666666666667</ele><time>2026-04-18T13:14:57.132Z</time></trkpt><trkpt lat="45.3940117" lon="10.6120767"><ele>105.5</ele><time>2026-04-18T13:14:58.128Z</time></trkpt><trkpt lat="45.3940367" lon="10.6119667"><ele>105.33333333333334</ele><time>2026-04-18T13:14:59.133Z</time></trkpt><trkpt lat="45.39407" lon="10.6118467"><ele>105.16666666666667</ele><time>2026-04-18T13:15:00.179Z</time></trkpt><trkpt lat="45.394115" lon="10.6117283"><ele>105.0</ele><time>2026-04-18T13:15:01.124Z</time></trkpt><trkpt lat="45.39417" lon="10.6116083"><ele>104.6</ele><time>2026-04-18T13:15:02.138Z</time></trkpt><trkpt lat="45.3942233" lon="10.6115"><ele>104.2</ele><time>2026-04-18T13:15:03.137Z</time></trkpt><trkpt lat="45.39427" lon="10.6114083"><ele>103.80000000000001</ele><time>2026-04-18T13:15:04.139Z</time></trkpt><trkpt lat="45.3943117" lon="10.6113133"><ele>103.4</ele><time>2026-04-18T13:15:05.141Z</time></trkpt><trkpt lat="45.39432" lon="10.611135"><ele>103.0</ele><time>2026-04-18T13:15:07.123Z</time></trkpt><trkpt lat="45.3943117" lon="10.61103"><ele>102.4</ele><time>2026-04-18T13:15:08.138Z</time></trkpt><trkpt lat="45.394305" lon="10.61091"><ele>101.80000000000001</ele><time>2026-04-18T13:15:09.142Z</time></trkpt><trkpt lat="45.3942817" lon="10.610775"><ele>101.2</ele><time>2026-04-18T13:15:10.137Z</time></trkpt><trkpt lat="45.3942583" lon="10.6106483"><ele>100.6</ele><time>2026-04-18T13:15:11.129Z</time></trkpt><trkpt lat="45.3942617" lon="10.6104483"><ele>100.0</ele><time>2026-04-18T13:15:12.133Z</time></trkpt><trkpt lat="45.394275" lon="10.6103033"><ele>99.6</ele><time>2026-04-18T13:15:13.136Z</time></trkpt><trkpt lat="45.3942833" lon="10.6101517"><ele>99.2</ele><time>2026-04-18T13:15:14.131Z</time></trkpt><trkpt lat="45.3943317" lon="10.6100533"><ele>98.80000000000001</ele><time>2026-04-18T13:15:15.131Z</time></trkpt><trkpt lat="45.39435" lon="10.609945"><ele>98.4</ele><time>2026-04-18T13:15:16.132Z</time></trkpt><trkpt lat="45.3943983" lon="10.6097867"><ele>98.0</ele><time>2026-04-18T13:15:17.13Z</time></trkpt><trkpt lat="45.39447" lon="10.60964"><ele>97.5</ele><time>2026-04-18T13:15:18.13Z</time></trkpt><trkpt lat="45.394515" lon="10.609475"><ele>97.0</ele><time>2026-04-18T13:15:19.145Z</time></trkpt><trkpt lat="45.3945917" lon="10.609315"><ele>96.5</ele><time>2026-04-18T13:15:20.137Z</time></trkpt><trkpt lat="45.3946483" lon="10.60917"><ele>96.0</ele><time>2026-04-18T13:15:21.137Z</time></trkpt><trkpt lat="45.39471" lon="10.60899"><ele>97.6</ele><time>2026-04-18T13:15:22.135Z</time></trkpt><trkpt lat="45.39474" lon="10.6088233"><ele>99.19999999999999</ele><time>2026-04-18T13:15:23.129Z</time></trkpt><trkpt lat="45.3947483" lon="10.6086617"><ele>100.80000000000001</ele><time>2026-04-18T13:15:24.142Z</time></trkpt><trkpt lat="45.39477" lon="10.60852"><ele>102.4</ele><time>2026-04-18T13:15:25.132Z</time></trkpt><trkpt lat="45.394785" lon="10.6084"><ele>104.0</ele><time>2026-04-18T13:15:26.131Z</time></trkpt><trkpt lat="45.3947933" lon="10.6083017"><ele>104.0</ele><time>2026-04-18T13:15:27.133Z</time></trkpt><trkpt lat="45.39481" lon="10.6082017"><ele>104.0</ele><time>2026-04-18T13:15:28.133Z</time></trkpt><trkpt lat="45.39482" lon="10.6081017"><ele>104.0</ele><time>2026-04-18T13:15:29.132Z</time></trkpt><trkpt lat="45.3948217" lon="10.6080067"><ele>104.0</ele><time>2026-04-18T13:15:30.138Z</time></trkpt><trkpt lat="45.39482" lon="10.6079"><ele>104.0</ele><time>2026-04-18T13:15:31.127Z</time></trkpt><trkpt lat="45.394825" lon="10.6078033"><ele>104.0</ele><time>2026-04-18T13:15:32.134Z</time></trkpt><trkpt lat="45.39483" lon="10.6077017"><ele>104.0</ele><time>2026-04-18T13:15:33.125Z</time></trkpt><trkpt lat="45.394835" lon="10.6076"><ele>104.0</ele><time>2026-04-18T13:15:34.141Z</time></trkpt><trkpt lat="45.3948383" lon="10.6074983"><ele>104.0</ele><time>2026-04-18T13:15:35.136Z</time></trkpt><trkpt lat="45.3948383" lon="10.6073883"><ele>104.0</ele><time>2026-04-18T13:15:36.136Z</time></trkpt><trkpt lat="45.394835" lon="10.607265"><ele>104.0</ele><time>2026-04-18T13:15:37.134Z</time></trkpt><trkpt lat="45.3948233" lon="10.607115"><ele>104.0</ele><time>2026-04-18T13:15:38.139Z</time></trkpt><trkpt lat="45.3948167" lon="10.606955"><ele>103.5</ele><time>2026-04-18T13:15:39.13Z</time></trkpt><trkpt lat="45.39484" lon="10.6068"><ele>103.0</ele><time>2026-04-18T13:15:40.146Z</time></trkpt><trkpt lat="45.3948467" lon="10.6066417"><ele>102.5</ele><time>2026-04-18T13:15:41.143Z</time></trkpt><trkpt lat="45.3948517" lon="10.6064667"><ele>102.0</ele><time>2026-04-18T13:15:42.133Z</time></trkpt><trkpt lat="45.3949033" lon="10.6062667"><ele>102.19999999999999</ele><time>2026-04-18T13:15:43.13Z</time></trkpt><trkpt lat="45.394945" lon="10.6061083"><ele>102.4</ele><time>2026-04-18T13:15:44.135Z</time></trkpt><trkpt lat="45.3949583" lon="10.6059733"><ele>102.6</ele><time>2026-04-18T13:15:45.132Z</time></trkpt><trkpt lat="45.39498" lon="10.60581"><ele>102.80000000000001</ele><time>2026-04-18T13:15:46.128Z</time></trkpt><trkpt lat="45.395" lon="10.6057067"><ele>103.0</ele><time>2026-04-18T13:15:47.129Z</time></trkpt><trkpt lat="45.39502" lon="10.6056017"><ele>103.00000000000001</ele><time>2026-04-18T13:15:48.14Z</time></trkpt><trkpt lat="45.3950417" lon="10.6054883"><ele>103.0</ele><time>2026-04-18T13:15:49.13Z</time></trkpt><trkpt lat="45.3950617" lon="10.6053667"><ele>103.0</ele><time>2026-04-18T13:15:50.141Z</time></trkpt><trkpt lat="45.395075" lon="10.605245"><ele>103.0</ele><time>2026-04-18T13:15:51.137Z</time></trkpt><trkpt lat="45.3950933" lon="10.6050967"><ele>103.00000000000001</ele><time>2026-04-18T13:15:52.127Z</time></trkpt><trkpt lat="45.3951183" lon="10.6049783"><ele>103.0</ele><time>2026-04-18T13:15:53.127Z</time></trkpt><trkpt lat="45.39514" lon="10.6048867"><ele>102.50000000000001</ele><time>2026-04-18T13:15:54.145Z</time></trkpt><trkpt lat="45.3951667" lon="10.6047767"><ele>102.0</ele><time>2026-04-18T13:15:56.129Z</time></trkpt><trkpt lat="45.3952" lon="10.6046833"><ele>101.5</ele><time>2026-04-18T13:15:58.13Z</time></trkpt><trkpt lat="45.3952283" lon="10.6045867"><ele>101.0</ele><time>2026-04-18T13:16:00.14Z</time></trkpt><trkpt lat="45.3952483" lon="10.6044933"><ele>100.50000000000001</ele><time>2026-04-18T13:16:02.143Z</time></trkpt><trkpt lat="45.3952633" lon="10.6044033"><ele>100.0</ele><time>2026-04-18T13:16:04.129Z</time></trkpt><trkpt lat="45.3953033" lon="10.6042583"><ele>100.00000000000001</ele><time>2026-04-18T13:16:06.137Z</time></trkpt><trkpt lat="45.39533" lon="10.6041633"><ele>100.0</ele><time>2026-04-18T13:16:07.129Z</time></trkpt><trkpt lat="45.39536" lon="10.604065"><ele>100.0</ele><time>2026-04-18T13:16:08.136Z</time></trkpt><trkpt lat="45.3953917" lon="10.603965"><ele>100.0</ele><time>2026-04-18T13:16:09.129Z</time></trkpt><trkpt lat="45.39543" lon="10.6038583"><ele>100.00000000000001</ele><time>2026-04-18T13:16:10.134Z</time></trkpt><trkpt lat="45.3954717" lon="10.6037417"><ele>100.0</ele><time>2026-04-18T13:16:11.129Z</time></trkpt><trkpt lat="45.3955167" lon="10.60361"><ele>101.0</ele><time>2026-04-18T13:16:12.146Z</time></trkpt><trkpt lat="45.3955617" lon="10.603475"><ele>102.0</ele><time>2026-04-18T13:16:13.137Z</time></trkpt><trkpt lat="45.3956083" lon="10.6033383"><ele>103.0</ele><time>2026-04-18T13:16:14.133Z</time></trkpt><trkpt lat="45.395655" lon="10.6031967"><ele>104.0</ele><time>2026-04-18T13:16:15.138Z</time></trkpt><trkpt lat="45.3957033" lon="10.603055"><ele>105.0</ele><time>2026-04-18T13:16:16.133Z</time></trkpt><trkpt lat="45.39575" lon="10.6029083"><ele>104.25</ele><time>2026-04-18T13:16:17.128Z</time></trkpt><trkpt lat="45.3957933" lon="10.6027583"><ele>103.5</ele><time>2026-04-18T13:16:18.127Z</time></trkpt><trkpt lat="45.3958417" lon="10.6026017"><ele>102.75</ele><time>2026-04-18T13:16:19.147Z</time></trkpt><trkpt lat="45.3958883" lon="10.602445"><ele>102.0</ele><time>2026-04-18T13:16:20.13Z</time></trkpt><trkpt lat="45.3959367" lon="10.60229"><ele>102.0</ele><time>2026-04-18T13:16:21.134Z</time></trkpt><trkpt lat="45.395985" lon="10.602135"><ele>102.0</ele><time>2026-04-18T13:16:22.132Z</time></trkpt><trkpt lat="45.3960267" lon="10.6019817"><ele>102.0</ele><time>2026-04-18T13:16:23.139Z</time></trkpt><trkpt lat="45.3960667" lon="10.6018283"><ele>102.0</ele><time>2026-04-18T13:16:24.127Z</time></trkpt><trkpt lat="45.3961067" lon="10.6016767"><ele>101.8</ele><time>2026-04-18T13:16:25.136Z</time></trkpt><trkpt lat="45.3961467" lon="10.6015217"><ele>101.6</ele><time>2026-04-18T13:16:26.138Z</time></trkpt><trkpt lat="45.39618" lon="10.60137"><ele>101.39999999999999</ele><time>2026-04-18T13:16:27.139Z</time></trkpt><trkpt lat="45.396215" lon="10.6012217"><ele>101.19999999999999</ele><time>2026-04-18T13:16:28.128Z</time></trkpt><trkpt lat="45.3962367" lon="10.6010817"><ele>101.0</ele><time>2026-04-18T13:16:29.134Z</time></trkpt><trkpt lat="45.3962767" lon="10.6009467"><ele>100.8</ele><time>2026-04-18T13:16:30.13Z</time></trkpt><trkpt lat="45.3963217" lon="10.600805"><ele>100.6</ele><time>2026-04-18T13:16:31.135Z</time></trkpt><trkpt lat="45.396365" lon="10.600685"><ele>100.4</ele><time>2026-04-18T13:16:32.142Z</time></trkpt><trkpt lat="45.3964033" lon="10.6005617"><ele>100.2</ele><time>2026-04-18T13:16:33.147Z</time></trkpt><trkpt lat="45.3964717" lon="10.600435"><ele>100.0</ele><time>2026-04-18T13:16:34.134Z</time></trkpt><trkpt lat="45.3965233" lon="10.6003"><ele>100.6</ele><time>2026-04-18T13:16:35.137Z</time></trkpt><trkpt lat="45.396565" lon="10.60016"><ele>101.2</ele><time>2026-04-18T13:16:36.132Z</time></trkpt><trkpt lat="45.3966117" lon="10.6000517"><ele>101.80000000000001</ele><time>2026-04-18T13:16:37.129Z</time></trkpt><trkpt lat="45.396655" lon="10.5999233"><ele>102.4</ele><time>2026-04-18T13:16:38.132Z</time></trkpt><trkpt lat="45.39673" lon="10.5998433"><ele>103.0</ele><time>2026-04-18T13:16:39.142Z</time></trkpt><trkpt lat="45.3967767" lon="10.599735"><ele>103.0</ele><time>2026-04-18T13:16:40.142Z</time></trkpt><trkpt lat="45.39682" lon="10.599585"><ele>103.0</ele><time>2026-04-18T13:16:41.128Z</time></trkpt><trkpt lat="45.3968467" lon="10.5994433"><ele>103.0</ele><time>2026-04-18T13:16:42.141Z</time></trkpt><trkpt lat="45.3968817" lon="10.5992767"><ele>103.0</ele><time>2026-04-18T13:16:43.14Z</time></trkpt><trkpt lat="45.396915" lon="10.599115"><ele>103.0</ele><time>2026-04-18T13:16:44.138Z</time></trkpt><trkpt lat="45.39695" lon="10.598955"><ele>103.0</ele><time>2026-04-18T13:16:45.137Z</time></trkpt><trkpt lat="45.39699" lon="10.59879"><ele>103.0</ele><time>2026-04-18T13:16:46.144Z</time></trkpt><trkpt lat="45.3970383" lon="10.59863"><ele>103.0</ele><time>2026-04-18T13:16:47.134Z</time></trkpt><trkpt lat="45.3970883" lon="10.5984783"><ele>103.0</ele><time>2026-04-18T13:16:48.134Z</time></trkpt><trkpt lat="45.3971367" lon="10.598335"><ele>103.0</ele><time>2026-04-18T13:16:49.132Z</time></trkpt><trkpt lat="45.397185" lon="10.59819"><ele>103.0</ele><time>2026-04-18T13:16:50.129Z</time></trkpt><trkpt lat="45.3972267" lon="10.59803"><ele>103.0</ele><time>2026-04-18T13:16:51.131Z</time></trkpt><trkpt lat="45.397245" lon="10.59781"><ele>103.25</ele><time>2026-04-18T13:16:52.133Z</time></trkpt><trkpt lat="45.397275" lon="10.59764"><ele>103.5</ele><time>2026-04-18T13:16:53.146Z</time></trkpt><trkpt lat="45.397295" lon="10.5974833"><ele>103.75</ele><time>2026-04-18T13:16:54.138Z</time></trkpt><trkpt lat="45.3973133" lon="10.59735"><ele>104.0</ele><time>2026-04-18T13:16:55.136Z</time></trkpt><trkpt lat="45.3973267" lon="10.5971783"><ele>103.99999999999999</ele><time>2026-04-18T13:16:57.14Z</time></trkpt><trkpt lat="45.39728" lon="10.597095"><ele>104.0</ele><time>2026-04-18T13:16:59.165Z</time></trkpt><trkpt lat="45.3972167" lon="10.597075"><ele>104.0</ele><time>2026-04-18T13:17:00.137Z</time></trkpt><trkpt lat="45.3971467" lon="10.5970633"><ele>104.0</ele><time>2026-04-18T13:17:01.139Z</time></trkpt><trkpt lat="45.3970683" lon="10.5970567"><ele>103.99999999999999</ele><time>2026-04-18T13:17:02.128Z</time></trkpt><trkpt lat="45.3969783" lon="10.597065"><ele>104.0</ele><time>2026-04-18T13:17:03.154Z</time></trkpt><trkpt lat="45.3968783" lon="10.5970867"><ele>103.83333333333333</ele><time>2026-04-18T13:17:04.132Z</time></trkpt><trkpt lat="45.3967683" lon="10.5971383"><ele>103.66666666666666</ele><time>2026-04-18T13:17:05.134Z</time></trkpt><trkpt lat="45.39668" lon="10.5971533"><ele>103.5</ele><time>2026-04-18T13:17:06.137Z</time></trkpt><trkpt lat="45.3966033" lon="10.5971983"><ele>103.33333333333334</ele><time>2026-04-18T13:17:07.134Z</time></trkpt><trkpt lat="45.3965283" lon="10.5972283"><ele>103.16666666666667</ele><time>2026-04-18T13:17:08.135Z</time></trkpt><trkpt lat="45.3964567" lon="10.5972417"><ele>103.0</ele><time>2026-04-18T13:17:09.131Z</time></trkpt><trkpt lat="45.396385" lon="10.597235"><ele>103.71428571428571</ele><time>2026-04-18T13:17:10.128Z</time></trkpt><trkpt lat="45.39631" lon="10.5972083"><ele>104.42857142857143</ele><time>2026-04-18T13:17:11.136Z</time></trkpt><trkpt lat="45.3962317" lon="10.5971883"><ele>105.14285714285714</ele><time>2026-04-18T13:17:12.131Z</time></trkpt><trkpt lat="45.3961617" lon="10.59717"><ele>105.85714285714286</ele><time>2026-04-18T13:17:13.136Z</time></trkpt><trkpt lat="45.3960917" lon="10.5971483"><ele>106.57142857142857</ele><time>2026-04-18T13:17:14.145Z</time></trkpt><trkpt lat="45.3960217" lon="10.5971267"><ele>107.28571428571428</ele><time>2026-04-18T13:17:15.135Z</time></trkpt><trkpt lat="45.3959467" lon="10.5971083"><ele>108.0</ele><time>2026-04-18T13:17:16.137Z</time></trkpt><trkpt lat="45.3958733" lon="10.5970833"><ele>108.0</ele><time>2026-04-18T13:17:17.137Z</time></trkpt><trkpt lat="45.3958017" lon="10.5970517"><ele>108.00000000000001</ele><time>2026-04-18T13:17:18.131Z</time></trkpt><trkpt lat="45.3956683" lon="10.59697"><ele>108.00000000000001</ele><time>2026-04-18T13:17:20.129Z</time></trkpt><trkpt lat="45.39561" lon="10.59691"><ele>108.0</ele><time>2026-04-18T13:17:21.134Z</time></trkpt><trkpt lat="45.3955533" lon="10.596835"><ele>108.0</ele><time>2026-04-18T13:17:22.125Z</time></trkpt><trkpt lat="45.3955" lon="10.5967333"><ele>108.80000000000001</ele><time>2026-04-18T13:17:23.152Z</time></trkpt><trkpt lat="45.3954467" lon="10.5966233"><ele>109.60000000000001</ele><time>2026-04-18T13:17:24.146Z</time></trkpt><trkpt lat="45.3953783" lon="10.596515"><ele>110.39999999999999</ele><time>2026-04-18T13:17:25.137Z</time></trkpt><trkpt lat="45.39529" lon="10.5964183"><ele>111.19999999999999</ele><time>2026-04-18T13:17:26.136Z</time></trkpt><trkpt lat="45.3951933" lon="10.5963267"><ele>112.0</ele><time>2026-04-18T13:17:27.143Z</time></trkpt><trkpt lat="45.3950817" lon="10.596245"><ele>112.0</ele><time>2026-04-18T13:17:28.141Z</time></trkpt><trkpt lat="45.3949433" lon="10.5962167"><ele>111.99999999999999</ele><time>2026-04-18T13:17:29.129Z</time></trkpt><trkpt lat="45.3948233" lon="10.5961767"><ele>111.99999999999999</ele><time>2026-04-18T13:17:30.137Z</time></trkpt><trkpt lat="45.3947333" lon="10.5961583"><ele>112.0</ele><time>2026-04-18T13:17:31.137Z</time></trkpt><trkpt lat="45.394645" lon="10.5961233"><ele>112.0</ele><time>2026-04-18T13:17:32.14Z</time></trkpt><trkpt lat="45.394555" lon="10.5961"><ele>112.66666666666667</ele><time>2026-04-18T13:17:33.132Z</time></trkpt><trkpt lat="45.3944683" lon="10.5960683"><ele>113.33333333333334</ele><time>2026-04-18T13:17:34.131Z</time></trkpt><trkpt lat="45.3943817" lon="10.5960383"><ele>114.0</ele><time>2026-04-18T13:17:35.141Z</time></trkpt><trkpt lat="45.3943067" lon="10.5960083"><ele>114.66666666666666</ele><time>2026-04-18T13:17:36.133Z</time></trkpt><trkpt lat="45.394225" lon="10.59597"><ele>115.33333333333333</ele><time>2026-04-18T13:17:37.139Z</time></trkpt><trkpt lat="45.3941367" lon="10.5959267"><ele>116.0</ele><time>2026-04-18T13:17:38.134Z</time></trkpt><trkpt lat="45.39405" lon="10.5958817"><ele>115.99999999999999</ele><time>2026-04-18T13:17:39.133Z</time></trkpt><trkpt lat="45.3939783" lon="10.5958317"><ele>116.0</ele><time>2026-04-18T13:17:40.145Z</time></trkpt><trkpt lat="45.3939133" lon="10.59576"><ele>116.0</ele><time>2026-04-18T13:17:41.138Z</time></trkpt><trkpt lat="45.3938633" lon="10.59568"><ele>116.0</ele><time>2026-04-18T13:17:42.14Z</time></trkpt><trkpt lat="45.39383" lon="10.595585"><ele>115.99999999999999</ele><time>2026-04-18T13:17:43.135Z</time></trkpt><trkpt lat="45.3938167" lon="10.5954717"><ele>116.0</ele><time>2026-04-18T13:17:44.135Z</time></trkpt><trkpt lat="45.3938333" lon="10.5953333"><ele>115.25</ele><time>2026-04-18T13:17:45.132Z</time></trkpt><trkpt lat="45.39385" lon="10.5951667"><ele>114.5</ele><time>2026-04-18T13:17:46.144Z</time></trkpt><trkpt lat="45.393875" lon="10.5949883"><ele>113.75</ele><time>2026-04-18T13:17:47.13Z</time></trkpt><trkpt lat="45.3938883" lon="10.5947667"><ele>113.0</ele><time>2026-04-18T13:17:48.13Z</time></trkpt><trkpt lat="45.3939233" lon="10.59455"><ele>113.2</ele><time>2026-04-18T13:17:49.14Z</time></trkpt><trkpt lat="45.3939683" lon="10.5943767"><ele>113.4</ele><time>2026-04-18T13:17:50.129Z</time></trkpt><trkpt lat="45.3939717" lon="10.594215"><ele>113.60000000000001</ele><time>2026-04-18T13:17:51.126Z</time></trkpt><trkpt lat="45.39396" lon="10.594095"><ele>113.80000000000001</ele><time>2026-04-18T13:17:52.129Z</time></trkpt><trkpt lat="45.393945" lon="10.5939917"><ele>114.0</ele><time>2026-04-18T13:17:53.141Z</time></trkpt><trkpt lat="45.393915" lon="10.593905"><ele>114.0</ele><time>2026-04-18T13:17:54.135Z</time></trkpt><trkpt lat="45.3938733" lon="10.593825"><ele>114.0</ele><time>2026-04-18T13:17:55.142Z</time></trkpt><trkpt lat="45.393815" lon="10.5937517"><ele>114.0</ele><time>2026-04-18T13:17:56.143Z</time></trkpt><trkpt lat="45.3937283" lon="10.5936767"><ele>114.0</ele><time>2026-04-18T13:17:57.131Z</time></trkpt><trkpt lat="45.3936167" lon="10.5936"><ele>114.0</ele><time>2026-04-18T13:17:58.126Z</time></trkpt><trkpt lat="45.3934833" lon="10.5935083"><ele>114.5</ele><time>2026-04-18T13:17:59.138Z</time></trkpt><trkpt lat="45.3933583" lon="10.5934133"><ele>115.0</ele><time>2026-04-18T13:18:00.144Z</time></trkpt><trkpt lat="45.3932533" lon="10.5933033"><ele>115.5</ele><time>2026-04-18T13:18:01.135Z</time></trkpt><trkpt lat="45.3931483" lon="10.593225"><ele>116.0</ele><time>2026-04-18T13:18:02.149Z</time></trkpt><trkpt lat="45.39305" lon="10.59318"><ele>116.6</ele><time>2026-04-18T13:18:03.139Z</time></trkpt><trkpt lat="45.3929367" lon="10.5931433"><ele>117.19999999999999</ele><time>2026-04-18T13:18:04.139Z</time></trkpt><trkpt lat="45.3928267" lon="10.593105"><ele>117.80000000000001</ele><time>2026-04-18T13:18:05.135Z</time></trkpt><trkpt lat="45.3927317" lon="10.59309"><ele>118.4</ele><time>2026-04-18T13:18:06.133Z</time></trkpt><trkpt lat="45.39265" lon="10.5930417"><ele>119.0</ele><time>2026-04-18T13:18:07.133Z</time></trkpt><trkpt lat="45.392585" lon="10.5929817"><ele>118.99999999999999</ele><time>2026-04-18T13:18:08.139Z</time></trkpt><trkpt lat="45.39254" lon="10.5929133"><ele>119.0</ele><time>2026-04-18T13:18:09.132Z</time></trkpt><trkpt lat="45.3925033" lon="10.5928283"><ele>119.0</ele><time>2026-04-18T13:18:10.133Z</time></trkpt><trkpt lat="45.3924883" lon="10.59273"><ele>119.0</ele><time>2026-04-18T13:18:11.133Z</time></trkpt><trkpt lat="45.3924933" lon="10.5926267"><ele>118.99999999999999</ele><time>2026-04-18T13:18:12.14Z</time></trkpt><trkpt lat="45.3925233" lon="10.5925067"><ele>119.0</ele><time>2026-04-18T13:18:13.131Z</time></trkpt><trkpt lat="45.3925567" lon="10.5923667"><ele>119.25</ele><time>2026-04-18T13:18:14.145Z</time></trkpt><trkpt lat="45.39258" lon="10.59222"><ele>119.5</ele><time>2026-04-18T13:18:15.136Z</time></trkpt><trkpt lat="45.3925883" lon="10.5920667"><ele>119.75</ele><time>2026-04-18T13:18:16.135Z</time></trkpt><trkpt lat="45.3925717" lon="10.5918967"><ele>120.0</ele><time>2026-04-18T13:18:17.128Z</time></trkpt><trkpt lat="45.39253" lon="10.5916867"><ele>120.33333333333334</ele><time>2026-04-18T13:18:18.135Z</time></trkpt><trkpt lat="45.3924533" lon="10.591515"><ele>120.66666666666667</ele><time>2026-04-18T13:18:19.136Z</time></trkpt><trkpt lat="45.39235" lon="10.5913483"><ele>121.0</ele><time>2026-04-18T13:18:20.141Z</time></trkpt><trkpt lat="45.3922483" lon="10.5911717"><ele>119.75</ele><time>2026-04-18T13:18:21.139Z</time></trkpt><trkpt lat="45.3921517" lon="10.59103"><ele>118.5</ele><time>2026-04-18T13:18:22.141Z</time></trkpt><trkpt lat="45.3920967" lon="10.5909083"><ele>117.25</ele><time>2026-04-18T13:18:23.148Z</time></trkpt><trkpt lat="45.3920533" lon="10.5907483"><ele>116.0</ele><time>2026-04-18T13:18:24.131Z</time></trkpt><trkpt lat="45.3920233" lon="10.5905667"><ele>116.0</ele><time>2026-04-18T13:18:25.131Z</time></trkpt><trkpt lat="45.39201" lon="10.590375"><ele>116.0</ele><time>2026-04-18T13:18:26.13Z</time></trkpt><trkpt lat="45.3920117" lon="10.59017"><ele>116.0</ele><time>2026-04-18T13:18:27.135Z</time></trkpt><trkpt lat="45.3920167" lon="10.5899683"><ele>116.0</ele><time>2026-04-18T13:18:28.13Z</time></trkpt><trkpt lat="45.392025" lon="10.5897617"><ele>116.25</ele><time>2026-04-18T13:18:29.141Z</time></trkpt><trkpt lat="45.39203" lon="10.5895517"><ele>116.5</ele><time>2026-04-18T13:18:30.13Z</time></trkpt><trkpt lat="45.3920267" lon="10.589335"><ele>116.75</ele><time>2026-04-18T13:18:31.147Z</time></trkpt><trkpt lat="45.392015" lon="10.5891267"><ele>117.0</ele><time>2026-04-18T13:18:32.13Z</time></trkpt><trkpt lat="45.3919967" lon="10.5889333"><ele>117.25</ele><time>2026-04-18T13:18:33.141Z</time></trkpt><trkpt lat="45.391975" lon="10.5887517"><ele>117.5</ele><time>2026-04-18T13:18:34.145Z</time></trkpt><trkpt lat="45.3919467" lon="10.588575"><ele>117.75</ele><time>2026-04-18T13:18:35.131Z</time></trkpt><trkpt lat="45.39191" lon="10.5884017"><ele>118.0</ele><time>2026-04-18T13:18:36.125Z</time></trkpt><trkpt lat="45.3918417" lon="10.5881933"><ele>118.0</ele><time>2026-04-18T13:18:37.136Z</time></trkpt><trkpt lat="45.3917767" lon="10.5880367"><ele>118.0</ele><time>2026-04-18T13:18:38.138Z</time></trkpt><trkpt lat="45.3917083" lon="10.58789"><ele>118.0</ele><time>2026-04-18T13:18:39.131Z</time></trkpt><trkpt lat="45.39163" lon="10.5877533"><ele>118.0</ele><time>2026-04-18T13:18:40.139Z</time></trkpt><trkpt lat="45.3915117" lon="10.5876483"><ele>117.25</ele><time>2026-04-18T13:18:41.151Z</time></trkpt><trkpt lat="45.39135" lon="10.5874567"><ele>116.5</ele><time>2026-04-18T13:18:43.132Z</time></trkpt><trkpt lat="45.3912917" lon="10.5873383"><ele>115.75</ele><time>2026-04-18T13:18:44.136Z</time></trkpt><trkpt lat="45.39127" lon="10.5871933"><ele>115.0</ele><time>2026-04-18T13:18:45.127Z</time></trkpt><trkpt lat="45.3912633" lon="10.5870383"><ele>115.0</ele><time>2026-04-18T13:18:46.141Z</time></trkpt><trkpt lat="45.3913" lon="10.58685"><ele>115.0</ele><time>2026-04-18T13:18:47.128Z</time></trkpt><trkpt lat="45.3913583" lon="10.5866583"><ele>115.0</ele><time>2026-04-18T13:18:48.136Z</time></trkpt><trkpt lat="45.3914383" lon="10.58647"><ele>115.0</ele><time>2026-04-18T13:18:49.137Z</time></trkpt><trkpt lat="45.3915217" lon="10.586295"><ele>115.0</ele><time>2026-04-18T13:18:50.164Z</time></trkpt><trkpt lat="45.3916217" lon="10.586115"><ele>115.0</ele><time>2026-04-18T13:18:51.129Z</time></trkpt><trkpt lat="45.391675" lon="10.5858867"><ele>115.0</ele><time>2026-04-18T13:18:52.135Z</time></trkpt><trkpt lat="45.3917" lon="10.5856417"><ele>115.0</ele><time>2026-04-18T13:18:53.139Z</time></trkpt><trkpt lat="45.3917217" lon="10.5854133"><ele>115.0</ele><time>2026-04-18T13:18:54.136Z</time></trkpt><trkpt lat="45.3917483" lon="10.585225"><ele>115.0</ele><time>2026-04-18T13:18:55.128Z</time></trkpt><trkpt lat="45.3917583" lon="10.5850533"><ele>115.0</ele><time>2026-04-18T13:18:56.138Z</time></trkpt><trkpt lat="45.391775" lon="10.5849417"><ele>115.0</ele><time>2026-04-18T13:18:57.136Z</time></trkpt><trkpt lat="45.3917833" lon="10.5848183"><ele>115.0</ele><time>2026-04-18T13:18:58.126Z</time></trkpt><trkpt lat="45.3917533" lon="10.5847117"><ele>115.0</ele><time>2026-04-18T13:18:59.136Z</time></trkpt><trkpt lat="45.3917067" lon="10.5846067"><ele>115.0</ele><time>2026-04-18T13:19:00.141Z</time></trkpt><trkpt lat="45.3916317" lon="10.5844933"><ele>115.0</ele><time>2026-04-18T13:19:01.128Z</time></trkpt><trkpt lat="45.39151" lon="10.58439"><ele>115.0</ele><time>2026-04-18T13:19:02.13Z</time></trkpt><trkpt lat="45.3913967" lon="10.584275"><ele>115.0</ele><time>2026-04-18T13:19:03.139Z</time></trkpt><trkpt lat="45.3912833" lon="10.5841617"><ele>115.0</ele><time>2026-04-18T13:19:04.134Z</time></trkpt><trkpt lat="45.39118" lon="10.5840317"><ele>115.0</ele><time>2026-04-18T13:19:05.137Z</time></trkpt><trkpt lat="45.391115" lon="10.5839717"><ele>115.8</ele><time>2026-04-18T13:19:06.138Z</time></trkpt><trkpt lat="45.3910217" lon="10.5839317"><ele>116.6</ele><time>2026-04-18T13:19:07.138Z</time></trkpt><trkpt lat="45.390915" lon="10.5839067"><ele>117.4</ele><time>2026-04-18T13:19:08.126Z</time></trkpt><trkpt lat="45.39081" lon="10.5838933"><ele>118.2</ele><time>2026-04-18T13:19:09.133Z</time></trkpt><trkpt lat="45.3906933" lon="10.583905"><ele>119.0</ele><time>2026-04-18T13:19:10.134Z</time></trkpt><trkpt lat="45.390585" lon="10.5839167"><ele>118.99999999999999</ele><time>2026-04-18T13:19:11.127Z</time></trkpt><trkpt lat="45.3904783" lon="10.5839267"><ele>119.0</ele><time>2026-04-18T13:19:12.137Z</time></trkpt><trkpt lat="45.39039" lon="10.5839467"><ele>119.0</ele><time>2026-04-18T13:19:13.144Z</time></trkpt><trkpt lat="45.39032" lon="10.58395"><ele>119.0</ele><time>2026-04-18T13:19:14.132Z</time></trkpt><trkpt lat="45.3902467" lon="10.5839517"><ele>118.99999999999999</ele><time>2026-04-18T13:19:15.126Z</time></trkpt><trkpt lat="45.39018" lon="10.58395"><ele>119.0</ele><time>2026-04-18T13:19:16.133Z</time></trkpt><trkpt lat="45.3901133" lon="10.5839433"><ele>119.0</ele><time>2026-04-18T13:19:17.13Z</time></trkpt><trkpt lat="45.39005" lon="10.583925"><ele>119.0</ele><time>2026-04-18T13:19:18.145Z</time></trkpt><trkpt lat="45.3899567" lon="10.5838417"><ele>119.0</ele><time>2026-04-18T13:19:20.133Z</time></trkpt><trkpt lat="45.3898983" lon="10.5837067"><ele>119.0</ele><time>2026-04-18T13:19:22.132Z</time></trkpt><trkpt lat="45.3898767" lon="10.583545"><ele>119.0</ele><time>2026-04-18T13:19:24.137Z</time></trkpt><trkpt lat="45.389885" lon="10.583445"><ele>119.25</ele><time>2026-04-18T13:19:26.141Z</time></trkpt><trkpt lat="45.3899433" lon="10.5833017"><ele>119.5</ele><time>2026-04-18T13:19:28.138Z</time></trkpt><trkpt lat="45.3899917" lon="10.5831917"><ele>119.75</ele><time>2026-04-18T13:19:29.134Z</time></trkpt><trkpt lat="45.390065" lon="10.583045"><ele>120.0</ele><time>2026-04-18T13:19:30.14Z</time></trkpt><trkpt lat="45.3901567" lon="10.58286"><ele>119.33333333333334</ele><time>2026-04-18T13:19:31.132Z</time></trkpt><trkpt lat="45.3902467" lon="10.582685"><ele>118.66666666666667</ele><time>2026-04-18T13:19:32.137Z</time></trkpt><trkpt lat="45.3903417" lon="10.58245"><ele>118.0</ele><time>2026-04-18T13:19:33.126Z</time></trkpt><trkpt lat="45.39043" lon="10.5822567"><ele>118.0</ele><time>2026-04-18T13:19:34.135Z</time></trkpt><trkpt lat="45.3905067" lon="10.58206"><ele>118.0</ele><time>2026-04-18T13:19:35.139Z</time></trkpt><trkpt lat="45.39057" lon="10.5818733"><ele>118.0</ele><time>2026-04-18T13:19:36.151Z</time></trkpt><trkpt lat="45.3906283" lon="10.5817317"><ele>118.0</ele><time>2026-04-18T13:19:37.142Z</time></trkpt><trkpt lat="45.3906683" lon="10.5816067"><ele>118.00000000000001</ele><time>2026-04-18T13:19:38.144Z</time></trkpt><trkpt lat="45.390715" lon="10.5815233"><ele>118.0</ele><time>2026-04-18T13:19:39.148Z</time></trkpt><trkpt lat="45.390755" lon="10.5814467"><ele>118.0</ele><time>2026-04-18T13:19:40.136Z</time></trkpt><trkpt lat="45.390805" lon="10.5813767"><ele>118.0</ele><time>2026-04-18T13:19:41.133Z</time></trkpt><trkpt lat="45.3908567" lon="10.5812867"><ele>118.00000000000001</ele><time>2026-04-18T13:19:42.157Z</time></trkpt><trkpt lat="45.3909133" lon="10.5811733"><ele>118.0</ele><time>2026-04-18T13:19:43.126Z</time></trkpt><trkpt lat="45.3909433" lon="10.5810217"><ele>118.80000000000001</ele><time>2026-04-18T13:19:44.137Z</time></trkpt><trkpt lat="45.3909983" lon="10.58089"><ele>119.60000000000001</ele><time>2026-04-18T13:19:45.129Z</time></trkpt><trkpt lat="45.3910717" lon="10.5807917"><ele>120.39999999999999</ele><time>2026-04-18T13:19:46.134Z</time></trkpt><trkpt lat="45.3911417" lon="10.5806783"><ele>121.19999999999999</ele><time>2026-04-18T13:19:47.133Z</time></trkpt><trkpt lat="45.3911767" lon="10.5805733"><ele>122.0</ele><time>2026-04-18T13:19:48.136Z</time></trkpt><trkpt lat="45.3912017" lon="10.5804317"><ele>122.0</ele><time>2026-04-18T13:19:50.147Z</time></trkpt><trkpt lat="45.39116" lon="10.5803183"><ele>121.99999999999999</ele><time>2026-04-18T13:19:52.137Z</time></trkpt><trkpt lat="45.3910483" lon="10.5802333"><ele>121.99999999999999</ele><time>2026-04-18T13:19:54.137Z</time></trkpt><trkpt lat="45.3909967" lon="10.5801233"><ele>122.0</ele><time>2026-04-18T13:19:56.138Z</time></trkpt><trkpt lat="45.3910317" lon="10.5799567"><ele>122.0</ele><time>2026-04-18T13:19:58.143Z</time></trkpt><trkpt lat="45.3910783" lon="10.5798417"><ele>122.0</ele><time>2026-04-18T13:19:59.142Z</time></trkpt><trkpt lat="45.3911217" lon="10.5797183"><ele>122.0</ele><time>2026-04-18T13:20:00.131Z</time></trkpt><trkpt lat="45.3911717" lon="10.5795867"><ele>122.0</ele><time>2026-04-18T13:20:01.138Z</time></trkpt><trkpt lat="45.3912383" lon="10.5794467"><ele>122.0</ele><time>2026-04-18T13:20:02.131Z</time></trkpt><trkpt lat="45.3913583" lon="10.5793333"><ele>120.75</ele><time>2026-04-18T13:20:03.136Z</time></trkpt><trkpt lat="45.3914583" lon="10.57922"><ele>119.5</ele><time>2026-04-18T13:20:04.137Z</time></trkpt><trkpt lat="45.3915833" lon="10.5790917"><ele>118.25</ele><time>2026-04-18T13:20:05.133Z</time></trkpt><trkpt lat="45.3917117" lon="10.5789683"><ele>117.0</ele><time>2026-04-18T13:20:06.131Z</time></trkpt><trkpt lat="45.3918233" lon="10.578785"><ele>117.0</ele><time>2026-04-18T13:20:07.135Z</time></trkpt><trkpt lat="45.39195" lon="10.578595"><ele>117.0</ele><time>2026-04-18T13:20:08.137Z</time></trkpt><trkpt lat="45.3920783" lon="10.5784017"><ele>117.0</ele><time>2026-04-18T13:20:09.14Z</time></trkpt><trkpt lat="45.392225" lon="10.5781967"><ele>117.33333333333334</ele><time>2026-04-18T13:20:10.157Z</time></trkpt><trkpt lat="45.39236" lon="10.5779933"><ele>117.66666666666667</ele><time>2026-04-18T13:20:11.132Z</time></trkpt><trkpt lat="45.3925" lon="10.5778083"><ele>118.0</ele><time>2026-04-18T13:20:12.132Z</time></trkpt><trkpt lat="45.3926167" lon="10.5776"><ele>118.0</ele><time>2026-04-18T13:20:13.14Z</time></trkpt><trkpt lat="45.3927367" lon="10.5773967"><ele>118.0</ele><time>2026-04-18T13:20:14.137Z</time></trkpt><trkpt lat="45.392855" lon="10.5771867"><ele>118.0</ele><time>2026-04-18T13:20:15.129Z</time></trkpt><trkpt lat="45.3929867" lon="10.5769333"><ele>118.0</ele><time>2026-04-18T13:20:16.14Z</time></trkpt><trkpt lat="45.3931033" lon="10.57667"><ele>118.0</ele><time>2026-04-18T13:20:17.145Z</time></trkpt><trkpt lat="45.3932167" lon="10.5763917"><ele>118.0</ele><time>2026-04-18T13:20:18.13Z</time></trkpt><trkpt lat="45.39333" lon="10.5761783"><ele>118.0</ele><time>2026-04-18T13:20:19.131Z</time></trkpt><trkpt lat="45.3934267" lon="10.5759817"><ele>118.0</ele><time>2026-04-18T13:20:20.138Z</time></trkpt><trkpt lat="45.3935217" lon="10.5758"><ele>118.0</ele><time>2026-04-18T13:20:21.132Z</time></trkpt><trkpt lat="45.3936233" lon="10.5756167"><ele>118.0</ele><time>2026-04-18T13:20:22.141Z</time></trkpt><trkpt lat="45.393745" lon="10.5754567"><ele>118.0</ele><time>2026-04-18T13:20:23.142Z</time></trkpt><trkpt lat="45.393885" lon="10.57526"><ele>118.0</ele><time>2026-04-18T13:20:24.153Z</time></trkpt><trkpt lat="45.3940333" lon="10.5750567"><ele>118.5</ele><time>2026-04-18T13:20:25.146Z</time></trkpt><trkpt lat="45.3942117" lon="10.5748333"><ele>119.0</ele><time>2026-04-18T13:20:26.134Z</time></trkpt><trkpt lat="45.3943717" lon="10.5746117"><ele>119.0</ele><time>2026-04-18T13:20:27.149Z</time></trkpt><trkpt lat="45.3945417" lon="10.5744067"><ele>119.0</ele><time>2026-04-18T13:20:28.143Z</time></trkpt><trkpt lat="45.39472" lon="10.5742017"><ele>119.0</ele><time>2026-04-18T13:20:29.148Z</time></trkpt><trkpt lat="45.394905" lon="10.57403"><ele>119.0</ele><time>2026-04-18T13:20:30.144Z</time></trkpt><trkpt lat="45.3950867" lon="10.5738517"><ele>119.0</ele><time>2026-04-18T13:20:31.13Z</time></trkpt><trkpt lat="45.3952367" lon="10.57369"><ele>119.0</ele><time>2026-04-18T13:20:32.14Z</time></trkpt><trkpt lat="45.3953833" lon="10.57354"><ele>119.0</ele><time>2026-04-18T13:20:33.144Z</time></trkpt><trkpt lat="45.3955183" lon="10.5734183"><ele>119.0</ele><time>2026-04-18T13:20:34.144Z</time></trkpt><trkpt lat="45.3956483" lon="10.573305"><ele>119.0</ele><time>2026-04-18T13:20:35.155Z</time></trkpt><trkpt lat="45.395805" lon="10.5732167"><ele>119.0</ele><time>2026-04-18T13:20:36.134Z</time></trkpt><trkpt lat="45.3959717" lon="10.5730933"><ele>119.0</ele><time>2026-04-18T13:20:37.133Z</time></trkpt><trkpt lat="45.3961117" lon="10.5730217"><ele>119.0</ele><time>2026-04-18T13:20:38.131Z</time></trkpt><trkpt lat="45.3962233" lon="10.5729633"><ele>119.0</ele><time>2026-04-18T13:20:39.145Z</time></trkpt><trkpt lat="45.396325" lon="10.572885"><ele>119.0</ele><time>2026-04-18T13:20:40.141Z</time></trkpt><trkpt lat="45.39642" lon="10.5728183"><ele>119.0</ele><time>2026-04-18T13:20:41.141Z</time></trkpt><trkpt lat="45.3964883" lon="10.572765"><ele>119.0</ele><time>2026-04-18T13:20:42.16Z</time></trkpt><trkpt lat="45.3965633" lon="10.57269"><ele>118.33333333333333</ele><time>2026-04-18T13:20:43.134Z</time></trkpt><trkpt lat="45.3966467" lon="10.5725933"><ele>117.66666666666666</ele><time>2026-04-18T13:20:44.137Z</time></trkpt><trkpt lat="45.396745" lon="10.5724483"><ele>117.0</ele><time>2026-04-18T13:20:45.133Z</time></trkpt><trkpt lat="45.3968883" lon="10.572245"><ele>117.0</ele><time>2026-04-18T13:20:46.14Z</time></trkpt><trkpt lat="45.3970467" lon="10.5720633"><ele>117.0</ele><time>2026-04-18T13:20:47.133Z</time></trkpt><trkpt lat="45.3972317" lon="10.5718917"><ele>117.0</ele><time>2026-04-18T13:20:48.13Z</time></trkpt><trkpt lat="45.3974117" lon="10.5716367"><ele>117.0</ele><time>2026-04-18T13:20:49.136Z</time></trkpt><trkpt lat="45.3976183" lon="10.5713833"><ele>117.0</ele><time>2026-04-18T13:20:50.139Z</time></trkpt><trkpt lat="45.3978317" lon="10.571145"><ele>118.0</ele><time>2026-04-18T13:20:51.146Z</time></trkpt><trkpt lat="45.39805" lon="10.57095"><ele>119.0</ele><time>2026-04-18T13:20:52.139Z</time></trkpt><trkpt lat="45.3982467" lon="10.57072"><ele>119.0</ele><time>2026-04-18T13:20:53.134Z</time></trkpt><trkpt lat="45.3984133" lon="10.5705083"><ele>119.0</ele><time>2026-04-18T13:20:54.14Z</time></trkpt><trkpt lat="45.3985633" lon="10.5703017"><ele>119.0</ele><time>2026-04-18T13:20:55.14Z</time></trkpt><trkpt lat="45.3987017" lon="10.570125"><ele>118.33333333333333</ele><time>2026-04-18T13:20:56.143Z</time></trkpt><trkpt lat="45.3988533" lon="10.5699733"><ele>117.66666666666666</ele><time>2026-04-18T13:20:57.133Z</time></trkpt><trkpt lat="45.3989783" lon="10.5698117"><ele>117.0</ele><time>2026-04-18T13:20:58.135Z</time></trkpt><trkpt lat="45.3991033" lon="10.5696483"><ele>116.25</ele><time>2026-04-18T13:20:59.129Z</time></trkpt><trkpt lat="45.3991917" lon="10.569475"><ele>115.5</ele><time>2026-04-18T13:21:00.141Z</time></trkpt><trkpt lat="45.3993" lon="10.5693367"><ele>114.75</ele><time>2026-04-18T13:21:01.135Z</time></trkpt><trkpt lat="45.399405" lon="10.5691833"><ele>114.0</ele><time>2026-04-18T13:21:02.145Z</time></trkpt><trkpt lat="45.3995" lon="10.569045"><ele>114.0</ele><time>2026-04-18T13:21:03.158Z</time></trkpt><trkpt lat="45.3995967" lon="10.5689133"><ele>114.0</ele><time>2026-04-18T13:21:04.147Z</time></trkpt><trkpt lat="45.3996883" lon="10.5688"><ele>114.0</ele><time>2026-04-18T13:21:05.149Z</time></trkpt><trkpt lat="45.39979" lon="10.568625"><ele>114.0</ele><time>2026-04-18T13:21:06.146Z</time></trkpt><trkpt lat="45.3998867" lon="10.5683933"><ele>113.0</ele><time>2026-04-18T13:21:07.142Z</time></trkpt><trkpt lat="45.3999967" lon="10.568145"><ele>112.0</ele><time>2026-04-18T13:21:08.13Z</time></trkpt><trkpt lat="45.400125" lon="10.567895"><ele>111.0</ele><time>2026-04-18T13:21:09.136Z</time></trkpt><trkpt lat="45.4002667" lon="10.5676167"><ele>110.0</ele><time>2026-04-18T13:21:10.137Z</time></trkpt><trkpt lat="45.4004133" lon="10.5673783"><ele>109.0</ele><time>2026-04-18T13:21:11.138Z</time></trkpt><trkpt lat="45.4005967" lon="10.5671483"><ele>109.66666666666667</ele><time>2026-04-18T13:21:12.132Z</time></trkpt><trkpt lat="45.4007467" lon="10.5669417"><ele>110.33333333333334</ele><time>2026-04-18T13:21:13.139Z</time></trkpt><trkpt lat="45.4008983" lon="10.5667417"><ele>111.0</ele><time>2026-04-18T13:21:14.139Z</time></trkpt><trkpt lat="45.401035" lon="10.5664833"><ele>111.0</ele><time>2026-04-18T13:21:15.134Z</time></trkpt><trkpt lat="45.401155" lon="10.5662183"><ele>111.0</ele><time>2026-04-18T13:21:16.144Z</time></trkpt><trkpt lat="45.4012667" lon="10.5659467"><ele>111.0</ele><time>2026-04-18T13:21:17.136Z</time></trkpt><trkpt lat="45.4013817" lon="10.5656833"><ele>112.0</ele><time>2026-04-18T13:21:18.123Z</time></trkpt><trkpt lat="45.4015133" lon="10.56541"><ele>113.0</ele><time>2026-04-18T13:21:19.144Z</time></trkpt><trkpt lat="45.4016617" lon="10.56511"><ele>111.0</ele><time>2026-04-18T13:21:20.138Z</time></trkpt><trkpt lat="45.40183" lon="10.5648017"><ele>109.0</ele><time>2026-04-18T13:21:21.141Z</time></trkpt><trkpt lat="45.402005" lon="10.5644867"><ele>107.5</ele><time>2026-04-18T13:21:22.126Z</time></trkpt><trkpt lat="45.4021733" lon="10.564205"><ele>106.0</ele><time>2026-04-18T13:21:23.125Z</time></trkpt><trkpt lat="45.402315" lon="10.56385"><ele>108.0</ele><time>2026-04-18T13:21:24.158Z</time></trkpt><trkpt lat="45.4024567" lon="10.5634983"><ele>110.0</ele><time>2026-04-18T13:21:25.129Z</time></trkpt><trkpt lat="45.4025833" lon="10.5631567"><ele>110.0</ele><time>2026-04-18T13:21:26.149Z</time></trkpt><trkpt lat="45.4027283" lon="10.5628917"><ele>110.0</ele><time>2026-04-18T13:21:27.138Z</time></trkpt><trkpt lat="45.4028633" lon="10.5626083"><ele>115.0</ele><time>2026-04-18T13:21:28.14Z</time></trkpt><trkpt lat="45.40303" lon="10.5623367"><ele>120.0</ele><time>2026-04-18T13:21:29.138Z</time></trkpt><trkpt lat="45.40319" lon="10.5620683"><ele>117.0</ele><time>2026-04-18T13:21:30.138Z</time></trkpt><trkpt lat="45.4033183" lon="10.5618083"><ele>114.0</ele><time>2026-04-18T13:21:31.146Z</time></trkpt><trkpt lat="45.4034283" lon="10.5615483"><ele>111.0</ele><time>2026-04-18T13:21:32.143Z</time></trkpt><trkpt lat="45.4034783" lon="10.56128"><ele>109.66666666666666</ele><time>2026-04-18T13:21:33.147Z</time></trkpt><trkpt lat="45.4035433" lon="10.561035"><ele>108.33333333333333</ele><time>2026-04-18T13:21:34.142Z</time></trkpt><trkpt lat="45.40361" lon="10.56081"><ele>107.0</ele><time>2026-04-18T13:21:35.125Z</time></trkpt><trkpt lat="45.403675" lon="10.5605817"><ele>107.0</ele><time>2026-04-18T13:21:36.135Z</time></trkpt><trkpt lat="45.4037533" lon="10.5604067"><ele>107.0</ele><time>2026-04-18T13:21:37.137Z</time></trkpt><trkpt lat="45.4038683" lon="10.5602533"><ele>107.0</ele><time>2026-04-18T13:21:38.13Z</time></trkpt><trkpt lat="45.4039883" lon="10.5600683"><ele>107.25</ele><time>2026-04-18T13:21:39.141Z</time></trkpt><trkpt lat="45.4040867" lon="10.5599183"><ele>107.5</ele><time>2026-04-18T13:21:40.141Z</time></trkpt><trkpt lat="45.4041867" lon="10.55979"><ele>107.75</ele><time>2026-04-18T13:21:41.135Z</time></trkpt><trkpt lat="45.4042833" lon="10.5596717"><ele>108.0</ele><time>2026-04-18T13:21:42.132Z</time></trkpt><trkpt lat="45.4043817" lon="10.559495"><ele>108.0</ele><time>2026-04-18T13:21:43.154Z</time></trkpt><trkpt lat="45.4045033" lon="10.55927"><ele>108.0</ele><time>2026-04-18T13:21:44.139Z</time></trkpt><trkpt lat="45.40463" lon="10.5589983"><ele>108.0</ele><time>2026-04-18T13:21:45.136Z</time></trkpt><trkpt lat="45.404765" lon="10.558755"><ele>106.0</ele><time>2026-04-18T13:21:46.132Z</time></trkpt><trkpt lat="45.4049067" lon="10.5584933"><ele>104.0</ele><time>2026-04-18T13:21:47.13Z</time></trkpt><trkpt lat="45.405015" lon="10.5582"><ele>104.0</ele><time>2026-04-18T13:21:48.138Z</time></trkpt><trkpt lat="45.4051283" lon="10.5579783"><ele>104.0</ele><time>2026-04-18T13:21:49.136Z</time></trkpt><trkpt lat="45.4052333" lon="10.5577283"><ele>104.0</ele><time>2026-04-18T13:21:50.126Z</time></trkpt><trkpt lat="45.4052967" lon="10.5575117"><ele>103.75</ele><time>2026-04-18T13:21:51.132Z</time></trkpt><trkpt lat="45.40535" lon="10.5573533"><ele>103.5</ele><time>2026-04-18T13:21:52.141Z</time></trkpt><trkpt lat="45.4053667" lon="10.557205"><ele>103.25</ele><time>2026-04-18T13:21:53.129Z</time></trkpt><trkpt lat="45.4053367" lon="10.55698"><ele>103.0</ele><time>2026-04-18T13:21:54.13Z</time></trkpt><trkpt lat="45.40528" lon="10.5567483"><ele>104.0</ele><time>2026-04-18T13:21:55.139Z</time></trkpt><trkpt lat="45.4052333" lon="10.5564883"><ele>105.0</ele><time>2026-04-18T13:21:56.13Z</time></trkpt><trkpt lat="45.4051117" lon="10.555925"><ele>105.33333333333334</ele><time>2026-04-18T13:21:58.126Z</time></trkpt><trkpt lat="45.4051" lon="10.5556817"><ele>105.66666666666667</ele><time>2026-04-18T13:21:59.132Z</time></trkpt><trkpt lat="45.40512" lon="10.5553633"><ele>106.0</ele><time>2026-04-18T13:22:00.135Z</time></trkpt><trkpt lat="45.4051767" lon="10.555065"><ele>106.0</ele><time>2026-04-18T13:22:01.132Z</time></trkpt><trkpt lat="45.4052433" lon="10.554735"><ele>106.0</ele><time>2026-04-18T13:22:02.139Z</time></trkpt><trkpt lat="45.405315" lon="10.55437"><ele>107.5</ele><time>2026-04-18T13:22:03.138Z</time></trkpt><trkpt lat="45.4053967" lon="10.5540417"><ele>109.0</ele><time>2026-04-18T13:22:04.14Z</time></trkpt><trkpt lat="45.4054883" lon="10.55366"><ele>107.5</ele><time>2026-04-18T13:22:05.134Z</time></trkpt><trkpt lat="45.40559" lon="10.5532867"><ele>106.0</ele><time>2026-04-18T13:22:06.14Z</time></trkpt><trkpt lat="45.4057017" lon="10.553"><ele>108.0</ele><time>2026-04-18T13:22:07.137Z</time></trkpt><trkpt lat="45.405795" lon="10.5527033"><ele>110.0</ele><time>2026-04-18T13:22:08.137Z</time></trkpt><trkpt lat="45.405865" lon="10.5523733"><ele>111.0</ele><time>2026-04-18T13:22:09.151Z</time></trkpt><trkpt lat="45.40594" lon="10.5520317"><ele>112.0</ele><time>2026-04-18T13:22:10.135Z</time></trkpt><trkpt lat="45.40599" lon="10.5516667"><ele>112.0</ele><time>2026-04-18T13:22:11.131Z</time></trkpt><trkpt lat="45.4060133" lon="10.5513"><ele>112.0</ele><time>2026-04-18T13:22:12.128Z</time></trkpt><trkpt lat="45.40608" lon="10.5510233"><ele>112.0</ele><time>2026-04-18T13:22:13.128Z</time></trkpt><trkpt lat="45.4061683" lon="10.5507567"><ele>112.0</ele><time>2026-04-18T13:22:14.125Z</time></trkpt><trkpt lat="45.4062717" lon="10.550425"><ele>110.0</ele><time>2026-04-18T13:22:15.141Z</time></trkpt><trkpt lat="45.4064217" lon="10.5501583"><ele>108.0</ele><time>2026-04-18T13:22:16.128Z</time></trkpt><trkpt lat="45.406575" lon="10.5498317"><ele>109.0</ele><time>2026-04-18T13:22:17.134Z</time></trkpt><trkpt lat="45.4067533" lon="10.5495133"><ele>110.0</ele><time>2026-04-18T13:22:18.138Z</time></trkpt><trkpt lat="45.406925" lon="10.5491883"><ele>110.0</ele><time>2026-04-18T13:22:19.136Z</time></trkpt><trkpt lat="45.407115" lon="10.5488517"><ele>110.0</ele><time>2026-04-18T13:22:20.14Z</time></trkpt><trkpt lat="45.4072983" lon="10.548495"><ele>110.5</ele><time>2026-04-18T13:22:21.136Z</time></trkpt><trkpt lat="45.4074867" lon="10.5481483"><ele>111.0</ele><time>2026-04-18T13:22:22.134Z</time></trkpt><trkpt lat="45.4076733" lon="10.5477917"><ele>111.0</ele><time>2026-04-18T13:22:23.141Z</time></trkpt><trkpt lat="45.4078717" lon="10.5474383"><ele>111.0</ele><time>2026-04-18T13:22:24.145Z</time></trkpt><trkpt lat="45.40806" lon="10.5471167"><ele>110.5</ele><time>2026-04-18T13:22:25.14Z</time></trkpt><trkpt lat="45.4082317" lon="10.5468283"><ele>110.0</ele><time>2026-04-18T13:22:26.137Z</time></trkpt><trkpt lat="45.408385" lon="10.54656"><ele>110.0</ele><time>2026-04-18T13:22:27.139Z</time></trkpt><trkpt lat="45.408545" lon="10.54634"><ele>110.0</ele><time>2026-04-18T13:22:28.128Z</time></trkpt><trkpt lat="45.40871" lon="10.5461483"><ele>110.0</ele><time>2026-04-18T13:22:29.134Z</time></trkpt><trkpt lat="45.4088533" lon="10.546"><ele>111.33333333333333</ele><time>2026-04-18T13:22:30.139Z</time></trkpt><trkpt lat="45.4090167" lon="10.5459133"><ele>112.66666666666666</ele><time>2026-04-18T13:22:31.129Z</time></trkpt><trkpt lat="45.4092017" lon="10.545865"><ele>114.0</ele><time>2026-04-18T13:22:32.136Z</time></trkpt><trkpt lat="45.4094033" lon="10.5458017"><ele>114.0</ele><time>2026-04-18T13:22:33.127Z</time></trkpt><trkpt lat="45.4095933" lon="10.5456817"><ele>114.0</ele><time>2026-04-18T13:22:34.129Z</time></trkpt><trkpt lat="45.4097833" lon="10.5454683"><ele>117.5</ele><time>2026-04-18T13:22:35.134Z</time></trkpt><trkpt lat="45.4099867" lon="10.54527"><ele>121.0</ele><time>2026-04-18T13:22:36.14Z</time></trkpt><trkpt lat="45.410175" lon="10.54505"><ele>121.0</ele><time>2026-04-18T13:22:37.139Z</time></trkpt><trkpt lat="45.4103383" lon="10.5448367"><ele>121.0</ele><time>2026-04-18T13:22:38.145Z</time></trkpt><trkpt lat="45.41049" lon="10.5446367"><ele>121.0</ele><time>2026-04-18T13:22:39.127Z</time></trkpt><trkpt lat="45.4106233" lon="10.5444667"><ele>121.25</ele><time>2026-04-18T13:22:40.132Z</time></trkpt><trkpt lat="45.4107333" lon="10.5443267"><ele>121.5</ele><time>2026-04-18T13:22:41.141Z</time></trkpt><trkpt lat="45.4108367" lon="10.544195"><ele>121.75</ele><time>2026-04-18T13:22:42.133Z</time></trkpt><trkpt lat="45.410945" lon="10.5440933"><ele>122.0</ele><time>2026-04-18T13:22:43.133Z</time></trkpt><trkpt lat="45.4111167" lon="10.5440467"><ele>122.0</ele><time>2026-04-18T13:22:44.143Z</time></trkpt><trkpt lat="45.4111217" lon="10.5437867"><ele>122.0</ele><time>2026-04-18T13:22:45.143Z</time></trkpt><trkpt lat="45.4111833" lon="10.543535"><ele>122.0</ele><time>2026-04-18T13:22:46.127Z</time></trkpt><trkpt lat="45.4112483" lon="10.5432867"><ele>124.0</ele><time>2026-04-18T13:22:47.136Z</time></trkpt><trkpt lat="45.411345" lon="10.54299"><ele>126.0</ele><time>2026-04-18T13:22:48.139Z</time></trkpt><trkpt lat="45.4114583" lon="10.5427"><ele>126.0</ele><time>2026-04-18T13:22:49.14Z</time></trkpt><trkpt lat="45.4115917" lon="10.5424217"><ele>126.0</ele><time>2026-04-18T13:22:50.133Z</time></trkpt><trkpt lat="45.4117167" lon="10.5421517"><ele>126.33333333333334</ele><time>2026-04-18T13:22:51.13Z</time></trkpt><trkpt lat="45.4118383" lon="10.5419233"><ele>126.66666666666667</ele><time>2026-04-18T13:22:52.129Z</time></trkpt><trkpt lat="45.41194" lon="10.5417183"><ele>127.0</ele><time>2026-04-18T13:22:53.135Z</time></trkpt><trkpt lat="45.412025" lon="10.541535"><ele>127.0</ele><time>2026-04-18T13:22:54.131Z</time></trkpt><trkpt lat="45.4121083" lon="10.541395"><ele>126.99999999999999</ele><time>2026-04-18T13:22:55.133Z</time></trkpt><trkpt lat="45.4121683" lon="10.5412967"><ele>126.99999999999999</ele><time>2026-04-18T13:22:56.133Z</time></trkpt><trkpt lat="45.4122317" lon="10.5412467"><ele>127.0</ele><time>2026-04-18T13:22:57.146Z</time></trkpt><trkpt lat="45.412225" lon="10.5410967"><ele>127.0</ele><time>2026-04-18T13:22:59.127Z</time></trkpt><trkpt lat="45.4121167" lon="10.541005"><ele>127.66666666666667</ele><time>2026-04-18T13:23:00.137Z</time></trkpt><trkpt lat="45.4120283" lon="10.5408867"><ele>128.33333333333334</ele><time>2026-04-18T13:23:01.131Z</time></trkpt><trkpt lat="45.4118867" lon="10.54076"><ele>129.0</ele><time>2026-04-18T13:23:02.139Z</time></trkpt><trkpt lat="45.4117733" lon="10.54058"><ele>127.66666666666666</ele><time>2026-04-18T13:23:03.133Z</time></trkpt><trkpt lat="45.4116567" lon="10.5403533"><ele>126.33333333333333</ele><time>2026-04-18T13:23:04.149Z</time></trkpt><trkpt lat="45.4115583" lon="10.54012"><ele>125.0</ele><time>2026-04-18T13:23:05.128Z</time></trkpt><trkpt lat="45.4114883" lon="10.53995"><ele>125.0</ele><time>2026-04-18T13:23:06.135Z</time></trkpt><trkpt lat="45.4114383" lon="10.5398133"><ele>125.0</ele><time>2026-04-18T13:23:07.129Z</time></trkpt><trkpt lat="45.411375" lon="10.53975"><ele>125.0</ele><time>2026-04-18T13:23:08.133Z</time></trkpt><trkpt lat="45.4112817" lon="10.539715"><ele>125.0</ele><time>2026-04-18T13:23:09.132Z</time></trkpt><trkpt lat="45.411165" lon="10.539655"><ele>125.0</ele><time>2026-04-18T13:23:10.14Z</time></trkpt><trkpt lat="45.4110267" lon="10.5396083"><ele>125.66666666666666</ele><time>2026-04-18T13:23:11.126Z</time></trkpt><trkpt lat="45.4108667" lon="10.5395383"><ele>126.33333333333334</ele><time>2026-04-18T13:23:12.153Z</time></trkpt><trkpt lat="45.4106867" lon="10.53948"><ele>127.0</ele><time>2026-04-18T13:23:13.14Z</time></trkpt><trkpt lat="45.4105133" lon="10.539455"><ele>129.0</ele><time>2026-04-18T13:23:14.135Z</time></trkpt><trkpt lat="45.4103567" lon="10.53939"><ele>131.0</ele><time>2026-04-18T13:23:15.14Z</time></trkpt><trkpt lat="45.4101983" lon="10.5393467"><ele>133.0</ele><time>2026-04-18T13:23:16.137Z</time></trkpt><trkpt lat="45.41004" lon="10.5393117"><ele>133.0</ele><time>2026-04-18T13:23:17.139Z</time></trkpt><trkpt lat="45.4098833" lon="10.539275"><ele>133.0</ele><time>2026-04-18T13:23:18.131Z</time></trkpt><trkpt lat="45.4097467" lon="10.5392517"><ele>133.0</ele><time>2026-04-18T13:23:19.131Z</time></trkpt><trkpt lat="45.40962" lon="10.5392083"><ele>133.0</ele><time>2026-04-18T13:23:20.127Z</time></trkpt><trkpt lat="45.4095033" lon="10.53919"><ele>132.33333333333334</ele><time>2026-04-18T13:23:21.136Z</time></trkpt><trkpt lat="45.4094133" lon="10.5391717"><ele>131.66666666666669</ele><time>2026-04-18T13:23:22.132Z</time></trkpt><trkpt lat="45.40935" lon="10.5391717"><ele>131.0</ele><time>2026-04-18T13:23:23.132Z</time></trkpt><trkpt lat="45.409245" lon="10.5391367"><ele>130.33333333333334</ele><time>2026-04-18T13:23:25.131Z</time></trkpt><trkpt lat="45.4091533" lon="10.539105"><ele>129.66666666666666</ele><time>2026-04-18T13:23:27.122Z</time></trkpt><trkpt lat="45.4090733" lon="10.539075"><ele>129.0</ele><time>2026-04-18T13:23:29.134Z</time></trkpt><trkpt lat="45.408995" lon="10.5390483"><ele>129.0</ele><time>2026-04-18T13:23:31.131Z</time></trkpt><trkpt lat="45.4089067" lon="10.5390117"><ele>129.0</ele><time>2026-04-18T13:23:33.129Z</time></trkpt><trkpt lat="45.4088317" lon="10.5390133"><ele>129.0</ele><time>2026-04-18T13:23:35.132Z</time></trkpt><trkpt lat="45.4087983" lon="10.539125"><ele>129.0</ele><time>2026-04-18T13:24:00.145Z</time></trkpt><trkpt lat="45.408775" lon="10.5392417"><ele>129.0</ele><time>2026-04-18T13:24:03.131Z</time></trkpt><trkpt lat="45.4087467" lon="10.5393283"><ele>129.0</ele><time>2026-04-18T13:24:05.121Z</time></trkpt><trkpt lat="45.4087317" lon="10.5394217"><ele>125.0</ele><time>2026-04-18T13:24:08.148Z</time></trkpt><trkpt lat="45.408385" lon="10.5392983"><ele>121.0</ele><time>2026-04-18T13:28:53.134Z</time></trkpt><trkpt lat="45.408675" lon="10.5394883"><ele>125.0</ele><time>2026-04-18T13:28:54.13Z</time></trkpt><trkpt lat="45.40893" lon="10.53976"><ele>129.0</ele><time>2026-04-18T13:28:55.128Z</time></trkpt><trkpt lat="45.4090083" lon="10.539875"><ele>133.0</ele><time>2026-04-18T13:28:56.134Z</time></trkpt><trkpt lat="45.4090783" lon="10.5399033"><ele>133.0</ele><time>2026-04-18T13:28:57.136Z</time></trkpt><trkpt lat="45.4090233" lon="10.5398383"><ele>133.0</ele><time>2026-04-18T13:28:59.134Z</time></trkpt><trkpt lat="45.408755" lon="10.53965"><ele>133.0</ele><time>2026-04-18T13:29:00.134Z</time></trkpt><trkpt lat="45.4087583" lon="10.5395483"><ele>133.0</ele><time>2026-04-18T13:29:01.129Z</time></trkpt><trkpt lat="45.4087317" lon="10.5394567"><ele>133.0</ele><time>2026-04-18T13:29:02.132Z</time></trkpt><trkpt lat="45.4087101" lon="10.5395486"><ele>133.0</ele><time>2026-04-18T13:29:14.142Z</time></trkpt><trkpt lat="45.4087745" lon="10.5395605"><ele>133.0</ele><time>2026-04-18T13:29:30.133Z</time></trkpt><trkpt lat="45.4088705" lon="10.5396156"><ele>133.0</ele><time>2026-04-18T13:29:44.141Z</time></trkpt><trkpt lat="45.4089567" lon="10.5397125"><ele>133.0</ele><time>2026-04-18T13:29:58.129Z</time></trkpt><trkpt lat="45.4089893" lon="10.5397975"><ele>133.0</ele><time>2026-04-18T13:30:00.14Z</time></trkpt><trkpt lat="45.4090475" lon="10.53975"><ele>133.0</ele><time>2026-04-18T13:49:00.132Z</time></trkpt><trkpt lat="45.4089919" lon="10.5397066"><ele>133.0</ele><time>2026-04-18T13:49:49.13Z</time></trkpt><trkpt lat="45.4089189" lon="10.5397331"><ele>133.0</ele><time>2026-04-18T13:51:30.136Z</time></trkpt><trkpt lat="45.4090679" lon="10.5397555"><ele>133.0</ele><time>2026-04-18T13:54:13.136Z</time></trkpt><trkpt lat="45.4090516" lon="10.5398774"><ele>133.0</ele><time>2026-04-18T13:55:01.126Z</time></trkpt><trkpt lat="45.4090133" lon="10.5398012"><ele>133.0</ele><time>2026-04-18T13:56:12.123Z</time></trkpt><trkpt lat="45.4090865" lon="10.5397902"><ele>133.0</ele><time>2026-04-18T13:58:09.125Z</time></trkpt><trkpt lat="45.4090121" lon="10.5397787"><ele>133.0</ele><time>2026-04-18T13:58:53.13Z</time></trkpt><trkpt lat="45.40894" lon="10.5398577"><ele>133.0</ele><time>2026-04-18T14:05:38.126Z</time></trkpt><trkpt lat="45.408963" lon="10.5397458"><ele>133.0</ele><time>2026-04-18T14:06:12.135Z</time></trkpt><trkpt lat="45.4089171" lon="10.5398484"><ele>133.0</ele><time>2026-04-18T14:20:53.12Z</time></trkpt><trkpt lat="45.4090368" lon="10.5397973"><ele>133.0</ele><time>2026-04-18T14:23:01.132Z</time></trkpt><trkpt lat="45.4089645" lon="10.539825"><ele>133.0</ele><time>2026-04-18T15:19:31.128Z</time></trkpt><trkpt lat="45.4089716" lon="10.5399474"><ele>133.0</ele><time>2026-04-18T15:20:07.131Z</time></trkpt><trkpt lat="45.409021" lon="10.5398773"><ele>133.0</ele><time>2026-04-18T15:28:26.14Z</time></trkpt><trkpt lat="45.4090549" lon="10.5399633"><ele>133.0</ele><time>2026-04-18T15:40:57.136Z</time></trkpt><trkpt lat="45.4090432" lon="10.5398668"><ele>133.0</ele><time>2026-04-18T15:42:20.131Z</time></trkpt><trkpt lat="45.4090955" lon="10.5397831"><ele>133.0</ele><time>2026-04-18T15:43:01.128Z</time></trkpt><trkpt lat="45.4090541" lon="10.5396679"><ele>133.0</ele><time>2026-04-18T15:43:44.128Z</time></trkpt><trkpt lat="45.4090983" lon="10.5397567"><ele>133.0</ele><time>2026-04-18T16:10:00.134Z</time></trkpt><trkpt lat="45.4090255" lon="10.5397975"><ele>133.0</ele><time>2026-04-18T16:10:01.128Z</time></trkpt><trkpt lat="45.4089275" lon="10.5398055"><ele>133.0</ele><time>2026-04-18T16:22:38.137Z</time></trkpt><trkpt lat="45.408872" lon="10.5396969"><ele>133.0</ele><time>2026-04-18T16:36:26.139Z</time></trkpt><trkpt lat="45.4089081" lon="10.5397869"><ele>133.0</ele><time>2026-04-18T16:41:36.127Z</time></trkpt><trkpt lat="45.4089738" lon="10.5398559"><ele>133.0</ele><time>2026-04-18T16:49:12.136Z</time></trkpt><trkpt lat="45.4089273" lon="10.539943"><ele>133.0</ele><time>2026-04-18T16:52:33.127Z</time></trkpt><trkpt lat="45.4089829" lon="10.5398659"><ele>133.0</ele><time>2026-04-18T16:53:41.131Z</time></trkpt><trkpt lat="45.4089174" lon="10.5398471"><ele>133.0</ele><time>2026-04-18T17:28:49.134Z</time></trkpt><trkpt lat="45.4088942" lon="10.5399452"><ele>133.0</ele><time>2026-04-18T17:29:26.129Z</time></trkpt><trkpt lat="45.4089338" lon="10.5398566"><ele>133.0</ele><time>2026-04-18T17:32:14.137Z</time></trkpt><trkpt lat="45.4090198" lon="10.5397936"><ele>133.0</ele><time>2026-04-18T17:58:40.124Z</time></trkpt><trkpt lat="45.4089988" lon="10.5398791"><ele>133.0</ele><time>2026-04-18T18:02:00.134Z</time></trkpt><trkpt lat="45.4090412" lon="10.5397968"><ele>133.0</ele><time>2026-04-18T18:02:32.133Z</time></trkpt><trkpt lat="45.4089747" lon="10.5399045"><ele>133.0</ele><time>2026-04-18T18:03:05.128Z</time></trkpt><trkpt lat="45.408897" lon="10.5398997"><ele>133.0</ele><time>2026-04-18T18:04:12.132Z</time></trkpt><trkpt lat="45.4089732" lon="10.5398182"><ele>133.0</ele><time>2026-04-18T18:28:41.132Z</time></trkpt><trkpt lat="45.4089099" lon="10.5398611"><ele>133.0</ele><time>2026-04-18T18:31:58.137Z</time></trkpt><trkpt lat="45.4089651" lon="10.5398098"><ele>133.0</ele><time>2026-04-18T18:35:07.125Z</time></trkpt><trkpt lat="45.4090645" lon="10.5397943"><ele>133.0</ele><time>2026-04-18T21:51:18.129Z</time></trkpt><trkpt lat="45.4089748" lon="10.5397735"><ele>133.0</ele><time>2026-04-18T21:55:58.117Z</time></trkpt><trkpt lat="45.4089556" lon="10.5398597"><ele>133.0</ele><time>2026-04-18T21:56:40.13Z</time></trkpt><trkpt lat="45.4088883" lon="10.5397966"><ele>133.0</ele><time>2026-04-18T21:57:53.129Z</time></trkpt><trkpt lat="45.408981" lon="10.5397885"><ele>133.0</ele><time>2026-04-18T21:58:16.133Z</time></trkpt><trkpt lat="45.4090617" lon="10.53982"><ele>133.0</ele><time>2026-04-18T22:02:28.122Z</time></trkpt><trkpt lat="45.4090854" lon="10.5399365"><ele>133.0</ele><time>2026-04-18T22:02:41.126Z</time></trkpt><trkpt lat="45.4091403" lon="10.5400257"><ele>133.0</ele><time>2026-04-18T22:02:43.126Z</time></trkpt><trkpt lat="45.4091269" lon="10.5399349"><ele>133.0</ele><time>2026-04-18T22:02:53.13Z</time></trkpt><trkpt lat="45.4090579" lon="10.5398408"><ele>133.0</ele><time>2026-04-18T22:03:13.132Z</time></trkpt><trkpt lat="45.4089357" lon="10.5397926"><ele>133.0</ele><time>2026-04-18T22:03:37.131Z</time></trkpt><trkpt lat="45.4089985" lon="10.5398073"><ele>133.0</ele><time>2026-04-18T22:03:44.124Z</time></trkpt><trkpt lat="45.4090266" lon="10.5399067"><ele>133.0</ele><time>2026-04-18T22:11:18.248Z</time></trkpt><trkpt lat="45.4090913" lon="10.5398817"><ele>133.0</ele><time>2026-04-18T22:12:08.127Z</time></trkpt><trkpt lat="45.4090231" lon="10.539897"><ele>133.0</ele><time>2026-04-18T22:13:41.122Z</time></trkpt><trkpt lat="45.4089577" lon="10.5398909"><ele>133.0</ele><time>2026-04-18T22:14:25.126Z</time></trkpt><trkpt lat="45.4090032" lon="10.5398212"><ele>133.0</ele><time>2026-04-18T22:15:42.124Z</time></trkpt><trkpt lat="45.409075" lon="10.5398604"><ele>133.0</ele><time>2026-04-18T22:17:36.123Z</time></trkpt><trkpt lat="45.4090114" lon="10.5398267"><ele>133.0</ele><time>2026-04-18T22:18:54.123Z</time></trkpt><trkpt lat="45.4089949" lon="10.5397164"><ele>133.0</ele><time>2026-04-18T22:22:48.133Z</time></trkpt><trkpt lat="45.4090544" lon="10.5396743"><ele>133.0</ele><time>2026-04-18T22:23:14.131Z</time></trkpt><trkpt lat="45.4090686" lon="10.5397737"><ele>133.0</ele><time>2026-04-18T22:24:01.134Z</time></trkpt><trkpt lat="45.4090208" lon="10.5398471"><ele>133.0</ele><time>2026-04-18T22:24:24.136Z</time></trkpt><trkpt lat="45.409055" lon="10.5399259"><ele>133.0</ele><time>2026-04-18T22:30:39.136Z</time></trkpt><trkpt lat="45.4091228" lon="10.5399767"><ele>133.0</ele><time>2026-04-18T22:32:00.127Z</time></trkpt><trkpt lat="45.4090663" lon="10.5399205"><ele>133.0</ele><time>2026-04-18T22:33:21.126Z</time></trkpt><trkpt lat="45.4090111" lon="10.5398292"><ele>133.0</ele><time>2026-04-18T22:33:43.132Z</time></trkpt><trkpt lat="45.4089486" lon="10.5397946"><ele>133.0</ele><time>2026-04-18T22:33:47.125Z</time></trkpt><trkpt lat="45.4089683" lon="10.539915"><ele>133.0</ele><time>2026-04-18T22:35:21.125Z</time></trkpt><trkpt lat="45.4089656" lon="10.5398243"><ele>133.0</ele><time>2026-04-18T22:36:04.122Z</time></trkpt><trkpt lat="45.4089045" lon="10.5398558"><ele>133.0</ele><time>2026-04-18T22:36:14.125Z</time></trkpt><trkpt lat="45.4088342" lon="10.5398192"><ele>133.0</ele><time>2026-04-18T22:36:20.125Z</time></trkpt><trkpt lat="45.4088031" lon="10.5397083"><ele>133.0</ele><time>2026-04-18T22:37:34.124Z</time></trkpt><trkpt lat="45.4088689" lon="10.5397365"><ele>133.0</ele><time>2026-04-18T22:37:39.132Z</time></trkpt><trkpt lat="45.4089426" lon="10.5397763"><ele>133.0</ele><time>2026-04-18T22:37:46.125Z</time></trkpt><trkpt lat="45.4090199" lon="10.5398064"><ele>133.0</ele><time>2026-04-18T22:37:55.133Z</time></trkpt><trkpt lat="45.4091717" lon="10.5398137"><ele>133.0</ele><time>2026-04-18T22:38:03.133Z</time></trkpt><trkpt lat="45.4092649" lon="10.5399055"><ele>133.0</ele><time>2026-04-18T22:38:11.127Z</time></trkpt><trkpt lat="45.4091955" lon="10.5399287"><ele>133.0</ele><time>2026-04-18T22:38:18.136Z</time></trkpt><trkpt lat="45.4091297" lon="10.5399207"><ele>133.0</ele><time>2026-04-18T22:38:25.123Z</time></trkpt><trkpt lat="45.4090516" lon="10.5399077"><ele>133.0</ele><time>2026-04-18T22:38:30.13Z</time></trkpt><trkpt lat="45.4089371" lon="10.5398526"><ele>133.0</ele><time>2026-04-18T22:38:51.131Z</time></trkpt><trkpt lat="45.4090151" lon="10.5398516"><ele>133.0</ele><time>2026-04-18T22:40:21.133Z</time></trkpt><trkpt lat="45.4089601" lon="10.5397872"><ele>133.0</ele><time>2026-04-18T22:43:47.133Z</time></trkpt><trkpt lat="45.4090134" lon="10.5398502"><ele>133.0</ele><time>2026-04-18T22:44:28.125Z</time></trkpt><trkpt lat="45.4089665" lon="10.5397789"><ele>133.0</ele><time>2026-04-18T22:47:01.125Z</time></trkpt><trkpt lat="45.4090254" lon="10.5398407"><ele>133.0</ele><time>2026-04-18T22:47:52.131Z</time></trkpt><trkpt lat="45.4089578" lon="10.5398404"><ele>133.0</ele><time>2026-04-18T22:48:25.135Z</time></trkpt><trkpt lat="45.4089005" lon="10.5397884"><ele>133.0</ele><time>2026-04-18T22:48:54.121Z</time></trkpt><trkpt lat="45.4088367" lon="10.5397405"><ele>133.0</ele><time>2026-04-18T22:48:58.124Z</time></trkpt><trkpt lat="45.4087686" lon="10.5397467"><ele>133.0</ele><time>2026-04-18T22:49:22.13Z</time></trkpt><trkpt lat="45.4088475" lon="10.5397369"><ele>133.0</ele><time>2026-04-18T22:49:31.122Z</time></trkpt><trkpt lat="45.4089375" lon="10.5397914"><ele>133.0</ele><time>2026-04-18T22:49:34.123Z</time></trkpt><trkpt lat="45.4089906" lon="10.5398676"><ele>133.0</ele><time>2026-04-18T22:49:39.127Z</time></trkpt><trkpt lat="45.409073" lon="10.5399087"><ele>133.0</ele><time>2026-04-18T22:49:56.134Z</time></trkpt><trkpt lat="45.4091423" lon="10.5399407"><ele>133.0</ele><time>2026-04-18T22:50:01.129Z</time></trkpt><trkpt lat="45.409074" lon="10.5399252"><ele>133.0</ele><time>2026-04-18T22:50:08.121Z</time></trkpt><trkpt lat="45.4089549" lon="10.5398925"><ele>133.0</ele><time>2026-04-18T22:50:11.126Z</time></trkpt><trkpt lat="45.4088989" lon="10.539847"><ele>133.0</ele><time>2026-04-18T22:50:19.128Z</time></trkpt><trkpt lat="45.4088312" lon="10.5398117"><ele>133.0</ele><time>2026-04-18T22:50:26.136Z</time></trkpt><trkpt lat="45.4089161" lon="10.5398214"><ele>133.0</ele><time>2026-04-18T22:50:47.122Z</time></trkpt><trkpt lat="45.4090229" lon="10.5398726"><ele>133.0</ele><time>2026-04-18T22:50:49.121Z</time></trkpt><trkpt lat="45.4090962" lon="10.5399116"><ele>133.0</ele><time>2026-04-18T22:50:50.131Z</time></trkpt><trkpt lat="45.4090474" lon="10.539854"><ele>133.0</ele><time>2026-04-18T22:51:19.121Z</time></trkpt><trkpt lat="45.408928" lon="10.5398509"><ele>133.0</ele><time>2026-04-18T22:51:24.124Z</time></trkpt><trkpt lat="45.4088387" lon="10.5398377"><ele>133.0</ele><time>2026-04-18T22:51:27.121Z</time></trkpt><trkpt lat="45.4087734" lon="10.5397985"><ele>133.0</ele><time>2026-04-18T22:51:44.125Z</time></trkpt><trkpt lat="45.4088232" lon="10.5398659"><ele>133.0</ele><time>2026-04-18T22:51:59.126Z</time></trkpt><trkpt lat="45.408893" lon="10.5398866"><ele>133.0</ele><time>2026-04-18T22:52:02.124Z</time></trkpt><trkpt lat="45.408952" lon="10.5399295"><ele>133.0</ele><time>2026-04-18T22:52:06.126Z</time></trkpt><trkpt lat="45.4088923" lon="10.5398971"><ele>133.0</ele><time>2026-04-18T22:52:22.132Z</time></trkpt><trkpt lat="45.4088384" lon="10.5398458"><ele>133.0</ele><time>2026-04-18T22:52:44.131Z</time></trkpt><trkpt lat="45.4089117" lon="10.5398328"><ele>133.0</ele><time>2026-04-18T22:53:29.127Z</time></trkpt><trkpt lat="45.4089881" lon="10.5398046"><ele>133.0</ele><time>2026-04-18T22:54:45.12Z</time></trkpt><trkpt lat="45.4089199" lon="10.5398052"><ele>133.0</ele><time>2026-04-18T22:55:22.124Z</time></trkpt><trkpt lat="45.4089927" lon="10.5397887"><ele>133.0</ele><time>2026-04-18T22:56:02.132Z</time></trkpt><trkpt lat="45.408935" lon="10.5397388"><ele>133.0</ele><time>2026-04-18T22:56:23.126Z</time></trkpt><trkpt lat="45.4089416" lon="10.5398351"><ele>133.0</ele><time>2026-04-18T22:57:17.13Z</time></trkpt><trkpt lat="45.4089508" lon="10.5397409"><ele>133.0</ele><time>2026-04-18T22:58:55.13Z</time></trkpt><trkpt lat="45.4088917" lon="10.5397856"><ele>133.0</ele><time>2026-04-18T23:01:47.125Z</time></trkpt><trkpt lat="45.4089573" lon="10.5397525"><ele>133.0</ele><time>2026-04-18T23:02:23.122Z</time></trkpt><trkpt lat="45.4090065" lon="10.5398274"><ele>133.0</ele><time>2026-04-18T23:02:33.123Z</time></trkpt><trkpt lat="45.4090875" lon="10.5399005"><ele>133.0</ele><time>2026-04-18T23:02:37.12Z</time></trkpt><trkpt lat="45.4090384" lon="10.5398318"><ele>133.0</ele><time>2026-04-18T23:03:07.132Z</time></trkpt><trkpt lat="45.4089653" lon="10.5398308"><ele>133.0</ele><time>2026-04-18T23:03:19.124Z</time></trkpt><trkpt lat="45.4088669" lon="10.5397837"><ele>133.0</ele><time>2026-04-18T23:03:23.125Z</time></trkpt><trkpt lat="45.408768" lon="10.5396981"><ele>133.0</ele><time>2026-04-18T23:03:25.124Z</time></trkpt><trkpt lat="45.4088467" lon="10.5396936"><ele>133.0</ele><time>2026-04-18T23:03:48.129Z</time></trkpt><trkpt lat="45.4089125" lon="10.5396821"><ele>133.0</ele><time>2026-04-18T23:04:06.123Z</time></trkpt><trkpt lat="45.4088365" lon="10.5396431"><ele>133.0</ele><time>2026-04-18T23:04:15.122Z</time></trkpt><trkpt lat="45.4088903" lon="10.5396944"><ele>133.0</ele><time>2026-04-18T23:04:34.117Z</time></trkpt><trkpt lat="45.4088312" lon="10.5396624"><ele>133.0</ele><time>2026-04-18T23:05:08.131Z</time></trkpt><trkpt lat="45.4087452" lon="10.5396617"><ele>133.0</ele><time>2026-04-18T23:05:12.118Z</time></trkpt><trkpt lat="45.4088032" lon="10.5395946"><ele>133.0</ele><time>2026-04-18T23:05:33.126Z</time></trkpt><trkpt lat="45.4089021" lon="10.5395613"><ele>133.0</ele><time>2026-04-18T23:05:36.127Z</time></trkpt><trkpt lat="45.4089704" lon="10.5395927"><ele>133.0</ele><time>2026-04-18T23:05:41.121Z</time></trkpt><trkpt lat="45.4089395" lon="10.5396757"><ele>133.0</ele><time>2026-04-18T23:05:50.124Z</time></trkpt><trkpt lat="45.4089089" lon="10.5397558"><ele>133.0</ele><time>2026-04-18T23:06:44.122Z</time></trkpt><trkpt lat="45.4089616" lon="10.5398062"><ele>133.0</ele><time>2026-04-18T23:08:16.117Z</time></trkpt><trkpt lat="45.4088956" lon="10.5397479"><ele>133.0</ele><time>2026-04-18T23:08:40.121Z</time></trkpt><trkpt lat="45.4088234" lon="10.5397334"><ele>133.0</ele><time>2026-04-18T23:08:44.113Z</time></trkpt><trkpt lat="45.4086971" lon="10.5397018"><ele>133.0</ele><time>2026-04-18T23:08:49.121Z</time></trkpt><trkpt lat="45.4087535" lon="10.5397441"><ele>133.0</ele><time>2026-04-18T23:08:59.123Z</time></trkpt><trkpt lat="45.4088093" lon="10.5398088"><ele>133.0</ele><time>2026-04-18T23:09:02.119Z</time></trkpt><trkpt lat="45.4088956" lon="10.5398656"><ele>133.0</ele><time>2026-04-18T23:09:21.126Z</time></trkpt><trkpt lat="45.4089717" lon="10.5398776"><ele>133.0</ele><time>2026-04-18T23:09:56.129Z</time></trkpt><trkpt lat="45.4089224" lon="10.5398179"><ele>133.0</ele><time>2026-04-18T23:11:25.126Z</time></trkpt><trkpt lat="45.4089783" lon="10.5398767"><ele>133.0</ele><time>2026-04-18T23:11:53.12Z</time></trkpt><trkpt lat="45.4088905" lon="10.539827"><ele>133.0</ele><time>2026-04-18T23:12:40.12Z</time></trkpt><trkpt lat="45.4089171" lon="10.539924"><ele>133.0</ele><time>2026-04-18T23:13:16.121Z</time></trkpt><trkpt lat="45.4089823" lon="10.5399118"><ele>133.0</ele><time>2026-04-18T23:13:54.113Z</time></trkpt><trkpt lat="45.4089334" lon="10.5398463"><ele>133.0</ele><time>2026-04-18T23:14:00.131Z</time></trkpt><trkpt lat="45.4088664" lon="10.5398011"><ele>133.0</ele><time>2026-04-18T23:14:49.122Z</time></trkpt><trkpt lat="45.4088104" lon="10.5397289"><ele>133.0</ele><time>2026-04-18T23:14:53.119Z</time></trkpt><trkpt lat="45.4088876" lon="10.5397109"><ele>133.0</ele><time>2026-04-18T23:16:08.116Z</time></trkpt><trkpt lat="45.4089692" lon="10.5398569"><ele>133.0</ele><time>2026-04-18T23:16:24.122Z</time></trkpt><trkpt lat="45.4090215" lon="10.5399135"><ele>133.0</ele><time>2026-04-18T23:16:29.129Z</time></trkpt><trkpt lat="45.4089591" lon="10.5398792"><ele>133.0</ele><time>2026-04-18T23:16:41.128Z</time></trkpt><trkpt lat="45.408876" lon="10.5398156"><ele>133.0</ele><time>2026-04-18T23:17:07.119Z</time></trkpt><trkpt lat="45.4089663" lon="10.5397994"><ele>133.0</ele><time>2026-04-18T23:18:48.121Z</time></trkpt><trkpt lat="45.4088897" lon="10.5397895"><ele>133.0</ele><time>2026-04-18T23:23:21.116Z</time></trkpt><trkpt lat="45.4089422" lon="10.5398642"><ele>133.0</ele><time>2026-04-18T23:23:41.127Z</time></trkpt><trkpt lat="45.4089245" lon="10.5397723"><ele>133.0</ele><time>2026-04-18T23:25:13.114Z</time></trkpt><trkpt lat="45.4089432" lon="10.5398581"><ele>133.0</ele><time>2026-04-18T23:25:36.128Z</time></trkpt><trkpt lat="45.4088979" lon="10.5397764"><ele>133.0</ele><time>2026-04-18T23:27:12.116Z</time></trkpt><trkpt lat="45.40897" lon="10.5397921"><ele>133.0</ele><time>2026-04-18T23:28:35.122Z</time></trkpt><trkpt lat="45.4089091" lon="10.5397655"><ele>133.0</ele><time>2026-04-18T23:32:12.116Z</time></trkpt><trkpt lat="45.4088306" lon="10.5397416"><ele>133.0</ele><time>2026-04-18T23:38:11.115Z</time></trkpt><trkpt lat="45.4089254" lon="10.5398287"><ele>133.0</ele><time>2026-04-18T23:41:06.122Z</time></trkpt><trkpt lat="45.4089693" lon="10.5397509"><ele>133.0</ele><time>2026-04-18T23:49:09.114Z</time></trkpt><trkpt lat="45.4089417" lon="10.5398386"><ele>133.0</ele><time>2026-04-18T23:50:21.126Z</time></trkpt><trkpt lat="45.4088799" lon="10.5398151"><ele>133.0</ele><time>2026-04-18T23:52:09.12Z</time></trkpt><trkpt lat="45.4089145" lon="10.5397205"><ele>133.0</ele><time>2026-04-18T23:52:43.114Z</time></trkpt><trkpt lat="45.4089124" lon="10.539817"><ele>133.0</ele><time>2026-04-18T23:53:16.117Z</time></trkpt><trkpt lat="45.4089537" lon="10.5397244"><ele>133.0</ele><time>2026-04-18T23:55:45.113Z</time></trkpt><trkpt lat="45.4089047" lon="10.539853"><ele>133.0</ele><time>2026-04-19T00:05:55.115Z</time></trkpt><trkpt lat="45.4088711" lon="10.5397767"><ele>133.0</ele><time>2026-04-19T00:07:08.115Z</time></trkpt><trkpt lat="45.4089358" lon="10.5397058"><ele>133.0</ele><time>2026-04-19T00:07:27.126Z</time></trkpt><trkpt lat="45.4089146" lon="10.5398041"><ele>133.0</ele><time>2026-04-19T00:08:54.116Z</time></trkpt><trkpt lat="45.4089851" lon="10.5397933"><ele>133.0</ele><time>2026-04-19T00:12:40.12Z</time></trkpt><trkpt lat="45.4089598" lon="10.5398872"><ele>133.0</ele><time>2026-04-19T00:12:50.112Z</time></trkpt><trkpt lat="45.4089003" lon="10.5399372"><ele>133.0</ele><time>2026-04-19T00:13:01.124Z</time></trkpt><trkpt lat="45.408872" lon="10.5398019"><ele>133.0</ele><time>2026-04-19T00:13:52.117Z</time></trkpt><trkpt lat="45.4089507" lon="10.5398331"><ele>133.0</ele><time>2026-04-19T00:14:20.116Z</time></trkpt><trkpt lat="45.4089449" lon="10.5399475"><ele>133.0</ele><time>2026-04-19T00:17:46.114Z</time></trkpt><trkpt lat="45.4089327" lon="10.5398263"><ele>133.0</ele><time>2026-04-19T00:18:39.111Z</time></trkpt><trkpt lat="45.4089516" lon="10.5397236"><ele>133.0</ele><time>2026-04-19T00:19:02.113Z</time></trkpt><trkpt lat="45.4090053" lon="10.5397808"><ele>133.0</ele><time>2026-04-19T00:19:41.12Z</time></trkpt><trkpt lat="45.4089335" lon="10.5398817"><ele>133.0</ele><time>2026-04-19T00:25:05.118Z</time></trkpt><trkpt lat="45.4089607" lon="10.5397738"><ele>133.0</ele><time>2026-04-19T00:25:56.119Z</time></trkpt><trkpt lat="45.4090046" lon="10.5396975"><ele>133.0</ele><time>2026-04-19T00:26:24.113Z</time></trkpt><trkpt lat="45.408953" lon="10.5397491"><ele>133.0</ele><time>2026-04-19T00:26:49.111Z</time></trkpt><trkpt lat="45.4090223" lon="10.5398"><ele>133.0</ele><time>2026-04-19T00:29:13.113Z</time></trkpt><trkpt lat="45.4089478" lon="10.539826"><ele>133.0</ele><time>2026-04-19T00:29:34.121Z</time></trkpt><trkpt lat="45.408885" lon="10.5398383"><ele>133.0</ele><time>2026-04-19T00:30:27.121Z</time></trkpt><trkpt lat="45.4089613" lon="10.5398233"><ele>133.0</ele><time>2026-04-19T00:31:13.114Z</time></trkpt><trkpt lat="45.4090011" lon="10.5399022"><ele>133.0</ele><time>2026-04-19T00:32:20.122Z</time></trkpt><trkpt lat="45.4088678" lon="10.5399024"><ele>133.0</ele><time>2026-04-19T00:33:07.121Z</time></trkpt><trkpt lat="45.4088107" lon="10.5398505"><ele>133.0</ele><time>2026-04-19T00:33:20.113Z</time></trkpt><trkpt lat="45.4088877" lon="10.5398273"><ele>133.0</ele><time>2026-04-19T00:33:51.114Z</time></trkpt><trkpt lat="45.4089531" lon="10.5398129"><ele>133.0</ele><time>2026-04-19T00:34:38.121Z</time></trkpt><trkpt lat="45.408887" lon="10.5398127"><ele>133.0</ele><time>2026-04-19T00:37:26.112Z</time></trkpt><trkpt lat="45.4089921" lon="10.5397663"><ele>133.0</ele><time>2026-04-19T00:39:39.112Z</time></trkpt><trkpt lat="45.4089363" lon="10.5398198"><ele>133.0</ele><time>2026-04-19T00:40:01.111Z</time></trkpt><trkpt lat="45.409011" lon="10.5398326"><ele>133.0</ele><time>2026-04-19T00:45:15.113Z</time></trkpt><trkpt lat="45.4089445" lon="10.539866"><ele>133.0</ele><time>2026-04-19T00:45:43.108Z</time></trkpt><trkpt lat="45.4088811" lon="10.539854"><ele>133.0</ele><time>2026-04-19T00:47:30.113Z</time></trkpt><trkpt lat="45.4088263" lon="10.5397998"><ele>133.0</ele><time>2026-04-19T00:47:34.115Z</time></trkpt><trkpt lat="45.4088917" lon="10.5398445"><ele>133.0</ele><time>2026-04-19T00:47:57.117Z</time></trkpt><trkpt lat="45.40897" lon="10.5398465"><ele>133.0</ele><time>2026-04-19T00:49:02.118Z</time></trkpt><trkpt lat="45.4090423" lon="10.5397902"><ele>133.0</ele><time>2026-04-19T00:49:59.11Z</time></trkpt><trkpt lat="45.4091244" lon="10.5398199"><ele>133.0</ele><time>2026-04-19T00:50:32.109Z</time></trkpt><trkpt lat="45.4090421" lon="10.539777"><ele>133.0</ele><time>2026-04-19T00:50:38.104Z</time></trkpt><trkpt lat="45.4089843" lon="10.5398251"><ele>133.0</ele><time>2026-04-19T00:51:31.109Z</time></trkpt><trkpt lat="45.4090145" lon="10.5399135"><ele>133.0</ele><time>2026-04-19T00:51:45.109Z</time></trkpt><trkpt lat="45.4090727" lon="10.5399849"><ele>133.0</ele><time>2026-04-19T00:51:55.112Z</time></trkpt><trkpt lat="45.4090082" lon="10.5399306"><ele>133.0</ele><time>2026-04-19T00:52:14.111Z</time></trkpt><trkpt lat="45.4089445" lon="10.539903"><ele>133.0</ele><time>2026-04-19T00:53:01.108Z</time></trkpt><trkpt lat="45.4089184" lon="10.5398147"><ele>133.0</ele><time>2026-04-19T00:53:11.107Z</time></trkpt><trkpt lat="45.4088693" lon="10.5397437"><ele>133.0</ele><time>2026-04-19T00:54:21.11Z</time></trkpt><trkpt lat="45.408941" lon="10.5397451"><ele>133.0</ele><time>2026-04-19T00:56:10.107Z</time></trkpt><trkpt lat="45.4089213" lon="10.5398319"><ele>133.0</ele><time>2026-04-19T00:56:57.107Z</time></trkpt><trkpt lat="45.4088556" lon="10.5398027"><ele>133.0</ele><time>2026-04-19T00:57:58.115Z</time></trkpt><trkpt lat="45.4089387" lon="10.5398611"><ele>133.0</ele><time>2026-04-19T00:58:31.111Z</time></trkpt><trkpt lat="45.4088689" lon="10.5398371"><ele>133.0</ele><time>2026-04-19T00:58:37.107Z</time></trkpt><trkpt lat="45.4089389" lon="10.5398767"><ele>133.0</ele><time>2026-04-19T00:59:03.114Z</time></trkpt><trkpt lat="45.4090167" lon="10.5398652"><ele>133.0</ele><time>2026-04-19T00:59:24.105Z</time></trkpt><trkpt lat="45.4090985" lon="10.5398292"><ele>133.0</ele><time>2026-04-19T00:59:38.116Z</time></trkpt><trkpt lat="45.4091405" lon="10.5397472"><ele>133.0</ele><time>2026-04-19T00:59:44.12Z</time></trkpt><trkpt lat="45.4092149" lon="10.5396345"><ele>133.0</ele><time>2026-04-19T00:59:52.11Z</time></trkpt><trkpt lat="45.4092926" lon="10.5395678"><ele>133.0</ele><time>2026-04-19T00:59:55.117Z</time></trkpt><trkpt lat="45.4092254" lon="10.5396094"><ele>133.0</ele><time>2026-04-19T01:00:11.111Z</time></trkpt><trkpt lat="45.4091495" lon="10.5396279"><ele>133.0</ele><time>2026-04-19T01:00:16.109Z</time></trkpt><trkpt lat="45.409098" lon="10.5396833"><ele>133.0</ele><time>2026-04-19T01:00:34.111Z</time></trkpt><trkpt lat="45.4090659" lon="10.5397797"><ele>133.0</ele><time>2026-04-19T01:02:16.106Z</time></trkpt><trkpt lat="45.4089887" lon="10.539764"><ele>133.0</ele><time>2026-04-19T01:02:45.117Z</time></trkpt><trkpt lat="45.4090595" lon="10.5398384"><ele>133.0</ele><time>2026-04-19T01:03:39.107Z</time></trkpt><trkpt lat="45.4089933" lon="10.5397983"><ele>133.0</ele><time>2026-04-19T01:04:09.108Z</time></trkpt><trkpt lat="45.4089443" lon="10.53988"><ele>133.0</ele><time>2026-04-19T01:06:11.11Z</time></trkpt><trkpt lat="45.4088868" lon="10.5399291"><ele>133.0</ele><time>2026-04-19T01:06:35.119Z</time></trkpt><trkpt lat="45.408815" lon="10.5398967"><ele>133.0</ele><time>2026-04-19T01:07:09.106Z</time></trkpt><trkpt lat="45.4087629" lon="10.5399691"><ele>133.0</ele><time>2026-04-19T01:07:11.103Z</time></trkpt><trkpt lat="45.4088332" lon="10.5399527"><ele>133.0</ele><time>2026-04-19T01:07:18.112Z</time></trkpt><trkpt lat="45.4088914" lon="10.5399177"><ele>133.0</ele><time>2026-04-19T01:07:24.114Z</time></trkpt><trkpt lat="45.4089478" lon="10.539852"><ele>133.0</ele><time>2026-04-19T01:07:28.115Z</time></trkpt><trkpt lat="45.4088784" lon="10.5398959"><ele>133.0</ele><time>2026-04-19T01:07:47.116Z</time></trkpt><trkpt lat="45.4088043" lon="10.5398997"><ele>133.0</ele><time>2026-04-19T01:07:50.111Z</time></trkpt><trkpt lat="45.4087762" lon="10.5398179"><ele>133.0</ele><time>2026-04-19T01:08:11.108Z</time></trkpt><trkpt lat="45.4088303" lon="10.539768"><ele>133.0</ele><time>2026-04-19T01:08:27.11Z</time></trkpt><trkpt lat="45.4089198" lon="10.5397715"><ele>133.0</ele><time>2026-04-19T01:08:41.11Z</time></trkpt><trkpt lat="45.4088685" lon="10.5398366"><ele>133.0</ele><time>2026-04-19T01:09:17.115Z</time></trkpt><trkpt lat="45.4089046" lon="10.5399206"><ele>133.0</ele><time>2026-04-19T01:09:53.108Z</time></trkpt><trkpt lat="45.4088409" lon="10.5399412"><ele>133.0</ele><time>2026-04-19T01:12:51.107Z</time></trkpt><trkpt lat="45.4087725" lon="10.5399941"><ele>133.0</ele><time>2026-04-19T01:13:55.117Z</time></trkpt><trkpt lat="45.4088387" lon="10.5399673"><ele>133.0</ele><time>2026-04-19T01:14:27.119Z</time></trkpt><trkpt lat="45.4088865" lon="10.5398702"><ele>133.0</ele><time>2026-04-19T01:14:40.115Z</time></trkpt><trkpt lat="45.4090034" lon="10.5397999"><ele>133.0</ele><time>2026-04-19T01:15:01.103Z</time></trkpt><trkpt lat="45.4089541" lon="10.5398643"><ele>133.0</ele><time>2026-04-19T01:15:24.111Z</time></trkpt><trkpt lat="45.4088643" lon="10.5398024"><ele>133.0</ele><time>2026-04-19T01:15:56.119Z</time></trkpt><trkpt lat="45.4089172" lon="10.5397439"><ele>133.0</ele><time>2026-04-19T01:16:11.109Z</time></trkpt><trkpt lat="45.4089849" lon="10.5397211"><ele>133.0</ele><time>2026-04-19T01:16:49.107Z</time></trkpt><trkpt lat="45.4090155" lon="10.5398301"><ele>133.0</ele><time>2026-04-19T01:17:33.11Z</time></trkpt><trkpt lat="45.408947" lon="10.5398355"><ele>133.0</ele><time>2026-04-19T01:17:43.109Z</time></trkpt><trkpt lat="45.4090283" lon="10.5398896"><ele>133.0</ele><time>2026-04-19T01:18:34.108Z</time></trkpt><trkpt lat="45.4089705" lon="10.5398441"><ele>133.0</ele><time>2026-04-19T01:19:28.109Z</time></trkpt><trkpt lat="45.4089278" lon="10.5399133"><ele>133.0</ele><time>2026-04-19T01:23:02.108Z</time></trkpt><trkpt lat="45.4089893" lon="10.5398855"><ele>133.0</ele><time>2026-04-19T01:23:41.114Z</time></trkpt><trkpt lat="45.408955" lon="10.5399743"><ele>133.0</ele><time>2026-04-19T01:24:39.104Z</time></trkpt><trkpt lat="45.4088933" lon="10.539935"><ele>133.0</ele><time>2026-04-19T01:25:15.108Z</time></trkpt><trkpt lat="45.4089694" lon="10.5398709"><ele>133.0</ele><time>2026-04-19T01:26:24.11Z</time></trkpt><trkpt lat="45.4090408" lon="10.539789"><ele>133.0</ele><time>2026-04-19T01:27:16.103Z</time></trkpt><trkpt lat="45.4089731" lon="10.5398549"><ele>133.0</ele><time>2026-04-19T01:30:10.105Z</time></trkpt><trkpt lat="45.4089267" lon="10.5397632"><ele>133.0</ele><time>2026-04-19T01:31:20.105Z</time></trkpt><trkpt lat="45.4089858" lon="10.5398407"><ele>133.0</ele><time>2026-04-19T01:31:46.105Z</time></trkpt><trkpt lat="45.409056" lon="10.5398244"><ele>133.0</ele><time>2026-04-19T01:32:27.103Z</time></trkpt><trkpt lat="45.4089875" lon="10.5397828"><ele>133.0</ele><time>2026-04-19T01:33:18.109Z</time></trkpt><trkpt lat="45.4089937" lon="10.539883"><ele>133.0</ele><time>2026-04-19T01:34:11.105Z</time></trkpt><trkpt lat="45.4091148" lon="10.5399129"><ele>133.0</ele><time>2026-04-19T01:34:39.106Z</time></trkpt><trkpt lat="45.4090507" lon="10.5398983"><ele>133.0</ele><time>2026-04-19T01:35:03.108Z</time></trkpt><trkpt lat="45.4091134" lon="10.5398657"><ele>133.0</ele><time>2026-04-19T01:36:07.101Z</time></trkpt><trkpt lat="45.4090458" lon="10.5398448"><ele>133.0</ele><time>2026-04-19T01:36:23.104Z</time></trkpt><trkpt lat="45.4089633" lon="10.5398533"><ele>133.0</ele><time>2026-04-19T01:36:42.108Z</time></trkpt><trkpt lat="45.408983" lon="10.5397586"><ele>133.0</ele><time>2026-04-19T01:37:42.096Z</time></trkpt><trkpt lat="45.4090242" lon="10.5398277"><ele>133.0</ele><time>2026-04-19T01:38:50.104Z</time></trkpt><trkpt lat="45.4089526" lon="10.5398144"><ele>133.0</ele><time>2026-04-19T01:42:34.107Z</time></trkpt><trkpt lat="45.4089843" lon="10.5399083"><ele>133.0</ele><time>2026-04-19T01:45:39.112Z</time></trkpt><trkpt lat="45.4089136" lon="10.5399278"><ele>133.0</ele><time>2026-04-19T01:48:15.112Z</time></trkpt><trkpt lat="45.4089665" lon="10.5398565"><ele>133.0</ele><time>2026-04-19T01:49:23.099Z</time></trkpt><trkpt lat="45.4090544" lon="10.5398348"><ele>133.0</ele><time>2026-04-19T01:57:03.103Z</time></trkpt><trkpt lat="45.4090039" lon="10.5398901"><ele>133.0</ele><time>2026-04-19T02:00:06.108Z</time></trkpt><trkpt lat="45.4090746" lon="10.5398509"><ele>133.0</ele><time>2026-04-19T02:00:37.108Z</time></trkpt><trkpt lat="45.4090133" lon="10.5398143"><ele>133.0</ele><time>2026-04-19T02:00:54.109Z</time></trkpt><trkpt lat="45.4089463" lon="10.5398222"><ele>133.0</ele><time>2026-04-19T02:01:04.104Z</time></trkpt><trkpt lat="45.4089022" lon="10.5398899"><ele>133.0</ele><time>2026-04-19T02:01:17.108Z</time></trkpt><trkpt lat="45.4089631" lon="10.5398586"><ele>133.0</ele><time>2026-04-19T02:02:09.101Z</time></trkpt><trkpt lat="45.4089012" lon="10.539899"><ele>133.0</ele><time>2026-04-19T02:03:11.107Z</time></trkpt><trkpt lat="45.4089263" lon="10.5398058"><ele>133.0</ele><time>2026-04-19T02:03:40.101Z</time></trkpt><trkpt lat="45.4090158" lon="10.5398266"><ele>133.0</ele><time>2026-04-19T02:04:27.107Z</time></trkpt><trkpt lat="45.4089625" lon="10.5398814"><ele>133.0</ele><time>2026-04-19T02:04:59.095Z</time></trkpt><trkpt lat="45.4089693" lon="10.539792"><ele>133.0</ele><time>2026-04-19T02:10:09.137Z</time></trkpt><trkpt lat="45.4090244" lon="10.5397446"><ele>133.0</ele><time>2026-04-19T02:10:22.102Z</time></trkpt><trkpt lat="45.4089989" lon="10.5398353"><ele>133.0</ele><time>2026-04-19T02:10:58.096Z</time></trkpt><trkpt lat="45.4089324" lon="10.5398307"><ele>133.0</ele><time>2026-04-19T02:14:46.102Z</time></trkpt><trkpt lat="45.4089812" lon="10.5397612"><ele>133.0</ele><time>2026-04-19T02:16:36.099Z</time></trkpt><trkpt lat="45.4090264" lon="10.5398293"><ele>133.0</ele><time>2026-04-19T02:16:55.108Z</time></trkpt><trkpt lat="45.4089545" lon="10.5398433"><ele>133.0</ele><time>2026-04-19T02:18:04.097Z</time></trkpt><trkpt lat="45.4089175" lon="10.5399333"><ele>133.0</ele><time>2026-04-19T02:18:14.098Z</time></trkpt><trkpt lat="45.4089711" lon="10.5398824"><ele>133.0</ele><time>2026-04-19T02:19:36.098Z</time></trkpt><trkpt lat="45.4089556" lon="10.5397871"><ele>133.0</ele><time>2026-04-19T02:19:52.107Z</time></trkpt><trkpt lat="45.4089036" lon="10.5397244"><ele>133.0</ele><time>2026-04-19T02:19:59.097Z</time></trkpt><trkpt lat="45.4089259" lon="10.5398125"><ele>133.0</ele><time>2026-04-19T02:20:28.099Z</time></trkpt><trkpt lat="45.4089721" lon="10.539876"><ele>133.0</ele><time>2026-04-19T02:21:27.098Z</time></trkpt><trkpt lat="45.4088862" lon="10.5398668"><ele>133.0</ele><time>2026-04-19T02:22:56.102Z</time></trkpt><trkpt lat="45.4088506" lon="10.5399488"><ele>133.0</ele><time>2026-04-19T02:23:04.096Z</time></trkpt><trkpt lat="45.4089381" lon="10.5399426"><ele>133.0</ele><time>2026-04-19T02:23:47.099Z</time></trkpt><trkpt lat="45.4089817" lon="10.5398655"><ele>133.0</ele><time>2026-04-19T02:24:00.106Z</time></trkpt><trkpt lat="45.4089143" lon="10.539856"><ele>133.0</ele><time>2026-04-19T02:24:44.098Z</time></trkpt><trkpt lat="45.4088346" lon="10.5399191"><ele>133.0</ele><time>2026-04-19T02:25:43.105Z</time></trkpt><trkpt lat="45.4087658" lon="10.5399156"><ele>133.0</ele><time>2026-04-19T02:25:44.105Z</time></trkpt><trkpt lat="45.4087002" lon="10.5399137"><ele>133.0</ele><time>2026-04-19T02:25:45.105Z</time></trkpt><trkpt lat="45.4087643" lon="10.5398841"><ele>133.0</ele><time>2026-04-19T02:26:07.107Z</time></trkpt><trkpt lat="45.4088582" lon="10.5399352"><ele>133.0</ele><time>2026-04-19T02:26:44.096Z</time></trkpt><trkpt lat="45.4088101" lon="10.5400093"><ele>133.0</ele><time>2026-04-19T02:28:37.103Z</time></trkpt><trkpt lat="45.4088774" lon="10.54003"><ele>133.0</ele><time>2026-04-19T02:28:50.105Z</time></trkpt><trkpt lat="45.4088913" lon="10.5399086"><ele>133.0</ele><time>2026-04-19T02:29:57.106Z</time></trkpt><trkpt lat="45.4089675" lon="10.5399017"><ele>133.0</ele><time>2026-04-19T02:30:14.103Z</time></trkpt><trkpt lat="45.4089576" lon="10.5397791"><ele>133.0</ele><time>2026-04-19T02:34:28.106Z</time></trkpt><trkpt lat="45.4089231" lon="10.5398559"><ele>133.0</ele><time>2026-04-19T02:37:54.099Z</time></trkpt><trkpt lat="45.408984" lon="10.539831"><ele>133.0</ele><time>2026-04-19T02:40:35.101Z</time></trkpt><trkpt lat="45.408975" lon="10.539925"><ele>133.0</ele><time>2026-04-19T02:45:11.105Z</time></trkpt><trkpt lat="45.4090118" lon="10.5398339"><ele>133.0</ele><time>2026-04-19T02:45:48.096Z</time></trkpt><trkpt lat="45.4089323" lon="10.5398391"><ele>133.0</ele><time>2026-04-19T02:52:00.105Z</time></trkpt><trkpt lat="45.4089747" lon="10.5397637"><ele>133.0</ele><time>2026-04-19T02:54:57.101Z</time></trkpt><trkpt lat="45.4090395" lon="10.5397935"><ele>133.0</ele><time>2026-04-19T02:56:38.094Z</time></trkpt><trkpt lat="45.408985" lon="10.5398453"><ele>133.0</ele><time>2026-04-19T02:56:50.1Z</time></trkpt><trkpt lat="45.4089248" lon="10.5398793"><ele>133.0</ele><time>2026-04-19T02:58:35.091Z</time></trkpt><trkpt lat="45.4088992" lon="10.5397733"><ele>133.0</ele><time>2026-04-19T02:59:11.105Z</time></trkpt><trkpt lat="45.4088355" lon="10.5397943"><ele>133.0</ele><time>2026-04-19T02:59:20.105Z</time></trkpt><trkpt lat="45.4088225" lon="10.5398846"><ele>133.0</ele><time>2026-04-19T02:59:39.096Z</time></trkpt><trkpt lat="45.408941" lon="10.5399106"><ele>133.0</ele><time>2026-04-19T03:00:50.101Z</time></trkpt><trkpt lat="45.408955" lon="10.5398185"><ele>133.0</ele><time>2026-04-19T03:01:02.103Z</time></trkpt><trkpt lat="45.4090293" lon="10.539816"><ele>133.0</ele><time>2026-04-19T03:01:19.106Z</time></trkpt><trkpt lat="45.4089968" lon="10.5399451"><ele>133.0</ele><time>2026-04-19T03:01:34.095Z</time></trkpt><trkpt lat="45.4089234" lon="10.5399682"><ele>133.0</ele><time>2026-04-19T03:01:40.092Z</time></trkpt><trkpt lat="45.4088658" lon="10.5399288"><ele>133.0</ele><time>2026-04-19T03:01:48.094Z</time></trkpt><trkpt lat="45.4089352" lon="10.5398909"><ele>133.0</ele><time>2026-04-19T03:02:16.103Z</time></trkpt><trkpt lat="45.4089822" lon="10.5398163"><ele>133.0</ele><time>2026-04-19T03:02:26.103Z</time></trkpt><trkpt lat="45.4089974" lon="10.539904"><ele>133.0</ele><time>2026-04-19T03:05:55.098Z</time></trkpt><trkpt lat="45.4089315" lon="10.5399288"><ele>133.0</ele><time>2026-04-19T03:06:19.095Z</time></trkpt><trkpt lat="45.4088583" lon="10.5398939"><ele>133.0</ele><time>2026-04-19T03:06:48.102Z</time></trkpt><trkpt lat="45.408897" lon="10.5398149"><ele>133.0</ele><time>2026-04-19T03:07:20.1Z</time></trkpt><trkpt lat="45.4089644" lon="10.5397789"><ele>133.0</ele><time>2026-04-19T03:07:35.104Z</time></trkpt><trkpt lat="45.4089181" lon="10.5398663"><ele>133.0</ele><time>2026-04-19T03:07:53.103Z</time></trkpt><trkpt lat="45.4089795" lon="10.5398894"><ele>133.0</ele><time>2026-04-19T03:08:23.1Z</time></trkpt><trkpt lat="45.4089109" lon="10.5399194"><ele>133.0</ele><time>2026-04-19T03:09:22.104Z</time></trkpt><trkpt lat="45.4088357" lon="10.5399136"><ele>133.0</ele><time>2026-04-19T03:09:32.106Z</time></trkpt><trkpt lat="45.4089411" lon="10.5398217"><ele>133.0</ele><time>2026-04-19T03:11:17.103Z</time></trkpt><trkpt lat="45.4089197" lon="10.5399133"><ele>133.0</ele><time>2026-04-19T03:12:36.093Z</time></trkpt><trkpt lat="45.4089702" lon="10.5398129"><ele>133.0</ele><time>2026-04-19T03:13:18.102Z</time></trkpt><trkpt lat="45.4089531" lon="10.5398998"><ele>133.0</ele><time>2026-04-19T03:14:41.103Z</time></trkpt><trkpt lat="45.4089013" lon="10.5398232"><ele>133.0</ele><time>2026-04-19T03:15:07.094Z</time></trkpt><trkpt lat="45.4089539" lon="10.5398758"><ele>133.0</ele><time>2026-04-19T03:22:34.106Z</time></trkpt><trkpt lat="45.4088986" lon="10.5398044"><ele>133.0</ele><time>2026-04-19T03:24:28.094Z</time></trkpt><trkpt lat="45.4088279" lon="10.5397905"><ele>133.0</ele><time>2026-04-19T03:24:31.091Z</time></trkpt><trkpt lat="45.4088796" lon="10.5398667"><ele>133.0</ele><time>2026-04-19T03:24:45.103Z</time></trkpt><trkpt lat="45.4089326" lon="10.5399153"><ele>133.0</ele><time>2026-04-19T03:25:01.101Z</time></trkpt><trkpt lat="45.409001" lon="10.5399228"><ele>133.0</ele><time>2026-04-19T03:25:10.103Z</time></trkpt><trkpt lat="45.4090832" lon="10.5398669"><ele>133.0</ele><time>2026-04-19T03:25:14.102Z</time></trkpt><trkpt lat="45.4090544" lon="10.5399504"><ele>133.0</ele><time>2026-04-19T03:25:35.107Z</time></trkpt><trkpt lat="45.4090754" lon="10.5398613"><ele>133.0</ele><time>2026-04-19T03:25:41.104Z</time></trkpt><trkpt lat="45.4090409" lon="10.5397775"><ele>133.0</ele><time>2026-04-19T03:25:50.103Z</time></trkpt><trkpt lat="45.408983" lon="10.5398312"><ele>133.0</ele><time>2026-04-19T03:26:03.101Z</time></trkpt><trkpt lat="45.4089261" lon="10.5398759"><ele>133.0</ele><time>2026-04-19T03:27:36.1Z</time></trkpt><trkpt lat="45.4089315" lon="10.5397825"><ele>133.0</ele><time>2026-04-19T03:28:20.096Z</time></trkpt><trkpt lat="45.4088936" lon="10.5399496"><ele>133.0</ele><time>2026-04-19T03:30:38.095Z</time></trkpt><trkpt lat="45.4089462" lon="10.5398773"><ele>133.0</ele><time>2026-04-19T03:30:58.095Z</time></trkpt><trkpt lat="45.4089953" lon="10.5398181"><ele>133.0</ele><time>2026-04-19T03:31:23.102Z</time></trkpt><trkpt lat="45.408926" lon="10.5398108"><ele>133.0</ele><time>2026-04-19T03:31:52.093Z</time></trkpt><trkpt lat="45.408967" lon="10.5397408"><ele>133.0</ele><time>2026-04-19T03:32:07.091Z</time></trkpt><trkpt lat="45.4089708" lon="10.5398428"><ele>133.0</ele><time>2026-04-19T03:32:43.099Z</time></trkpt><trkpt lat="45.4089072" lon="10.5399305"><ele>133.0</ele><time>2026-04-19T03:32:47.102Z</time></trkpt><trkpt lat="45.4088404" lon="10.5399136"><ele>133.0</ele><time>2026-04-19T03:33:28.102Z</time></trkpt><trkpt lat="45.4089112" lon="10.5399072"><ele>133.0</ele><time>2026-04-19T03:33:54.096Z</time></trkpt><trkpt lat="45.4088395" lon="10.5399608"><ele>133.0</ele><time>2026-04-19T03:34:33.104Z</time></trkpt><trkpt lat="45.4089109" lon="10.5399399"><ele>133.0</ele><time>2026-04-19T03:35:13.098Z</time></trkpt><trkpt lat="45.4088512" lon="10.5399769"><ele>133.0</ele><time>2026-04-19T03:35:51.099Z</time></trkpt><trkpt lat="45.4087882" lon="10.5399554"><ele>133.0</ele><time>2026-04-19T03:35:56.095Z</time></trkpt><trkpt lat="45.4087259" lon="10.5399118"><ele>133.0</ele><time>2026-04-19T03:36:14.096Z</time></trkpt><trkpt lat="45.4086621" lon="10.5399287"><ele>133.0</ele><time>2026-04-19T03:36:18.103Z</time></trkpt><trkpt lat="45.4087286" lon="10.539936"><ele>133.0</ele><time>2026-04-19T03:36:28.089Z</time></trkpt><trkpt lat="45.4087808" lon="10.5398823"><ele>133.0</ele><time>2026-04-19T03:37:00.094Z</time></trkpt><trkpt lat="45.4088642" lon="10.5398699"><ele>133.0</ele><time>2026-04-19T03:37:16.102Z</time></trkpt><trkpt lat="45.408966" lon="10.5398739"><ele>133.0</ele><time>2026-04-19T03:37:55.103Z</time></trkpt><trkpt lat="45.4089051" lon="10.5398983"><ele>133.0</ele><time>2026-04-19T03:39:41.091Z</time></trkpt><trkpt lat="45.4088405" lon="10.5398937"><ele>133.0</ele><time>2026-04-19T03:42:24.101Z</time></trkpt><trkpt lat="45.4089226" lon="10.5398961"><ele>133.0</ele><time>2026-04-19T03:42:47.098Z</time></trkpt><trkpt lat="45.4089801" lon="10.5398324"><ele>133.0</ele><time>2026-04-19T03:43:46.098Z</time></trkpt><trkpt lat="45.4089398" lon="10.5397626"><ele>133.0</ele><time>2026-04-19T03:44:03.096Z</time></trkpt><trkpt lat="45.4088764" lon="10.5397708"><ele>133.0</ele><time>2026-04-19T03:44:11.104Z</time></trkpt><trkpt lat="45.4089419" lon="10.5397951"><ele>133.0</ele><time>2026-04-19T03:44:38.095Z</time></trkpt><trkpt lat="45.4088815" lon="10.5398505"><ele>133.0</ele><time>2026-04-19T03:44:44.103Z</time></trkpt><trkpt lat="45.4088006" lon="10.5398632"><ele>133.0</ele><time>2026-04-19T03:45:02.096Z</time></trkpt><trkpt lat="45.4088695" lon="10.5398109"><ele>133.0</ele><time>2026-04-19T03:45:33.102Z</time></trkpt><trkpt lat="45.4088927" lon="10.5399054"><ele>133.0</ele><time>2026-04-19T03:45:51.092Z</time></trkpt><trkpt lat="45.4089406" lon="10.5399737"><ele>133.0</ele><time>2026-04-19T03:46:18.093Z</time></trkpt><trkpt lat="45.4088574" lon="10.5399309"><ele>133.0</ele><time>2026-04-19T03:46:37.102Z</time></trkpt><trkpt lat="45.4087805" lon="10.5399146"><ele>133.0</ele><time>2026-04-19T03:46:38.102Z</time></trkpt><trkpt lat="45.408847" lon="10.5399098"><ele>133.0</ele><time>2026-04-19T03:46:55.103Z</time></trkpt><trkpt lat="45.4088759" lon="10.5398275"><ele>133.0</ele><time>2026-04-19T03:47:02.101Z</time></trkpt><trkpt lat="45.4089306" lon="10.5397733"><ele>133.0</ele><time>2026-04-19T03:47:19.102Z</time></trkpt><trkpt lat="45.4088705" lon="10.5398047"><ele>133.0</ele><time>2026-04-19T03:47:39.093Z</time></trkpt><trkpt lat="45.4089364" lon="10.5398169"><ele>133.0</ele><time>2026-04-19T03:48:08.092Z</time></trkpt><trkpt lat="45.4090237" lon="10.5398182"><ele>133.0</ele><time>2026-04-19T03:48:25.1Z</time></trkpt><trkpt lat="45.4090888" lon="10.5398801"><ele>133.0</ele><time>2026-04-19T03:48:42.089Z</time></trkpt><trkpt lat="45.4090271" lon="10.5399316"><ele>133.0</ele><time>2026-04-19T03:48:57.1Z</time></trkpt><trkpt lat="45.4088584" lon="10.539914"><ele>133.0</ele><time>2026-04-19T03:49:27.099Z</time></trkpt><trkpt lat="45.4087775" lon="10.5399038"><ele>133.0</ele><time>2026-04-19T03:49:29.101Z</time></trkpt><trkpt lat="45.408837" lon="10.5398571"><ele>133.0</ele><time>2026-04-19T03:49:44.104Z</time></trkpt><trkpt lat="45.4089359" lon="10.5398685"><ele>133.0</ele><time>2026-04-19T03:50:08.1Z</time></trkpt><trkpt lat="45.4088685" lon="10.5399046"><ele>133.0</ele><time>2026-04-19T03:51:22.097Z</time></trkpt><trkpt lat="45.4088018" lon="10.5399234"><ele>133.0</ele><time>2026-04-19T03:51:42.092Z</time></trkpt><trkpt lat="45.408725" lon="10.5399151"><ele>133.0</ele><time>2026-04-19T03:51:44.094Z</time></trkpt><trkpt lat="45.4086568" lon="10.5399119"><ele>133.0</ele><time>2026-04-19T03:51:48.099Z</time></trkpt><trkpt lat="45.4087531" lon="10.5398983"><ele>133.0</ele><time>2026-04-19T03:51:55.095Z</time></trkpt><trkpt lat="45.4088175" lon="10.5398931"><ele>133.0</ele><time>2026-04-19T03:52:02.095Z</time></trkpt><trkpt lat="45.4089213" lon="10.5398385"><ele>133.0</ele><time>2026-04-19T03:53:04.088Z</time></trkpt><trkpt lat="45.4089793" lon="10.539893"><ele>133.0</ele><time>2026-04-19T03:53:33.102Z</time></trkpt><trkpt lat="45.4089072" lon="10.5399533"><ele>133.0</ele><time>2026-04-19T03:53:42.095Z</time></trkpt><trkpt lat="45.4088393" lon="10.539964"><ele>133.0</ele><time>2026-04-19T03:53:47.092Z</time></trkpt><trkpt lat="45.4087538" lon="10.5399079"><ele>133.0</ele><time>2026-04-19T03:53:56.099Z</time></trkpt><trkpt lat="45.4088328" lon="10.5398682"><ele>133.0</ele><time>2026-04-19T03:54:04.098Z</time></trkpt><trkpt lat="45.4089417" lon="10.5398472"><ele>133.0</ele><time>2026-04-19T03:54:13.099Z</time></trkpt><trkpt lat="45.409055" lon="10.5398443"><ele>133.0</ele><time>2026-04-19T03:54:38.091Z</time></trkpt><trkpt lat="45.4089866" lon="10.5398679"><ele>133.0</ele><time>2026-04-19T03:55:26.105Z</time></trkpt><trkpt lat="45.4089039" lon="10.5398575"><ele>133.0</ele><time>2026-04-19T03:55:49.09Z</time></trkpt><trkpt lat="45.408966" lon="10.5398827"><ele>133.0</ele><time>2026-04-19T03:58:16.087Z</time></trkpt><trkpt lat="45.4089086" lon="10.5398376"><ele>133.0</ele><time>2026-04-19T04:01:49.1Z</time></trkpt><trkpt lat="45.4089449" lon="10.5397639"><ele>133.0</ele><time>2026-04-19T04:02:02.094Z</time></trkpt><trkpt lat="45.4089602" lon="10.5398533"><ele>133.0</ele><time>2026-04-19T04:02:37.09Z</time></trkpt><trkpt lat="45.4090206" lon="10.5398093"><ele>133.0</ele><time>2026-04-19T04:03:31.088Z</time></trkpt><trkpt lat="45.4089485" lon="10.5398617"><ele>133.0</ele><time>2026-04-19T04:05:58.087Z</time></trkpt><trkpt lat="45.4090343" lon="10.5398348"><ele>133.0</ele><time>2026-04-19T04:14:06.092Z</time></trkpt><trkpt lat="45.408966" lon="10.5398391"><ele>133.0</ele><time>2026-04-19T04:19:10.088Z</time></trkpt><trkpt lat="45.4089138" lon="10.5399045"><ele>133.0</ele><time>2026-04-19T04:19:40.091Z</time></trkpt><trkpt lat="45.4088452" lon="10.5399158"><ele>133.0</ele><time>2026-04-19T04:20:58.099Z</time></trkpt><trkpt lat="45.4089284" lon="10.5398693"><ele>133.0</ele><time>2026-04-19T04:22:08.089Z</time></trkpt><trkpt lat="45.408985" lon="10.5398033"><ele>133.0</ele><time>2026-04-19T04:25:25.091Z</time></trkpt><trkpt lat="45.4089389" lon="10.5398794"><ele>133.0</ele><time>2026-04-19T04:26:22.089Z</time></trkpt><trkpt lat="45.4089956" lon="10.5398003"><ele>133.0</ele><time>2026-04-19T04:27:30.094Z</time></trkpt><trkpt lat="45.4089272" lon="10.539823"><ele>133.0</ele><time>2026-04-19T04:39:55.096Z</time></trkpt><trkpt lat="45.4088606" lon="10.5398181"><ele>133.0</ele><time>2026-04-19T04:40:51.097Z</time></trkpt><trkpt lat="45.4089678" lon="10.5398593"><ele>133.0</ele><time>2026-04-19T04:42:30.096Z</time></trkpt><trkpt lat="45.409033" lon="10.5397879"><ele>133.0</ele><time>2026-04-19T04:46:32.094Z</time></trkpt><trkpt lat="45.4089709" lon="10.5398268"><ele>133.0</ele><time>2026-04-19T04:46:50.096Z</time></trkpt><trkpt lat="45.4089078" lon="10.5398616"><ele>133.0</ele><time>2026-04-19T04:48:48.091Z</time></trkpt><trkpt lat="45.4089621" lon="10.5397852"><ele>133.0</ele><time>2026-04-19T04:53:36.094Z</time></trkpt><trkpt lat="45.4090403" lon="10.539768"><ele>133.0</ele><time>2026-04-19T04:53:49.088Z</time></trkpt><trkpt lat="45.4089565" lon="10.5398065"><ele>133.0</ele><time>2026-04-19T04:59:15.087Z</time></trkpt><trkpt lat="45.4090307" lon="10.5399127"><ele>133.0</ele><time>2026-04-19T04:59:32.091Z</time></trkpt><trkpt lat="45.409023" lon="10.5398157"><ele>133.0</ele><time>2026-04-19T04:59:45.09Z</time></trkpt><trkpt lat="45.4090851" lon="10.5398808"><ele>133.0</ele><time>2026-04-19T05:00:33.094Z</time></trkpt><trkpt lat="45.4089625" lon="10.5398145"><ele>133.0</ele><time>2026-04-19T05:00:51.095Z</time></trkpt><trkpt lat="45.4088858" lon="10.5398156"><ele>133.0</ele><time>2026-04-19T05:01:32.095Z</time></trkpt><trkpt lat="45.4089845" lon="10.5398043"><ele>133.0</ele><time>2026-04-19T05:01:45.091Z</time></trkpt><trkpt lat="45.4090481" lon="10.539813"><ele>133.0</ele><time>2026-04-19T05:01:55.095Z</time></trkpt><trkpt lat="45.4089793" lon="10.5397514"><ele>133.0</ele><time>2026-04-19T05:02:05.088Z</time></trkpt><trkpt lat="45.4090107" lon="10.5398332"><ele>133.0</ele><time>2026-04-19T05:03:02.097Z</time></trkpt><trkpt lat="45.4089332" lon="10.5397693"><ele>133.0</ele><time>2026-04-19T05:07:25.089Z</time></trkpt><trkpt lat="45.4089721" lon="10.5398499"><ele>133.0</ele><time>2026-04-19T05:07:37.095Z</time></trkpt><trkpt lat="45.4090407" lon="10.5398863"><ele>133.0</ele><time>2026-04-19T05:08:15.088Z</time></trkpt><trkpt lat="45.4089896" lon="10.5398309"><ele>133.0</ele><time>2026-04-19T05:08:40.093Z</time></trkpt><trkpt lat="45.4088672" lon="10.5398259"><ele>133.0</ele><time>2026-04-19T05:08:41.093Z</time></trkpt><trkpt lat="45.4089298" lon="10.5397601"><ele>133.0</ele><time>2026-04-19T05:09:45.087Z</time></trkpt><trkpt lat="45.4089868" lon="10.5398341"><ele>133.0</ele><time>2026-04-19T05:10:12.094Z</time></trkpt><trkpt lat="45.4090478" lon="10.5398055"><ele>133.0</ele><time>2026-04-19T05:10:16.088Z</time></trkpt><trkpt lat="45.4091091" lon="10.5397693"><ele>133.0</ele><time>2026-04-19T05:10:48.089Z</time></trkpt><trkpt lat="45.4090018" lon="10.5396804"><ele>133.0</ele><time>2026-04-19T05:12:27.089Z</time></trkpt><trkpt lat="45.4090179" lon="10.5397759"><ele>133.0</ele><time>2026-04-19T05:13:50.088Z</time></trkpt><trkpt lat="45.4089473" lon="10.5397381"><ele>133.0</ele><time>2026-04-19T05:14:19.092Z</time></trkpt><trkpt lat="45.4090061" lon="10.5397841"><ele>133.0</ele><time>2026-04-19T05:15:13.096Z</time></trkpt><trkpt lat="45.4090307" lon="10.5399219"><ele>133.0</ele><time>2026-04-19T05:18:08.089Z</time></trkpt><trkpt lat="45.4089821" lon="10.5397684"><ele>133.0</ele><time>2026-04-19T05:19:15.089Z</time></trkpt><trkpt lat="45.4089191" lon="10.5397366"><ele>133.0</ele><time>2026-04-19T05:36:47.083Z</time></trkpt><trkpt lat="45.4089823" lon="10.5397539"><ele>133.0</ele><time>2026-04-19T05:38:28.094Z</time></trkpt><trkpt lat="45.4089505" lon="10.5398408"><ele>133.0</ele><time>2026-04-19T05:41:51.094Z</time></trkpt><trkpt lat="45.4088574" lon="10.5398141"><ele>133.0</ele><time>2026-04-19T05:54:20.088Z</time></trkpt><trkpt lat="45.4089147" lon="10.5398751"><ele>133.0</ele><time>2026-04-19T05:54:31.092Z</time></trkpt><trkpt lat="45.4090173" lon="10.5398829"><ele>133.0</ele><time>2026-04-19T05:54:47.086Z</time></trkpt><trkpt lat="45.4090815" lon="10.5398688"><ele>133.0</ele><time>2026-04-19T05:55:06.089Z</time></trkpt><trkpt lat="45.4090114" lon="10.5398567"><ele>133.0</ele><time>2026-04-19T05:56:36.095Z</time></trkpt><trkpt lat="45.4089431" lon="10.5398472"><ele>133.0</ele><time>2026-04-19T05:56:46.084Z</time></trkpt><trkpt lat="45.4090126" lon="10.5398761"><ele>133.0</ele><time>2026-04-19T05:57:29.092Z</time></trkpt><trkpt lat="45.4089649" lon="10.5398142"><ele>133.0</ele><time>2026-04-19T05:58:30.088Z</time></trkpt><trkpt lat="45.4090251" lon="10.5398588"><ele>133.0</ele><time>2026-04-19T05:59:29.087Z</time></trkpt><trkpt lat="45.4089567" lon="10.5397982"><ele>133.0</ele><time>2026-04-19T06:00:07.091Z</time></trkpt><trkpt lat="45.4088606" lon="10.5398109"><ele>133.0</ele><time>2026-04-19T06:00:26.095Z</time></trkpt><trkpt lat="45.4087971" lon="10.5397729"><ele>133.0</ele><time>2026-04-19T06:00:31.09Z</time></trkpt><trkpt lat="45.4088814" lon="10.5398167"><ele>133.0</ele><time>2026-04-19T06:00:47.093Z</time></trkpt><trkpt lat="45.408982" lon="10.5398264"><ele>133.0</ele><time>2026-04-19T06:01:06.089Z</time></trkpt><trkpt lat="45.4089161" lon="10.5398303"><ele>133.0</ele><time>2026-04-19T06:02:03.092Z</time></trkpt><trkpt lat="45.4090235" lon="10.5398472"><ele>133.0</ele><time>2026-04-19T06:02:59.089Z</time></trkpt><trkpt lat="45.4089565" lon="10.5398582"><ele>133.0</ele><time>2026-04-19T06:05:16.088Z</time></trkpt><trkpt lat="45.4090059" lon="10.5399153"><ele>133.0</ele><time>2026-04-19T06:06:16.092Z</time></trkpt><trkpt lat="45.4089435" lon="10.5398842"><ele>133.0</ele><time>2026-04-19T06:06:37.085Z</time></trkpt><trkpt lat="45.4088833" lon="10.539852"><ele>133.0</ele><time>2026-04-19T06:06:43.089Z</time></trkpt><trkpt lat="45.4089667" lon="10.5397883"><ele>133.0</ele><time>2026-04-19T06:07:44.089Z</time></trkpt><trkpt lat="45.4090201" lon="10.5397212"><ele>133.0</ele><time>2026-04-19T06:08:08.092Z</time></trkpt><trkpt lat="45.4089675" lon="10.53981"><ele>133.0</ele><time>2026-04-19T06:08:44.097Z</time></trkpt><trkpt lat="45.409049" lon="10.5397738"><ele>133.0</ele><time>2026-04-19T06:10:28.093Z</time></trkpt><trkpt lat="45.4089847" lon="10.5397917"><ele>133.0</ele><time>2026-04-19T06:10:56.087Z</time></trkpt><trkpt lat="45.408919" lon="10.5398184"><ele>133.0</ele><time>2026-04-19T06:14:07.088Z</time></trkpt><trkpt lat="45.4088156" lon="10.539768"><ele>133.0</ele><time>2026-04-19T06:14:09.094Z</time></trkpt><trkpt lat="45.4088794" lon="10.5398288"><ele>133.0</ele><time>2026-04-19T06:14:38.085Z</time></trkpt><trkpt lat="45.4088365" lon="10.5399035"><ele>133.0</ele><time>2026-04-19T06:15:53.092Z</time></trkpt><trkpt lat="45.4088479" lon="10.5398116"><ele>133.0</ele><time>2026-04-19T06:16:32.083Z</time></trkpt><trkpt lat="45.4089076" lon="10.5397072"><ele>133.0</ele><time>2026-04-19T06:16:58.091Z</time></trkpt><trkpt lat="45.4089198" lon="10.5397962"><ele>133.0</ele><time>2026-04-19T06:17:09.086Z</time></trkpt><trkpt lat="45.408889" lon="10.5398883"><ele>133.0</ele><time>2026-04-19T06:18:26.083Z</time></trkpt><trkpt lat="45.4088222" lon="10.5398658"><ele>133.0</ele><time>2026-04-19T06:19:48.084Z</time></trkpt><trkpt lat="45.4089444" lon="10.5398378"><ele>133.0</ele><time>2026-04-19T06:19:54.084Z</time></trkpt><trkpt lat="45.4089762" lon="10.5397591"><ele>133.0</ele><time>2026-04-19T06:20:14.087Z</time></trkpt><trkpt lat="45.408884" lon="10.5397824"><ele>133.0</ele><time>2026-04-19T06:21:25.086Z</time></trkpt><trkpt lat="45.4089659" lon="10.5398577"><ele>133.0</ele><time>2026-04-19T06:22:06.084Z</time></trkpt><trkpt lat="45.4090271" lon="10.5398079"><ele>133.0</ele><time>2026-04-19T06:23:29.081Z</time></trkpt><trkpt lat="45.4089589" lon="10.5398319"><ele>133.0</ele><time>2026-04-19T06:24:15.09Z</time></trkpt><trkpt lat="45.4090469" lon="10.5398645"><ele>133.0</ele><time>2026-04-19T06:28:00.09Z</time></trkpt><trkpt lat="45.4089841" lon="10.5398546"><ele>133.0</ele><time>2026-04-19T06:28:32.091Z</time></trkpt><trkpt lat="45.4088875" lon="10.5398506"><ele>133.0</ele><time>2026-04-19T06:30:18.093Z</time></trkpt><trkpt lat="45.4089525" lon="10.5398473"><ele>133.0</ele><time>2026-04-19T06:30:23.082Z</time></trkpt><trkpt lat="45.4088234" lon="10.5398466"><ele>133.0</ele><time>2026-04-19T06:31:38.084Z</time></trkpt><trkpt lat="45.408938" lon="10.5398725"><ele>133.0</ele><time>2026-04-19T06:32:37.09Z</time></trkpt><trkpt lat="45.4089816" lon="10.5397982"><ele>133.0</ele><time>2026-04-19T06:35:08.093Z</time></trkpt><trkpt lat="45.4088859" lon="10.5398181"><ele>133.0</ele><time>2026-04-19T06:37:50.091Z</time></trkpt><trkpt lat="45.4088796" lon="10.5397263"><ele>133.0</ele><time>2026-04-19T06:38:53.088Z</time></trkpt><trkpt lat="45.4089597" lon="10.5397166"><ele>133.0</ele><time>2026-04-19T06:39:26.09Z</time></trkpt><trkpt lat="45.4089379" lon="10.5398139"><ele>133.0</ele><time>2026-04-19T06:39:41.082Z</time></trkpt><trkpt lat="45.4088994" lon="10.5399003"><ele>133.0</ele><time>2026-04-19T06:43:13.073Z</time></trkpt><trkpt lat="45.4089447" lon="10.5398372"><ele>133.0</ele><time>2026-04-19T06:43:57.088Z</time></trkpt><trkpt lat="45.409021" lon="10.5398468"><ele>133.0</ele><time>2026-04-19T06:46:47.086Z</time></trkpt><trkpt lat="45.4089197" lon="10.5398849"><ele>133.0</ele><time>2026-04-19T06:49:00.091Z</time></trkpt><trkpt lat="45.408925" lon="10.539795"><ele>133.0</ele><time>2026-04-19T06:49:55.092Z</time></trkpt><trkpt lat="45.4089813" lon="10.5398392"><ele>133.0</ele><time>2026-04-19T06:50:35.091Z</time></trkpt><trkpt lat="45.4089029" lon="10.5397523"><ele>133.0</ele><time>2026-04-19T07:01:12.092Z</time></trkpt><trkpt lat="45.4089657" lon="10.5397888"><ele>133.0</ele><time>2026-04-19T07:01:58.082Z</time></trkpt><trkpt lat="45.4090355" lon="10.539782"><ele>133.0</ele><time>2026-04-19T07:02:38.085Z</time></trkpt><trkpt lat="45.409021" lon="10.5396741"><ele>133.0</ele><time>2026-04-19T07:02:45.093Z</time></trkpt><trkpt lat="45.4089602" lon="10.5396996"><ele>133.0</ele><time>2026-04-19T07:02:58.091Z</time></trkpt><trkpt lat="45.4088722" lon="10.5397158"><ele>133.0</ele><time>2026-04-19T07:03:19.083Z</time></trkpt><trkpt lat="45.4088417" lon="10.5397952"><ele>133.0</ele><time>2026-04-19T07:03:54.075Z</time></trkpt><trkpt lat="45.4089051" lon="10.5398086"><ele>133.0</ele><time>2026-04-19T07:04:06.085Z</time></trkpt><trkpt lat="45.408928" lon="10.5398984"><ele>133.0</ele><time>2026-04-19T07:04:24.083Z</time></trkpt><trkpt lat="45.4089887" lon="10.5398738"><ele>133.0</ele><time>2026-04-19T07:04:37.085Z</time></trkpt><trkpt lat="45.4089321" lon="10.539818"><ele>133.0</ele><time>2026-04-19T07:04:54.087Z</time></trkpt><trkpt lat="45.4088859" lon="10.5396967"><ele>133.0</ele><time>2026-04-19T07:12:35.086Z</time></trkpt><trkpt lat="45.4089346" lon="10.5397539"><ele>133.0</ele><time>2026-04-19T07:12:41.094Z</time></trkpt><trkpt lat="45.4088937" lon="10.5398231"><ele>133.0</ele><time>2026-04-19T07:16:24.082Z</time></trkpt><trkpt lat="45.4089922" lon="10.5398845"><ele>133.0</ele><time>2026-04-19T07:17:56.086Z</time></trkpt><trkpt lat="45.408926" lon="10.539866"><ele>133.0</ele><time>2026-04-19T07:18:52.092Z</time></trkpt><trkpt lat="45.4089762" lon="10.5398097"><ele>133.0</ele><time>2026-04-19T07:21:26.086Z</time></trkpt><trkpt lat="45.40905" lon="10.5398462"><ele>133.0</ele><time>2026-04-19T07:21:42.08Z</time></trkpt><trkpt lat="45.4089901" lon="10.5397746"><ele>133.0</ele><time>2026-04-19T07:23:22.091Z</time></trkpt><trkpt lat="45.4090164" lon="10.5398989"><ele>133.0</ele><time>2026-04-19T07:24:31.086Z</time></trkpt><trkpt lat="45.4089518" lon="10.5398553"><ele>133.0</ele><time>2026-04-19T07:25:05.081Z</time></trkpt><trkpt lat="45.4088789" lon="10.5398347"><ele>133.0</ele><time>2026-04-19T07:26:42.081Z</time></trkpt><trkpt lat="45.4088132" lon="10.5398087"><ele>133.0</ele><time>2026-04-19T07:26:50.086Z</time></trkpt><trkpt lat="45.4088755" lon="10.5398308"><ele>133.0</ele><time>2026-04-19T07:27:16.082Z</time></trkpt><trkpt lat="45.4089373" lon="10.5398976"><ele>133.0</ele><time>2026-04-19T07:27:28.089Z</time></trkpt><trkpt lat="45.4090311" lon="10.5399737"><ele>133.0</ele><time>2026-04-19T07:27:30.089Z</time></trkpt><trkpt lat="45.4091207" lon="10.5400444"><ele>133.0</ele><time>2026-04-19T07:27:34.087Z</time></trkpt><trkpt lat="45.4090547" lon="10.5400052"><ele>133.0</ele><time>2026-04-19T07:27:53.091Z</time></trkpt><trkpt lat="45.4089967" lon="10.539942"><ele>133.0</ele><time>2026-04-19T07:27:58.083Z</time></trkpt><trkpt lat="45.4089412" lon="10.5398624"><ele>133.0</ele><time>2026-04-19T07:30:49.078Z</time></trkpt><trkpt lat="45.4089081" lon="10.5399399"><ele>133.0</ele><time>2026-04-19T07:32:51.083Z</time></trkpt><trkpt lat="45.4089812" lon="10.5399615"><ele>133.0</ele><time>2026-04-19T07:35:22.091Z</time></trkpt><trkpt lat="45.408898" lon="10.53998"><ele>133.0</ele><time>2026-04-19T07:35:26.09Z</time></trkpt><trkpt lat="45.4088218" lon="10.5399714"><ele>133.0</ele><time>2026-04-19T07:35:59.089Z</time></trkpt><trkpt lat="45.4088744" lon="10.5400349"><ele>133.0</ele><time>2026-04-19T07:36:07.087Z</time></trkpt><trkpt lat="45.4088135" lon="10.5400763"><ele>133.0</ele><time>2026-04-19T07:36:21.08Z</time></trkpt><trkpt lat="45.40876" lon="10.5401278"><ele>133.0</ele><time>2026-04-19T07:36:28.082Z</time></trkpt><trkpt lat="45.4086893" lon="10.5401635"><ele>133.0</ele><time>2026-04-19T07:36:32.09Z</time></trkpt><trkpt lat="45.4086284" lon="10.5402123"><ele>133.0</ele><time>2026-04-19T07:36:34.086Z</time></trkpt><trkpt lat="45.4086674" lon="10.5401018"><ele>133.0</ele><time>2026-04-19T07:36:39.081Z</time></trkpt><trkpt lat="45.4087317" lon="10.5399953"><ele>133.0</ele><time>2026-04-19T07:36:41.091Z</time></trkpt><trkpt lat="45.4088015" lon="10.5399856"><ele>133.0</ele><time>2026-04-19T07:36:52.088Z</time></trkpt><trkpt lat="45.4088799" lon="10.539952"><ele>133.0</ele><time>2026-04-19T07:36:55.082Z</time></trkpt><trkpt lat="45.4089746" lon="10.5398166"><ele>133.0</ele><time>2026-04-19T07:37:13.087Z</time></trkpt><trkpt lat="45.408905" lon="10.5397901"><ele>133.0</ele><time>2026-04-19T07:37:36.083Z</time></trkpt><trkpt lat="45.4089784" lon="10.5397766"><ele>133.0</ele><time>2026-04-19T07:37:54.084Z</time></trkpt><trkpt lat="45.409031" lon="10.5396749"><ele>133.0</ele><time>2026-04-19T07:38:23.083Z</time></trkpt><trkpt lat="45.4090922" lon="10.5396444"><ele>133.0</ele><time>2026-04-19T07:38:27.085Z</time></trkpt><trkpt lat="45.4090369" lon="10.53969"><ele>133.0</ele><time>2026-04-19T07:38:35.086Z</time></trkpt><trkpt lat="45.4089825" lon="10.5397531"><ele>133.0</ele><time>2026-04-19T07:38:45.092Z</time></trkpt><trkpt lat="45.408918" lon="10.5397689"><ele>133.0</ele><time>2026-04-19T07:38:51.084Z</time></trkpt><trkpt lat="45.4088801" lon="10.5398423"><ele>133.0</ele><time>2026-04-19T07:39:49.09Z</time></trkpt><trkpt lat="45.4089302" lon="10.5399208"><ele>133.0</ele><time>2026-04-19T07:40:26.083Z</time></trkpt><trkpt lat="45.4090205" lon="10.5398428"><ele>133.0</ele><time>2026-04-19T07:41:24.088Z</time></trkpt><trkpt lat="45.4089494" lon="10.5398518"><ele>133.0</ele><time>2026-04-19T07:43:41.082Z</time></trkpt><trkpt lat="45.4090367" lon="10.5398007"><ele>133.0</ele><time>2026-04-19T07:44:57.088Z</time></trkpt><trkpt lat="45.4089647" lon="10.5398483"><ele>133.0</ele><time>2026-04-19T07:45:06.088Z</time></trkpt><trkpt lat="45.4089239" lon="10.5397797"><ele>133.0</ele><time>2026-04-19T07:46:06.076Z</time></trkpt><trkpt lat="45.4089874" lon="10.5397834"><ele>133.0</ele><time>2026-04-19T07:47:30.081Z</time></trkpt><trkpt lat="45.4089449" lon="10.5398518"><ele>133.0</ele><time>2026-04-19T07:48:57.083Z</time></trkpt><trkpt lat="45.4089026" lon="10.5397623"><ele>133.0</ele><time>2026-04-19T07:49:06.08Z</time></trkpt><trkpt lat="45.4089475" lon="10.539851"><ele>133.0</ele><time>2026-04-19T07:50:05.079Z</time></trkpt><trkpt lat="45.4089171" lon="10.5399636"><ele>133.0</ele><time>2026-04-19T07:50:29.082Z</time></trkpt><trkpt lat="45.4089302" lon="10.5398651"><ele>133.0</ele><time>2026-04-19T07:50:43.078Z</time></trkpt><trkpt lat="45.4088903" lon="10.539781"><ele>133.0</ele><time>2026-04-19T07:51:53.084Z</time></trkpt><trkpt lat="45.4089549" lon="10.539714"><ele>133.0</ele><time>2026-04-19T07:51:57.083Z</time></trkpt><trkpt lat="45.4089336" lon="10.539801"><ele>133.0</ele><time>2026-04-19T07:52:17.09Z</time></trkpt><trkpt lat="45.4088848" lon="10.5398731"><ele>133.0</ele><time>2026-04-19T07:53:39.092Z</time></trkpt><trkpt lat="45.4088125" lon="10.5400022"><ele>133.0</ele><time>2026-04-19T07:53:48.091Z</time></trkpt><trkpt lat="45.4088425" lon="10.5398938"><ele>133.0</ele><time>2026-04-19T07:54:03.086Z</time></trkpt><trkpt lat="45.408892" lon="10.5398041"><ele>133.0</ele><time>2026-04-19T07:55:18.084Z</time></trkpt><trkpt lat="45.4089402" lon="10.5396322"><ele>133.0</ele><time>2026-04-19T07:57:19.088Z</time></trkpt><trkpt lat="45.4088953" lon="10.5396984"><ele>133.0</ele><time>2026-04-19T07:57:33.081Z</time></trkpt><trkpt lat="45.4089311" lon="10.5395629"><ele>133.0</ele><time>2026-04-19T07:58:55.089Z</time></trkpt><trkpt lat="45.4088858" lon="10.5396335"><ele>133.0</ele><time>2026-04-19T07:59:13.085Z</time></trkpt><trkpt lat="45.4089656" lon="10.5397366"><ele>133.0</ele><time>2026-04-19T08:00:32.084Z</time></trkpt><trkpt lat="45.4089269" lon="10.539845"><ele>133.0</ele><time>2026-04-19T08:07:08.08Z</time></trkpt><trkpt lat="45.4089636" lon="10.5397685"><ele>133.0</ele><time>2026-04-19T08:08:41.081Z</time></trkpt><trkpt lat="45.4089643" lon="10.5398634"><ele>133.0</ele><time>2026-04-19T08:10:00.082Z</time></trkpt><trkpt lat="45.4089653" lon="10.5397632"><ele>133.0</ele><time>2026-04-19T08:10:26.079Z</time></trkpt><trkpt lat="45.4090592" lon="10.539753"><ele>133.0</ele><time>2026-04-19T08:11:34.08Z</time></trkpt><trkpt lat="45.4089963" lon="10.5397654"><ele>133.0</ele><time>2026-04-19T08:11:48.081Z</time></trkpt><trkpt lat="45.4090726" lon="10.5397944"><ele>133.0</ele><time>2026-04-19T08:14:29.079Z</time></trkpt><trkpt lat="45.4089936" lon="10.5398471"><ele>133.0</ele><time>2026-04-19T08:15:45.071Z</time></trkpt><trkpt lat="45.4090301" lon="10.5397693"><ele>133.0</ele><time>2026-04-19T08:16:24.082Z</time></trkpt><trkpt lat="45.4089531" lon="10.5398403"><ele>133.0</ele><time>2026-04-19T08:17:17.082Z</time></trkpt><trkpt lat="45.4088713" lon="10.5398598"><ele>133.0</ele><time>2026-04-19T08:17:47.083Z</time></trkpt><trkpt lat="45.408804" lon="10.5399044"><ele>133.0</ele><time>2026-04-19T08:17:50.089Z</time></trkpt><trkpt lat="45.4089238" lon="10.53989"><ele>133.0</ele><time>2026-04-19T08:18:51.077Z</time></trkpt><trkpt lat="45.408999" lon="10.5398791"><ele>133.0</ele><time>2026-04-19T08:18:59.081Z</time></trkpt><trkpt lat="45.4090584" lon="10.5398369"><ele>133.0</ele><time>2026-04-19T08:19:07.08Z</time></trkpt><trkpt lat="45.4090903" lon="10.5397507"><ele>133.0</ele><time>2026-04-19T08:19:57.078Z</time></trkpt><trkpt lat="45.4089822" lon="10.5397803"><ele>133.0</ele><time>2026-04-19T08:20:17.086Z</time></trkpt><trkpt lat="45.4090941" lon="10.5397576"><ele>133.0</ele><time>2026-04-19T08:20:20.078Z</time></trkpt><trkpt lat="45.4090096" lon="10.5397877"><ele>133.0</ele><time>2026-04-19T08:21:10.077Z</time></trkpt><trkpt lat="45.4090678" lon="10.5398579"><ele>133.0</ele><time>2026-04-19T08:21:29.088Z</time></trkpt><trkpt lat="45.4090039" lon="10.5398381"><ele>133.0</ele><time>2026-04-19T08:21:55.087Z</time></trkpt><trkpt lat="45.40893" lon="10.5399065"><ele>133.0</ele><time>2026-04-19T08:22:10.083Z</time></trkpt><trkpt lat="45.4089849" lon="10.5398331"><ele>133.0</ele><time>2026-04-19T08:22:45.085Z</time></trkpt><trkpt lat="45.4090213" lon="10.5399306"><ele>133.0</ele><time>2026-04-19T08:23:14.087Z</time></trkpt><trkpt lat="45.4090599" lon="10.5398367"><ele>133.0</ele><time>2026-04-19T08:23:30.087Z</time></trkpt><trkpt lat="45.4090907" lon="10.5397528"><ele>133.0</ele><time>2026-04-19T08:23:33.085Z</time></trkpt><trkpt lat="45.4090005" lon="10.5397729"><ele>133.0</ele><time>2026-04-19T08:23:58.076Z</time></trkpt><trkpt lat="45.4089337" lon="10.5397304"><ele>133.0</ele><time>2026-04-19T08:24:09.077Z</time></trkpt><trkpt lat="45.4089296" lon="10.5398308"><ele>133.0</ele><time>2026-04-19T08:24:22.08Z</time></trkpt><trkpt lat="45.4088714" lon="10.5399299"><ele>133.0</ele><time>2026-04-19T08:24:49.079Z</time></trkpt><trkpt lat="45.4089263" lon="10.5398736"><ele>133.0</ele><time>2026-04-19T08:25:29.079Z</time></trkpt><trkpt lat="45.4089789" lon="10.5398107"><ele>133.0</ele><time>2026-04-19T08:26:55.078Z</time></trkpt><trkpt lat="45.4090409" lon="10.539869"><ele>133.0</ele><time>2026-04-19T08:28:30.077Z</time></trkpt><trkpt lat="45.408983" lon="10.539796"><ele>133.0</ele><time>2026-04-19T08:28:36.076Z</time></trkpt><trkpt lat="45.4089527" lon="10.5398919"><ele>133.0</ele><time>2026-04-19T08:28:50.088Z</time></trkpt><trkpt lat="45.4089115" lon="10.539962"><ele>133.0</ele><time>2026-04-19T08:32:29.083Z</time></trkpt><trkpt lat="45.4089765" lon="10.539992"><ele>133.0</ele><time>2026-04-19T08:32:42.083Z</time></trkpt><trkpt lat="45.4089953" lon="10.5399045"><ele>133.0</ele><time>2026-04-19T08:32:52.088Z</time></trkpt><trkpt lat="45.4089621" lon="10.5398261"><ele>133.0</ele><time>2026-04-19T08:34:05.089Z</time></trkpt><trkpt lat="45.4089114" lon="10.5399093"><ele>133.0</ele><time>2026-04-19T08:34:21.074Z</time></trkpt><trkpt lat="45.4089032" lon="10.539817"><ele>133.0</ele><time>2026-04-19T08:34:26.079Z</time></trkpt><trkpt lat="45.409008" lon="10.5397878"><ele>133.0</ele><time>2026-04-19T08:35:00.08Z</time></trkpt><trkpt lat="45.4089489" lon="10.5398339"><ele>133.0</ele><time>2026-04-19T08:35:21.089Z</time></trkpt><trkpt lat="45.4089201" lon="10.539933"><ele>133.0</ele><time>2026-04-19T08:35:54.087Z</time></trkpt><trkpt lat="45.4089401" lon="10.5398359"><ele>133.0</ele><time>2026-04-19T08:36:13.084Z</time></trkpt><trkpt lat="45.408995" lon="10.5397708"><ele>133.0</ele><time>2026-04-19T08:39:46.081Z</time></trkpt><trkpt lat="45.4090635" lon="10.5398074"><ele>133.0</ele><time>2026-04-19T08:40:23.087Z</time></trkpt><trkpt lat="45.4090051" lon="10.5398473"><ele>133.0</ele><time>2026-04-19T08:40:34.078Z</time></trkpt><trkpt lat="45.4089373" lon="10.5398574"><ele>133.0</ele><time>2026-04-19T08:44:07.08Z</time></trkpt><trkpt lat="45.4090031" lon="10.5398023"><ele>133.0</ele><time>2026-04-19T08:45:04.087Z</time></trkpt><trkpt lat="45.409046" lon="10.539684"><ele>133.0</ele><time>2026-04-19T08:46:01.089Z</time></trkpt><trkpt lat="45.4090817" lon="10.5395948"><ele>133.0</ele><time>2026-04-19T08:46:10.077Z</time></trkpt><trkpt lat="45.4090254" lon="10.5396441"><ele>133.0</ele><time>2026-04-19T08:46:18.088Z</time></trkpt><trkpt lat="45.4090076" lon="10.5397311"><ele>133.0</ele><time>2026-04-19T08:46:30.084Z</time></trkpt><trkpt lat="45.4089656" lon="10.539808"><ele>133.0</ele><time>2026-04-19T08:46:37.083Z</time></trkpt><trkpt lat="45.4090515" lon="10.5397772"><ele>133.0</ele><time>2026-04-19T08:46:56.078Z</time></trkpt><trkpt lat="45.4090951" lon="10.5397109"><ele>133.0</ele><time>2026-04-19T08:47:07.087Z</time></trkpt><trkpt lat="45.4090275" lon="10.5398181"><ele>133.0</ele><time>2026-04-19T08:47:26.089Z</time></trkpt><trkpt lat="45.4091082" lon="10.5397531"><ele>133.0</ele><time>2026-04-19T08:47:40.09Z</time></trkpt><trkpt lat="45.4091649" lon="10.5396875"><ele>133.0</ele><time>2026-04-19T08:47:41.081Z</time></trkpt><trkpt lat="45.409208" lon="10.5396216"><ele>133.0</ele><time>2026-04-19T08:47:44.08Z</time></trkpt><trkpt lat="45.4092791" lon="10.539517"><ele>133.0</ele><time>2026-04-19T08:47:46.077Z</time></trkpt><trkpt lat="45.4093384" lon="10.5394298"><ele>133.0</ele><time>2026-04-19T08:47:48.093Z</time></trkpt><trkpt lat="45.4092477" lon="10.5395037"><ele>133.0</ele><time>2026-04-19T08:48:02.092Z</time></trkpt><trkpt lat="45.4091995" lon="10.5395715"><ele>133.0</ele><time>2026-04-19T08:48:05.082Z</time></trkpt><trkpt lat="45.4091463" lon="10.5396343"><ele>133.0</ele><time>2026-04-19T08:48:10.082Z</time></trkpt><trkpt lat="45.4090545" lon="10.5397332"><ele>133.0</ele><time>2026-04-19T08:48:13.089Z</time></trkpt><trkpt lat="45.4089797" lon="10.5398201"><ele>133.0</ele><time>2026-04-19T08:48:14.092Z</time></trkpt><trkpt lat="45.4089191" lon="10.539892"><ele>133.0</ele><time>2026-04-19T08:48:15.079Z</time></trkpt><trkpt lat="45.4088593" lon="10.5399697"><ele>133.0</ele><time>2026-04-19T08:48:16.08Z</time></trkpt><trkpt lat="45.408797" lon="10.54005"><ele>133.0</ele><time>2026-04-19T08:48:20.085Z</time></trkpt><trkpt lat="45.4089059" lon="10.5399085"><ele>133.0</ele><time>2026-04-19T08:48:23.088Z</time></trkpt><trkpt lat="45.4089857" lon="10.5398018"><ele>133.0</ele><time>2026-04-19T08:48:33.08Z</time></trkpt><trkpt lat="45.4089337" lon="10.5398707"><ele>133.0</ele><time>2026-04-19T08:49:00.078Z</time></trkpt><trkpt lat="45.4090097" lon="10.5397883"><ele>133.0</ele><time>2026-04-19T08:54:09.081Z</time></trkpt><trkpt lat="45.4090689" lon="10.5397058"><ele>133.0</ele><time>2026-04-19T08:54:23.078Z</time></trkpt><trkpt lat="45.409129" lon="10.5395806"><ele>133.0</ele><time>2026-04-19T08:54:38.079Z</time></trkpt><trkpt lat="45.4090763" lon="10.5396616"><ele>133.0</ele><time>2026-04-19T08:55:01.089Z</time></trkpt><trkpt lat="45.4090135" lon="10.5397544"><ele>133.0</ele><time>2026-04-19T08:55:30.082Z</time></trkpt><trkpt lat="45.408947" lon="10.539836"><ele>133.0</ele><time>2026-04-19T08:55:34.083Z</time></trkpt><trkpt lat="45.4088513" lon="10.5399795"><ele>133.0</ele><time>2026-04-19T08:55:47.075Z</time></trkpt><trkpt lat="45.4089394" lon="10.5398268"><ele>133.0</ele><time>2026-04-19T08:55:49.08Z</time></trkpt><trkpt lat="45.4089673" lon="10.5397388"><ele>133.0</ele><time>2026-04-19T08:55:55.08Z</time></trkpt><trkpt lat="45.4089185" lon="10.5398185"><ele>133.0</ele><time>2026-04-19T08:56:06.08Z</time></trkpt><trkpt lat="45.4089829" lon="10.5397649"><ele>133.0</ele><time>2026-04-19T08:57:07.088Z</time></trkpt><trkpt lat="45.4090631" lon="10.5397842"><ele>133.0</ele><time>2026-04-19T08:57:36.084Z</time></trkpt><trkpt lat="45.4090089" lon="10.5398421"><ele>133.0</ele><time>2026-04-19T08:57:55.089Z</time></trkpt><trkpt lat="45.4089268" lon="10.5398608"><ele>133.0</ele><time>2026-04-19T09:00:44.087Z</time></trkpt><trkpt lat="45.4088596" lon="10.5398545"><ele>133.0</ele><time>2026-04-19T09:00:48.078Z</time></trkpt><trkpt lat="45.4088299" lon="10.5399774"><ele>133.0</ele><time>2026-04-19T09:01:39.076Z</time></trkpt><trkpt lat="45.4088736" lon="10.5398995"><ele>133.0</ele><time>2026-04-19T09:01:49.089Z</time></trkpt><trkpt lat="45.4089258" lon="10.5398289"><ele>133.0</ele><time>2026-04-19T09:02:01.079Z</time></trkpt><trkpt lat="45.4089914" lon="10.539808"><ele>133.0</ele><time>2026-04-19T09:02:06.088Z</time></trkpt><trkpt lat="45.4089301" lon="10.5398603"><ele>133.0</ele><time>2026-04-19T09:02:12.083Z</time></trkpt><trkpt lat="45.4089199" lon="10.5399547"><ele>133.0</ele><time>2026-04-19T09:02:27.978Z</time></trkpt><trkpt lat="45.408978" lon="10.5398812"><ele>133.0</ele><time>2026-04-19T09:02:55.077Z</time></trkpt><trkpt lat="45.409119" lon="10.5397341"><ele>133.0</ele><time>2026-04-19T09:02:56.089Z</time></trkpt><trkpt lat="45.4091938" lon="10.539687"><ele>133.0</ele><time>2026-04-19T09:03:03.088Z</time></trkpt><trkpt lat="45.4091223" lon="10.5396951"><ele>133.0</ele><time>2026-04-19T09:03:07.075Z</time></trkpt><trkpt lat="45.4090578" lon="10.5397295"><ele>133.0</ele><time>2026-04-19T09:03:11.09Z</time></trkpt><trkpt lat="45.409009" lon="10.5398046"><ele>133.0</ele><time>2026-04-19T09:03:25.079Z</time></trkpt><trkpt lat="45.4089428" lon="10.5398175"><ele>133.0</ele><time>2026-04-19T09:04:44.08Z</time></trkpt><trkpt lat="45.408895" lon="10.5398766"><ele>133.0</ele><time>2026-04-19T09:04:58.084Z</time></trkpt><trkpt lat="45.4089494" lon="10.5398166"><ele>133.0</ele><time>2026-04-19T09:05:25.075Z</time></trkpt><trkpt lat="45.4089148" lon="10.5399045"><ele>133.0</ele><time>2026-04-19T09:06:01.086Z</time></trkpt><trkpt lat="45.4089838" lon="10.5398791"><ele>133.0</ele><time>2026-04-19T09:06:26.087Z</time></trkpt><trkpt lat="45.4090672" lon="10.5397755"><ele>133.0</ele><time>2026-04-19T09:06:33.089Z</time></trkpt><trkpt lat="45.4089794" lon="10.5398432"><ele>133.0</ele><time>2026-04-19T09:06:57.078Z</time></trkpt><trkpt lat="45.4089216" lon="10.5398861"><ele>133.0</ele><time>2026-04-19T09:07:10.084Z</time></trkpt><trkpt lat="45.4088662" lon="10.5399414"><ele>133.0</ele><time>2026-04-19T09:07:25.083Z</time></trkpt><trkpt lat="45.4089372" lon="10.5399449"><ele>133.0</ele><time>2026-04-19T09:08:27.077Z</time></trkpt><trkpt lat="45.408978" lon="10.5398732"><ele>133.0</ele><time>2026-04-19T09:08:32.088Z</time></trkpt><trkpt lat="45.4089192" lon="10.539951"><ele>133.0</ele><time>2026-04-19T09:08:40.081Z</time></trkpt><trkpt lat="45.4088753" lon="10.5400154"><ele>133.0</ele><time>2026-04-19T09:08:47.082Z</time></trkpt><trkpt lat="45.408795" lon="10.5401401"><ele>133.0</ele><time>2026-04-19T09:09:21.087Z</time></trkpt><trkpt lat="45.4087356" lon="10.5401952"><ele>133.0</ele><time>2026-04-19T09:09:32.079Z</time></trkpt><trkpt lat="45.4087844" lon="10.5401338"><ele>133.0</ele><time>2026-04-19T09:09:39.076Z</time></trkpt><trkpt lat="45.4087324" lon="10.5401938"><ele>133.0</ele><time>2026-04-19T09:09:40.075Z</time></trkpt><trkpt lat="45.4088057" lon="10.5400765"><ele>133.0</ele><time>2026-04-19T09:09:54.078Z</time></trkpt><trkpt lat="45.4088704" lon="10.5400152"><ele>133.0</ele><time>2026-04-19T09:10:06.074Z</time></trkpt><trkpt lat="45.4089081" lon="10.5399416"><ele>133.0</ele><time>2026-04-19T09:10:11.079Z</time></trkpt><trkpt lat="45.4089922" lon="10.5398788"><ele>133.0</ele><time>2026-04-19T09:14:45.084Z</time></trkpt><trkpt lat="45.4090561" lon="10.539822"><ele>133.0</ele><time>2026-04-19T09:14:57.076Z</time></trkpt><trkpt lat="45.4091287" lon="10.5398203"><ele>133.0</ele><time>2026-04-19T09:15:11.075Z</time></trkpt><trkpt lat="45.4090137" lon="10.5399577"><ele>133.0</ele><time>2026-04-19T09:15:22.073Z</time></trkpt><trkpt lat="45.4090599" lon="10.5398905"><ele>133.0</ele><time>2026-04-19T09:15:31.076Z</time></trkpt><trkpt lat="45.4089724" lon="10.5399099"><ele>133.0</ele><time>2026-04-19T09:16:47.08Z</time></trkpt><trkpt lat="45.409032" lon="10.5398598"><ele>133.0</ele><time>2026-04-19T09:16:59.08Z</time></trkpt><trkpt lat="45.409096" lon="10.5397722"><ele>133.0</ele><time>2026-04-19T09:17:01.075Z</time></trkpt><trkpt lat="45.409152" lon="10.5396872"><ele>133.0</ele><time>2026-04-19T09:17:04.08Z</time></trkpt><trkpt lat="45.4090796" lon="10.5397873"><ele>133.0</ele><time>2026-04-19T09:17:20.085Z</time></trkpt><trkpt lat="45.4090049" lon="10.539886"><ele>133.0</ele><time>2026-04-19T09:17:21.082Z</time></trkpt><trkpt lat="45.409067" lon="10.5397866"><ele>133.0</ele><time>2026-04-19T09:17:44.086Z</time></trkpt><trkpt lat="45.4090063" lon="10.5399101"><ele>133.0</ele><time>2026-04-19T09:18:36.074Z</time></trkpt><trkpt lat="45.4089573" lon="10.5399977"><ele>133.0</ele><time>2026-04-19T09:18:55.075Z</time></trkpt><trkpt lat="45.4090204" lon="10.5398739"><ele>133.0</ele><time>2026-04-19T09:19:07.089Z</time></trkpt><trkpt lat="45.409078" lon="10.5397961"><ele>133.0</ele><time>2026-04-19T09:19:20.087Z</time></trkpt><trkpt lat="45.4090141" lon="10.5397907"><ele>133.0</ele><time>2026-04-19T09:20:00.082Z</time></trkpt><trkpt lat="45.4090147" lon="10.5396822"><ele>133.0</ele><time>2026-04-19T09:22:11.085Z</time></trkpt><trkpt lat="45.4090188" lon="10.5397757"><ele>133.0</ele><time>2026-04-19T09:23:13.075Z</time></trkpt><trkpt lat="45.4090705" lon="10.5397207"><ele>133.0</ele><time>2026-04-19T09:24:37.078Z</time></trkpt><trkpt lat="45.409078" lon="10.5398139"><ele>133.0</ele><time>2026-04-19T09:25:00.074Z</time></trkpt><trkpt lat="45.409082" lon="10.5397233"><ele>133.0</ele><time>2026-04-19T09:26:32.083Z</time></trkpt><trkpt lat="45.4091034" lon="10.5396176"><ele>133.0</ele><time>2026-04-19T09:26:42.086Z</time></trkpt><trkpt lat="45.409193" lon="10.539595"><ele>133.0</ele><time>2026-04-19T09:27:12.075Z</time></trkpt><trkpt lat="45.4091352" lon="10.5396358"><ele>133.0</ele><time>2026-04-19T09:27:23.085Z</time></trkpt><trkpt lat="45.4090681" lon="10.5396503"><ele>133.0</ele><time>2026-04-19T09:27:39.088Z</time></trkpt><trkpt lat="45.4090609" lon="10.5395486"><ele>133.0</ele><time>2026-04-19T09:27:42.076Z</time></trkpt><trkpt lat="45.4091288" lon="10.5396"><ele>133.0</ele><time>2026-04-19T09:28:13.078Z</time></trkpt><trkpt lat="45.4091271" lon="10.5396935"><ele>133.0</ele><time>2026-04-19T09:28:22.075Z</time></trkpt><trkpt lat="45.4090909" lon="10.5397725"><ele>133.0</ele><time>2026-04-19T09:29:37.075Z</time></trkpt><trkpt lat="45.4090512" lon="10.5398551"><ele>133.0</ele><time>2026-04-19T09:29:43.08Z</time></trkpt><trkpt lat="45.4090029" lon="10.5397845"><ele>133.0</ele><time>2026-04-19T09:30:13.086Z</time></trkpt><trkpt lat="45.4089678" lon="10.5398599"><ele>133.0</ele><time>2026-04-19T09:30:45.082Z</time></trkpt><trkpt lat="45.4090182" lon="10.5397846"><ele>133.0</ele><time>2026-04-19T09:31:43.08Z</time></trkpt><trkpt lat="45.408967" lon="10.539849"><ele>133.0</ele><time>2026-04-19T09:33:48.077Z</time></trkpt><trkpt lat="45.4089951" lon="10.5397634"><ele>133.0</ele><time>2026-04-19T09:35:32.083Z</time></trkpt><trkpt lat="45.4090356" lon="10.5396924"><ele>133.0</ele><time>2026-04-19T09:35:46.083Z</time></trkpt><trkpt lat="45.4091241" lon="10.5396771"><ele>133.0</ele><time>2026-04-19T09:36:42.08Z</time></trkpt><trkpt lat="45.4090599" lon="10.539774"><ele>133.0</ele><time>2026-04-19T09:36:55.076Z</time></trkpt><trkpt lat="45.4090174" lon="10.539853"><ele>133.0</ele><time>2026-04-19T09:37:06.075Z</time></trkpt><trkpt lat="45.4090569" lon="10.5399254"><ele>133.0</ele><time>2026-04-19T09:37:15.079Z</time></trkpt><trkpt lat="45.4090082" lon="10.5399852"><ele>133.0</ele><time>2026-04-19T09:38:10.081Z</time></trkpt><trkpt lat="45.409071" lon="10.5399656"><ele>133.0</ele><time>2026-04-19T09:38:28.08Z</time></trkpt><trkpt lat="45.4090788" lon="10.5398278"><ele>133.0</ele><time>2026-04-19T09:38:43.078Z</time></trkpt><trkpt lat="45.4091938" lon="10.539825"><ele>133.0</ele><time>2026-04-19T09:39:25.078Z</time></trkpt><trkpt lat="45.4091448" lon="10.5397412"><ele>133.0</ele><time>2026-04-19T09:39:29.074Z</time></trkpt><trkpt lat="45.4090732" lon="10.5397962"><ele>133.0</ele><time>2026-04-19T09:39:35.085Z</time></trkpt><trkpt lat="45.4090172" lon="10.5398674"><ele>133.0</ele><time>2026-04-19T09:39:45.081Z</time></trkpt><trkpt lat="45.408977" lon="10.5399367"><ele>133.0</ele><time>2026-04-19T09:39:49.085Z</time></trkpt><trkpt lat="45.4089358" lon="10.5400208"><ele>133.0</ele><time>2026-04-19T09:39:58.082Z</time></trkpt><trkpt lat="45.4089277" lon="10.5399307"><ele>133.0</ele><time>2026-04-19T09:40:38.082Z</time></trkpt><trkpt lat="45.4089748" lon="10.5400088"><ele>133.0</ele><time>2026-04-19T09:40:53.074Z</time></trkpt><trkpt lat="45.4090632" lon="10.5400382"><ele>133.0</ele><time>2026-04-19T09:41:06.079Z</time></trkpt><trkpt lat="45.409099" lon="10.5401268"><ele>133.0</ele><time>2026-04-19T09:41:12.084Z</time></trkpt><trkpt lat="45.4091667" lon="10.5401145"><ele>133.0</ele><time>2026-04-19T09:41:37.078Z</time></trkpt><trkpt lat="45.409148" lon="10.5400278"><ele>133.0</ele><time>2026-04-19T09:41:49.073Z</time></trkpt><trkpt lat="45.4090945" lon="10.5399397"><ele>133.0</ele><time>2026-04-19T09:41:58.075Z</time></trkpt><trkpt lat="45.4090292" lon="10.5399067"><ele>133.0</ele><time>2026-04-19T09:42:02.084Z</time></trkpt><trkpt lat="45.4089568" lon="10.5398944"><ele>133.0</ele><time>2026-04-19T09:42:07.084Z</time></trkpt><trkpt lat="45.4090233" lon="10.5398832"><ele>133.0</ele><time>2026-04-19T09:42:23.076Z</time></trkpt><trkpt lat="45.4090877" lon="10.5398777"><ele>133.0</ele><time>2026-04-19T09:42:27.083Z</time></trkpt><trkpt lat="45.4090175" lon="10.5399456"><ele>133.0</ele><time>2026-04-19T09:43:10.076Z</time></trkpt><trkpt lat="45.4090631" lon="10.5398793"><ele>133.0</ele><time>2026-04-19T09:43:36.076Z</time></trkpt><trkpt lat="45.4091123" lon="10.5398172"><ele>133.0</ele><time>2026-04-19T09:43:47.083Z</time></trkpt><trkpt lat="45.409161" lon="10.5397557"><ele>133.0</ele><time>2026-04-19T09:44:09.08Z</time></trkpt><trkpt lat="45.4091076" lon="10.539695"><ele>133.0</ele><time>2026-04-19T09:44:28.082Z</time></trkpt><trkpt lat="45.4090239" lon="10.5396342"><ele>133.0</ele><time>2026-04-19T09:45:21.073Z</time></trkpt><trkpt lat="45.4089576" lon="10.5396129"><ele>133.0</ele><time>2026-04-19T09:45:23.08Z</time></trkpt><trkpt lat="45.4088997" lon="10.5396664"><ele>133.0</ele><time>2026-04-19T09:45:31.082Z</time></trkpt><trkpt lat="45.408869" lon="10.5397603"><ele>133.0</ele><time>2026-04-19T09:45:49.085Z</time></trkpt><trkpt lat="45.4088394" lon="10.5398401"><ele>133.0</ele><time>2026-04-19T09:46:23.084Z</time></trkpt><trkpt lat="45.4087878" lon="10.5399038"><ele>133.0</ele><time>2026-04-19T09:46:30.08Z</time></trkpt><trkpt lat="45.4088742" lon="10.5398649"><ele>133.0</ele><time>2026-04-19T09:48:37.076Z</time></trkpt><trkpt lat="45.40885" lon="10.539949"><ele>133.0</ele><time>2026-04-19T09:48:48.075Z</time></trkpt><trkpt lat="45.4089249" lon="10.5399487"><ele>133.0</ele><time>2026-04-19T09:49:11.079Z</time></trkpt><trkpt lat="45.4089858" lon="10.5398862"><ele>133.0</ele><time>2026-04-19T09:49:43.084Z</time></trkpt><trkpt lat="45.4090591" lon="10.5398175"><ele>133.0</ele><time>2026-04-19T09:50:00.078Z</time></trkpt><trkpt lat="45.4089956" lon="10.5398002"><ele>133.0</ele><time>2026-04-19T09:50:22.074Z</time></trkpt><trkpt lat="45.4089399" lon="10.5398723"><ele>133.0</ele><time>2026-04-19T09:50:30.076Z</time></trkpt><trkpt lat="45.408999" lon="10.5398185"><ele>133.0</ele><time>2026-04-19T09:51:59.075Z</time></trkpt><trkpt lat="45.408924" lon="10.5398866"><ele>133.0</ele><time>2026-04-19T09:52:10.078Z</time></trkpt><trkpt lat="45.4089838" lon="10.5398487"><ele>133.0</ele><time>2026-04-19T09:53:41.078Z</time></trkpt><trkpt lat="45.4090381" lon="10.5397882"><ele>133.0</ele><time>2026-04-19T09:54:24.079Z</time></trkpt><trkpt lat="45.408979" lon="10.5398958"><ele>133.0</ele><time>2026-04-19T09:56:11.074Z</time></trkpt><trkpt lat="45.4090358" lon="10.5398554"><ele>133.0</ele><time>2026-04-19T09:56:34.082Z</time></trkpt><trkpt lat="45.4090038" lon="10.5399518"><ele>133.0</ele><time>2026-04-19T09:56:52.072Z</time></trkpt><trkpt lat="45.4089411" lon="10.5400215"><ele>133.0</ele><time>2026-04-19T09:56:54.076Z</time></trkpt><trkpt lat="45.4089909" lon="10.5399422"><ele>133.0</ele><time>2026-04-19T09:57:12.083Z</time></trkpt><trkpt lat="45.4090477" lon="10.5398811"><ele>133.0</ele><time>2026-04-19T09:57:21.083Z</time></trkpt><trkpt lat="45.4089815" lon="10.5398869"><ele>133.0</ele><time>2026-04-19T09:58:00.081Z</time></trkpt><trkpt lat="45.4089199" lon="10.5399333"><ele>133.0</ele><time>2026-04-19T09:58:35.076Z</time></trkpt><trkpt lat="45.4088444" lon="10.5399635"><ele>133.0</ele><time>2026-04-19T09:58:52.078Z</time></trkpt><trkpt lat="45.4089143" lon="10.5398817"><ele>133.0</ele><time>2026-04-19T09:59:12.076Z</time></trkpt><trkpt lat="45.4089745" lon="10.5398213"><ele>133.0</ele><time>2026-04-19T09:59:16.085Z</time></trkpt><trkpt lat="45.4090361" lon="10.5397743"><ele>133.0</ele><time>2026-04-19T09:59:20.078Z</time></trkpt><trkpt lat="45.4090909" lon="10.5397033"><ele>133.0</ele><time>2026-04-19T09:59:25.072Z</time></trkpt><trkpt lat="45.4090344" lon="10.5397788"><ele>133.0</ele><time>2026-04-19T10:00:38.082Z</time></trkpt><trkpt lat="45.4089724" lon="10.5398172"><ele>133.0</ele><time>2026-04-19T10:01:18.079Z</time></trkpt><trkpt lat="45.4090531" lon="10.5398212"><ele>133.0</ele><time>2026-04-19T10:02:38.077Z</time></trkpt><trkpt lat="45.4090195" lon="10.5399056"><ele>133.0</ele><time>2026-04-19T10:03:21.083Z</time></trkpt><trkpt lat="45.4090029" lon="10.539813"><ele>133.0</ele><time>2026-04-19T10:03:56.077Z</time></trkpt><trkpt lat="45.4090486" lon="10.5398787"><ele>133.0</ele><time>2026-04-19T10:05:06.082Z</time></trkpt><trkpt lat="45.4089815" lon="10.5398699"><ele>133.0</ele><time>2026-04-19T10:06:57.083Z</time></trkpt><trkpt lat="45.4088493" lon="10.539913"><ele>133.0</ele><time>2026-04-19T10:09:50.077Z</time></trkpt><trkpt lat="45.408895" lon="10.539845"><ele>133.0</ele><time>2026-04-19T10:09:59.079Z</time></trkpt><trkpt lat="45.4089603" lon="10.539852"><ele>133.0</ele><time>2026-04-19T10:10:28.073Z</time></trkpt><trkpt lat="45.4090529" lon="10.5398645"><ele>133.0</ele><time>2026-04-19T10:10:40.084Z</time></trkpt><trkpt lat="45.4089822" lon="10.5398383"><ele>133.0</ele><time>2026-04-19T10:15:27.08Z</time></trkpt><trkpt lat="45.4090498" lon="10.539811"><ele>133.0</ele><time>2026-04-19T10:21:45.074Z</time></trkpt><trkpt lat="45.4089878" lon="10.5398512"><ele>133.0</ele><time>2026-04-19T10:22:06.083Z</time></trkpt><trkpt lat="45.4089208" lon="10.5398638"><ele>133.0</ele><time>2026-04-19T10:23:46.078Z</time></trkpt><trkpt lat="45.4090129" lon="10.539807"><ele>133.0</ele><time>2026-04-19T10:24:23.082Z</time></trkpt><trkpt lat="45.4089579" lon="10.5398743"><ele>133.0</ele><time>2026-04-19T10:25:35.079Z</time></trkpt><trkpt lat="45.4088851" lon="10.5398906"><ele>133.0</ele><time>2026-04-19T10:25:42.077Z</time></trkpt><trkpt lat="45.4089635" lon="10.5398328"><ele>133.0</ele><time>2026-04-19T10:26:47.079Z</time></trkpt><trkpt lat="45.4089293" lon="10.5399247"><ele>133.0</ele><time>2026-04-19T10:28:14.076Z</time></trkpt><trkpt lat="45.4089995" lon="10.5399332"><ele>133.0</ele><time>2026-04-19T10:28:30.076Z</time></trkpt><trkpt lat="45.4089343" lon="10.5399178"><ele>133.0</ele><time>2026-04-19T10:29:45.078Z</time></trkpt><trkpt lat="45.4089669" lon="10.5398342"><ele>133.0</ele><time>2026-04-19T10:30:06.078Z</time></trkpt><trkpt lat="45.4088858" lon="10.5398613"><ele>133.0</ele><time>2026-04-19T10:31:13.076Z</time></trkpt><trkpt lat="45.4089379" lon="10.539795"><ele>133.0</ele><time>2026-04-19T10:32:10.074Z</time></trkpt><trkpt lat="45.4089354" lon="10.5398866"><ele>133.0</ele><time>2026-04-19T10:32:31.077Z</time></trkpt><trkpt lat="45.4088555" lon="10.5399458"><ele>133.0</ele><time>2026-04-19T10:32:47.087Z</time></trkpt><trkpt lat="45.4089128" lon="10.539901"><ele>133.0</ele><time>2026-04-19T10:33:02.07Z</time></trkpt><trkpt lat="45.4089748" lon="10.5398751"><ele>133.0</ele><time>2026-04-19T10:33:12.079Z</time></trkpt><trkpt lat="45.4090651" lon="10.539806"><ele>133.0</ele><time>2026-04-19T10:34:18.082Z</time></trkpt><trkpt lat="45.4090166" lon="10.5397421"><ele>133.0</ele><time>2026-04-19T10:34:31.075Z</time></trkpt><trkpt lat="45.4090412" lon="10.5398265"><ele>133.0</ele><time>2026-04-19T10:36:04.08Z</time></trkpt><trkpt lat="45.4089745" lon="10.5398088"><ele>133.0</ele><time>2026-04-19T10:37:25.082Z</time></trkpt><trkpt lat="45.4090402" lon="10.5398032"><ele>133.0</ele><time>2026-04-19T10:38:09.073Z</time></trkpt><trkpt lat="45.4089797" lon="10.5398399"><ele>133.0</ele><time>2026-04-19T10:38:29.084Z</time></trkpt><trkpt lat="45.4089209" lon="10.5397961"><ele>133.0</ele><time>2026-04-19T10:39:19.086Z</time></trkpt><trkpt lat="45.4089982" lon="10.5397683"><ele>133.0</ele><time>2026-04-19T10:39:43.083Z</time></trkpt><trkpt lat="45.408945" lon="10.5397066"><ele>133.0</ele><time>2026-04-19T10:40:20.072Z</time></trkpt><trkpt lat="45.408862" lon="10.5397082"><ele>133.0</ele><time>2026-04-19T10:40:22.074Z</time></trkpt><trkpt lat="45.408805" lon="10.5397689"><ele>133.0</ele><time>2026-04-19T10:40:36.087Z</time></trkpt><trkpt lat="45.4088843" lon="10.5397893"><ele>133.0</ele><time>2026-04-19T10:40:47.071Z</time></trkpt><trkpt lat="45.4088156" lon="10.5398063"><ele>133.0</ele><time>2026-04-19T10:41:12.075Z</time></trkpt><trkpt lat="45.408884" lon="10.5397408"><ele>133.0</ele><time>2026-04-19T10:41:15.08Z</time></trkpt><trkpt lat="45.4089631" lon="10.5396884"><ele>133.0</ele><time>2026-04-19T10:41:17.076Z</time></trkpt><trkpt lat="45.4088939" lon="10.539739"><ele>133.0</ele><time>2026-04-19T10:41:23.079Z</time></trkpt><trkpt lat="45.4088195" lon="10.5397904"><ele>133.0</ele><time>2026-04-19T10:41:31.082Z</time></trkpt><trkpt lat="45.4087577" lon="10.5398147"><ele>133.0</ele><time>2026-04-19T10:41:34.073Z</time></trkpt><trkpt lat="45.408685" lon="10.5398395"><ele>133.0</ele><time>2026-04-19T10:41:36.077Z</time></trkpt><trkpt lat="45.4086153" lon="10.5398686"><ele>131.5</ele><time>2026-04-19T10:41:45.085Z</time></trkpt><trkpt lat="45.4087162" lon="10.5398379"><ele>130.0</ele><time>2026-04-19T10:41:53.077Z</time></trkpt><trkpt lat="45.408657" lon="10.5398893"><ele>128.5</ele><time>2026-04-19T10:42:10.076Z</time></trkpt><trkpt lat="45.4085711" lon="10.5399289"><ele>127.0</ele><time>2026-04-19T10:42:13.082Z</time></trkpt><trkpt lat="45.408494" lon="10.5399618"><ele>125.50000000000001</ele><time>2026-04-19T10:42:17.081Z</time></trkpt><trkpt lat="45.4084153" lon="10.5399997"><ele>124.0</ele><time>2026-04-19T10:42:24.726Z</time></trkpt><trkpt lat="45.4083301" lon="10.540065"><ele>124.00000000000001</ele><time>2026-04-19T10:42:31.072Z</time></trkpt><trkpt lat="45.408418" lon="10.5400379"><ele>124.0</ele><time>2026-04-19T10:42:32.074Z</time></trkpt><trkpt lat="45.4085047" lon="10.5400072"><ele>124.0</ele><time>2026-04-19T10:42:33.073Z</time></trkpt><trkpt lat="45.408579" lon="10.5399791"><ele>124.0</ele><time>2026-04-19T10:42:34.083Z</time></trkpt><trkpt lat="45.4086549" lon="10.5399367"><ele>124.00000000000001</ele><time>2026-04-19T10:42:36.077Z</time></trkpt><trkpt lat="45.4087319" lon="10.539899"><ele>124.0</ele><time>2026-04-19T10:42:41.073Z</time></trkpt><trkpt lat="45.4088061" lon="10.5398453"><ele>125.50000000000001</ele><time>2026-04-19T10:42:44.081Z</time></trkpt><trkpt lat="45.4088932" lon="10.539801"><ele>127.0</ele><time>2026-04-19T10:42:48.073Z</time></trkpt><trkpt lat="45.4089458" lon="10.5397428"><ele>128.5</ele><time>2026-04-19T10:43:01.081Z</time></trkpt><trkpt lat="45.4090494" lon="10.5397283"><ele>130.0</ele><time>2026-04-19T10:43:11.078Z</time></trkpt><trkpt lat="45.4091129" lon="10.5397096"><ele>131.5</ele><time>2026-04-19T10:44:09.074Z</time></trkpt><trkpt lat="45.4090803" lon="10.5396208"><ele>133.0</ele><time>2026-04-19T10:45:09.075Z</time></trkpt><trkpt lat="45.4090107" lon="10.5396876"><ele>133.0</ele><time>2026-04-19T10:45:48.074Z</time></trkpt><trkpt lat="45.4089391" lon="10.5397632"><ele>133.0</ele><time>2026-04-19T10:45:54.086Z</time></trkpt><trkpt lat="45.4088583" lon="10.5398002"><ele>133.0</ele><time>2026-04-19T10:46:01.082Z</time></trkpt><trkpt lat="45.4087968" lon="10.5398265"><ele>133.0</ele><time>2026-04-19T10:46:12.071Z</time></trkpt><trkpt lat="45.4088687" lon="10.5397761"><ele>133.0</ele><time>2026-04-19T10:46:52.072Z</time></trkpt><trkpt lat="45.4089759" lon="10.5397687"><ele>133.0</ele><time>2026-04-19T10:48:07.073Z</time></trkpt><trkpt lat="45.4089055" lon="10.5397901"><ele>133.0</ele><time>2026-04-19T10:50:52.082Z</time></trkpt><trkpt lat="45.408845" lon="10.5398376"><ele>133.0</ele><time>2026-04-19T10:51:14.073Z</time></trkpt><trkpt lat="45.4088998" lon="10.539789"><ele>133.0</ele><time>2026-04-19T10:51:51.086Z</time></trkpt><trkpt lat="45.4089601" lon="10.539708"><ele>133.0</ele><time>2026-04-19T10:51:57.083Z</time></trkpt><trkpt lat="45.4090389" lon="10.5396707"><ele>133.0</ele><time>2026-04-19T10:52:13.084Z</time></trkpt><trkpt lat="45.4089848" lon="10.5397415"><ele>133.0</ele><time>2026-04-19T10:52:21.086Z</time></trkpt><trkpt lat="45.4089378" lon="10.5398702"><ele>133.0</ele><time>2026-04-19T10:52:45.079Z</time></trkpt><trkpt lat="45.4088616" lon="10.539897"><ele>133.0</ele><time>2026-04-19T10:53:33.077Z</time></trkpt><trkpt lat="45.4089184" lon="10.5398339"><ele>133.0</ele><time>2026-04-19T10:53:57.074Z</time></trkpt><trkpt lat="45.4089867" lon="10.539805"><ele>133.0</ele><time>2026-04-19T10:54:38.074Z</time></trkpt><trkpt lat="45.4089109" lon="10.5398566"><ele>133.0</ele><time>2026-04-19T10:56:03.084Z</time></trkpt><trkpt lat="45.4088288" lon="10.5398651"><ele>133.0</ele><time>2026-04-19T10:56:19.086Z</time></trkpt><trkpt lat="45.4088994" lon="10.5398262"><ele>133.0</ele><time>2026-04-19T10:56:37.085Z</time></trkpt><trkpt lat="45.4089531" lon="10.5397751"><ele>133.0</ele><time>2026-04-19T10:56:40.073Z</time></trkpt><trkpt lat="45.409013" lon="10.5397456"><ele>133.0</ele><time>2026-04-19T10:58:14.075Z</time></trkpt><trkpt lat="45.4089723" lon="10.5398154"><ele>133.0</ele><time>2026-04-19T11:01:08.072Z</time></trkpt><trkpt lat="45.4089032" lon="10.539794"><ele>133.0</ele><time>2026-04-19T11:01:56.078Z</time></trkpt><trkpt lat="45.4089564" lon="10.5397322"><ele>133.0</ele><time>2026-04-19T11:18:14.069Z</time></trkpt><trkpt lat="45.4090204" lon="10.5396598"><ele>133.0</ele><time>2026-04-19T11:18:28.078Z</time></trkpt><trkpt lat="45.409009" lon="10.5397538"><ele>133.0</ele><time>2026-04-19T11:21:13.072Z</time></trkpt><trkpt lat="45.4090177" lon="10.5396602"><ele>133.0</ele><time>2026-04-19T11:23:59.076Z</time></trkpt><trkpt lat="45.4089613" lon="10.5396163"><ele>133.0</ele><time>2026-04-19T11:25:42.072Z</time></trkpt><trkpt lat="45.4090017" lon="10.5396905"><ele>133.0</ele><time>2026-04-19T11:26:10.079Z</time></trkpt><trkpt lat="45.4089853" lon="10.539779"><ele>133.0</ele><time>2026-04-19T11:26:28.075Z</time></trkpt><trkpt lat="45.4090665" lon="10.5397532"><ele>133.0</ele><time>2026-04-19T11:27:47.076Z</time></trkpt><trkpt lat="45.4089958" lon="10.5397796"><ele>133.0</ele><time>2026-04-19T11:28:55.075Z</time></trkpt><trkpt lat="45.4089879" lon="10.5396424"><ele>133.0</ele><time>2026-04-19T11:29:35.075Z</time></trkpt><trkpt lat="45.409053" lon="10.5396419"><ele>133.0</ele><time>2026-04-19T11:30:30.078Z</time></trkpt><trkpt lat="45.4090989" lon="10.5397057"><ele>133.0</ele><time>2026-04-19T11:30:59.075Z</time></trkpt><trkpt lat="45.4090067" lon="10.5397412"><ele>133.0</ele><time>2026-04-19T11:31:58.068Z</time></trkpt><trkpt lat="45.40908" lon="10.5397966"><ele>133.0</ele><time>2026-04-19T11:32:49.077Z</time></trkpt><trkpt lat="45.4090179" lon="10.5398195"><ele>133.0</ele><time>2026-04-19T11:34:58.069Z</time></trkpt><trkpt lat="45.4089618" lon="10.5398638"><ele>133.0</ele><time>2026-04-19T11:35:15.065Z</time></trkpt><trkpt lat="45.4089145" lon="10.539762"><ele>133.0</ele><time>2026-04-19T11:35:55.071Z</time></trkpt><trkpt lat="45.4089794" lon="10.5396994"><ele>133.0</ele><time>2026-04-19T11:36:17.078Z</time></trkpt><trkpt lat="45.4090796" lon="10.5396964"><ele>133.0</ele><time>2026-04-19T11:36:56.08Z</time></trkpt><trkpt lat="45.4090398" lon="10.5396064"><ele>133.0</ele><time>2026-04-19T11:37:29.078Z</time></trkpt><trkpt lat="45.4091003" lon="10.5396519"><ele>133.0</ele><time>2026-04-19T11:38:42.079Z</time></trkpt><trkpt lat="45.4090294" lon="10.539745"><ele>133.0</ele><time>2026-04-19T11:39:40.069Z</time></trkpt><trkpt lat="45.4091143" lon="10.5397461"><ele>133.0</ele><time>2026-04-19T11:42:23.075Z</time></trkpt><trkpt lat="45.4091038" lon="10.5396025"><ele>133.0</ele><time>2026-04-19T11:44:07.081Z</time></trkpt><trkpt lat="45.4091703" lon="10.5395861"><ele>133.0</ele><time>2026-04-19T11:44:22.077Z</time></trkpt><trkpt lat="45.4091609" lon="10.5396906"><ele>133.0</ele><time>2026-04-19T11:44:34.071Z</time></trkpt><trkpt lat="45.4090881" lon="10.5397152"><ele>133.0</ele><time>2026-04-19T11:45:10.079Z</time></trkpt><trkpt lat="45.4090292" lon="10.5396752"><ele>133.0</ele><time>2026-04-19T11:45:17.072Z</time></trkpt><trkpt lat="45.4089496" lon="10.5397632"><ele>133.0</ele><time>2026-04-19T11:45:37.077Z</time></trkpt><trkpt lat="45.4090315" lon="10.53978"><ele>133.0</ele><time>2026-04-19T11:46:19.078Z</time></trkpt><trkpt lat="45.4090811" lon="10.5397215"><ele>133.0</ele><time>2026-04-19T11:49:55.075Z</time></trkpt><trkpt lat="45.4090311" lon="10.5397883"><ele>133.0</ele><time>2026-04-19T11:50:34.071Z</time></trkpt><trkpt lat="45.408936" lon="10.5399186"><ele>133.0</ele><time>2026-04-19T11:51:05.071Z</time></trkpt><trkpt lat="45.4088708" lon="10.5399763"><ele>133.0</ele><time>2026-04-19T11:51:11.08Z</time></trkpt><trkpt lat="45.4088047" lon="10.5398579"><ele>133.0</ele><time>2026-04-19T11:51:19.074Z</time></trkpt><trkpt lat="45.4089042" lon="10.5397154"><ele>133.0</ele><time>2026-04-19T11:51:29.071Z</time></trkpt><trkpt lat="45.4089591" lon="10.5396515"><ele>133.0</ele><time>2026-04-19T11:51:34.079Z</time></trkpt><trkpt lat="45.4088957" lon="10.5396673"><ele>133.0</ele><time>2026-04-19T11:53:01.072Z</time></trkpt><trkpt lat="45.4088247" lon="10.5397399"><ele>133.0</ele><time>2026-04-19T11:53:22.075Z</time></trkpt><trkpt lat="45.4089063" lon="10.5397478"><ele>133.0</ele><time>2026-04-19T11:54:17.076Z</time></trkpt><trkpt lat="45.4089787" lon="10.5396927"><ele>133.0</ele><time>2026-04-19T11:54:26.08Z</time></trkpt><trkpt lat="45.4090333" lon="10.5396432"><ele>133.0</ele><time>2026-04-19T11:54:35.073Z</time></trkpt><trkpt lat="45.4091031" lon="10.5395944"><ele>133.0</ele><time>2026-04-19T11:54:46.072Z</time></trkpt><trkpt lat="45.4091833" lon="10.5395676"><ele>133.0</ele><time>2026-04-19T11:55:03.071Z</time></trkpt><trkpt lat="45.4091782" lon="10.5394674"><ele>133.0</ele><time>2026-04-19T11:55:15.073Z</time></trkpt><trkpt lat="45.4091138" lon="10.5394473"><ele>133.0</ele><time>2026-04-19T11:55:29.074Z</time></trkpt><trkpt lat="45.4090911" lon="10.5395975"><ele>133.0</ele><time>2026-04-19T11:55:41.073Z</time></trkpt><trkpt lat="45.4090733" lon="10.5396839"><ele>133.0</ele><time>2026-04-19T11:55:42.071Z</time></trkpt><trkpt lat="45.4090558" lon="10.5397793"><ele>133.0</ele><time>2026-04-19T11:55:44.077Z</time></trkpt><trkpt lat="45.4090396" lon="10.5396915"><ele>133.0</ele><time>2026-04-19T11:55:59.071Z</time></trkpt><trkpt lat="45.4090627" lon="10.5396005"><ele>133.0</ele><time>2026-04-19T11:56:04.079Z</time></trkpt><trkpt lat="45.4091256" lon="10.539572"><ele>133.0</ele><time>2026-04-19T11:56:12.079Z</time></trkpt><trkpt lat="45.4091323" lon="10.5396668"><ele>133.0</ele><time>2026-04-19T11:57:43.071Z</time></trkpt><trkpt lat="45.4090724" lon="10.5397154"><ele>133.0</ele><time>2026-04-19T11:58:08.071Z</time></trkpt><trkpt lat="45.4089725" lon="10.5397581"><ele>133.0</ele><time>2026-04-19T11:58:38.08Z</time></trkpt><trkpt lat="45.4090615" lon="10.539819"><ele>133.0</ele><time>2026-04-19T11:59:24.08Z</time></trkpt><trkpt lat="45.4090616" lon="10.5399101"><ele>133.0</ele><time>2026-04-19T11:59:44.072Z</time></trkpt><trkpt lat="45.4090625" lon="10.5398055"><ele>133.0</ele><time>2026-04-19T11:59:59.075Z</time></trkpt><trkpt lat="45.4089541" lon="10.5398425"><ele>133.0</ele><time>2026-04-19T12:01:15.071Z</time></trkpt><trkpt lat="45.4090132" lon="10.5397975"><ele>133.0</ele><time>2026-04-19T12:02:40.076Z</time></trkpt><trkpt lat="45.408963" lon="10.5398761"><ele>133.0</ele><time>2026-04-19T12:04:20.076Z</time></trkpt><trkpt lat="45.4089566" lon="10.5397852"><ele>133.0</ele><time>2026-04-19T12:04:33.074Z</time></trkpt><trkpt lat="45.40902" lon="10.5397243"><ele>133.0</ele><time>2026-04-19T12:04:42.074Z</time></trkpt><trkpt lat="45.4090585" lon="10.5397959"><ele>133.0</ele><time>2026-04-19T12:05:47.073Z</time></trkpt><trkpt lat="45.4089709" lon="10.5398549"><ele>133.0</ele><time>2026-04-19T12:06:26.074Z</time></trkpt><trkpt lat="45.4089232" lon="10.5399213"><ele>133.0</ele><time>2026-04-19T12:06:32.076Z</time></trkpt><trkpt lat="45.4089667" lon="10.5398337"><ele>133.0</ele><time>2026-04-19T12:07:20.08Z</time></trkpt><trkpt lat="45.4090326" lon="10.539806"><ele>133.0</ele><time>2026-04-19T12:08:04.072Z</time></trkpt><trkpt lat="45.4089693" lon="10.5398192"><ele>133.0</ele><time>2026-04-19T12:08:48.08Z</time></trkpt><trkpt lat="45.409028" lon="10.539734"><ele>133.0</ele><time>2026-04-19T12:15:41.079Z</time></trkpt><trkpt lat="45.409078" lon="10.5396762"><ele>133.0</ele><time>2026-04-19T12:15:44.079Z</time></trkpt><trkpt lat="45.4090209" lon="10.5397866"><ele>133.0</ele><time>2026-04-19T12:17:06.072Z</time></trkpt><trkpt lat="45.4089613" lon="10.5398353"><ele>133.0</ele><time>2026-04-19T12:17:13.079Z</time></trkpt><trkpt lat="45.4090131" lon="10.5398884"><ele>133.0</ele><time>2026-04-19T12:18:28.07Z</time></trkpt><trkpt lat="45.4089427" lon="10.539885"><ele>133.0</ele><time>2026-04-19T12:18:41.072Z</time></trkpt><trkpt lat="45.4088484" lon="10.5398727"><ele>133.0</ele><time>2026-04-19T12:18:43.072Z</time></trkpt><trkpt lat="45.4089514" lon="10.5398415"><ele>133.0</ele><time>2026-04-19T12:20:16.072Z</time></trkpt><trkpt lat="45.4088903" lon="10.5398182"><ele>133.0</ele><time>2026-04-19T12:23:43.071Z</time></trkpt><trkpt lat="45.4089162" lon="10.5399063"><ele>133.0</ele><time>2026-04-19T12:24:49.07Z</time></trkpt><trkpt lat="45.4089633" lon="10.5398329"><ele>133.0</ele><time>2026-04-19T12:25:11.074Z</time></trkpt><trkpt lat="45.4090333" lon="10.5397988"><ele>133.0</ele><time>2026-04-19T12:25:52.079Z</time></trkpt><trkpt lat="45.408975" lon="10.5398333"><ele>133.0</ele><time>2026-04-19T12:26:53.07Z</time></trkpt><trkpt lat="45.4089142" lon="10.5398596"><ele>133.0</ele><time>2026-04-19T12:28:12.073Z</time></trkpt><trkpt lat="45.4088448" lon="10.5398736"><ele>133.0</ele><time>2026-04-19T12:32:16.074Z</time></trkpt><trkpt lat="45.40901" lon="10.5397756"><ele>133.0</ele><time>2026-04-19T12:35:50.071Z</time></trkpt><trkpt lat="45.4089501" lon="10.5398326"><ele>133.0</ele><time>2026-04-19T12:38:10.075Z</time></trkpt><trkpt lat="45.4089758" lon="10.5397506"><ele>133.0</ele><time>2026-04-19T12:44:22.068Z</time></trkpt><trkpt lat="45.408906" lon="10.5398003"><ele>133.0</ele><time>2026-04-19T12:44:34.071Z</time></trkpt><trkpt lat="45.4089761" lon="10.539847"><ele>133.0</ele><time>2026-04-19T12:45:04.069Z</time></trkpt><trkpt lat="45.408922" lon="10.5399021"><ele>133.0</ele><time>2026-04-19T12:45:42.08Z</time></trkpt><trkpt lat="45.4089754" lon="10.5398434"><ele>133.0</ele><time>2026-04-19T12:45:59.069Z</time></trkpt><trkpt lat="45.408912" lon="10.5398286"><ele>133.0</ele><time>2026-04-19T12:47:50.075Z</time></trkpt><trkpt lat="45.4088204" lon="10.539887"><ele>133.0</ele><time>2026-04-19T12:47:52.077Z</time></trkpt><trkpt lat="45.4088686" lon="10.5398176"><ele>133.0</ele><time>2026-04-19T12:48:22.078Z</time></trkpt><trkpt lat="45.4089406" lon="10.5397814"><ele>133.0</ele><time>2026-04-19T12:48:28.068Z</time></trkpt><trkpt lat="45.4090326" lon="10.5397573"><ele>133.0</ele><time>2026-04-19T12:57:42.078Z</time></trkpt><trkpt lat="45.4089621" lon="10.5397955"><ele>133.0</ele><time>2026-04-19T13:01:10.065Z</time></trkpt><trkpt lat="45.4089966" lon="10.5397145"><ele>133.0</ele><time>2026-04-19T13:02:02.078Z</time></trkpt><trkpt lat="45.409089" lon="10.5396862"><ele>133.0</ele><time>2026-04-19T13:03:35.073Z</time></trkpt><trkpt lat="45.4090264" lon="10.5397161"><ele>133.0</ele><time>2026-04-19T13:03:42.078Z</time></trkpt><trkpt lat="45.4089724" lon="10.5397757"><ele>133.0</ele><time>2026-04-19T13:06:23.074Z</time></trkpt><trkpt lat="45.4090026" lon="10.5396904"><ele>133.0</ele><time>2026-04-19T13:09:06.074Z</time></trkpt><trkpt lat="45.4089358" lon="10.5396498"><ele>133.0</ele><time>2026-04-19T13:09:26.065Z</time></trkpt><trkpt lat="45.4089571" lon="10.5395212"><ele>133.0</ele><time>2026-04-19T13:09:49.075Z</time></trkpt><trkpt lat="45.4090055" lon="10.5395934"><ele>133.0</ele><time>2026-04-19T13:09:55.07Z</time></trkpt><trkpt lat="45.4089785" lon="10.5396801"><ele>133.0</ele><time>2026-04-19T13:09:58.064Z</time></trkpt><trkpt lat="45.4089464" lon="10.5397654"><ele>133.0</ele><time>2026-04-19T13:10:02.06Z</time></trkpt><trkpt lat="45.4090037" lon="10.5398338"><ele>133.0</ele><time>2026-04-19T13:10:10.071Z</time></trkpt><trkpt lat="45.409017" lon="10.5397246"><ele>133.0</ele><time>2026-04-19T13:10:16.066Z</time></trkpt><trkpt lat="45.409069" lon="10.5396694"><ele>133.0</ele><time>2026-04-19T13:11:30.066Z</time></trkpt><trkpt lat="45.409058" lon="10.5397611"><ele>133.0</ele><time>2026-04-19T13:11:38.066Z</time></trkpt><trkpt lat="45.4089862" lon="10.5397618"><ele>133.0</ele><time>2026-04-19T13:12:24.068Z</time></trkpt><trkpt lat="45.4089133" lon="10.5397963"><ele>133.0</ele><time>2026-04-19T13:12:50.066Z</time></trkpt><trkpt lat="45.4088446" lon="10.5397823"><ele>133.0</ele><time>2026-04-19T13:12:55.062Z</time></trkpt><trkpt lat="45.4087748" lon="10.5397707"><ele>133.0</ele><time>2026-04-19T13:12:59.058Z</time></trkpt><trkpt lat="45.4088437" lon="10.5397133"><ele>133.0</ele><time>2026-04-19T13:13:09.075Z</time></trkpt><trkpt lat="45.4089264" lon="10.5396848"><ele>133.0</ele><time>2026-04-19T13:13:27.072Z</time></trkpt><trkpt lat="45.4090024" lon="10.5396348"><ele>133.0</ele><time>2026-04-19T13:13:30.069Z</time></trkpt><trkpt lat="45.4090069" lon="10.5397327"><ele>133.0</ele><time>2026-04-19T13:14:18.068Z</time></trkpt><trkpt lat="45.4090637" lon="10.5396935"><ele>133.0</ele><time>2026-04-19T13:19:03.067Z</time></trkpt><trkpt lat="45.4091103" lon="10.5397811"><ele>133.0</ele><time>2026-04-19T13:23:11.07Z</time></trkpt><trkpt lat="45.4090459" lon="10.5397767"><ele>133.0</ele><time>2026-04-19T13:23:43.073Z</time></trkpt><trkpt lat="45.4089795" lon="10.5398019"><ele>133.0</ele><time>2026-04-19T13:24:58.07Z</time></trkpt><trkpt lat="45.4090378" lon="10.5398889"><ele>133.0</ele><time>2026-04-19T13:25:57.069Z</time></trkpt><trkpt lat="45.4090176" lon="10.5398021"><ele>133.0</ele><time>2026-04-19T13:26:16.068Z</time></trkpt><trkpt lat="45.4090663" lon="10.5397394"><ele>133.0</ele><time>2026-04-19T13:27:00.073Z</time></trkpt><trkpt lat="45.409125" lon="10.5397761"><ele>133.0</ele><time>2026-04-19T13:27:02.078Z</time></trkpt><trkpt lat="45.4090582" lon="10.5397999"><ele>133.0</ele><time>2026-04-19T13:27:15.07Z</time></trkpt><trkpt lat="45.408967" lon="10.5398605"><ele>133.0</ele><time>2026-04-19T13:28:54.071Z</time></trkpt><trkpt lat="45.4089647" lon="10.5397649"><ele>133.0</ele><time>2026-04-19T13:36:37.077Z</time></trkpt><trkpt lat="45.4089036" lon="10.5397229"><ele>133.0</ele><time>2026-04-19T13:36:44.063Z</time></trkpt><trkpt lat="45.4088441" lon="10.5396452"><ele>133.0</ele><time>2026-04-19T13:37:15.069Z</time></trkpt><trkpt lat="45.4089744" lon="10.5396936"><ele>133.0</ele><time>2026-04-19T13:37:59.073Z</time></trkpt><trkpt lat="45.4090102" lon="10.5397783"><ele>133.0</ele><time>2026-04-19T13:38:49.073Z</time></trkpt><trkpt lat="45.4089743" lon="10.5396979"><ele>133.0</ele><time>2026-04-19T13:39:47.065Z</time></trkpt><trkpt lat="45.4090465" lon="10.5397018"><ele>133.0</ele><time>2026-04-19T13:40:46.065Z</time></trkpt><trkpt lat="45.4091538" lon="10.5397107"><ele>133.0</ele><time>2026-04-19T13:42:07.067Z</time></trkpt><trkpt lat="45.4091005" lon="10.5397634"><ele>133.0</ele><time>2026-04-19T13:42:56.07Z</time></trkpt><trkpt lat="45.4090224" lon="10.5397704"><ele>133.0</ele><time>2026-04-19T13:43:14.074Z</time></trkpt><trkpt lat="45.4089772" lon="10.539685"><ele>133.0</ele><time>2026-04-19T13:44:14.076Z</time></trkpt><trkpt lat="45.408942" lon="10.539781"><ele>133.0</ele><time>2026-04-19T13:46:00.075Z</time></trkpt><trkpt lat="45.4088766" lon="10.5397623"><ele>133.0</ele><time>2026-04-19T13:51:07.071Z</time></trkpt><trkpt lat="45.4089398" lon="10.5397932"><ele>133.0</ele><time>2026-04-19T13:51:39.072Z</time></trkpt><trkpt lat="45.4089914" lon="10.5397417"><ele>133.0</ele><time>2026-04-19T13:52:42.066Z</time></trkpt><trkpt lat="45.4089267" lon="10.5397397"><ele>133.0</ele><time>2026-04-19T13:53:20.065Z</time></trkpt><trkpt lat="45.408988" lon="10.5397916"><ele>133.0</ele><time>2026-04-19T13:59:36.065Z</time></trkpt><trkpt lat="45.4089563" lon="10.5398746"><ele>133.0</ele><time>2026-04-19T14:02:23.066Z</time></trkpt><trkpt lat="45.4089116" lon="10.539785"><ele>133.0</ele><time>2026-04-19T14:03:28.071Z</time></trkpt><trkpt lat="45.4089946" lon="10.5398167"><ele>133.0</ele><time>2026-04-19T14:03:52.073Z</time></trkpt><trkpt lat="45.4089317" lon="10.5398373"><ele>133.0</ele><time>2026-04-19T14:08:52.066Z</time></trkpt><trkpt lat="45.4089778" lon="10.5397692"><ele>133.0</ele><time>2026-04-19T14:09:04.069Z</time></trkpt><trkpt lat="45.4089684" lon="10.5398619"><ele>133.0</ele><time>2026-04-19T14:10:10.061Z</time></trkpt><trkpt lat="45.4090005" lon="10.5397592"><ele>133.0</ele><time>2026-04-19T14:12:52.065Z</time></trkpt><trkpt lat="45.4089444" lon="10.539801"><ele>133.0</ele><time>2026-04-19T14:14:37.061Z</time></trkpt><trkpt lat="45.4089987" lon="10.5398482"><ele>133.0</ele><time>2026-04-19T14:15:01.063Z</time></trkpt><trkpt lat="45.40896" lon="10.539761"><ele>133.0</ele><time>2026-04-19T14:16:38.069Z</time></trkpt><trkpt lat="45.4089606" lon="10.5396648"><ele>133.0</ele><time>2026-04-19T14:16:59.061Z</time></trkpt><trkpt lat="45.4089625" lon="10.539574"><ele>133.0</ele><time>2026-04-19T14:17:03.06Z</time></trkpt><trkpt lat="45.4090041" lon="10.5396742"><ele>133.0</ele><time>2026-04-19T14:17:47.057Z</time></trkpt><trkpt lat="45.4089931" lon="10.5397671"><ele>133.0</ele><time>2026-04-19T14:18:09.064Z</time></trkpt><trkpt lat="45.4089303" lon="10.5397796"><ele>133.0</ele><time>2026-04-19T14:20:39.067Z</time></trkpt><trkpt lat="45.4090021" lon="10.5397588"><ele>133.0</ele><time>2026-04-19T14:22:10.065Z</time></trkpt><trkpt lat="45.4089386" lon="10.5397555"><ele>133.0</ele><time>2026-04-19T14:22:53.065Z</time></trkpt><trkpt lat="45.409001" lon="10.5398094"><ele>133.0</ele><time>2026-04-19T14:24:17.066Z</time></trkpt><trkpt lat="45.4089661" lon="10.5396881"><ele>133.0</ele><time>2026-04-19T14:24:47.062Z</time></trkpt><trkpt lat="45.4089138" lon="10.5397403"><ele>133.0</ele><time>2026-04-19T14:24:57.062Z</time></trkpt><trkpt lat="45.408953" lon="10.5398116"><ele>133.0</ele><time>2026-04-19T14:28:30.054Z</time></trkpt><trkpt lat="45.4090191" lon="10.5398181"><ele>133.0</ele><time>2026-04-19T14:29:12.066Z</time></trkpt><trkpt lat="45.4089506" lon="10.5397833"><ele>133.0</ele><time>2026-04-19T14:30:36.065Z</time></trkpt><trkpt lat="45.4088826" lon="10.5397687"><ele>133.0</ele><time>2026-04-19T14:33:05.066Z</time></trkpt><trkpt lat="45.4089449" lon="10.539821"><ele>133.0</ele><time>2026-04-19T14:34:33.059Z</time></trkpt><trkpt lat="45.4090561" lon="10.5398377"><ele>133.0</ele><time>2026-04-19T14:35:17.063Z</time></trkpt><trkpt lat="45.4089899" lon="10.5398408"><ele>133.0</ele><time>2026-04-19T14:35:25.068Z</time></trkpt><trkpt lat="45.4089874" lon="10.5397507"><ele>133.0</ele><time>2026-04-19T14:38:50.064Z</time></trkpt><trkpt lat="45.4090429" lon="10.5398157"><ele>133.0</ele><time>2026-04-19T14:39:27.067Z</time></trkpt><trkpt lat="45.4089945" lon="10.5397558"><ele>133.0</ele><time>2026-04-19T14:39:40.058Z</time></trkpt><trkpt lat="45.409026" lon="10.5396742"><ele>133.0</ele><time>2026-04-19T14:42:44.068Z</time></trkpt><trkpt lat="45.4089615" lon="10.5395954"><ele>133.0</ele><time>2026-04-19T14:42:52.064Z</time></trkpt><trkpt lat="45.4088975" lon="10.5395826"><ele>133.0</ele><time>2026-04-19T14:42:56.064Z</time></trkpt><trkpt lat="45.4088253" lon="10.5395631"><ele>133.0</ele><time>2026-04-19T14:43:24.064Z</time></trkpt><trkpt lat="45.4089072" lon="10.5396334"><ele>133.0</ele><time>2026-04-19T14:43:37.06Z</time></trkpt><trkpt lat="45.4088674" lon="10.5397261"><ele>133.0</ele><time>2026-04-19T14:43:48.061Z</time></trkpt><trkpt lat="45.4089269" lon="10.539773"><ele>133.0</ele><time>2026-04-19T14:44:11.06Z</time></trkpt><trkpt lat="45.4089186" lon="10.5398754"><ele>133.0</ele><time>2026-04-19T14:44:20.073Z</time></trkpt><trkpt lat="45.4089379" lon="10.5397677"><ele>133.0</ele><time>2026-04-19T14:44:51.064Z</time></trkpt><trkpt lat="45.4090115" lon="10.5397009"><ele>133.0</ele><time>2026-04-19T14:44:53.065Z</time></trkpt><trkpt lat="45.4090727" lon="10.5397302"><ele>133.0</ele><time>2026-04-19T14:44:59.985Z</time></trkpt><trkpt lat="45.4090344" lon="10.539806"><ele>133.0</ele><time>2026-04-19T14:45:19.067Z</time></trkpt><trkpt lat="45.4089697" lon="10.5397911"><ele>133.0</ele><time>2026-04-19T14:47:22.061Z</time></trkpt><trkpt lat="45.409067" lon="10.5398154"><ele>133.0</ele><time>2026-04-19T14:48:07.065Z</time></trkpt><trkpt lat="45.4089875" lon="10.5397886"><ele>133.0</ele><time>2026-04-19T14:48:56.07Z</time></trkpt><trkpt lat="45.4089088" lon="10.5397269"><ele>133.0</ele><time>2026-04-19T14:50:32.063Z</time></trkpt><trkpt lat="45.4089607" lon="10.5397794"><ele>133.0</ele><time>2026-04-19T14:50:36.068Z</time></trkpt><trkpt lat="45.4088839" lon="10.5396793"><ele>133.0</ele><time>2026-04-19T14:51:24.071Z</time></trkpt><trkpt lat="45.4088156" lon="10.5396508"><ele>133.0</ele><time>2026-04-19T14:51:30.062Z</time></trkpt><trkpt lat="45.4089053" lon="10.5396633"><ele>133.0</ele><time>2026-04-19T14:52:23.068Z</time></trkpt><trkpt lat="45.4090286" lon="10.5397252"><ele>133.0</ele><time>2026-04-19T14:52:51.059Z</time></trkpt><trkpt lat="45.4090371" lon="10.5398211"><ele>133.0</ele><time>2026-04-19T14:54:09.064Z</time></trkpt><trkpt lat="45.4089566" lon="10.5398633"><ele>133.0</ele><time>2026-04-19T14:54:20.061Z</time></trkpt><trkpt lat="45.4088738" lon="10.539931"><ele>133.0</ele><time>2026-04-19T14:55:12.054Z</time></trkpt><trkpt lat="45.4088334" lon="10.5398607"><ele>133.0</ele><time>2026-04-19T14:55:21.056Z</time></trkpt><trkpt lat="45.4089097" lon="10.5398486"><ele>133.0</ele><time>2026-04-19T14:55:35.06Z</time></trkpt><trkpt lat="45.408978" lon="10.5398489"><ele>133.0</ele><time>2026-04-19T14:58:03.059Z</time></trkpt><trkpt lat="45.4090426" lon="10.5398499"><ele>133.0</ele><time>2026-04-19T14:58:16.061Z</time></trkpt><trkpt lat="45.4090963" lon="10.5399029"><ele>133.0</ele><time>2026-04-19T14:58:20.068Z</time></trkpt><trkpt lat="45.4090157" lon="10.5399454"><ele>133.0</ele><time>2026-04-19T14:58:35.069Z</time></trkpt><trkpt lat="45.4089493" lon="10.5399301"><ele>133.0</ele><time>2026-04-19T14:58:38.078Z</time></trkpt><trkpt lat="45.4090052" lon="10.539853"><ele>133.0</ele><time>2026-04-19T14:58:46.064Z</time></trkpt><trkpt lat="45.4090332" lon="10.53977"><ele>133.0</ele><time>2026-04-19T14:58:54.072Z</time></trkpt><trkpt lat="45.4090949" lon="10.539721"><ele>133.0</ele><time>2026-04-19T14:59:01.07Z</time></trkpt><trkpt lat="45.4090286" lon="10.5398445"><ele>133.0</ele><time>2026-04-19T14:59:33.07Z</time></trkpt><trkpt lat="45.4089664" lon="10.5398824"><ele>133.0</ele><time>2026-04-19T14:59:40.068Z</time></trkpt><trkpt lat="45.4090528" lon="10.5398561"><ele>133.0</ele><time>2026-04-19T14:59:46.061Z</time></trkpt><trkpt lat="45.409126" lon="10.5398239"><ele>133.0</ele><time>2026-04-19T14:59:55.059Z</time></trkpt><trkpt lat="45.4092271" lon="10.5397497"><ele>133.0</ele><time>2026-04-19T15:00:06.057Z</time></trkpt><trkpt lat="45.4091536" lon="10.539786"><ele>133.0</ele><time>2026-04-19T15:00:20.058Z</time></trkpt><trkpt lat="45.4092524" lon="10.5397011"><ele>133.0</ele><time>2026-04-19T15:00:21.065Z</time></trkpt><trkpt lat="45.4093614" lon="10.5396074"><ele>133.0</ele><time>2026-04-19T15:00:22.065Z</time></trkpt><trkpt lat="45.409261" lon="10.5396567"><ele>133.0</ele><time>2026-04-19T15:00:34.063Z</time></trkpt><trkpt lat="45.40919" lon="10.5396981"><ele>133.0</ele><time>2026-04-19T15:00:38.068Z</time></trkpt><trkpt lat="45.4091456" lon="10.5397655"><ele>133.0</ele><time>2026-04-19T15:01:30.061Z</time></trkpt><trkpt lat="45.4090788" lon="10.539814"><ele>133.0</ele><time>2026-04-19T15:01:39.061Z</time></trkpt><trkpt lat="45.4090178" lon="10.5397688"><ele>133.0</ele><time>2026-04-19T15:02:29.062Z</time></trkpt><trkpt lat="45.4089534" lon="10.5398061"><ele>133.0</ele><time>2026-04-19T15:02:53.058Z</time></trkpt><trkpt lat="45.408966" lon="10.5396989"><ele>133.0</ele><time>2026-04-19T15:03:45.064Z</time></trkpt><trkpt lat="45.4090538" lon="10.539734"><ele>133.0</ele><time>2026-04-19T15:06:17.056Z</time></trkpt><trkpt lat="45.4089961" lon="10.5397724"><ele>133.0</ele><time>2026-04-19T15:06:50.061Z</time></trkpt><trkpt lat="45.4089315" lon="10.5397983"><ele>133.0</ele><time>2026-04-19T15:08:58.07Z</time></trkpt><trkpt lat="45.4088794" lon="10.5398499"><ele>133.0</ele><time>2026-04-19T15:10:32.06Z</time></trkpt><trkpt lat="45.4089436" lon="10.539813"><ele>133.0</ele><time>2026-04-19T15:10:42.064Z</time></trkpt><trkpt lat="45.4090089" lon="10.5398378"><ele>133.0</ele><time>2026-04-19T15:12:49.06Z</time></trkpt><trkpt lat="45.408945" lon="10.5398467"><ele>133.0</ele><time>2026-04-19T15:14:18.058Z</time></trkpt><trkpt lat="45.4089556" lon="10.5397457"><ele>133.0</ele><time>2026-04-19T15:15:34.064Z</time></trkpt><trkpt lat="45.4088698" lon="10.5396953"><ele>133.0</ele><time>2026-04-19T15:15:36.068Z</time></trkpt><trkpt lat="45.4087507" lon="10.539622"><ele>133.0</ele><time>2026-04-19T15:15:38.069Z</time></trkpt><trkpt lat="45.4088195" lon="10.5396621"><ele>133.0</ele><time>2026-04-19T15:15:48.058Z</time></trkpt><trkpt lat="45.4089029" lon="10.539663"><ele>133.0</ele><time>2026-04-19T15:15:57.058Z</time></trkpt><trkpt lat="45.4089138" lon="10.5397563"><ele>133.0</ele><time>2026-04-19T15:16:41.07Z</time></trkpt><trkpt lat="45.4089837" lon="10.5397553"><ele>133.0</ele><time>2026-04-19T15:19:35.057Z</time></trkpt><trkpt lat="45.4089184" lon="10.5397986"><ele>133.0</ele><time>2026-04-19T15:19:39.064Z</time></trkpt><trkpt lat="45.4088761" lon="10.5397117"><ele>133.0</ele><time>2026-04-19T15:19:46.063Z</time></trkpt><trkpt lat="45.4087691" lon="10.5397132"><ele>133.0</ele><time>2026-04-19T15:19:54.061Z</time></trkpt><trkpt lat="45.4088171" lon="10.5398709"><ele>133.0</ele><time>2026-04-19T15:20:40.056Z</time></trkpt><trkpt lat="45.4088608" lon="10.5399384"><ele>133.0</ele><time>2026-04-19T15:20:42.058Z</time></trkpt><trkpt lat="45.4089338" lon="10.5398623"><ele>133.0</ele><time>2026-04-19T15:21:20.061Z</time></trkpt><trkpt lat="45.4089961" lon="10.5398321"><ele>133.0</ele><time>2026-04-19T15:21:25.067Z</time></trkpt><trkpt lat="45.4089057" lon="10.5397712"><ele>133.0</ele><time>2026-04-19T15:22:08.07Z</time></trkpt><trkpt lat="45.4088182" lon="10.5397786"><ele>133.0</ele><time>2026-04-19T15:22:09.058Z</time></trkpt><trkpt lat="45.4087275" lon="10.5397844"><ele>133.0</ele><time>2026-04-19T15:22:11.059Z</time></trkpt><trkpt lat="45.4086336" lon="10.5397344"><ele>133.0</ele><time>2026-04-19T15:22:14.073Z</time></trkpt><trkpt lat="45.4085651" lon="10.5397068"><ele>131.71428571428572</ele><time>2026-04-19T15:22:19.058Z</time></trkpt><trkpt lat="45.4086321" lon="10.5397075"><ele>130.42857142857144</ele><time>2026-04-19T15:22:58.059Z</time></trkpt><trkpt lat="45.4085754" lon="10.5396248"><ele>129.14285714285714</ele><time>2026-04-19T15:23:03.063Z</time></trkpt><trkpt lat="45.4085065" lon="10.5396016"><ele>127.85714285714286</ele><time>2026-04-19T15:23:05.068Z</time></trkpt><trkpt lat="45.4084455" lon="10.5395315"><ele>126.57142857142858</ele><time>2026-04-19T15:23:07.063Z</time></trkpt><trkpt lat="45.4083897" lon="10.5394781"><ele>125.28571428571429</ele><time>2026-04-19T15:23:09.064Z</time></trkpt><trkpt lat="45.4083224" lon="10.5395112"><ele>124.0</ele><time>2026-04-19T15:23:16.061Z</time></trkpt><trkpt lat="45.4083852" lon="10.5395623"><ele>124.00000000000001</ele><time>2026-04-19T15:23:25.062Z</time></trkpt><trkpt lat="45.4084559" lon="10.5395194"><ele>124.0</ele><time>2026-04-19T15:23:43.06Z</time></trkpt><trkpt lat="45.4085347" lon="10.5395292"><ele>124.0</ele><time>2026-04-19T15:24:14.068Z</time></trkpt><trkpt lat="45.4086215" lon="10.5396107"><ele>124.0</ele><time>2026-04-19T15:24:16.062Z</time></trkpt><trkpt lat="45.408685" lon="10.5396759"><ele>124.00000000000001</ele><time>2026-04-19T15:24:17.064Z</time></trkpt><trkpt lat="45.4087394" lon="10.5397365"><ele>124.0</ele><time>2026-04-19T15:24:18.06Z</time></trkpt><trkpt lat="45.4087976" lon="10.5397761"><ele>124.00000000000001</ele><time>2026-04-19T15:24:25.068Z</time></trkpt><trkpt lat="45.4089082" lon="10.5398017"><ele>124.0</ele><time>2026-04-19T15:24:28.06Z</time></trkpt><trkpt lat="45.4088232" lon="10.5398202"><ele>124.0</ele><time>2026-04-19T15:25:28.052Z</time></trkpt><trkpt lat="45.4087707" lon="10.5398743"><ele>124.0</ele><time>2026-04-19T15:25:55.065Z</time></trkpt><trkpt lat="45.4087031" lon="10.5399054"><ele>124.00000000000001</ele><time>2026-04-19T15:26:12.066Z</time></trkpt><trkpt lat="45.4086285" lon="10.5398956"><ele>124.0</ele><time>2026-04-19T15:26:19.069Z</time></trkpt><trkpt lat="45.4087315" lon="10.5398685"><ele>124.00000000000001</ele><time>2026-04-19T15:26:40.056Z</time></trkpt><trkpt lat="45.4088158" lon="10.5398592"><ele>124.0</ele><time>2026-04-19T15:26:48.059Z</time></trkpt><trkpt lat="45.4088214" lon="10.5397657"><ele>124.0</ele><time>2026-04-19T15:27:51.06Z</time></trkpt><trkpt lat="45.4088921" lon="10.5398339"><ele>124.0</ele><time>2026-04-19T15:28:13.067Z</time></trkpt><trkpt lat="45.408966" lon="10.5398779"><ele>124.00000000000001</ele><time>2026-04-19T15:31:16.059Z</time></trkpt><trkpt lat="45.4088884" lon="10.5398272"><ele>124.0</ele><time>2026-04-19T15:31:40.056Z</time></trkpt><trkpt lat="45.4089371" lon="10.5399038"><ele>125.50000000000001</ele><time>2026-04-19T15:32:02.068Z</time></trkpt><trkpt lat="45.4090049" lon="10.5398917"><ele>127.0</ele><time>2026-04-19T15:32:29.058Z</time></trkpt><trkpt lat="45.4089427" lon="10.5398127"><ele>128.5</ele><time>2026-04-19T15:32:37.059Z</time></trkpt><trkpt lat="45.4088697" lon="10.5398519"><ele>130.0</ele><time>2026-04-19T15:32:46.057Z</time></trkpt><trkpt lat="45.4088699" lon="10.5399521"><ele>131.5</ele><time>2026-04-19T15:33:02.062Z</time></trkpt><trkpt lat="45.4089424" lon="10.5400239"><ele>133.0</ele><time>2026-04-19T15:33:24.061Z</time></trkpt><trkpt lat="45.4088972" lon="10.5399526"><ele>133.0</ele><time>2026-04-19T15:34:15.055Z</time></trkpt><trkpt lat="45.4088372" lon="10.5399253"><ele>133.0</ele><time>2026-04-19T15:34:21.066Z</time></trkpt><trkpt lat="45.4087872" lon="10.5399805"><ele>133.0</ele><time>2026-04-19T15:34:24.059Z</time></trkpt><trkpt lat="45.4088251" lon="10.5401134"><ele>133.0</ele><time>2026-04-19T15:34:34.067Z</time></trkpt><trkpt lat="45.4088704" lon="10.5401871"><ele>133.0</ele><time>2026-04-19T15:34:37.066Z</time></trkpt><trkpt lat="45.4088315" lon="10.5400952"><ele>133.0</ele><time>2026-04-19T15:34:56.065Z</time></trkpt><trkpt lat="45.4088651" lon="10.5401916"><ele>133.0</ele><time>2026-04-19T15:35:08.065Z</time></trkpt><trkpt lat="45.4088427" lon="10.5401024"><ele>133.0</ele><time>2026-04-19T15:35:10.068Z</time></trkpt><trkpt lat="45.4087848" lon="10.540023"><ele>133.0</ele><time>2026-04-19T15:35:11.064Z</time></trkpt><trkpt lat="45.4087205" lon="10.5399557"><ele>133.0</ele><time>2026-04-19T15:35:13.062Z</time></trkpt><trkpt lat="45.4088129" lon="10.5399559"><ele>133.0</ele><time>2026-04-19T15:35:19.064Z</time></trkpt><trkpt lat="45.408883" lon="10.5399171"><ele>133.0</ele><time>2026-04-19T15:35:21.067Z</time></trkpt><trkpt lat="45.4089585" lon="10.5399061"><ele>133.0</ele><time>2026-04-19T15:35:24.056Z</time></trkpt><trkpt lat="45.4090304" lon="10.5399277"><ele>133.0</ele><time>2026-04-19T15:35:37.063Z</time></trkpt><trkpt lat="45.4089672" lon="10.5399006"><ele>133.0</ele><time>2026-04-19T15:35:45.062Z</time></trkpt><trkpt lat="45.4090275" lon="10.5398694"><ele>133.0</ele><time>2026-04-19T15:36:33.062Z</time></trkpt><trkpt lat="45.4089538" lon="10.5398759"><ele>133.0</ele><time>2026-04-19T15:37:06.06Z</time></trkpt><trkpt lat="45.4088921" lon="10.5398983"><ele>133.0</ele><time>2026-04-19T15:37:48.057Z</time></trkpt><trkpt lat="45.4089592" lon="10.5398223"><ele>133.0</ele><time>2026-04-19T15:38:11.055Z</time></trkpt><trkpt lat="45.4088925" lon="10.5398639"><ele>133.0</ele><time>2026-04-19T15:38:16.054Z</time></trkpt><trkpt lat="45.4088196" lon="10.5398793"><ele>133.0</ele><time>2026-04-19T15:39:36.057Z</time></trkpt><trkpt lat="45.4089089" lon="10.5399182"><ele>133.0</ele><time>2026-04-19T15:40:13.062Z</time></trkpt><trkpt lat="45.4088252" lon="10.5399455"><ele>133.0</ele><time>2026-04-19T15:41:33.064Z</time></trkpt><trkpt lat="45.4087801" lon="10.5398427"><ele>133.0</ele><time>2026-04-19T15:41:59.065Z</time></trkpt><trkpt lat="45.4088912" lon="10.5398022"><ele>133.0</ele><time>2026-04-19T15:42:28.065Z</time></trkpt><trkpt lat="45.4088283" lon="10.5397702"><ele>133.0</ele><time>2026-04-19T15:44:55.061Z</time></trkpt><trkpt lat="45.4088131" lon="10.5395869"><ele>133.0</ele><time>2026-04-19T15:46:49.057Z</time></trkpt><trkpt lat="45.4088091" lon="10.5394752"><ele>133.0</ele><time>2026-04-19T15:46:50.069Z</time></trkpt><trkpt lat="45.408792" lon="10.53959"><ele>133.0</ele><time>2026-04-19T15:47:08.069Z</time></trkpt><trkpt lat="45.4088465" lon="10.5397945"><ele>133.0</ele><time>2026-04-19T15:47:31.065Z</time></trkpt><trkpt lat="45.408804" lon="10.5398656"><ele>133.0</ele><time>2026-04-19T15:47:33.063Z</time></trkpt><trkpt lat="45.4087578" lon="10.539956"><ele>131.5</ele><time>2026-04-19T15:47:43.056Z</time></trkpt><trkpt lat="45.4086793" lon="10.5400043"><ele>130.0</ele><time>2026-04-19T15:47:44.059Z</time></trkpt><trkpt lat="45.408591" lon="10.5400674"><ele>128.5</ele><time>2026-04-19T15:47:46.064Z</time></trkpt><trkpt lat="45.4086772" lon="10.5400294"><ele>127.0</ele><time>2026-04-19T15:48:00.062Z</time></trkpt><trkpt lat="45.4086253" lon="10.5400898"><ele>125.50000000000001</ele><time>2026-04-19T15:48:11.066Z</time></trkpt><trkpt lat="45.4087067" lon="10.540045"><ele>124.0</ele><time>2026-04-19T15:48:33.06Z</time></trkpt><trkpt lat="45.4087556" lon="10.5399882"><ele>124.0</ele><time>2026-04-19T15:48:36.065Z</time></trkpt><trkpt lat="45.4088072" lon="10.5399349"><ele>124.00000000000001</ele><time>2026-04-19T15:48:38.057Z</time></trkpt><trkpt lat="45.4088464" lon="10.5398588"><ele>124.0</ele><time>2026-04-19T15:48:49.065Z</time></trkpt><trkpt lat="45.4089192" lon="10.5397883"><ele>124.0</ele><time>2026-04-19T15:48:55.058Z</time></trkpt><trkpt lat="45.4089856" lon="10.5397277"><ele>124.00000000000001</ele><time>2026-04-19T15:49:01.055Z</time></trkpt><trkpt lat="45.4089242" lon="10.5397524"><ele>124.0</ele><time>2026-04-19T15:49:18.056Z</time></trkpt><trkpt lat="45.4088642" lon="10.5398363"><ele>124.0</ele><time>2026-04-19T15:50:16.055Z</time></trkpt><trkpt lat="45.4089515" lon="10.5397935"><ele>124.00000000000001</ele><time>2026-04-19T15:50:30.063Z</time></trkpt><trkpt lat="45.4089648" lon="10.5398907"><ele>124.0</ele><time>2026-04-19T15:50:53.066Z</time></trkpt><trkpt lat="45.4089021" lon="10.5399393"><ele>124.0</ele><time>2026-04-19T15:51:15.064Z</time></trkpt><trkpt lat="45.4088355" lon="10.53995"><ele>124.0</ele><time>2026-04-19T15:51:33.061Z</time></trkpt><trkpt lat="45.4087951" lon="10.5400508"><ele>124.00000000000001</ele><time>2026-04-19T15:51:48.06Z</time></trkpt><trkpt lat="45.4088873" lon="10.5400791"><ele>124.0</ele><time>2026-04-19T15:51:56.067Z</time></trkpt><trkpt lat="45.4089326" lon="10.5400106"><ele>125.28571428571429</ele><time>2026-04-19T15:52:14.067Z</time></trkpt><trkpt lat="45.4089243" lon="10.5399185"><ele>126.57142857142858</ele><time>2026-04-19T15:52:17.058Z</time></trkpt><trkpt lat="45.408943" lon="10.5398323"><ele>127.85714285714286</ele><time>2026-04-19T15:52:20.067Z</time></trkpt><trkpt lat="45.4089163" lon="10.5397458"><ele>129.14285714285714</ele><time>2026-04-19T15:52:28.061Z</time></trkpt><trkpt lat="45.4090191" lon="10.539817"><ele>130.42857142857144</ele><time>2026-04-19T15:55:06.055Z</time></trkpt><trkpt lat="45.4089587" lon="10.5397891"><ele>131.71428571428572</ele><time>2026-04-19T15:55:50.058Z</time></trkpt><trkpt lat="45.4090189" lon="10.5397606"><ele>133.0</ele><time>2026-04-19T15:56:26.07Z</time></trkpt><trkpt lat="45.4089434" lon="10.5397867"><ele>133.0</ele><time>2026-04-19T15:56:45.057Z</time></trkpt><trkpt lat="45.408873" lon="10.5398932"><ele>133.0</ele><time>2026-04-19T15:56:52.067Z</time></trkpt><trkpt lat="45.4088582" lon="10.5397778"><ele>133.0</ele><time>2026-04-19T15:57:10.057Z</time></trkpt><trkpt lat="45.4088644" lon="10.5396767"><ele>133.0</ele><time>2026-04-19T15:57:13.062Z</time></trkpt><trkpt lat="45.4088026" lon="10.5397399"><ele>133.0</ele><time>2026-04-19T15:57:33.067Z</time></trkpt><trkpt lat="45.4088858" lon="10.539743"><ele>133.0</ele><time>2026-04-19T15:59:00.061Z</time></trkpt><trkpt lat="45.4088176" lon="10.5397873"><ele>133.0</ele><time>2026-04-19T16:00:15.063Z</time></trkpt><trkpt lat="45.408888" lon="10.5397986"><ele>133.0</ele><time>2026-04-19T16:01:00.058Z</time></trkpt><trkpt lat="45.4089501" lon="10.5398331"><ele>133.0</ele><time>2026-04-19T16:03:01.96Z</time></trkpt><trkpt lat="45.4089501" lon="10.5397379"><ele>133.0</ele><time>2026-04-19T16:10:07.066Z</time></trkpt><trkpt lat="45.4089003" lon="10.5397969"><ele>133.0</ele><time>2026-04-19T16:10:31.064Z</time></trkpt><trkpt lat="45.4089633" lon="10.539775"><ele>133.0</ele><time>2026-04-19T16:11:11.065Z</time></trkpt><trkpt lat="45.4089391" lon="10.5398672"><ele>133.0</ele><time>2026-04-19T16:11:37.064Z</time></trkpt><trkpt lat="45.4088798" lon="10.5398169"><ele>133.0</ele><time>2026-04-19T16:12:08.066Z</time></trkpt><trkpt lat="45.4089578" lon="10.5398122"><ele>133.0</ele><time>2026-04-19T16:13:04.06Z</time></trkpt><trkpt lat="45.4088867" lon="10.5398067"><ele>133.0</ele><time>2026-04-19T16:13:54.065Z</time></trkpt><trkpt lat="45.4089462" lon="10.5398742"><ele>133.0</ele><time>2026-04-19T16:15:56.065Z</time></trkpt><trkpt lat="45.4088838" lon="10.5399249"><ele>133.0</ele><time>2026-04-19T16:16:08.058Z</time></trkpt><trkpt lat="45.4088672" lon="10.5398368"><ele>133.0</ele><time>2026-04-19T16:16:38.064Z</time></trkpt><trkpt lat="45.4089675" lon="10.5397663"><ele>133.0</ele><time>2026-04-19T16:18:41.064Z</time></trkpt><trkpt lat="45.4090147" lon="10.5398315"><ele>133.0</ele><time>2026-04-19T16:19:47.057Z</time></trkpt><trkpt lat="45.4089854" lon="10.5399276"><ele>133.0</ele><time>2026-04-19T16:20:18.066Z</time></trkpt><trkpt lat="45.4089943" lon="10.5398344"><ele>133.0</ele><time>2026-04-19T16:21:55.055Z</time></trkpt><trkpt lat="45.4089293" lon="10.5398278"><ele>133.0</ele><time>2026-04-19T16:23:53.052Z</time></trkpt><trkpt lat="45.4088595" lon="10.5397727"><ele>133.0</ele><time>2026-04-19T16:27:01.053Z</time></trkpt><trkpt lat="45.4089299" lon="10.53977"><ele>133.0</ele><time>2026-04-19T16:28:03.062Z</time></trkpt><trkpt lat="45.4089125" lon="10.5398623"><ele>133.0</ele><time>2026-04-19T16:34:52.054Z</time></trkpt><trkpt lat="45.408954" lon="10.5397855"><ele>133.0</ele><time>2026-04-19T16:35:32.063Z</time></trkpt><trkpt lat="45.4088858" lon="10.5398225"><ele>133.0</ele><time>2026-04-19T16:36:02.062Z</time></trkpt><trkpt lat="45.4088442" lon="10.5398918"><ele>133.0</ele><time>2026-04-19T16:36:50.06Z</time></trkpt><trkpt lat="45.4089681" lon="10.539849"><ele>133.0</ele><time>2026-04-19T16:37:33.051Z</time></trkpt><trkpt lat="45.4089118" lon="10.5397863"><ele>133.0</ele><time>2026-04-19T16:38:19.058Z</time></trkpt><trkpt lat="45.4089621" lon="10.5397074"><ele>133.0</ele><time>2026-04-19T16:42:09.061Z</time></trkpt><trkpt lat="45.4090537" lon="10.5396994"><ele>133.0</ele><time>2026-04-19T16:42:25.056Z</time></trkpt><trkpt lat="45.4090122" lon="10.5397686"><ele>133.0</ele><time>2026-04-19T16:42:46.052Z</time></trkpt><trkpt lat="45.4090137" lon="10.5398604"><ele>133.0</ele><time>2026-04-19T16:43:13.056Z</time></trkpt><trkpt lat="45.408976" lon="10.5399357"><ele>133.0</ele><time>2026-04-19T16:43:30.058Z</time></trkpt><trkpt lat="45.4089795" lon="10.5398459"><ele>133.0</ele><time>2026-04-19T16:44:41.062Z</time></trkpt><trkpt lat="45.4089161" lon="10.5398337"><ele>133.0</ele><time>2026-04-19T16:44:54.051Z</time></trkpt><trkpt lat="45.4089823" lon="10.5398602"><ele>133.0</ele><time>2026-04-19T16:45:33.056Z</time></trkpt><trkpt lat="45.408934" lon="10.5399216"><ele>133.0</ele><time>2026-04-19T16:45:38.062Z</time></trkpt><trkpt lat="45.4088863" lon="10.5400367"><ele>133.0</ele><time>2026-04-19T16:45:44.053Z</time></trkpt><trkpt lat="45.4089057" lon="10.5399474"><ele>133.0</ele><time>2026-04-19T16:46:00.051Z</time></trkpt><trkpt lat="45.4088683" lon="10.5398691"><ele>133.0</ele><time>2026-04-19T16:46:45.061Z</time></trkpt><trkpt lat="45.4087993" lon="10.5398962"><ele>133.0</ele><time>2026-04-19T16:46:48.055Z</time></trkpt><trkpt lat="45.4088331" lon="10.5397685"><ele>133.0</ele><time>2026-04-19T16:46:56.055Z</time></trkpt><trkpt lat="45.4089118" lon="10.5398016"><ele>133.0</ele><time>2026-04-19T16:47:20.055Z</time></trkpt><trkpt lat="45.4088378" lon="10.5398112"><ele>133.0</ele><time>2026-04-19T16:50:40.061Z</time></trkpt><trkpt lat="45.4089198" lon="10.5397693"><ele>133.0</ele><time>2026-04-19T16:51:46.061Z</time></trkpt><trkpt lat="45.4089795" lon="10.5398093"><ele>133.0</ele><time>2026-04-19T16:57:42.064Z</time></trkpt><trkpt lat="45.4090116" lon="10.5398954"><ele>133.0</ele><time>2026-04-19T17:03:56.052Z</time></trkpt><trkpt lat="45.4090822" lon="10.5399004"><ele>133.0</ele><time>2026-04-19T17:04:10.05Z</time></trkpt><trkpt lat="45.4090526" lon="10.539983"><ele>133.0</ele><time>2026-04-19T17:04:19.053Z</time></trkpt><trkpt lat="45.4089891" lon="10.5399581"><ele>133.0</ele><time>2026-04-19T17:05:31.053Z</time></trkpt><trkpt lat="45.4089706" lon="10.5398664"><ele>133.0</ele><time>2026-04-19T17:05:38.06Z</time></trkpt><trkpt lat="45.4089129" lon="10.5399062"><ele>133.0</ele><time>2026-04-19T17:09:13.055Z</time></trkpt><trkpt lat="45.4088628" lon="10.5398471"><ele>133.0</ele><time>2026-04-19T17:09:34.061Z</time></trkpt><trkpt lat="45.4089256" lon="10.539779"><ele>133.0</ele><time>2026-04-19T17:10:04.061Z</time></trkpt><trkpt lat="45.4088627" lon="10.5398158"><ele>133.0</ele><time>2026-04-19T17:13:57.057Z</time></trkpt><trkpt lat="45.4089269" lon="10.5397994"><ele>133.0</ele><time>2026-04-19T17:14:25.061Z</time></trkpt><trkpt lat="45.4090299" lon="10.5398413"><ele>133.0</ele><time>2026-04-19T17:17:15.056Z</time></trkpt><trkpt lat="45.4090974" lon="10.5398269"><ele>133.0</ele><time>2026-04-19T17:17:53.053Z</time></trkpt><trkpt lat="45.4090215" lon="10.5398382"><ele>133.0</ele><time>2026-04-19T17:18:30.057Z</time></trkpt><trkpt lat="45.4089467" lon="10.5398747"><ele>133.0</ele><time>2026-04-19T17:18:47.059Z</time></trkpt><trkpt lat="45.4088724" lon="10.5398847"><ele>133.0</ele><time>2026-04-19T17:19:08.061Z</time></trkpt><trkpt lat="45.4090208" lon="10.5398553"><ele>133.0</ele><time>2026-04-19T17:21:13.064Z</time></trkpt><trkpt lat="45.4090857" lon="10.5397657"><ele>133.0</ele><time>2026-04-19T17:22:18.057Z</time></trkpt><trkpt lat="45.4090082" lon="10.5397687"><ele>133.0</ele><time>2026-04-19T17:24:01.055Z</time></trkpt><trkpt lat="45.4089479" lon="10.5398233"><ele>133.0</ele><time>2026-04-19T17:25:09.059Z</time></trkpt><trkpt lat="45.4088818" lon="10.5397992"><ele>133.0</ele><time>2026-04-19T17:25:44.055Z</time></trkpt><trkpt lat="45.4089374" lon="10.5398633"><ele>133.0</ele><time>2026-04-19T17:27:18.057Z</time></trkpt><trkpt lat="45.4089933" lon="10.539815"><ele>133.0</ele><time>2026-04-19T17:29:30.058Z</time></trkpt><trkpt lat="45.4090099" lon="10.5399023"><ele>133.0</ele><time>2026-04-19T17:34:25.054Z</time></trkpt><trkpt lat="45.4090619" lon="10.5399777"><ele>133.0</ele><time>2026-04-19T17:35:03.056Z</time></trkpt><trkpt lat="45.409125" lon="10.5400217"><ele>133.0</ele><time>2026-04-19T17:35:19.06Z</time></trkpt><trkpt lat="45.40907" lon="10.5399667"><ele>133.0</ele><time>2026-04-19T17:36:07.06Z</time></trkpt><trkpt lat="45.409012" lon="10.5399234"><ele>133.0</ele><time>2026-04-19T17:37:05.054Z</time></trkpt><trkpt lat="45.4089582" lon="10.5398743"><ele>133.0</ele><time>2026-04-19T17:37:28.053Z</time></trkpt><trkpt lat="45.4090166" lon="10.539838"><ele>133.0</ele><time>2026-04-19T17:37:42.055Z</time></trkpt><trkpt lat="45.4089788" lon="10.5397618"><ele>133.0</ele><time>2026-04-19T17:37:55.054Z</time></trkpt><trkpt lat="45.4089151" lon="10.5398335"><ele>133.0</ele><time>2026-04-19T17:38:03.062Z</time></trkpt><trkpt lat="45.4089925" lon="10.5397909"><ele>133.0</ele><time>2026-04-19T17:38:37.051Z</time></trkpt><trkpt lat="45.4090731" lon="10.5397823"><ele>133.0</ele><time>2026-04-19T17:38:45.051Z</time></trkpt><trkpt lat="45.4090054" lon="10.5398426"><ele>133.0</ele><time>2026-04-19T17:39:05.06Z</time></trkpt><trkpt lat="45.4089255" lon="10.5398842"><ele>133.0</ele><time>2026-04-19T17:39:49.061Z</time></trkpt><trkpt lat="45.4088281" lon="10.5399364"><ele>133.0</ele><time>2026-04-19T17:39:51.052Z</time></trkpt><trkpt lat="45.4088874" lon="10.5399008"><ele>133.0</ele><time>2026-04-19T17:39:55.054Z</time></trkpt><trkpt lat="45.4089713" lon="10.5398666"><ele>133.0</ele><time>2026-04-19T17:40:01.055Z</time></trkpt><trkpt lat="45.4088929" lon="10.5398795"><ele>133.0</ele><time>2026-04-19T17:40:59.052Z</time></trkpt><trkpt lat="45.4089136" lon="10.5397895"><ele>133.0</ele><time>2026-04-19T17:41:54.05Z</time></trkpt><trkpt lat="45.4089849" lon="10.5398144"><ele>133.0</ele><time>2026-04-19T17:42:28.048Z</time></trkpt><trkpt lat="45.4090364" lon="10.5398764"><ele>133.0</ele><time>2026-04-19T17:42:49.058Z</time></trkpt><trkpt lat="45.4089451" lon="10.5398783"><ele>133.0</ele><time>2026-04-19T17:43:06.051Z</time></trkpt><trkpt lat="45.4088791" lon="10.5398387"><ele>133.0</ele><time>2026-04-19T17:43:08.05Z</time></trkpt><trkpt lat="45.4088678" lon="10.5397247"><ele>133.0</ele><time>2026-04-19T17:43:17.052Z</time></trkpt><trkpt lat="45.408812" lon="10.5396697"><ele>133.0</ele><time>2026-04-19T17:43:20.056Z</time></trkpt><trkpt lat="45.408881" lon="10.5397146"><ele>133.0</ele><time>2026-04-19T17:43:46.057Z</time></trkpt><trkpt lat="45.4089568" lon="10.5397468"><ele>133.0</ele><time>2026-04-19T17:43:54.056Z</time></trkpt><trkpt lat="45.4089289" lon="10.5398369"><ele>133.0</ele><time>2026-04-19T17:44:02.058Z</time></trkpt><trkpt lat="45.4089926" lon="10.5398547"><ele>133.0</ele><time>2026-04-19T17:50:56.051Z</time></trkpt><trkpt lat="45.4089302" lon="10.5398271"><ele>133.0</ele><time>2026-04-19T17:52:07.054Z</time></trkpt><trkpt lat="45.4089947" lon="10.5398523"><ele>133.0</ele><time>2026-04-19T17:52:58.059Z</time></trkpt><trkpt lat="45.4089317" lon="10.539855"><ele>133.0</ele><time>2026-04-19T17:53:42.053Z</time></trkpt><trkpt lat="45.4089966" lon="10.5398649"><ele>133.0</ele><time>2026-04-19T18:05:13.05Z</time></trkpt><trkpt lat="45.4089268" lon="10.5398678"><ele>133.0</ele><time>2026-04-19T18:06:42.066Z</time></trkpt><trkpt lat="45.4089675" lon="10.5397733"><ele>133.0</ele><time>2026-04-19T18:07:24.052Z</time></trkpt><trkpt lat="45.4090249" lon="10.5397342"><ele>133.0</ele><time>2026-04-19T18:07:41.051Z</time></trkpt><trkpt lat="45.4091022" lon="10.5397126"><ele>133.0</ele><time>2026-04-19T18:07:53.055Z</time></trkpt><trkpt lat="45.4090567" lon="10.539827"><ele>133.0</ele><time>2026-04-19T18:08:02.059Z</time></trkpt><trkpt lat="45.4089955" lon="10.5397907"><ele>133.0</ele><time>2026-04-19T18:08:12.047Z</time></trkpt><trkpt lat="45.4089318" lon="10.5397939"><ele>133.0</ele><time>2026-04-19T18:08:19.052Z</time></trkpt><trkpt lat="45.408863" lon="10.5398292"><ele>133.0</ele><time>2026-04-19T18:08:25.053Z</time></trkpt><trkpt lat="45.4088588" lon="10.5399228"><ele>133.0</ele><time>2026-04-19T18:08:29.05Z</time></trkpt><trkpt lat="45.4088001" lon="10.5398892"><ele>133.0</ele><time>2026-04-19T18:10:46.049Z</time></trkpt><trkpt lat="45.4088694" lon="10.5399247"><ele>133.0</ele><time>2026-04-19T18:10:59.044Z</time></trkpt><trkpt lat="45.4089935" lon="10.5399073"><ele>133.0</ele><time>2026-04-19T18:11:09.049Z</time></trkpt><trkpt lat="45.4090569" lon="10.539843"><ele>133.0</ele><time>2026-04-19T18:12:02.043Z</time></trkpt><trkpt lat="45.4091166" lon="10.5397989"><ele>133.0</ele><time>2026-04-19T18:12:04.055Z</time></trkpt><trkpt lat="45.4090451" lon="10.5397334"><ele>133.0</ele><time>2026-04-19T18:12:23.058Z</time></trkpt><trkpt lat="45.4089576" lon="10.5397147"><ele>133.0</ele><time>2026-04-19T18:12:25.052Z</time></trkpt><trkpt lat="45.4088894" lon="10.53971"><ele>133.0</ele><time>2026-04-19T18:12:35.05Z</time></trkpt><trkpt lat="45.4088626" lon="10.5397953"><ele>133.0</ele><time>2026-04-19T18:12:53.057Z</time></trkpt><trkpt lat="45.4089249" lon="10.5398795"><ele>133.0</ele><time>2026-04-19T18:15:23.037Z</time></trkpt><trkpt lat="45.4088712" lon="10.5399322"><ele>133.0</ele><time>2026-04-19T18:17:28.046Z</time></trkpt><trkpt lat="45.4089605" lon="10.5398953"><ele>133.0</ele><time>2026-04-19T18:17:53.057Z</time></trkpt><trkpt lat="45.4089933" lon="10.5398159"><ele>133.0</ele><time>2026-04-19T18:19:16.057Z</time></trkpt><trkpt lat="45.4089107" lon="10.5398197"><ele>133.0</ele><time>2026-04-19T18:20:56.06Z</time></trkpt><trkpt lat="45.4090368" lon="10.5398354"><ele>133.0</ele><time>2026-04-19T18:24:01.058Z</time></trkpt><trkpt lat="45.4089713" lon="10.5398487"><ele>133.0</ele><time>2026-04-19T18:24:24.057Z</time></trkpt><trkpt lat="45.408911" lon="10.5398918"><ele>133.0</ele><time>2026-04-19T18:24:56.05Z</time></trkpt><trkpt lat="45.4089769" lon="10.5398858"><ele>133.0</ele><time>2026-04-19T18:26:24.051Z</time></trkpt><trkpt lat="45.4089722" lon="10.5397757"><ele>133.0</ele><time>2026-04-19T18:27:49.054Z</time></trkpt><trkpt lat="45.4089351" lon="10.5398646"><ele>133.0</ele><time>2026-04-19T18:28:29.057Z</time></trkpt><trkpt lat="45.4088505" lon="10.5399474"><ele>133.0</ele><time>2026-04-19T18:28:44.05Z</time></trkpt><trkpt lat="45.4089083" lon="10.5399009"><ele>133.0</ele><time>2026-04-19T18:28:46.056Z</time></trkpt><trkpt lat="45.4089645" lon="10.5398422"><ele>133.0</ele><time>2026-04-19T18:28:49.051Z</time></trkpt><trkpt lat="45.4090286" lon="10.5397913"><ele>133.0</ele><time>2026-04-19T18:29:02.062Z</time></trkpt><trkpt lat="45.409089" lon="10.5397471"><ele>133.0</ele><time>2026-04-19T18:29:10.057Z</time></trkpt><trkpt lat="45.4090283" lon="10.5397826"><ele>133.0</ele><time>2026-04-19T18:29:34.053Z</time></trkpt><trkpt lat="45.4089838" lon="10.5398547"><ele>133.0</ele><time>2026-04-19T18:30:29.044Z</time></trkpt><trkpt lat="45.4089214" lon="10.5398218"><ele>133.0</ele><time>2026-04-19T18:31:02.05Z</time></trkpt><trkpt lat="45.4088681" lon="10.5398721"><ele>133.0</ele><time>2026-04-19T18:31:11.049Z</time></trkpt><trkpt lat="45.4089293" lon="10.5398205"><ele>133.0</ele><time>2026-04-19T18:31:24.05Z</time></trkpt><trkpt lat="45.4088852" lon="10.5399087"><ele>133.0</ele><time>2026-04-19T18:32:34.045Z</time></trkpt><trkpt lat="45.4088097" lon="10.5399791"><ele>133.0</ele><time>2026-04-19T18:32:39.041Z</time></trkpt><trkpt lat="45.4088699" lon="10.5399366"><ele>133.0</ele><time>2026-04-19T18:32:44.05Z</time></trkpt><trkpt lat="45.4089472" lon="10.5398781"><ele>133.0</ele><time>2026-04-19T18:32:48.046Z</time></trkpt><trkpt lat="45.4090097" lon="10.5398197"><ele>133.0</ele><time>2026-04-19T18:32:58.051Z</time></trkpt><trkpt lat="45.4089439" lon="10.5399004"><ele>133.0</ele><time>2026-04-19T18:33:08.054Z</time></trkpt><trkpt lat="45.4088482" lon="10.5399952"><ele>133.0</ele><time>2026-04-19T18:33:10.054Z</time></trkpt><trkpt lat="45.4087798" lon="10.5400709"><ele>133.0</ele><time>2026-04-19T18:33:12.048Z</time></trkpt><trkpt lat="45.4088356" lon="10.540022"><ele>133.0</ele><time>2026-04-19T18:33:32.054Z</time></trkpt><trkpt lat="45.4088927" lon="10.5399743"><ele>133.0</ele><time>2026-04-19T18:33:37.053Z</time></trkpt><trkpt lat="45.4089594" lon="10.5399857"><ele>133.0</ele><time>2026-04-19T18:34:18.047Z</time></trkpt><trkpt lat="45.4090364" lon="10.5399013"><ele>133.0</ele><time>2026-04-19T18:34:20.056Z</time></trkpt><trkpt lat="45.4090879" lon="10.5398304"><ele>133.0</ele><time>2026-04-19T18:34:23.052Z</time></trkpt><trkpt lat="45.4091381" lon="10.5397466"><ele>133.0</ele><time>2026-04-19T18:34:26.048Z</time></trkpt><trkpt lat="45.4090748" lon="10.5397646"><ele>133.0</ele><time>2026-04-19T18:35:01.057Z</time></trkpt><trkpt lat="45.4090065" lon="10.5397965"><ele>133.0</ele><time>2026-04-19T18:35:10.056Z</time></trkpt><trkpt lat="45.4089498" lon="10.5398405"><ele>133.0</ele><time>2026-04-19T18:35:20.049Z</time></trkpt><trkpt lat="45.4090119" lon="10.5397957"><ele>133.0</ele><time>2026-04-19T18:36:50.056Z</time></trkpt><trkpt lat="45.4090675" lon="10.5397408"><ele>133.0</ele><time>2026-04-19T18:37:15.053Z</time></trkpt><trkpt lat="45.4090125" lon="10.5397943"><ele>133.0</ele><time>2026-04-19T18:39:18.047Z</time></trkpt><trkpt lat="45.4089381" lon="10.5398815"><ele>133.0</ele><time>2026-04-19T18:39:51.05Z</time></trkpt><trkpt lat="45.4088526" lon="10.5398807"><ele>133.0</ele><time>2026-04-19T18:39:56.055Z</time></trkpt><trkpt lat="45.4087665" lon="10.5399137"><ele>133.0</ele><time>2026-04-19T18:40:06.057Z</time></trkpt><trkpt lat="45.4088398" lon="10.5399161"><ele>133.0</ele><time>2026-04-19T18:40:20.055Z</time></trkpt><trkpt lat="45.4089293" lon="10.539893"><ele>133.0</ele><time>2026-04-19T18:40:31.052Z</time></trkpt><trkpt lat="45.4090184" lon="10.5398428"><ele>133.0</ele><time>2026-04-19T18:40:59.051Z</time></trkpt><trkpt lat="45.4089234" lon="10.5398169"><ele>133.0</ele><time>2026-04-19T18:41:58.055Z</time></trkpt><trkpt lat="45.4090323" lon="10.5398185"><ele>133.0</ele><time>2026-04-19T18:43:03.057Z</time></trkpt><trkpt lat="45.4091411" lon="10.5397507"><ele>133.0</ele><time>2026-04-19T18:44:00.055Z</time></trkpt><trkpt lat="45.4092048" lon="10.5397232"><ele>133.0</ele><time>2026-04-19T18:44:45.042Z</time></trkpt><trkpt lat="45.4091641" lon="10.5396547"><ele>133.0</ele><time>2026-04-19T18:44:58.054Z</time></trkpt><trkpt lat="45.4090826" lon="10.5396718"><ele>133.0</ele><time>2026-04-19T18:45:02.049Z</time></trkpt><trkpt lat="45.409005" lon="10.5397117"><ele>133.0</ele><time>2026-04-19T18:45:21.053Z</time></trkpt><trkpt lat="45.4090541" lon="10.5397944"><ele>133.0</ele><time>2026-04-19T18:45:56.051Z</time></trkpt><trkpt lat="45.4089883" lon="10.5398649"><ele>133.0</ele><time>2026-04-19T18:46:13.048Z</time></trkpt><trkpt lat="45.4090643" lon="10.5398677"><ele>133.0</ele><time>2026-04-19T18:47:04.045Z</time></trkpt><trkpt lat="45.4090339" lon="10.539783"><ele>133.0</ele><time>2026-04-19T18:47:33.055Z</time></trkpt><trkpt lat="45.4090946" lon="10.5398562"><ele>133.0</ele><time>2026-04-19T18:51:31.05Z</time></trkpt><trkpt lat="45.4090235" lon="10.5398137"><ele>133.0</ele><time>2026-04-19T18:51:53.039Z</time></trkpt><trkpt lat="45.4089652" lon="10.5397475"><ele>133.0</ele><time>2026-04-19T18:52:48.047Z</time></trkpt><trkpt lat="45.4090324" lon="10.5397637"><ele>133.0</ele><time>2026-04-19T18:56:26.045Z</time></trkpt><trkpt lat="45.4090562" lon="10.5398552"><ele>133.0</ele><time>2026-04-19T18:57:15.043Z</time></trkpt><trkpt lat="45.4089726" lon="10.5398035"><ele>133.0</ele><time>2026-04-19T18:57:57.047Z</time></trkpt><trkpt lat="45.4088961" lon="10.5397977"><ele>133.0</ele><time>2026-04-19T18:58:27.054Z</time></trkpt><trkpt lat="45.4089923" lon="10.5398129"><ele>133.0</ele><time>2026-04-19T18:58:39.044Z</time></trkpt><trkpt lat="45.4089301" lon="10.5398332"><ele>133.0</ele><time>2026-04-19T18:59:34.045Z</time></trkpt><trkpt lat="45.4089915" lon="10.5397499"><ele>133.0</ele><time>2026-04-19T19:01:04.047Z</time></trkpt><trkpt lat="45.4089173" lon="10.5397786"><ele>133.0</ele><time>2026-04-19T19:01:10.052Z</time></trkpt><trkpt lat="45.4089942" lon="10.5397797"><ele>133.0</ele><time>2026-04-19T19:01:33.048Z</time></trkpt><trkpt lat="45.4089052" lon="10.5397985"><ele>133.0</ele><time>2026-04-19T19:05:32.048Z</time></trkpt><trkpt lat="45.4088479" lon="10.5398361"><ele>133.0</ele><time>2026-04-19T19:05:44.056Z</time></trkpt><trkpt lat="45.4088939" lon="10.5397744"><ele>133.0</ele><time>2026-04-19T19:06:26.054Z</time></trkpt><trkpt lat="45.4089933" lon="10.5397688"><ele>133.0</ele><time>2026-04-19T19:06:31.046Z</time></trkpt><trkpt lat="45.4089299" lon="10.539823"><ele>133.0</ele><time>2026-04-19T19:07:03.049Z</time></trkpt><trkpt lat="45.4090061" lon="10.539783"><ele>133.0</ele><time>2026-04-19T19:10:34.048Z</time></trkpt><trkpt lat="45.4090923" lon="10.539745"><ele>133.0</ele><time>2026-04-19T19:10:44.059Z</time></trkpt><trkpt lat="45.4090276" lon="10.5397149"><ele>133.0</ele><time>2026-04-19T19:11:15.047Z</time></trkpt><trkpt lat="45.4090728" lon="10.5397899"><ele>133.0</ele><time>2026-04-19T19:11:45.046Z</time></trkpt><trkpt lat="45.4090059" lon="10.5398099"><ele>133.0</ele><time>2026-04-19T19:12:01.057Z</time></trkpt><trkpt lat="45.4089408" lon="10.539812"><ele>133.0</ele><time>2026-04-19T19:12:09.057Z</time></trkpt><trkpt lat="45.4090271" lon="10.539788"><ele>133.0</ele><time>2026-04-19T19:13:17.045Z</time></trkpt><trkpt lat="45.4089608" lon="10.5397804"><ele>133.0</ele><time>2026-04-19T19:14:05.042Z</time></trkpt><trkpt lat="45.4090243" lon="10.5397567"><ele>133.0</ele><time>2026-04-19T19:14:49.05Z</time></trkpt><trkpt lat="45.4089666" lon="10.5398051"><ele>133.0</ele><time>2026-04-19T19:15:32.06Z</time></trkpt><trkpt lat="45.4090605" lon="10.5397714"><ele>133.0</ele><time>2026-04-19T19:16:17.047Z</time></trkpt><trkpt lat="45.4091271" lon="10.5397019"><ele>133.0</ele><time>2026-04-19T19:17:57.048Z</time></trkpt><trkpt lat="45.4090698" lon="10.5397471"><ele>133.0</ele><time>2026-04-19T19:18:26.048Z</time></trkpt><trkpt lat="45.4089821" lon="10.539793"><ele>133.0</ele><time>2026-04-19T19:19:27.048Z</time></trkpt><trkpt lat="45.4090982" lon="10.5397804"><ele>133.0</ele><time>2026-04-19T19:20:05.049Z</time></trkpt><trkpt lat="45.40904" lon="10.5398353"><ele>133.0</ele><time>2026-04-19T19:20:13.046Z</time></trkpt><trkpt lat="45.4089665" lon="10.5398851"><ele>133.0</ele><time>2026-04-19T19:20:16.052Z</time></trkpt><trkpt lat="45.4089069" lon="10.5398424"><ele>133.0</ele><time>2026-04-19T19:21:01.046Z</time></trkpt><trkpt lat="45.4088424" lon="10.5398266"><ele>133.0</ele><time>2026-04-19T19:21:44.046Z</time></trkpt><trkpt lat="45.4089334" lon="10.5397925"><ele>133.0</ele><time>2026-04-19T19:22:09.043Z</time></trkpt><trkpt lat="45.4089973" lon="10.5397314"><ele>133.0</ele><time>2026-04-19T19:23:22.046Z</time></trkpt><trkpt lat="45.4090979" lon="10.5397558"><ele>133.0</ele><time>2026-04-19T19:23:39.055Z</time></trkpt><trkpt lat="45.4090403" lon="10.539688"><ele>133.0</ele><time>2026-04-19T19:23:51.053Z</time></trkpt><trkpt lat="45.4090392" lon="10.5395859"><ele>133.0</ele><time>2026-04-19T19:24:03.045Z</time></trkpt><trkpt lat="45.408971" lon="10.5395723"><ele>133.0</ele><time>2026-04-19T19:24:10.042Z</time></trkpt><trkpt lat="45.4090318" lon="10.5396241"><ele>133.0</ele><time>2026-04-19T19:24:18.044Z</time></trkpt><trkpt lat="45.408998" lon="10.5397218"><ele>133.0</ele><time>2026-04-19T19:25:04.052Z</time></trkpt><trkpt lat="45.4089312" lon="10.5397417"><ele>133.0</ele><time>2026-04-19T19:25:12.049Z</time></trkpt><trkpt lat="45.4089042" lon="10.5398346"><ele>133.0</ele><time>2026-04-19T19:25:33.054Z</time></trkpt><trkpt lat="45.4089616" lon="10.5398744"><ele>133.0</ele><time>2026-04-19T19:25:48.943Z</time></trkpt><trkpt lat="45.4089137" lon="10.5399578"><ele>133.0</ele><time>2026-04-19T19:26:03.045Z</time></trkpt><trkpt lat="45.4089301" lon="10.5398637"><ele>133.0</ele><time>2026-04-19T19:26:29.045Z</time></trkpt><trkpt lat="45.4088925" lon="10.5397764"><ele>133.0</ele><time>2026-04-19T19:26:39.053Z</time></trkpt><trkpt lat="45.4089577" lon="10.5397904"><ele>133.0</ele><time>2026-04-19T19:27:02.047Z</time></trkpt><trkpt lat="45.4090275" lon="10.53979"><ele>133.0</ele><time>2026-04-19T19:27:16.043Z</time></trkpt><trkpt lat="45.4089535" lon="10.5397387"><ele>133.0</ele><time>2026-04-19T19:27:26.044Z</time></trkpt><trkpt lat="45.4089179" lon="10.5396406"><ele>133.0</ele><time>2026-04-19T19:27:33.043Z</time></trkpt><trkpt lat="45.4089988" lon="10.5396918"><ele>133.0</ele><time>2026-04-19T19:27:41.046Z</time></trkpt><trkpt lat="45.4090895" lon="10.539712"><ele>133.0</ele><time>2026-04-19T19:27:49.048Z</time></trkpt><trkpt lat="45.4091094" lon="10.5398596"><ele>133.0</ele><time>2026-04-19T19:28:32.043Z</time></trkpt><trkpt lat="45.409012" lon="10.5398056"><ele>133.0</ele><time>2026-04-19T19:28:52.051Z</time></trkpt><trkpt lat="45.4090687" lon="10.53976"><ele>133.0</ele><time>2026-04-19T19:29:51.047Z</time></trkpt><trkpt lat="45.4091439" lon="10.539756"><ele>133.0</ele><time>2026-04-19T19:30:39.053Z</time></trkpt><trkpt lat="45.4090409" lon="10.5397905"><ele>133.0</ele><time>2026-04-19T19:31:05.044Z</time></trkpt><trkpt lat="45.4091245" lon="10.5397501"><ele>133.0</ele><time>2026-04-19T19:31:09.049Z</time></trkpt><trkpt lat="45.4092417" lon="10.5397144"><ele>133.0</ele><time>2026-04-19T19:31:39.043Z</time></trkpt><trkpt lat="45.4093023" lon="10.539684"><ele>133.0</ele><time>2026-04-19T19:32:01.043Z</time></trkpt><trkpt lat="45.4092256" lon="10.5397866"><ele>133.0</ele><time>2026-04-19T19:32:10.045Z</time></trkpt><trkpt lat="45.4091417" lon="10.5398356"><ele>133.0</ele><time>2026-04-19T19:32:11.043Z</time></trkpt><trkpt lat="45.409084" lon="10.5398752"><ele>133.0</ele><time>2026-04-19T19:32:18.035Z</time></trkpt><trkpt lat="45.4090214" lon="10.5398117"><ele>133.0</ele><time>2026-04-19T19:32:28.036Z</time></trkpt><trkpt lat="45.4089359" lon="10.5398083"><ele>133.0</ele><time>2026-04-19T19:33:45.048Z</time></trkpt><trkpt lat="45.4090173" lon="10.5397851"><ele>133.0</ele><time>2026-04-19T19:34:05.046Z</time></trkpt><trkpt lat="45.4090873" lon="10.539814"><ele>133.0</ele><time>2026-04-19T19:34:42.056Z</time></trkpt><trkpt lat="45.4091506" lon="10.5398438"><ele>133.0</ele><time>2026-04-19T19:34:48.05Z</time></trkpt><trkpt lat="45.4090851" lon="10.5397892"><ele>133.0</ele><time>2026-04-19T19:35:44.046Z</time></trkpt><trkpt lat="45.4091647" lon="10.5397266"><ele>133.0</ele><time>2026-04-19T19:36:27.052Z</time></trkpt><trkpt lat="45.4092657" lon="10.5396545"><ele>133.0</ele><time>2026-04-19T19:36:33.05Z</time></trkpt><trkpt lat="45.4093772" lon="10.5396532"><ele>133.0</ele><time>2026-04-19T19:36:37.051Z</time></trkpt><trkpt lat="45.4094222" lon="10.5395791"><ele>133.0</ele><time>2026-04-19T19:36:42.049Z</time></trkpt><trkpt lat="45.4095004" lon="10.539551"><ele>133.0</ele><time>2026-04-19T19:36:47.034Z</time></trkpt><trkpt lat="45.4092542" lon="10.539653"><ele>133.0</ele><time>2026-04-19T19:37:00.053Z</time></trkpt><trkpt lat="45.4090676" lon="10.5397401"><ele>133.0</ele><time>2026-04-19T19:37:02.055Z</time></trkpt><trkpt lat="45.4091393" lon="10.5396604"><ele>133.0</ele><time>2026-04-19T19:37:09.047Z</time></trkpt><trkpt lat="45.4090726" lon="10.5396707"><ele>133.0</ele><time>2026-04-19T19:37:52.043Z</time></trkpt><trkpt lat="45.4091606" lon="10.5396317"><ele>133.0</ele><time>2026-04-19T19:38:07.049Z</time></trkpt><trkpt lat="45.4092423" lon="10.5395781"><ele>133.0</ele><time>2026-04-19T19:38:09.045Z</time></trkpt><trkpt lat="45.4091399" lon="10.5396613"><ele>133.0</ele><time>2026-04-19T19:38:14.054Z</time></trkpt><trkpt lat="45.4090949" lon="10.5397265"><ele>133.0</ele><time>2026-04-19T19:38:41.045Z</time></trkpt><trkpt lat="45.409063" lon="10.5398619"><ele>133.0</ele><time>2026-04-19T19:38:48.053Z</time></trkpt><trkpt lat="45.409124" lon="10.5398069"><ele>133.0</ele><time>2026-04-19T19:38:53.039Z</time></trkpt><trkpt lat="45.4090622" lon="10.5397776"><ele>133.0</ele><time>2026-04-19T19:39:01.045Z</time></trkpt><trkpt lat="45.409022" lon="10.5398645"><ele>133.0</ele><time>2026-04-19T19:39:10.045Z</time></trkpt><trkpt lat="45.4089293" lon="10.5397718"><ele>133.0</ele><time>2026-04-19T19:39:45.049Z</time></trkpt><trkpt lat="45.4088669" lon="10.5396921"><ele>133.0</ele><time>2026-04-19T19:39:47.043Z</time></trkpt><trkpt lat="45.4089542" lon="10.539733"><ele>133.0</ele><time>2026-04-19T19:40:13.044Z</time></trkpt><trkpt lat="45.4090329" lon="10.5397472"><ele>133.0</ele><time>2026-04-19T19:40:22.054Z</time></trkpt><trkpt lat="45.4090054" lon="10.5398396"><ele>133.0</ele><time>2026-04-19T19:41:32.043Z</time></trkpt><trkpt lat="45.4090669" lon="10.5397478"><ele>133.0</ele><time>2026-04-19T19:42:25.053Z</time></trkpt><trkpt lat="45.4091466" lon="10.5397284"><ele>133.0</ele><time>2026-04-19T19:43:13.042Z</time></trkpt><trkpt lat="45.4090838" lon="10.5397827"><ele>133.0</ele><time>2026-04-19T19:43:31.048Z</time></trkpt><trkpt lat="45.4090446" lon="10.5397114"><ele>133.0</ele><time>2026-04-19T19:44:44.049Z</time></trkpt><trkpt lat="45.4090616" lon="10.5398019"><ele>133.0</ele><time>2026-04-19T19:45:06.052Z</time></trkpt><trkpt lat="45.4091081" lon="10.5397271"><ele>133.0</ele><time>2026-04-19T19:45:28.046Z</time></trkpt><trkpt lat="45.4090313" lon="10.539732"><ele>133.0</ele><time>2026-04-19T19:46:05.05Z</time></trkpt><trkpt lat="45.408953" lon="10.53972"><ele>133.0</ele><time>2026-04-19T19:46:20.051Z</time></trkpt><trkpt lat="45.4088754" lon="10.5397132"><ele>133.0</ele><time>2026-04-19T19:46:24.044Z</time></trkpt><trkpt lat="45.4088135" lon="10.5397459"><ele>133.0</ele><time>2026-04-19T19:46:29.051Z</time></trkpt><trkpt lat="45.4088644" lon="10.5397991"><ele>133.0</ele><time>2026-04-19T19:46:41.048Z</time></trkpt><trkpt lat="45.4089401" lon="10.5398279"><ele>133.0</ele><time>2026-04-19T19:46:48.044Z</time></trkpt><trkpt lat="45.4090226" lon="10.5398065"><ele>133.0</ele><time>2026-04-19T19:47:26.046Z</time></trkpt><trkpt lat="45.4089463" lon="10.5398357"><ele>133.0</ele><time>2026-04-19T19:48:19.041Z</time></trkpt><trkpt lat="45.4088662" lon="10.5398102"><ele>133.0</ele><time>2026-04-19T19:48:50.051Z</time></trkpt><trkpt lat="45.4089419" lon="10.5398054"><ele>133.0</ele><time>2026-04-19T19:49:20.051Z</time></trkpt><trkpt lat="45.4090267" lon="10.5398595"><ele>133.0</ele><time>2026-04-19T19:49:52.051Z</time></trkpt><trkpt lat="45.4089711" lon="10.5398019"><ele>133.0</ele><time>2026-04-19T19:50:19.052Z</time></trkpt><trkpt lat="45.4090353" lon="10.5397945"><ele>133.0</ele><time>2026-04-19T19:51:05.048Z</time></trkpt><trkpt lat="45.4089459" lon="10.5397773"><ele>133.0</ele><time>2026-04-19T19:54:10.041Z</time></trkpt><trkpt lat="45.4090022" lon="10.5398227"><ele>133.0</ele><time>2026-04-19T19:57:08.043Z</time></trkpt><trkpt lat="45.4089338" lon="10.5398264"><ele>133.0</ele><time>2026-04-19T19:58:13.042Z</time></trkpt><trkpt lat="45.4089205" lon="10.5399262"><ele>133.0</ele><time>2026-04-19T19:58:26.054Z</time></trkpt><trkpt lat="45.4089702" lon="10.5398674"><ele>133.0</ele><time>2026-04-19T19:59:29.034Z</time></trkpt><trkpt lat="45.4088767" lon="10.5397966"><ele>133.0</ele><time>2026-04-19T19:59:41.05Z</time></trkpt><trkpt lat="45.4089417" lon="10.5397924"><ele>133.0</ele><time>2026-04-19T19:59:53.042Z</time></trkpt><trkpt lat="45.408841" lon="10.5397918"><ele>133.0</ele><time>2026-04-19T20:00:19.045Z</time></trkpt><trkpt lat="45.4089045" lon="10.5398265"><ele>133.0</ele><time>2026-04-19T20:00:23.048Z</time></trkpt><trkpt lat="45.4090024" lon="10.5398661"><ele>133.0</ele><time>2026-04-19T20:03:27.05Z</time></trkpt><trkpt lat="45.408938" lon="10.53985"><ele>133.0</ele><time>2026-04-19T20:03:40.043Z</time></trkpt><trkpt lat="45.4088749" lon="10.5398338"><ele>133.0</ele><time>2026-04-19T20:04:23.048Z</time></trkpt><trkpt lat="45.4089564" lon="10.539828"><ele>133.0</ele><time>2026-04-19T20:07:08.046Z</time></trkpt><trkpt lat="45.4089316" lon="10.5397098"><ele>133.0</ele><time>2026-04-19T20:13:22.047Z</time></trkpt><trkpt lat="45.408855" lon="10.5397427"><ele>133.0</ele><time>2026-04-19T20:13:32.04Z</time></trkpt><trkpt lat="45.408785" lon="10.5397514"><ele>133.0</ele><time>2026-04-19T20:13:36.09Z</time></trkpt><trkpt lat="45.4088589" lon="10.5398043"><ele>133.0</ele><time>2026-04-19T20:14:27.046Z</time></trkpt><trkpt lat="45.4090067" lon="10.5398154"><ele>133.0</ele><time>2026-04-19T20:16:42.042Z</time></trkpt><trkpt lat="45.4089394" lon="10.5398214"><ele>133.0</ele><time>2026-04-19T20:16:55.047Z</time></trkpt><trkpt lat="45.4090054" lon="10.5398053"><ele>133.0</ele><time>2026-04-19T20:17:37.049Z</time></trkpt><trkpt lat="45.4089479" lon="10.5398601"><ele>133.0</ele><time>2026-04-19T20:18:07.043Z</time></trkpt><trkpt lat="45.4088615" lon="10.5398832"><ele>133.0</ele><time>2026-04-19T20:18:38.05Z</time></trkpt><trkpt lat="45.4089238" lon="10.5398537"><ele>133.0</ele><time>2026-04-19T20:19:03.048Z</time></trkpt><trkpt lat="45.4089915" lon="10.539737"><ele>133.0</ele><time>2026-04-19T20:22:00.041Z</time></trkpt><trkpt lat="45.4089623" lon="10.5398249"><ele>133.0</ele><time>2026-04-19T20:22:37.048Z</time></trkpt><trkpt lat="45.4088924" lon="10.5398254"><ele>133.0</ele><time>2026-04-19T20:24:33.045Z</time></trkpt><trkpt lat="45.4088979" lon="10.5399286"><ele>133.0</ele><time>2026-04-19T20:24:57.043Z</time></trkpt><trkpt lat="45.4088368" lon="10.5399507"><ele>133.0</ele><time>2026-04-19T20:25:05.048Z</time></trkpt><trkpt lat="45.4087755" lon="10.5399243"><ele>133.0</ele><time>2026-04-19T20:25:16.045Z</time></trkpt><trkpt lat="45.4087554" lon="10.539826"><ele>133.0</ele><time>2026-04-19T20:25:23.038Z</time></trkpt><trkpt lat="45.4088207" lon="10.5397787"><ele>133.0</ele><time>2026-04-19T20:25:36.044Z</time></trkpt><trkpt lat="45.4088902" lon="10.5398221"><ele>133.0</ele><time>2026-04-19T20:25:58.042Z</time></trkpt><trkpt lat="45.4089633" lon="10.5397917"><ele>133.0</ele><time>2026-04-19T20:26:40.047Z</time></trkpt><trkpt lat="45.4089134" lon="10.5398509"><ele>133.0</ele><time>2026-04-19T20:28:17.048Z</time></trkpt><trkpt lat="45.4088308" lon="10.5399065"><ele>133.0</ele><time>2026-04-19T20:28:39.041Z</time></trkpt><trkpt lat="45.4088908" lon="10.5398658"><ele>133.0</ele><time>2026-04-19T20:29:18.048Z</time></trkpt><trkpt lat="45.408814" lon="10.5398513"><ele>133.0</ele><time>2026-04-19T20:29:53.042Z</time></trkpt><trkpt lat="45.4088981" lon="10.539852"><ele>133.0</ele><time>2026-04-19T20:30:05.051Z</time></trkpt><trkpt lat="45.4089706" lon="10.5398156"><ele>133.0</ele><time>2026-04-19T20:31:33.041Z</time></trkpt><trkpt lat="45.4089066" lon="10.539831"><ele>133.0</ele><time>2026-04-19T20:41:53.049Z</time></trkpt><trkpt lat="45.4089346" lon="10.5399332"><ele>133.0</ele><time>2026-04-19T20:44:07.044Z</time></trkpt><trkpt lat="45.4089807" lon="10.5398086"><ele>133.0</ele><time>2026-04-19T20:45:47.043Z</time></trkpt><trkpt lat="45.4089165" lon="10.5397791"><ele>133.0</ele><time>2026-04-19T20:48:30.041Z</time></trkpt><trkpt lat="45.4088571" lon="10.5398468"><ele>133.0</ele><time>2026-04-19T20:49:22.044Z</time></trkpt><trkpt lat="45.4089208" lon="10.5398681"><ele>133.0</ele><time>2026-04-19T20:50:04.048Z</time></trkpt><trkpt lat="45.408985" lon="10.5398309"><ele>133.0</ele><time>2026-04-19T20:51:29.039Z</time></trkpt><trkpt lat="45.4088687" lon="10.5398276"><ele>133.0</ele><time>2026-04-19T20:52:48.057Z</time></trkpt><trkpt lat="45.4089396" lon="10.5398299"><ele>133.0</ele><time>2026-04-19T20:53:29.041Z</time></trkpt><trkpt lat="45.4090905" lon="10.5398408"><ele>133.0</ele><time>2026-04-19T21:02:07.044Z</time></trkpt><trkpt lat="45.409024" lon="10.5398391"><ele>133.0</ele><time>2026-04-19T21:02:17.047Z</time></trkpt><trkpt lat="45.4088862" lon="10.5398265"><ele>133.0</ele><time>2026-04-19T21:03:34.031Z</time></trkpt><trkpt lat="45.4088235" lon="10.5398103"><ele>133.0</ele><time>2026-04-19T21:04:53.04Z</time></trkpt><trkpt lat="45.4089325" lon="10.5398328"><ele>133.0</ele><time>2026-04-19T21:05:29.045Z</time></trkpt><trkpt lat="45.4088811" lon="10.5397769"><ele>133.0</ele><time>2026-04-19T21:06:17.04Z</time></trkpt><trkpt lat="45.4088178" lon="10.5398264"><ele>133.0</ele><time>2026-04-19T21:06:33.037Z</time></trkpt><trkpt lat="45.4088973" lon="10.5398414"><ele>133.0</ele><time>2026-04-19T21:06:37.048Z</time></trkpt><trkpt lat="45.4089827" lon="10.5398572"><ele>133.0</ele><time>2026-04-19T21:06:39.038Z</time></trkpt><trkpt lat="45.4090443" lon="10.5398763"><ele>133.0</ele><time>2026-04-19T21:06:43.048Z</time></trkpt><trkpt lat="45.4089759" lon="10.5398476"><ele>133.0</ele><time>2026-04-19T21:06:55.033Z</time></trkpt><trkpt lat="45.408902" lon="10.5398041"><ele>133.0</ele><time>2026-04-19T21:07:07.042Z</time></trkpt><trkpt lat="45.4088289" lon="10.5397597"><ele>133.0</ele><time>2026-04-19T21:07:13.038Z</time></trkpt><trkpt lat="45.408915" lon="10.5398233"><ele>133.0</ele><time>2026-04-19T21:10:38.05Z</time></trkpt><trkpt lat="45.4088703" lon="10.5398886"><ele>133.0</ele><time>2026-04-19T21:12:08.049Z</time></trkpt><trkpt lat="45.4088015" lon="10.5398592"><ele>133.0</ele><time>2026-04-19T21:12:20.038Z</time></trkpt><trkpt lat="45.4087398" lon="10.5398398"><ele>133.0</ele><time>2026-04-19T21:12:28.043Z</time></trkpt><trkpt lat="45.4087955" lon="10.5398962"><ele>133.0</ele><time>2026-04-19T21:12:53.04Z</time></trkpt><trkpt lat="45.4088702" lon="10.5398869"><ele>133.0</ele><time>2026-04-19T21:12:57.049Z</time></trkpt><trkpt lat="45.4089762" lon="10.5398865"><ele>133.0</ele><time>2026-04-19T21:13:13.052Z</time></trkpt><trkpt lat="45.4089102" lon="10.5398583"><ele>133.0</ele><time>2026-04-19T21:15:44.042Z</time></trkpt><trkpt lat="45.4090072" lon="10.5398341"><ele>133.0</ele><time>2026-04-19T21:17:02.04Z</time></trkpt><trkpt lat="45.4090516" lon="10.5399183"><ele>133.0</ele><time>2026-04-19T21:17:08.043Z</time></trkpt><trkpt lat="45.4089933" lon="10.539875"><ele>133.0</ele><time>2026-04-19T21:17:20.05Z</time></trkpt><trkpt lat="45.4089951" lon="10.5397636"><ele>133.0</ele><time>2026-04-19T21:18:03.038Z</time></trkpt><trkpt lat="45.4090095" lon="10.5396241"><ele>133.0</ele><time>2026-04-19T21:18:14.049Z</time></trkpt><trkpt lat="45.4091211" lon="10.5395054"><ele>133.0</ele><time>2026-04-19T21:18:20.041Z</time></trkpt><trkpt lat="45.4090426" lon="10.5395524"><ele>133.0</ele><time>2026-04-19T21:18:23.049Z</time></trkpt><trkpt lat="45.4089747" lon="10.5396183"><ele>133.0</ele><time>2026-04-19T21:18:26.05Z</time></trkpt><trkpt lat="45.4089274" lon="10.5396842"><ele>133.0</ele><time>2026-04-19T21:18:27.042Z</time></trkpt><trkpt lat="45.4088834" lon="10.5397756"><ele>133.0</ele><time>2026-04-19T21:18:32.05Z</time></trkpt><trkpt lat="45.4088448" lon="10.5398626"><ele>133.0</ele><time>2026-04-19T21:18:42.042Z</time></trkpt><trkpt lat="45.4087875" lon="10.5399393"><ele>133.0</ele><time>2026-04-19T21:18:47.043Z</time></trkpt><trkpt lat="45.4088804" lon="10.5399017"><ele>133.0</ele><time>2026-04-19T21:18:51.048Z</time></trkpt><trkpt lat="45.4088851" lon="10.5397886"><ele>133.0</ele><time>2026-04-19T21:18:55.038Z</time></trkpt><trkpt lat="45.408952" lon="10.5397503"><ele>133.0</ele><time>2026-04-19T21:19:19.038Z</time></trkpt><trkpt lat="45.4090542" lon="10.5397394"><ele>133.0</ele><time>2026-04-19T21:19:41.047Z</time></trkpt><trkpt lat="45.4089904" lon="10.5397283"><ele>133.0</ele><time>2026-04-19T21:19:54.046Z</time></trkpt><trkpt lat="45.4089085" lon="10.5397588"><ele>133.0</ele><time>2026-04-19T21:20:32.04Z</time></trkpt><trkpt lat="45.408833" lon="10.5397273"><ele>133.0</ele><time>2026-04-19T21:20:40.037Z</time></trkpt><trkpt lat="45.4089195" lon="10.5397693"><ele>133.0</ele><time>2026-04-19T21:21:05.039Z</time></trkpt><trkpt lat="45.4089726" lon="10.5398193"><ele>133.0</ele><time>2026-04-19T21:22:17.038Z</time></trkpt><trkpt lat="45.4090889" lon="10.5398314"><ele>133.0</ele><time>2026-04-19T21:24:57.046Z</time></trkpt><trkpt lat="45.4090348" lon="10.5397609"><ele>133.0</ele><time>2026-04-19T21:25:17.037Z</time></trkpt><trkpt lat="45.4089757" lon="10.5398067"><ele>133.0</ele><time>2026-04-19T21:26:18.039Z</time></trkpt><trkpt lat="45.4089162" lon="10.5398483"><ele>133.0</ele><time>2026-04-19T21:27:21.037Z</time></trkpt><trkpt lat="45.4089602" lon="10.539916"><ele>133.0</ele><time>2026-04-19T21:28:06.048Z</time></trkpt><trkpt lat="45.4090245" lon="10.5398569"><ele>133.0</ele><time>2026-04-19T21:28:25.04Z</time></trkpt><trkpt lat="45.4089618" lon="10.5398436"><ele>133.0</ele><time>2026-04-19T21:29:07.034Z</time></trkpt><trkpt lat="45.4089066" lon="10.5397685"><ele>133.0</ele><time>2026-04-19T21:29:55.036Z</time></trkpt><trkpt lat="45.4089371" lon="10.5396765"><ele>133.0</ele><time>2026-04-19T21:30:03.035Z</time></trkpt><trkpt lat="45.4090282" lon="10.5397255"><ele>133.0</ele><time>2026-04-19T21:30:39.039Z</time></trkpt><trkpt lat="45.4089581" lon="10.539736"><ele>133.0</ele><time>2026-04-19T21:31:11.039Z</time></trkpt><trkpt lat="45.4090788" lon="10.5397459"><ele>133.0</ele><time>2026-04-19T21:32:11.046Z</time></trkpt><trkpt lat="45.4090333" lon="10.5398167"><ele>133.0</ele><time>2026-04-19T21:32:28.036Z</time></trkpt><trkpt lat="45.4089681" lon="10.5398201"><ele>133.0</ele><time>2026-04-19T21:34:12.046Z</time></trkpt><trkpt lat="45.4089776" lon="10.5399118"><ele>133.0</ele><time>2026-04-19T21:34:31.034Z</time></trkpt><trkpt lat="45.4090224" lon="10.5398378"><ele>133.0</ele><time>2026-04-19T21:35:17.04Z</time></trkpt><trkpt lat="45.4089998" lon="10.5397538"><ele>133.0</ele><time>2026-04-19T21:37:17.045Z</time></trkpt><trkpt lat="45.4089132" lon="10.539741"><ele>133.0</ele><time>2026-04-19T21:37:19.035Z</time></trkpt><trkpt lat="45.4089749" lon="10.5398117"><ele>133.0</ele><time>2026-04-19T21:39:03.045Z</time></trkpt><trkpt lat="45.4089121" lon="10.5398362"><ele>133.0</ele><time>2026-04-19T21:39:36.042Z</time></trkpt><trkpt lat="45.4089846" lon="10.5398497"><ele>133.0</ele><time>2026-04-19T21:40:56.047Z</time></trkpt><trkpt lat="45.409047" lon="10.5398096"><ele>133.0</ele><time>2026-04-19T21:41:45.043Z</time></trkpt><trkpt lat="45.4090411" lon="10.5399018"><ele>133.0</ele><time>2026-04-19T21:42:22.032Z</time></trkpt><trkpt lat="45.4089872" lon="10.5398505"><ele>133.0</ele><time>2026-04-19T21:42:54.032Z</time></trkpt><trkpt lat="45.408921" lon="10.5398349"><ele>133.0</ele><time>2026-04-19T21:42:56.038Z</time></trkpt><trkpt lat="45.4090275" lon="10.5398153"><ele>133.0</ele><time>2026-04-19T21:46:06.06Z</time></trkpt><trkpt lat="45.4089611" lon="10.5397926"><ele>133.0</ele><time>2026-04-19T21:47:58.045Z</time></trkpt><trkpt lat="45.4088437" lon="10.539732"><ele>133.0</ele><time>2026-04-19T21:48:17.045Z</time></trkpt><trkpt lat="45.4088822" lon="10.5398089"><ele>133.0</ele><time>2026-04-19T21:48:42.04Z</time></trkpt><trkpt lat="45.4089662" lon="10.5398103"><ele>133.0</ele><time>2026-04-19T21:49:04.034Z</time></trkpt><trkpt lat="45.4088999" lon="10.5398057"><ele>133.0</ele><time>2026-04-19T21:51:47.036Z</time></trkpt><trkpt lat="45.4089592" lon="10.5398601"><ele>133.0</ele><time>2026-04-19T21:52:22.042Z</time></trkpt><trkpt lat="45.4088959" lon="10.5398396"><ele>133.0</ele><time>2026-04-19T21:53:11.044Z</time></trkpt><trkpt lat="45.4088276" lon="10.5397949"><ele>133.0</ele><time>2026-04-19T21:53:15.038Z</time></trkpt><trkpt lat="45.4087264" lon="10.5397748"><ele>133.0</ele><time>2026-04-19T21:53:20.042Z</time></trkpt><trkpt lat="45.40882" lon="10.53979"><ele>133.0</ele><time>2026-04-19T21:53:44.045Z</time></trkpt><trkpt lat="45.4088967" lon="10.5397968"><ele>133.0</ele><time>2026-04-19T21:53:51.039Z</time></trkpt><trkpt lat="45.4089964" lon="10.5397967"><ele>133.0</ele><time>2026-04-19T21:54:06.038Z</time></trkpt><trkpt lat="45.4091343" lon="10.5397781"><ele>133.0</ele><time>2026-04-19T21:54:30.046Z</time></trkpt><trkpt lat="45.4090612" lon="10.5397482"><ele>133.0</ele><time>2026-04-19T21:54:44.035Z</time></trkpt><trkpt lat="45.4090447" lon="10.5398379"><ele>133.0</ele><time>2026-04-19T21:55:17.034Z</time></trkpt><trkpt lat="45.4089765" lon="10.5398085"><ele>133.0</ele><time>2026-04-19T21:55:36.039Z</time></trkpt><trkpt lat="45.4090489" lon="10.53979"><ele>133.0</ele><time>2026-04-19T21:55:45.044Z</time></trkpt><trkpt lat="45.4089601" lon="10.5397662"><ele>133.0</ele><time>2026-04-19T21:55:56.037Z</time></trkpt><trkpt lat="45.409052" lon="10.539766"><ele>133.0</ele><time>2026-04-19T21:56:50.039Z</time></trkpt><trkpt lat="45.4089894" lon="10.5398044"><ele>133.0</ele><time>2026-04-19T21:57:37.038Z</time></trkpt><trkpt lat="45.4089144" lon="10.5397892"><ele>133.0</ele><time>2026-04-19T21:57:41.036Z</time></trkpt><trkpt lat="45.4089086" lon="10.5396998"><ele>133.0</ele><time>2026-04-19T21:58:18.042Z</time></trkpt><trkpt lat="45.4089715" lon="10.5396947"><ele>133.0</ele><time>2026-04-19T21:58:35.038Z</time></trkpt><trkpt lat="45.4090519" lon="10.5397374"><ele>133.0</ele><time>2026-04-19T21:58:55.037Z</time></trkpt><trkpt lat="45.4090118" lon="10.5398087"><ele>133.0</ele><time>2026-04-19T22:02:25.03Z</time></trkpt><trkpt lat="45.4089426" lon="10.5398001"><ele>133.0</ele><time>2026-04-19T22:02:28.033Z</time></trkpt><trkpt lat="45.409025" lon="10.539736"><ele>133.0</ele><time>2026-04-19T22:03:54.045Z</time></trkpt><trkpt lat="45.4091741" lon="10.5397379"><ele>133.0</ele><time>2026-04-19T22:04:09.042Z</time></trkpt><trkpt lat="45.4091093" lon="10.5397419"><ele>133.0</ele><time>2026-04-19T22:05:05.045Z</time></trkpt><trkpt lat="45.4090426" lon="10.5397308"><ele>133.0</ele><time>2026-04-19T22:05:17.036Z</time></trkpt><trkpt lat="45.4089925" lon="10.5396462"><ele>133.0</ele><time>2026-04-19T22:05:30.04Z</time></trkpt><trkpt lat="45.4090295" lon="10.539719"><ele>133.0</ele><time>2026-04-19T22:05:47.038Z</time></trkpt><trkpt lat="45.4089589" lon="10.5397332"><ele>133.0</ele><time>2026-04-19T22:06:15.033Z</time></trkpt><trkpt lat="45.4089906" lon="10.5396535"><ele>133.0</ele><time>2026-04-19T22:08:08.037Z</time></trkpt><trkpt lat="45.4089321" lon="10.5397064"><ele>133.0</ele><time>2026-04-19T22:09:55.036Z</time></trkpt><trkpt lat="45.4090164" lon="10.5397448"><ele>133.0</ele><time>2026-04-19T22:10:17.035Z</time></trkpt><trkpt lat="45.4089502" lon="10.5397849"><ele>133.0</ele><time>2026-04-19T22:10:40.043Z</time></trkpt><trkpt lat="45.4090201" lon="10.5397947"><ele>133.0</ele><time>2026-04-19T22:12:14.037Z</time></trkpt><trkpt lat="45.4089531" lon="10.5397778"><ele>133.0</ele><time>2026-04-19T22:13:03.04Z</time></trkpt><trkpt lat="45.4089275" lon="10.5398679"><ele>133.0</ele><time>2026-04-19T22:14:46.035Z</time></trkpt><trkpt lat="45.4088651" lon="10.5398514"><ele>133.0</ele><time>2026-04-19T22:14:53.034Z</time></trkpt><trkpt lat="45.4089227" lon="10.5398137"><ele>133.0</ele><time>2026-04-19T22:15:03.034Z</time></trkpt><trkpt lat="45.4090166" lon="10.5398538"><ele>133.0</ele><time>2026-04-19T22:15:24.041Z</time></trkpt><trkpt lat="45.4091713" lon="10.5398465"><ele>133.0</ele><time>2026-04-19T22:16:08.025Z</time></trkpt><trkpt lat="45.4091069" lon="10.5398122"><ele>133.0</ele><time>2026-04-19T22:16:25.035Z</time></trkpt><trkpt lat="45.4090459" lon="10.5397782"><ele>133.0</ele><time>2026-04-19T22:16:47.031Z</time></trkpt><trkpt lat="45.4089674" lon="10.5397762"><ele>133.0</ele><time>2026-04-19T22:16:51.041Z</time></trkpt><trkpt lat="45.4089343" lon="10.539855"><ele>133.0</ele><time>2026-04-19T22:17:47.036Z</time></trkpt><trkpt lat="45.4089571" lon="10.539767"><ele>133.0</ele><time>2026-04-19T22:20:13.041Z</time></trkpt><trkpt lat="45.4088901" lon="10.5397479"><ele>133.0</ele><time>2026-04-19T22:20:21.031Z</time></trkpt><trkpt lat="45.4089229" lon="10.5398291"><ele>133.0</ele><time>2026-04-19T22:21:03.031Z</time></trkpt><trkpt lat="45.4090125" lon="10.5397831"><ele>133.0</ele><time>2026-04-19T22:22:13.033Z</time></trkpt><trkpt lat="45.4089587" lon="10.5397222"><ele>133.0</ele><time>2026-04-19T22:22:37.033Z</time></trkpt><trkpt lat="45.4090379" lon="10.5397356"><ele>133.0</ele><time>2026-04-19T22:23:34.032Z</time></trkpt><trkpt lat="45.4091076" lon="10.5397263"><ele>133.0</ele><time>2026-04-19T22:24:22.041Z</time></trkpt><trkpt lat="45.4090285" lon="10.5397585"><ele>133.0</ele><time>2026-04-19T22:24:44.04Z</time></trkpt><trkpt lat="45.4089706" lon="10.5398444"><ele>133.0</ele><time>2026-04-19T22:24:53.036Z</time></trkpt><trkpt lat="45.4089732" lon="10.5397365"><ele>133.0</ele><time>2026-04-19T22:25:09.044Z</time></trkpt><trkpt lat="45.4090028" lon="10.5398197"><ele>133.0</ele><time>2026-04-19T22:26:06.032Z</time></trkpt><trkpt lat="45.4089352" lon="10.5397823"><ele>133.0</ele><time>2026-04-19T22:26:14.043Z</time></trkpt><trkpt lat="45.409007" lon="10.5398317"><ele>133.0</ele><time>2026-04-19T22:27:52.041Z</time></trkpt><trkpt lat="45.4089426" lon="10.5398145"><ele>133.0</ele><time>2026-04-19T22:28:02.039Z</time></trkpt><trkpt lat="45.4088595" lon="10.5398529"><ele>133.0</ele><time>2026-04-19T22:28:14.034Z</time></trkpt><trkpt lat="45.4089655" lon="10.5398591"><ele>133.0</ele><time>2026-04-19T22:28:31.041Z</time></trkpt><trkpt lat="45.4089115" lon="10.5398048"><ele>133.0</ele><time>2026-04-19T22:29:38.029Z</time></trkpt><trkpt lat="45.4089719" lon="10.5397677"><ele>133.0</ele><time>2026-04-19T22:30:02.044Z</time></trkpt><trkpt lat="45.4090071" lon="10.5398511"><ele>133.0</ele><time>2026-04-19T22:30:35.035Z</time></trkpt><trkpt lat="45.4089256" lon="10.5398408"><ele>133.0</ele><time>2026-04-19T22:30:45.033Z</time></trkpt><trkpt lat="45.4089339" lon="10.5397287"><ele>133.0</ele><time>2026-04-19T22:31:51.031Z</time></trkpt><trkpt lat="45.4088729" lon="10.5397584"><ele>133.0</ele><time>2026-04-19T22:32:13.045Z</time></trkpt><trkpt lat="45.4088639" lon="10.5396696"><ele>133.0</ele><time>2026-04-19T22:32:58.033Z</time></trkpt><trkpt lat="45.4089641" lon="10.539635"><ele>133.0</ele><time>2026-04-19T22:34:37.043Z</time></trkpt><trkpt lat="45.4089685" lon="10.5397313"><ele>133.0</ele><time>2026-04-19T22:35:03.036Z</time></trkpt><trkpt lat="45.4089245" lon="10.5398017"><ele>133.0</ele><time>2026-04-19T22:36:31.042Z</time></trkpt><trkpt lat="45.4088894" lon="10.5397166"><ele>133.0</ele><time>2026-04-19T22:37:43.03Z</time></trkpt><trkpt lat="45.4089586" lon="10.5396983"><ele>133.0</ele><time>2026-04-19T22:38:26.046Z</time></trkpt><trkpt lat="45.4090044" lon="10.5397816"><ele>133.0</ele><time>2026-04-19T22:38:50.042Z</time></trkpt><trkpt lat="45.4089373" lon="10.5396683"><ele>133.0</ele><time>2026-04-19T22:40:31.03Z</time></trkpt><trkpt lat="45.4088617" lon="10.5396779"><ele>133.0</ele><time>2026-04-19T22:40:37.041Z</time></trkpt><trkpt lat="45.4088133" lon="10.5396181"><ele>133.0</ele><time>2026-04-19T22:41:05.033Z</time></trkpt><trkpt lat="45.4087783" lon="10.5397085"><ele>133.0</ele><time>2026-04-19T22:41:22.033Z</time></trkpt><trkpt lat="45.4088276" lon="10.5396525"><ele>133.0</ele><time>2026-04-19T22:41:40.042Z</time></trkpt><trkpt lat="45.4088913" lon="10.5396887"><ele>133.0</ele><time>2026-04-19T22:42:11.033Z</time></trkpt><trkpt lat="45.4088988" lon="10.5395839"><ele>133.0</ele><time>2026-04-19T22:42:38.04Z</time></trkpt><trkpt lat="45.4089689" lon="10.5395985"><ele>133.0</ele><time>2026-04-19T22:42:51.034Z</time></trkpt><trkpt lat="45.4088703" lon="10.5395645"><ele>133.0</ele><time>2026-04-19T22:43:14.034Z</time></trkpt><trkpt lat="45.4087649" lon="10.5394761"><ele>133.0</ele><time>2026-04-19T22:43:16.035Z</time></trkpt><trkpt lat="45.4087626" lon="10.5395681"><ele>133.0</ele><time>2026-04-19T22:43:30.033Z</time></trkpt><trkpt lat="45.4088142" lon="10.5396306"><ele>133.0</ele><time>2026-04-19T22:43:35.038Z</time></trkpt><trkpt lat="45.408878" lon="10.5396706"><ele>133.0</ele><time>2026-04-19T22:43:41.037Z</time></trkpt><trkpt lat="45.4089618" lon="10.539726"><ele>133.0</ele><time>2026-04-19T22:43:50.04Z</time></trkpt><trkpt lat="45.4090256" lon="10.5397535"><ele>133.0</ele><time>2026-04-19T22:44:04.036Z</time></trkpt><trkpt lat="45.4091542" lon="10.5398711"><ele>133.0</ele><time>2026-04-19T22:44:14.039Z</time></trkpt><trkpt lat="45.4092099" lon="10.5399293"><ele>133.0</ele><time>2026-04-19T22:44:15.046Z</time></trkpt><trkpt lat="45.4091443" lon="10.5398696"><ele>133.0</ele><time>2026-04-19T22:44:26.044Z</time></trkpt><trkpt lat="45.409097" lon="10.5397815"><ele>133.0</ele><time>2026-04-19T22:44:36.037Z</time></trkpt><trkpt lat="45.4090268" lon="10.5397354"><ele>133.0</ele><time>2026-04-19T22:44:47.042Z</time></trkpt><trkpt lat="45.4089892" lon="10.5398113"><ele>133.0</ele><time>2026-04-19T22:45:06.041Z</time></trkpt><trkpt lat="45.4090562" lon="10.5397913"><ele>133.0</ele><time>2026-04-19T22:45:24.032Z</time></trkpt><trkpt lat="45.4090111" lon="10.5397279"><ele>133.0</ele><time>2026-04-19T22:45:44.042Z</time></trkpt><trkpt lat="45.4090823" lon="10.5397731"><ele>133.0</ele><time>2026-04-19T22:47:11.032Z</time></trkpt><trkpt lat="45.4091397" lon="10.5398171"><ele>133.0</ele><time>2026-04-19T22:47:16.043Z</time></trkpt><trkpt lat="45.4090918" lon="10.5399028"><ele>133.0</ele><time>2026-04-19T22:47:26.035Z</time></trkpt><trkpt lat="45.4090093" lon="10.5398546"><ele>133.0</ele><time>2026-04-19T22:47:40.042Z</time></trkpt><trkpt lat="45.4090747" lon="10.539881"><ele>133.0</ele><time>2026-04-19T22:48:17.033Z</time></trkpt><trkpt lat="45.4091105" lon="10.5398058"><ele>133.0</ele><time>2026-04-19T22:48:53.041Z</time></trkpt><trkpt lat="45.4090482" lon="10.5397326"><ele>133.0</ele><time>2026-04-19T22:49:18.042Z</time></trkpt><trkpt lat="45.4089572" lon="10.5397406"><ele>133.0</ele><time>2026-04-19T22:49:20.032Z</time></trkpt><trkpt lat="45.4089953" lon="10.539846"><ele>133.0</ele><time>2026-04-19T22:49:52.042Z</time></trkpt><trkpt lat="45.4089829" lon="10.5399413"><ele>133.0</ele><time>2026-04-19T22:50:02.034Z</time></trkpt><trkpt lat="45.408917" lon="10.5399666"><ele>133.0</ele><time>2026-04-19T22:50:04.041Z</time></trkpt><trkpt lat="45.4089125" lon="10.5398745"><ele>133.0</ele><time>2026-04-19T22:50:19.033Z</time></trkpt><trkpt lat="45.4089088" lon="10.5397815"><ele>133.0</ele><time>2026-04-19T22:52:57.037Z</time></trkpt><trkpt lat="45.4089575" lon="10.5397209"><ele>133.0</ele><time>2026-04-19T22:53:53.044Z</time></trkpt><trkpt lat="45.4089934" lon="10.5397957"><ele>133.0</ele><time>2026-04-19T22:54:21.03Z</time></trkpt><trkpt lat="45.4089894" lon="10.5399073"><ele>133.0</ele><time>2026-04-19T22:54:33.045Z</time></trkpt><trkpt lat="45.4090066" lon="10.5397371"><ele>133.0</ele><time>2026-04-19T22:55:20.034Z</time></trkpt><trkpt lat="45.4089781" lon="10.5396554"><ele>133.0</ele><time>2026-04-19T22:55:26.038Z</time></trkpt><trkpt lat="45.4089211" lon="10.5396961"><ele>133.0</ele><time>2026-04-19T22:55:35.033Z</time></trkpt><trkpt lat="45.4089162" lon="10.5397916"><ele>133.0</ele><time>2026-04-19T22:55:46.031Z</time></trkpt><trkpt lat="45.4089966" lon="10.5397663"><ele>133.0</ele><time>2026-04-19T22:57:27.042Z</time></trkpt><trkpt lat="45.4090024" lon="10.539649"><ele>133.0</ele><time>2026-04-19T22:57:45.038Z</time></trkpt><trkpt lat="45.4089644" lon="10.5395533"><ele>133.0</ele><time>2026-04-19T22:57:52.035Z</time></trkpt><trkpt lat="45.4089175" lon="10.5396181"><ele>133.0</ele><time>2026-04-19T22:58:08.04Z</time></trkpt><trkpt lat="45.4088642" lon="10.5396708"><ele>133.0</ele><time>2026-04-19T22:58:12.03Z</time></trkpt><trkpt lat="45.4088837" lon="10.539765"><ele>133.0</ele><time>2026-04-19T22:58:44.036Z</time></trkpt><trkpt lat="45.4088169" lon="10.5398337"><ele>133.0</ele><time>2026-04-19T22:59:20.048Z</time></trkpt><trkpt lat="45.4088572" lon="10.5397565"><ele>133.0</ele><time>2026-04-19T22:59:33.036Z</time></trkpt><trkpt lat="45.408951" lon="10.5397431"><ele>133.0</ele><time>2026-04-19T22:59:40.033Z</time></trkpt><trkpt lat="45.4090019" lon="10.5396682"><ele>133.0</ele><time>2026-04-19T22:59:50.044Z</time></trkpt><trkpt lat="45.4089237" lon="10.539669"><ele>133.0</ele><time>2026-04-19T23:00:19.038Z</time></trkpt><trkpt lat="45.4088572" lon="10.5396837"><ele>133.0</ele><time>2026-04-19T23:00:22.03Z</time></trkpt><trkpt lat="45.4087877" lon="10.5396943"><ele>133.0</ele><time>2026-04-19T23:00:28.034Z</time></trkpt><trkpt lat="45.4087603" lon="10.5397779"><ele>133.0</ele><time>2026-04-19T23:01:26.036Z</time></trkpt><trkpt lat="45.4087526" lon="10.5396723"><ele>133.0</ele><time>2026-04-19T23:02:07.034Z</time></trkpt><trkpt lat="45.4087548" lon="10.5395624"><ele>133.0</ele><time>2026-04-19T23:02:12.035Z</time></trkpt><trkpt lat="45.4087521" lon="10.5394707"><ele>133.0</ele><time>2026-04-19T23:02:16.033Z</time></trkpt><trkpt lat="45.4087498" lon="10.5393618"><ele>133.0</ele><time>2026-04-19T23:02:22.032Z</time></trkpt><trkpt lat="45.4087949" lon="10.5394558"><ele>133.0</ele><time>2026-04-19T23:02:45.036Z</time></trkpt><trkpt lat="45.4088281" lon="10.5395445"><ele>133.0</ele><time>2026-04-19T23:02:56.035Z</time></trkpt><trkpt lat="45.4088512" lon="10.5396314"><ele>133.0</ele><time>2026-04-19T23:03:02.039Z</time></trkpt><trkpt lat="45.4089053" lon="10.5397238"><ele>133.0</ele><time>2026-04-19T23:03:22.041Z</time></trkpt><trkpt lat="45.4088407" lon="10.5396769"><ele>133.0</ele><time>2026-04-19T23:03:37.031Z</time></trkpt><trkpt lat="45.4087766" lon="10.5396909"><ele>133.0</ele><time>2026-04-19T23:03:57.035Z</time></trkpt><trkpt lat="45.4088365" lon="10.5397302"><ele>133.0</ele><time>2026-04-19T23:04:27.039Z</time></trkpt><trkpt lat="45.408908" lon="10.5396884"><ele>133.0</ele><time>2026-04-19T23:04:30.04Z</time></trkpt><trkpt lat="45.408869" lon="10.5396048"><ele>133.0</ele><time>2026-04-19T23:04:37.032Z</time></trkpt><trkpt lat="45.408937" lon="10.5396939"><ele>133.0</ele><time>2026-04-19T23:04:50.035Z</time></trkpt><trkpt lat="45.4090587" lon="10.5397501"><ele>133.0</ele><time>2026-04-19T23:05:10.042Z</time></trkpt><trkpt lat="45.4089822" lon="10.5397271"><ele>133.0</ele><time>2026-04-19T23:05:29.031Z</time></trkpt><trkpt lat="45.4089269" lon="10.5397871"><ele>133.0</ele><time>2026-04-19T23:05:36.043Z</time></trkpt><trkpt lat="45.4088783" lon="10.5397061"><ele>133.0</ele><time>2026-04-19T23:05:42.043Z</time></trkpt><trkpt lat="45.4088139" lon="10.5396697"><ele>133.0</ele><time>2026-04-19T23:05:46.034Z</time></trkpt><trkpt lat="45.4088513" lon="10.539755"><ele>133.0</ele><time>2026-04-19T23:06:13.038Z</time></trkpt><trkpt lat="45.4089039" lon="10.5398113"><ele>133.0</ele><time>2026-04-19T23:06:18.03Z</time></trkpt><trkpt lat="45.4089206" lon="10.5399035"><ele>133.0</ele><time>2026-04-19T23:06:33.042Z</time></trkpt><trkpt lat="45.4090325" lon="10.5398841"><ele>133.0</ele><time>2026-04-19T23:06:45.026Z</time></trkpt><trkpt lat="45.4089665" lon="10.5398905"><ele>133.0</ele><time>2026-04-19T23:06:49.035Z</time></trkpt><trkpt lat="45.4089289" lon="10.5397971"><ele>133.0</ele><time>2026-04-19T23:07:02.044Z</time></trkpt><trkpt lat="45.4089042" lon="10.5397083"><ele>133.0</ele><time>2026-04-19T23:07:07.033Z</time></trkpt><trkpt lat="45.408976" lon="10.5398516"><ele>133.0</ele><time>2026-04-19T23:08:18.029Z</time></trkpt><trkpt lat="45.4089241" lon="10.5397877"><ele>133.0</ele><time>2026-04-19T23:08:25.043Z</time></trkpt><trkpt lat="45.4088734" lon="10.5397332"><ele>133.0</ele><time>2026-04-19T23:08:29.031Z</time></trkpt><trkpt lat="45.4088305" lon="10.539616"><ele>133.0</ele><time>2026-04-19T23:08:35.042Z</time></trkpt><trkpt lat="45.4088034" lon="10.5395301"><ele>133.0</ele><time>2026-04-19T23:09:02.044Z</time></trkpt><trkpt lat="45.4088158" lon="10.5396196"><ele>133.0</ele><time>2026-04-19T23:09:12.04Z</time></trkpt><trkpt lat="45.4089342" lon="10.5397081"><ele>133.0</ele><time>2026-04-19T23:09:21.041Z</time></trkpt><trkpt lat="45.4089996" lon="10.5397718"><ele>133.0</ele><time>2026-04-19T23:09:22.043Z</time></trkpt><trkpt lat="45.4089267" lon="10.539831"><ele>133.0</ele><time>2026-04-19T23:09:30.037Z</time></trkpt><trkpt lat="45.4089036" lon="10.5397435"><ele>133.0</ele><time>2026-04-19T23:09:58.03Z</time></trkpt><trkpt lat="45.4089894" lon="10.5397377"><ele>133.0</ele><time>2026-04-19T23:10:29.042Z</time></trkpt><trkpt lat="45.4089151" lon="10.5397407"><ele>133.0</ele><time>2026-04-19T23:10:35.041Z</time></trkpt><trkpt lat="45.4089584" lon="10.5398185"><ele>133.0</ele><time>2026-04-19T23:11:21.032Z</time></trkpt><trkpt lat="45.4090244" lon="10.5398829"><ele>133.0</ele><time>2026-04-19T23:11:23.041Z</time></trkpt><trkpt lat="45.4090894" lon="10.5399432"><ele>133.0</ele><time>2026-04-19T23:11:25.038Z</time></trkpt><trkpt lat="45.4091631" lon="10.540001"><ele>133.0</ele><time>2026-04-19T23:11:27.034Z</time></trkpt><trkpt lat="45.4092395" lon="10.540062"><ele>133.0</ele><time>2026-04-19T23:11:29.033Z</time></trkpt><trkpt lat="45.4092814" lon="10.5401505"><ele>133.0</ele><time>2026-04-19T23:11:40.034Z</time></trkpt><trkpt lat="45.4091667" lon="10.5400981"><ele>133.0</ele><time>2026-04-19T23:11:52.043Z</time></trkpt><trkpt lat="45.4090914" lon="10.5400555"><ele>133.0</ele><time>2026-04-19T23:11:55.037Z</time></trkpt><trkpt lat="45.4091093" lon="10.539968"><ele>133.0</ele><time>2026-04-19T23:12:18.042Z</time></trkpt><trkpt lat="45.4091763" lon="10.5400023"><ele>133.0</ele><time>2026-04-19T23:12:25.036Z</time></trkpt><trkpt lat="45.4091538" lon="10.5399183"><ele>133.0</ele><time>2026-04-19T23:12:30.031Z</time></trkpt><trkpt lat="45.4090953" lon="10.5398762"><ele>133.0</ele><time>2026-04-19T23:12:33.037Z</time></trkpt><trkpt lat="45.4090336" lon="10.5398282"><ele>133.0</ele><time>2026-04-19T23:12:36.038Z</time></trkpt><trkpt lat="45.408983" lon="10.5397627"><ele>133.0</ele><time>2026-04-19T23:12:45.033Z</time></trkpt><trkpt lat="45.4089295" lon="10.5396964"><ele>133.0</ele><time>2026-04-19T23:13:12.041Z</time></trkpt><trkpt lat="45.4089724" lon="10.539618"><ele>133.0</ele><time>2026-04-19T23:13:50.033Z</time></trkpt><trkpt lat="45.4089333" lon="10.5395295"><ele>133.0</ele><time>2026-04-19T23:13:54.034Z</time></trkpt><trkpt lat="45.4089859" lon="10.5395876"><ele>133.0</ele><time>2026-04-19T23:14:22.032Z</time></trkpt><trkpt lat="45.4089246" lon="10.5396097"><ele>133.0</ele><time>2026-04-19T23:14:50.041Z</time></trkpt><trkpt lat="45.4089757" lon="10.5396678"><ele>133.0</ele><time>2026-04-19T23:15:55.041Z</time></trkpt><trkpt lat="45.4088992" lon="10.5397057"><ele>133.0</ele><time>2026-04-19T23:16:59.032Z</time></trkpt><trkpt lat="45.4089777" lon="10.5397071"><ele>133.0</ele><time>2026-04-19T23:19:40.032Z</time></trkpt><trkpt lat="45.4089897" lon="10.5398068"><ele>133.0</ele><time>2026-04-19T23:20:43.03Z</time></trkpt><trkpt lat="45.4090315" lon="10.5397353"><ele>133.0</ele><time>2026-04-19T23:21:07.04Z</time></trkpt><trkpt lat="45.4089679" lon="10.5397007"><ele>133.0</ele><time>2026-04-19T23:22:04.038Z</time></trkpt><trkpt lat="45.4089017" lon="10.539745"><ele>133.0</ele><time>2026-04-19T23:23:24.035Z</time></trkpt><trkpt lat="45.4089727" lon="10.5397557"><ele>133.0</ele><time>2026-04-19T23:24:18.032Z</time></trkpt><trkpt lat="45.4090525" lon="10.5397477"><ele>133.0</ele><time>2026-04-19T23:24:40.028Z</time></trkpt><trkpt lat="45.4090394" lon="10.5398388"><ele>133.0</ele><time>2026-04-19T23:24:48.04Z</time></trkpt><trkpt lat="45.4089727" lon="10.5398637"><ele>133.0</ele><time>2026-04-19T23:24:56.038Z</time></trkpt><trkpt lat="45.4089745" lon="10.5397698"><ele>133.0</ele><time>2026-04-19T23:25:27.033Z</time></trkpt><trkpt lat="45.4090062" lon="10.5396824"><ele>133.0</ele><time>2026-04-19T23:27:20.043Z</time></trkpt><trkpt lat="45.4089639" lon="10.5396149"><ele>133.0</ele><time>2026-04-19T23:27:32.031Z</time></trkpt><trkpt lat="45.4089203" lon="10.5395246"><ele>133.0</ele><time>2026-04-19T23:28:31.03Z</time></trkpt><trkpt lat="45.4088771" lon="10.5395926"><ele>133.0</ele><time>2026-04-19T23:28:54.032Z</time></trkpt><trkpt lat="45.4088658" lon="10.5396832"><ele>133.0</ele><time>2026-04-19T23:29:32.039Z</time></trkpt><trkpt lat="45.4089107" lon="10.5397496"><ele>133.0</ele><time>2026-04-19T23:29:44.03Z</time></trkpt><trkpt lat="45.4089909" lon="10.5397662"><ele>133.0</ele><time>2026-04-19T23:30:45.031Z</time></trkpt><trkpt lat="45.4090158" lon="10.5398638"><ele>133.0</ele><time>2026-04-19T23:30:53.038Z</time></trkpt><trkpt lat="45.408969" lon="10.5398018"><ele>133.0</ele><time>2026-04-19T23:31:14.032Z</time></trkpt><trkpt lat="45.4089686" lon="10.5396862"><ele>133.0</ele><time>2026-04-19T23:32:02.032Z</time></trkpt><trkpt lat="45.40893" lon="10.5396024"><ele>133.0</ele><time>2026-04-19T23:32:09.029Z</time></trkpt><trkpt lat="45.4088763" lon="10.5396551"><ele>133.0</ele><time>2026-04-19T23:36:17.037Z</time></trkpt><trkpt lat="45.4088268" lon="10.539576"><ele>133.0</ele><time>2026-04-19T23:36:23.033Z</time></trkpt><trkpt lat="45.4089091" lon="10.5395762"><ele>133.0</ele><time>2026-04-19T23:36:33.037Z</time></trkpt><trkpt lat="45.4089633" lon="10.5396579"><ele>133.0</ele><time>2026-04-19T23:37:04.03Z</time></trkpt><trkpt lat="45.4090416" lon="10.5396936"><ele>133.0</ele><time>2026-04-19T23:38:22.033Z</time></trkpt><trkpt lat="45.4090399" lon="10.5395918"><ele>133.0</ele><time>2026-04-19T23:45:11.03Z</time></trkpt><trkpt lat="45.4089795" lon="10.5396722"><ele>133.0</ele><time>2026-04-19T23:45:42.038Z</time></trkpt><trkpt lat="45.4089106" lon="10.5397267"><ele>133.0</ele><time>2026-04-19T23:45:48.034Z</time></trkpt><trkpt lat="45.4089222" lon="10.5396313"><ele>133.0</ele><time>2026-04-19T23:46:06.035Z</time></trkpt><trkpt lat="45.4090148" lon="10.5396031"><ele>133.0</ele><time>2026-04-19T23:46:31.038Z</time></trkpt><trkpt lat="45.4090647" lon="10.5394752"><ele>133.0</ele><time>2026-04-19T23:46:41.031Z</time></trkpt><trkpt lat="45.4091151" lon="10.5395435"><ele>133.0</ele><time>2026-04-19T23:46:48.03Z</time></trkpt><trkpt lat="45.4091517" lon="10.5396627"><ele>133.0</ele><time>2026-04-19T23:47:52.036Z</time></trkpt><trkpt lat="45.4090801" lon="10.5396586"><ele>133.0</ele><time>2026-04-19T23:48:39.036Z</time></trkpt><trkpt lat="45.4090254" lon="10.5397111"><ele>133.0</ele><time>2026-04-19T23:48:43.028Z</time></trkpt><trkpt lat="45.4089695" lon="10.5397636"><ele>133.0</ele><time>2026-04-19T23:48:46.034Z</time></trkpt><trkpt lat="45.4089747" lon="10.5398757"><ele>133.0</ele><time>2026-04-19T23:49:09.032Z</time></trkpt><trkpt lat="45.4089601" lon="10.5399733"><ele>133.0</ele><time>2026-04-19T23:49:22.04Z</time></trkpt><trkpt lat="45.4089221" lon="10.5399017"><ele>133.0</ele><time>2026-04-19T23:49:26.04Z</time></trkpt><trkpt lat="45.4089329" lon="10.5398053"><ele>133.0</ele><time>2026-04-19T23:49:29.037Z</time></trkpt><trkpt lat="45.4089056" lon="10.5397101"><ele>133.0</ele><time>2026-04-19T23:49:31.03Z</time></trkpt><trkpt lat="45.4089243" lon="10.5395996"><ele>133.0</ele><time>2026-04-19T23:50:00.041Z</time></trkpt><trkpt lat="45.4089391" lon="10.5395117"><ele>133.0</ele><time>2026-04-19T23:50:12.032Z</time></trkpt><trkpt lat="45.4089752" lon="10.5394307"><ele>133.0</ele><time>2026-04-19T23:50:15.036Z</time></trkpt><trkpt lat="45.4090667" lon="10.5393701"><ele>133.0</ele><time>2026-04-19T23:50:38.033Z</time></trkpt><trkpt lat="45.4090072" lon="10.5394053"><ele>133.0</ele><time>2026-04-19T23:50:49.038Z</time></trkpt><trkpt lat="45.4090196" lon="10.5394935"><ele>133.0</ele><time>2026-04-19T23:51:03.033Z</time></trkpt><trkpt lat="45.409022" lon="10.5395857"><ele>133.0</ele><time>2026-04-19T23:51:19.029Z</time></trkpt><trkpt lat="45.4089691" lon="10.539645"><ele>133.0</ele><time>2026-04-19T23:51:23.032Z</time></trkpt><trkpt lat="45.4090751" lon="10.539625"><ele>133.0</ele><time>2026-04-19T23:52:51.037Z</time></trkpt><trkpt lat="45.4089892" lon="10.5396883"><ele>133.0</ele><time>2026-04-19T23:53:19.03Z</time></trkpt><trkpt lat="45.4090085" lon="10.5395926"><ele>133.0</ele><time>2026-04-19T23:54:36.034Z</time></trkpt><trkpt lat="45.4090867" lon="10.5395397"><ele>133.0</ele><time>2026-04-19T23:54:47.031Z</time></trkpt><trkpt lat="45.4091007" lon="10.5394482"><ele>133.0</ele><time>2026-04-19T23:55:15.03Z</time></trkpt><trkpt lat="45.4090862" lon="10.539359"><ele>133.0</ele><time>2026-04-19T23:55:23.023Z</time></trkpt><trkpt lat="45.4091349" lon="10.5394264"><ele>133.0</ele><time>2026-04-19T23:55:38.032Z</time></trkpt><trkpt lat="45.4090715" lon="10.5394781"><ele>133.0</ele><time>2026-04-19T23:56:00.039Z</time></trkpt><trkpt lat="45.4090498" lon="10.5395637"><ele>133.0</ele><time>2026-04-19T23:56:20.03Z</time></trkpt><trkpt lat="45.4089863" lon="10.5395893"><ele>133.0</ele><time>2026-04-19T23:56:53.027Z</time></trkpt><trkpt lat="45.4089232" lon="10.539557"><ele>133.0</ele><time>2026-04-19T23:56:56.034Z</time></trkpt><trkpt lat="45.408937" lon="10.539653"><ele>133.0</ele><time>2026-04-19T23:57:20.037Z</time></trkpt><trkpt lat="45.4089935" lon="10.5396074"><ele>133.0</ele><time>2026-04-19T23:57:41.028Z</time></trkpt><trkpt lat="45.4089334" lon="10.5395728"><ele>133.0</ele><time>2026-04-19T23:57:47.039Z</time></trkpt><trkpt lat="45.4089701" lon="10.539653"><ele>133.0</ele><time>2026-04-19T23:58:06.03Z</time></trkpt><trkpt lat="45.4089001" lon="10.5396081"><ele>133.0</ele><time>2026-04-19T23:58:23.019Z</time></trkpt><trkpt lat="45.4089612" lon="10.5396454"><ele>133.0</ele><time>2026-04-19T23:58:34.039Z</time></trkpt><trkpt lat="45.4090259" lon="10.5396812"><ele>133.0</ele><time>2026-04-19T23:58:51.038Z</time></trkpt><trkpt lat="45.4090973" lon="10.5396775"><ele>133.0</ele><time>2026-04-19T23:59:03.029Z</time></trkpt><trkpt lat="45.4091701" lon="10.5397591"><ele>133.0</ele><time>2026-04-19T23:59:22.03Z</time></trkpt><trkpt lat="45.4090741" lon="10.5397455"><ele>133.0</ele><time>2026-04-19T23:59:34.03Z</time></trkpt><trkpt lat="45.4091657" lon="10.5397661"><ele>133.0</ele><time>2026-04-20T00:00:02.037Z</time></trkpt><trkpt lat="45.4092466" lon="10.5397686"><ele>133.0</ele><time>2026-04-20T00:00:08.028Z</time></trkpt><trkpt lat="45.4091833" lon="10.5399064"><ele>133.0</ele><time>2026-04-20T00:00:19.038Z</time></trkpt><trkpt lat="45.40911" lon="10.5399648"><ele>133.0</ele><time>2026-04-20T00:00:33.029Z</time></trkpt><trkpt lat="45.4090378" lon="10.5399097"><ele>133.0</ele><time>2026-04-20T00:00:37.037Z</time></trkpt><trkpt lat="45.4089588" lon="10.539909"><ele>133.0</ele><time>2026-04-20T00:00:43.036Z</time></trkpt><trkpt lat="45.4089698" lon="10.5398162"><ele>133.0</ele><time>2026-04-20T00:01:11.026Z</time></trkpt><trkpt lat="45.4089572" lon="10.5397283"><ele>133.0</ele><time>2026-04-20T00:02:06.037Z</time></trkpt><trkpt lat="45.4088973" lon="10.5396817"><ele>133.0</ele><time>2026-04-20T00:02:16.029Z</time></trkpt><trkpt lat="45.4089151" lon="10.539769"><ele>133.0</ele><time>2026-04-20T00:03:08.031Z</time></trkpt><trkpt lat="45.4089719" lon="10.5398142"><ele>133.0</ele><time>2026-04-20T00:03:19.027Z</time></trkpt><trkpt lat="45.4090696" lon="10.5398374"><ele>133.0</ele><time>2026-04-20T00:11:52.035Z</time></trkpt><trkpt lat="45.4090054" lon="10.5398509"><ele>133.0</ele><time>2026-04-20T00:12:07.034Z</time></trkpt><trkpt lat="45.4089667" lon="10.539775"><ele>133.0</ele><time>2026-04-20T00:15:45.033Z</time></trkpt><trkpt lat="45.408921" lon="10.5399024"><ele>133.0</ele><time>2026-04-20T00:16:12.029Z</time></trkpt><trkpt lat="45.4089843" lon="10.5398225"><ele>133.0</ele><time>2026-04-20T00:17:11.031Z</time></trkpt><trkpt lat="45.4089151" lon="10.5398175"><ele>133.0</ele><time>2026-04-20T00:18:02.03Z</time></trkpt><trkpt lat="45.4088527" lon="10.5397871"><ele>133.0</ele><time>2026-04-20T00:18:05.036Z</time></trkpt><trkpt lat="45.4089196" lon="10.5398242"><ele>133.0</ele><time>2026-04-20T00:18:26.03Z</time></trkpt><trkpt lat="45.4089688" lon="10.5399151"><ele>133.0</ele><time>2026-04-20T00:19:57.028Z</time></trkpt><trkpt lat="45.4090159" lon="10.5399793"><ele>133.0</ele><time>2026-04-20T00:20:04.027Z</time></trkpt><trkpt lat="45.4089718" lon="10.5398863"><ele>133.0</ele><time>2026-04-20T00:20:26.034Z</time></trkpt><trkpt lat="45.4089552" lon="10.5397924"><ele>133.0</ele><time>2026-04-20T00:21:09.025Z</time></trkpt><trkpt lat="45.4090174" lon="10.5397722"><ele>133.0</ele><time>2026-04-20T00:21:14.033Z</time></trkpt><trkpt lat="45.4090879" lon="10.5397798"><ele>133.0</ele><time>2026-04-20T00:21:31.032Z</time></trkpt><trkpt lat="45.4090232" lon="10.5397137"><ele>133.0</ele><time>2026-04-20T00:21:55.037Z</time></trkpt><trkpt lat="45.4089583" lon="10.5396739"><ele>133.0</ele><time>2026-04-20T00:22:04.031Z</time></trkpt><trkpt lat="45.4089788" lon="10.5397791"><ele>133.0</ele><time>2026-04-20T00:22:15.024Z</time></trkpt><trkpt lat="45.4090706" lon="10.5398426"><ele>133.0</ele><time>2026-04-20T00:22:59.037Z</time></trkpt><trkpt lat="45.4090095" lon="10.5397843"><ele>133.0</ele><time>2026-04-20T00:23:09.036Z</time></trkpt><trkpt lat="45.4089864" lon="10.5398771"><ele>133.0</ele><time>2026-04-20T00:25:30.029Z</time></trkpt><trkpt lat="45.4089349" lon="10.539784"><ele>133.0</ele><time>2026-04-20T00:26:02.03Z</time></trkpt><trkpt lat="45.4088647" lon="10.5397738"><ele>133.0</ele><time>2026-04-20T00:28:04.026Z</time></trkpt><trkpt lat="45.408803" lon="10.5397368"><ele>133.0</ele><time>2026-04-20T00:28:12.03Z</time></trkpt><trkpt lat="45.4088445" lon="10.5398542"><ele>133.0</ele><time>2026-04-20T00:28:20.03Z</time></trkpt><trkpt lat="45.4088624" lon="10.5399493"><ele>133.0</ele><time>2026-04-20T00:28:57.03Z</time></trkpt><trkpt lat="45.4087897" lon="10.5399026"><ele>133.0</ele><time>2026-04-20T00:29:08.029Z</time></trkpt><trkpt lat="45.4087241" lon="10.5398531"><ele>133.0</ele><time>2026-04-20T00:29:11.029Z</time></trkpt><trkpt lat="45.4086581" lon="10.5398148"><ele>133.0</ele><time>2026-04-20T00:29:20.033Z</time></trkpt><trkpt lat="45.4087533" lon="10.5398546"><ele>133.0</ele><time>2026-04-20T00:29:38.036Z</time></trkpt><trkpt lat="45.408851" lon="10.5398826"><ele>133.0</ele><time>2026-04-20T00:29:46.035Z</time></trkpt><trkpt lat="45.4088645" lon="10.5397723"><ele>133.0</ele><time>2026-04-20T00:30:52.033Z</time></trkpt><trkpt lat="45.4087251" lon="10.5396629"><ele>133.0</ele><time>2026-04-20T00:30:59.033Z</time></trkpt><trkpt lat="45.40878" lon="10.5397273"><ele>133.0</ele><time>2026-04-20T00:31:15.028Z</time></trkpt><trkpt lat="45.4088427" lon="10.5397813"><ele>133.0</ele><time>2026-04-20T00:31:56.031Z</time></trkpt><trkpt lat="45.4089329" lon="10.5397755"><ele>133.0</ele><time>2026-04-20T00:32:02.035Z</time></trkpt><trkpt lat="45.4088573" lon="10.5397352"><ele>133.0</ele><time>2026-04-20T00:32:34.035Z</time></trkpt><trkpt lat="45.4088823" lon="10.5398286"><ele>133.0</ele><time>2026-04-20T00:32:46.031Z</time></trkpt><trkpt lat="45.4089314" lon="10.5398938"><ele>133.0</ele><time>2026-04-20T00:33:02.032Z</time></trkpt><trkpt lat="45.408938" lon="10.5400203"><ele>133.0</ele><time>2026-04-20T00:33:13.031Z</time></trkpt><trkpt lat="45.4089048" lon="10.539927"><ele>133.0</ele><time>2026-04-20T00:33:44.038Z</time></trkpt><trkpt lat="45.4089826" lon="10.5399044"><ele>133.0</ele><time>2026-04-20T00:33:49.025Z</time></trkpt><trkpt lat="45.4089238" lon="10.5399381"><ele>133.0</ele><time>2026-04-20T00:34:28.032Z</time></trkpt><trkpt lat="45.4088699" lon="10.5398684"><ele>133.0</ele><time>2026-04-20T00:34:36.036Z</time></trkpt><trkpt lat="45.4088731" lon="10.5397707"><ele>133.0</ele><time>2026-04-20T00:34:51.031Z</time></trkpt><trkpt lat="45.4088684" lon="10.5398782"><ele>133.0</ele><time>2026-04-20T00:35:11.028Z</time></trkpt><trkpt lat="45.4089374" lon="10.5399237"><ele>133.0</ele><time>2026-04-20T00:35:17.024Z</time></trkpt><trkpt lat="45.4090094" lon="10.539904"><ele>133.0</ele><time>2026-04-20T00:35:38.036Z</time></trkpt><trkpt lat="45.4090284" lon="10.539781"><ele>133.0</ele><time>2026-04-20T00:35:49.037Z</time></trkpt><trkpt lat="45.4090666" lon="10.5397044"><ele>133.0</ele><time>2026-04-20T00:36:22.036Z</time></trkpt><trkpt lat="45.4090154" lon="10.5397872"><ele>133.0</ele><time>2026-04-20T00:36:35.037Z</time></trkpt><trkpt lat="45.4090028" lon="10.5399134"><ele>133.0</ele><time>2026-04-20T00:37:00.036Z</time></trkpt><trkpt lat="45.4089356" lon="10.5399018"><ele>133.0</ele><time>2026-04-20T00:37:29.03Z</time></trkpt><trkpt lat="45.4089638" lon="10.5397995"><ele>133.0</ele><time>2026-04-20T00:37:38.028Z</time></trkpt><trkpt lat="45.4089508" lon="10.5398881"><ele>133.0</ele><time>2026-04-20T00:38:54.039Z</time></trkpt><trkpt lat="45.4088917" lon="10.5399732"><ele>133.0</ele><time>2026-04-20T00:39:01.036Z</time></trkpt><trkpt lat="45.408934" lon="10.5398963"><ele>133.0</ele><time>2026-04-20T00:39:46.025Z</time></trkpt><trkpt lat="45.4090066" lon="10.539889"><ele>133.0</ele><time>2026-04-20T00:40:47.035Z</time></trkpt><trkpt lat="45.4090629" lon="10.5398275"><ele>133.0</ele><time>2026-04-20T00:42:21.028Z</time></trkpt><trkpt lat="45.4090207" lon="10.5397092"><ele>133.0</ele><time>2026-04-20T00:42:40.031Z</time></trkpt><trkpt lat="45.4089625" lon="10.5397841"><ele>133.0</ele><time>2026-04-20T00:42:56.029Z</time></trkpt><trkpt lat="45.4090141" lon="10.5397048"><ele>133.0</ele><time>2026-04-20T00:43:29.032Z</time></trkpt><trkpt lat="45.4090183" lon="10.5398079"><ele>133.0</ele><time>2026-04-20T00:43:42.024Z</time></trkpt><trkpt lat="45.4089676" lon="10.5398643"><ele>133.0</ele><time>2026-04-20T00:43:54.03Z</time></trkpt><trkpt lat="45.4089037" lon="10.5398401"><ele>133.0</ele><time>2026-04-20T00:44:13.035Z</time></trkpt><trkpt lat="45.4089024" lon="10.5399322"><ele>133.0</ele><time>2026-04-20T00:45:57.031Z</time></trkpt><trkpt lat="45.4089601" lon="10.5398827"><ele>133.0</ele><time>2026-04-20T00:46:18.025Z</time></trkpt><trkpt lat="45.409016" lon="10.5398274"><ele>133.0</ele><time>2026-04-20T00:47:21.03Z</time></trkpt><trkpt lat="45.4089546" lon="10.5397759"><ele>133.0</ele><time>2026-04-20T00:48:14.033Z</time></trkpt><trkpt lat="45.4088443" lon="10.539694"><ele>133.0</ele><time>2026-04-20T00:48:31.025Z</time></trkpt><trkpt lat="45.4089073" lon="10.5397337"><ele>133.0</ele><time>2026-04-20T00:48:47.019Z</time></trkpt><trkpt lat="45.409" lon="10.539757"><ele>133.0</ele><time>2026-04-20T00:49:36.036Z</time></trkpt><trkpt lat="45.4090162" lon="10.5398739"><ele>133.0</ele><time>2026-04-20T00:49:44.034Z</time></trkpt><trkpt lat="45.4089567" lon="10.5398071"><ele>133.0</ele><time>2026-04-20T00:50:00.028Z</time></trkpt><trkpt lat="45.4089032" lon="10.5398561"><ele>133.0</ele><time>2026-04-20T00:50:26.035Z</time></trkpt><trkpt lat="45.408901" lon="10.5397488"><ele>133.0</ele><time>2026-04-20T00:50:32.032Z</time></trkpt><trkpt lat="45.4089927" lon="10.5397466"><ele>133.0</ele><time>2026-04-20T00:51:22.034Z</time></trkpt><trkpt lat="45.4089859" lon="10.5398696"><ele>133.0</ele><time>2026-04-20T00:56:14.037Z</time></trkpt><trkpt lat="45.408948" lon="10.5399589"><ele>133.0</ele><time>2026-04-20T00:56:31.029Z</time></trkpt><trkpt lat="45.4089745" lon="10.5398177"><ele>133.0</ele><time>2026-04-20T00:57:16.024Z</time></trkpt><trkpt lat="45.4089876" lon="10.5397299"><ele>133.0</ele><time>2026-04-20T00:57:19.033Z</time></trkpt><trkpt lat="45.4089365" lon="10.5397828"><ele>133.0</ele><time>2026-04-20T00:57:38.037Z</time></trkpt><trkpt lat="45.4089574" lon="10.5396886"><ele>133.0</ele><time>2026-04-20T00:58:17.034Z</time></trkpt><trkpt lat="45.4090125" lon="10.5398114"><ele>133.0</ele><time>2026-04-20T00:59:11.029Z</time></trkpt><trkpt lat="45.4089713" lon="10.5398861"><ele>133.0</ele><time>2026-04-20T00:59:40.028Z</time></trkpt><trkpt lat="45.4090192" lon="10.5398089"><ele>133.0</ele><time>2026-04-20T01:00:24.021Z</time></trkpt><trkpt lat="45.4089502" lon="10.5398103"><ele>133.0</ele><time>2026-04-20T01:00:56.031Z</time></trkpt><trkpt lat="45.4089335" lon="10.5398982"><ele>133.0</ele><time>2026-04-20T01:02:03.031Z</time></trkpt><trkpt lat="45.4090199" lon="10.5399267"><ele>133.0</ele><time>2026-04-20T01:02:44.036Z</time></trkpt><trkpt lat="45.4089561" lon="10.539901"><ele>133.0</ele><time>2026-04-20T01:03:21.036Z</time></trkpt><trkpt lat="45.4090256" lon="10.5399424"><ele>133.0</ele><time>2026-04-20T01:03:42.03Z</time></trkpt><trkpt lat="45.4089965" lon="10.5398569"><ele>133.0</ele><time>2026-04-20T01:03:51.034Z</time></trkpt><trkpt lat="45.4090439" lon="10.5399543"><ele>133.0</ele><time>2026-04-20T01:03:58.035Z</time></trkpt><trkpt lat="45.4089822" lon="10.5398912"><ele>133.0</ele><time>2026-04-20T01:04:01.027Z</time></trkpt><trkpt lat="45.4089253" lon="10.5398388"><ele>133.0</ele><time>2026-04-20T01:04:10.025Z</time></trkpt><trkpt lat="45.4089507" lon="10.539755"><ele>133.0</ele><time>2026-04-20T01:04:21.025Z</time></trkpt><trkpt lat="45.4090153" lon="10.5398279"><ele>133.0</ele><time>2026-04-20T01:04:25.035Z</time></trkpt><trkpt lat="45.4090267" lon="10.5399618"><ele>133.0</ele><time>2026-04-20T01:04:35.024Z</time></trkpt><trkpt lat="45.4089601" lon="10.5399557"><ele>133.0</ele><time>2026-04-20T01:04:41.036Z</time></trkpt><trkpt lat="45.4090218" lon="10.5399039"><ele>133.0</ele><time>2026-04-20T01:05:03.033Z</time></trkpt><trkpt lat="45.408967" lon="10.5399836"><ele>133.0</ele><time>2026-04-20T01:05:11.032Z</time></trkpt><trkpt lat="45.4088817" lon="10.5399598"><ele>133.0</ele><time>2026-04-20T01:05:28.03Z</time></trkpt><trkpt lat="45.4089628" lon="10.5399441"><ele>133.0</ele><time>2026-04-20T01:05:38.034Z</time></trkpt><trkpt lat="45.4090008" lon="10.5398514"><ele>133.0</ele><time>2026-04-20T01:05:41.026Z</time></trkpt><trkpt lat="45.4089541" lon="10.539767"><ele>133.0</ele><time>2026-04-20T01:05:48.036Z</time></trkpt><trkpt lat="45.4088924" lon="10.5397297"><ele>133.0</ele><time>2026-04-20T01:05:57.034Z</time></trkpt><trkpt lat="45.4088972" lon="10.5398314"><ele>133.0</ele><time>2026-04-20T01:06:26.027Z</time></trkpt><trkpt lat="45.4089176" lon="10.5397324"><ele>133.0</ele><time>2026-04-20T01:06:47.029Z</time></trkpt><trkpt lat="45.4089935" lon="10.5398435"><ele>133.0</ele><time>2026-04-20T01:07:07.025Z</time></trkpt><trkpt lat="45.4090485" lon="10.5397932"><ele>133.0</ele><time>2026-04-20T01:07:41.04Z</time></trkpt><trkpt lat="45.4090117" lon="10.5398816"><ele>133.0</ele><time>2026-04-20T01:08:03.034Z</time></trkpt><trkpt lat="45.4089665" lon="10.5398115"><ele>133.0</ele><time>2026-04-20T01:08:32.032Z</time></trkpt><trkpt lat="45.4090085" lon="10.5398823"><ele>133.0</ele><time>2026-04-20T01:09:08.031Z</time></trkpt><trkpt lat="45.4090676" lon="10.539929"><ele>133.0</ele><time>2026-04-20T01:09:30.032Z</time></trkpt><trkpt lat="45.4090738" lon="10.5398146"><ele>133.0</ele><time>2026-04-20T01:10:11.026Z</time></trkpt><trkpt lat="45.4090176" lon="10.5397741"><ele>133.0</ele><time>2026-04-20T01:10:35.028Z</time></trkpt><trkpt lat="45.4089422" lon="10.539796"><ele>133.0</ele><time>2026-04-20T01:10:52.029Z</time></trkpt><trkpt lat="45.4090129" lon="10.5397693"><ele>133.0</ele><time>2026-04-20T01:11:10.036Z</time></trkpt><trkpt lat="45.4090102" lon="10.5398674"><ele>133.0</ele><time>2026-04-20T01:11:33.036Z</time></trkpt><trkpt lat="45.4089772" lon="10.5399455"><ele>133.0</ele><time>2026-04-20T01:12:56.034Z</time></trkpt><trkpt lat="45.4088952" lon="10.5399817"><ele>133.0</ele><time>2026-04-20T01:13:18.023Z</time></trkpt><trkpt lat="45.4089149" lon="10.5398938"><ele>133.0</ele><time>2026-04-20T01:13:40.044Z</time></trkpt><trkpt lat="45.408991" lon="10.5398148"><ele>133.0</ele><time>2026-04-20T01:13:42.034Z</time></trkpt><trkpt lat="45.4090643" lon="10.5398179"><ele>133.0</ele><time>2026-04-20T01:13:58.032Z</time></trkpt><trkpt lat="45.4091161" lon="10.5398788"><ele>133.0</ele><time>2026-04-20T01:14:04.026Z</time></trkpt><trkpt lat="45.4091963" lon="10.53983"><ele>133.0</ele><time>2026-04-20T01:14:30.027Z</time></trkpt><trkpt lat="45.4091157" lon="10.5398453"><ele>133.0</ele><time>2026-04-20T01:14:42.023Z</time></trkpt><trkpt lat="45.4089958" lon="10.5397775"><ele>133.0</ele><time>2026-04-20T01:15:17.028Z</time></trkpt><trkpt lat="45.4089568" lon="10.5398481"><ele>133.0</ele><time>2026-04-20T01:15:38.03Z</time></trkpt><trkpt lat="45.4089861" lon="10.5399304"><ele>133.0</ele><time>2026-04-20T01:16:31.031Z</time></trkpt><trkpt lat="45.4089659" lon="10.5398361"><ele>133.0</ele><time>2026-04-20T01:17:09.022Z</time></trkpt><trkpt lat="45.4089817" lon="10.5399347"><ele>133.0</ele><time>2026-04-20T01:17:30.035Z</time></trkpt><trkpt lat="45.4089216" lon="10.5399735"><ele>133.0</ele><time>2026-04-20T01:17:35.024Z</time></trkpt><trkpt lat="45.4089461" lon="10.5398703"><ele>133.0</ele><time>2026-04-20T01:17:49.029Z</time></trkpt><trkpt lat="45.4089756" lon="10.5399844"><ele>133.0</ele><time>2026-04-20T01:18:15.026Z</time></trkpt><trkpt lat="45.4088746" lon="10.54001"><ele>133.0</ele><time>2026-04-20T01:18:28.026Z</time></trkpt><trkpt lat="45.408818" lon="10.5400599"><ele>133.0</ele><time>2026-04-20T01:18:34.023Z</time></trkpt><trkpt lat="45.4087446" lon="10.5400976"><ele>133.0</ele><time>2026-04-20T01:18:37.04Z</time></trkpt><trkpt lat="45.4088281" lon="10.5401382"><ele>133.0</ele><time>2026-04-20T01:18:43.03Z</time></trkpt><trkpt lat="45.4088878" lon="10.5402026"><ele>133.0</ele><time>2026-04-20T01:18:45.035Z</time></trkpt><trkpt lat="45.4089555" lon="10.5401689"><ele>133.0</ele><time>2026-04-20T01:18:47.032Z</time></trkpt><trkpt lat="45.4090006" lon="10.5400963"><ele>133.0</ele><time>2026-04-20T01:18:48.03Z</time></trkpt><trkpt lat="45.4090635" lon="10.5400618"><ele>133.0</ele><time>2026-04-20T01:18:50.03Z</time></trkpt><trkpt lat="45.4091034" lon="10.5399876"><ele>133.0</ele><time>2026-04-20T01:18:53.036Z</time></trkpt><trkpt lat="45.4090504" lon="10.5399289"><ele>133.0</ele><time>2026-04-20T01:19:11.034Z</time></trkpt><trkpt lat="45.4089873" lon="10.5399619"><ele>133.0</ele><time>2026-04-20T01:19:13.029Z</time></trkpt><trkpt lat="45.4090149" lon="10.5398732"><ele>133.0</ele><time>2026-04-20T01:19:19.035Z</time></trkpt><trkpt lat="45.4089583" lon="10.5399437"><ele>133.0</ele><time>2026-04-20T01:19:26.03Z</time></trkpt><trkpt lat="45.4090101" lon="10.5398895"><ele>133.0</ele><time>2026-04-20T01:19:33.032Z</time></trkpt><trkpt lat="45.4090813" lon="10.539919"><ele>133.0</ele><time>2026-04-20T01:20:27.028Z</time></trkpt><trkpt lat="45.4090484" lon="10.5399965"><ele>133.0</ele><time>2026-04-20T01:20:36.025Z</time></trkpt><trkpt lat="45.4089815" lon="10.5399871"><ele>133.0</ele><time>2026-04-20T01:20:54.039Z</time></trkpt><trkpt lat="45.4089728" lon="10.5398962"><ele>133.0</ele><time>2026-04-20T01:21:21.032Z</time></trkpt><trkpt lat="45.4090277" lon="10.5398481"><ele>133.0</ele><time>2026-04-20T01:21:27.035Z</time></trkpt><trkpt lat="45.4090888" lon="10.5398036"><ele>133.0</ele><time>2026-04-20T01:21:34.017Z</time></trkpt><trkpt lat="45.4090168" lon="10.5398151"><ele>133.0</ele><time>2026-04-20T01:21:51.032Z</time></trkpt><trkpt lat="45.409076" lon="10.5398579"><ele>133.0</ele><time>2026-04-20T01:22:11.035Z</time></trkpt><trkpt lat="45.4091748" lon="10.539811"><ele>133.0</ele><time>2026-04-20T01:22:32.034Z</time></trkpt><trkpt lat="45.4090997" lon="10.5397991"><ele>133.0</ele><time>2026-04-20T01:22:41.034Z</time></trkpt><trkpt lat="45.4090075" lon="10.53984"><ele>133.0</ele><time>2026-04-20T01:22:58.028Z</time></trkpt><trkpt lat="45.4089672" lon="10.5397701"><ele>133.0</ele><time>2026-04-20T01:24:06.028Z</time></trkpt><trkpt lat="45.4090478" lon="10.5397446"><ele>133.0</ele><time>2026-04-20T01:25:20.026Z</time></trkpt><trkpt lat="45.4090299" lon="10.5396537"><ele>133.0</ele><time>2026-04-20T01:28:14.036Z</time></trkpt><trkpt lat="45.4089685" lon="10.539555"><ele>133.0</ele><time>2026-04-20T01:28:57.029Z</time></trkpt><trkpt lat="45.4089497" lon="10.5396555"><ele>133.0</ele><time>2026-04-20T01:29:10.027Z</time></trkpt><trkpt lat="45.4089367" lon="10.5397585"><ele>133.0</ele><time>2026-04-20T01:29:15.028Z</time></trkpt><trkpt lat="45.4089239" lon="10.5398654"><ele>133.0</ele><time>2026-04-20T01:29:19.028Z</time></trkpt><trkpt lat="45.4089763" lon="10.5399672"><ele>133.0</ele><time>2026-04-20T01:29:56.027Z</time></trkpt><trkpt lat="45.4089975" lon="10.5398629"><ele>133.0</ele><time>2026-04-20T01:30:01.01Z</time></trkpt><trkpt lat="45.4089499" lon="10.5397999"><ele>133.0</ele><time>2026-04-20T01:30:36.021Z</time></trkpt><trkpt lat="45.4089702" lon="10.5396979"><ele>133.0</ele><time>2026-04-20T01:30:45.023Z</time></trkpt><trkpt lat="45.4089392" lon="10.5396158"><ele>133.0</ele><time>2026-04-20T01:30:51.032Z</time></trkpt><trkpt lat="45.4090152" lon="10.5395926"><ele>133.0</ele><time>2026-04-20T01:31:06.03Z</time></trkpt><trkpt lat="45.4089804" lon="10.5396751"><ele>133.0</ele><time>2026-04-20T01:31:32.038Z</time></trkpt><trkpt lat="45.40898" lon="10.5397692"><ele>133.0</ele><time>2026-04-20T01:31:55.023Z</time></trkpt><trkpt lat="45.4089478" lon="10.5398996"><ele>133.0</ele><time>2026-04-20T01:35:34.024Z</time></trkpt><trkpt lat="45.4088812" lon="10.5398528"><ele>133.0</ele><time>2026-04-20T01:35:45.023Z</time></trkpt><trkpt lat="45.4089143" lon="10.5397312"><ele>133.0</ele><time>2026-04-20T01:36:01.03Z</time></trkpt><trkpt lat="45.4089335" lon="10.5398309"><ele>133.0</ele><time>2026-04-20T01:36:14.032Z</time></trkpt><trkpt lat="45.4089655" lon="10.5399226"><ele>133.0</ele><time>2026-04-20T01:36:56.034Z</time></trkpt><trkpt lat="45.4089176" lon="10.5399811"><ele>133.0</ele><time>2026-04-20T01:37:10.033Z</time></trkpt><trkpt lat="45.4089294" lon="10.5398821"><ele>133.0</ele><time>2026-04-20T01:37:14.032Z</time></trkpt><trkpt lat="45.4089397" lon="10.5397847"><ele>133.0</ele><time>2026-04-20T01:37:16.022Z</time></trkpt><trkpt lat="45.4089491" lon="10.5396894"><ele>133.0</ele><time>2026-04-20T01:37:20.027Z</time></trkpt><trkpt lat="45.409015" lon="10.5396867"><ele>133.0</ele><time>2026-04-20T01:38:12.024Z</time></trkpt><trkpt lat="45.4089402" lon="10.5396061"><ele>133.0</ele><time>2026-04-20T01:39:21.031Z</time></trkpt><trkpt lat="45.4089823" lon="10.5396979"><ele>133.0</ele><time>2026-04-20T01:39:26.024Z</time></trkpt><trkpt lat="45.4090281" lon="10.5397959"><ele>133.0</ele><time>2026-04-20T01:39:37.024Z</time></trkpt><trkpt lat="45.4089678" lon="10.5397501"><ele>133.0</ele><time>2026-04-20T01:40:13.029Z</time></trkpt><trkpt lat="45.4090384" lon="10.5396971"><ele>133.0</ele><time>2026-04-20T01:45:10.024Z</time></trkpt><trkpt lat="45.4090077" lon="10.539784"><ele>133.0</ele><time>2026-04-20T01:46:09.02Z</time></trkpt><trkpt lat="45.409026" lon="10.5398902"><ele>133.0</ele><time>2026-04-20T01:46:54.023Z</time></trkpt><trkpt lat="45.4089682" lon="10.5398466"><ele>133.0</ele><time>2026-04-20T01:47:12.03Z</time></trkpt><trkpt lat="45.4090362" lon="10.5397782"><ele>133.0</ele><time>2026-04-20T01:48:53.031Z</time></trkpt><trkpt lat="45.4089857" lon="10.5398339"><ele>133.0</ele><time>2026-04-20T01:50:21.027Z</time></trkpt><trkpt lat="45.4089839" lon="10.5397269"><ele>133.0</ele><time>2026-04-20T01:50:53.027Z</time></trkpt><trkpt lat="45.4089545" lon="10.5398066"><ele>133.0</ele><time>2026-04-20T01:52:34.029Z</time></trkpt><trkpt lat="45.4089078" lon="10.5398718"><ele>133.0</ele><time>2026-04-20T01:52:40.025Z</time></trkpt><trkpt lat="45.408864" lon="10.5399453"><ele>133.0</ele><time>2026-04-20T01:52:48.013Z</time></trkpt><trkpt lat="45.4088877" lon="10.5398517"><ele>133.0</ele><time>2026-04-20T01:53:45.026Z</time></trkpt><trkpt lat="45.408974" lon="10.5398194"><ele>133.0</ele><time>2026-04-20T01:56:49.021Z</time></trkpt><trkpt lat="45.4090033" lon="10.5397034"><ele>133.0</ele><time>2026-04-20T01:57:45.022Z</time></trkpt><trkpt lat="45.4089752" lon="10.5397925"><ele>133.0</ele><time>2026-04-20T01:57:58.025Z</time></trkpt><trkpt lat="45.4089122" lon="10.5398025"><ele>133.0</ele><time>2026-04-20T01:58:23.027Z</time></trkpt><trkpt lat="45.408851" lon="10.5398427"><ele>133.0</ele><time>2026-04-20T01:58:27.022Z</time></trkpt><trkpt lat="45.4088836" lon="10.5399244"><ele>133.0</ele><time>2026-04-20T01:58:42.023Z</time></trkpt><trkpt lat="45.4089157" lon="10.5398369"><ele>133.0</ele><time>2026-04-20T01:59:15.025Z</time></trkpt><trkpt lat="45.4089101" lon="10.5397082"><ele>133.0</ele><time>2026-04-20T01:59:24.022Z</time></trkpt><trkpt lat="45.408947" lon="10.5397849"><ele>133.0</ele><time>2026-04-20T01:59:40.023Z</time></trkpt><trkpt lat="45.4089244" lon="10.5398731"><ele>133.0</ele><time>2026-04-20T01:59:44.027Z</time></trkpt><trkpt lat="45.4088717" lon="10.5399348"><ele>133.0</ele><time>2026-04-20T02:00:04.022Z</time></trkpt><trkpt lat="45.4088261" lon="10.5397918"><ele>133.0</ele><time>2026-04-20T02:00:14.028Z</time></trkpt><trkpt lat="45.4088763" lon="10.5399078"><ele>133.0</ele><time>2026-04-20T02:00:18.032Z</time></trkpt><trkpt lat="45.4089352" lon="10.5398735"><ele>133.0</ele><time>2026-04-20T02:00:28.021Z</time></trkpt><trkpt lat="45.4090096" lon="10.5398389"><ele>133.0</ele><time>2026-04-20T02:00:39.025Z</time></trkpt><trkpt lat="45.4089755" lon="10.5397611"><ele>133.0</ele><time>2026-04-20T02:00:59.029Z</time></trkpt><trkpt lat="45.4089112" lon="10.5397837"><ele>133.0</ele><time>2026-04-20T02:01:38.027Z</time></trkpt><trkpt lat="45.4089022" lon="10.5398733"><ele>133.0</ele><time>2026-04-20T02:02:05.02Z</time></trkpt><trkpt lat="45.4089616" lon="10.5398336"><ele>133.0</ele><time>2026-04-20T02:02:25.029Z</time></trkpt><trkpt lat="45.4088804" lon="10.539865"><ele>133.0</ele><time>2026-04-20T02:02:56.023Z</time></trkpt><trkpt lat="45.4089747" lon="10.5398821"><ele>133.0</ele><time>2026-04-20T02:03:57.03Z</time></trkpt><trkpt lat="45.4089276" lon="10.5398153"><ele>133.0</ele><time>2026-04-20T02:05:04.021Z</time></trkpt><trkpt lat="45.4089945" lon="10.5397501"><ele>133.0</ele><time>2026-04-20T02:05:39.021Z</time></trkpt><trkpt lat="45.4089332" lon="10.539779"><ele>133.0</ele><time>2026-04-20T02:05:56.032Z</time></trkpt><trkpt lat="45.4088862" lon="10.5398424"><ele>131.5</ele><time>2026-04-20T02:06:31.027Z</time></trkpt><trkpt lat="45.4088141" lon="10.5399201"><ele>130.0</ele><time>2026-04-20T02:06:34.02Z</time></trkpt><trkpt lat="45.4087529" lon="10.539989"><ele>128.5</ele><time>2026-04-20T02:06:36.02Z</time></trkpt><trkpt lat="45.4086528" lon="10.5401108"><ele>127.0</ele><time>2026-04-20T02:06:42.024Z</time></trkpt><trkpt lat="45.4085889" lon="10.5401445"><ele>125.50000000000001</ele><time>2026-04-20T02:06:46.025Z</time></trkpt><trkpt lat="45.4086618" lon="10.5401428"><ele>124.0</ele><time>2026-04-20T02:06:59.023Z</time></trkpt><trkpt lat="45.4087265" lon="10.54011"><ele>124.00000000000001</ele><time>2026-04-20T02:07:03.019Z</time></trkpt><trkpt lat="45.4087885" lon="10.5400338"><ele>124.0</ele><time>2026-04-20T02:07:06.022Z</time></trkpt><trkpt lat="45.4088475" lon="10.5399655"><ele>124.0</ele><time>2026-04-20T02:07:08.021Z</time></trkpt><trkpt lat="45.4088903" lon="10.5398739"><ele>124.0</ele><time>2026-04-20T02:07:15.021Z</time></trkpt><trkpt lat="45.4088159" lon="10.539879"><ele>124.00000000000001</ele><time>2026-04-20T02:07:27.029Z</time></trkpt><trkpt lat="45.4088808" lon="10.5398387"><ele>124.0</ele><time>2026-04-20T02:08:07.031Z</time></trkpt><trkpt lat="45.4089384" lon="10.5397374"><ele>125.28571428571429</ele><time>2026-04-20T02:09:42.02Z</time></trkpt><trkpt lat="45.4089097" lon="10.539818"><ele>126.57142857142858</ele><time>2026-04-20T02:09:48.031Z</time></trkpt><trkpt lat="45.4088544" lon="10.5398929"><ele>127.85714285714286</ele><time>2026-04-20T02:09:51.018Z</time></trkpt><trkpt lat="45.4088427" lon="10.5399854"><ele>129.14285714285714</ele><time>2026-04-20T02:10:44.029Z</time></trkpt><trkpt lat="45.4088684" lon="10.5398997"><ele>130.42857142857144</ele><time>2026-04-20T02:11:14.023Z</time></trkpt><trkpt lat="45.4089317" lon="10.5398433"><ele>131.71428571428572</ele><time>2026-04-20T02:14:01.02Z</time></trkpt><trkpt lat="45.409002" lon="10.5397983"><ele>133.0</ele><time>2026-04-20T02:14:02.023Z</time></trkpt><trkpt lat="45.408956" lon="10.5398709"><ele>133.0</ele><time>2026-04-20T02:15:06.023Z</time></trkpt><trkpt lat="45.4089014" lon="10.539926"><ele>133.0</ele><time>2026-04-20T02:15:21.027Z</time></trkpt><trkpt lat="45.4089348" lon="10.5400035"><ele>133.0</ele><time>2026-04-20T02:15:32.023Z</time></trkpt><trkpt lat="45.4089133" lon="10.5399119"><ele>133.0</ele><time>2026-04-20T02:16:31.031Z</time></trkpt><trkpt lat="45.4090058" lon="10.539911"><ele>133.0</ele><time>2026-04-20T02:16:39.028Z</time></trkpt><trkpt lat="45.4089425" lon="10.5398984"><ele>133.0</ele><time>2026-04-20T02:16:56.031Z</time></trkpt><trkpt lat="45.4089655" lon="10.5398075"><ele>133.0</ele><time>2026-04-20T02:18:33.019Z</time></trkpt><trkpt lat="45.4090533" lon="10.5397543"><ele>133.0</ele><time>2026-04-20T02:19:16.029Z</time></trkpt><trkpt lat="45.4091185" lon="10.5397481"><ele>133.0</ele><time>2026-04-20T02:19:25.031Z</time></trkpt><trkpt lat="45.4091828" lon="10.5397088"><ele>133.0</ele><time>2026-04-20T02:19:32.021Z</time></trkpt><trkpt lat="45.4091193" lon="10.5397287"><ele>133.0</ele><time>2026-04-20T02:20:13.032Z</time></trkpt><trkpt lat="45.4090497" lon="10.5397581"><ele>133.0</ele><time>2026-04-20T02:20:17.02Z</time></trkpt><trkpt lat="45.4089843" lon="10.5397834"><ele>133.0</ele><time>2026-04-20T02:20:34.02Z</time></trkpt><trkpt lat="45.4089091" lon="10.5398385"><ele>133.0</ele><time>2026-04-20T02:20:42.019Z</time></trkpt><trkpt lat="45.4088641" lon="10.5399244"><ele>133.0</ele><time>2026-04-20T02:20:47.03Z</time></trkpt><trkpt lat="45.4089269" lon="10.5399144"><ele>133.0</ele><time>2026-04-20T02:21:15.022Z</time></trkpt><trkpt lat="45.4089862" lon="10.5398594"><ele>133.0</ele><time>2026-04-20T02:21:47.021Z</time></trkpt><trkpt lat="45.4089463" lon="10.5399348"><ele>133.0</ele><time>2026-04-20T02:23:39.023Z</time></trkpt><trkpt lat="45.4088934" lon="10.5398808"><ele>133.0</ele><time>2026-04-20T02:24:05.023Z</time></trkpt><trkpt lat="45.4089602" lon="10.5399306"><ele>133.0</ele><time>2026-04-20T02:25:49.029Z</time></trkpt><trkpt lat="45.409003" lon="10.5398236"><ele>133.0</ele><time>2026-04-20T02:26:14.018Z</time></trkpt><trkpt lat="45.4089577" lon="10.5398933"><ele>133.0</ele><time>2026-04-20T02:26:40.023Z</time></trkpt><trkpt lat="45.4089921" lon="10.5398161"><ele>133.0</ele><time>2026-04-20T02:27:26.032Z</time></trkpt><trkpt lat="45.4089547" lon="10.5398926"><ele>133.0</ele><time>2026-04-20T02:27:59.025Z</time></trkpt><trkpt lat="45.4088756" lon="10.5399097"><ele>133.0</ele><time>2026-04-20T02:28:05.024Z</time></trkpt><trkpt lat="45.4089433" lon="10.5398833"><ele>133.0</ele><time>2026-04-20T02:32:41.029Z</time></trkpt><trkpt lat="45.409007" lon="10.5397676"><ele>133.0</ele><time>2026-04-20T02:32:51.021Z</time></trkpt><trkpt lat="45.4089463" lon="10.5398022"><ele>133.0</ele><time>2026-04-20T02:33:16.028Z</time></trkpt><trkpt lat="45.4089973" lon="10.5397401"><ele>133.0</ele><time>2026-04-20T02:34:02.027Z</time></trkpt><trkpt lat="45.4090696" lon="10.5397532"><ele>133.0</ele><time>2026-04-20T02:34:09.021Z</time></trkpt><trkpt lat="45.4090341" lon="10.5398484"><ele>133.0</ele><time>2026-04-20T02:34:57.02Z</time></trkpt><trkpt lat="45.4091019" lon="10.5398553"><ele>133.0</ele><time>2026-04-20T02:38:01.029Z</time></trkpt><trkpt lat="45.4090119" lon="10.539835"><ele>133.0</ele><time>2026-04-20T02:38:17.019Z</time></trkpt><trkpt lat="45.4089004" lon="10.539863"><ele>133.0</ele><time>2026-04-20T02:38:28.019Z</time></trkpt><trkpt lat="45.4088264" lon="10.5398677"><ele>133.0</ele><time>2026-04-20T02:38:38.02Z</time></trkpt><trkpt lat="45.408752" lon="10.5398798"><ele>133.0</ele><time>2026-04-20T02:38:46.021Z</time></trkpt><trkpt lat="45.4088219" lon="10.539889"><ele>133.0</ele><time>2026-04-20T02:39:05.016Z</time></trkpt><trkpt lat="45.4088871" lon="10.5398402"><ele>133.0</ele><time>2026-04-20T02:39:13.029Z</time></trkpt><trkpt lat="45.4089332" lon="10.5397621"><ele>133.0</ele><time>2026-04-20T02:39:38.019Z</time></trkpt><trkpt lat="45.408956" lon="10.5398543"><ele>133.0</ele><time>2026-04-20T02:39:57.021Z</time></trkpt><trkpt lat="45.4090487" lon="10.5398237"><ele>133.0</ele><time>2026-04-20T02:40:35.02Z</time></trkpt><trkpt lat="45.4090056" lon="10.5398971"><ele>133.0</ele><time>2026-04-20T02:41:22.023Z</time></trkpt><trkpt lat="45.4089392" lon="10.5398928"><ele>133.0</ele><time>2026-04-20T02:41:30.027Z</time></trkpt><trkpt lat="45.4088708" lon="10.5398646"><ele>133.0</ele><time>2026-04-20T02:42:47.028Z</time></trkpt><trkpt lat="45.4088201" lon="10.5399311"><ele>133.0</ele><time>2026-04-20T02:44:01.015Z</time></trkpt><trkpt lat="45.4088942" lon="10.5399612"><ele>133.0</ele><time>2026-04-20T02:44:32.027Z</time></trkpt><trkpt lat="45.4088239" lon="10.5399306"><ele>133.0</ele><time>2026-04-20T02:46:58.028Z</time></trkpt><trkpt lat="45.408883" lon="10.539878"><ele>133.0</ele><time>2026-04-20T02:47:40.028Z</time></trkpt><trkpt lat="45.4089741" lon="10.5398889"><ele>133.0</ele><time>2026-04-20T02:47:49.022Z</time></trkpt><trkpt lat="45.4090255" lon="10.5398325"><ele>133.0</ele><time>2026-04-20T02:48:15.019Z</time></trkpt><trkpt lat="45.4089652" lon="10.5398654"><ele>133.0</ele><time>2026-04-20T02:49:26.02Z</time></trkpt><trkpt lat="45.4089121" lon="10.5399169"><ele>133.0</ele><time>2026-04-20T02:49:39.028Z</time></trkpt><trkpt lat="45.4088426" lon="10.5398761"><ele>133.0</ele><time>2026-04-20T02:49:48.028Z</time></trkpt><trkpt lat="45.4089313" lon="10.5398869"><ele>133.0</ele><time>2026-04-20T02:50:12.03Z</time></trkpt><trkpt lat="45.4089635" lon="10.5397869"><ele>133.0</ele><time>2026-04-20T02:52:40.029Z</time></trkpt><trkpt lat="45.4088805" lon="10.5397569"><ele>133.0</ele><time>2026-04-20T02:53:43.026Z</time></trkpt><trkpt lat="45.4088091" lon="10.5397976"><ele>133.0</ele><time>2026-04-20T02:53:50.029Z</time></trkpt><trkpt lat="45.408895" lon="10.5397649"><ele>133.0</ele><time>2026-04-20T02:54:27.025Z</time></trkpt><trkpt lat="45.4089514" lon="10.5398122"><ele>133.0</ele><time>2026-04-20T02:54:42.015Z</time></trkpt><trkpt lat="45.4089379" lon="10.5399045"><ele>133.0</ele><time>2026-04-20T02:55:31.024Z</time></trkpt><trkpt lat="45.4089932" lon="10.5399507"><ele>133.0</ele><time>2026-04-20T02:55:43.018Z</time></trkpt><trkpt lat="45.4089477" lon="10.5398701"><ele>133.0</ele><time>2026-04-20T02:56:10.026Z</time></trkpt><trkpt lat="45.4090066" lon="10.5398374"><ele>133.0</ele><time>2026-04-20T02:58:42.016Z</time></trkpt><trkpt lat="45.4090745" lon="10.5398575"><ele>133.0</ele><time>2026-04-20T03:01:05.029Z</time></trkpt><trkpt lat="45.4092037" lon="10.539844"><ele>133.0</ele><time>2026-04-20T03:01:13.018Z</time></trkpt><trkpt lat="45.4091023" lon="10.5398089"><ele>133.0</ele><time>2026-04-20T03:01:23.019Z</time></trkpt><trkpt lat="45.408898" lon="10.5397824"><ele>133.0</ele><time>2026-04-20T03:01:25.021Z</time></trkpt><trkpt lat="45.4089616" lon="10.5397877"><ele>133.0</ele><time>2026-04-20T03:01:46.026Z</time></trkpt><trkpt lat="45.4089284" lon="10.5398715"><ele>133.0</ele><time>2026-04-20T03:02:00.025Z</time></trkpt><trkpt lat="45.4090004" lon="10.539899"><ele>133.0</ele><time>2026-04-20T03:02:22.019Z</time></trkpt><trkpt lat="45.4089055" lon="10.5398886"><ele>133.0</ele><time>2026-04-20T03:02:58.023Z</time></trkpt><trkpt lat="45.408964" lon="10.5399377"><ele>133.0</ele><time>2026-04-20T03:03:29.029Z</time></trkpt><trkpt lat="45.4089032" lon="10.539897"><ele>133.0</ele><time>2026-04-20T03:03:56.032Z</time></trkpt><trkpt lat="45.40884" lon="10.539895"><ele>133.0</ele><time>2026-04-20T03:04:07.018Z</time></trkpt><trkpt lat="45.4089627" lon="10.5398707"><ele>133.0</ele><time>2026-04-20T03:05:27.03Z</time></trkpt><trkpt lat="45.4090368" lon="10.5398642"><ele>133.0</ele><time>2026-04-20T03:05:39.024Z</time></trkpt><trkpt lat="45.4089559" lon="10.5398744"><ele>133.0</ele><time>2026-04-20T03:06:13.032Z</time></trkpt><trkpt lat="45.4090141" lon="10.5399192"><ele>133.0</ele><time>2026-04-20T03:08:14.02Z</time></trkpt><trkpt lat="45.4089622" lon="10.5398515"><ele>133.0</ele><time>2026-04-20T03:09:01.02Z</time></trkpt><trkpt lat="45.4090415" lon="10.5398563"><ele>133.0</ele><time>2026-04-20T03:09:40.014Z</time></trkpt><trkpt lat="45.4089773" lon="10.5398826"><ele>133.0</ele><time>2026-04-20T03:10:24.031Z</time></trkpt><trkpt lat="45.4089173" lon="10.5399158"><ele>133.0</ele><time>2026-04-20T03:10:47.016Z</time></trkpt><trkpt lat="45.4089847" lon="10.5399766"><ele>133.0</ele><time>2026-04-20T03:11:10.017Z</time></trkpt><trkpt lat="45.4089036" lon="10.5400194"><ele>133.0</ele><time>2026-04-20T03:11:15.017Z</time></trkpt><trkpt lat="45.4088359" lon="10.5400396"><ele>133.0</ele><time>2026-04-20T03:11:18.018Z</time></trkpt><trkpt lat="45.4087666" lon="10.5400297"><ele>133.0</ele><time>2026-04-20T03:11:20.021Z</time></trkpt><trkpt lat="45.4088328" lon="10.5400457"><ele>133.0</ele><time>2026-04-20T03:11:24.023Z</time></trkpt><trkpt lat="45.4087676" lon="10.5400274"><ele>133.0</ele><time>2026-04-20T03:11:26.02Z</time></trkpt><trkpt lat="45.4088349" lon="10.5400505"><ele>133.0</ele><time>2026-04-20T03:11:35.011Z</time></trkpt><trkpt lat="45.4089055" lon="10.5400861"><ele>133.0</ele><time>2026-04-20T03:11:37.032Z</time></trkpt><trkpt lat="45.4089774" lon="10.5401279"><ele>133.0</ele><time>2026-04-20T03:11:39.02Z</time></trkpt><trkpt lat="45.4090519" lon="10.5401396"><ele>133.0</ele><time>2026-04-20T03:11:42.016Z</time></trkpt><trkpt lat="45.4091151" lon="10.5401447"><ele>133.0</ele><time>2026-04-20T03:11:44.016Z</time></trkpt><trkpt lat="45.4094615" lon="10.5402213"><ele>133.0</ele><time>2026-04-20T03:11:47.028Z</time></trkpt><trkpt lat="45.4096394" lon="10.5402592"><ele>133.0</ele><time>2026-04-20T03:11:48.023Z</time></trkpt><trkpt lat="45.409733" lon="10.540279"><ele>133.0</ele><time>2026-04-20T03:11:50.022Z</time></trkpt><trkpt lat="45.4096709" lon="10.5402377"><ele>133.0</ele><time>2026-04-20T03:12:00.024Z</time></trkpt><trkpt lat="45.4095899" lon="10.5402062"><ele>133.0</ele><time>2026-04-20T03:12:04.015Z</time></trkpt><trkpt lat="45.4095092" lon="10.5401673"><ele>133.0</ele><time>2026-04-20T03:12:11.017Z</time></trkpt><trkpt lat="45.4094446" lon="10.5401489"><ele>133.0</ele><time>2026-04-20T03:12:16.023Z</time></trkpt><trkpt lat="45.4093764" lon="10.5401257"><ele>133.0</ele><time>2026-04-20T03:12:19.019Z</time></trkpt><trkpt lat="45.4092773" lon="10.5400986"><ele>133.0</ele><time>2026-04-20T03:12:24.022Z</time></trkpt><trkpt lat="45.409216" lon="10.5400723"><ele>133.0</ele><time>2026-04-20T03:12:26.02Z</time></trkpt><trkpt lat="45.4091572" lon="10.5400285"><ele>133.0</ele><time>2026-04-20T03:12:47.029Z</time></trkpt><trkpt lat="45.4093388" lon="10.5401292"><ele>133.0</ele><time>2026-04-20T03:12:56.035Z</time></trkpt><trkpt lat="45.4094091" lon="10.5401758"><ele>133.0</ele><time>2026-04-20T03:12:57.016Z</time></trkpt><trkpt lat="45.4093401" lon="10.5401546"><ele>133.0</ele><time>2026-04-20T03:13:11.028Z</time></trkpt><trkpt lat="45.4092766" lon="10.5401082"><ele>133.0</ele><time>2026-04-20T03:13:18.026Z</time></trkpt><trkpt lat="45.4091936" lon="10.5400622"><ele>133.0</ele><time>2026-04-20T03:13:30.03Z</time></trkpt><trkpt lat="45.4091395" lon="10.540005"><ele>133.0</ele><time>2026-04-20T03:13:44.024Z</time></trkpt><trkpt lat="45.4090737" lon="10.5399975"><ele>133.0</ele><time>2026-04-20T03:13:58.019Z</time></trkpt><trkpt lat="45.4090151" lon="10.5399407"><ele>133.0</ele><time>2026-04-20T03:14:28.018Z</time></trkpt><trkpt lat="45.409099" lon="10.5399502"><ele>133.0</ele><time>2026-04-20T03:15:22.018Z</time></trkpt><trkpt lat="45.4091812" lon="10.5400289"><ele>133.0</ele><time>2026-04-20T03:15:40.018Z</time></trkpt><trkpt lat="45.4090934" lon="10.5399894"><ele>133.0</ele><time>2026-04-20T03:15:57.02Z</time></trkpt><trkpt lat="45.4090118" lon="10.5399559"><ele>133.0</ele><time>2026-04-20T03:16:20.029Z</time></trkpt><trkpt lat="45.4090798" lon="10.5399248"><ele>133.0</ele><time>2026-04-20T03:16:31.017Z</time></trkpt><trkpt lat="45.4090123" lon="10.5398522"><ele>133.0</ele><time>2026-04-20T03:16:55.02Z</time></trkpt><trkpt lat="45.4090867" lon="10.5398168"><ele>133.0</ele><time>2026-04-20T03:16:59.021Z</time></trkpt><trkpt lat="45.409076" lon="10.5397186"><ele>133.0</ele><time>2026-04-20T03:17:03.017Z</time></trkpt><trkpt lat="45.4090231" lon="10.5396432"><ele>133.0</ele><time>2026-04-20T03:17:17.022Z</time></trkpt><trkpt lat="45.4090323" lon="10.539733"><ele>133.0</ele><time>2026-04-20T03:17:25.02Z</time></trkpt><trkpt lat="45.4090941" lon="10.5397968"><ele>133.0</ele><time>2026-04-20T03:17:46.018Z</time></trkpt><trkpt lat="45.4091436" lon="10.5398651"><ele>133.0</ele><time>2026-04-20T03:17:53.019Z</time></trkpt><trkpt lat="45.4091994" lon="10.5399162"><ele>133.0</ele><time>2026-04-20T03:18:03.017Z</time></trkpt><trkpt lat="45.409296" lon="10.5400429"><ele>133.0</ele><time>2026-04-20T03:18:13.012Z</time></trkpt><trkpt lat="45.4093924" lon="10.5400761"><ele>133.0</ele><time>2026-04-20T03:18:19.024Z</time></trkpt><trkpt lat="45.4093387" lon="10.540021"><ele>133.0</ele><time>2026-04-20T03:18:23.028Z</time></trkpt><trkpt lat="45.4092627" lon="10.5399597"><ele>133.0</ele><time>2026-04-20T03:18:38.022Z</time></trkpt><trkpt lat="45.4091984" lon="10.5398994"><ele>133.0</ele><time>2026-04-20T03:18:39.022Z</time></trkpt><trkpt lat="45.4091115" lon="10.5398505"><ele>133.0</ele><time>2026-04-20T03:18:45.027Z</time></trkpt><trkpt lat="45.4090564" lon="10.5397902"><ele>133.0</ele><time>2026-04-20T03:18:50.027Z</time></trkpt><trkpt lat="45.4089899" lon="10.5397886"><ele>133.0</ele><time>2026-04-20T03:18:59.017Z</time></trkpt><trkpt lat="45.4090516" lon="10.5398419"><ele>133.0</ele><time>2026-04-20T03:19:03.024Z</time></trkpt><trkpt lat="45.4091009" lon="10.5399253"><ele>133.0</ele><time>2026-04-20T03:19:20.026Z</time></trkpt><trkpt lat="45.4091595" lon="10.5399691"><ele>133.0</ele><time>2026-04-20T03:19:22.025Z</time></trkpt><trkpt lat="45.40922" lon="10.5400254"><ele>133.0</ele><time>2026-04-20T03:19:29.021Z</time></trkpt><trkpt lat="45.4091556" lon="10.5399966"><ele>133.0</ele><time>2026-04-20T03:19:37.028Z</time></trkpt><trkpt lat="45.4090963" lon="10.539953"><ele>133.0</ele><time>2026-04-20T03:19:39.015Z</time></trkpt><trkpt lat="45.4090223" lon="10.5399115"><ele>133.0</ele><time>2026-04-20T03:19:41.015Z</time></trkpt><trkpt lat="45.4089471" lon="10.5398618"><ele>133.0</ele><time>2026-04-20T03:19:46.026Z</time></trkpt><trkpt lat="45.4090229" lon="10.53995"><ele>133.0</ele><time>2026-04-20T03:19:56.017Z</time></trkpt><trkpt lat="45.4091098" lon="10.5400031"><ele>133.0</ele><time>2026-04-20T03:19:59.024Z</time></trkpt><trkpt lat="45.4092248" lon="10.540085"><ele>133.0</ele><time>2026-04-20T03:20:01.02Z</time></trkpt><trkpt lat="45.4091661" lon="10.5400521"><ele>133.0</ele><time>2026-04-20T03:20:13.017Z</time></trkpt><trkpt lat="45.4091059" lon="10.5400155"><ele>133.0</ele><time>2026-04-20T03:20:22.793Z</time></trkpt><trkpt lat="45.4090633" lon="10.5399398"><ele>133.0</ele><time>2026-04-20T03:20:32.032Z</time></trkpt><trkpt lat="45.4091264" lon="10.5399603"><ele>133.0</ele><time>2026-04-20T03:20:53.017Z</time></trkpt><trkpt lat="45.4091834" lon="10.5400271"><ele>133.0</ele><time>2026-04-20T03:21:23.022Z</time></trkpt><trkpt lat="45.4091242" lon="10.5399711"><ele>133.0</ele><time>2026-04-20T03:21:33.015Z</time></trkpt><trkpt lat="45.4090635" lon="10.539921"><ele>133.0</ele><time>2026-04-20T03:21:45.027Z</time></trkpt><trkpt lat="45.4089782" lon="10.5399321"><ele>133.0</ele><time>2026-04-20T03:22:45.027Z</time></trkpt><trkpt lat="45.4090396" lon="10.5399618"><ele>133.0</ele><time>2026-04-20T03:23:08.008Z</time></trkpt><trkpt lat="45.4091058" lon="10.540001"><ele>133.0</ele><time>2026-04-20T03:23:10.017Z</time></trkpt><trkpt lat="45.4090144" lon="10.5398994"><ele>133.0</ele><time>2026-04-20T03:23:25.027Z</time></trkpt><trkpt lat="45.4089178" lon="10.5398436"><ele>133.0</ele><time>2026-04-20T03:23:31.015Z</time></trkpt><trkpt lat="45.4089812" lon="10.5398852"><ele>133.0</ele><time>2026-04-20T03:23:38.015Z</time></trkpt><trkpt lat="45.409045" lon="10.5399218"><ele>133.0</ele><time>2026-04-20T03:23:39.018Z</time></trkpt><trkpt lat="45.4089717" lon="10.5398575"><ele>133.0</ele><time>2026-04-20T03:23:59.026Z</time></trkpt><trkpt lat="45.4090662" lon="10.5398706"><ele>133.0</ele><time>2026-04-20T03:24:04.017Z</time></trkpt><trkpt lat="45.4091422" lon="10.5399272"><ele>133.0</ele><time>2026-04-20T03:24:07.025Z</time></trkpt><trkpt lat="45.4092146" lon="10.5399836"><ele>133.0</ele><time>2026-04-20T03:24:13.025Z</time></trkpt><trkpt lat="45.4091561" lon="10.5399477"><ele>133.0</ele><time>2026-04-20T03:24:49.026Z</time></trkpt><trkpt lat="45.4090819" lon="10.5398843"><ele>133.0</ele><time>2026-04-20T03:24:56.031Z</time></trkpt><trkpt lat="45.4090872" lon="10.5399907"><ele>133.0</ele><time>2026-04-20T03:25:26.029Z</time></trkpt><trkpt lat="45.4091319" lon="10.5400596"><ele>133.0</ele><time>2026-04-20T03:25:34.021Z</time></trkpt><trkpt lat="45.4090719" lon="10.540012"><ele>133.0</ele><time>2026-04-20T03:25:56.031Z</time></trkpt><trkpt lat="45.4090145" lon="10.5399461"><ele>133.0</ele><time>2026-04-20T03:26:01.02Z</time></trkpt><trkpt lat="45.4089512" lon="10.5399923"><ele>133.0</ele><time>2026-04-20T03:27:07.017Z</time></trkpt><trkpt lat="45.4089056" lon="10.5398984"><ele>133.0</ele><time>2026-04-20T03:27:17.027Z</time></trkpt><trkpt lat="45.4089648" lon="10.5399364"><ele>133.0</ele><time>2026-04-20T03:27:43.021Z</time></trkpt><trkpt lat="45.4089045" lon="10.5398973"><ele>133.0</ele><time>2026-04-20T03:29:19.025Z</time></trkpt><trkpt lat="45.4089951" lon="10.5399207"><ele>133.0</ele><time>2026-04-20T03:30:01.016Z</time></trkpt><trkpt lat="45.4090808" lon="10.5399413"><ele>133.0</ele><time>2026-04-20T03:30:11.022Z</time></trkpt><trkpt lat="45.4091447" lon="10.5399668"><ele>133.0</ele><time>2026-04-20T03:30:20.016Z</time></trkpt><trkpt lat="45.4090412" lon="10.5399387"><ele>133.0</ele><time>2026-04-20T03:30:23.027Z</time></trkpt><trkpt lat="45.4089709" lon="10.5399454"><ele>133.0</ele><time>2026-04-20T03:30:27.03Z</time></trkpt><trkpt lat="45.4089311" lon="10.5400198"><ele>133.0</ele><time>2026-04-20T03:31:06.012Z</time></trkpt><trkpt lat="45.408864" lon="10.5400211"><ele>133.0</ele><time>2026-04-20T03:31:30.022Z</time></trkpt><trkpt lat="45.4089262" lon="10.5399482"><ele>133.0</ele><time>2026-04-20T03:31:53.022Z</time></trkpt><trkpt lat="45.4090162" lon="10.5399505"><ele>133.0</ele><time>2026-04-20T03:32:13.032Z</time></trkpt><trkpt lat="45.40894" lon="10.5399473"><ele>133.0</ele><time>2026-04-20T03:32:21.03Z</time></trkpt><trkpt lat="45.4088834" lon="10.5398881"><ele>133.0</ele><time>2026-04-20T03:33:04.016Z</time></trkpt><trkpt lat="45.4088111" lon="10.5398995"><ele>133.0</ele><time>2026-04-20T03:33:11.016Z</time></trkpt><trkpt lat="45.4087833" lon="10.5399896"><ele>133.0</ele><time>2026-04-20T03:33:18.023Z</time></trkpt><trkpt lat="45.4088159" lon="10.540088"><ele>133.0</ele><time>2026-04-20T03:33:32.03Z</time></trkpt><trkpt lat="45.4088794" lon="10.5401024"><ele>133.0</ele><time>2026-04-20T03:33:46.021Z</time></trkpt><trkpt lat="45.4089463" lon="10.5400975"><ele>133.0</ele><time>2026-04-20T03:33:50.02Z</time></trkpt><trkpt lat="45.4088758" lon="10.5400828"><ele>133.0</ele><time>2026-04-20T03:33:59.022Z</time></trkpt><trkpt lat="45.4089376" lon="10.5400554"><ele>133.0</ele><time>2026-04-20T03:34:11.03Z</time></trkpt><trkpt lat="45.4089728" lon="10.5401309"><ele>133.0</ele><time>2026-04-20T03:34:20.015Z</time></trkpt><trkpt lat="45.4088988" lon="10.5401549"><ele>133.0</ele><time>2026-04-20T03:34:25.018Z</time></trkpt><trkpt lat="45.4089875" lon="10.5400812"><ele>133.0</ele><time>2026-04-20T03:34:58.017Z</time></trkpt><trkpt lat="45.4089965" lon="10.5399834"><ele>133.0</ele><time>2026-04-20T03:35:46.018Z</time></trkpt><trkpt lat="45.4089314" lon="10.5400175"><ele>133.0</ele><time>2026-04-20T03:36:31.021Z</time></trkpt><trkpt lat="45.408997" lon="10.5399465"><ele>133.0</ele><time>2026-04-20T03:37:00.017Z</time></trkpt><trkpt lat="45.409067" lon="10.5400117"><ele>133.0</ele><time>2026-04-20T03:38:40.04Z</time></trkpt><trkpt lat="45.4090038" lon="10.5400356"><ele>133.0</ele><time>2026-04-20T03:38:55.018Z</time></trkpt><trkpt lat="45.4090098" lon="10.5401322"><ele>133.0</ele><time>2026-04-20T03:39:01.021Z</time></trkpt><trkpt lat="45.4089441" lon="10.5401351"><ele>133.0</ele><time>2026-04-20T03:39:15.022Z</time></trkpt><trkpt lat="45.4088947" lon="10.5400705"><ele>133.0</ele><time>2026-04-20T03:39:24.025Z</time></trkpt><trkpt lat="45.4089283" lon="10.5399898"><ele>133.0</ele><time>2026-04-20T03:39:29.026Z</time></trkpt><trkpt lat="45.4088685" lon="10.5400638"><ele>133.0</ele><time>2026-04-20T03:39:50.013Z</time></trkpt><trkpt lat="45.4088051" lon="10.5400778"><ele>133.0</ele><time>2026-04-20T03:39:59.018Z</time></trkpt><trkpt lat="45.4088998" lon="10.5400552"><ele>133.0</ele><time>2026-04-20T03:40:14.018Z</time></trkpt><trkpt lat="45.4089638" lon="10.5400037"><ele>133.0</ele><time>2026-04-20T03:40:22.014Z</time></trkpt><trkpt lat="45.4090497" lon="10.5400213"><ele>133.0</ele><time>2026-04-20T03:40:52.04Z</time></trkpt><trkpt lat="45.4089684" lon="10.5400796"><ele>133.0</ele><time>2026-04-20T03:41:03.014Z</time></trkpt><trkpt lat="45.4089117" lon="10.5401285"><ele>133.0</ele><time>2026-04-20T03:41:13.018Z</time></trkpt><trkpt lat="45.408854" lon="10.5401896"><ele>133.0</ele><time>2026-04-20T03:41:27.018Z</time></trkpt><trkpt lat="45.4087271" lon="10.5402601"><ele>133.0</ele><time>2026-04-20T03:42:02.021Z</time></trkpt><trkpt lat="45.4086514" lon="10.5402837"><ele>133.0</ele><time>2026-04-20T03:42:04.027Z</time></trkpt><trkpt lat="45.4088148" lon="10.5402556"><ele>133.0</ele><time>2026-04-20T03:42:13.015Z</time></trkpt><trkpt lat="45.4088915" lon="10.540193"><ele>133.0</ele><time>2026-04-20T03:42:16.027Z</time></trkpt><trkpt lat="45.4089984" lon="10.5401287"><ele>133.0</ele><time>2026-04-20T03:42:18.029Z</time></trkpt><trkpt lat="45.4091115" lon="10.5400555"><ele>133.0</ele><time>2026-04-20T03:42:29.018Z</time></trkpt><trkpt lat="45.409177" lon="10.540011"><ele>133.0</ele><time>2026-04-20T03:42:34.026Z</time></trkpt><trkpt lat="45.4092527" lon="10.539968"><ele>133.0</ele><time>2026-04-20T03:42:35.017Z</time></trkpt><trkpt lat="45.4093389" lon="10.5399123"><ele>133.0</ele><time>2026-04-20T03:42:50.032Z</time></trkpt><trkpt lat="45.4094044" lon="10.5398771"><ele>133.0</ele><time>2026-04-20T03:42:56.028Z</time></trkpt><trkpt lat="45.4094741" lon="10.5398393"><ele>133.0</ele><time>2026-04-20T03:43:01.016Z</time></trkpt><trkpt lat="45.4094001" lon="10.5398171"><ele>133.0</ele><time>2026-04-20T03:43:23.021Z</time></trkpt><trkpt lat="45.4093416" lon="10.5398647"><ele>133.0</ele><time>2026-04-20T03:43:25.02Z</time></trkpt><trkpt lat="45.4092801" lon="10.5399049"><ele>133.0</ele><time>2026-04-20T03:43:36.026Z</time></trkpt><trkpt lat="45.4092402" lon="10.5400202"><ele>133.0</ele><time>2026-04-20T03:44:17.026Z</time></trkpt><trkpt lat="45.409156" lon="10.5400239"><ele>133.0</ele><time>2026-04-20T03:44:44.02Z</time></trkpt><trkpt lat="45.40922" lon="10.5399363"><ele>133.0</ele><time>2026-04-20T03:45:17.03Z</time></trkpt><trkpt lat="45.4091358" lon="10.5399197"><ele>133.0</ele><time>2026-04-20T03:45:22.026Z</time></trkpt><trkpt lat="45.4090679" lon="10.5399102"><ele>133.0</ele><time>2026-04-20T03:45:23.028Z</time></trkpt><trkpt lat="45.4089973" lon="10.5399174"><ele>133.0</ele><time>2026-04-20T03:45:34.016Z</time></trkpt><trkpt lat="45.4089297" lon="10.5400309"><ele>133.0</ele><time>2026-04-20T03:45:44.016Z</time></trkpt><trkpt lat="45.4090228" lon="10.540005"><ele>133.0</ele><time>2026-04-20T03:46:15.009Z</time></trkpt><trkpt lat="45.4091044" lon="10.5399913"><ele>133.0</ele><time>2026-04-20T03:46:16.017Z</time></trkpt><trkpt lat="45.4091854" lon="10.539986"><ele>133.0</ele><time>2026-04-20T03:46:17.021Z</time></trkpt><trkpt lat="45.4092415" lon="10.5399361"><ele>133.0</ele><time>2026-04-20T03:46:23.018Z</time></trkpt><trkpt lat="45.4092963" lon="10.539879"><ele>133.0</ele><time>2026-04-20T03:46:29.019Z</time></trkpt><trkpt lat="45.4092397" lon="10.5399209"><ele>133.0</ele><time>2026-04-20T03:46:54.021Z</time></trkpt><trkpt lat="45.4091775" lon="10.5399592"><ele>133.0</ele><time>2026-04-20T03:46:57.017Z</time></trkpt><trkpt lat="45.4091068" lon="10.5400014"><ele>133.0</ele><time>2026-04-20T03:47:05.015Z</time></trkpt><trkpt lat="45.4091574" lon="10.5399092"><ele>133.0</ele><time>2026-04-20T03:47:30.02Z</time></trkpt><trkpt lat="45.4090849" lon="10.5399171"><ele>133.0</ele><time>2026-04-20T03:47:45.018Z</time></trkpt><trkpt lat="45.4090103" lon="10.5399016"><ele>133.0</ele><time>2026-04-20T03:48:00.022Z</time></trkpt><trkpt lat="45.4088764" lon="10.5399024"><ele>133.0</ele><time>2026-04-20T03:48:02.019Z</time></trkpt><trkpt lat="45.4088893" lon="10.540029"><ele>133.0</ele><time>2026-04-20T03:48:27.023Z</time></trkpt><trkpt lat="45.4089625" lon="10.5400097"><ele>133.0</ele><time>2026-04-20T03:48:35.017Z</time></trkpt><trkpt lat="45.409055" lon="10.5399957"><ele>133.0</ele><time>2026-04-20T03:48:47.028Z</time></trkpt><trkpt lat="45.4089876" lon="10.5400454"><ele>133.0</ele><time>2026-04-20T03:49:13.021Z</time></trkpt><trkpt lat="45.4089977" lon="10.5399514"><ele>133.0</ele><time>2026-04-20T03:49:38.018Z</time></trkpt><trkpt lat="45.4090786" lon="10.5399077"><ele>133.0</ele><time>2026-04-20T03:49:41.014Z</time></trkpt><trkpt lat="45.4091589" lon="10.539901"><ele>133.0</ele><time>2026-04-20T03:49:43.023Z</time></trkpt><trkpt lat="45.409249" lon="10.5399028"><ele>133.0</ele><time>2026-04-20T03:49:49.017Z</time></trkpt><trkpt lat="45.4091761" lon="10.5399088"><ele>133.0</ele><time>2026-04-20T03:49:59.026Z</time></trkpt><trkpt lat="45.4091064" lon="10.5399084"><ele>133.0</ele><time>2026-04-20T03:51:30.016Z</time></trkpt><trkpt lat="45.4091741" lon="10.5398827"><ele>133.0</ele><time>2026-04-20T03:51:38.009Z</time></trkpt><trkpt lat="45.4091321" lon="10.5398149"><ele>133.0</ele><time>2026-04-20T03:52:01.02Z</time></trkpt><trkpt lat="45.4090695" lon="10.5397987"><ele>133.0</ele><time>2026-04-20T03:52:06.016Z</time></trkpt><trkpt lat="45.4089992" lon="10.5397952"><ele>133.0</ele><time>2026-04-20T03:52:11.026Z</time></trkpt><trkpt lat="45.4089198" lon="10.539773"><ele>133.0</ele><time>2026-04-20T03:52:17.021Z</time></trkpt><trkpt lat="45.408985" lon="10.5397755"><ele>133.0</ele><time>2026-04-20T03:52:49.01Z</time></trkpt><trkpt lat="45.4088734" lon="10.5397376"><ele>133.0</ele><time>2026-04-20T03:53:08.019Z</time></trkpt><trkpt lat="45.4089419" lon="10.5398096"><ele>133.0</ele><time>2026-04-20T03:54:26.014Z</time></trkpt><trkpt lat="45.4088778" lon="10.5397941"><ele>133.0</ele><time>2026-04-20T03:55:16.021Z</time></trkpt><trkpt lat="45.4089392" lon="10.5398659"><ele>133.0</ele><time>2026-04-20T03:55:28.021Z</time></trkpt><trkpt lat="45.409026" lon="10.5398806"><ele>133.0</ele><time>2026-04-20T03:55:30.012Z</time></trkpt><trkpt lat="45.4091138" lon="10.5398783"><ele>133.0</ele><time>2026-04-20T03:55:37.017Z</time></trkpt><trkpt lat="45.4092254" lon="10.5398636"><ele>133.0</ele><time>2026-04-20T03:55:39.017Z</time></trkpt><trkpt lat="45.4093233" lon="10.5398515"><ele>133.0</ele><time>2026-04-20T03:55:41.022Z</time></trkpt><trkpt lat="45.4093941" lon="10.5399247"><ele>133.0</ele><time>2026-04-20T03:56:00.032Z</time></trkpt><trkpt lat="45.4094667" lon="10.5399399"><ele>133.0</ele><time>2026-04-20T03:56:03.01Z</time></trkpt><trkpt lat="45.409536" lon="10.5399694"><ele>133.0</ele><time>2026-04-20T03:56:06.026Z</time></trkpt><trkpt lat="45.409447" lon="10.5399689"><ele>133.0</ele><time>2026-04-20T03:56:18.015Z</time></trkpt><trkpt lat="45.4093814" lon="10.5399504"><ele>133.0</ele><time>2026-04-20T03:56:20.017Z</time></trkpt><trkpt lat="45.4094147" lon="10.5398693"><ele>133.0</ele><time>2026-04-20T03:56:39.026Z</time></trkpt><trkpt lat="45.4093416" lon="10.5398789"><ele>133.0</ele><time>2026-04-20T03:56:47.02Z</time></trkpt><trkpt lat="45.4094223" lon="10.5398513"><ele>133.0</ele><time>2026-04-20T03:57:01.018Z</time></trkpt><trkpt lat="45.4095128" lon="10.5398166"><ele>133.0</ele><time>2026-04-20T03:57:03.037Z</time></trkpt><trkpt lat="45.4095731" lon="10.5397585"><ele>133.0</ele><time>2026-04-20T03:57:08.016Z</time></trkpt><trkpt lat="45.4094885" lon="10.5397656"><ele>133.0</ele><time>2026-04-20T03:57:14.02Z</time></trkpt><trkpt lat="45.4094131" lon="10.5397889"><ele>133.0</ele><time>2026-04-20T03:57:17.017Z</time></trkpt><trkpt lat="45.4094642" lon="10.5398549"><ele>133.0</ele><time>2026-04-20T03:57:29.025Z</time></trkpt><trkpt lat="45.4093978" lon="10.5399165"><ele>133.0</ele><time>2026-04-20T03:57:45.02Z</time></trkpt><trkpt lat="45.4093183" lon="10.5399354"><ele>133.0</ele><time>2026-04-20T03:57:49.016Z</time></trkpt><trkpt lat="45.4092487" lon="10.5399513"><ele>133.0</ele><time>2026-04-20T03:57:59.026Z</time></trkpt><trkpt lat="45.4091375" lon="10.5399459"><ele>133.0</ele><time>2026-04-20T03:58:19.019Z</time></trkpt><trkpt lat="45.4090713" lon="10.5399879"><ele>133.0</ele><time>2026-04-20T03:58:22.015Z</time></trkpt><trkpt lat="45.4089973" lon="10.5400339"><ele>133.0</ele><time>2026-04-20T03:58:26.021Z</time></trkpt><trkpt lat="45.4090637" lon="10.5399971"><ele>133.0</ele><time>2026-04-20T03:58:42.024Z</time></trkpt><trkpt lat="45.4091716" lon="10.5399873"><ele>133.0</ele><time>2026-04-20T03:59:09.02Z</time></trkpt><trkpt lat="45.4092195" lon="10.540087"><ele>133.0</ele><time>2026-04-20T03:59:21.022Z</time></trkpt><trkpt lat="45.4091004" lon="10.5400745"><ele>133.0</ele><time>2026-04-20T03:59:31.019Z</time></trkpt><trkpt lat="45.4091589" lon="10.5400353"><ele>133.0</ele><time>2026-04-20T03:59:44.014Z</time></trkpt><trkpt lat="45.4091073" lon="10.5399732"><ele>133.0</ele><time>2026-04-20T03:59:54.018Z</time></trkpt><trkpt lat="45.409056" lon="10.5399126"><ele>133.0</ele><time>2026-04-20T04:00:11.035Z</time></trkpt><trkpt lat="45.408952" lon="10.5398778"><ele>133.0</ele><time>2026-04-20T04:00:16.013Z</time></trkpt><trkpt lat="45.4088593" lon="10.5398604"><ele>133.0</ele><time>2026-04-20T04:00:18.022Z</time></trkpt><trkpt lat="45.4089312" lon="10.539879"><ele>133.0</ele><time>2026-04-20T04:01:33.025Z</time></trkpt><trkpt lat="45.4089943" lon="10.5398917"><ele>133.0</ele><time>2026-04-20T04:01:38.013Z</time></trkpt><trkpt lat="45.4089265" lon="10.5398898"><ele>133.0</ele><time>2026-04-20T04:02:50.017Z</time></trkpt><trkpt lat="45.4089942" lon="10.5398076"><ele>133.0</ele><time>2026-04-20T04:03:20.021Z</time></trkpt><trkpt lat="45.4089202" lon="10.5398469"><ele>133.0</ele><time>2026-04-20T04:05:57.016Z</time></trkpt><trkpt lat="45.4088544" lon="10.5398422"><ele>133.0</ele><time>2026-04-20T04:07:39.023Z</time></trkpt><trkpt lat="45.4089214" lon="10.5398187"><ele>133.0</ele><time>2026-04-20T04:08:14.016Z</time></trkpt><trkpt lat="45.4088583" lon="10.5398331"><ele>133.0</ele><time>2026-04-20T04:08:51.019Z</time></trkpt><trkpt lat="45.4087962" lon="10.5398541"><ele>133.0</ele><time>2026-04-20T04:08:58.023Z</time></trkpt><trkpt lat="45.4089413" lon="10.5398409"><ele>133.0</ele><time>2026-04-20T04:11:23.013Z</time></trkpt><trkpt lat="45.4090077" lon="10.5398625"><ele>133.0</ele><time>2026-04-20T04:11:34.02Z</time></trkpt><trkpt lat="45.4089444" lon="10.5398239"><ele>133.0</ele><time>2026-04-20T04:12:02.016Z</time></trkpt><trkpt lat="45.4090489" lon="10.5398182"><ele>133.0</ele><time>2026-04-20T04:12:54.022Z</time></trkpt><trkpt lat="45.4089738" lon="10.5398362"><ele>133.0</ele><time>2026-04-20T04:12:57.018Z</time></trkpt><trkpt lat="45.4088802" lon="10.5398713"><ele>133.0</ele><time>2026-04-20T04:12:59.014Z</time></trkpt><trkpt lat="45.4089566" lon="10.5398743"><ele>133.0</ele><time>2026-04-20T04:13:17.017Z</time></trkpt><trkpt lat="45.4089997" lon="10.539981"><ele>133.0</ele><time>2026-04-20T04:13:33.017Z</time></trkpt><trkpt lat="45.4089656" lon="10.5398685"><ele>133.0</ele><time>2026-04-20T04:13:58.015Z</time></trkpt><trkpt lat="45.4090249" lon="10.5399069"><ele>133.0</ele><time>2026-04-20T04:16:54.015Z</time></trkpt><trkpt lat="45.4089299" lon="10.5398933"><ele>133.0</ele><time>2026-04-20T04:17:15.023Z</time></trkpt><trkpt lat="45.408854" lon="10.5398698"><ele>133.0</ele><time>2026-04-20T04:17:18.023Z</time></trkpt><trkpt lat="45.4089053" lon="10.5398015"><ele>133.0</ele><time>2026-04-20T04:18:32.015Z</time></trkpt><trkpt lat="45.4089576" lon="10.5398782"><ele>133.0</ele><time>2026-04-20T04:19:12.014Z</time></trkpt><trkpt lat="45.4088868" lon="10.539885"><ele>133.0</ele><time>2026-04-20T04:19:54.013Z</time></trkpt><trkpt lat="45.4089296" lon="10.5398146"><ele>133.0</ele><time>2026-04-20T04:20:31.018Z</time></trkpt><trkpt lat="45.4088794" lon="10.5398874"><ele>133.0</ele><time>2026-04-20T04:21:07.013Z</time></trkpt><trkpt lat="45.4089038" lon="10.5398013"><ele>133.0</ele><time>2026-04-20T04:21:56.016Z</time></trkpt><trkpt lat="45.4089661" lon="10.5397321"><ele>133.0</ele><time>2026-04-20T04:22:01.019Z</time></trkpt><trkpt lat="45.4090405" lon="10.5397023"><ele>133.0</ele><time>2026-04-20T04:22:07.021Z</time></trkpt><trkpt lat="45.4089852" lon="10.5398105"><ele>133.0</ele><time>2026-04-20T04:22:54.014Z</time></trkpt><trkpt lat="45.4089173" lon="10.5398799"><ele>133.0</ele><time>2026-04-20T04:22:58.019Z</time></trkpt><trkpt lat="45.4088544" lon="10.5399321"><ele>133.0</ele><time>2026-04-20T04:25:17.022Z</time></trkpt><trkpt lat="45.4087946" lon="10.5399824"><ele>133.0</ele><time>2026-04-20T04:25:26.022Z</time></trkpt><trkpt lat="45.408879" lon="10.5399767"><ele>133.0</ele><time>2026-04-20T04:25:37.014Z</time></trkpt><trkpt lat="45.4089396" lon="10.5399178"><ele>133.0</ele><time>2026-04-20T04:25:54.012Z</time></trkpt><trkpt lat="45.4089857" lon="10.539852"><ele>133.0</ele><time>2026-04-20T04:26:09.014Z</time></trkpt><trkpt lat="45.4089791" lon="10.5397555"><ele>133.0</ele><time>2026-04-20T04:27:09.019Z</time></trkpt><trkpt lat="45.4090539" lon="10.5397987"><ele>133.0</ele><time>2026-04-20T04:29:43.02Z</time></trkpt><trkpt lat="45.4089935" lon="10.5398513"><ele>133.0</ele><time>2026-04-20T04:29:57.013Z</time></trkpt><trkpt lat="45.4088959" lon="10.5398609"><ele>133.0</ele><time>2026-04-20T04:30:27.022Z</time></trkpt><trkpt lat="45.4088035" lon="10.5398123"><ele>133.0</ele><time>2026-04-20T04:30:37.014Z</time></trkpt><trkpt lat="45.4088683" lon="10.539828"><ele>133.0</ele><time>2026-04-20T04:30:47.012Z</time></trkpt><trkpt lat="45.4089756" lon="10.5398247"><ele>133.0</ele><time>2026-04-20T04:31:21.009Z</time></trkpt><trkpt lat="45.4089124" lon="10.5398384"><ele>131.20000000000002</ele><time>2026-04-20T04:31:43.013Z</time></trkpt><trkpt lat="45.4088214" lon="10.5398051"><ele>129.4</ele><time>2026-04-20T04:32:48.015Z</time></trkpt><trkpt lat="45.4086982" lon="10.5397941"><ele>127.60000000000001</ele><time>2026-04-20T04:32:55.014Z</time></trkpt><trkpt lat="45.4086308" lon="10.5398178"><ele>125.80000000000001</ele><time>2026-04-20T04:33:02.024Z</time></trkpt><trkpt lat="45.4085668" lon="10.5398288"><ele>124.0</ele><time>2026-04-20T04:33:08.02Z</time></trkpt><trkpt lat="45.4086511" lon="10.539904"><ele>124.00000000000001</ele><time>2026-04-20T04:33:27.014Z</time></trkpt><trkpt lat="45.4087304" lon="10.5399159"><ele>124.0</ele><time>2026-04-20T04:33:29.014Z</time></trkpt><trkpt lat="45.4088109" lon="10.5399288"><ele>124.0</ele><time>2026-04-20T04:33:33.02Z</time></trkpt><trkpt lat="45.4088721" lon="10.5398746"><ele>124.0</ele><time>2026-04-20T04:33:58.013Z</time></trkpt><trkpt lat="45.4089719" lon="10.5398736"><ele>124.00000000000001</ele><time>2026-04-20T04:34:09.013Z</time></trkpt><trkpt lat="45.4089395" lon="10.5399589"><ele>124.0</ele><time>2026-04-20T04:34:32.015Z</time></trkpt><trkpt lat="45.409" lon="10.53993"><ele>125.28571428571429</ele><time>2026-04-20T04:35:41.022Z</time></trkpt><trkpt lat="45.4089969" lon="10.539814"><ele>126.57142857142858</ele><time>2026-04-20T04:36:12.015Z</time></trkpt><trkpt lat="45.4089302" lon="10.53982"><ele>127.85714285714286</ele><time>2026-04-20T04:36:21.012Z</time></trkpt><trkpt lat="45.408913" lon="10.5399069"><ele>129.14285714285714</ele><time>2026-04-20T04:37:06.019Z</time></trkpt><trkpt lat="45.408976" lon="10.5399085"><ele>130.42857142857144</ele><time>2026-04-20T04:37:22.018Z</time></trkpt><trkpt lat="45.4089845" lon="10.5398131"><ele>131.71428571428572</ele><time>2026-04-20T04:37:58.006Z</time></trkpt><trkpt lat="45.4090553" lon="10.5398688"><ele>133.0</ele><time>2026-04-20T04:40:14.013Z</time></trkpt><trkpt lat="45.4089912" lon="10.5398329"><ele>133.0</ele><time>2026-04-20T04:40:30.016Z</time></trkpt><trkpt lat="45.4090428" lon="10.5399055"><ele>133.0</ele><time>2026-04-20T04:41:57.021Z</time></trkpt><trkpt lat="45.4089738" lon="10.5398833"><ele>133.0</ele><time>2026-04-20T04:42:00.013Z</time></trkpt><trkpt lat="45.4089043" lon="10.5398999"><ele>133.0</ele><time>2026-04-20T04:42:11.016Z</time></trkpt><trkpt lat="45.4088197" lon="10.5398506"><ele>133.0</ele><time>2026-04-20T04:42:24.003Z</time></trkpt><trkpt lat="45.4088997" lon="10.5398453"><ele>133.0</ele><time>2026-04-20T04:42:31.019Z</time></trkpt><trkpt lat="45.4089717" lon="10.53978"><ele>133.0</ele><time>2026-04-20T04:43:07.013Z</time></trkpt><trkpt lat="45.4089102" lon="10.5398623"><ele>133.0</ele><time>2026-04-20T04:45:55.022Z</time></trkpt><trkpt lat="45.4090305" lon="10.5398783"><ele>133.0</ele><time>2026-04-20T04:46:16.016Z</time></trkpt><trkpt lat="45.408967" lon="10.5398951"><ele>133.0</ele><time>2026-04-20T04:46:19.02Z</time></trkpt><trkpt lat="45.4089104" lon="10.5398386"><ele>133.0</ele><time>2026-04-20T04:46:43.018Z</time></trkpt><trkpt lat="45.4088203" lon="10.5398481"><ele>133.0</ele><time>2026-04-20T04:47:05.02Z</time></trkpt><trkpt lat="45.4088861" lon="10.5398761"><ele>133.0</ele><time>2026-04-20T04:47:28.016Z</time></trkpt><trkpt lat="45.4089511" lon="10.539877"><ele>133.0</ele><time>2026-04-20T04:48:22.011Z</time></trkpt><trkpt lat="45.4090376" lon="10.5398827"><ele>133.0</ele><time>2026-04-20T04:48:39.015Z</time></trkpt><trkpt lat="45.4091114" lon="10.5399068"><ele>133.0</ele><time>2026-04-20T04:48:43.02Z</time></trkpt><trkpt lat="45.4090929" lon="10.5398198"><ele>133.0</ele><time>2026-04-20T04:48:56.015Z</time></trkpt><trkpt lat="45.4090355" lon="10.5398588"><ele>133.0</ele><time>2026-04-20T04:49:30.02Z</time></trkpt><trkpt lat="45.4089593" lon="10.5398666"><ele>133.0</ele><time>2026-04-20T04:49:46.017Z</time></trkpt><trkpt lat="45.4090206" lon="10.5398214"><ele>133.0</ele><time>2026-04-20T04:50:03.021Z</time></trkpt><trkpt lat="45.4090916" lon="10.5398041"><ele>133.0</ele><time>2026-04-20T04:50:09.012Z</time></trkpt><trkpt lat="45.4090463" lon="10.5398767"><ele>133.0</ele><time>2026-04-20T04:50:24.014Z</time></trkpt><trkpt lat="45.4089683" lon="10.5398783"><ele>133.0</ele><time>2026-04-20T04:50:28.019Z</time></trkpt><trkpt lat="45.4089034" lon="10.539882"><ele>133.0</ele><time>2026-04-20T04:50:31.02Z</time></trkpt><trkpt lat="45.4089242" lon="10.5397872"><ele>133.0</ele><time>2026-04-20T04:51:02.02Z</time></trkpt><trkpt lat="45.4088682" lon="10.5398331"><ele>133.0</ele><time>2026-04-20T04:51:29.014Z</time></trkpt><trkpt lat="45.4088066" lon="10.5398823"><ele>133.0</ele><time>2026-04-20T04:51:35.019Z</time></trkpt><trkpt lat="45.4089075" lon="10.5398796"><ele>133.0</ele><time>2026-04-20T04:51:47.013Z</time></trkpt><trkpt lat="45.4089918" lon="10.5398647"><ele>133.0</ele><time>2026-04-20T04:51:50.024Z</time></trkpt><trkpt lat="45.4089307" lon="10.5398888"><ele>133.0</ele><time>2026-04-20T04:52:04.014Z</time></trkpt><trkpt lat="45.4089993" lon="10.5398975"><ele>133.0</ele><time>2026-04-20T04:52:15.017Z</time></trkpt><trkpt lat="45.4089329" lon="10.539857"><ele>133.0</ele><time>2026-04-20T04:52:55.02Z</time></trkpt><trkpt lat="45.4089877" lon="10.5398028"><ele>133.0</ele><time>2026-04-20T04:55:30.017Z</time></trkpt><trkpt lat="45.4090546" lon="10.5397766"><ele>133.0</ele><time>2026-04-20T04:55:38.024Z</time></trkpt><trkpt lat="45.408943" lon="10.5398282"><ele>133.0</ele><time>2026-04-20T04:55:51.012Z</time></trkpt><trkpt lat="45.4088659" lon="10.5398575"><ele>133.0</ele><time>2026-04-20T04:55:53.013Z</time></trkpt><trkpt lat="45.4089393" lon="10.5398785"><ele>133.0</ele><time>2026-04-20T04:56:27.015Z</time></trkpt><trkpt lat="45.4090123" lon="10.5398564"><ele>133.0</ele><time>2026-04-20T04:57:30.021Z</time></trkpt><trkpt lat="45.4089496" lon="10.5398355"><ele>133.0</ele><time>2026-04-20T04:57:52.012Z</time></trkpt><trkpt lat="45.4088959" lon="10.5398911"><ele>133.0</ele><time>2026-04-20T04:58:50.015Z</time></trkpt><trkpt lat="45.4088311" lon="10.5399073"><ele>133.0</ele><time>2026-04-20T04:59:05.016Z</time></trkpt><trkpt lat="45.408859" lon="10.5398042"><ele>133.0</ele><time>2026-04-20T05:00:12.012Z</time></trkpt><trkpt lat="45.4089255" lon="10.5397629"><ele>133.0</ele><time>2026-04-20T05:00:19.011Z</time></trkpt><trkpt lat="45.4089853" lon="10.5396929"><ele>133.0</ele><time>2026-04-20T05:00:39.009Z</time></trkpt><trkpt lat="45.4089119" lon="10.5396635"><ele>133.0</ele><time>2026-04-20T05:00:52.012Z</time></trkpt><trkpt lat="45.4090132" lon="10.5396437"><ele>133.0</ele><time>2026-04-20T05:01:32.012Z</time></trkpt><trkpt lat="45.4089507" lon="10.5396923"><ele>133.0</ele><time>2026-04-20T05:01:46.016Z</time></trkpt><trkpt lat="45.408889" lon="10.5397353"><ele>133.0</ele><time>2026-04-20T05:02:02.02Z</time></trkpt><trkpt lat="45.4088263" lon="10.5397503"><ele>133.0</ele><time>2026-04-20T05:02:09.02Z</time></trkpt><trkpt lat="45.4087819" lon="10.5396795"><ele>133.0</ele><time>2026-04-20T05:02:14.009Z</time></trkpt><trkpt lat="45.4088487" lon="10.5396713"><ele>133.0</ele><time>2026-04-20T05:02:21.011Z</time></trkpt><trkpt lat="45.4089277" lon="10.5396612"><ele>133.0</ele><time>2026-04-20T05:02:34.017Z</time></trkpt><trkpt lat="45.4090212" lon="10.5395943"><ele>133.0</ele><time>2026-04-20T05:02:44.005Z</time></trkpt><trkpt lat="45.4090269" lon="10.5396883"><ele>133.0</ele><time>2026-04-20T05:03:07.015Z</time></trkpt><trkpt lat="45.4091006" lon="10.5397083"><ele>133.0</ele><time>2026-04-20T05:03:15.02Z</time></trkpt><trkpt lat="45.4090016" lon="10.5397057"><ele>133.0</ele><time>2026-04-20T05:03:23.021Z</time></trkpt><trkpt lat="45.408908" lon="10.5396989"><ele>133.0</ele><time>2026-04-20T05:03:25.013Z</time></trkpt><trkpt lat="45.4090774" lon="10.5397577"><ele>133.0</ele><time>2026-04-20T05:04:09.014Z</time></trkpt><trkpt lat="45.4091446" lon="10.5397428"><ele>133.0</ele><time>2026-04-20T05:04:10.018Z</time></trkpt><trkpt lat="45.4092101" lon="10.5397386"><ele>133.0</ele><time>2026-04-20T05:04:12.02Z</time></trkpt><trkpt lat="45.4092955" lon="10.5397638"><ele>133.0</ele><time>2026-04-20T05:04:14.012Z</time></trkpt><trkpt lat="45.4092246" lon="10.5397805"><ele>133.0</ele><time>2026-04-20T05:04:20.02Z</time></trkpt><trkpt lat="45.4091211" lon="10.5397756"><ele>133.0</ele><time>2026-04-20T05:04:22.014Z</time></trkpt><trkpt lat="45.4090669" lon="10.5398385"><ele>133.0</ele><time>2026-04-20T05:04:30.011Z</time></trkpt><trkpt lat="45.4091393" lon="10.5397838"><ele>133.0</ele><time>2026-04-20T05:06:36.015Z</time></trkpt><trkpt lat="45.409076" lon="10.5398428"><ele>133.0</ele><time>2026-04-20T05:06:45.015Z</time></trkpt><trkpt lat="45.4090055" lon="10.5398898"><ele>133.0</ele><time>2026-04-20T05:07:10.02Z</time></trkpt><trkpt lat="45.4090642" lon="10.5398261"><ele>133.0</ele><time>2026-04-20T05:07:19.019Z</time></trkpt><trkpt lat="45.4091272" lon="10.5398208"><ele>133.0</ele><time>2026-04-20T05:07:24.011Z</time></trkpt><trkpt lat="45.4092192" lon="10.5398238"><ele>133.0</ele><time>2026-04-20T05:07:28.019Z</time></trkpt><trkpt lat="45.4092857" lon="10.539825"><ele>133.0</ele><time>2026-04-20T05:07:30.016Z</time></trkpt><trkpt lat="45.4092047" lon="10.5398606"><ele>133.0</ele><time>2026-04-20T05:07:43.016Z</time></trkpt><trkpt lat="45.4091392" lon="10.5398548"><ele>133.0</ele><time>2026-04-20T05:07:49.012Z</time></trkpt><trkpt lat="45.4090459" lon="10.5398632"><ele>133.0</ele><time>2026-04-20T05:07:55.013Z</time></trkpt><trkpt lat="45.408947" lon="10.5399219"><ele>133.0</ele><time>2026-04-20T05:08:29.012Z</time></trkpt><trkpt lat="45.408886" lon="10.5398938"><ele>133.0</ele><time>2026-04-20T05:09:30.015Z</time></trkpt><trkpt lat="45.4090023" lon="10.5398596"><ele>133.0</ele><time>2026-04-20T05:10:07.014Z</time></trkpt><trkpt lat="45.4091259" lon="10.539829"><ele>133.0</ele><time>2026-04-20T05:10:12.018Z</time></trkpt><trkpt lat="45.4091916" lon="10.5398744"><ele>133.0</ele><time>2026-04-20T05:10:39.015Z</time></trkpt><trkpt lat="45.4092565" lon="10.5398518"><ele>133.0</ele><time>2026-04-20T05:10:42.017Z</time></trkpt><trkpt lat="45.4091838" lon="10.5398312"><ele>133.0</ele><time>2026-04-20T05:10:52.014Z</time></trkpt><trkpt lat="45.4091075" lon="10.5398371"><ele>133.0</ele><time>2026-04-20T05:10:57.019Z</time></trkpt><trkpt lat="45.409027" lon="10.5398634"><ele>133.0</ele><time>2026-04-20T05:11:00.02Z</time></trkpt><trkpt lat="45.4089606" lon="10.5398625"><ele>133.0</ele><time>2026-04-20T05:11:03.012Z</time></trkpt><trkpt lat="45.4089007" lon="10.5399014"><ele>133.0</ele><time>2026-04-20T05:11:12.011Z</time></trkpt><trkpt lat="45.4088407" lon="10.5399411"><ele>133.0</ele><time>2026-04-20T05:11:17.027Z</time></trkpt><trkpt lat="45.4088107" lon="10.5398594"><ele>133.0</ele><time>2026-04-20T05:11:37.011Z</time></trkpt><trkpt lat="45.4088736" lon="10.5398532"><ele>133.0</ele><time>2026-04-20T05:13:03.009Z</time></trkpt><trkpt lat="45.4088047" lon="10.5398667"><ele>133.0</ele><time>2026-04-20T05:13:08.015Z</time></trkpt><trkpt lat="45.4088742" lon="10.5398619"><ele>133.0</ele><time>2026-04-20T05:14:27.01Z</time></trkpt><trkpt lat="45.408991" lon="10.5398244"><ele>133.0</ele><time>2026-04-20T05:14:53.014Z</time></trkpt><trkpt lat="45.409073" lon="10.5398125"><ele>133.0</ele><time>2026-04-20T05:15:00.01Z</time></trkpt><trkpt lat="45.4090061" lon="10.5398643"><ele>133.0</ele><time>2026-04-20T05:15:18.014Z</time></trkpt><trkpt lat="45.408886" lon="10.5399362"><ele>133.0</ele><time>2026-04-20T05:15:28.014Z</time></trkpt><trkpt lat="45.4089518" lon="10.5398575"><ele>133.0</ele><time>2026-04-20T05:16:09.021Z</time></trkpt><trkpt lat="45.4090317" lon="10.5398304"><ele>133.0</ele><time>2026-04-20T05:16:11.012Z</time></trkpt><trkpt lat="45.4091133" lon="10.5398426"><ele>133.0</ele><time>2026-04-20T05:16:21.013Z</time></trkpt><trkpt lat="45.4090422" lon="10.5398754"><ele>133.0</ele><time>2026-04-20T05:16:39.02Z</time></trkpt><trkpt lat="45.4090862" lon="10.5398043"><ele>133.0</ele><time>2026-04-20T05:16:57.015Z</time></trkpt><trkpt lat="45.4091619" lon="10.5397982"><ele>133.0</ele><time>2026-04-20T05:17:01.012Z</time></trkpt><trkpt lat="45.4092438" lon="10.5397908"><ele>133.0</ele><time>2026-04-20T05:17:04.014Z</time></trkpt><trkpt lat="45.4091678" lon="10.5397707"><ele>133.0</ele><time>2026-04-20T05:17:14.018Z</time></trkpt><trkpt lat="45.4091067" lon="10.5398002"><ele>133.0</ele><time>2026-04-20T05:17:43.005Z</time></trkpt><trkpt lat="45.409026" lon="10.5398366"><ele>133.0</ele><time>2026-04-20T05:18:46.01Z</time></trkpt><trkpt lat="45.4089474" lon="10.5397852"><ele>133.0</ele><time>2026-04-20T05:19:25.016Z</time></trkpt><trkpt lat="45.4088822" lon="10.5397887"><ele>133.0</ele><time>2026-04-20T05:19:28.015Z</time></trkpt><trkpt lat="45.4089435" lon="10.5398401"><ele>133.0</ele><time>2026-04-20T05:22:10.007Z</time></trkpt><trkpt lat="45.4088706" lon="10.5398796"><ele>133.0</ele><time>2026-04-20T05:22:25.011Z</time></trkpt><trkpt lat="45.4089452" lon="10.5398846"><ele>133.0</ele><time>2026-04-20T05:22:47.013Z</time></trkpt><trkpt lat="45.4090343" lon="10.5398811"><ele>133.0</ele><time>2026-04-20T05:23:08.015Z</time></trkpt><trkpt lat="45.4089724" lon="10.5399012"><ele>133.0</ele><time>2026-04-20T05:23:24.003Z</time></trkpt><trkpt lat="45.4090575" lon="10.5398595"><ele>133.0</ele><time>2026-04-20T05:24:02.008Z</time></trkpt><trkpt lat="45.4090038" lon="10.5399252"><ele>133.0</ele><time>2026-04-20T05:24:09.016Z</time></trkpt><trkpt lat="45.409086" lon="10.5399091"><ele>133.0</ele><time>2026-04-20T05:25:08.013Z</time></trkpt><trkpt lat="45.4089913" lon="10.5398922"><ele>133.0</ele><time>2026-04-20T05:25:20.019Z</time></trkpt><trkpt lat="45.4089274" lon="10.539925"><ele>133.0</ele><time>2026-04-20T05:26:08.02Z</time></trkpt><trkpt lat="45.4088528" lon="10.5399339"><ele>133.0</ele><time>2026-04-20T05:26:33.008Z</time></trkpt><trkpt lat="45.4087917" lon="10.539965"><ele>133.0</ele><time>2026-04-20T05:26:43.015Z</time></trkpt><trkpt lat="45.4088853" lon="10.5399747"><ele>133.0</ele><time>2026-04-20T05:27:41.021Z</time></trkpt><trkpt lat="45.4088227" lon="10.5399592"><ele>133.0</ele><time>2026-04-20T05:27:49.014Z</time></trkpt><trkpt lat="45.4088887" lon="10.5399258"><ele>133.0</ele><time>2026-04-20T05:30:14.018Z</time></trkpt><trkpt lat="45.4088795" lon="10.5398332"><ele>133.0</ele><time>2026-04-20T05:30:30.02Z</time></trkpt><trkpt lat="45.4089504" lon="10.539797"><ele>133.0</ele><time>2026-04-20T05:32:01.011Z</time></trkpt><trkpt lat="45.4088863" lon="10.5397791"><ele>133.0</ele><time>2026-04-20T05:32:05.011Z</time></trkpt><trkpt lat="45.4089642" lon="10.5397991"><ele>133.0</ele><time>2026-04-20T05:33:20.019Z</time></trkpt><trkpt lat="45.4090227" lon="10.539765"><ele>133.0</ele><time>2026-04-20T05:34:31.015Z</time></trkpt><trkpt lat="45.4089444" lon="10.5397442"><ele>133.0</ele><time>2026-04-20T05:35:54.015Z</time></trkpt><trkpt lat="45.4088852" lon="10.5397781"><ele>133.0</ele><time>2026-04-20T05:36:14.001Z</time></trkpt><trkpt lat="45.4088202" lon="10.5397211"><ele>133.0</ele><time>2026-04-20T05:37:12.015Z</time></trkpt><trkpt lat="45.4087288" lon="10.5396925"><ele>133.0</ele><time>2026-04-20T05:37:22.013Z</time></trkpt><trkpt lat="45.4087966" lon="10.5396932"><ele>133.0</ele><time>2026-04-20T05:37:45.01Z</time></trkpt><trkpt lat="45.4088606" lon="10.5397001"><ele>133.0</ele><time>2026-04-20T05:37:48.021Z</time></trkpt><trkpt lat="45.4089629" lon="10.5397154"><ele>133.0</ele><time>2026-04-20T05:38:05.015Z</time></trkpt><trkpt lat="45.4090471" lon="10.5397515"><ele>133.0</ele><time>2026-04-20T05:38:19.011Z</time></trkpt><trkpt lat="45.4091191" lon="10.5397464"><ele>133.0</ele><time>2026-04-20T05:38:33.01Z</time></trkpt><trkpt lat="45.4090868" lon="10.5398589"><ele>133.0</ele><time>2026-04-20T05:38:53.019Z</time></trkpt><trkpt lat="45.4090208" lon="10.5398736"><ele>133.0</ele><time>2026-04-20T05:39:02.019Z</time></trkpt><trkpt lat="45.4090272" lon="10.5397828"><ele>133.0</ele><time>2026-04-20T05:39:49.01Z</time></trkpt><trkpt lat="45.4091049" lon="10.5397028"><ele>133.0</ele><time>2026-04-20T05:40:11.01Z</time></trkpt><trkpt lat="45.4091659" lon="10.5397854"><ele>133.0</ele><time>2026-04-20T05:43:30.014Z</time></trkpt><trkpt lat="45.4092683" lon="10.5397941"><ele>133.0</ele><time>2026-04-20T05:43:40.015Z</time></trkpt><trkpt lat="45.409205" lon="10.5397852"><ele>133.0</ele><time>2026-04-20T05:43:54.019Z</time></trkpt><trkpt lat="45.4092337" lon="10.5397034"><ele>133.0</ele><time>2026-04-20T05:44:32.011Z</time></trkpt><trkpt lat="45.4093023" lon="10.539739"><ele>133.0</ele><time>2026-04-20T05:44:36.014Z</time></trkpt><trkpt lat="45.4092294" lon="10.5397698"><ele>133.0</ele><time>2026-04-20T05:44:51.014Z</time></trkpt><trkpt lat="45.4091071" lon="10.5396753"><ele>133.0</ele><time>2026-04-20T05:45:03.009Z</time></trkpt><trkpt lat="45.4090445" lon="10.5396554"><ele>133.0</ele><time>2026-04-20T05:45:06.014Z</time></trkpt><trkpt lat="45.4089737" lon="10.5396276"><ele>133.0</ele><time>2026-04-20T05:45:13.071Z</time></trkpt><trkpt lat="45.4089046" lon="10.5396364"><ele>133.0</ele><time>2026-04-20T05:45:26.018Z</time></trkpt><trkpt lat="45.4088999" lon="10.5397265"><ele>133.0</ele><time>2026-04-20T05:45:35.009Z</time></trkpt><trkpt lat="45.4089596" lon="10.5396881"><ele>133.0</ele><time>2026-04-20T05:45:42.015Z</time></trkpt><trkpt lat="45.4089992" lon="10.5396043"><ele>133.0</ele><time>2026-04-20T05:45:44.01Z</time></trkpt><trkpt lat="45.4089345" lon="10.5396114"><ele>133.0</ele><time>2026-04-20T05:46:06.015Z</time></trkpt><trkpt lat="45.4089496" lon="10.5397127"><ele>133.0</ele><time>2026-04-20T05:46:19.015Z</time></trkpt><trkpt lat="45.4088849" lon="10.539736"><ele>133.0</ele><time>2026-04-20T05:47:13.009Z</time></trkpt><trkpt lat="45.4088165" lon="10.5397843"><ele>133.0</ele><time>2026-04-20T05:47:24.018Z</time></trkpt><trkpt lat="45.4088977" lon="10.5398389"><ele>133.0</ele><time>2026-04-20T05:48:05.017Z</time></trkpt><trkpt lat="45.4088367" lon="10.5398137"><ele>133.0</ele><time>2026-04-20T05:49:07.007Z</time></trkpt><trkpt lat="45.4089002" lon="10.5397877"><ele>133.0</ele><time>2026-04-20T05:50:17.016Z</time></trkpt><trkpt lat="45.4089524" lon="10.539727"><ele>133.0</ele><time>2026-04-20T05:50:59.013Z</time></trkpt><trkpt lat="45.4090254" lon="10.5397124"><ele>133.0</ele><time>2026-04-20T05:51:13.019Z</time></trkpt><trkpt lat="45.4090973" lon="10.5397028"><ele>133.0</ele><time>2026-04-20T05:51:24.009Z</time></trkpt><trkpt lat="45.4091906" lon="10.5396785"><ele>133.0</ele><time>2026-04-20T05:51:28.016Z</time></trkpt><trkpt lat="45.4091376" lon="10.5397361"><ele>133.0</ele><time>2026-04-20T05:51:48.014Z</time></trkpt><trkpt lat="45.4090679" lon="10.5397514"><ele>133.0</ele><time>2026-04-20T05:52:06.007Z</time></trkpt><trkpt lat="45.4090578" lon="10.5398408"><ele>133.0</ele><time>2026-04-20T05:52:34.016Z</time></trkpt><trkpt lat="45.4089899" lon="10.5398113"><ele>133.0</ele><time>2026-04-20T05:52:40.009Z</time></trkpt><trkpt lat="45.4089222" lon="10.5398047"><ele>133.0</ele><time>2026-04-20T05:54:48.011Z</time></trkpt><trkpt lat="45.4088526" lon="10.5398075"><ele>133.0</ele><time>2026-04-20T05:54:52.009Z</time></trkpt><trkpt lat="45.4088962" lon="10.5398769"><ele>133.0</ele><time>2026-04-20T05:55:16.017Z</time></trkpt><trkpt lat="45.4089883" lon="10.5398781"><ele>133.0</ele><time>2026-04-20T05:55:32.003Z</time></trkpt><trkpt lat="45.4089565" lon="10.5397994"><ele>133.0</ele><time>2026-04-20T05:55:50.019Z</time></trkpt><trkpt lat="45.4088704" lon="10.5397936"><ele>133.0</ele><time>2026-04-20T05:57:37.014Z</time></trkpt><trkpt lat="45.4089239" lon="10.5398583"><ele>133.0</ele><time>2026-04-20T05:58:38.005Z</time></trkpt><trkpt lat="45.4089836" lon="10.5398082"><ele>133.0</ele><time>2026-04-20T05:59:21.018Z</time></trkpt><trkpt lat="45.4089849" lon="10.5397145"><ele>133.0</ele><time>2026-04-20T06:00:19.015Z</time></trkpt><trkpt lat="45.4089124" lon="10.5396786"><ele>133.0</ele><time>2026-04-20T06:00:50.018Z</time></trkpt><trkpt lat="45.4089744" lon="10.5397402"><ele>133.0</ele><time>2026-04-20T06:01:10.009Z</time></trkpt><trkpt lat="45.4089229" lon="10.5398072"><ele>133.0</ele><time>2026-04-20T06:02:13.016Z</time></trkpt><trkpt lat="45.4090037" lon="10.5398402"><ele>133.0</ele><time>2026-04-20T06:04:10Z</time></trkpt><trkpt lat="45.4089465" lon="10.5398952"><ele>133.0</ele><time>2026-04-20T06:05:54.01Z</time></trkpt><trkpt lat="45.4090396" lon="10.539892"><ele>133.0</ele><time>2026-04-20T06:07:17.009Z</time></trkpt><trkpt lat="45.4089684" lon="10.5399083"><ele>133.0</ele><time>2026-04-20T06:07:40.008Z</time></trkpt><trkpt lat="45.4090387" lon="10.5398464"><ele>133.0</ele><time>2026-04-20T06:08:13.011Z</time></trkpt><trkpt lat="45.4090218" lon="10.5397551"><ele>133.0</ele><time>2026-04-20T06:09:18.009Z</time></trkpt><trkpt lat="45.4089369" lon="10.5397463"><ele>133.0</ele><time>2026-04-20T06:09:23.007Z</time></trkpt><trkpt lat="45.40901" lon="10.5398315"><ele>133.0</ele><time>2026-04-20T06:09:33.002Z</time></trkpt><trkpt lat="45.4089794" lon="10.5397417"><ele>133.0</ele><time>2026-04-20T06:09:57.015Z</time></trkpt><trkpt lat="45.4089986" lon="10.5398344"><ele>133.0</ele><time>2026-04-20T06:10:20.015Z</time></trkpt><trkpt lat="45.4089293" lon="10.5398175"><ele>133.0</ele><time>2026-04-20T06:11:16.017Z</time></trkpt><trkpt lat="45.4088232" lon="10.5397844"><ele>133.0</ele><time>2026-04-20T06:11:47.009Z</time></trkpt><trkpt lat="45.4088853" lon="10.5397544"><ele>133.0</ele><time>2026-04-20T06:12:21.011Z</time></trkpt><trkpt lat="45.4089991" lon="10.5397806"><ele>133.0</ele><time>2026-04-20T06:12:36.009Z</time></trkpt><trkpt lat="45.4089117" lon="10.5397846"><ele>133.0</ele><time>2026-04-20T06:12:46.01Z</time></trkpt><trkpt lat="45.4088285" lon="10.5397597"><ele>133.0</ele><time>2026-04-20T06:12:52.019Z</time></trkpt><trkpt lat="45.4088991" lon="10.5397144"><ele>133.0</ele><time>2026-04-20T06:12:57.009Z</time></trkpt><trkpt lat="45.4090043" lon="10.5398263"><ele>133.0</ele><time>2026-04-20T06:13:38.01Z</time></trkpt><trkpt lat="45.4091287" lon="10.5397971"><ele>133.0</ele><time>2026-04-20T06:14:07.016Z</time></trkpt><trkpt lat="45.4090749" lon="10.5398635"><ele>133.0</ele><time>2026-04-20T06:14:19.008Z</time></trkpt><trkpt lat="45.4090088" lon="10.5398824"><ele>133.0</ele><time>2026-04-20T06:14:28.004Z</time></trkpt><trkpt lat="45.4089349" lon="10.5398731"><ele>133.0</ele><time>2026-04-20T06:14:36.013Z</time></trkpt><trkpt lat="45.4090057" lon="10.539818"><ele>133.0</ele><time>2026-04-20T06:15:11.015Z</time></trkpt><trkpt lat="45.4090981" lon="10.539773"><ele>133.0</ele><time>2026-04-20T06:15:14.018Z</time></trkpt><trkpt lat="45.4090371" lon="10.5398004"><ele>133.0</ele><time>2026-04-20T06:15:30.015Z</time></trkpt><trkpt lat="45.408968" lon="10.5398167"><ele>133.0</ele><time>2026-04-20T06:15:35.017Z</time></trkpt><trkpt lat="45.4088995" lon="10.5398053"><ele>133.0</ele><time>2026-04-20T06:15:50.007Z</time></trkpt><trkpt lat="45.4090147" lon="10.5398543"><ele>133.0</ele><time>2026-04-20T06:17:12.023Z</time></trkpt><trkpt lat="45.4089676" lon="10.5397693"><ele>133.0</ele><time>2026-04-20T06:17:51.006Z</time></trkpt><trkpt lat="45.4089489" lon="10.5396813"><ele>133.0</ele><time>2026-04-20T06:18:24.908Z</time></trkpt><trkpt lat="45.4089388" lon="10.5397841"><ele>133.0</ele><time>2026-04-20T06:18:49.008Z</time></trkpt><trkpt lat="45.4090254" lon="10.5398045"><ele>133.0</ele><time>2026-04-20T06:19:59.018Z</time></trkpt><trkpt lat="45.4090937" lon="10.5398205"><ele>133.0</ele><time>2026-04-20T06:20:12.019Z</time></trkpt><trkpt lat="45.4091682" lon="10.5398407"><ele>133.0</ele><time>2026-04-20T06:20:26.005Z</time></trkpt><trkpt lat="45.4092144" lon="10.5397749"><ele>133.0</ele><time>2026-04-20T06:20:34.006Z</time></trkpt><trkpt lat="45.4093095" lon="10.5397787"><ele>133.0</ele><time>2026-04-20T06:20:42.01Z</time></trkpt><trkpt lat="45.4092715" lon="10.5398765"><ele>133.0</ele><time>2026-04-20T06:20:59.009Z</time></trkpt><trkpt lat="45.4092075" lon="10.5398574"><ele>133.0</ele><time>2026-04-20T06:21:02.007Z</time></trkpt><trkpt lat="45.4091277" lon="10.5398202"><ele>133.0</ele><time>2026-04-20T06:21:03.008Z</time></trkpt><trkpt lat="45.4090836" lon="10.5397558"><ele>133.0</ele><time>2026-04-20T06:21:24.018Z</time></trkpt><trkpt lat="45.4090114" lon="10.5397194"><ele>133.0</ele><time>2026-04-20T06:21:27.002Z</time></trkpt><trkpt lat="45.408943" lon="10.5397338"><ele>133.0</ele><time>2026-04-20T06:21:35.009Z</time></trkpt><trkpt lat="45.4090049" lon="10.5397576"><ele>133.0</ele><time>2026-04-20T06:21:43.012Z</time></trkpt><trkpt lat="45.4089667" lon="10.5398321"><ele>133.0</ele><time>2026-04-20T06:22:06.018Z</time></trkpt><trkpt lat="45.4089113" lon="10.5397647"><ele>133.0</ele><time>2026-04-20T06:22:39.022Z</time></trkpt><trkpt lat="45.408977" lon="10.5397413"><ele>133.0</ele><time>2026-04-20T06:22:59.012Z</time></trkpt><trkpt lat="45.4089695" lon="10.5398345"><ele>133.0</ele><time>2026-04-20T06:23:39.009Z</time></trkpt><trkpt lat="45.4089117" lon="10.539881"><ele>133.0</ele><time>2026-04-20T06:24:39.008Z</time></trkpt><trkpt lat="45.4088929" lon="10.5397908"><ele>133.0</ele><time>2026-04-20T06:24:58.008Z</time></trkpt><trkpt lat="45.408973" lon="10.5397997"><ele>133.0</ele><time>2026-04-20T06:25:19.009Z</time></trkpt><trkpt lat="45.4090516" lon="10.5398157"><ele>133.0</ele><time>2026-04-20T06:25:42.01Z</time></trkpt><trkpt lat="45.4089873" lon="10.5398257"><ele>133.0</ele><time>2026-04-20T06:26:54.016Z</time></trkpt><trkpt lat="45.4090482" lon="10.5397963"><ele>133.0</ele><time>2026-04-20T06:27:21.008Z</time></trkpt><trkpt lat="45.4089615" lon="10.5397301"><ele>133.0</ele><time>2026-04-20T06:27:28.008Z</time></trkpt><trkpt lat="45.4088888" lon="10.5397316"><ele>133.0</ele><time>2026-04-20T06:28:03.022Z</time></trkpt><trkpt lat="45.4089648" lon="10.5397159"><ele>133.0</ele><time>2026-04-20T06:28:16.007Z</time></trkpt><trkpt lat="45.4090568" lon="10.539742"><ele>133.0</ele><time>2026-04-20T06:28:20.016Z</time></trkpt><trkpt lat="45.4089895" lon="10.5397526"><ele>133.0</ele><time>2026-04-20T06:28:39.014Z</time></trkpt><trkpt lat="45.4090666" lon="10.53976"><ele>133.0</ele><time>2026-04-20T06:29:11.011Z</time></trkpt><trkpt lat="45.4091373" lon="10.5399037"><ele>133.0</ele><time>2026-04-20T06:31:46.007Z</time></trkpt><trkpt lat="45.409171" lon="10.5398226"><ele>133.0</ele><time>2026-04-20T06:32:02.015Z</time></trkpt><trkpt lat="45.4092192" lon="10.5397645"><ele>133.0</ele><time>2026-04-20T06:32:05.006Z</time></trkpt><trkpt lat="45.4092174" lon="10.5396529"><ele>133.0</ele><time>2026-04-20T06:32:25.016Z</time></trkpt><trkpt lat="45.4091517" lon="10.5396644"><ele>133.0</ele><time>2026-04-20T06:32:32.017Z</time></trkpt><trkpt lat="45.4091052" lon="10.5397587"><ele>133.0</ele><time>2026-04-20T06:33:23.014Z</time></trkpt><trkpt lat="45.4090367" lon="10.5397814"><ele>133.0</ele><time>2026-04-20T06:33:40.016Z</time></trkpt><trkpt lat="45.4091057" lon="10.5398065"><ele>133.0</ele><time>2026-04-20T06:34:18.02Z</time></trkpt><trkpt lat="45.4090397" lon="10.5398046"><ele>133.0</ele><time>2026-04-20T06:34:35.006Z</time></trkpt><trkpt lat="45.4091021" lon="10.539773"><ele>133.0</ele><time>2026-04-20T06:35:34.008Z</time></trkpt><trkpt lat="45.4090439" lon="10.5398136"><ele>133.0</ele><time>2026-04-20T06:36:00.006Z</time></trkpt><trkpt lat="45.4089822" lon="10.5397944"><ele>133.0</ele><time>2026-04-20T06:36:13.014Z</time></trkpt><trkpt lat="45.4089197" lon="10.5398162"><ele>133.0</ele><time>2026-04-20T06:36:18.011Z</time></trkpt><trkpt lat="45.4090271" lon="10.539841"><ele>133.0</ele><time>2026-04-20T06:37:33.017Z</time></trkpt><trkpt lat="45.408965" lon="10.5397818"><ele>133.0</ele><time>2026-04-20T06:38:23.013Z</time></trkpt><trkpt lat="45.4089032" lon="10.5397475"><ele>133.0</ele><time>2026-04-20T06:39:20.015Z</time></trkpt><trkpt lat="45.4088961" lon="10.5398394"><ele>133.0</ele><time>2026-04-20T06:39:51.005Z</time></trkpt><trkpt lat="45.4089707" lon="10.5398657"><ele>133.0</ele><time>2026-04-20T06:40:30.012Z</time></trkpt><trkpt lat="45.4090503" lon="10.5397817"><ele>133.0</ele><time>2026-04-20T06:41:40.007Z</time></trkpt><trkpt lat="45.4089763" lon="10.5397895"><ele>133.0</ele><time>2026-04-20T06:42:05.008Z</time></trkpt><trkpt lat="45.40891" lon="10.5398133"><ele>133.0</ele><time>2026-04-20T06:42:11.015Z</time></trkpt><trkpt lat="45.4090226" lon="10.5398231"><ele>133.0</ele><time>2026-04-20T06:42:19.01Z</time></trkpt><trkpt lat="45.4089322" lon="10.5398732"><ele>133.0</ele><time>2026-04-20T06:42:32.015Z</time></trkpt><trkpt lat="45.4088728" lon="10.5398207"><ele>133.0</ele><time>2026-04-20T06:42:52.01Z</time></trkpt><trkpt lat="45.4088056" lon="10.5398189"><ele>133.0</ele><time>2026-04-20T06:42:54.006Z</time></trkpt><trkpt lat="45.4087368" lon="10.5398133"><ele>133.0</ele><time>2026-04-20T06:43:00.008Z</time></trkpt><trkpt lat="45.4088304" lon="10.5398007"><ele>133.0</ele><time>2026-04-20T06:43:06.011Z</time></trkpt><trkpt lat="45.4088915" lon="10.5398467"><ele>133.0</ele><time>2026-04-20T06:43:20.016Z</time></trkpt><trkpt lat="45.4089745" lon="10.5398451"><ele>133.0</ele><time>2026-04-20T06:45:05.009Z</time></trkpt><trkpt lat="45.4090402" lon="10.539823"><ele>133.0</ele><time>2026-04-20T06:49:00.01Z</time></trkpt><trkpt lat="45.4091181" lon="10.5398151"><ele>133.0</ele><time>2026-04-20T06:49:06.007Z</time></trkpt><trkpt lat="45.4090215" lon="10.5398485"><ele>133.0</ele><time>2026-04-20T06:49:17.005Z</time></trkpt><trkpt lat="45.409108" lon="10.5398796"><ele>133.0</ele><time>2026-04-20T06:49:48.006Z</time></trkpt><trkpt lat="45.4091786" lon="10.5399192"><ele>133.0</ele><time>2026-04-20T06:49:55.006Z</time></trkpt><trkpt lat="45.4090643" lon="10.5398375"><ele>133.0</ele><time>2026-04-20T06:51:00.009Z</time></trkpt><trkpt lat="45.4089991" lon="10.5398172"><ele>133.0</ele><time>2026-04-20T06:52:10.015Z</time></trkpt><trkpt lat="45.4089338" lon="10.5398633"><ele>133.0</ele><time>2026-04-20T06:52:25.015Z</time></trkpt><trkpt lat="45.4088725" lon="10.5399322"><ele>133.0</ele><time>2026-04-20T06:53:01.018Z</time></trkpt><trkpt lat="45.4089555" lon="10.5399388"><ele>133.0</ele><time>2026-04-20T06:53:22.013Z</time></trkpt><trkpt lat="45.4090167" lon="10.539892"><ele>133.0</ele><time>2026-04-20T06:53:39.014Z</time></trkpt><trkpt lat="45.4090821" lon="10.5399043"><ele>133.0</ele><time>2026-04-20T06:55:06.007Z</time></trkpt><trkpt lat="45.4090395" lon="10.5398274"><ele>133.0</ele><time>2026-04-20T06:55:40.006Z</time></trkpt><trkpt lat="45.4089738" lon="10.5398546"><ele>133.0</ele><time>2026-04-20T06:56:02.008Z</time></trkpt><trkpt lat="45.4089099" lon="10.5398386"><ele>133.0</ele><time>2026-04-20T06:56:15.017Z</time></trkpt><trkpt lat="45.4089748" lon="10.5398757"><ele>133.0</ele><time>2026-04-20T06:57:01.014Z</time></trkpt><trkpt lat="45.4089247" lon="10.5399401"><ele>133.0</ele><time>2026-04-20T06:57:21.011Z</time></trkpt><trkpt lat="45.4089187" lon="10.5398472"><ele>133.0</ele><time>2026-04-20T06:57:47.006Z</time></trkpt><trkpt lat="45.4089664" lon="10.5397811"><ele>133.0</ele><time>2026-04-20T07:00:01.012Z</time></trkpt><trkpt lat="45.4090308" lon="10.5398062"><ele>133.0</ele><time>2026-04-20T07:00:37.006Z</time></trkpt><trkpt lat="45.4089943" lon="10.5397162"><ele>133.0</ele><time>2026-04-20T07:00:57.017Z</time></trkpt><trkpt lat="45.4090674" lon="10.5397189"><ele>133.0</ele><time>2026-04-20T07:01:39.014Z</time></trkpt><trkpt lat="45.4091006" lon="10.5395688"><ele>133.0</ele><time>2026-04-20T07:01:55.014Z</time></trkpt><trkpt lat="45.4090238" lon="10.5395094"><ele>133.0</ele><time>2026-04-20T07:01:59.008Z</time></trkpt><trkpt lat="45.409059" lon="10.5395959"><ele>133.0</ele><time>2026-04-20T07:02:20.016Z</time></trkpt><trkpt lat="45.4090637" lon="10.5396959"><ele>133.0</ele><time>2026-04-20T07:02:29.015Z</time></trkpt><trkpt lat="45.4089998" lon="10.5397676"><ele>133.0</ele><time>2026-04-20T07:03:10.02Z</time></trkpt><trkpt lat="45.4090098" lon="10.5396731"><ele>133.0</ele><time>2026-04-20T07:03:24.012Z</time></trkpt><trkpt lat="45.4090836" lon="10.5396683"><ele>133.0</ele><time>2026-04-20T07:03:48.007Z</time></trkpt><trkpt lat="45.4090361" lon="10.5397313"><ele>133.0</ele><time>2026-04-20T07:04:25.008Z</time></trkpt><trkpt lat="45.4089724" lon="10.5397335"><ele>133.0</ele><time>2026-04-20T07:04:34.007Z</time></trkpt><trkpt lat="45.4090104" lon="10.5398083"><ele>133.0</ele><time>2026-04-20T07:05:08.006Z</time></trkpt><trkpt lat="45.4089589" lon="10.5398708"><ele>133.0</ele><time>2026-04-20T07:05:18.012Z</time></trkpt><trkpt lat="45.4089378" lon="10.5397509"><ele>133.0</ele><time>2026-04-20T07:05:29.003Z</time></trkpt><trkpt lat="45.4090224" lon="10.5397543"><ele>133.0</ele><time>2026-04-20T07:06:10.005Z</time></trkpt><trkpt lat="45.4091093" lon="10.5398815"><ele>133.0</ele><time>2026-04-20T07:07:08.008Z</time></trkpt><trkpt lat="45.4090551" lon="10.5398093"><ele>133.0</ele><time>2026-04-20T07:07:21.017Z</time></trkpt><trkpt lat="45.4089909" lon="10.5398032"><ele>133.0</ele><time>2026-04-20T07:07:59.014Z</time></trkpt><trkpt lat="45.4090159" lon="10.5398961"><ele>133.0</ele><time>2026-04-20T07:08:25.015Z</time></trkpt><trkpt lat="45.4089351" lon="10.5398538"><ele>133.0</ele><time>2026-04-20T07:08:33.018Z</time></trkpt><trkpt lat="45.4088823" lon="10.5397844"><ele>133.0</ele><time>2026-04-20T07:10:21.015Z</time></trkpt><trkpt lat="45.4089678" lon="10.5397436"><ele>133.0</ele><time>2026-04-20T07:10:46.01Z</time></trkpt><trkpt lat="45.4090614" lon="10.5397736"><ele>133.0</ele><time>2026-04-20T07:11:23.011Z</time></trkpt><trkpt lat="45.4089967" lon="10.5397565"><ele>133.0</ele><time>2026-04-20T07:12:30.011Z</time></trkpt><trkpt lat="45.4090152" lon="10.5398428"><ele>133.0</ele><time>2026-04-20T07:14:29.007Z</time></trkpt><trkpt lat="45.4089656" lon="10.5397789"><ele>133.0</ele><time>2026-04-20T07:14:42.017Z</time></trkpt><trkpt lat="45.4089059" lon="10.5397388"><ele>133.0</ele><time>2026-04-20T07:14:55.013Z</time></trkpt><trkpt lat="45.4088777" lon="10.539822"><ele>133.0</ele><time>2026-04-20T07:15:09.009Z</time></trkpt><trkpt lat="45.4089462" lon="10.5398431"><ele>133.0</ele><time>2026-04-20T07:15:23.008Z</time></trkpt><trkpt lat="45.4088667" lon="10.5398891"><ele>133.0</ele><time>2026-04-20T07:16:21.007Z</time></trkpt><trkpt lat="45.408942" lon="10.5398551"><ele>133.0</ele><time>2026-04-20T07:16:39.007Z</time></trkpt><trkpt lat="45.4090079" lon="10.5398352"><ele>133.0</ele><time>2026-04-20T07:16:59.015Z</time></trkpt><trkpt lat="45.4090883" lon="10.5398366"><ele>133.0</ele><time>2026-04-20T07:17:07.014Z</time></trkpt><trkpt lat="45.409162" lon="10.5398674"><ele>133.0</ele><time>2026-04-20T07:17:09.006Z</time></trkpt><trkpt lat="45.4091045" lon="10.5399176"><ele>133.0</ele><time>2026-04-20T07:17:45.016Z</time></trkpt><trkpt lat="45.4090225" lon="10.5398827"><ele>133.0</ele><time>2026-04-20T07:18:13.012Z</time></trkpt><trkpt lat="45.4090667" lon="10.539815"><ele>133.0</ele><time>2026-04-20T07:19:06.014Z</time></trkpt><trkpt lat="45.4090087" lon="10.5397341"><ele>133.0</ele><time>2026-04-20T07:19:35.007Z</time></trkpt><trkpt lat="45.4090495" lon="10.5398097"><ele>133.0</ele><time>2026-04-20T07:19:51.016Z</time></trkpt><trkpt lat="45.4090142" lon="10.539924"><ele>133.0</ele><time>2026-04-20T07:20:54.017Z</time></trkpt><trkpt lat="45.4090133" lon="10.5398333"><ele>133.0</ele><time>2026-04-20T07:20:58.005Z</time></trkpt><trkpt lat="45.4089645" lon="10.5397601"><ele>133.0</ele><time>2026-04-20T07:21:28.01Z</time></trkpt><trkpt lat="45.4089108" lon="10.5398561"><ele>133.0</ele><time>2026-04-20T07:22:02.007Z</time></trkpt><trkpt lat="45.4089821" lon="10.539858"><ele>133.0</ele><time>2026-04-20T07:24:49.015Z</time></trkpt><trkpt lat="45.4090611" lon="10.5397867"><ele>133.0</ele><time>2026-04-20T07:25:44.017Z</time></trkpt><trkpt lat="45.4091054" lon="10.5398565"><ele>133.0</ele><time>2026-04-20T07:26:16.003Z</time></trkpt><trkpt lat="45.4089578" lon="10.5397652"><ele>133.0</ele><time>2026-04-20T07:28:17.007Z</time></trkpt><trkpt lat="45.408871" lon="10.5397037"><ele>133.0</ele><time>2026-04-20T07:28:19.012Z</time></trkpt><trkpt lat="45.4088096" lon="10.5396654"><ele>133.0</ele><time>2026-04-20T07:28:20.011Z</time></trkpt><trkpt lat="45.4088726" lon="10.5397468"><ele>133.0</ele><time>2026-04-20T07:28:38.014Z</time></trkpt><trkpt lat="45.4089312" lon="10.539832"><ele>133.0</ele><time>2026-04-20T07:28:48.006Z</time></trkpt><trkpt lat="45.4088766" lon="10.5397851"><ele>133.0</ele><time>2026-04-20T07:29:08.015Z</time></trkpt><trkpt lat="45.408976" lon="10.5398433"><ele>133.0</ele><time>2026-04-20T07:30:05.004Z</time></trkpt><trkpt lat="45.4090393" lon="10.5398962"><ele>133.0</ele><time>2026-04-20T07:30:06.006Z</time></trkpt><trkpt lat="45.409117" lon="10.5399493"><ele>133.0</ele><time>2026-04-20T07:30:11.005Z</time></trkpt><trkpt lat="45.4091918" lon="10.5399695"><ele>133.0</ele><time>2026-04-20T07:30:22.007Z</time></trkpt><trkpt lat="45.4092788" lon="10.5400214"><ele>133.0</ele><time>2026-04-20T07:30:24.013Z</time></trkpt><trkpt lat="45.4093704" lon="10.5400652"><ele>133.0</ele><time>2026-04-20T07:30:27.002Z</time></trkpt><trkpt lat="45.4094279" lon="10.540102"><ele>133.0</ele><time>2026-04-20T07:30:38.018Z</time></trkpt><trkpt lat="45.4093679" lon="10.5400343"><ele>133.0</ele><time>2026-04-20T07:30:43.004Z</time></trkpt><trkpt lat="45.4092937" lon="10.5399528"><ele>133.0</ele><time>2026-04-20T07:30:46.014Z</time></trkpt><trkpt lat="45.4092334" lon="10.5398866"><ele>133.0</ele><time>2026-04-20T07:30:49.014Z</time></trkpt><trkpt lat="45.4091811" lon="10.5398229"><ele>133.0</ele><time>2026-04-20T07:30:52.006Z</time></trkpt><trkpt lat="45.4091251" lon="10.5397767"><ele>133.0</ele><time>2026-04-20T07:30:57.014Z</time></trkpt><trkpt lat="45.4090658" lon="10.5397232"><ele>133.0</ele><time>2026-04-20T07:31:02.018Z</time></trkpt><trkpt lat="45.4091442" lon="10.5398242"><ele>133.0</ele><time>2026-04-20T07:31:24.005Z</time></trkpt><trkpt lat="45.4091855" lon="10.5399025"><ele>133.0</ele><time>2026-04-20T07:31:26.014Z</time></trkpt><trkpt lat="45.4092696" lon="10.5400332"><ele>133.0</ele><time>2026-04-20T07:31:28.01Z</time></trkpt><trkpt lat="45.4093139" lon="10.54012"><ele>133.0</ele><time>2026-04-20T07:31:35.019Z</time></trkpt><trkpt lat="45.4092664" lon="10.5400422"><ele>133.0</ele><time>2026-04-20T07:31:38.014Z</time></trkpt><trkpt lat="45.40922" lon="10.5399708"><ele>133.0</ele><time>2026-04-20T07:31:42.999Z</time></trkpt><trkpt lat="45.4092937" lon="10.5399675"><ele>133.0</ele><time>2026-04-20T07:31:48.013Z</time></trkpt><trkpt lat="45.4093588" lon="10.5400257"><ele>133.0</ele><time>2026-04-20T07:31:51.006Z</time></trkpt><trkpt lat="45.4092932" lon="10.5399467"><ele>133.0</ele><time>2026-04-20T07:31:54.007Z</time></trkpt><trkpt lat="45.4092049" lon="10.5399694"><ele>133.0</ele><time>2026-04-20T07:31:59.002Z</time></trkpt><trkpt lat="45.4090982" lon="10.5399072"><ele>133.0</ele><time>2026-04-20T07:32:01.015Z</time></trkpt><trkpt lat="45.4090308" lon="10.5398371"><ele>133.0</ele><time>2026-04-20T07:32:04.011Z</time></trkpt><trkpt lat="45.4089984" lon="10.5397475"><ele>133.0</ele><time>2026-04-20T07:32:10.013Z</time></trkpt><trkpt lat="45.4089578" lon="10.5396721"><ele>133.0</ele><time>2026-04-20T07:33:12.006Z</time></trkpt><trkpt lat="45.4088902" lon="10.5396696"><ele>133.0</ele><time>2026-04-20T07:33:20.007Z</time></trkpt><trkpt lat="45.4088672" lon="10.5395665"><ele>133.0</ele><time>2026-04-20T07:33:25.013Z</time></trkpt><trkpt lat="45.4088172" lon="10.5394872"><ele>133.0</ele><time>2026-04-20T07:33:29.004Z</time></trkpt><trkpt lat="45.4088754" lon="10.5395654"><ele>133.0</ele><time>2026-04-20T07:33:37.006Z</time></trkpt><trkpt lat="45.4089438" lon="10.5396286"><ele>133.0</ele><time>2026-04-20T07:33:45.005Z</time></trkpt><trkpt lat="45.4089368" lon="10.5397265"><ele>133.0</ele><time>2026-04-20T07:33:51.012Z</time></trkpt><trkpt lat="45.4089473" lon="10.5398417"><ele>133.0</ele><time>2026-04-20T07:33:53.001Z</time></trkpt><trkpt lat="45.4088822" lon="10.5398435"><ele>133.0</ele><time>2026-04-20T07:34:08.009Z</time></trkpt><trkpt lat="45.4089646" lon="10.5398528"><ele>133.0</ele><time>2026-04-20T07:34:40.005Z</time></trkpt><trkpt lat="45.4090496" lon="10.5398653"><ele>133.0</ele><time>2026-04-20T07:38:16.009Z</time></trkpt><trkpt lat="45.408969" lon="10.539855"><ele>133.0</ele><time>2026-04-20T07:39:58.003Z</time></trkpt><trkpt lat="45.4090013" lon="10.5397664"><ele>133.0</ele><time>2026-04-20T07:40:44.015Z</time></trkpt><trkpt lat="45.4090071" lon="10.53986"><ele>133.0</ele><time>2026-04-20T07:41:23.017Z</time></trkpt><trkpt lat="45.4090886" lon="10.5397968"><ele>133.0</ele><time>2026-04-20T07:45:09.012Z</time></trkpt><trkpt lat="45.409162" lon="10.5397767"><ele>133.0</ele><time>2026-04-20T07:45:13.015Z</time></trkpt><trkpt lat="45.4091213" lon="10.5398476"><ele>133.0</ele><time>2026-04-20T07:45:57.004Z</time></trkpt><trkpt lat="45.4090603" lon="10.5398711"><ele>133.0</ele><time>2026-04-20T07:46:02.015Z</time></trkpt><trkpt lat="45.4089941" lon="10.5398601"><ele>133.0</ele><time>2026-04-20T07:46:11.002Z</time></trkpt><trkpt lat="45.4089292" lon="10.5398264"><ele>133.0</ele><time>2026-04-20T07:46:29.002Z</time></trkpt><trkpt lat="45.4089522" lon="10.539735"><ele>133.0</ele><time>2026-04-20T07:46:42.01Z</time></trkpt><trkpt lat="45.4090084" lon="10.5398169"><ele>133.0</ele><time>2026-04-20T07:49:16.012Z</time></trkpt><trkpt lat="45.4089444" lon="10.5398404"><ele>133.0</ele><time>2026-04-20T07:51:38.01Z</time></trkpt><trkpt lat="45.4090121" lon="10.5398494"><ele>133.0</ele><time>2026-04-20T07:54:42.003Z</time></trkpt><trkpt lat="45.4089293" lon="10.5397627"><ele>133.0</ele><time>2026-04-20T07:55:46.006Z</time></trkpt><trkpt lat="45.4089961" lon="10.5398198"><ele>133.0</ele><time>2026-04-20T08:00:34.006Z</time></trkpt><trkpt lat="45.4091118" lon="10.5398346"><ele>133.0</ele><time>2026-04-20T08:02:25.005Z</time></trkpt><trkpt lat="45.4090423" lon="10.5398323"><ele>133.0</ele><time>2026-04-20T08:02:37.006Z</time></trkpt><trkpt lat="45.4091043" lon="10.5398061"><ele>133.0</ele><time>2026-04-20T08:03:13.015Z</time></trkpt><trkpt lat="45.409034" lon="10.53979"><ele>133.0</ele><time>2026-04-20T08:03:35.011Z</time></trkpt><trkpt lat="45.4089549" lon="10.539866"><ele>133.0</ele><time>2026-04-20T08:05:46.011Z</time></trkpt><trkpt lat="45.4090288" lon="10.5398259"><ele>133.0</ele><time>2026-04-20T08:06:24.004Z</time></trkpt><trkpt lat="45.4089648" lon="10.5398474"><ele>133.0</ele><time>2026-04-20T08:07:38.005Z</time></trkpt><trkpt lat="45.4089068" lon="10.5398965"><ele>133.0</ele><time>2026-04-20T08:07:57.003Z</time></trkpt><trkpt lat="45.4089802" lon="10.5399232"><ele>133.0</ele><time>2026-04-20T08:08:34.004Z</time></trkpt><trkpt lat="45.4089184" lon="10.5398805"><ele>133.0</ele><time>2026-04-20T08:08:51.003Z</time></trkpt><trkpt lat="45.4089712" lon="10.5398297"><ele>133.0</ele><time>2026-04-20T08:13:56.01Z</time></trkpt><trkpt lat="45.4089154" lon="10.5398751"><ele>133.0</ele><time>2026-04-20T08:16:16.003Z</time></trkpt><trkpt lat="45.4090046" lon="10.5398172"><ele>133.0</ele><time>2026-04-20T08:17:03.01Z</time></trkpt><trkpt lat="45.4090739" lon="10.5398399"><ele>133.0</ele><time>2026-04-20T08:17:47.005Z</time></trkpt><trkpt lat="45.4089929" lon="10.5399298"><ele>133.0</ele><time>2026-04-20T08:19:06.994Z</time></trkpt><trkpt lat="45.4090236" lon="10.539837"><ele>133.0</ele><time>2026-04-20T08:19:49.002Z</time></trkpt><trkpt lat="45.408949" lon="10.539844"><ele>133.0</ele><time>2026-04-20T08:20:29.005Z</time></trkpt><trkpt lat="45.4089896" lon="10.5397708"><ele>133.0</ele><time>2026-04-20T08:21:01.001Z</time></trkpt><trkpt lat="45.4089242" lon="10.5398343"><ele>133.0</ele><time>2026-04-20T08:22:21Z</time></trkpt><trkpt lat="45.4089709" lon="10.5397628"><ele>133.0</ele><time>2026-04-20T08:23:30.002Z</time></trkpt><trkpt lat="45.4090575" lon="10.5398087"><ele>133.0</ele><time>2026-04-20T08:24:14.012Z</time></trkpt><trkpt lat="45.4089902" lon="10.539825"><ele>133.0</ele><time>2026-04-20T08:24:54.012Z</time></trkpt><trkpt lat="45.4089061" lon="10.5397891"><ele>133.0</ele><time>2026-04-20T08:29:27.009Z</time></trkpt><trkpt lat="45.4088963" lon="10.5399053"><ele>133.0</ele><time>2026-04-20T08:29:45.999Z</time></trkpt><trkpt lat="45.4089803" lon="10.5398776"><ele>133.0</ele><time>2026-04-20T08:30:50.017Z</time></trkpt><trkpt lat="45.4089133" lon="10.5398431"><ele>133.0</ele><time>2026-04-20T08:32:36.011Z</time></trkpt><trkpt lat="45.4088243" lon="10.5398583"><ele>133.0</ele><time>2026-04-20T08:32:47.014Z</time></trkpt><trkpt lat="45.4089032" lon="10.5398367"><ele>133.0</ele><time>2026-04-20T08:33:27.006Z</time></trkpt><trkpt lat="45.4089843" lon="10.539832"><ele>133.0</ele><time>2026-04-20T08:35:22.003Z</time></trkpt><trkpt lat="45.4090829" lon="10.539817"><ele>133.0</ele><time>2026-04-20T08:35:45.011Z</time></trkpt><trkpt lat="45.4090225" lon="10.5398653"><ele>133.0</ele><time>2026-04-20T08:36:03.005Z</time></trkpt><trkpt lat="45.408962" lon="10.5399064"><ele>133.0</ele><time>2026-04-20T08:36:18.009Z</time></trkpt><trkpt lat="45.408905" lon="10.5398663"><ele>133.0</ele><time>2026-04-20T08:39:02.002Z</time></trkpt><trkpt lat="45.4089872" lon="10.5398611"><ele>133.0</ele><time>2026-04-20T08:39:47.009Z</time></trkpt><trkpt lat="45.408993" lon="10.5397671"><ele>133.0</ele><time>2026-04-20T08:40:22.008Z</time></trkpt><trkpt lat="45.4089622" lon="10.5398491"><ele>133.0</ele><time>2026-04-20T08:40:55.011Z</time></trkpt><trkpt lat="45.4089342" lon="10.5399487"><ele>133.0</ele><time>2026-04-20T08:41:15.008Z</time></trkpt><trkpt lat="45.4089503" lon="10.5398452"><ele>133.0</ele><time>2026-04-20T08:43:06.001Z</time></trkpt><trkpt lat="45.4089433" lon="10.539937"><ele>133.0</ele><time>2026-04-20T08:44:20.005Z</time></trkpt><trkpt lat="45.4089195" lon="10.5398521"><ele>133.0</ele><time>2026-04-20T08:45:17.005Z</time></trkpt><trkpt lat="45.4089822" lon="10.5398829"><ele>133.0</ele><time>2026-04-20T08:45:30.014Z</time></trkpt><trkpt lat="45.4089777" lon="10.539975"><ele>133.0</ele><time>2026-04-20T08:45:43.002Z</time></trkpt><trkpt lat="45.4089159" lon="10.5399509"><ele>133.0</ele><time>2026-04-20T08:45:55.012Z</time></trkpt><trkpt lat="45.408911" lon="10.5398421"><ele>133.0</ele><time>2026-04-20T08:46:30Z</time></trkpt><trkpt lat="45.4089796" lon="10.5398683"><ele>133.0</ele><time>2026-04-20T08:48:54.014Z</time></trkpt><trkpt lat="45.4090134" lon="10.5397925"><ele>133.0</ele><time>2026-04-20T08:49:45.002Z</time></trkpt><trkpt lat="45.4091011" lon="10.539864"><ele>133.0</ele><time>2026-04-20T08:50:23.019Z</time></trkpt><trkpt lat="45.4091531" lon="10.5398028"><ele>133.0</ele><time>2026-04-20T08:50:29.007Z</time></trkpt><trkpt lat="45.409113" lon="10.5397181"><ele>133.0</ele><time>2026-04-20T08:50:32.012Z</time></trkpt><trkpt lat="45.4090403" lon="10.5397002"><ele>133.0</ele><time>2026-04-20T08:50:53.011Z</time></trkpt><trkpt lat="45.4089785" lon="10.53977"><ele>133.0</ele><time>2026-04-20T08:50:59.001Z</time></trkpt><trkpt lat="45.4088801" lon="10.5397433"><ele>133.0</ele><time>2026-04-20T08:51:20.014Z</time></trkpt><trkpt lat="45.4089386" lon="10.5398216"><ele>133.0</ele><time>2026-04-20T08:51:46.014Z</time></trkpt><trkpt lat="45.4088734" lon="10.5398617"><ele>133.0</ele><time>2026-04-20T08:51:53.008Z</time></trkpt><trkpt lat="45.4089151" lon="10.5399371"><ele>133.0</ele><time>2026-04-20T08:52:05.006Z</time></trkpt><trkpt lat="45.4089981" lon="10.5399679"><ele>133.0</ele><time>2026-04-20T08:52:21.005Z</time></trkpt><trkpt lat="45.4090121" lon="10.5398688"><ele>133.0</ele><time>2026-04-20T08:52:28.004Z</time></trkpt><trkpt lat="45.4089479" lon="10.539849"><ele>133.0</ele><time>2026-04-20T08:52:45.002Z</time></trkpt><trkpt lat="45.4089817" lon="10.5397269"><ele>133.0</ele><time>2026-04-20T08:52:50.009Z</time></trkpt><trkpt lat="45.4090217" lon="10.5398074"><ele>133.0</ele><time>2026-04-20T08:54:10.011Z</time></trkpt><trkpt lat="45.4089668" lon="10.5398513"><ele>133.0</ele><time>2026-04-20T08:55:58.011Z</time></trkpt><trkpt lat="45.4089029" lon="10.5398592"><ele>133.0</ele><time>2026-04-20T08:56:29.007Z</time></trkpt><trkpt lat="45.4089762" lon="10.539857"><ele>133.0</ele><time>2026-04-20T08:58:17.999Z</time></trkpt><trkpt lat="45.4089099" lon="10.5398546"><ele>133.0</ele><time>2026-04-20T08:59:28.008Z</time></trkpt><trkpt lat="45.4088606" lon="10.539785"><ele>133.0</ele><time>2026-04-20T09:03:04Z</time></trkpt><trkpt lat="45.4089259" lon="10.539767"><ele>133.0</ele><time>2026-04-20T09:03:20.004Z</time></trkpt><trkpt lat="45.4088935" lon="10.5398476"><ele>133.0</ele><time>2026-04-20T09:04:12.004Z</time></trkpt><trkpt lat="45.4089503" lon="10.5398999"><ele>133.0</ele><time>2026-04-20T09:04:27.005Z</time></trkpt><trkpt lat="45.4088407" lon="10.5398377"><ele>133.0</ele><time>2026-04-20T09:05:46.003Z</time></trkpt><trkpt lat="45.4089072" lon="10.5398618"><ele>133.0</ele><time>2026-04-20T09:08:16.999Z</time></trkpt><trkpt lat="45.4090097" lon="10.5398217"><ele>133.0</ele><time>2026-04-20T09:10:45.002Z</time></trkpt><trkpt lat="45.4089422" lon="10.5397814"><ele>133.0</ele><time>2026-04-20T09:11:29.004Z</time></trkpt><trkpt lat="45.4088692" lon="10.5398553"><ele>133.0</ele><time>2026-04-20T09:11:48.006Z</time></trkpt><trkpt lat="45.4089194" lon="10.5397922"><ele>133.0</ele><time>2026-04-20T09:13:06.007Z</time></trkpt><trkpt lat="45.4090079" lon="10.5397805"><ele>133.0</ele><time>2026-04-20T09:13:22.007Z</time></trkpt><trkpt lat="45.4089502" lon="10.5398528"><ele>133.0</ele><time>2026-04-20T09:13:52Z</time></trkpt><trkpt lat="45.4088842" lon="10.5398948"><ele>133.0</ele><time>2026-04-20T09:13:57.01Z</time></trkpt><trkpt lat="45.4089436" lon="10.5398427"><ele>133.0</ele><time>2026-04-20T09:14:41.999Z</time></trkpt><trkpt lat="45.4090266" lon="10.5397824"><ele>133.0</ele><time>2026-04-20T09:14:57.999Z</time></trkpt><trkpt lat="45.4089641" lon="10.539799"><ele>133.0</ele><time>2026-04-20T09:15:04.006Z</time></trkpt><trkpt lat="45.4089099" lon="10.539919"><ele>133.0</ele><time>2026-04-20T09:15:56.005Z</time></trkpt><trkpt lat="45.4088443" lon="10.5399071"><ele>133.0</ele><time>2026-04-20T09:16:07.01Z</time></trkpt><trkpt lat="45.4089695" lon="10.5398691"><ele>133.0</ele><time>2026-04-20T09:17:02.015Z</time></trkpt><trkpt lat="45.4089708" lon="10.539779"><ele>133.0</ele><time>2026-04-20T09:17:17.004Z</time></trkpt><trkpt lat="45.4089652" lon="10.5398688"><ele>133.0</ele><time>2026-04-20T09:18:10.009Z</time></trkpt><trkpt lat="45.4090191" lon="10.5398176"><ele>133.0</ele><time>2026-04-20T09:20:08.001Z</time></trkpt><trkpt lat="45.4089443" lon="10.5398083"><ele>133.0</ele><time>2026-04-20T09:21:28.999Z</time></trkpt><trkpt lat="45.408936" lon="10.5396645"><ele>133.0</ele><time>2026-04-20T09:22:25.006Z</time></trkpt><trkpt lat="45.4089549" lon="10.5397518"><ele>133.0</ele><time>2026-04-20T09:22:38.011Z</time></trkpt><trkpt lat="45.4089368" lon="10.5399196"><ele>133.0</ele><time>2026-04-20T09:23:00.011Z</time></trkpt><trkpt lat="45.4089692" lon="10.5400049"><ele>133.0</ele><time>2026-04-20T09:23:08.015Z</time></trkpt><trkpt lat="45.4089971" lon="10.5399014"><ele>133.0</ele><time>2026-04-20T09:23:21.004Z</time></trkpt><trkpt lat="45.4090066" lon="10.5397905"><ele>133.0</ele><time>2026-04-20T09:23:29.002Z</time></trkpt><trkpt lat="45.4089431" lon="10.5398354"><ele>133.0</ele><time>2026-04-20T09:24:16.009Z</time></trkpt><trkpt lat="45.4088794" lon="10.539839"><ele>133.0</ele><time>2026-04-20T09:24:37.009Z</time></trkpt><trkpt lat="45.4089486" lon="10.539803"><ele>133.0</ele><time>2026-04-20T09:25:18.011Z</time></trkpt><trkpt lat="45.4089977" lon="10.5399118"><ele>133.0</ele><time>2026-04-20T09:25:34.005Z</time></trkpt><trkpt lat="45.4089974" lon="10.5400296"><ele>133.0</ele><time>2026-04-20T09:25:36.014Z</time></trkpt><trkpt lat="45.4090145" lon="10.5399369"><ele>133.0</ele><time>2026-04-20T09:25:49.002Z</time></trkpt><trkpt lat="45.4089732" lon="10.5398679"><ele>133.0</ele><time>2026-04-20T09:26:05.005Z</time></trkpt><trkpt lat="45.4089869" lon="10.5397719"><ele>133.0</ele><time>2026-04-20T09:26:22.005Z</time></trkpt><trkpt lat="45.4090645" lon="10.5397469"><ele>133.0</ele><time>2026-04-20T09:33:50.009Z</time></trkpt><trkpt lat="45.4089998" lon="10.5397894"><ele>133.0</ele><time>2026-04-20T09:34:00.011Z</time></trkpt><trkpt lat="45.4090658" lon="10.5397677"><ele>133.0</ele><time>2026-04-20T09:34:55.004Z</time></trkpt><trkpt lat="45.4090395" lon="10.5396806"><ele>133.0</ele><time>2026-04-20T09:36:58.003Z</time></trkpt><trkpt lat="45.4089655" lon="10.5397215"><ele>133.0</ele><time>2026-04-20T09:37:22.007Z</time></trkpt><trkpt lat="45.4088991" lon="10.5397337"><ele>133.0</ele><time>2026-04-20T09:37:28.999Z</time></trkpt><trkpt lat="45.4088452" lon="10.5397957"><ele>133.0</ele><time>2026-04-20T09:37:39.007Z</time></trkpt><trkpt lat="45.4089317" lon="10.53977"><ele>133.0</ele><time>2026-04-20T09:38:18.004Z</time></trkpt><trkpt lat="45.4088687" lon="10.5397881"><ele>133.0</ele><time>2026-04-20T09:40:25.001Z</time></trkpt><trkpt lat="45.4088881" lon="10.539889"><ele>133.0</ele><time>2026-04-20T09:40:53.998Z</time></trkpt><trkpt lat="45.4088277" lon="10.5398597"><ele>133.0</ele><time>2026-04-20T09:42:25.008Z</time></trkpt><trkpt lat="45.4089633" lon="10.5399"><ele>133.0</ele><time>2026-04-20T09:46:50.003Z</time></trkpt><trkpt lat="45.4090105" lon="10.5398093"><ele>133.0</ele><time>2026-04-20T09:46:51.006Z</time></trkpt><trkpt lat="45.4089527" lon="10.5397642"><ele>133.0</ele><time>2026-04-20T09:47:55.002Z</time></trkpt><trkpt lat="45.4089354" lon="10.5398726"><ele>133.0</ele><time>2026-04-20T09:48:47.008Z</time></trkpt><trkpt lat="45.4088716" lon="10.5398602"><ele>133.0</ele><time>2026-04-20T09:49:34.004Z</time></trkpt><trkpt lat="45.4089578" lon="10.5398824"><ele>133.0</ele><time>2026-04-20T09:49:59.01Z</time></trkpt><trkpt lat="45.409033" lon="10.5398929"><ele>133.0</ele><time>2026-04-20T09:50:02.999Z</time></trkpt><trkpt lat="45.4090884" lon="10.5399409"><ele>133.0</ele><time>2026-04-20T09:50:16.006Z</time></trkpt><trkpt lat="45.4090443" lon="10.5398503"><ele>133.0</ele><time>2026-04-20T09:50:34.012Z</time></trkpt><trkpt lat="45.4089614" lon="10.5398286"><ele>133.0</ele><time>2026-04-20T09:50:40.005Z</time></trkpt><trkpt lat="45.4088902" lon="10.5398388"><ele>133.0</ele><time>2026-04-20T09:50:57.003Z</time></trkpt><trkpt lat="45.4089535" lon="10.5398734"><ele>133.0</ele><time>2026-04-20T09:51:10.004Z</time></trkpt><trkpt lat="45.4089959" lon="10.5399714"><ele>133.0</ele><time>2026-04-20T09:56:55.006Z</time></trkpt><trkpt lat="45.4090119" lon="10.5398844"><ele>133.0</ele><time>2026-04-20T09:57:20.009Z</time></trkpt><trkpt lat="45.408959" lon="10.5398219"><ele>133.0</ele><time>2026-04-20T10:00:35.005Z</time></trkpt><trkpt lat="45.4088902" lon="10.5398482"><ele>133.0</ele><time>2026-04-20T10:02:18.014Z</time></trkpt><trkpt lat="45.4088322" lon="10.5398119"><ele>133.0</ele><time>2026-04-20T10:02:27.999Z</time></trkpt><trkpt lat="45.4089049" lon="10.5397943"><ele>133.0</ele><time>2026-04-20T10:03:10.993Z</time></trkpt><trkpt lat="45.4088346" lon="10.5397793"><ele>133.0</ele><time>2026-04-20T10:03:52Z</time></trkpt><trkpt lat="45.4087386" lon="10.5398096"><ele>133.0</ele><time>2026-04-20T10:03:57.008Z</time></trkpt><trkpt lat="45.4088272" lon="10.5397998"><ele>133.0</ele><time>2026-04-20T10:04:08.998Z</time></trkpt><trkpt lat="45.4088898" lon="10.5398117"><ele>133.0</ele><time>2026-04-20T10:04:26.002Z</time></trkpt><trkpt lat="45.4089541" lon="10.5397399"><ele>133.0</ele><time>2026-04-20T10:06:02.001Z</time></trkpt><trkpt lat="45.4089009" lon="10.5397985"><ele>133.0</ele><time>2026-04-20T10:06:24.008Z</time></trkpt><trkpt lat="45.4088281" lon="10.5397633"><ele>133.0</ele><time>2026-04-20T10:06:39.008Z</time></trkpt><trkpt lat="45.4088305" lon="10.5398683"><ele>133.0</ele><time>2026-04-20T10:07:01.003Z</time></trkpt><trkpt lat="45.4088586" lon="10.5399862"><ele>133.0</ele><time>2026-04-20T10:07:46.01Z</time></trkpt><trkpt lat="45.4088428" lon="10.5398834"><ele>133.0</ele><time>2026-04-20T10:08:14.003Z</time></trkpt><trkpt lat="45.4088901" lon="10.5397941"><ele>133.0</ele><time>2026-04-20T10:08:23Z</time></trkpt><trkpt lat="45.4089004" lon="10.5399089"><ele>133.0</ele><time>2026-04-20T10:08:53.004Z</time></trkpt><trkpt lat="45.4089456" lon="10.5398058"><ele>133.0</ele><time>2026-04-20T10:10:23.999Z</time></trkpt><trkpt lat="45.4089867" lon="10.5398833"><ele>133.0</ele><time>2026-04-20T10:10:44.01Z</time></trkpt><trkpt lat="45.4089095" lon="10.5398781"><ele>133.0</ele><time>2026-04-20T10:11:31.009Z</time></trkpt><trkpt lat="45.4089673" lon="10.5399389"><ele>133.0</ele><time>2026-04-20T10:13:56.005Z</time></trkpt><trkpt lat="45.4088956" lon="10.5399397"><ele>133.0</ele><time>2026-04-20T10:14:08.002Z</time></trkpt><trkpt lat="45.4088469" lon="10.5398809"><ele>133.0</ele><time>2026-04-20T10:14:14.002Z</time></trkpt><trkpt lat="45.4087833" lon="10.5398718"><ele>133.0</ele><time>2026-04-20T10:14:23.007Z</time></trkpt><trkpt lat="45.4088446" lon="10.5398983"><ele>133.0</ele><time>2026-04-20T10:14:34.998Z</time></trkpt><trkpt lat="45.4088889" lon="10.5398254"><ele>133.0</ele><time>2026-04-20T10:15:11.003Z</time></trkpt><trkpt lat="45.4089449" lon="10.5398908"><ele>133.0</ele><time>2026-04-20T10:15:56.999Z</time></trkpt><trkpt lat="45.4088828" lon="10.5398511"><ele>133.0</ele><time>2026-04-20T10:16:27.009Z</time></trkpt><trkpt lat="45.4089528" lon="10.5398393"><ele>133.0</ele><time>2026-04-20T10:16:51.991Z</time></trkpt><trkpt lat="45.4089951" lon="10.5399189"><ele>133.0</ele><time>2026-04-20T10:17:27Z</time></trkpt><trkpt lat="45.4089726" lon="10.5400049"><ele>133.0</ele><time>2026-04-20T10:17:52.005Z</time></trkpt><trkpt lat="45.4089863" lon="10.5399082"><ele>133.0</ele><time>2026-04-20T10:17:57.999Z</time></trkpt><trkpt lat="45.409081" lon="10.5398949"><ele>133.0</ele><time>2026-04-20T10:19:48.004Z</time></trkpt><trkpt lat="45.4090189" lon="10.5398689"><ele>133.0</ele><time>2026-04-20T10:20:12.005Z</time></trkpt><trkpt lat="45.4089622" lon="10.5398281"><ele>133.0</ele><time>2026-04-20T10:21:53.998Z</time></trkpt><trkpt lat="45.4089665" lon="10.5397366"><ele>133.0</ele><time>2026-04-20T10:23:00.999Z</time></trkpt><trkpt lat="45.4089576" lon="10.5398261"><ele>133.0</ele><time>2026-04-20T10:23:19.999Z</time></trkpt><trkpt lat="45.4090169" lon="10.5397809"><ele>133.0</ele><time>2026-04-20T10:23:59.008Z</time></trkpt><trkpt lat="45.4089779" lon="10.5397046"><ele>133.0</ele><time>2026-04-20T10:24:09.009Z</time></trkpt><trkpt lat="45.408912" lon="10.5397206"><ele>133.0</ele><time>2026-04-20T10:24:27.996Z</time></trkpt><trkpt lat="45.4089262" lon="10.5398309"><ele>133.0</ele><time>2026-04-20T10:26:32.004Z</time></trkpt><trkpt lat="45.4090097" lon="10.5398457"><ele>133.0</ele><time>2026-04-20T10:31:05.011Z</time></trkpt><trkpt lat="45.4089562" lon="10.5397876"><ele>133.0</ele><time>2026-04-20T10:32:28.002Z</time></trkpt><trkpt lat="45.4090192" lon="10.5398377"><ele>133.0</ele><time>2026-04-20T10:33:20.008Z</time></trkpt><trkpt lat="45.4089977" lon="10.5397316"><ele>133.0</ele><time>2026-04-20T10:34:01.007Z</time></trkpt><trkpt lat="45.4089846" lon="10.539827"><ele>133.0</ele><time>2026-04-20T10:34:43.009Z</time></trkpt><trkpt lat="45.4089021" lon="10.5398596"><ele>133.0</ele><time>2026-04-20T10:34:56Z</time></trkpt><trkpt lat="45.4089648" lon="10.5398349"><ele>133.0</ele><time>2026-04-20T10:35:10.009Z</time></trkpt><trkpt lat="45.4090147" lon="10.5397698"><ele>133.0</ele><time>2026-04-20T10:35:49.009Z</time></trkpt><trkpt lat="45.4090758" lon="10.5397967"><ele>133.0</ele><time>2026-04-20T10:42:33.004Z</time></trkpt><trkpt lat="45.4090076" lon="10.5397859"><ele>133.0</ele><time>2026-04-20T10:43:28.995Z</time></trkpt><trkpt lat="45.4089436" lon="10.5398012"><ele>133.0</ele><time>2026-04-20T10:45:02.013Z</time></trkpt><trkpt lat="45.4090073" lon="10.5398466"><ele>133.0</ele><time>2026-04-20T10:53:24.003Z</time></trkpt><trkpt lat="45.408933" lon="10.5398587"><ele>133.0</ele><time>2026-04-20T10:53:29Z</time></trkpt><trkpt lat="45.4089958" lon="10.5398695"><ele>133.0</ele><time>2026-04-20T10:53:52.997Z</time></trkpt><trkpt lat="45.4090663" lon="10.5398396"><ele>133.0</ele><time>2026-04-20T10:54:08.006Z</time></trkpt><trkpt lat="45.4090637" lon="10.5399343"><ele>133.0</ele><time>2026-04-20T10:54:31.006Z</time></trkpt><trkpt lat="45.408975" lon="10.5399319"><ele>133.0</ele><time>2026-04-20T10:54:41.999Z</time></trkpt><trkpt lat="45.4089566" lon="10.5398448"><ele>133.0</ele><time>2026-04-20T10:54:58Z</time></trkpt><trkpt lat="45.4089441" lon="10.5397564"><ele>133.0</ele><time>2026-04-20T10:55:47.997Z</time></trkpt><trkpt lat="45.4088782" lon="10.5397731"><ele>133.0</ele><time>2026-04-20T10:55:59.007Z</time></trkpt><trkpt lat="45.4087937" lon="10.5397549"><ele>133.0</ele><time>2026-04-20T10:56:19.998Z</time></trkpt><trkpt lat="45.4088751" lon="10.5397884"><ele>133.0</ele><time>2026-04-20T10:56:39.01Z</time></trkpt><trkpt lat="45.4089382" lon="10.5397342"><ele>133.0</ele><time>2026-04-20T10:57:51Z</time></trkpt><trkpt lat="45.4089305" lon="10.5398414"><ele>133.0</ele><time>2026-04-20T10:58:25.008Z</time></trkpt><trkpt lat="45.4089983" lon="10.5398617"><ele>133.0</ele><time>2026-04-20T10:59:41.003Z</time></trkpt><trkpt lat="45.4089317" lon="10.53978"><ele>133.0</ele><time>2026-04-20T11:02:06.007Z</time></trkpt><trkpt lat="45.4088886" lon="10.5398474"><ele>133.0</ele><time>2026-04-20T11:02:55.999Z</time></trkpt><trkpt lat="45.4089007" lon="10.5397515"><ele>133.0</ele><time>2026-04-20T11:04:38.003Z</time></trkpt><trkpt lat="45.4088512" lon="10.539816"><ele>133.0</ele><time>2026-04-20T11:05:38.999Z</time></trkpt><trkpt lat="45.4088083" lon="10.5398845"><ele>133.0</ele><time>2026-04-20T11:05:42.003Z</time></trkpt><trkpt lat="45.4088118" lon="10.5397654"><ele>133.0</ele><time>2026-04-20T11:05:59.999Z</time></trkpt><trkpt lat="45.4088022" lon="10.5399116"><ele>133.0</ele><time>2026-04-20T11:06:22Z</time></trkpt><trkpt lat="45.4088942" lon="10.5398994"><ele>133.0</ele><time>2026-04-20T11:06:44.999Z</time></trkpt><trkpt lat="45.4089602" lon="10.5398537"><ele>133.0</ele><time>2026-04-20T11:07:12.004Z</time></trkpt><trkpt lat="45.4089693" lon="10.5397559"><ele>133.0</ele><time>2026-04-20T11:07:26Z</time></trkpt><trkpt lat="45.4089066" lon="10.5397399"><ele>133.0</ele><time>2026-04-20T11:07:49.999Z</time></trkpt><trkpt lat="45.4089774" lon="10.5397847"><ele>133.0</ele><time>2026-04-20T11:14:02.997Z</time></trkpt><trkpt lat="45.4088869" lon="10.5398052"><ele>133.0</ele><time>2026-04-20T11:18:36.005Z</time></trkpt><trkpt lat="45.4089806" lon="10.5398012"><ele>133.0</ele><time>2026-04-20T11:19:13Z</time></trkpt><trkpt lat="45.4089171" lon="10.539795"><ele>133.0</ele><time>2026-04-20T11:22:41.007Z</time></trkpt><trkpt lat="45.4089681" lon="10.5398496"><ele>133.0</ele><time>2026-04-20T11:24:16Z</time></trkpt><trkpt lat="45.4089585" lon="10.5397506"><ele>133.0</ele><time>2026-04-20T11:30:33.998Z</time></trkpt><trkpt lat="45.4090129" lon="10.5397998"><ele>133.0</ele><time>2026-04-20T11:32:46Z</time></trkpt><trkpt lat="45.4089572" lon="10.539842"><ele>133.0</ele><time>2026-04-20T11:34:11.009Z</time></trkpt><trkpt lat="45.4088807" lon="10.5397829"><ele>133.0</ele><time>2026-04-20T11:35:32.006Z</time></trkpt><trkpt lat="45.4088439" lon="10.5397034"><ele>133.0</ele><time>2026-04-20T11:35:42.995Z</time></trkpt><trkpt lat="45.4089021" lon="10.5397399"><ele>133.0</ele><time>2026-04-20T11:36:07.999Z</time></trkpt><trkpt lat="45.4089935" lon="10.5397506"><ele>133.0</ele><time>2026-04-20T11:38:40Z</time></trkpt><trkpt lat="45.4089014" lon="10.5397599"><ele>133.0</ele><time>2026-04-20T11:38:56.006Z</time></trkpt><trkpt lat="45.4089946" lon="10.5397817"><ele>133.0</ele><time>2026-04-20T11:40:12.999Z</time></trkpt><trkpt lat="45.4089243" lon="10.5397626"><ele>133.0</ele><time>2026-04-20T11:40:52.999Z</time></trkpt><trkpt lat="45.4089875" lon="10.5397559"><ele>133.0</ele><time>2026-04-20T11:43:46.009Z</time></trkpt><trkpt lat="45.4090795" lon="10.5397352"><ele>133.0</ele><time>2026-04-20T11:46:21.005Z</time></trkpt><trkpt lat="45.4089839" lon="10.5397458"><ele>133.0</ele><time>2026-04-20T11:47:23Z</time></trkpt><trkpt lat="45.4090601" lon="10.5397244"><ele>133.0</ele><time>2026-04-20T11:47:53.998Z</time></trkpt><trkpt lat="45.4089917" lon="10.539741"><ele>133.0</ele><time>2026-04-20T11:49:34.996Z</time></trkpt><trkpt lat="45.4090712" lon="10.5397408"><ele>133.0</ele><time>2026-04-20T11:50:09.001Z</time></trkpt><trkpt lat="45.4090024" lon="10.5397342"><ele>133.0</ele><time>2026-04-20T11:51:37.007Z</time></trkpt><trkpt lat="45.4089564" lon="10.5396724"><ele>133.0</ele><time>2026-04-20T11:53:19.998Z</time></trkpt><trkpt lat="45.4090254" lon="10.5396273"><ele>133.0</ele><time>2026-04-20T11:54:13.005Z</time></trkpt><trkpt lat="45.4090624" lon="10.5397002"><ele>133.0</ele><time>2026-04-20T11:54:22.996Z</time></trkpt><trkpt lat="45.4091241" lon="10.5396323"><ele>133.0</ele><time>2026-04-20T11:54:43.997Z</time></trkpt><trkpt lat="45.4090633" lon="10.5395908"><ele>133.0</ele><time>2026-04-20T11:55:19.004Z</time></trkpt><trkpt lat="45.4090245" lon="10.5396635"><ele>133.0</ele><time>2026-04-20T11:56:26Z</time></trkpt><trkpt lat="45.4089646" lon="10.5396962"><ele>133.0</ele><time>2026-04-20T11:56:32.008Z</time></trkpt><trkpt lat="45.4090314" lon="10.5397125"><ele>133.0</ele><time>2026-04-20T11:57:17.013Z</time></trkpt><trkpt lat="45.4089685" lon="10.5397207"><ele>133.0</ele><time>2026-04-20T12:00:03.998Z</time></trkpt><trkpt lat="45.4090175" lon="10.5397888"><ele>133.0</ele><time>2026-04-20T12:00:13.995Z</time></trkpt><trkpt lat="45.4089534" lon="10.5398078"><ele>133.0</ele><time>2026-04-20T12:01:24.003Z</time></trkpt><trkpt lat="45.4090317" lon="10.5398327"><ele>133.0</ele><time>2026-04-20T12:02:04.003Z</time></trkpt><trkpt lat="45.4089679" lon="10.5398041"><ele>133.0</ele><time>2026-04-20T12:03:32.999Z</time></trkpt><trkpt lat="45.4090521" lon="10.5397673"><ele>133.0</ele><time>2026-04-20T12:05:29.006Z</time></trkpt><trkpt lat="45.4089866" lon="10.5398136"><ele>133.0</ele><time>2026-04-20T12:06:37.998Z</time></trkpt><trkpt lat="45.4090542" lon="10.5398572"><ele>133.0</ele><time>2026-04-20T12:07:18.997Z</time></trkpt><trkpt lat="45.4089939" lon="10.5398235"><ele>133.0</ele><time>2026-04-20T12:08:44.002Z</time></trkpt><trkpt lat="45.4089842" lon="10.5397255"><ele>133.0</ele><time>2026-04-20T12:12:31Z</time></trkpt><trkpt lat="45.4089635" lon="10.5398166"><ele>133.0</ele><time>2026-04-20T12:14:26.005Z</time></trkpt><trkpt lat="45.4090601" lon="10.5398175"><ele>133.0</ele><time>2026-04-20T12:17:59.994Z</time></trkpt><trkpt lat="45.4089602" lon="10.5397966"><ele>133.0</ele><time>2026-04-20T12:19:17.001Z</time></trkpt><trkpt lat="45.4089646" lon="10.5398915"><ele>133.0</ele><time>2026-04-20T12:20:28.001Z</time></trkpt><trkpt lat="45.4089695" lon="10.5397987"><ele>133.0</ele><time>2026-04-20T12:21:17.005Z</time></trkpt><trkpt lat="45.4089228" lon="10.5398804"><ele>133.0</ele><time>2026-04-20T12:26:56.999Z</time></trkpt><trkpt lat="45.4088507" lon="10.5398958"><ele>133.0</ele><time>2026-04-20T12:27:05.998Z</time></trkpt><trkpt lat="45.4088863" lon="10.5397994"><ele>133.0</ele><time>2026-04-20T12:27:23.999Z</time></trkpt><trkpt lat="45.408961" lon="10.5398338"><ele>133.0</ele><time>2026-04-20T12:28:01.998Z</time></trkpt><trkpt lat="45.4089599" lon="10.5399362"><ele>133.0</ele><time>2026-04-20T12:29:05.006Z</time></trkpt><trkpt lat="45.4088929" lon="10.5399251"><ele>133.0</ele><time>2026-04-20T12:29:29.005Z</time></trkpt><trkpt lat="45.4089387" lon="10.5398614"><ele>133.0</ele><time>2026-04-20T12:29:39.997Z</time></trkpt><trkpt lat="45.4090191" lon="10.5397802"><ele>133.0</ele><time>2026-04-20T12:30:01.006Z</time></trkpt><trkpt lat="45.4089234" lon="10.5398064"><ele>133.0</ele><time>2026-04-20T12:35:15.996Z</time></trkpt><trkpt lat="45.4088737" lon="10.5397488"><ele>133.0</ele><time>2026-04-20T12:37:49.998Z</time></trkpt><trkpt lat="45.4089465" lon="10.5398258"><ele>133.0</ele><time>2026-04-20T12:40:51.996Z</time></trkpt><trkpt lat="45.4090346" lon="10.5398196"><ele>133.0</ele><time>2026-04-20T12:42:36.996Z</time></trkpt><trkpt lat="45.4089504" lon="10.5398226"><ele>133.0</ele><time>2026-04-20T12:43:42.995Z</time></trkpt><trkpt lat="45.4088834" lon="10.5398004"><ele>133.0</ele><time>2026-04-20T12:44:04.004Z</time></trkpt><trkpt lat="45.408948" lon="10.5398067"><ele>133.0</ele><time>2026-04-20T12:44:44.005Z</time></trkpt><trkpt lat="45.4090562" lon="10.5398195"><ele>133.0</ele><time>2026-04-20T12:44:56.997Z</time></trkpt><trkpt lat="45.409134" lon="10.5398312"><ele>133.0</ele><time>2026-04-20T12:44:59Z</time></trkpt><trkpt lat="45.4090059" lon="10.5398807"><ele>133.0</ele><time>2026-04-20T12:45:56.004Z</time></trkpt><trkpt lat="45.4090548" lon="10.539796"><ele>133.0</ele><time>2026-04-20T12:46:49.997Z</time></trkpt><trkpt lat="45.4090003" lon="10.539851"><ele>133.0</ele><time>2026-04-20T12:48:44.996Z</time></trkpt><trkpt lat="45.4089456" lon="10.5397992"><ele>133.0</ele><time>2026-04-20T12:49:23.996Z</time></trkpt><trkpt lat="45.4089983" lon="10.5398517"><ele>133.0</ele><time>2026-04-20T12:56:51.993Z</time></trkpt><trkpt lat="45.408983" lon="10.539755"><ele>133.0</ele><time>2026-04-20T12:58:29.996Z</time></trkpt><trkpt lat="45.4090576" lon="10.5396948"><ele>133.0</ele><time>2026-04-20T12:58:55.996Z</time></trkpt><trkpt lat="45.4089944" lon="10.5397495"><ele>133.0</ele><time>2026-04-20T12:59:14.004Z</time></trkpt><trkpt lat="45.4090563" lon="10.5397705"><ele>133.0</ele><time>2026-04-20T13:11:47.992Z</time></trkpt><trkpt lat="45.4089814" lon="10.5397657"><ele>133.0</ele><time>2026-04-20T13:12:11.998Z</time></trkpt><trkpt lat="45.409077" lon="10.5397876"><ele>133.0</ele><time>2026-04-20T13:15:23.998Z</time></trkpt><trkpt lat="45.4090452" lon="10.5398688"><ele>133.0</ele><time>2026-04-20T13:15:47.992Z</time></trkpt><trkpt lat="45.408973" lon="10.5398087"><ele>133.0</ele><time>2026-04-20T13:17:26.001Z</time></trkpt><trkpt lat="45.4089138" lon="10.5398454"><ele>133.0</ele><time>2026-04-20T13:17:32.002Z</time></trkpt><trkpt lat="45.409" lon="10.539821"><ele>133.0</ele><time>2026-04-20T13:17:44.993Z</time></trkpt><trkpt lat="45.4089294" lon="10.5398215"><ele>133.0</ele><time>2026-04-20T13:18:09.992Z</time></trkpt><trkpt lat="45.4088416" lon="10.539837"><ele>133.0</ele><time>2026-04-20T13:18:13.005Z</time></trkpt><trkpt lat="45.4087931" lon="10.5398942"><ele>133.0</ele><time>2026-04-20T13:18:23.001Z</time></trkpt><trkpt lat="45.4088733" lon="10.5399302"><ele>133.0</ele><time>2026-04-20T13:18:30.997Z</time></trkpt><trkpt lat="45.4089649" lon="10.5398646"><ele>133.0</ele><time>2026-04-20T13:18:57.993Z</time></trkpt><trkpt lat="45.4089487" lon="10.5397604"><ele>133.0</ele><time>2026-04-20T13:21:54.002Z</time></trkpt><trkpt lat="45.4090136" lon="10.5397274"><ele>133.0</ele><time>2026-04-20T13:23:57.992Z</time></trkpt><trkpt lat="45.4090895" lon="10.5397488"><ele>133.0</ele><time>2026-04-20T13:25:22.998Z</time></trkpt><trkpt lat="45.4091001" lon="10.5398511"><ele>133.0</ele><time>2026-04-20T13:25:42.998Z</time></trkpt><trkpt lat="45.4090845" lon="10.5397595"><ele>133.0</ele><time>2026-04-20T13:25:52.996Z</time></trkpt><trkpt lat="45.4090169" lon="10.5398268"><ele>133.0</ele><time>2026-04-20T13:26:40.997Z</time></trkpt><trkpt lat="45.4090741" lon="10.5398711"><ele>133.0</ele><time>2026-04-20T13:26:48.994Z</time></trkpt><trkpt lat="45.4091541" lon="10.5399053"><ele>133.0</ele><time>2026-04-20T13:26:56.994Z</time></trkpt><trkpt lat="45.4090739" lon="10.5398761"><ele>133.0</ele><time>2026-04-20T13:27:08.999Z</time></trkpt><trkpt lat="45.4090119" lon="10.5398167"><ele>133.0</ele><time>2026-04-20T13:27:11.999Z</time></trkpt><trkpt lat="45.4090341" lon="10.5399022"><ele>133.0</ele><time>2026-04-20T13:30:08.996Z</time></trkpt><trkpt lat="45.4091123" lon="10.5399446"><ele>133.0</ele><time>2026-04-20T13:30:20.992Z</time></trkpt><trkpt lat="45.4090666" lon="10.5398658"><ele>133.0</ele><time>2026-04-20T13:30:45.997Z</time></trkpt><trkpt lat="45.4089875" lon="10.5398252"><ele>133.0</ele><time>2026-04-20T13:30:50.998Z</time></trkpt><trkpt lat="45.4089247" lon="10.5397937"><ele>133.0</ele><time>2026-04-20T13:31:07.997Z</time></trkpt><trkpt lat="45.4088694" lon="10.5397344"><ele>133.0</ele><time>2026-04-20T13:31:22.001Z</time></trkpt><trkpt lat="45.4087889" lon="10.5396881"><ele>133.0</ele><time>2026-04-20T13:31:27.996Z</time></trkpt><trkpt lat="45.4088553" lon="10.5396199"><ele>133.0</ele><time>2026-04-20T13:32:05.989Z</time></trkpt><trkpt lat="45.4089302" lon="10.5396557"><ele>133.0</ele><time>2026-04-20T13:32:20.002Z</time></trkpt><trkpt lat="45.4088517" lon="10.5396455"><ele>133.0</ele><time>2026-04-20T13:33:46.997Z</time></trkpt><trkpt lat="45.4089461" lon="10.5397336"><ele>133.0</ele><time>2026-04-20T13:34:43.998Z</time></trkpt><trkpt lat="45.4089823" lon="10.5398258"><ele>133.0</ele><time>2026-04-20T13:35:00.992Z</time></trkpt><trkpt lat="45.4089214" lon="10.5397918"><ele>133.0</ele><time>2026-04-20T13:35:16.006Z</time></trkpt><trkpt lat="45.4089004" lon="10.5396846"><ele>133.0</ele><time>2026-04-20T13:36:10.994Z</time></trkpt><trkpt lat="45.4089943" lon="10.5396698"><ele>133.0</ele><time>2026-04-20T13:37:33.987Z</time></trkpt><trkpt lat="45.4090085" lon="10.5397574"><ele>133.0</ele><time>2026-04-20T13:37:59.995Z</time></trkpt><trkpt lat="45.4089626" lon="10.5396917"><ele>133.0</ele><time>2026-04-20T13:38:08.001Z</time></trkpt><trkpt lat="45.4088994" lon="10.5396441"><ele>133.0</ele><time>2026-04-20T13:38:31.995Z</time></trkpt><trkpt lat="45.4089764" lon="10.5396621"><ele>133.0</ele><time>2026-04-20T13:42:11.999Z</time></trkpt><trkpt lat="45.4090492" lon="10.5397333"><ele>133.0</ele><time>2026-04-20T13:42:14.005Z</time></trkpt><trkpt lat="45.4089301" lon="10.5397445"><ele>133.0</ele><time>2026-04-20T13:42:30.001Z</time></trkpt><trkpt lat="45.4089503" lon="10.5398533"><ele>133.0</ele><time>2026-04-20T13:43:08.004Z</time></trkpt><trkpt lat="45.4090106" lon="10.5398266"><ele>133.0</ele><time>2026-04-20T13:43:34.99Z</time></trkpt><trkpt lat="45.4089612" lon="10.5397707"><ele>133.0</ele><time>2026-04-20T13:43:46.995Z</time></trkpt><trkpt lat="45.409016" lon="10.539717"><ele>133.0</ele><time>2026-04-20T13:43:54.994Z</time></trkpt><trkpt lat="45.409042" lon="10.5396315"><ele>133.0</ele><time>2026-04-20T13:44:02.99Z</time></trkpt><trkpt lat="45.4089882" lon="10.5395598"><ele>133.0</ele><time>2026-04-20T13:44:13.001Z</time></trkpt><trkpt lat="45.4089855" lon="10.5396583"><ele>133.0</ele><time>2026-04-20T13:45:11.997Z</time></trkpt><trkpt lat="45.4090346" lon="10.5397236"><ele>133.0</ele><time>2026-04-20T13:45:32.992Z</time></trkpt><trkpt lat="45.408967" lon="10.5397585"><ele>133.0</ele><time>2026-04-20T13:45:48.99Z</time></trkpt><trkpt lat="45.4089004" lon="10.5397552"><ele>133.0</ele><time>2026-04-20T13:46:18.996Z</time></trkpt><trkpt lat="45.4088372" lon="10.539797"><ele>133.0</ele><time>2026-04-20T13:46:24.997Z</time></trkpt><trkpt lat="45.408792" lon="10.5398641"><ele>133.0</ele><time>2026-04-20T13:46:38.997Z</time></trkpt><trkpt lat="45.4088511" lon="10.5398203"><ele>133.0</ele><time>2026-04-20T13:46:51.991Z</time></trkpt><trkpt lat="45.4089275" lon="10.5397911"><ele>133.0</ele><time>2026-04-20T13:47:26.991Z</time></trkpt><trkpt lat="45.4089783" lon="10.5398574"><ele>133.0</ele><time>2026-04-20T13:49:32.996Z</time></trkpt><trkpt lat="45.4090423" lon="10.5398824"><ele>133.0</ele><time>2026-04-20T13:50:00.989Z</time></trkpt><trkpt lat="45.4089979" lon="10.5398138"><ele>133.0</ele><time>2026-04-20T13:50:53.998Z</time></trkpt><trkpt lat="45.4090503" lon="10.5398791"><ele>133.0</ele><time>2026-04-20T13:53:31.997Z</time></trkpt><trkpt lat="45.4090019" lon="10.5398194"><ele>133.0</ele><time>2026-04-20T13:54:04.991Z</time></trkpt><trkpt lat="45.4089604" lon="10.5398909"><ele>133.0</ele><time>2026-04-20T13:54:39.994Z</time></trkpt><trkpt lat="45.4089125" lon="10.5399534"><ele>133.0</ele><time>2026-04-20T13:54:57.001Z</time></trkpt><trkpt lat="45.4088492" lon="10.5399877"><ele>133.0</ele><time>2026-04-20T13:55:23.997Z</time></trkpt><trkpt lat="45.4089135" lon="10.5399249"><ele>133.0</ele><time>2026-04-20T13:55:51.994Z</time></trkpt><trkpt lat="45.4089986" lon="10.5399023"><ele>133.0</ele><time>2026-04-20T13:56:45.997Z</time></trkpt><trkpt lat="45.4089552" lon="10.5398373"><ele>133.0</ele><time>2026-04-20T13:57:08.996Z</time></trkpt><trkpt lat="45.4090189" lon="10.5398904"><ele>133.0</ele><time>2026-04-20T13:57:48.999Z</time></trkpt><trkpt lat="45.408938" lon="10.539847"><ele>133.0</ele><time>2026-04-20T13:58:14.001Z</time></trkpt><trkpt lat="45.4088716" lon="10.539923"><ele>133.0</ele><time>2026-04-20T14:02:42.999Z</time></trkpt><trkpt lat="45.4089654" lon="10.5398411"><ele>133.0</ele><time>2026-04-20T14:03:37.995Z</time></trkpt><trkpt lat="45.4089622" lon="10.5397488"><ele>133.0</ele><time>2026-04-20T14:04:04.999Z</time></trkpt><trkpt lat="45.4089884" lon="10.5398338"><ele>133.0</ele><time>2026-04-20T14:05:13.998Z</time></trkpt><trkpt lat="45.4089392" lon="10.539772"><ele>133.0</ele><time>2026-04-20T14:18:12.991Z</time></trkpt><trkpt lat="45.4090065" lon="10.5398095"><ele>133.0</ele><time>2026-04-20T14:22:48.993Z</time></trkpt><trkpt lat="45.4090756" lon="10.5398335"><ele>133.0</ele><time>2026-04-20T14:23:18Z</time></trkpt><trkpt lat="45.4091406" lon="10.5398586"><ele>133.0</ele><time>2026-04-20T14:23:22.984Z</time></trkpt><trkpt lat="45.4092014" lon="10.5398845"><ele>133.0</ele><time>2026-04-20T14:23:24.996Z</time></trkpt><trkpt lat="45.4092664" lon="10.5399079"><ele>133.0</ele><time>2026-04-20T14:23:27.99Z</time></trkpt><trkpt lat="45.4091926" lon="10.5399016"><ele>133.0</ele><time>2026-04-20T14:23:34.994Z</time></trkpt><trkpt lat="45.409116" lon="10.5398506"><ele>133.0</ele><time>2026-04-20T14:23:38.991Z</time></trkpt><trkpt lat="45.4090303" lon="10.5397794"><ele>133.0</ele><time>2026-04-20T14:24:25.989Z</time></trkpt><trkpt lat="45.4089952" lon="10.539704"><ele>133.0</ele><time>2026-04-20T14:25:28.995Z</time></trkpt><trkpt lat="45.4089415" lon="10.5397626"><ele>133.0</ele><time>2026-04-20T14:25:40.996Z</time></trkpt><trkpt lat="45.4089476" lon="10.5398538"><ele>133.0</ele><time>2026-04-20T14:26:47.997Z</time></trkpt><trkpt lat="45.4088917" lon="10.5398971"><ele>133.0</ele><time>2026-04-20T14:26:54.998Z</time></trkpt><trkpt lat="45.4089437" lon="10.5397594"><ele>133.0</ele><time>2026-04-20T14:27:31.991Z</time></trkpt><trkpt lat="45.4089006" lon="10.5398301"><ele>133.0</ele><time>2026-04-20T14:28:11.991Z</time></trkpt><trkpt lat="45.4089669" lon="10.5398656"><ele>133.0</ele><time>2026-04-20T14:30:19.998Z</time></trkpt><trkpt lat="45.4090532" lon="10.5398861"><ele>133.0</ele><time>2026-04-20T14:30:30.991Z</time></trkpt><trkpt lat="45.4090169" lon="10.5397788"><ele>133.0</ele><time>2026-04-20T14:30:42.997Z</time></trkpt><trkpt lat="45.4089454" lon="10.5398351"><ele>133.0</ele><time>2026-04-20T14:37:09.989Z</time></trkpt><trkpt lat="45.4090128" lon="10.5398455"><ele>133.0</ele><time>2026-04-20T14:38:26.997Z</time></trkpt><trkpt lat="45.4090953" lon="10.539843"><ele>133.0</ele><time>2026-04-20T14:38:48.991Z</time></trkpt><trkpt lat="45.4090351" lon="10.5398062"><ele>133.0</ele><time>2026-04-20T14:39:29.994Z</time></trkpt><trkpt lat="45.4089911" lon="10.5397368"><ele>133.0</ele><time>2026-04-20T14:41:43.999Z</time></trkpt><trkpt lat="45.4089293" lon="10.5397708"><ele>133.0</ele><time>2026-04-20T14:41:48.996Z</time></trkpt><trkpt lat="45.4088707" lon="10.5398233"><ele>133.0</ele><time>2026-04-20T14:42:04.999Z</time></trkpt><trkpt lat="45.4089378" lon="10.5398247"><ele>133.0</ele><time>2026-04-20T14:43:14.989Z</time></trkpt><trkpt lat="45.4090208" lon="10.5397478"><ele>133.0</ele><time>2026-04-20T14:44:09.979Z</time></trkpt><trkpt lat="45.4091245" lon="10.5397181"><ele>133.0</ele><time>2026-04-20T14:44:23.992Z</time></trkpt><trkpt lat="45.4091993" lon="10.5396835"><ele>133.0</ele><time>2026-04-20T14:44:26.987Z</time></trkpt><trkpt lat="45.4091442" lon="10.5397451"><ele>133.0</ele><time>2026-04-20T14:44:45.993Z</time></trkpt><trkpt lat="45.4090813" lon="10.539773"><ele>133.0</ele><time>2026-04-20T14:44:51.999Z</time></trkpt><trkpt lat="45.4090176" lon="10.5397828"><ele>133.0</ele><time>2026-04-20T14:45:05.999Z</time></trkpt><trkpt lat="45.4089529" lon="10.5397988"><ele>133.0</ele><time>2026-04-20T14:45:10.993Z</time></trkpt><trkpt lat="45.4090395" lon="10.5397875"><ele>133.0</ele><time>2026-04-20T14:46:15.984Z</time></trkpt><trkpt lat="45.4089623" lon="10.5398033"><ele>133.0</ele><time>2026-04-20T14:47:15.993Z</time></trkpt><trkpt lat="45.4088876" lon="10.5398406"><ele>133.0</ele><time>2026-04-20T14:48:14.995Z</time></trkpt><trkpt lat="45.4089083" lon="10.5397543"><ele>133.0</ele><time>2026-04-20T14:50:45.99Z</time></trkpt><trkpt lat="45.4089175" lon="10.5398592"><ele>133.0</ele><time>2026-04-20T14:52:08.999Z</time></trkpt><trkpt lat="45.4088781" lon="10.5397473"><ele>133.0</ele><time>2026-04-20T14:53:56.003Z</time></trkpt><trkpt lat="45.408935" lon="10.5397019"><ele>133.0</ele><time>2026-04-20T14:54:40.989Z</time></trkpt><trkpt lat="45.4088731" lon="10.5397502"><ele>133.0</ele><time>2026-04-20T14:55:23.994Z</time></trkpt><trkpt lat="45.4088799" lon="10.5398399"><ele>133.0</ele><time>2026-04-20T14:56:35.997Z</time></trkpt><trkpt lat="45.4088644" lon="10.5397362"><ele>133.0</ele><time>2026-04-20T14:58:59.99Z</time></trkpt><trkpt lat="45.4087904" lon="10.53974"><ele>133.0</ele><time>2026-04-20T14:59:12.002Z</time></trkpt><trkpt lat="45.4088902" lon="10.5397703"><ele>133.0</ele><time>2026-04-20T15:00:56.997Z</time></trkpt><trkpt lat="45.4089838" lon="10.5397643"><ele>133.0</ele><time>2026-04-20T15:02:17.997Z</time></trkpt><trkpt lat="45.4088993" lon="10.5397801"><ele>133.0</ele><time>2026-04-20T15:02:32.989Z</time></trkpt><trkpt lat="45.408813" lon="10.5397817"><ele>133.0</ele><time>2026-04-20T15:02:36.995Z</time></trkpt><trkpt lat="45.4087448" lon="10.539776"><ele>133.0</ele><time>2026-04-20T15:02:44.002Z</time></trkpt><trkpt lat="45.4088569" lon="10.5398094"><ele>133.0</ele><time>2026-04-20T15:02:45.999Z</time></trkpt><trkpt lat="45.4088037" lon="10.53976"><ele>133.0</ele><time>2026-04-20T15:03:13.989Z</time></trkpt><trkpt lat="45.4089248" lon="10.5397761"><ele>133.0</ele><time>2026-04-20T15:03:44.99Z</time></trkpt><trkpt lat="45.4089862" lon="10.5397285"><ele>133.0</ele><time>2026-04-20T15:03:55.998Z</time></trkpt><trkpt lat="45.4089421" lon="10.5398029"><ele>133.0</ele><time>2026-04-20T15:04:32.988Z</time></trkpt><trkpt lat="45.4088908" lon="10.5397168"><ele>133.0</ele><time>2026-04-20T15:04:50.989Z</time></trkpt><trkpt lat="45.4089067" lon="10.539836"><ele>133.0</ele><time>2026-04-20T15:05:04.989Z</time></trkpt><trkpt lat="45.4088579" lon="10.5397714"><ele>133.0</ele><time>2026-04-20T15:05:10.997Z</time></trkpt><trkpt lat="45.4089292" lon="10.5397943"><ele>133.0</ele><time>2026-04-20T15:05:29.989Z</time></trkpt><trkpt lat="45.4089867" lon="10.5398716"><ele>133.0</ele><time>2026-04-20T15:05:33.996Z</time></trkpt><trkpt lat="45.4089303" lon="10.5398241"><ele>133.0</ele><time>2026-04-20T15:06:08.987Z</time></trkpt><trkpt lat="45.4088739" lon="10.539778"><ele>133.0</ele><time>2026-04-20T15:06:19.991Z</time></trkpt><trkpt lat="45.408906" lon="10.5398817"><ele>133.0</ele><time>2026-04-20T15:07:31.991Z</time></trkpt><trkpt lat="45.4088276" lon="10.5398388"><ele>131.5</ele><time>2026-04-20T15:07:47.994Z</time></trkpt><trkpt lat="45.4087707" lon="10.5397946"><ele>130.0</ele><time>2026-04-20T15:08:02.998Z</time></trkpt><trkpt lat="45.4087062" lon="10.5397546"><ele>128.5</ele><time>2026-04-20T15:08:11.99Z</time></trkpt><trkpt lat="45.4086466" lon="10.5397094"><ele>127.0</ele><time>2026-04-20T15:08:16.99Z</time></trkpt><trkpt lat="45.4087493" lon="10.5398439"><ele>125.50000000000001</ele><time>2026-04-20T15:08:46.988Z</time></trkpt><trkpt lat="45.4088232" lon="10.5398789"><ele>124.0</ele><time>2026-04-20T15:08:54.987Z</time></trkpt><trkpt lat="45.4087584" lon="10.5399217"><ele>125.50000000000001</ele><time>2026-04-20T15:09:18.991Z</time></trkpt><trkpt lat="45.4088273" lon="10.539931"><ele>127.0</ele><time>2026-04-20T15:09:34.991Z</time></trkpt><trkpt lat="45.4088959" lon="10.5399845"><ele>128.5</ele><time>2026-04-20T15:09:41.987Z</time></trkpt><trkpt lat="45.4089698" lon="10.5400558"><ele>130.0</ele><time>2026-04-20T15:09:48.002Z</time></trkpt><trkpt lat="45.4088936" lon="10.5400595"><ele>131.5</ele><time>2026-04-20T15:09:58.99Z</time></trkpt><trkpt lat="45.4088376" lon="10.5400181"><ele>133.0</ele><time>2026-04-20T15:10:04.987Z</time></trkpt><trkpt lat="45.4089332" lon="10.5398779"><ele>133.0</ele><time>2026-04-20T15:11:41Z</time></trkpt><trkpt lat="45.4088717" lon="10.5398364"><ele>133.0</ele><time>2026-04-20T15:12:42.99Z</time></trkpt><trkpt lat="45.4089373" lon="10.539793"><ele>133.0</ele><time>2026-04-20T15:13:10.993Z</time></trkpt><trkpt lat="45.4089611" lon="10.5398822"><ele>133.0</ele><time>2026-04-20T15:13:35.993Z</time></trkpt><trkpt lat="45.4088916" lon="10.5398486"><ele>133.0</ele><time>2026-04-20T15:13:40.997Z</time></trkpt><trkpt lat="45.4088161" lon="10.5398509"><ele>133.0</ele><time>2026-04-20T15:14:08.988Z</time></trkpt><trkpt lat="45.4087149" lon="10.5397764"><ele>133.0</ele><time>2026-04-20T15:14:30.993Z</time></trkpt><trkpt lat="45.4087719" lon="10.5398468"><ele>133.0</ele><time>2026-04-20T15:14:38.99Z</time></trkpt><trkpt lat="45.4088659" lon="10.539797"><ele>133.0</ele><time>2026-04-20T15:15:38.001Z</time></trkpt><trkpt lat="45.4087535" lon="10.5397586"><ele>133.0</ele><time>2026-04-20T15:16:18.993Z</time></trkpt><trkpt lat="45.4086854" lon="10.5396775"><ele>133.0</ele><time>2026-04-20T15:17:22.996Z</time></trkpt><trkpt lat="45.4087476" lon="10.5397075"><ele>133.0</ele><time>2026-04-20T15:17:47.999Z</time></trkpt><trkpt lat="45.4088401" lon="10.5397745"><ele>133.0</ele><time>2026-04-20T15:17:58.991Z</time></trkpt><trkpt lat="45.4089363" lon="10.539762"><ele>133.0</ele><time>2026-04-20T15:20:09.988Z</time></trkpt><trkpt lat="45.4088742" lon="10.5397837"><ele>133.0</ele><time>2026-04-20T15:20:41.987Z</time></trkpt><trkpt lat="45.4088271" lon="10.5398446"><ele>133.0</ele><time>2026-04-20T15:20:51.997Z</time></trkpt><trkpt lat="45.4087654" lon="10.5399148"><ele>133.0</ele><time>2026-04-20T15:21:02Z</time></trkpt><trkpt lat="45.4087983" lon="10.539835"><ele>133.0</ele><time>2026-04-20T15:21:20.986Z</time></trkpt><trkpt lat="45.4088663" lon="10.5398209"><ele>133.0</ele><time>2026-04-20T15:22:09.988Z</time></trkpt><trkpt lat="45.4089021" lon="10.5399071"><ele>133.0</ele><time>2026-04-20T15:25:40.989Z</time></trkpt><trkpt lat="45.4089715" lon="10.539964"><ele>133.0</ele><time>2026-04-20T15:26:22.992Z</time></trkpt><trkpt lat="45.4089603" lon="10.5398708"><ele>133.0</ele><time>2026-04-20T15:26:56.985Z</time></trkpt><trkpt lat="45.4090226" lon="10.5399292"><ele>133.0</ele><time>2026-04-20T15:27:35.987Z</time></trkpt><trkpt lat="45.4090941" lon="10.5399057"><ele>133.0</ele><time>2026-04-20T15:27:43.992Z</time></trkpt><trkpt lat="45.4090237" lon="10.5398526"><ele>133.0</ele><time>2026-04-20T15:28:13.001Z</time></trkpt><trkpt lat="45.4089683" lon="10.5397698"><ele>133.0</ele><time>2026-04-20T15:28:36.996Z</time></trkpt><trkpt lat="45.4088907" lon="10.5397651"><ele>133.0</ele><time>2026-04-20T15:29:07.997Z</time></trkpt><trkpt lat="45.4088939" lon="10.5398633"><ele>133.0</ele><time>2026-04-20T15:29:20.989Z</time></trkpt><trkpt lat="45.4089968" lon="10.5398817"><ele>133.0</ele><time>2026-04-20T15:29:37.988Z</time></trkpt><trkpt lat="45.4090607" lon="10.5398946"><ele>133.0</ele><time>2026-04-20T15:29:39.997Z</time></trkpt><trkpt lat="45.4089995" lon="10.5398494"><ele>133.0</ele><time>2026-04-20T15:30:08.989Z</time></trkpt><trkpt lat="45.4089393" lon="10.539818"><ele>133.0</ele><time>2026-04-20T15:30:29.989Z</time></trkpt><trkpt lat="45.4089067" lon="10.5397367"><ele>133.0</ele><time>2026-04-20T15:34:30.987Z</time></trkpt><trkpt lat="45.4089594" lon="10.539803"><ele>133.0</ele><time>2026-04-20T15:35:03.985Z</time></trkpt><trkpt lat="45.4089023" lon="10.5398647"><ele>133.0</ele><time>2026-04-20T15:35:31.995Z</time></trkpt><trkpt lat="45.4089784" lon="10.539899"><ele>133.0</ele><time>2026-04-20T15:36:16.987Z</time></trkpt><trkpt lat="45.4089175" lon="10.5398625"><ele>133.0</ele><time>2026-04-20T15:36:58.996Z</time></trkpt><trkpt lat="45.4088491" lon="10.5398388"><ele>133.0</ele><time>2026-04-20T15:37:41.992Z</time></trkpt><trkpt lat="45.4088959" lon="10.5397637"><ele>133.0</ele><time>2026-04-20T15:38:06.996Z</time></trkpt><trkpt lat="45.4089025" lon="10.53986"><ele>133.0</ele><time>2026-04-20T15:40:52.985Z</time></trkpt><trkpt lat="45.4088607" lon="10.5397905"><ele>133.0</ele><time>2026-04-20T15:41:24.986Z</time></trkpt><trkpt lat="45.4087791" lon="10.5397793"><ele>133.0</ele><time>2026-04-20T15:43:43.987Z</time></trkpt><trkpt lat="45.4088315" lon="10.5397175"><ele>133.0</ele><time>2026-04-20T15:43:49.985Z</time></trkpt><trkpt lat="45.4088922" lon="10.5397433"><ele>133.0</ele><time>2026-04-20T15:44:09.989Z</time></trkpt><trkpt lat="45.4088202" lon="10.5397559"><ele>133.0</ele><time>2026-04-20T15:44:39.984Z</time></trkpt><trkpt lat="45.4087471" lon="10.5397667"><ele>133.0</ele><time>2026-04-20T15:44:41.996Z</time></trkpt><trkpt lat="45.408682" lon="10.5397388"><ele>133.0</ele><time>2026-04-20T15:44:46.986Z</time></trkpt><trkpt lat="45.4087877" lon="10.5397533"><ele>133.0</ele><time>2026-04-20T15:45:11.986Z</time></trkpt><trkpt lat="45.4089911" lon="10.5397831"><ele>133.0</ele><time>2026-04-20T15:45:15.983Z</time></trkpt><trkpt lat="45.4090337" lon="10.5396876"><ele>133.0</ele><time>2026-04-20T15:45:40.991Z</time></trkpt><trkpt lat="45.4089628" lon="10.5397145"><ele>133.0</ele><time>2026-04-20T15:46:00.986Z</time></trkpt><trkpt lat="45.4089082" lon="10.5397884"><ele>133.0</ele><time>2026-04-20T15:46:04.993Z</time></trkpt><trkpt lat="45.4087943" lon="10.539876"><ele>133.0</ele><time>2026-04-20T15:46:21.989Z</time></trkpt><trkpt lat="45.4087072" lon="10.5398956"><ele>133.0</ele><time>2026-04-20T15:46:27.992Z</time></trkpt><trkpt lat="45.4087657" lon="10.5398475"><ele>133.0</ele><time>2026-04-20T15:47:38.984Z</time></trkpt><trkpt lat="45.4088416" lon="10.5397917"><ele>133.0</ele><time>2026-04-20T15:47:54.983Z</time></trkpt><trkpt lat="45.4089525" lon="10.5397472"><ele>133.0</ele><time>2026-04-20T15:50:12.984Z</time></trkpt><trkpt lat="45.4088815" lon="10.5397498"><ele>133.0</ele><time>2026-04-20T15:52:40.979Z</time></trkpt><trkpt lat="45.4089252" lon="10.5398184"><ele>133.0</ele><time>2026-04-20T15:53:01.995Z</time></trkpt><trkpt lat="45.4088993" lon="10.5399029"><ele>133.0</ele><time>2026-04-20T15:53:33.988Z</time></trkpt><trkpt lat="45.4088717" lon="10.5398"><ele>133.0</ele><time>2026-04-20T15:54:26.992Z</time></trkpt><trkpt lat="45.4089343" lon="10.5398314"><ele>133.0</ele><time>2026-04-20T16:01:01.988Z</time></trkpt><trkpt lat="45.4088621" lon="10.5397961"><ele>133.0</ele><time>2026-04-20T16:01:29.995Z</time></trkpt><trkpt lat="45.4088836" lon="10.5398815"><ele>133.0</ele><time>2026-04-20T16:02:05.988Z</time></trkpt><trkpt lat="45.4089508" lon="10.5398665"><ele>133.0</ele><time>2026-04-20T16:02:14.985Z</time></trkpt><trkpt lat="45.4090022" lon="10.5398075"><ele>133.0</ele><time>2026-04-20T16:10:45.991Z</time></trkpt><trkpt lat="45.4089364" lon="10.5397742"><ele>133.0</ele><time>2026-04-20T16:11:01.996Z</time></trkpt><trkpt lat="45.4090004" lon="10.5398182"><ele>133.0</ele><time>2026-04-20T16:12:00.985Z</time></trkpt><trkpt lat="45.4089328" lon="10.5398059"><ele>133.0</ele><time>2026-04-20T16:12:59.989Z</time></trkpt><trkpt lat="45.4089947" lon="10.5398628"><ele>133.0</ele><time>2026-04-20T16:17:09.985Z</time></trkpt><trkpt lat="45.4089282" lon="10.5398435"><ele>133.0</ele><time>2026-04-20T16:17:25.994Z</time></trkpt><trkpt lat="45.4088651" lon="10.5398141"><ele>133.0</ele><time>2026-04-20T16:19:15.991Z</time></trkpt><trkpt lat="45.4089424" lon="10.5398101"><ele>133.0</ele><time>2026-04-20T16:22:30.984Z</time></trkpt><trkpt lat="45.4089889" lon="10.5398972"><ele>133.0</ele><time>2026-04-20T16:24:10.996Z</time></trkpt><trkpt lat="45.4089924" lon="10.5397905"><ele>133.0</ele><time>2026-04-20T16:25:07.994Z</time></trkpt><trkpt lat="45.4089591" lon="10.5397117"><ele>133.0</ele><time>2026-04-20T16:26:04.994Z</time></trkpt><trkpt lat="45.4089435" lon="10.5398109"><ele>133.0</ele><time>2026-04-20T16:26:51.984Z</time></trkpt><trkpt lat="45.4090123" lon="10.5398358"><ele>133.0</ele><time>2026-04-20T16:32:38.985Z</time></trkpt><trkpt lat="45.4089376" lon="10.5398616"><ele>133.0</ele><time>2026-04-20T16:33:13.992Z</time></trkpt><trkpt lat="45.4088694" lon="10.5398923"><ele>133.0</ele><time>2026-04-20T16:33:49.984Z</time></trkpt><trkpt lat="45.4089457" lon="10.5398883"><ele>133.0</ele><time>2026-04-20T16:34:03.988Z</time></trkpt><trkpt lat="45.4089333" lon="10.5397638"><ele>133.0</ele><time>2026-04-20T16:34:33.989Z</time></trkpt><trkpt lat="45.4090241" lon="10.5397805"><ele>133.0</ele><time>2026-04-20T16:35:04.984Z</time></trkpt><trkpt lat="45.4090997" lon="10.5397101"><ele>133.0</ele><time>2026-04-20T16:35:12.984Z</time></trkpt><trkpt lat="45.4090436" lon="10.5397542"><ele>133.0</ele><time>2026-04-20T16:35:20.986Z</time></trkpt><trkpt lat="45.4090941" lon="10.539691"><ele>133.0</ele><time>2026-04-20T16:35:46.987Z</time></trkpt><trkpt lat="45.4090499" lon="10.5397743"><ele>133.0</ele><time>2026-04-20T16:35:59.992Z</time></trkpt><trkpt lat="45.4090371" lon="10.5398665"><ele>133.0</ele><time>2026-04-20T16:36:19.984Z</time></trkpt><trkpt lat="45.4089765" lon="10.5399099"><ele>133.0</ele><time>2026-04-20T16:36:41.981Z</time></trkpt><trkpt lat="45.4089163" lon="10.5398836"><ele>133.0</ele><time>2026-04-20T16:37:16.987Z</time></trkpt><trkpt lat="45.4088683" lon="10.5399443"><ele>133.0</ele><time>2026-04-20T16:37:19.992Z</time></trkpt><trkpt lat="45.408932" lon="10.5399003"><ele>133.0</ele><time>2026-04-20T16:37:33.988Z</time></trkpt><trkpt lat="45.4090007" lon="10.5399168"><ele>133.0</ele><time>2026-04-20T16:37:49.987Z</time></trkpt><trkpt lat="45.4089183" lon="10.5398674"><ele>133.0</ele><time>2026-04-20T16:38:02.985Z</time></trkpt><trkpt lat="45.4089716" lon="10.5399377"><ele>133.0</ele><time>2026-04-20T16:38:54.994Z</time></trkpt><trkpt lat="45.4090335" lon="10.539964"><ele>133.0</ele><time>2026-04-20T16:39:10.991Z</time></trkpt><trkpt lat="45.4089628" lon="10.5399616"><ele>133.0</ele><time>2026-04-20T16:39:48.986Z</time></trkpt><trkpt lat="45.4089316" lon="10.5398782"><ele>133.0</ele><time>2026-04-20T16:40:36.976Z</time></trkpt><trkpt lat="45.4088648" lon="10.5398186"><ele>133.0</ele><time>2026-04-20T16:41:02.985Z</time></trkpt><trkpt lat="45.4089205" lon="10.5398669"><ele>133.0</ele><time>2026-04-20T16:42:22.982Z</time></trkpt><trkpt lat="45.4088922" lon="10.5397792"><ele>133.0</ele><time>2026-04-20T16:43:48.992Z</time></trkpt><trkpt lat="45.4089796" lon="10.5398105"><ele>133.0</ele><time>2026-04-20T16:45:10.994Z</time></trkpt><trkpt lat="45.408914" lon="10.5398395"><ele>133.0</ele><time>2026-04-20T16:46:34.986Z</time></trkpt><trkpt lat="45.4088501" lon="10.5398356"><ele>133.0</ele><time>2026-04-20T16:48:30.984Z</time></trkpt><trkpt lat="45.4089666" lon="10.5398358"><ele>133.0</ele><time>2026-04-20T16:51:14.985Z</time></trkpt><trkpt lat="45.4089389" lon="10.5397543"><ele>133.0</ele><time>2026-04-20T16:51:59.985Z</time></trkpt><trkpt lat="45.4088754" lon="10.5397394"><ele>133.0</ele><time>2026-04-20T16:52:13.992Z</time></trkpt><trkpt lat="45.4089321" lon="10.5398084"><ele>133.0</ele><time>2026-04-20T16:52:24.99Z</time></trkpt><trkpt lat="45.4088638" lon="10.5398193"><ele>133.0</ele><time>2026-04-20T16:52:41.989Z</time></trkpt><trkpt lat="45.4088024" lon="10.5397826"><ele>133.0</ele><time>2026-04-20T16:52:45.983Z</time></trkpt><trkpt lat="45.4088498" lon="10.539846"><ele>133.0</ele><time>2026-04-20T16:53:55.995Z</time></trkpt><trkpt lat="45.408908" lon="10.5398865"><ele>133.0</ele><time>2026-04-20T16:53:58.986Z</time></trkpt><trkpt lat="45.4089728" lon="10.539922"><ele>133.0</ele><time>2026-04-20T16:54:12.983Z</time></trkpt><trkpt lat="45.4089222" lon="10.5398267"><ele>133.0</ele><time>2026-04-20T16:54:22.983Z</time></trkpt><trkpt lat="45.4088668" lon="10.539744"><ele>133.0</ele><time>2026-04-20T16:54:37.985Z</time></trkpt><trkpt lat="45.408839" lon="10.5399132"><ele>133.0</ele><time>2026-04-20T16:55:36.984Z</time></trkpt><trkpt lat="45.408843" lon="10.5400252"><ele>133.0</ele><time>2026-04-20T16:55:45.99Z</time></trkpt><trkpt lat="45.4087712" lon="10.5399965"><ele>133.0</ele><time>2026-04-20T16:55:50.983Z</time></trkpt><trkpt lat="45.4088637" lon="10.5400178"><ele>133.0</ele><time>2026-04-20T16:56:09.983Z</time></trkpt><trkpt lat="45.4088622" lon="10.5399196"><ele>133.0</ele><time>2026-04-20T16:56:18.984Z</time></trkpt><trkpt lat="45.4089193" lon="10.5398758"><ele>133.0</ele><time>2026-04-20T16:56:22.981Z</time></trkpt><trkpt lat="45.408997" lon="10.5398742"><ele>133.0</ele><time>2026-04-20T16:57:13.984Z</time></trkpt><trkpt lat="45.4089269" lon="10.5398549"><ele>133.0</ele><time>2026-04-20T16:57:35.99Z</time></trkpt><trkpt lat="45.4089967" lon="10.5398727"><ele>133.0</ele><time>2026-04-20T16:57:56.987Z</time></trkpt><trkpt lat="45.4089251" lon="10.5398771"><ele>133.0</ele><time>2026-04-20T16:58:36.99Z</time></trkpt><trkpt lat="45.4089282" lon="10.5397759"><ele>133.0</ele><time>2026-04-20T16:58:46.99Z</time></trkpt><trkpt lat="45.4089442" lon="10.5396657"><ele>133.0</ele><time>2026-04-20T16:59:07.988Z</time></trkpt><trkpt lat="45.4088791" lon="10.5396295"><ele>133.0</ele><time>2026-04-20T16:59:12.989Z</time></trkpt><trkpt lat="45.4089174" lon="10.5397035"><ele>133.0</ele><time>2026-04-20T16:59:36.985Z</time></trkpt><trkpt lat="45.4089666" lon="10.5397624"><ele>133.0</ele><time>2026-04-20T16:59:50.986Z</time></trkpt><trkpt lat="45.4088994" lon="10.5398001"><ele>133.0</ele><time>2026-04-20T17:00:03.98Z</time></trkpt><trkpt lat="45.4089639" lon="10.5398442"><ele>133.0</ele><time>2026-04-20T17:00:35.984Z</time></trkpt><trkpt lat="45.4088771" lon="10.5398655"><ele>133.0</ele><time>2026-04-20T17:02:47.984Z</time></trkpt><trkpt lat="45.4089437" lon="10.5398852"><ele>133.0</ele><time>2026-04-20T17:03:56.989Z</time></trkpt><trkpt lat="45.4088739" lon="10.5397842"><ele>133.0</ele><time>2026-04-20T17:04:06.985Z</time></trkpt><trkpt lat="45.4089415" lon="10.5398436"><ele>133.0</ele><time>2026-04-20T17:04:30.979Z</time></trkpt><trkpt lat="45.4089418" lon="10.5397427"><ele>133.0</ele><time>2026-04-20T17:05:18.99Z</time></trkpt><trkpt lat="45.4089024" lon="10.5398312"><ele>133.0</ele><time>2026-04-20T17:05:42.989Z</time></trkpt><trkpt lat="45.40899" lon="10.5397998"><ele>133.0</ele><time>2026-04-20T17:06:37.991Z</time></trkpt><trkpt lat="45.4090078" lon="10.5399009"><ele>133.0</ele><time>2026-04-20T17:07:03.989Z</time></trkpt><trkpt lat="45.4089367" lon="10.5398615"><ele>133.0</ele><time>2026-04-20T17:07:14.982Z</time></trkpt><trkpt lat="45.4090755" lon="10.5398785"><ele>133.0</ele><time>2026-04-20T17:08:13.99Z</time></trkpt><trkpt lat="45.4090066" lon="10.5398546"><ele>133.0</ele><time>2026-04-20T17:08:37.989Z</time></trkpt><trkpt lat="45.4088672" lon="10.5398831"><ele>133.0</ele><time>2026-04-20T17:17:16.982Z</time></trkpt><trkpt lat="45.4089545" lon="10.5398458"><ele>133.0</ele><time>2026-04-20T17:17:47.985Z</time></trkpt><trkpt lat="45.408905" lon="10.5397862"><ele>133.0</ele><time>2026-04-20T17:21:42.991Z</time></trkpt><trkpt lat="45.4090095" lon="10.5397963"><ele>133.0</ele><time>2026-04-20T17:22:49.983Z</time></trkpt><trkpt lat="45.4089445" lon="10.5398033"><ele>133.0</ele><time>2026-04-20T17:25:20.987Z</time></trkpt><trkpt lat="45.4089771" lon="10.5398904"><ele>133.0</ele><time>2026-04-20T17:28:16.982Z</time></trkpt><trkpt lat="45.4090317" lon="10.5398083"><ele>133.0</ele><time>2026-04-20T17:28:42.989Z</time></trkpt><trkpt lat="45.408971" lon="10.5398548"><ele>133.0</ele><time>2026-04-20T17:29:08.991Z</time></trkpt><trkpt lat="45.4089079" lon="10.5398203"><ele>133.0</ele><time>2026-04-20T17:29:32.992Z</time></trkpt><trkpt lat="45.4088522" lon="10.5398669"><ele>133.0</ele><time>2026-04-20T17:30:25.986Z</time></trkpt><trkpt lat="45.4089479" lon="10.5398612"><ele>133.0</ele><time>2026-04-20T17:32:15.987Z</time></trkpt><trkpt lat="45.4089932" lon="10.5397942"><ele>133.0</ele><time>2026-04-20T17:32:25.985Z</time></trkpt><trkpt lat="45.4090615" lon="10.5397784"><ele>133.0</ele><time>2026-04-20T17:32:50.992Z</time></trkpt><trkpt lat="45.4090754" lon="10.5396817"><ele>133.0</ele><time>2026-04-20T17:33:31.987Z</time></trkpt><trkpt lat="45.409012" lon="10.5396877"><ele>133.0</ele><time>2026-04-20T17:33:37.99Z</time></trkpt><trkpt lat="45.4089687" lon="10.5397967"><ele>133.0</ele><time>2026-04-20T17:34:50.986Z</time></trkpt><trkpt lat="45.4088918" lon="10.5398429"><ele>133.0</ele><time>2026-04-20T17:35:02.986Z</time></trkpt><trkpt lat="45.4088281" lon="10.5398277"><ele>133.0</ele><time>2026-04-20T17:35:07.993Z</time></trkpt><trkpt lat="45.4088784" lon="10.5397558"><ele>133.0</ele><time>2026-04-20T17:35:12.984Z</time></trkpt><trkpt lat="45.4089342" lon="10.5396908"><ele>133.0</ele><time>2026-04-20T17:35:24.987Z</time></trkpt><trkpt lat="45.4089852" lon="10.5396301"><ele>133.0</ele><time>2026-04-20T17:35:31.988Z</time></trkpt><trkpt lat="45.408923" lon="10.5395965"><ele>133.0</ele><time>2026-04-20T17:35:47.987Z</time></trkpt><trkpt lat="45.4089819" lon="10.5395415"><ele>133.0</ele><time>2026-04-20T17:36:21.982Z</time></trkpt><trkpt lat="45.4090482" lon="10.5395825"><ele>133.0</ele><time>2026-04-20T17:37:02.985Z</time></trkpt><trkpt lat="45.409126" lon="10.5395904"><ele>133.0</ele><time>2026-04-20T17:37:19.988Z</time></trkpt><trkpt lat="45.4090725" lon="10.5396442"><ele>133.0</ele><time>2026-04-20T17:37:28.99Z</time></trkpt><trkpt lat="45.4091219" lon="10.539703"><ele>133.0</ele><time>2026-04-20T17:37:37.995Z</time></trkpt><trkpt lat="45.4090794" lon="10.5397764"><ele>133.0</ele><time>2026-04-20T17:37:41.984Z</time></trkpt><trkpt lat="45.40901" lon="10.5397967"><ele>133.0</ele><time>2026-04-20T17:37:51.988Z</time></trkpt><trkpt lat="45.4090071" lon="10.5396957"><ele>133.0</ele><time>2026-04-20T17:38:12.984Z</time></trkpt><trkpt lat="45.4090569" lon="10.539637"><ele>133.0</ele><time>2026-04-20T17:38:18.986Z</time></trkpt><trkpt lat="45.4089996" lon="10.53971"><ele>133.0</ele><time>2026-04-20T17:38:47.991Z</time></trkpt><trkpt lat="45.4090263" lon="10.5396186"><ele>133.0</ele><time>2026-04-20T17:39:26.983Z</time></trkpt><trkpt lat="45.4089758" lon="10.5395409"><ele>133.0</ele><time>2026-04-20T17:39:58.981Z</time></trkpt><trkpt lat="45.408928" lon="10.5396066"><ele>133.0</ele><time>2026-04-20T17:40:36.986Z</time></trkpt><trkpt lat="45.4089123" lon="10.5396982"><ele>133.0</ele><time>2026-04-20T17:40:46.979Z</time></trkpt><trkpt lat="45.4089948" lon="10.5396954"><ele>133.0</ele><time>2026-04-20T17:41:25.994Z</time></trkpt><trkpt lat="45.4090698" lon="10.5396668"><ele>133.0</ele><time>2026-04-20T17:41:38.986Z</time></trkpt><trkpt lat="45.4091465" lon="10.5396791"><ele>133.0</ele><time>2026-04-20T17:42:09.982Z</time></trkpt><trkpt lat="45.4090937" lon="10.5397635"><ele>133.0</ele><time>2026-04-20T17:42:49.983Z</time></trkpt><trkpt lat="45.4091717" lon="10.5397502"><ele>133.0</ele><time>2026-04-20T17:43:18.983Z</time></trkpt><trkpt lat="45.4090912" lon="10.5397492"><ele>133.0</ele><time>2026-04-20T17:43:34.991Z</time></trkpt><trkpt lat="45.4091595" lon="10.539768"><ele>133.0</ele><time>2026-04-20T17:43:50.985Z</time></trkpt><trkpt lat="45.4090917" lon="10.5397791"><ele>133.0</ele><time>2026-04-20T17:44:13.977Z</time></trkpt><trkpt lat="45.4090281" lon="10.5397847"><ele>133.0</ele><time>2026-04-20T17:44:17.986Z</time></trkpt><trkpt lat="45.4089578" lon="10.5398269"><ele>133.0</ele><time>2026-04-20T17:44:28.979Z</time></trkpt><trkpt lat="45.4088972" lon="10.5398603"><ele>133.0</ele><time>2026-04-20T17:44:30.987Z</time></trkpt><trkpt lat="45.4088268" lon="10.5398719"><ele>133.0</ele><time>2026-04-20T17:44:35.981Z</time></trkpt><trkpt lat="45.4088983" lon="10.5399199"><ele>133.0</ele><time>2026-04-20T17:44:52.981Z</time></trkpt><trkpt lat="45.408964" lon="10.5398817"><ele>133.0</ele><time>2026-04-20T17:44:54.984Z</time></trkpt><trkpt lat="45.4090702" lon="10.5398365"><ele>133.0</ele><time>2026-04-20T17:44:56.987Z</time></trkpt><trkpt lat="45.4089975" lon="10.5398501"><ele>133.0</ele><time>2026-04-20T17:45:12.988Z</time></trkpt><trkpt lat="45.4089275" lon="10.5398818"><ele>133.0</ele><time>2026-04-20T17:45:18.978Z</time></trkpt><trkpt lat="45.4088716" lon="10.5399767"><ele>133.0</ele><time>2026-04-20T17:45:43.991Z</time></trkpt><trkpt lat="45.4087982" lon="10.5399914"><ele>133.0</ele><time>2026-04-20T17:46:15.979Z</time></trkpt><trkpt lat="45.4086915" lon="10.5400269"><ele>133.0</ele><time>2026-04-20T17:46:29.981Z</time></trkpt><trkpt lat="45.4086308" lon="10.5399981"><ele>133.0</ele><time>2026-04-20T17:46:33.983Z</time></trkpt><trkpt lat="45.4086748" lon="10.539924"><ele>133.0</ele><time>2026-04-20T17:46:38.98Z</time></trkpt><trkpt lat="45.4088115" lon="10.5398802"><ele>133.0</ele><time>2026-04-20T17:46:55.982Z</time></trkpt><trkpt lat="45.4088775" lon="10.5398651"><ele>133.0</ele><time>2026-04-20T17:47:11.979Z</time></trkpt><trkpt lat="45.4089332" lon="10.5398124"><ele>133.0</ele><time>2026-04-20T17:47:36.981Z</time></trkpt><trkpt lat="45.4090925" lon="10.5397279"><ele>133.0</ele><time>2026-04-20T17:47:52.98Z</time></trkpt><trkpt lat="45.4091615" lon="10.5397071"><ele>133.0</ele><time>2026-04-20T17:47:57.99Z</time></trkpt><trkpt lat="45.4092273" lon="10.5396205"><ele>133.0</ele><time>2026-04-20T17:48:04.986Z</time></trkpt><trkpt lat="45.4092728" lon="10.5395542"><ele>133.0</ele><time>2026-04-20T17:48:08.979Z</time></trkpt><trkpt lat="45.4092123" lon="10.5395247"><ele>133.0</ele><time>2026-04-20T17:48:23.981Z</time></trkpt><trkpt lat="45.4091392" lon="10.5395845"><ele>133.0</ele><time>2026-04-20T17:48:26.981Z</time></trkpt><trkpt lat="45.4090919" lon="10.5396632"><ele>133.0</ele><time>2026-04-20T17:48:40.984Z</time></trkpt><trkpt lat="45.4090208" lon="10.5397206"><ele>133.0</ele><time>2026-04-20T17:48:41.982Z</time></trkpt><trkpt lat="45.4089336" lon="10.5398115"><ele>133.0</ele><time>2026-04-20T17:48:43.987Z</time></trkpt><trkpt lat="45.4088552" lon="10.5399032"><ele>133.0</ele><time>2026-04-20T17:48:45.987Z</time></trkpt><trkpt lat="45.4087678" lon="10.5400028"><ele>133.0</ele><time>2026-04-20T17:48:48.979Z</time></trkpt><trkpt lat="45.4087074" lon="10.5400768"><ele>133.0</ele><time>2026-04-20T17:48:50.977Z</time></trkpt><trkpt lat="45.4087542" lon="10.5400118"><ele>133.0</ele><time>2026-04-20T17:49:06.979Z</time></trkpt><trkpt lat="45.4088057" lon="10.5399396"><ele>133.0</ele><time>2026-04-20T17:49:34.984Z</time></trkpt><trkpt lat="45.4088984" lon="10.5399022"><ele>133.0</ele><time>2026-04-20T17:49:41.988Z</time></trkpt><trkpt lat="45.4089822" lon="10.5398895"><ele>133.0</ele><time>2026-04-20T17:49:43.99Z</time></trkpt><trkpt lat="45.40906" lon="10.5398555"><ele>133.0</ele><time>2026-04-20T17:49:46.979Z</time></trkpt><trkpt lat="45.4091317" lon="10.5398009"><ele>133.0</ele><time>2026-04-20T17:49:49.99Z</time></trkpt><trkpt lat="45.4090797" lon="10.5397461"><ele>133.0</ele><time>2026-04-20T17:50:03.983Z</time></trkpt><trkpt lat="45.4089833" lon="10.5398291"><ele>133.0</ele><time>2026-04-20T17:50:05.986Z</time></trkpt><trkpt lat="45.4089199" lon="10.5398909"><ele>133.0</ele><time>2026-04-20T17:50:06.986Z</time></trkpt><trkpt lat="45.4088586" lon="10.5399417"><ele>133.0</ele><time>2026-04-20T17:50:08.987Z</time></trkpt><trkpt lat="45.4089871" lon="10.5398171"><ele>133.0</ele><time>2026-04-20T17:50:18.982Z</time></trkpt><trkpt lat="45.4090685" lon="10.539725"><ele>133.0</ele><time>2026-04-20T17:50:22.984Z</time></trkpt><trkpt lat="45.4089871" lon="10.5397603"><ele>133.0</ele><time>2026-04-20T17:50:46.985Z</time></trkpt><trkpt lat="45.4089255" lon="10.5398128"><ele>133.0</ele><time>2026-04-20T17:50:49.983Z</time></trkpt><trkpt lat="45.408863" lon="10.539853"><ele>133.0</ele><time>2026-04-20T17:51:08.985Z</time></trkpt><trkpt lat="45.408788" lon="10.5398584"><ele>133.0</ele><time>2026-04-20T17:51:17.991Z</time></trkpt><trkpt lat="45.4088551" lon="10.5398487"><ele>133.0</ele><time>2026-04-20T17:51:26.984Z</time></trkpt><trkpt lat="45.4089933" lon="10.5398376"><ele>133.0</ele><time>2026-04-20T17:52:51.983Z</time></trkpt><trkpt lat="45.4090566" lon="10.5398187"><ele>133.0</ele><time>2026-04-20T17:53:00.985Z</time></trkpt><trkpt lat="45.4089815" lon="10.5398824"><ele>133.0</ele><time>2026-04-20T17:53:12.985Z</time></trkpt><trkpt lat="45.408902" lon="10.5398785"><ele>133.0</ele><time>2026-04-20T17:53:18.983Z</time></trkpt><trkpt lat="45.4088244" lon="10.5399168"><ele>133.0</ele><time>2026-04-20T17:54:08.988Z</time></trkpt><trkpt lat="45.4089089" lon="10.5398748"><ele>133.0</ele><time>2026-04-20T17:54:23.988Z</time></trkpt><trkpt lat="45.408977" lon="10.539862"><ele>133.0</ele><time>2026-04-20T17:54:37.982Z</time></trkpt><trkpt lat="45.4090251" lon="10.5397625"><ele>133.0</ele><time>2026-04-20T17:55:14.99Z</time></trkpt><trkpt lat="45.4089574" lon="10.5398156"><ele>133.0</ele><time>2026-04-20T17:56:06.975Z</time></trkpt><trkpt lat="45.408974" lon="10.5397285"><ele>133.0</ele><time>2026-04-20T17:56:33.984Z</time></trkpt><trkpt lat="45.4089387" lon="10.5396385"><ele>133.0</ele><time>2026-04-20T17:56:52.985Z</time></trkpt><trkpt lat="45.4089999" lon="10.5396733"><ele>133.0</ele><time>2026-04-20T17:57:03.979Z</time></trkpt><trkpt lat="45.4090078" lon="10.5397648"><ele>133.0</ele><time>2026-04-20T17:57:26.98Z</time></trkpt><trkpt lat="45.4089935" lon="10.5398607"><ele>133.0</ele><time>2026-04-20T17:57:40.984Z</time></trkpt><trkpt lat="45.4089097" lon="10.5398705"><ele>133.0</ele><time>2026-04-20T18:00:57.982Z</time></trkpt><trkpt lat="45.4088456" lon="10.5398658"><ele>133.0</ele><time>2026-04-20T18:01:06.979Z</time></trkpt><trkpt lat="45.4089112" lon="10.5398416"><ele>133.0</ele><time>2026-04-20T18:01:24.984Z</time></trkpt><trkpt lat="45.4089746" lon="10.5398275"><ele>133.0</ele><time>2026-04-20T18:02:59.982Z</time></trkpt><trkpt lat="45.4090265" lon="10.5397731"><ele>133.0</ele><time>2026-04-20T18:03:18.985Z</time></trkpt><trkpt lat="45.4089527" lon="10.5398337"><ele>133.0</ele><time>2026-04-20T18:04:38.98Z</time></trkpt><trkpt lat="45.4090204" lon="10.539819"><ele>133.0</ele><time>2026-04-20T18:05:16.983Z</time></trkpt><trkpt lat="45.4089532" lon="10.5398497"><ele>133.0</ele><time>2026-04-20T18:06:53.983Z</time></trkpt><trkpt lat="45.4090156" lon="10.5398312"><ele>133.0</ele><time>2026-04-20T18:08:05.984Z</time></trkpt><trkpt lat="45.4090828" lon="10.5398214"><ele>133.0</ele><time>2026-04-20T18:08:52.986Z</time></trkpt><trkpt lat="45.40901" lon="10.5398086"><ele>133.0</ele><time>2026-04-20T18:09:27.982Z</time></trkpt><trkpt lat="45.4089463" lon="10.5398715"><ele>133.0</ele><time>2026-04-20T18:10:31.993Z</time></trkpt><trkpt lat="45.4090119" lon="10.5398355"><ele>133.0</ele><time>2026-04-20T18:10:57.983Z</time></trkpt><trkpt lat="45.4089471" lon="10.5399276"><ele>133.0</ele><time>2026-04-20T18:11:53.988Z</time></trkpt><trkpt lat="45.4089997" lon="10.5398562"><ele>133.0</ele><time>2026-04-20T18:11:59.988Z</time></trkpt><trkpt lat="45.4089321" lon="10.5398474"><ele>133.0</ele><time>2026-04-20T18:13:00.986Z</time></trkpt><trkpt lat="45.4089984" lon="10.5398427"><ele>133.0</ele><time>2026-04-20T18:15:15.99Z</time></trkpt><trkpt lat="45.4089316" lon="10.5398194"><ele>133.0</ele><time>2026-04-20T18:20:19.986Z</time></trkpt><trkpt lat="45.4090244" lon="10.539786"><ele>133.0</ele><time>2026-04-20T18:21:25.979Z</time></trkpt><trkpt lat="45.4089786" lon="10.5398614"><ele>133.0</ele><time>2026-04-20T18:22:04.985Z</time></trkpt><trkpt lat="45.4090318" lon="10.5398109"><ele>133.0</ele><time>2026-04-20T18:22:41.98Z</time></trkpt><trkpt lat="45.4090882" lon="10.5397654"><ele>133.0</ele><time>2026-04-20T18:22:50.988Z</time></trkpt><trkpt lat="45.4090215" lon="10.5398028"><ele>133.0</ele><time>2026-04-20T18:24:09.983Z</time></trkpt><trkpt lat="45.4089521" lon="10.5398218"><ele>133.0</ele><time>2026-04-20T18:24:20.989Z</time></trkpt><trkpt lat="45.4088854" lon="10.5397715"><ele>133.0</ele><time>2026-04-20T18:26:04.979Z</time></trkpt><trkpt lat="45.4088262" lon="10.5398108"><ele>133.0</ele><time>2026-04-20T18:27:16.978Z</time></trkpt><trkpt lat="45.4089133" lon="10.5398236"><ele>133.0</ele><time>2026-04-20T18:27:54.987Z</time></trkpt><trkpt lat="45.4089776" lon="10.5398268"><ele>133.0</ele><time>2026-04-20T18:28:01.98Z</time></trkpt><trkpt lat="45.4090677" lon="10.5397459"><ele>133.0</ele><time>2026-04-20T18:28:18.986Z</time></trkpt><trkpt lat="45.4089892" lon="10.5397162"><ele>133.0</ele><time>2026-04-20T18:28:29.979Z</time></trkpt><trkpt lat="45.4090523" lon="10.5397289"><ele>133.0</ele><time>2026-04-20T18:28:53.979Z</time></trkpt><trkpt lat="45.4091049" lon="10.5396677"><ele>133.0</ele><time>2026-04-20T18:31:48.983Z</time></trkpt><trkpt lat="45.4090577" lon="10.5397741"><ele>133.0</ele><time>2026-04-20T18:32:26.978Z</time></trkpt><trkpt lat="45.4091077" lon="10.5397032"><ele>133.0</ele><time>2026-04-20T18:32:41.99Z</time></trkpt><trkpt lat="45.4090538" lon="10.5397707"><ele>133.0</ele><time>2026-04-20T18:33:07.977Z</time></trkpt><trkpt lat="45.408993" lon="10.5398085"><ele>133.0</ele><time>2026-04-20T18:33:12.989Z</time></trkpt><trkpt lat="45.4089257" lon="10.5398345"><ele>133.0</ele><time>2026-04-20T18:33:18.984Z</time></trkpt><trkpt lat="45.4088393" lon="10.5399378"><ele>133.0</ele><time>2026-04-20T18:33:19.99Z</time></trkpt><trkpt lat="45.4087837" lon="10.5400087"><ele>133.0</ele><time>2026-04-20T18:33:20.988Z</time></trkpt><trkpt lat="45.4088524" lon="10.5399613"><ele>133.0</ele><time>2026-04-20T18:33:51.985Z</time></trkpt><trkpt lat="45.4089194" lon="10.539912"><ele>133.0</ele><time>2026-04-20T18:33:56.98Z</time></trkpt><trkpt lat="45.4090066" lon="10.5398029"><ele>133.0</ele><time>2026-04-20T18:36:04.984Z</time></trkpt><trkpt lat="45.4090947" lon="10.539776"><ele>133.0</ele><time>2026-04-20T18:37:28.98Z</time></trkpt><trkpt lat="45.409076" lon="10.5398646"><ele>133.0</ele><time>2026-04-20T18:39:37.981Z</time></trkpt><trkpt lat="45.4090039" lon="10.5398651"><ele>133.0</ele><time>2026-04-20T18:39:52.981Z</time></trkpt><trkpt lat="45.4090857" lon="10.5397974"><ele>133.0</ele><time>2026-04-20T18:42:13.981Z</time></trkpt><trkpt lat="45.4090343" lon="10.5398564"><ele>133.0</ele><time>2026-04-20T18:43:50.978Z</time></trkpt><trkpt lat="45.4090927" lon="10.5397871"><ele>133.0</ele><time>2026-04-20T18:45:44.976Z</time></trkpt><trkpt lat="45.4090364" lon="10.539845"><ele>133.0</ele><time>2026-04-20T18:46:02.977Z</time></trkpt><trkpt lat="45.4089496" lon="10.5397721"><ele>133.0</ele><time>2026-04-20T18:48:16.982Z</time></trkpt><trkpt lat="45.4090727" lon="10.5398739"><ele>133.0</ele><time>2026-04-20T18:49:59.986Z</time></trkpt><trkpt lat="45.4090027" lon="10.5398358"><ele>133.0</ele><time>2026-04-20T18:50:36.988Z</time></trkpt><trkpt lat="45.4088985" lon="10.5398147"><ele>133.0</ele><time>2026-04-20T18:54:48.983Z</time></trkpt><trkpt lat="45.4089679" lon="10.5397979"><ele>133.0</ele><time>2026-04-20T18:55:09.978Z</time></trkpt><trkpt lat="45.40901" lon="10.5397217"><ele>133.0</ele><time>2026-04-20T18:56:55.977Z</time></trkpt><trkpt lat="45.4090772" lon="10.5397129"><ele>133.0</ele><time>2026-04-20T19:02:58.981Z</time></trkpt><trkpt lat="45.4090148" lon="10.5396859"><ele>133.0</ele><time>2026-04-20T19:04:11.986Z</time></trkpt><trkpt lat="45.4089691" lon="10.5397478"><ele>133.0</ele><time>2026-04-20T19:04:31.979Z</time></trkpt><trkpt lat="45.4089378" lon="10.5398451"><ele>133.0</ele><time>2026-04-20T19:04:58.97Z</time></trkpt><trkpt lat="45.4089387" lon="10.5399349"><ele>133.0</ele><time>2026-04-20T19:06:53.982Z</time></trkpt><trkpt lat="45.4090042" lon="10.5399566"><ele>133.0</ele><time>2026-04-20T19:06:56.983Z</time></trkpt><trkpt lat="45.4089441" lon="10.5398689"><ele>133.0</ele><time>2026-04-20T19:07:18.985Z</time></trkpt><trkpt lat="45.4090251" lon="10.5398803"><ele>133.0</ele><time>2026-04-20T19:08:43.982Z</time></trkpt><trkpt lat="45.4090926" lon="10.539902"><ele>133.0</ele><time>2026-04-20T19:08:50.983Z</time></trkpt><trkpt lat="45.4090187" lon="10.5398942"><ele>133.0</ele><time>2026-04-20T19:09:08.979Z</time></trkpt><trkpt lat="45.4089627" lon="10.539939"><ele>133.0</ele><time>2026-04-20T19:09:12.988Z</time></trkpt><trkpt lat="45.4088534" lon="10.5398817"><ele>133.0</ele><time>2026-04-20T19:09:17.979Z</time></trkpt><trkpt lat="45.4088102" lon="10.5397859"><ele>133.0</ele><time>2026-04-20T19:09:46.987Z</time></trkpt><trkpt lat="45.4088787" lon="10.539775"><ele>133.0</ele><time>2026-04-20T19:10:05.986Z</time></trkpt><trkpt lat="45.4089521" lon="10.5397946"><ele>133.0</ele><time>2026-04-20T19:11:15.988Z</time></trkpt><trkpt lat="45.4090028" lon="10.5398841"><ele>133.0</ele><time>2026-04-20T19:11:55.986Z</time></trkpt><trkpt lat="45.4089459" lon="10.5399303"><ele>133.0</ele><time>2026-04-20T19:12:07.987Z</time></trkpt><trkpt lat="45.4090243" lon="10.5399582"><ele>133.0</ele><time>2026-04-20T19:12:41.979Z</time></trkpt><trkpt lat="45.4089817" lon="10.5398623"><ele>133.0</ele><time>2026-04-20T19:13:17.981Z</time></trkpt><trkpt lat="45.4090059" lon="10.5397666"><ele>133.0</ele><time>2026-04-20T19:13:35.988Z</time></trkpt><trkpt lat="45.4089414" lon="10.5397288"><ele>133.0</ele><time>2026-04-20T19:13:49.989Z</time></trkpt><trkpt lat="45.4089076" lon="10.5398521"><ele>133.0</ele><time>2026-04-20T19:13:55.979Z</time></trkpt><trkpt lat="45.4088345" lon="10.5399366"><ele>133.0</ele><time>2026-04-20T19:14:44.975Z</time></trkpt><trkpt lat="45.4088979" lon="10.5399284"><ele>133.0</ele><time>2026-04-20T19:15:00.978Z</time></trkpt><trkpt lat="45.4088856" lon="10.5398373"><ele>133.0</ele><time>2026-04-20T19:15:24.977Z</time></trkpt><trkpt lat="45.4088173" lon="10.5397869"><ele>133.0</ele><time>2026-04-20T19:15:40.977Z</time></trkpt><trkpt lat="45.4088772" lon="10.5398523"><ele>133.0</ele><time>2026-04-20T19:16:06.978Z</time></trkpt><trkpt lat="45.4089505" lon="10.5398542"><ele>133.0</ele><time>2026-04-20T19:16:17.983Z</time></trkpt><trkpt lat="45.408989" lon="10.5399905"><ele>133.0</ele><time>2026-04-20T19:17:01.98Z</time></trkpt><trkpt lat="45.4090166" lon="10.5399085"><ele>133.0</ele><time>2026-04-20T19:17:05.986Z</time></trkpt><trkpt lat="45.4089544" lon="10.5399475"><ele>133.0</ele><time>2026-04-20T19:17:23.978Z</time></trkpt><trkpt lat="45.4089581" lon="10.5398465"><ele>133.0</ele><time>2026-04-20T19:17:43.976Z</time></trkpt><trkpt lat="45.4088979" lon="10.5398049"><ele>133.0</ele><time>2026-04-20T19:17:46.983Z</time></trkpt><trkpt lat="45.4089564" lon="10.5398417"><ele>133.0</ele><time>2026-04-20T19:18:00.976Z</time></trkpt><trkpt lat="45.4089579" lon="10.5399333"><ele>133.0</ele><time>2026-04-20T19:18:07.98Z</time></trkpt><trkpt lat="45.4089051" lon="10.5399944"><ele>133.0</ele><time>2026-04-20T19:18:21.981Z</time></trkpt><trkpt lat="45.4088078" lon="10.5399667"><ele>133.0</ele><time>2026-04-20T19:18:26.987Z</time></trkpt><trkpt lat="45.4087418" lon="10.5398983"><ele>133.0</ele><time>2026-04-20T19:18:29.987Z</time></trkpt><trkpt lat="45.4087887" lon="10.5398298"><ele>133.0</ele><time>2026-04-20T19:18:38.988Z</time></trkpt><trkpt lat="45.4089153" lon="10.5399167"><ele>133.0</ele><time>2026-04-20T19:18:43.978Z</time></trkpt><trkpt lat="45.4090117" lon="10.5399802"><ele>133.0</ele><time>2026-04-20T19:18:45.981Z</time></trkpt><trkpt lat="45.4090917" lon="10.5399666"><ele>133.0</ele><time>2026-04-20T19:19:23.974Z</time></trkpt><trkpt lat="45.4089653" lon="10.5398953"><ele>133.0</ele><time>2026-04-20T19:19:47.977Z</time></trkpt><trkpt lat="45.4088958" lon="10.5398389"><ele>133.0</ele><time>2026-04-20T19:19:48.978Z</time></trkpt><trkpt lat="45.4087996" lon="10.5397656"><ele>133.0</ele><time>2026-04-20T19:19:50.986Z</time></trkpt><trkpt lat="45.4087377" lon="10.5397199"><ele>133.0</ele><time>2026-04-20T19:19:52.985Z</time></trkpt><trkpt lat="45.4086877" lon="10.5396504"><ele>133.0</ele><time>2026-04-20T19:19:57.98Z</time></trkpt><trkpt lat="45.408748" lon="10.5397315"><ele>133.0</ele><time>2026-04-20T19:20:24.983Z</time></trkpt><trkpt lat="45.4088168" lon="10.5397187"><ele>133.0</ele><time>2026-04-20T19:20:29.981Z</time></trkpt><trkpt lat="45.4088386" lon="10.5396276"><ele>133.0</ele><time>2026-04-20T19:20:50.982Z</time></trkpt><trkpt lat="45.4089092" lon="10.5395805"><ele>133.0</ele><time>2026-04-20T19:21:35.977Z</time></trkpt><trkpt lat="45.4088758" lon="10.5396651"><ele>133.0</ele><time>2026-04-20T19:21:53.988Z</time></trkpt><trkpt lat="45.4089278" lon="10.5397351"><ele>133.0</ele><time>2026-04-20T19:22:25.987Z</time></trkpt><trkpt lat="45.4089011" lon="10.5398164"><ele>133.0</ele><time>2026-04-20T19:23:04.985Z</time></trkpt><trkpt lat="45.4090214" lon="10.5398425"><ele>133.0</ele><time>2026-04-20T19:23:43.978Z</time></trkpt><trkpt lat="45.4091085" lon="10.5398411"><ele>133.0</ele><time>2026-04-20T19:23:54.985Z</time></trkpt><trkpt lat="45.4090359" lon="10.5398607"><ele>133.0</ele><time>2026-04-20T19:24:08.98Z</time></trkpt><trkpt lat="45.4089557" lon="10.5398821"><ele>133.0</ele><time>2026-04-20T19:24:16.978Z</time></trkpt><trkpt lat="45.4089214" lon="10.5398053"><ele>133.0</ele><time>2026-04-20T19:24:41.977Z</time></trkpt><trkpt lat="45.4089649" lon="10.5396938"><ele>133.0</ele><time>2026-04-20T19:25:04.978Z</time></trkpt><trkpt lat="45.4089325" lon="10.5397753"><ele>133.0</ele><time>2026-04-20T19:25:22.985Z</time></trkpt><trkpt lat="45.4089911" lon="10.5398151"><ele>133.0</ele><time>2026-04-20T19:25:37.979Z</time></trkpt><trkpt lat="45.4090331" lon="10.539911"><ele>133.0</ele><time>2026-04-20T19:26:50.976Z</time></trkpt><trkpt lat="45.4089012" lon="10.5399269"><ele>133.0</ele><time>2026-04-20T19:27:05.975Z</time></trkpt><trkpt lat="45.408839" lon="10.5398985"><ele>133.0</ele><time>2026-04-20T19:27:11.982Z</time></trkpt><trkpt lat="45.4088629" lon="10.5398123"><ele>133.0</ele><time>2026-04-20T19:27:25.984Z</time></trkpt><trkpt lat="45.4088" lon="10.5398081"><ele>133.0</ele><time>2026-04-20T19:27:34.98Z</time></trkpt><trkpt lat="45.4086997" lon="10.539802"><ele>133.0</ele><time>2026-04-20T19:27:51.98Z</time></trkpt><trkpt lat="45.4087321" lon="10.5397237"><ele>133.0</ele><time>2026-04-20T19:28:06.98Z</time></trkpt><trkpt lat="45.4088085" lon="10.5396982"><ele>133.0</ele><time>2026-04-20T19:28:16.982Z</time></trkpt><trkpt lat="45.40889" lon="10.5396761"><ele>133.0</ele><time>2026-04-20T19:28:35.977Z</time></trkpt><trkpt lat="45.4089292" lon="10.5396028"><ele>133.0</ele><time>2026-04-20T19:28:48.981Z</time></trkpt><trkpt lat="45.4089232" lon="10.5395082"><ele>133.0</ele><time>2026-04-20T19:28:56.984Z</time></trkpt><trkpt lat="45.4088626" lon="10.5394747"><ele>133.0</ele><time>2026-04-20T19:29:08.975Z</time></trkpt><trkpt lat="45.4089284" lon="10.5395166"><ele>133.0</ele><time>2026-04-20T19:29:36.98Z</time></trkpt><trkpt lat="45.408976" lon="10.5395774"><ele>133.0</ele><time>2026-04-20T19:29:43.986Z</time></trkpt><trkpt lat="45.4090042" lon="10.5396591"><ele>133.0</ele><time>2026-04-20T19:29:52.981Z</time></trkpt><trkpt lat="45.4090045" lon="10.53975"><ele>133.0</ele><time>2026-04-20T19:30:12.972Z</time></trkpt><trkpt lat="45.4089809" lon="10.5398591"><ele>133.0</ele><time>2026-04-20T19:30:39.984Z</time></trkpt><trkpt lat="45.4091019" lon="10.5398779"><ele>133.0</ele><time>2026-04-20T19:31:01.979Z</time></trkpt><trkpt lat="45.409053" lon="10.5399507"><ele>133.0</ele><time>2026-04-20T19:31:30.983Z</time></trkpt><trkpt lat="45.409132" lon="10.5400256"><ele>133.0</ele><time>2026-04-20T19:31:45.98Z</time></trkpt><trkpt lat="45.4090477" lon="10.5399591"><ele>133.0</ele><time>2026-04-20T19:31:59.977Z</time></trkpt><trkpt lat="45.4090172" lon="10.539859"><ele>133.0</ele><time>2026-04-20T19:32:01.989Z</time></trkpt><trkpt lat="45.4089445" lon="10.5398157"><ele>133.0</ele><time>2026-04-20T19:32:04.982Z</time></trkpt><trkpt lat="45.4089094" lon="10.5397402"><ele>133.0</ele><time>2026-04-20T19:32:20.986Z</time></trkpt><trkpt lat="45.4088396" lon="10.5397633"><ele>133.0</ele><time>2026-04-20T19:32:47.976Z</time></trkpt><trkpt lat="45.4089033" lon="10.5397608"><ele>133.0</ele><time>2026-04-20T19:33:15.976Z</time></trkpt><trkpt lat="45.4088415" lon="10.5397131"><ele>133.0</ele><time>2026-04-20T19:34:08.974Z</time></trkpt><trkpt lat="45.4087206" lon="10.5397802"><ele>133.0</ele><time>2026-04-20T19:34:44.989Z</time></trkpt><trkpt lat="45.4086555" lon="10.5398034"><ele>133.0</ele><time>2026-04-20T19:34:49.976Z</time></trkpt><trkpt lat="45.4086607" lon="10.5399018"><ele>133.0</ele><time>2026-04-20T19:35:35.981Z</time></trkpt><trkpt lat="45.408763" lon="10.5399318"><ele>133.0</ele><time>2026-04-20T19:35:51.982Z</time></trkpt><trkpt lat="45.4088502" lon="10.5398744"><ele>133.0</ele><time>2026-04-20T19:37:19.988Z</time></trkpt><trkpt lat="45.4087951" lon="10.5398013"><ele>133.0</ele><time>2026-04-20T19:38:02.986Z</time></trkpt><trkpt lat="45.4087177" lon="10.5397847"><ele>131.5</ele><time>2026-04-20T19:38:06.974Z</time></trkpt><trkpt lat="45.4086815" lon="10.5398609"><ele>130.0</ele><time>2026-04-20T19:38:26.98Z</time></trkpt><trkpt lat="45.4085853" lon="10.5398349"><ele>128.5</ele><time>2026-04-20T19:38:41.978Z</time></trkpt><trkpt lat="45.4086325" lon="10.5399191"><ele>127.0</ele><time>2026-04-20T19:40:38.981Z</time></trkpt><trkpt lat="45.4085646" lon="10.5399368"><ele>125.50000000000001</ele><time>2026-04-20T19:41:02.981Z</time></trkpt><trkpt lat="45.4084969" lon="10.5399562"><ele>124.0</ele><time>2026-04-20T19:41:46.977Z</time></trkpt><trkpt lat="45.4084359" lon="10.539895"><ele>124.0</ele><time>2026-04-20T19:42:25.977Z</time></trkpt><trkpt lat="45.4083325" lon="10.5399211"><ele>124.0</ele><time>2026-04-20T19:42:31.987Z</time></trkpt><trkpt lat="45.4082523" lon="10.5398965"><ele>124.0</ele><time>2026-04-20T19:42:34.975Z</time></trkpt><trkpt lat="45.4083588" lon="10.5399157"><ele>124.0</ele><time>2026-04-20T19:42:54.98Z</time></trkpt><trkpt lat="45.4082938" lon="10.5399595"><ele>124.0</ele><time>2026-04-20T19:43:04.976Z</time></trkpt><trkpt lat="45.4081917" lon="10.5399201"><ele>124.00000000000001</ele><time>2026-04-20T19:43:22.977Z</time></trkpt><trkpt lat="45.4082634" lon="10.5399244"><ele>124.0</ele><time>2026-04-20T19:43:27.983Z</time></trkpt><trkpt lat="45.4083241" lon="10.539954"><ele>124.0</ele><time>2026-04-20T19:43:30.977Z</time></trkpt><trkpt lat="45.4084015" lon="10.5399828"><ele>124.0</ele><time>2026-04-20T19:43:34.985Z</time></trkpt><trkpt lat="45.4084985" lon="10.5399389"><ele>124.00000000000001</ele><time>2026-04-20T19:43:37.982Z</time></trkpt><trkpt lat="45.4085958" lon="10.5399148"><ele>124.0</ele><time>2026-04-20T19:43:39.977Z</time></trkpt><trkpt lat="45.4086753" lon="10.5398909"><ele>124.00000000000001</ele><time>2026-04-20T19:43:41.975Z</time></trkpt><trkpt lat="45.4085987" lon="10.5398821"><ele>124.0</ele><time>2026-04-20T19:43:49.98Z</time></trkpt><trkpt lat="45.4085388" lon="10.5399185"><ele>124.0</ele><time>2026-04-20T19:43:53.98Z</time></trkpt><trkpt lat="45.4086301" lon="10.5399395"><ele>124.0</ele><time>2026-04-20T19:44:18.982Z</time></trkpt><trkpt lat="45.4086965" lon="10.5399679"><ele>124.00000000000001</ele><time>2026-04-20T19:44:24.982Z</time></trkpt><trkpt lat="45.4088043" lon="10.539958"><ele>124.0</ele><time>2026-04-20T19:44:34.986Z</time></trkpt><trkpt lat="45.4088758" lon="10.5399458"><ele>125.50000000000001</ele><time>2026-04-20T19:44:42.985Z</time></trkpt><trkpt lat="45.4089546" lon="10.5399028"><ele>127.0</ele><time>2026-04-20T19:45:03.984Z</time></trkpt><trkpt lat="45.4090253" lon="10.5398222"><ele>128.5</ele><time>2026-04-20T19:45:35.985Z</time></trkpt><trkpt lat="45.4089617" lon="10.5398194"><ele>130.0</ele><time>2026-04-20T19:46:07.976Z</time></trkpt><trkpt lat="45.4089517" lon="10.5397145"><ele>131.5</ele><time>2026-04-20T19:49:05.973Z</time></trkpt><trkpt lat="45.4089913" lon="10.5397999"><ele>133.0</ele><time>2026-04-20T19:49:10.98Z</time></trkpt><trkpt lat="45.4089103" lon="10.5398598"><ele>133.0</ele><time>2026-04-20T19:49:12.974Z</time></trkpt><trkpt lat="45.4088383" lon="10.5399113"><ele>133.0</ele><time>2026-04-20T19:49:14.973Z</time></trkpt><trkpt lat="45.4089053" lon="10.5399596"><ele>133.0</ele><time>2026-04-20T19:49:26.974Z</time></trkpt><trkpt lat="45.4089844" lon="10.53997"><ele>133.0</ele><time>2026-04-20T19:49:35.98Z</time></trkpt><trkpt lat="45.4090799" lon="10.5399922"><ele>133.0</ele><time>2026-04-20T19:49:47.971Z</time></trkpt><trkpt lat="45.4091405" lon="10.5400351"><ele>133.0</ele><time>2026-04-20T19:49:48.986Z</time></trkpt><trkpt lat="45.4090693" lon="10.5400097"><ele>133.0</ele><time>2026-04-20T19:50:04.979Z</time></trkpt><trkpt lat="45.409005" lon="10.5399747"><ele>133.0</ele><time>2026-04-20T19:50:08.981Z</time></trkpt><trkpt lat="45.4089442" lon="10.5399263"><ele>133.0</ele><time>2026-04-20T19:50:16.979Z</time></trkpt><trkpt lat="45.4090243" lon="10.5399884"><ele>133.0</ele><time>2026-04-20T19:50:30.979Z</time></trkpt><trkpt lat="45.4089604" lon="10.5399733"><ele>133.0</ele><time>2026-04-20T19:50:37.98Z</time></trkpt><trkpt lat="45.4088805" lon="10.53993"><ele>133.0</ele><time>2026-04-20T19:50:41.971Z</time></trkpt><trkpt lat="45.4089203" lon="10.5398589"><ele>133.0</ele><time>2026-04-20T19:50:57.982Z</time></trkpt><trkpt lat="45.4089996" lon="10.5398462"><ele>133.0</ele><time>2026-04-20T19:51:14.977Z</time></trkpt><trkpt lat="45.4089863" lon="10.5397571"><ele>133.0</ele><time>2026-04-20T19:51:35.984Z</time></trkpt><trkpt lat="45.4089115" lon="10.5398053"><ele>133.0</ele><time>2026-04-20T19:51:39.975Z</time></trkpt><trkpt lat="45.4089505" lon="10.5398977"><ele>133.0</ele><time>2026-04-20T19:51:58.984Z</time></trkpt><trkpt lat="45.4088978" lon="10.5398441"><ele>133.0</ele><time>2026-04-20T19:52:28.975Z</time></trkpt><trkpt lat="45.4089605" lon="10.5398534"><ele>133.0</ele><time>2026-04-20T19:52:55.985Z</time></trkpt><trkpt lat="45.4090432" lon="10.5398575"><ele>133.0</ele><time>2026-04-20T19:56:44.981Z</time></trkpt><trkpt lat="45.4089905" lon="10.5399244"><ele>133.0</ele><time>2026-04-20T19:58:20.966Z</time></trkpt><trkpt lat="45.4090365" lon="10.5398626"><ele>133.0</ele><time>2026-04-20T19:58:48.981Z</time></trkpt><trkpt lat="45.4089226" lon="10.53984"><ele>133.0</ele><time>2026-04-20T19:58:55.982Z</time></trkpt><trkpt lat="45.4088801" lon="10.5399176"><ele>133.0</ele><time>2026-04-20T20:00:52.975Z</time></trkpt><trkpt lat="45.4089479" lon="10.5398581"><ele>133.0</ele><time>2026-04-20T20:02:14.974Z</time></trkpt><trkpt lat="45.4089106" lon="10.5397839"><ele>133.0</ele><time>2026-04-20T20:06:28.971Z</time></trkpt><trkpt lat="45.4089315" lon="10.5398882"><ele>133.0</ele><time>2026-04-20T20:07:37.984Z</time></trkpt><trkpt lat="45.4088561" lon="10.5398901"><ele>133.0</ele><time>2026-04-20T20:08:22.975Z</time></trkpt><trkpt lat="45.4087532" lon="10.5398306"><ele>133.0</ele><time>2026-04-20T20:08:24.984Z</time></trkpt><trkpt lat="45.408686" lon="10.5397988"><ele>133.0</ele><time>2026-04-20T20:08:26.978Z</time></trkpt><trkpt lat="45.4085983" lon="10.5397611"><ele>133.0</ele><time>2026-04-20T20:08:29.98Z</time></trkpt><trkpt lat="45.4085322" lon="10.5397154"><ele>133.0</ele><time>2026-04-20T20:08:31.985Z</time></trkpt><trkpt lat="45.4084464" lon="10.5396565"><ele>133.0</ele><time>2026-04-20T20:08:34.985Z</time></trkpt><trkpt lat="45.4085735" lon="10.5397325"><ele>133.0</ele><time>2026-04-20T20:08:38.982Z</time></trkpt><trkpt lat="45.4086393" lon="10.5397655"><ele>133.0</ele><time>2026-04-20T20:08:39.982Z</time></trkpt><trkpt lat="45.408697" lon="10.539715"><ele>133.0</ele><time>2026-04-20T20:08:45.979Z</time></trkpt><trkpt lat="45.4087702" lon="10.539744"><ele>133.0</ele><time>2026-04-20T20:08:50.983Z</time></trkpt><trkpt lat="45.4088278" lon="10.5397874"><ele>133.0</ele><time>2026-04-20T20:09:05.975Z</time></trkpt><trkpt lat="45.4088583" lon="10.5399054"><ele>133.0</ele><time>2026-04-20T20:09:49.978Z</time></trkpt><trkpt lat="45.4089777" lon="10.5399226"><ele>133.0</ele><time>2026-04-20T20:10:18.975Z</time></trkpt><trkpt lat="45.4089003" lon="10.5399291"><ele>133.0</ele><time>2026-04-20T20:10:57.977Z</time></trkpt><trkpt lat="45.4088638" lon="10.5398548"><ele>133.0</ele><time>2026-04-20T20:11:21.974Z</time></trkpt><trkpt lat="45.408995" lon="10.539768"><ele>133.0</ele><time>2026-04-20T20:13:04.976Z</time></trkpt><trkpt lat="45.4089273" lon="10.539757"><ele>133.0</ele><time>2026-04-20T20:13:25.976Z</time></trkpt><trkpt lat="45.4090142" lon="10.5397943"><ele>133.0</ele><time>2026-04-20T20:13:43.983Z</time></trkpt><trkpt lat="45.4089851" lon="10.5398865"><ele>133.0</ele><time>2026-04-20T20:14:22.976Z</time></trkpt><trkpt lat="45.40894" lon="10.5398222"><ele>133.0</ele><time>2026-04-20T20:14:40.983Z</time></trkpt><trkpt lat="45.4089112" lon="10.5397422"><ele>133.0</ele><time>2026-04-20T20:20:43.975Z</time></trkpt><trkpt lat="45.4089808" lon="10.5397276"><ele>133.0</ele><time>2026-04-20T20:20:56.981Z</time></trkpt><trkpt lat="45.4089015" lon="10.5398144"><ele>133.0</ele><time>2026-04-20T20:21:47.982Z</time></trkpt><trkpt lat="45.4089644" lon="10.5398401"><ele>133.0</ele><time>2026-04-20T20:22:17.98Z</time></trkpt><trkpt lat="45.4088999" lon="10.539839"><ele>133.0</ele><time>2026-04-20T20:22:39.977Z</time></trkpt><trkpt lat="45.4089738" lon="10.5397629"><ele>133.0</ele><time>2026-04-20T20:23:30.983Z</time></trkpt><trkpt lat="45.4089127" lon="10.5397915"><ele>133.0</ele><time>2026-04-20T20:23:56.977Z</time></trkpt><trkpt lat="45.4089564" lon="10.5398565"><ele>133.0</ele><time>2026-04-20T20:24:15.97Z</time></trkpt><trkpt lat="45.4088632" lon="10.5398763"><ele>133.0</ele><time>2026-04-20T20:25:50.981Z</time></trkpt><trkpt lat="45.4087754" lon="10.5398415"><ele>133.0</ele><time>2026-04-20T20:26:44.972Z</time></trkpt><trkpt lat="45.4086946" lon="10.5398823"><ele>133.0</ele><time>2026-04-20T20:26:47.983Z</time></trkpt><trkpt lat="45.4087551" lon="10.5398393"><ele>133.0</ele><time>2026-04-20T20:27:06.975Z</time></trkpt><trkpt lat="45.408826" lon="10.5398159"><ele>133.0</ele><time>2026-04-20T20:27:11.977Z</time></trkpt><trkpt lat="45.408895" lon="10.5397932"><ele>133.0</ele><time>2026-04-20T20:27:15.973Z</time></trkpt><trkpt lat="45.4089563" lon="10.5397698"><ele>133.0</ele><time>2026-04-20T20:27:18.981Z</time></trkpt><trkpt lat="45.4089049" lon="10.5398275"><ele>133.0</ele><time>2026-04-20T20:27:30.976Z</time></trkpt><trkpt lat="45.408969" lon="10.5397896"><ele>133.0</ele><time>2026-04-20T20:31:29.974Z</time></trkpt><trkpt lat="45.4089908" lon="10.5398778"><ele>133.0</ele><time>2026-04-20T20:42:46.973Z</time></trkpt><trkpt lat="45.4089365" lon="10.5398295"><ele>133.0</ele><time>2026-04-20T20:43:45.976Z</time></trkpt><trkpt lat="45.4089352" lon="10.5397307"><ele>133.0</ele><time>2026-04-20T20:44:22.972Z</time></trkpt><trkpt lat="45.4089774" lon="10.5396535"><ele>133.0</ele><time>2026-04-20T20:44:28.977Z</time></trkpt><trkpt lat="45.4090128" lon="10.5397299"><ele>133.0</ele><time>2026-04-20T20:44:53.983Z</time></trkpt><trkpt lat="45.4089738" lon="10.5398125"><ele>133.0</ele><time>2026-04-20T20:45:02.97Z</time></trkpt><trkpt lat="45.4089508" lon="10.5399041"><ele>133.0</ele><time>2026-04-20T20:45:20.974Z</time></trkpt><trkpt lat="45.40898" lon="10.5398233"><ele>133.0</ele><time>2026-04-20T20:45:51.971Z</time></trkpt><trkpt lat="45.408894" lon="10.539795"><ele>133.0</ele><time>2026-04-20T20:57:09.979Z</time></trkpt><trkpt lat="45.4089696" lon="10.5397856"><ele>133.0</ele><time>2026-04-20T20:57:23.971Z</time></trkpt><trkpt lat="45.4091099" lon="10.5397617"><ele>133.0</ele><time>2026-04-20T20:57:43.979Z</time></trkpt><trkpt lat="45.409033" lon="10.5398022"><ele>133.0</ele><time>2026-04-20T20:57:54.974Z</time></trkpt><trkpt lat="45.4090912" lon="10.5397507"><ele>133.0</ele><time>2026-04-20T20:59:32.97Z</time></trkpt><trkpt lat="45.4090641" lon="10.5398335"><ele>133.0</ele><time>2026-04-20T20:59:59.971Z</time></trkpt><trkpt lat="45.4090031" lon="10.5398976"><ele>133.0</ele><time>2026-04-20T21:00:13.974Z</time></trkpt><trkpt lat="45.4089996" lon="10.5398017"><ele>133.0</ele><time>2026-04-20T21:00:42.979Z</time></trkpt><trkpt lat="45.4089361" lon="10.5398224"><ele>133.0</ele><time>2026-04-20T21:01:45.968Z</time></trkpt><trkpt lat="45.4088696" lon="10.5398444"><ele>133.0</ele><time>2026-04-20T21:01:54.971Z</time></trkpt><trkpt lat="45.4089482" lon="10.539853"><ele>133.0</ele><time>2026-04-20T21:02:27.969Z</time></trkpt><trkpt lat="45.4090183" lon="10.5397838"><ele>133.0</ele><time>2026-04-20T21:03:21.97Z</time></trkpt><trkpt lat="45.4089576" lon="10.5398107"><ele>133.0</ele><time>2026-04-20T21:03:29.968Z</time></trkpt><trkpt lat="45.4090353" lon="10.5398373"><ele>133.0</ele><time>2026-04-20T21:04:21.975Z</time></trkpt><trkpt lat="45.4090177" lon="10.539941"><ele>133.0</ele><time>2026-04-20T21:04:55.98Z</time></trkpt><trkpt lat="45.4089636" lon="10.5398874"><ele>133.0</ele><time>2026-04-20T21:05:08.968Z</time></trkpt><trkpt lat="45.4088996" lon="10.5399088"><ele>133.0</ele><time>2026-04-20T21:05:52.973Z</time></trkpt><trkpt lat="45.4089864" lon="10.5398851"><ele>133.0</ele><time>2026-04-20T21:08:09.977Z</time></trkpt><trkpt lat="45.4090545" lon="10.5399382"><ele>133.0</ele><time>2026-04-20T21:08:45.972Z</time></trkpt><trkpt lat="45.4089938" lon="10.5398799"><ele>133.0</ele><time>2026-04-20T21:09:31.978Z</time></trkpt><trkpt lat="45.4089992" lon="10.539787"><ele>133.0</ele><time>2026-04-20T21:09:58.978Z</time></trkpt><trkpt lat="45.4090622" lon="10.5396949"><ele>133.0</ele><time>2026-04-20T21:10:04.978Z</time></trkpt><trkpt lat="45.4089992" lon="10.5396969"><ele>133.0</ele><time>2026-04-20T21:10:23.967Z</time></trkpt><trkpt lat="45.4089633" lon="10.5397791"><ele>133.0</ele><time>2026-04-20T21:11:48.98Z</time></trkpt><trkpt lat="45.4089529" lon="10.5398865"><ele>133.0</ele><time>2026-04-20T21:17:30.976Z</time></trkpt><trkpt lat="45.4089304" lon="10.5399732"><ele>133.0</ele><time>2026-04-20T21:17:39.976Z</time></trkpt><trkpt lat="45.408985" lon="10.5400203"><ele>133.0</ele><time>2026-04-20T21:17:51.966Z</time></trkpt><trkpt lat="45.4089953" lon="10.5399236"><ele>133.0</ele><time>2026-04-20T21:18:14.977Z</time></trkpt><trkpt lat="45.4089453" lon="10.5398592"><ele>133.0</ele><time>2026-04-20T21:18:50.969Z</time></trkpt><trkpt lat="45.4089798" lon="10.5397836"><ele>133.0</ele><time>2026-04-20T21:19:13.97Z</time></trkpt><trkpt lat="45.4090508" lon="10.5397178"><ele>133.0</ele><time>2026-04-20T21:19:53.969Z</time></trkpt><trkpt lat="45.4089885" lon="10.5398172"><ele>133.0</ele><time>2026-04-20T21:20:30.969Z</time></trkpt><trkpt lat="45.4090657" lon="10.5397795"><ele>133.0</ele><time>2026-04-20T21:21:03.977Z</time></trkpt><trkpt lat="45.4089981" lon="10.5398316"><ele>133.0</ele><time>2026-04-20T21:21:58.972Z</time></trkpt><trkpt lat="45.409084" lon="10.539805"><ele>133.0</ele><time>2026-04-20T21:22:23.972Z</time></trkpt><trkpt lat="45.4091805" lon="10.539814"><ele>133.0</ele><time>2026-04-20T21:22:48.98Z</time></trkpt><trkpt lat="45.4091091" lon="10.5398547"><ele>133.0</ele><time>2026-04-20T21:23:18.971Z</time></trkpt><trkpt lat="45.4090461" lon="10.5398758"><ele>133.0</ele><time>2026-04-20T21:23:24.967Z</time></trkpt><trkpt lat="45.4089784" lon="10.5398569"><ele>133.0</ele><time>2026-04-20T21:24:47.97Z</time></trkpt><trkpt lat="45.4089148" lon="10.5398055"><ele>133.0</ele><time>2026-04-20T21:25:02.97Z</time></trkpt><trkpt lat="45.4089879" lon="10.5398127"><ele>133.0</ele><time>2026-04-20T21:26:18.972Z</time></trkpt><trkpt lat="45.4090015" lon="10.5399048"><ele>133.0</ele><time>2026-04-20T21:26:37.974Z</time></trkpt><trkpt lat="45.4089874" lon="10.5399966"><ele>133.0</ele><time>2026-04-20T21:27:06.967Z</time></trkpt><trkpt lat="45.4089978" lon="10.5399067"><ele>133.0</ele><time>2026-04-20T21:27:56.971Z</time></trkpt><trkpt lat="45.4089412" lon="10.5398265"><ele>133.0</ele><time>2026-04-20T21:28:28.966Z</time></trkpt><trkpt lat="45.4090253" lon="10.5398886"><ele>133.0</ele><time>2026-04-20T21:30:22.969Z</time></trkpt><trkpt lat="45.4089709" lon="10.5398322"><ele>133.0</ele><time>2026-04-20T21:31:25.97Z</time></trkpt><trkpt lat="45.4088882" lon="10.5397688"><ele>133.0</ele><time>2026-04-20T21:32:14.972Z</time></trkpt><trkpt lat="45.4089562" lon="10.5398218"><ele>133.0</ele><time>2026-04-20T21:33:32.972Z</time></trkpt><trkpt lat="45.4090233" lon="10.5397933"><ele>133.0</ele><time>2026-04-20T21:40:51.968Z</time></trkpt><trkpt lat="45.4089316" lon="10.5397829"><ele>133.0</ele><time>2026-04-20T21:42:15.967Z</time></trkpt><trkpt lat="45.4088629" lon="10.539794"><ele>133.0</ele><time>2026-04-20T21:46:29.969Z</time></trkpt><trkpt lat="45.408797" lon="10.5397713"><ele>133.0</ele><time>2026-04-20T21:46:36.968Z</time></trkpt><trkpt lat="45.408732" lon="10.5397983"><ele>133.0</ele><time>2026-04-20T21:47:03.977Z</time></trkpt><trkpt lat="45.4086645" lon="10.5397758"><ele>133.0</ele><time>2026-04-20T21:47:09.968Z</time></trkpt><trkpt lat="45.4087351" lon="10.5397865"><ele>133.0</ele><time>2026-04-20T21:47:32.971Z</time></trkpt><trkpt lat="45.4087966" lon="10.5398096"><ele>133.0</ele><time>2026-04-20T21:47:39.975Z</time></trkpt><trkpt lat="45.4088158" lon="10.5397108"><ele>133.0</ele><time>2026-04-20T21:47:52.967Z</time></trkpt><trkpt lat="45.4088239" lon="10.5398223"><ele>133.0</ele><time>2026-04-20T21:48:19.976Z</time></trkpt><trkpt lat="45.4088869" lon="10.5398075"><ele>133.0</ele><time>2026-04-20T21:49:10.974Z</time></trkpt><trkpt lat="45.4088507" lon="10.5397205"><ele>133.0</ele><time>2026-04-20T21:49:26.975Z</time></trkpt><trkpt lat="45.4089153" lon="10.5397549"><ele>133.0</ele><time>2026-04-20T21:49:58.978Z</time></trkpt><trkpt lat="45.4089757" lon="10.5397915"><ele>133.0</ele><time>2026-04-20T21:51:46.967Z</time></trkpt><trkpt lat="45.4089305" lon="10.5396726"><ele>133.0</ele><time>2026-04-20T21:52:12.965Z</time></trkpt><trkpt lat="45.4088746" lon="10.5396246"><ele>133.0</ele><time>2026-04-20T21:52:14.975Z</time></trkpt><trkpt lat="45.4087834" lon="10.5395673"><ele>133.0</ele><time>2026-04-20T21:52:16.974Z</time></trkpt><trkpt lat="45.4087982" lon="10.5396578"><ele>133.0</ele><time>2026-04-20T21:52:24.974Z</time></trkpt><trkpt lat="45.4088059" lon="10.5397553"><ele>133.0</ele><time>2026-04-20T21:52:47.976Z</time></trkpt><trkpt lat="45.4088795" lon="10.5397456"><ele>133.0</ele><time>2026-04-20T21:52:52.964Z</time></trkpt><trkpt lat="45.4089601" lon="10.5397962"><ele>133.0</ele><time>2026-04-20T21:52:59.966Z</time></trkpt><trkpt lat="45.4088851" lon="10.5397694"><ele>133.0</ele><time>2026-04-20T21:53:11.971Z</time></trkpt><trkpt lat="45.4088422" lon="10.5398772"><ele>133.0</ele><time>2026-04-20T21:53:16.968Z</time></trkpt><trkpt lat="45.4087825" lon="10.5399078"><ele>133.0</ele><time>2026-04-20T21:53:23.968Z</time></trkpt><trkpt lat="45.4088443" lon="10.5398349"><ele>133.0</ele><time>2026-04-20T21:53:45.97Z</time></trkpt><trkpt lat="45.4089164" lon="10.5398427"><ele>133.0</ele><time>2026-04-20T21:54:08.976Z</time></trkpt><trkpt lat="45.4090221" lon="10.5398307"><ele>133.0</ele><time>2026-04-20T21:54:58.97Z</time></trkpt><trkpt lat="45.4089676" lon="10.5397754"><ele>133.0</ele><time>2026-04-20T21:55:31.978Z</time></trkpt><trkpt lat="45.4089324" lon="10.5398558"><ele>133.0</ele><time>2026-04-20T21:56:37.975Z</time></trkpt><trkpt lat="45.4089996" lon="10.5399345"><ele>133.0</ele><time>2026-04-20T21:57:04.964Z</time></trkpt><trkpt lat="45.4089325" lon="10.5398658"><ele>133.0</ele><time>2026-04-20T21:57:26.971Z</time></trkpt><trkpt lat="45.4089377" lon="10.5397671"><ele>133.0</ele><time>2026-04-20T21:57:47.97Z</time></trkpt><trkpt lat="45.4090094" lon="10.5398178"><ele>133.0</ele><time>2026-04-20T21:58:29.977Z</time></trkpt><trkpt lat="45.4091185" lon="10.5398207"><ele>133.0</ele><time>2026-04-20T21:58:33.966Z</time></trkpt><trkpt lat="45.4092043" lon="10.5398226"><ele>133.0</ele><time>2026-04-20T21:58:39.966Z</time></trkpt><trkpt lat="45.4091362" lon="10.5398307"><ele>133.0</ele><time>2026-04-20T21:58:51.964Z</time></trkpt><trkpt lat="45.4090638" lon="10.5398365"><ele>133.0</ele><time>2026-04-20T21:59:31.967Z</time></trkpt><trkpt lat="45.4090013" lon="10.539864"><ele>133.0</ele><time>2026-04-20T21:59:50.975Z</time></trkpt><trkpt lat="45.4089374" lon="10.5398457"><ele>133.0</ele><time>2026-04-20T21:59:59.97Z</time></trkpt><trkpt lat="45.4088889" lon="10.5397809"><ele>133.0</ele><time>2026-04-20T22:01:30.971Z</time></trkpt><trkpt lat="45.4088231" lon="10.5397485"><ele>133.0</ele><time>2026-04-20T22:01:45.976Z</time></trkpt><trkpt lat="45.4089287" lon="10.5397702"><ele>133.0</ele><time>2026-04-20T22:02:40.976Z</time></trkpt><trkpt lat="45.4090061" lon="10.5397663"><ele>133.0</ele><time>2026-04-20T22:02:46.967Z</time></trkpt><trkpt lat="45.4089493" lon="10.5398054"><ele>133.0</ele><time>2026-04-20T22:03:14.973Z</time></trkpt><trkpt lat="45.4088855" lon="10.5397894"><ele>133.0</ele><time>2026-04-20T22:03:38.978Z</time></trkpt><trkpt lat="45.4088179" lon="10.5397792"><ele>133.0</ele><time>2026-04-20T22:03:42.973Z</time></trkpt><trkpt lat="45.408737" lon="10.5397693"><ele>133.0</ele><time>2026-04-20T22:03:47.975Z</time></trkpt><trkpt lat="45.4088211" lon="10.5398153"><ele>133.0</ele><time>2026-04-20T22:04:01.977Z</time></trkpt><trkpt lat="45.4088875" lon="10.5398105"><ele>133.0</ele><time>2026-04-20T22:04:12.97Z</time></trkpt><trkpt lat="45.4089677" lon="10.5398258"><ele>133.0</ele><time>2026-04-20T22:04:49.973Z</time></trkpt><trkpt lat="45.409049" lon="10.5397871"><ele>133.0</ele><time>2026-04-20T22:05:02.967Z</time></trkpt><trkpt lat="45.409119" lon="10.5397781"><ele>133.0</ele><time>2026-04-20T22:05:16.976Z</time></trkpt><trkpt lat="45.4091437" lon="10.5398825"><ele>133.0</ele><time>2026-04-20T22:05:39.97Z</time></trkpt><trkpt lat="45.4090773" lon="10.5398542"><ele>133.0</ele><time>2026-04-20T22:05:49.972Z</time></trkpt><trkpt lat="45.4090183" lon="10.5398096"><ele>133.0</ele><time>2026-04-20T22:06:19.971Z</time></trkpt><trkpt lat="45.4089622" lon="10.5397604"><ele>133.0</ele><time>2026-04-20T22:06:43.963Z</time></trkpt><trkpt lat="45.4089095" lon="10.5396766"><ele>133.0</ele><time>2026-04-20T22:07:00.96Z</time></trkpt><trkpt lat="45.408977" lon="10.5396841"><ele>133.0</ele><time>2026-04-20T22:07:07.968Z</time></trkpt><trkpt lat="45.409102" lon="10.5396903"><ele>133.0</ele><time>2026-04-20T22:07:15.966Z</time></trkpt><trkpt lat="45.4090153" lon="10.5397129"><ele>133.0</ele><time>2026-04-20T22:07:27.97Z</time></trkpt><trkpt lat="45.4089492" lon="10.5397174"><ele>133.0</ele><time>2026-04-20T22:07:31.967Z</time></trkpt><trkpt lat="45.4090273" lon="10.5397774"><ele>133.0</ele><time>2026-04-20T22:08:03.958Z</time></trkpt><trkpt lat="45.4089646" lon="10.5397598"><ele>133.0</ele><time>2026-04-20T22:08:51.965Z</time></trkpt><trkpt lat="45.4088956" lon="10.5397642"><ele>133.0</ele><time>2026-04-20T22:08:55.977Z</time></trkpt><trkpt lat="45.4089535" lon="10.5398063"><ele>133.0</ele><time>2026-04-20T22:09:48.966Z</time></trkpt><trkpt lat="45.4090266" lon="10.5398692"><ele>133.0</ele><time>2026-04-20T22:10:16.971Z</time></trkpt><trkpt lat="45.4089674" lon="10.5398279"><ele>133.0</ele><time>2026-04-20T22:10:54.964Z</time></trkpt><trkpt lat="45.4089091" lon="10.5397889"><ele>133.0</ele><time>2026-04-20T22:11:02.965Z</time></trkpt><trkpt lat="45.4089932" lon="10.5398317"><ele>133.0</ele><time>2026-04-20T22:12:02.971Z</time></trkpt><trkpt lat="45.4089289" lon="10.5398071"><ele>133.0</ele><time>2026-04-20T22:12:27.972Z</time></trkpt><trkpt lat="45.4088823" lon="10.5397438"><ele>133.0</ele><time>2026-04-20T22:12:36.975Z</time></trkpt><trkpt lat="45.408924" lon="10.539819"><ele>133.0</ele><time>2026-04-20T22:13:05.975Z</time></trkpt><trkpt lat="45.4089581" lon="10.5398977"><ele>133.0</ele><time>2026-04-20T22:13:14.969Z</time></trkpt><trkpt lat="45.408916" lon="10.5398274"><ele>133.0</ele><time>2026-04-20T22:13:18.975Z</time></trkpt><trkpt lat="45.4089933" lon="10.5398167"><ele>133.0</ele><time>2026-04-20T22:13:45.959Z</time></trkpt><trkpt lat="45.4089375" lon="10.5397747"><ele>133.0</ele><time>2026-04-20T22:13:54.967Z</time></trkpt><trkpt lat="45.4089083" lon="10.5396886"><ele>133.0</ele><time>2026-04-20T22:14:16.967Z</time></trkpt><trkpt lat="45.4088386" lon="10.5397146"><ele>133.0</ele><time>2026-04-20T22:15:11.972Z</time></trkpt><trkpt lat="45.4088953" lon="10.5397721"><ele>133.0</ele><time>2026-04-20T22:15:49.978Z</time></trkpt><trkpt lat="45.4089815" lon="10.5397839"><ele>133.0</ele><time>2026-04-20T22:16:03.964Z</time></trkpt><trkpt lat="45.4089184" lon="10.5397284"><ele>133.0</ele><time>2026-04-20T22:16:17.967Z</time></trkpt><trkpt lat="45.4090007" lon="10.539773"><ele>133.0</ele><time>2026-04-20T22:16:20.974Z</time></trkpt><trkpt lat="45.4090603" lon="10.5398284"><ele>133.0</ele><time>2026-04-20T22:16:29.98Z</time></trkpt><trkpt lat="45.4089969" lon="10.5398172"><ele>133.0</ele><time>2026-04-20T22:16:40.973Z</time></trkpt><trkpt lat="45.4089243" lon="10.539778"><ele>133.0</ele><time>2026-04-20T22:16:50.963Z</time></trkpt><trkpt lat="45.409027" lon="10.5399073"><ele>133.0</ele><time>2026-04-20T22:17:40.707Z</time></trkpt><trkpt lat="45.4089683" lon="10.5398337"><ele>133.0</ele><time>2026-04-20T22:17:43.705Z</time></trkpt><trkpt lat="45.4090175" lon="10.5398913"><ele>133.0</ele><time>2026-04-20T22:18:55.972Z</time></trkpt><trkpt lat="45.4090975" lon="10.5399028"><ele>133.0</ele><time>2026-04-20T22:22:00.96Z</time></trkpt><trkpt lat="45.4091753" lon="10.5398943"><ele>133.0</ele><time>2026-04-20T22:22:25.979Z</time></trkpt><trkpt lat="45.4091337" lon="10.5398088"><ele>133.0</ele><time>2026-04-20T22:23:16.975Z</time></trkpt><trkpt lat="45.4092205" lon="10.539844"><ele>133.0</ele><time>2026-04-20T22:23:32.978Z</time></trkpt><trkpt lat="45.4091694" lon="10.5397703"><ele>133.0</ele><time>2026-04-20T22:23:48.972Z</time></trkpt><trkpt lat="45.4090288" lon="10.5397637"><ele>133.0</ele><time>2026-04-20T22:23:57.971Z</time></trkpt><trkpt lat="45.4090919" lon="10.5397869"><ele>133.0</ele><time>2026-04-20T22:24:08.968Z</time></trkpt><trkpt lat="45.4090758" lon="10.5398817"><ele>133.0</ele><time>2026-04-20T22:24:22.973Z</time></trkpt><trkpt lat="45.4089921" lon="10.5398835"><ele>133.0</ele><time>2026-04-20T22:24:29.971Z</time></trkpt><trkpt lat="45.4089053" lon="10.539863"><ele>133.0</ele><time>2026-04-20T22:24:31.972Z</time></trkpt><trkpt lat="45.4089506" lon="10.5399395"><ele>133.0</ele><time>2026-04-20T22:24:39.965Z</time></trkpt><trkpt lat="45.4090507" lon="10.539929"><ele>133.0</ele><time>2026-04-20T22:24:46.975Z</time></trkpt><trkpt lat="45.4090388" lon="10.5398294"><ele>133.0</ele><time>2026-04-20T22:24:57.966Z</time></trkpt><trkpt lat="45.4090106" lon="10.539731"><ele>133.0</ele><time>2026-04-20T22:25:05.965Z</time></trkpt><trkpt lat="45.4089529" lon="10.5396716"><ele>133.0</ele><time>2026-04-20T22:25:07.966Z</time></trkpt><trkpt lat="45.4088942" lon="10.5396174"><ele>133.0</ele><time>2026-04-20T22:25:09.973Z</time></trkpt><trkpt lat="45.4088276" lon="10.5396305"><ele>133.0</ele><time>2026-04-20T22:25:16.974Z</time></trkpt><trkpt lat="45.4088629" lon="10.5397077"><ele>133.0</ele><time>2026-04-20T22:25:22.965Z</time></trkpt><trkpt lat="45.4089244" lon="10.5397395"><ele>133.0</ele><time>2026-04-20T22:25:32.969Z</time></trkpt><trkpt lat="45.4089758" lon="10.539819"><ele>133.0</ele><time>2026-04-20T22:25:48.967Z</time></trkpt><trkpt lat="45.4089025" lon="10.5398069"><ele>133.0</ele><time>2026-04-20T22:26:06.969Z</time></trkpt><trkpt lat="45.4089976" lon="10.5398112"><ele>133.0</ele><time>2026-04-20T22:26:31.974Z</time></trkpt><trkpt lat="45.4090634" lon="10.5398327"><ele>133.0</ele><time>2026-04-20T22:26:38.974Z</time></trkpt><trkpt lat="45.409022" lon="10.5397501"><ele>133.0</ele><time>2026-04-20T22:26:51.967Z</time></trkpt><trkpt lat="45.4089558" lon="10.5397607"><ele>133.0</ele><time>2026-04-20T22:27:06.964Z</time></trkpt><trkpt lat="45.4088788" lon="10.539735"><ele>133.0</ele><time>2026-04-20T22:27:35.974Z</time></trkpt><trkpt lat="45.4088153" lon="10.5397088"><ele>133.0</ele><time>2026-04-20T22:27:38.974Z</time></trkpt><trkpt lat="45.4087381" lon="10.5396754"><ele>133.0</ele><time>2026-04-20T22:27:42.963Z</time></trkpt><trkpt lat="45.4088212" lon="10.5396669"><ele>133.0</ele><time>2026-04-20T22:28:01.968Z</time></trkpt><trkpt lat="45.4088743" lon="10.5397175"><ele>133.0</ele><time>2026-04-20T22:28:07.969Z</time></trkpt><trkpt lat="45.4089323" lon="10.5397651"><ele>133.0</ele><time>2026-04-20T22:28:34.968Z</time></trkpt><trkpt lat="45.4089888" lon="10.5398086"><ele>133.0</ele><time>2026-04-20T22:28:47.973Z</time></trkpt><trkpt lat="45.4090562" lon="10.5398817"><ele>133.0</ele><time>2026-04-20T22:28:55.969Z</time></trkpt><trkpt lat="45.4089921" lon="10.5398559"><ele>133.0</ele><time>2026-04-20T22:29:30.974Z</time></trkpt><trkpt lat="45.4089321" lon="10.5398087"><ele>133.0</ele><time>2026-04-20T22:29:40.972Z</time></trkpt><trkpt lat="45.4090182" lon="10.5398133"><ele>133.0</ele><time>2026-04-20T22:31:51.965Z</time></trkpt><trkpt lat="45.4090735" lon="10.5398708"><ele>133.0</ele><time>2026-04-20T22:32:00.966Z</time></trkpt><trkpt lat="45.4090187" lon="10.5398159"><ele>133.0</ele><time>2026-04-20T22:32:19.974Z</time></trkpt><trkpt lat="45.4089572" lon="10.5397897"><ele>133.0</ele><time>2026-04-20T22:33:05.97Z</time></trkpt><trkpt lat="45.4088998" lon="10.539727"><ele>133.0</ele><time>2026-04-20T22:33:08.964Z</time></trkpt><trkpt lat="45.4087968" lon="10.5397618"><ele>133.0</ele><time>2026-04-20T22:33:20.967Z</time></trkpt><trkpt lat="45.4088018" lon="10.5396536"><ele>133.0</ele><time>2026-04-20T22:33:29.97Z</time></trkpt><trkpt lat="45.4086764" lon="10.5396544"><ele>131.20000000000002</ele><time>2026-04-20T22:33:52.972Z</time></trkpt><trkpt lat="45.4085559" lon="10.5396421"><ele>129.4</ele><time>2026-04-20T22:33:54.961Z</time></trkpt><trkpt lat="45.4084531" lon="10.5396213"><ele>127.60000000000001</ele><time>2026-04-20T22:33:55.968Z</time></trkpt><trkpt lat="45.4085174" lon="10.5396978"><ele>125.80000000000001</ele><time>2026-04-20T22:33:59.974Z</time></trkpt><trkpt lat="45.4085859" lon="10.5396992"><ele>124.0</ele><time>2026-04-20T22:34:05.973Z</time></trkpt><trkpt lat="45.4086577" lon="10.5397153"><ele>124.00000000000001</ele><time>2026-04-20T22:34:08.975Z</time></trkpt><trkpt lat="45.4087237" lon="10.5397008"><ele>124.0</ele><time>2026-04-20T22:34:19.966Z</time></trkpt><trkpt lat="45.4087899" lon="10.5397088"><ele>124.0</ele><time>2026-04-20T22:34:23.974Z</time></trkpt><trkpt lat="45.4088866" lon="10.5397755"><ele>124.0</ele><time>2026-04-20T22:34:29.975Z</time></trkpt><trkpt lat="45.4089787" lon="10.5398119"><ele>124.00000000000001</ele><time>2026-04-20T22:34:37.969Z</time></trkpt><trkpt lat="45.4089247" lon="10.53974"><ele>124.0</ele><time>2026-04-20T22:34:58.956Z</time></trkpt><trkpt lat="45.4090169" lon="10.5398158"><ele>125.28571428571429</ele><time>2026-04-20T22:35:48.962Z</time></trkpt><trkpt lat="45.4089725" lon="10.5397481"><ele>126.57142857142858</ele><time>2026-04-20T22:35:59.969Z</time></trkpt><trkpt lat="45.4089038" lon="10.5397824"><ele>127.85714285714286</ele><time>2026-04-20T22:36:02.977Z</time></trkpt><trkpt lat="45.4088379" lon="10.5397321"><ele>129.14285714285714</ele><time>2026-04-20T22:36:09.971Z</time></trkpt><trkpt lat="45.408897" lon="10.5397735"><ele>130.42857142857144</ele><time>2026-04-20T22:36:13.971Z</time></trkpt><trkpt lat="45.4089597" lon="10.5397906"><ele>131.71428571428572</ele><time>2026-04-20T22:36:20.97Z</time></trkpt><trkpt lat="45.4090224" lon="10.539812"><ele>133.0</ele><time>2026-04-20T22:36:25.973Z</time></trkpt><trkpt lat="45.4089647" lon="10.5396825"><ele>133.0</ele><time>2026-04-20T22:37:21.972Z</time></trkpt><trkpt lat="45.4089557" lon="10.5395855"><ele>133.0</ele><time>2026-04-20T22:37:37.97Z</time></trkpt><trkpt lat="45.4090303" lon="10.5394933"><ele>133.0</ele><time>2026-04-20T22:37:40.97Z</time></trkpt><trkpt lat="45.4090944" lon="10.5394846"><ele>133.0</ele><time>2026-04-20T22:37:43.967Z</time></trkpt><trkpt lat="45.4090574" lon="10.539573"><ele>133.0</ele><time>2026-04-20T22:37:47.973Z</time></trkpt><trkpt lat="45.4090292" lon="10.5396596"><ele>133.0</ele><time>2026-04-20T22:37:54.965Z</time></trkpt><trkpt lat="45.4089486" lon="10.5396549"><ele>133.0</ele><time>2026-04-20T22:37:59.975Z</time></trkpt><trkpt lat="45.408896" lon="10.5395903"><ele>133.0</ele><time>2026-04-20T22:38:01.971Z</time></trkpt><trkpt lat="45.4089" lon="10.539694"><ele>133.0</ele><time>2026-04-20T22:38:22.971Z</time></trkpt><trkpt lat="45.4089599" lon="10.5397706"><ele>133.0</ele><time>2026-04-20T22:38:49.965Z</time></trkpt><trkpt lat="45.4090189" lon="10.5398278"><ele>133.0</ele><time>2026-04-20T22:39:48.961Z</time></trkpt><trkpt lat="45.4089524" lon="10.539861"><ele>133.0</ele><time>2026-04-20T22:39:59.975Z</time></trkpt><trkpt lat="45.4089209" lon="10.5397749"><ele>133.0</ele><time>2026-04-20T22:40:12.966Z</time></trkpt><trkpt lat="45.4089341" lon="10.5398641"><ele>133.0</ele><time>2026-04-20T22:40:36.965Z</time></trkpt><trkpt lat="45.4090175" lon="10.5398431"><ele>133.0</ele><time>2026-04-20T22:41:08.965Z</time></trkpt><trkpt lat="45.4089934" lon="10.5397531"><ele>133.0</ele><time>2026-04-20T22:41:15.965Z</time></trkpt><trkpt lat="45.4090167" lon="10.5398383"><ele>133.0</ele><time>2026-04-20T22:41:47.963Z</time></trkpt><trkpt lat="45.4090447" lon="10.5399246"><ele>133.0</ele><time>2026-04-20T22:42:01.973Z</time></trkpt><trkpt lat="45.408989" lon="10.5398662"><ele>133.0</ele><time>2026-04-20T22:42:20.965Z</time></trkpt><trkpt lat="45.4089213" lon="10.5397983"><ele>133.0</ele><time>2026-04-20T22:43:48.975Z</time></trkpt><trkpt lat="45.4089578" lon="10.5398989"><ele>133.0</ele><time>2026-04-20T22:44:31.967Z</time></trkpt><trkpt lat="45.4090487" lon="10.539907"><ele>133.0</ele><time>2026-04-20T22:44:47.968Z</time></trkpt><trkpt lat="45.4090065" lon="10.5398273"><ele>133.0</ele><time>2026-04-20T22:44:55.969Z</time></trkpt><trkpt lat="45.4089399" lon="10.5397977"><ele>133.0</ele><time>2026-04-20T22:45:15.968Z</time></trkpt><trkpt lat="45.4088778" lon="10.5397619"><ele>133.0</ele><time>2026-04-20T22:45:24.974Z</time></trkpt><trkpt lat="45.4089236" lon="10.539842"><ele>133.0</ele><time>2026-04-20T22:45:49.973Z</time></trkpt><trkpt lat="45.4088674" lon="10.5397991"><ele>133.0</ele><time>2026-04-20T22:47:02.974Z</time></trkpt><trkpt lat="45.4089428" lon="10.53984"><ele>133.0</ele><time>2026-04-20T22:48:13.97Z</time></trkpt><trkpt lat="45.4090341" lon="10.5398418"><ele>133.0</ele><time>2026-04-20T22:48:18.965Z</time></trkpt><trkpt lat="45.4089982" lon="10.5399171"><ele>133.0</ele><time>2026-04-20T22:48:36.969Z</time></trkpt><trkpt lat="45.4089589" lon="10.5398456"><ele>133.0</ele><time>2026-04-20T22:49:27.97Z</time></trkpt><trkpt lat="45.4089605" lon="10.5397554"><ele>133.0</ele><time>2026-04-20T22:50:00.973Z</time></trkpt><trkpt lat="45.4089122" lon="10.5398155"><ele>133.0</ele><time>2026-04-20T22:50:16.971Z</time></trkpt><trkpt lat="45.4088558" lon="10.5397433"><ele>133.0</ele><time>2026-04-20T22:50:48.975Z</time></trkpt><trkpt lat="45.408794" lon="10.5397232"><ele>133.0</ele><time>2026-04-20T22:50:51.967Z</time></trkpt><trkpt lat="45.4089451" lon="10.5397156"><ele>133.0</ele><time>2026-04-20T22:51:53.976Z</time></trkpt><trkpt lat="45.4089997" lon="10.5397789"><ele>133.0</ele><time>2026-04-20T22:52:01.977Z</time></trkpt><trkpt lat="45.4089242" lon="10.5397575"><ele>133.0</ele><time>2026-04-20T22:53:03.966Z</time></trkpt><trkpt lat="45.4089532" lon="10.5398391"><ele>133.0</ele><time>2026-04-20T22:53:16.975Z</time></trkpt><trkpt lat="45.4089278" lon="10.5397395"><ele>133.0</ele><time>2026-04-20T22:56:29.975Z</time></trkpt><trkpt lat="45.4090359" lon="10.5397172"><ele>133.0</ele><time>2026-04-20T22:56:45.971Z</time></trkpt><trkpt lat="45.4090069" lon="10.5398131"><ele>133.0</ele><time>2026-04-20T22:57:02.974Z</time></trkpt><trkpt lat="45.4089473" lon="10.5397796"><ele>133.0</ele><time>2026-04-20T22:57:37.975Z</time></trkpt><trkpt lat="45.4089171" lon="10.5396996"><ele>133.0</ele><time>2026-04-20T23:01:47.974Z</time></trkpt><trkpt lat="45.4089961" lon="10.5397742"><ele>133.0</ele><time>2026-04-20T23:03:23.967Z</time></trkpt><trkpt lat="45.409028" lon="10.5399024"><ele>133.0</ele><time>2026-04-20T23:03:29.967Z</time></trkpt><trkpt lat="45.4090983" lon="10.540027"><ele>133.0</ele><time>2026-04-20T23:03:38.966Z</time></trkpt><trkpt lat="45.4090896" lon="10.5399307"><ele>133.0</ele><time>2026-04-20T23:03:49.977Z</time></trkpt><trkpt lat="45.4090404" lon="10.5398512"><ele>133.0</ele><time>2026-04-20T23:03:54.964Z</time></trkpt><trkpt lat="45.4089859" lon="10.539786"><ele>133.0</ele><time>2026-04-20T23:04:29.97Z</time></trkpt><trkpt lat="45.4089125" lon="10.53975"><ele>133.0</ele><time>2026-04-20T23:04:57.974Z</time></trkpt><trkpt lat="45.4089793" lon="10.5397976"><ele>133.0</ele><time>2026-04-20T23:05:24.958Z</time></trkpt><trkpt lat="45.4089306" lon="10.5397381"><ele>133.0</ele><time>2026-04-20T23:07:52.976Z</time></trkpt><trkpt lat="45.4089822" lon="10.5398409"><ele>133.0</ele><time>2026-04-20T23:10:58.965Z</time></trkpt><trkpt lat="45.4090094" lon="10.5399351"><ele>133.0</ele><time>2026-04-20T23:11:39.965Z</time></trkpt><trkpt lat="45.4089647" lon="10.5398608"><ele>133.0</ele><time>2026-04-20T23:13:24.963Z</time></trkpt><trkpt lat="45.4088895" lon="10.5398362"><ele>133.0</ele><time>2026-04-20T23:14:09.973Z</time></trkpt><trkpt lat="45.4089756" lon="10.5398121"><ele>133.0</ele><time>2026-04-20T23:15:37.973Z</time></trkpt><trkpt lat="45.4090053" lon="10.53993"><ele>133.0</ele><time>2026-04-20T23:18:43.973Z</time></trkpt><trkpt lat="45.4089941" lon="10.5398378"><ele>133.0</ele><time>2026-04-20T23:19:05.965Z</time></trkpt><trkpt lat="45.4089306" lon="10.5398391"><ele>133.0</ele><time>2026-04-20T23:19:42.967Z</time></trkpt><trkpt lat="45.4089284" lon="10.5397354"><ele>133.0</ele><time>2026-04-20T23:22:00.972Z</time></trkpt><trkpt lat="45.4088617" lon="10.5398023"><ele>133.0</ele><time>2026-04-20T23:22:44.965Z</time></trkpt><trkpt lat="45.4088933" lon="10.5398928"><ele>133.0</ele><time>2026-04-20T23:23:19.972Z</time></trkpt><trkpt lat="45.4089592" lon="10.5398408"><ele>133.0</ele><time>2026-04-20T23:23:44.972Z</time></trkpt><trkpt lat="45.4089968" lon="10.5397467"><ele>133.0</ele><time>2026-04-20T23:25:03.963Z</time></trkpt><trkpt lat="45.4089193" lon="10.5397151"><ele>133.0</ele><time>2026-04-20T23:25:08.966Z</time></trkpt><trkpt lat="45.4089204" lon="10.5398105"><ele>133.0</ele><time>2026-04-20T23:26:05.968Z</time></trkpt><trkpt lat="45.4090074" lon="10.5398533"><ele>133.0</ele><time>2026-04-20T23:26:43.974Z</time></trkpt><trkpt lat="45.4090309" lon="10.5399884"><ele>133.0</ele><time>2026-04-20T23:27:02.968Z</time></trkpt><trkpt lat="45.4089779" lon="10.5399024"><ele>133.0</ele><time>2026-04-20T23:27:25.975Z</time></trkpt><trkpt lat="45.4089126" lon="10.5398159"><ele>133.0</ele><time>2026-04-20T23:28:05.973Z</time></trkpt><trkpt lat="45.4089811" lon="10.5398063"><ele>133.0</ele><time>2026-04-20T23:28:40.968Z</time></trkpt><trkpt lat="45.4089972" lon="10.5398931"><ele>133.0</ele><time>2026-04-20T23:28:59.966Z</time></trkpt><trkpt lat="45.4090494" lon="10.5399544"><ele>133.0</ele><time>2026-04-20T23:29:04.969Z</time></trkpt><trkpt lat="45.4089803" lon="10.5399618"><ele>133.0</ele><time>2026-04-20T23:29:37.972Z</time></trkpt><trkpt lat="45.4089175" lon="10.5399295"><ele>133.0</ele><time>2026-04-20T23:30:45.964Z</time></trkpt><trkpt lat="45.4089784" lon="10.539885"><ele>133.0</ele><time>2026-04-20T23:31:04.972Z</time></trkpt><trkpt lat="45.4089211" lon="10.5397977"><ele>133.0</ele><time>2026-04-20T23:34:03.966Z</time></trkpt><trkpt lat="45.4089457" lon="10.53971"><ele>133.0</ele><time>2026-04-20T23:34:14.967Z</time></trkpt><trkpt lat="45.4089657" lon="10.5396142"><ele>133.0</ele><time>2026-04-20T23:34:19.97Z</time></trkpt><trkpt lat="45.4089725" lon="10.53971"><ele>133.0</ele><time>2026-04-20T23:34:31.97Z</time></trkpt><trkpt lat="45.4088732" lon="10.5396602"><ele>133.0</ele><time>2026-04-20T23:34:47.974Z</time></trkpt><trkpt lat="45.4088316" lon="10.5397285"><ele>133.0</ele><time>2026-04-20T23:34:56.962Z</time></trkpt><trkpt lat="45.4088849" lon="10.5398069"><ele>133.0</ele><time>2026-04-20T23:35:02.971Z</time></trkpt><trkpt lat="45.4088925" lon="10.5399036"><ele>133.0</ele><time>2026-04-20T23:35:08.968Z</time></trkpt><trkpt lat="45.408917" lon="10.5398171"><ele>133.0</ele><time>2026-04-20T23:35:30.963Z</time></trkpt><trkpt lat="45.4088795" lon="10.5397406"><ele>133.0</ele><time>2026-04-20T23:35:36.971Z</time></trkpt><trkpt lat="45.4088167" lon="10.5397612"><ele>133.0</ele><time>2026-04-20T23:37:24.963Z</time></trkpt><trkpt lat="45.4088488" lon="10.5398466"><ele>133.0</ele><time>2026-04-20T23:37:30.964Z</time></trkpt><trkpt lat="45.4089517" lon="10.5398724"><ele>133.0</ele><time>2026-04-20T23:38:23.971Z</time></trkpt><trkpt lat="45.4088914" lon="10.539827"><ele>133.0</ele><time>2026-04-20T23:38:47.97Z</time></trkpt><trkpt lat="45.4089374" lon="10.539762"><ele>133.0</ele><time>2026-04-20T23:39:56.961Z</time></trkpt><trkpt lat="45.4089332" lon="10.5398709"><ele>133.0</ele><time>2026-04-20T23:42:15.961Z</time></trkpt><trkpt lat="45.4088797" lon="10.5397798"><ele>133.0</ele><time>2026-04-20T23:42:27.971Z</time></trkpt><trkpt lat="45.4089249" lon="10.5398579"><ele>133.0</ele><time>2026-04-20T23:42:39.962Z</time></trkpt><trkpt lat="45.4089486" lon="10.5397341"><ele>133.0</ele><time>2026-04-20T23:43:05.962Z</time></trkpt><trkpt lat="45.4089233" lon="10.5398167"><ele>133.0</ele><time>2026-04-20T23:43:58.971Z</time></trkpt><trkpt lat="45.4089793" lon="10.5398661"><ele>133.0</ele><time>2026-04-20T23:45:48.963Z</time></trkpt><trkpt lat="45.4090301" lon="10.5397931"><ele>133.0</ele><time>2026-04-20T23:46:03.961Z</time></trkpt><trkpt lat="45.40899" lon="10.5398636"><ele>133.0</ele><time>2026-04-20T23:46:44.962Z</time></trkpt><trkpt lat="45.4089254" lon="10.5398768"><ele>133.0</ele><time>2026-04-20T23:48:27.966Z</time></trkpt><trkpt lat="45.4088456" lon="10.5398844"><ele>133.0</ele><time>2026-04-20T23:49:40.967Z</time></trkpt><trkpt lat="45.4089141" lon="10.5398398"><ele>133.0</ele><time>2026-04-20T23:49:58.958Z</time></trkpt><trkpt lat="45.4088375" lon="10.5398863"><ele>133.0</ele><time>2026-04-20T23:50:12.972Z</time></trkpt><trkpt lat="45.4088899" lon="10.5398283"><ele>133.0</ele><time>2026-04-20T23:50:30.973Z</time></trkpt><trkpt lat="45.40896" lon="10.5398051"><ele>133.0</ele><time>2026-04-20T23:53:25.964Z</time></trkpt><trkpt lat="45.4089644" lon="10.5397039"><ele>133.0</ele><time>2026-04-20T23:54:17.973Z</time></trkpt><trkpt lat="45.4089467" lon="10.5397924"><ele>133.0</ele><time>2026-04-20T23:55:54.97Z</time></trkpt><trkpt lat="45.408977" lon="10.539696"><ele>133.0</ele><time>2026-04-20T23:56:28.971Z</time></trkpt><trkpt lat="45.4089973" lon="10.5397871"><ele>133.0</ele><time>2026-04-20T23:56:59.966Z</time></trkpt><trkpt lat="45.4089622" lon="10.539709"><ele>133.0</ele><time>2026-04-20T23:57:29.964Z</time></trkpt><trkpt lat="45.4089524" lon="10.5398192"><ele>133.0</ele><time>2026-04-20T23:58:25.96Z</time></trkpt><trkpt lat="45.4089603" lon="10.5399101"><ele>133.0</ele><time>2026-04-20T23:59:31.965Z</time></trkpt><trkpt lat="45.409024" lon="10.5398466"><ele>133.0</ele><time>2026-04-20T23:59:45.962Z</time></trkpt><trkpt lat="45.4089619" lon="10.5398618"><ele>133.0</ele><time>2026-04-21T00:00:25.961Z</time></trkpt><trkpt lat="45.4088973" lon="10.5398198"><ele>133.0</ele><time>2026-04-21T00:03:44.966Z</time></trkpt><trkpt lat="45.4088287" lon="10.5397589"><ele>133.0</ele><time>2026-04-21T00:03:55.972Z</time></trkpt><trkpt lat="45.4088989" lon="10.539766"><ele>133.0</ele><time>2026-04-21T00:04:10.968Z</time></trkpt><trkpt lat="45.4089454" lon="10.5398313"><ele>133.0</ele><time>2026-04-21T00:06:04.972Z</time></trkpt><trkpt lat="45.4088959" lon="10.539765"><ele>133.0</ele><time>2026-04-21T00:08:04.963Z</time></trkpt><trkpt lat="45.4089625" lon="10.5395955"><ele>133.0</ele><time>2026-04-21T00:08:13.97Z</time></trkpt><trkpt lat="45.4089326" lon="10.5397063"><ele>133.0</ele><time>2026-04-21T00:08:23.97Z</time></trkpt><trkpt lat="45.4089099" lon="10.5397929"><ele>133.0</ele><time>2026-04-21T00:08:30.967Z</time></trkpt><trkpt lat="45.4090089" lon="10.5397556"><ele>133.0</ele><time>2026-04-21T00:09:03.963Z</time></trkpt><trkpt lat="45.4090636" lon="10.5397006"><ele>133.0</ele><time>2026-04-21T00:09:33.964Z</time></trkpt><trkpt lat="45.4089957" lon="10.5397453"><ele>133.0</ele><time>2026-04-21T00:10:14.965Z</time></trkpt><trkpt lat="45.4089905" lon="10.539874"><ele>133.0</ele><time>2026-04-21T00:10:23.961Z</time></trkpt><trkpt lat="45.4089238" lon="10.5398945"><ele>133.0</ele><time>2026-04-21T00:10:45.962Z</time></trkpt><trkpt lat="45.4088602" lon="10.5399258"><ele>133.0</ele><time>2026-04-21T00:10:57.969Z</time></trkpt><trkpt lat="45.4089014" lon="10.5398418"><ele>133.0</ele><time>2026-04-21T00:11:05.974Z</time></trkpt><trkpt lat="45.4089666" lon="10.5397736"><ele>133.0</ele><time>2026-04-21T00:11:25.963Z</time></trkpt><trkpt lat="45.4089331" lon="10.5398505"><ele>133.0</ele><time>2026-04-21T00:12:05.962Z</time></trkpt><trkpt lat="45.4089819" lon="10.5397766"><ele>133.0</ele><time>2026-04-21T00:12:32.97Z</time></trkpt><trkpt lat="45.4089212" lon="10.5398314"><ele>133.0</ele><time>2026-04-21T00:16:20.969Z</time></trkpt><trkpt lat="45.4088581" lon="10.539809"><ele>133.0</ele><time>2026-04-21T00:17:04.967Z</time></trkpt><trkpt lat="45.4089586" lon="10.5397797"><ele>133.0</ele><time>2026-04-21T00:17:55.966Z</time></trkpt><trkpt lat="45.4089285" lon="10.5398632"><ele>133.0</ele><time>2026-04-21T00:19:01.959Z</time></trkpt><trkpt lat="45.408872" lon="10.5399212"><ele>133.0</ele><time>2026-04-21T00:19:10.961Z</time></trkpt><trkpt lat="45.4089211" lon="10.5398577"><ele>133.0</ele><time>2026-04-21T00:19:30.969Z</time></trkpt><trkpt lat="45.4089769" lon="10.5397896"><ele>133.0</ele><time>2026-04-21T00:19:41.96Z</time></trkpt><trkpt lat="45.4089673" lon="10.5398908"><ele>133.0</ele><time>2026-04-21T00:20:24.964Z</time></trkpt><trkpt lat="45.4088961" lon="10.539793"><ele>133.0</ele><time>2026-04-21T00:21:05.967Z</time></trkpt><trkpt lat="45.4088394" lon="10.5397521"><ele>133.0</ele><time>2026-04-21T00:21:09.97Z</time></trkpt><trkpt lat="45.4088904" lon="10.5396891"><ele>133.0</ele><time>2026-04-21T00:21:17.962Z</time></trkpt><trkpt lat="45.4089497" lon="10.5397315"><ele>133.0</ele><time>2026-04-21T00:21:24.963Z</time></trkpt><trkpt lat="45.4089218" lon="10.539812"><ele>133.0</ele><time>2026-04-21T00:21:54.968Z</time></trkpt><trkpt lat="45.4089975" lon="10.5398158"><ele>133.0</ele><time>2026-04-21T00:22:06.97Z</time></trkpt><trkpt lat="45.4090869" lon="10.5398175"><ele>133.0</ele><time>2026-04-21T00:22:32.961Z</time></trkpt><trkpt lat="45.4089581" lon="10.5398457"><ele>133.0</ele><time>2026-04-21T00:22:58.958Z</time></trkpt><trkpt lat="45.4089983" lon="10.5397506"><ele>133.0</ele><time>2026-04-21T00:27:12.971Z</time></trkpt><trkpt lat="45.4089341" lon="10.5397452"><ele>133.0</ele><time>2026-04-21T00:27:46.973Z</time></trkpt><trkpt lat="45.4090314" lon="10.5397328"><ele>133.0</ele><time>2026-04-21T00:29:53.958Z</time></trkpt><trkpt lat="45.4090563" lon="10.5398177"><ele>133.0</ele><time>2026-04-21T00:30:27.963Z</time></trkpt><trkpt lat="45.4089874" lon="10.5398602"><ele>133.0</ele><time>2026-04-21T00:30:48.957Z</time></trkpt><trkpt lat="45.4089237" lon="10.5398365"><ele>133.0</ele><time>2026-04-21T00:32:17.96Z</time></trkpt><trkpt lat="45.4090369" lon="10.5398789"><ele>133.0</ele><time>2026-04-21T00:33:13.975Z</time></trkpt><trkpt lat="45.4089825" lon="10.5399291"><ele>133.0</ele><time>2026-04-21T00:33:22.961Z</time></trkpt><trkpt lat="45.4090131" lon="10.5398386"><ele>133.0</ele><time>2026-04-21T00:33:50.97Z</time></trkpt><trkpt lat="45.4089429" lon="10.5398736"><ele>133.0</ele><time>2026-04-21T00:34:27.959Z</time></trkpt><trkpt lat="45.4088834" lon="10.5398018"><ele>133.0</ele><time>2026-04-21T00:35:04.969Z</time></trkpt><trkpt lat="45.4089341" lon="10.5397367"><ele>133.0</ele><time>2026-04-21T00:37:28.966Z</time></trkpt><trkpt lat="45.4090111" lon="10.5397258"><ele>133.0</ele><time>2026-04-21T00:37:42.963Z</time></trkpt><trkpt lat="45.4090139" lon="10.5398154"><ele>133.0</ele><time>2026-04-21T00:39:23.963Z</time></trkpt><trkpt lat="45.4089438" lon="10.5398289"><ele>133.0</ele><time>2026-04-21T00:40:46.965Z</time></trkpt><trkpt lat="45.4090127" lon="10.5398739"><ele>133.0</ele><time>2026-04-21T00:42:05.958Z</time></trkpt><trkpt lat="45.4091129" lon="10.539831"><ele>133.0</ele><time>2026-04-21T00:42:35.958Z</time></trkpt><trkpt lat="45.4090351" lon="10.539834"><ele>133.0</ele><time>2026-04-21T00:43:12.969Z</time></trkpt><trkpt lat="45.4090088" lon="10.5399237"><ele>133.0</ele><time>2026-04-21T00:43:28.97Z</time></trkpt><trkpt lat="45.4090601" lon="10.5398623"><ele>133.0</ele><time>2026-04-21T00:43:48.969Z</time></trkpt><trkpt lat="45.4089866" lon="10.5398865"><ele>133.0</ele><time>2026-04-21T00:44:18.971Z</time></trkpt><trkpt lat="45.4090253" lon="10.5399743"><ele>133.0</ele><time>2026-04-21T00:44:33.96Z</time></trkpt><trkpt lat="45.4089708" lon="10.540069"><ele>133.0</ele><time>2026-04-21T00:44:37.959Z</time></trkpt><trkpt lat="45.4089489" lon="10.5399698"><ele>133.0</ele><time>2026-04-21T00:44:43.97Z</time></trkpt><trkpt lat="45.4088744" lon="10.5398837"><ele>133.0</ele><time>2026-04-21T00:44:50.962Z</time></trkpt><trkpt lat="45.4088644" lon="10.539993"><ele>133.0</ele><time>2026-04-21T00:44:58.974Z</time></trkpt><trkpt lat="45.4088742" lon="10.5400921"><ele>133.0</ele><time>2026-04-21T00:45:01.961Z</time></trkpt><trkpt lat="45.408929" lon="10.5400344"><ele>133.0</ele><time>2026-04-21T00:45:11.96Z</time></trkpt><trkpt lat="45.4088988" lon="10.5399363"><ele>133.0</ele><time>2026-04-21T00:45:30.966Z</time></trkpt><trkpt lat="45.4088532" lon="10.5398531"><ele>133.0</ele><time>2026-04-21T00:45:37.959Z</time></trkpt><trkpt lat="45.408885" lon="10.539769"><ele>133.0</ele><time>2026-04-21T00:45:54.962Z</time></trkpt><trkpt lat="45.408828" lon="10.5398131"><ele>133.0</ele><time>2026-04-21T00:47:04.961Z</time></trkpt><trkpt lat="45.4088941" lon="10.5397378"><ele>133.0</ele><time>2026-04-21T00:47:29.957Z</time></trkpt><trkpt lat="45.4088421" lon="10.5396774"><ele>133.0</ele><time>2026-04-21T00:47:36.967Z</time></trkpt><trkpt lat="45.4089097" lon="10.5396936"><ele>133.0</ele><time>2026-04-21T00:48:03.958Z</time></trkpt><trkpt lat="45.4089751" lon="10.5397404"><ele>133.0</ele><time>2026-04-21T00:48:16.967Z</time></trkpt><trkpt lat="45.4088883" lon="10.5398677"><ele>133.0</ele><time>2026-04-21T00:48:37.968Z</time></trkpt><trkpt lat="45.4088183" lon="10.5398307"><ele>133.0</ele><time>2026-04-21T00:48:45.965Z</time></trkpt><trkpt lat="45.4088267" lon="10.5397387"><ele>133.0</ele><time>2026-04-21T00:49:04.967Z</time></trkpt><trkpt lat="45.4088774" lon="10.5397943"><ele>133.0</ele><time>2026-04-21T00:49:11.967Z</time></trkpt><trkpt lat="45.4089208" lon="10.5397106"><ele>133.0</ele><time>2026-04-21T00:49:53.957Z</time></trkpt><trkpt lat="45.4089754" lon="10.5397787"><ele>133.0</ele><time>2026-04-21T00:49:56.952Z</time></trkpt><trkpt lat="45.4089399" lon="10.5396523"><ele>133.0</ele><time>2026-04-21T00:50:24.962Z</time></trkpt><trkpt lat="45.4089113" lon="10.5397478"><ele>133.0</ele><time>2026-04-21T00:50:51.965Z</time></trkpt><trkpt lat="45.4088931" lon="10.5398473"><ele>133.0</ele><time>2026-04-21T00:50:57.965Z</time></trkpt><trkpt lat="45.4089653" lon="10.5397533"><ele>133.0</ele><time>2026-04-21T00:51:45.968Z</time></trkpt><trkpt lat="45.4089332" lon="10.5396753"><ele>133.0</ele><time>2026-04-21T00:51:50.956Z</time></trkpt><trkpt lat="45.4090103" lon="10.5396289"><ele>133.0</ele><time>2026-04-21T00:52:18.968Z</time></trkpt><trkpt lat="45.4090124" lon="10.5397295"><ele>133.0</ele><time>2026-04-21T00:52:34.956Z</time></trkpt><trkpt lat="45.4089841" lon="10.5398182"><ele>133.0</ele><time>2026-04-21T00:52:42.971Z</time></trkpt><trkpt lat="45.4089435" lon="10.5399365"><ele>133.0</ele><time>2026-04-21T00:53:02.963Z</time></trkpt><trkpt lat="45.4089746" lon="10.5398211"><ele>133.0</ele><time>2026-04-21T00:53:24.968Z</time></trkpt><trkpt lat="45.4090211" lon="10.5397433"><ele>133.0</ele><time>2026-04-21T00:58:29.961Z</time></trkpt><trkpt lat="45.4089532" lon="10.5397427"><ele>133.0</ele><time>2026-04-21T00:58:55.96Z</time></trkpt><trkpt lat="45.4090234" lon="10.5397338"><ele>133.0</ele><time>2026-04-21T00:59:10.958Z</time></trkpt><trkpt lat="45.4089772" lon="10.5398209"><ele>133.0</ele><time>2026-04-21T00:59:46.965Z</time></trkpt><trkpt lat="45.4089687" lon="10.5397229"><ele>133.0</ele><time>2026-04-21T01:00:12.96Z</time></trkpt><trkpt lat="45.4090066" lon="10.5397994"><ele>133.0</ele><time>2026-04-21T01:02:54.962Z</time></trkpt><trkpt lat="45.4090508" lon="10.5397178"><ele>133.0</ele><time>2026-04-21T01:05:48.962Z</time></trkpt><trkpt lat="45.4090475" lon="10.5398104"><ele>133.0</ele><time>2026-04-21T01:06:55.96Z</time></trkpt><trkpt lat="45.4090103" lon="10.5399018"><ele>133.0</ele><time>2026-04-21T01:07:07.97Z</time></trkpt><trkpt lat="45.409071" lon="10.5398756"><ele>133.0</ele><time>2026-04-21T01:07:24.97Z</time></trkpt><trkpt lat="45.4090784" lon="10.5397828"><ele>133.0</ele><time>2026-04-21T01:07:26.959Z</time></trkpt><trkpt lat="45.4090001" lon="10.5397448"><ele>133.0</ele><time>2026-04-21T01:07:55.974Z</time></trkpt><trkpt lat="45.4089675" lon="10.5396289"><ele>133.0</ele><time>2026-04-21T01:07:59.958Z</time></trkpt><trkpt lat="45.409024" lon="10.5396719"><ele>133.0</ele><time>2026-04-21T01:08:20.968Z</time></trkpt><trkpt lat="45.4090946" lon="10.5395677"><ele>133.0</ele><time>2026-04-21T01:08:23.959Z</time></trkpt><trkpt lat="45.4091566" lon="10.5394864"><ele>133.0</ele><time>2026-04-21T01:08:25.963Z</time></trkpt><trkpt lat="45.4091663" lon="10.5395777"><ele>133.0</ele><time>2026-04-21T01:08:33.963Z</time></trkpt><trkpt lat="45.4091204" lon="10.5396477"><ele>133.0</ele><time>2026-04-21T01:08:43.969Z</time></trkpt><trkpt lat="45.4089993" lon="10.5397517"><ele>133.0</ele><time>2026-04-21T01:08:54.959Z</time></trkpt><trkpt lat="45.4090173" lon="10.5398825"><ele>133.0</ele><time>2026-04-21T01:09:11.968Z</time></trkpt><trkpt lat="45.4090155" lon="10.5400005"><ele>133.0</ele><time>2026-04-21T01:09:13.969Z</time></trkpt><trkpt lat="45.4089485" lon="10.5399939"><ele>133.0</ele><time>2026-04-21T01:09:20.965Z</time></trkpt><trkpt lat="45.408902" lon="10.5399256"><ele>133.0</ele><time>2026-04-21T01:09:31.968Z</time></trkpt><trkpt lat="45.4089387" lon="10.539802"><ele>133.0</ele><time>2026-04-21T01:09:42.959Z</time></trkpt><trkpt lat="45.4090489" lon="10.5397901"><ele>133.0</ele><time>2026-04-21T01:09:54.969Z</time></trkpt><trkpt lat="45.4089731" lon="10.5398192"><ele>133.0</ele><time>2026-04-21T01:10:17.97Z</time></trkpt><trkpt lat="45.4089908" lon="10.5399252"><ele>133.0</ele><time>2026-04-21T01:10:51.967Z</time></trkpt><trkpt lat="45.4089548" lon="10.5398331"><ele>133.0</ele><time>2026-04-21T01:11:11.957Z</time></trkpt><trkpt lat="45.4089229" lon="10.5397488"><ele>133.0</ele><time>2026-04-21T01:11:17.971Z</time></trkpt><trkpt lat="45.4089661" lon="10.5398311"><ele>133.0</ele><time>2026-04-21T01:13:30.957Z</time></trkpt><trkpt lat="45.4090043" lon="10.5397204"><ele>133.0</ele><time>2026-04-21T01:14:23.968Z</time></trkpt><trkpt lat="45.4090687" lon="10.5396548"><ele>133.0</ele><time>2026-04-21T01:14:37.968Z</time></trkpt><trkpt lat="45.4090259" lon="10.5397213"><ele>133.0</ele><time>2026-04-21T01:16:15.961Z</time></trkpt><trkpt lat="45.408954" lon="10.5397752"><ele>133.0</ele><time>2026-04-21T01:17:12.972Z</time></trkpt><trkpt lat="45.4090241" lon="10.5397976"><ele>133.0</ele><time>2026-04-21T01:18:24.959Z</time></trkpt><trkpt lat="45.4090521" lon="10.539708"><ele>133.0</ele><time>2026-04-21T01:18:36.963Z</time></trkpt><trkpt lat="45.4089826" lon="10.5396681"><ele>133.0</ele><time>2026-04-21T01:18:46.958Z</time></trkpt><trkpt lat="45.40893" lon="10.5397212"><ele>133.0</ele><time>2026-04-21T01:18:50.965Z</time></trkpt><trkpt lat="45.408874" lon="10.5397783"><ele>133.0</ele><time>2026-04-21T01:18:59.964Z</time></trkpt><trkpt lat="45.4089025" lon="10.5398794"><ele>133.0</ele><time>2026-04-21T01:19:15.96Z</time></trkpt><trkpt lat="45.4089871" lon="10.5399306"><ele>133.0</ele><time>2026-04-21T01:19:41.97Z</time></trkpt><trkpt lat="45.409031" lon="10.5398661"><ele>133.0</ele><time>2026-04-21T01:20:01.96Z</time></trkpt><trkpt lat="45.4089771" lon="10.5398127"><ele>133.0</ele><time>2026-04-21T01:21:49.965Z</time></trkpt><trkpt lat="45.4090402" lon="10.53976"><ele>133.0</ele><time>2026-04-21T01:22:44.959Z</time></trkpt><trkpt lat="45.4089794" lon="10.5397299"><ele>133.0</ele><time>2026-04-21T01:23:09.958Z</time></trkpt><trkpt lat="45.4090408" lon="10.5397822"><ele>133.0</ele><time>2026-04-21T01:23:51.963Z</time></trkpt><trkpt lat="45.4089793" lon="10.5397254"><ele>133.0</ele><time>2026-04-21T01:25:21.962Z</time></trkpt><trkpt lat="45.4089866" lon="10.5398147"><ele>133.0</ele><time>2026-04-21T01:26:51.967Z</time></trkpt><trkpt lat="45.4089387" lon="10.5398731"><ele>133.0</ele><time>2026-04-21T01:27:09.966Z</time></trkpt><trkpt lat="45.4088945" lon="10.539808"><ele>133.0</ele><time>2026-04-21T01:27:19.958Z</time></trkpt><trkpt lat="45.4089968" lon="10.5396516"><ele>133.0</ele><time>2026-04-21T01:27:44.957Z</time></trkpt><trkpt lat="45.4089288" lon="10.5396918"><ele>133.0</ele><time>2026-04-21T01:27:56.963Z</time></trkpt><trkpt lat="45.4089887" lon="10.5397411"><ele>133.0</ele><time>2026-04-21T01:28:24.959Z</time></trkpt><trkpt lat="45.4089599" lon="10.5398218"><ele>133.0</ele><time>2026-04-21T01:31:21.966Z</time></trkpt><trkpt lat="45.4090254" lon="10.5398093"><ele>133.0</ele><time>2026-04-21T01:31:57.957Z</time></trkpt><trkpt lat="45.408992" lon="10.5398988"><ele>133.0</ele><time>2026-04-21T01:32:36.959Z</time></trkpt><trkpt lat="45.4089649" lon="10.5398082"><ele>133.0</ele><time>2026-04-21T01:33:19.96Z</time></trkpt><trkpt lat="45.4088887" lon="10.5398781"><ele>133.0</ele><time>2026-04-21T01:33:33.955Z</time></trkpt><trkpt lat="45.408837" lon="10.539799"><ele>133.0</ele><time>2026-04-21T01:33:43.957Z</time></trkpt><trkpt lat="45.4088992" lon="10.5397637"><ele>133.0</ele><time>2026-04-21T01:34:07.957Z</time></trkpt><trkpt lat="45.4090138" lon="10.5398004"><ele>133.0</ele><time>2026-04-21T01:34:39.963Z</time></trkpt><trkpt lat="45.4089722" lon="10.5397298"><ele>133.0</ele><time>2026-04-21T01:34:51.966Z</time></trkpt><trkpt lat="45.4089362" lon="10.5398113"><ele>133.0</ele><time>2026-04-21T01:35:16.963Z</time></trkpt><trkpt lat="45.4090124" lon="10.5397694"><ele>133.0</ele><time>2026-04-21T01:35:42.957Z</time></trkpt><trkpt lat="45.4090314" lon="10.5396811"><ele>133.0</ele><time>2026-04-21T01:36:27.962Z</time></trkpt><trkpt lat="45.4089683" lon="10.5396817"><ele>133.0</ele><time>2026-04-21T01:37:00.969Z</time></trkpt><trkpt lat="45.40901" lon="10.5397617"><ele>133.0</ele><time>2026-04-21T01:38:53.899Z</time></trkpt><trkpt lat="45.4090324" lon="10.5396713"><ele>133.0</ele><time>2026-04-21T01:40:01.967Z</time></trkpt><trkpt lat="45.4090866" lon="10.539723"><ele>133.0</ele><time>2026-04-21T01:40:15.961Z</time></trkpt><trkpt lat="45.4090241" lon="10.5398191"><ele>133.0</ele><time>2026-04-21T01:40:35.965Z</time></trkpt><trkpt lat="45.4089756" lon="10.53988"><ele>133.0</ele><time>2026-04-21T01:40:48.967Z</time></trkpt><trkpt lat="45.4089747" lon="10.5397807"><ele>133.0</ele><time>2026-04-21T01:41:06.968Z</time></trkpt><trkpt lat="45.4089769" lon="10.5396759"><ele>133.0</ele><time>2026-04-21T01:41:43.956Z</time></trkpt><trkpt lat="45.4089308" lon="10.5397594"><ele>133.0</ele><time>2026-04-21T01:42:02.966Z</time></trkpt><trkpt lat="45.4089753" lon="10.5398382"><ele>133.0</ele><time>2026-04-21T01:42:58.964Z</time></trkpt><trkpt lat="45.409038" lon="10.5398155"><ele>133.0</ele><time>2026-04-21T01:43:16.956Z</time></trkpt><trkpt lat="45.4089968" lon="10.5397442"><ele>133.0</ele><time>2026-04-21T01:43:53.958Z</time></trkpt><trkpt lat="45.4089521" lon="10.5398703"><ele>133.0</ele><time>2026-04-21T01:45:33.958Z</time></trkpt><trkpt lat="45.408931" lon="10.5397777"><ele>133.0</ele><time>2026-04-21T01:45:44.96Z</time></trkpt><trkpt lat="45.4089705" lon="10.5396407"><ele>133.0</ele><time>2026-04-21T01:45:46.959Z</time></trkpt><trkpt lat="45.408895" lon="10.5396398"><ele>133.0</ele><time>2026-04-21T01:46:43.961Z</time></trkpt><trkpt lat="45.4089448" lon="10.5397106"><ele>133.0</ele><time>2026-04-21T01:47:34.962Z</time></trkpt><trkpt lat="45.4090083" lon="10.5396973"><ele>133.0</ele><time>2026-04-21T01:48:11.965Z</time></trkpt><trkpt lat="45.4090953" lon="10.5396591"><ele>133.0</ele><time>2026-04-21T01:48:16.963Z</time></trkpt><trkpt lat="45.409025" lon="10.5396944"><ele>133.0</ele><time>2026-04-21T01:48:36.954Z</time></trkpt><trkpt lat="45.4089667" lon="10.5397455"><ele>133.0</ele><time>2026-04-21T01:48:42.96Z</time></trkpt><trkpt lat="45.4089023" lon="10.5397578"><ele>133.0</ele><time>2026-04-21T01:48:56.96Z</time></trkpt><trkpt lat="45.4088536" lon="10.5398233"><ele>133.0</ele><time>2026-04-21T01:49:02.955Z</time></trkpt><trkpt lat="45.4089416" lon="10.539766"><ele>133.0</ele><time>2026-04-21T01:49:32.966Z</time></trkpt><trkpt lat="45.4089643" lon="10.539675"><ele>133.0</ele><time>2026-04-21T01:49:59.967Z</time></trkpt><trkpt lat="45.4088948" lon="10.5396671"><ele>133.0</ele><time>2026-04-21T01:50:05.964Z</time></trkpt><trkpt lat="45.4088282" lon="10.5397301"><ele>133.0</ele><time>2026-04-21T01:50:09.959Z</time></trkpt><trkpt lat="45.4088057" lon="10.5398439"><ele>133.0</ele><time>2026-04-21T01:50:27.958Z</time></trkpt><trkpt lat="45.4088688" lon="10.5397804"><ele>133.0</ele><time>2026-04-21T01:50:37.966Z</time></trkpt><trkpt lat="45.4088905" lon="10.5396862"><ele>133.0</ele><time>2026-04-21T01:50:46.962Z</time></trkpt><trkpt lat="45.4090368" lon="10.5395683"><ele>132.33333333333334</ele><time>2026-04-21T01:50:53.965Z</time></trkpt><trkpt lat="45.4090832" lon="10.5394953"><ele>131.66666666666669</ele><time>2026-04-21T01:50:54.962Z</time></trkpt><trkpt lat="45.4091657" lon="10.5394109"><ele>131.0</ele><time>2026-04-21T01:50:56.964Z</time></trkpt><trkpt lat="45.4092453" lon="10.5393274"><ele>130.33333333333334</ele><time>2026-04-21T01:50:58.958Z</time></trkpt><trkpt lat="45.4093027" lon="10.5392607"><ele>129.66666666666666</ele><time>2026-04-21T01:50:59.957Z</time></trkpt><trkpt lat="45.4093849" lon="10.5393267"><ele>129.0</ele><time>2026-04-21T01:51:09.967Z</time></trkpt><trkpt lat="45.409322" lon="10.5394015"><ele>128.99999999999997</ele><time>2026-04-21T01:51:20.97Z</time></trkpt><trkpt lat="45.4092579" lon="10.5394649"><ele>129.0</ele><time>2026-04-21T01:51:24.958Z</time></trkpt><trkpt lat="45.4091992" lon="10.5395012"><ele>129.0</ele><time>2026-04-21T01:51:56.957Z</time></trkpt><trkpt lat="45.4091308" lon="10.5394993"><ele>129.0</ele><time>2026-04-21T01:52:12.955Z</time></trkpt><trkpt lat="45.4091312" lon="10.5396104"><ele>129.0</ele><time>2026-04-21T01:52:30.965Z</time></trkpt><trkpt lat="45.4090677" lon="10.5396386"><ele>128.99999999999997</ele><time>2026-04-21T01:52:47.966Z</time></trkpt><trkpt lat="45.4090028" lon="10.5396225"><ele>129.0</ele><time>2026-04-21T01:52:57.965Z</time></trkpt><trkpt lat="45.4089906" lon="10.5397125"><ele>129.66666666666666</ele><time>2026-04-21T01:53:16.956Z</time></trkpt><trkpt lat="45.4089516" lon="10.539608"><ele>130.33333333333334</ele><time>2026-04-21T01:54:41.955Z</time></trkpt><trkpt lat="45.4089005" lon="10.5396889"><ele>131.0</ele><time>2026-04-21T01:54:49.966Z</time></trkpt><trkpt lat="45.4088509" lon="10.5397577"><ele>131.66666666666669</ele><time>2026-04-21T01:55:01.961Z</time></trkpt><trkpt lat="45.4089125" lon="10.5398645"><ele>132.33333333333334</ele><time>2026-04-21T01:55:02.957Z</time></trkpt><trkpt lat="45.4089481" lon="10.5399503"><ele>133.0</ele><time>2026-04-21T01:55:08.964Z</time></trkpt><trkpt lat="45.4089625" lon="10.5398574"><ele>133.0</ele><time>2026-04-21T01:55:20.955Z</time></trkpt><trkpt lat="45.4089965" lon="10.5399894"><ele>133.0</ele><time>2026-04-21T01:55:26.958Z</time></trkpt><trkpt lat="45.4090272" lon="10.5398828"><ele>133.0</ele><time>2026-04-21T01:55:31.967Z</time></trkpt><trkpt lat="45.4090587" lon="10.5397671"><ele>133.0</ele><time>2026-04-21T01:55:33.965Z</time></trkpt><trkpt lat="45.408994" lon="10.5397724"><ele>133.0</ele><time>2026-04-21T01:55:57.96Z</time></trkpt><trkpt lat="45.4089201" lon="10.5397208"><ele>133.0</ele><time>2026-04-21T01:56:17.959Z</time></trkpt><trkpt lat="45.4088851" lon="10.5397954"><ele>133.0</ele><time>2026-04-21T01:56:49.957Z</time></trkpt><trkpt lat="45.4088657" lon="10.5398853"><ele>133.0</ele><time>2026-04-21T01:58:12.966Z</time></trkpt><trkpt lat="45.4088247" lon="10.5397918"><ele>133.0</ele><time>2026-04-21T01:58:21.964Z</time></trkpt><trkpt lat="45.4088667" lon="10.539725"><ele>133.0</ele><time>2026-04-21T01:58:37.964Z</time></trkpt><trkpt lat="45.408894" lon="10.5396185"><ele>133.0</ele><time>2026-04-21T01:58:40.966Z</time></trkpt><trkpt lat="45.408944" lon="10.5395563"><ele>133.0</ele><time>2026-04-21T01:59:02.963Z</time></trkpt><trkpt lat="45.4089626" lon="10.5396666"><ele>133.0</ele><time>2026-04-21T01:59:17.96Z</time></trkpt><trkpt lat="45.4089769" lon="10.5397542"><ele>133.0</ele><time>2026-04-21T01:59:36.957Z</time></trkpt><trkpt lat="45.4089798" lon="10.53986"><ele>133.0</ele><time>2026-04-21T02:00:06.963Z</time></trkpt><trkpt lat="45.4089539" lon="10.539746"><ele>133.0</ele><time>2026-04-21T02:00:20.954Z</time></trkpt><trkpt lat="45.4090199" lon="10.5398223"><ele>133.0</ele><time>2026-04-21T02:00:43.957Z</time></trkpt><trkpt lat="45.409075" lon="10.5398842"><ele>133.0</ele><time>2026-04-21T02:00:47.959Z</time></trkpt><trkpt lat="45.409047" lon="10.5397631"><ele>133.0</ele><time>2026-04-21T02:01:06.961Z</time></trkpt><trkpt lat="45.40899" lon="10.5397248"><ele>133.0</ele><time>2026-04-21T02:01:44.959Z</time></trkpt><trkpt lat="45.4089478" lon="10.5398018"><ele>133.0</ele><time>2026-04-21T02:02:01.967Z</time></trkpt><trkpt lat="45.4088855" lon="10.5398225"><ele>133.0</ele><time>2026-04-21T02:02:16.958Z</time></trkpt><trkpt lat="45.4089737" lon="10.5398242"><ele>133.0</ele><time>2026-04-21T02:03:26.956Z</time></trkpt><trkpt lat="45.4090612" lon="10.5398902"><ele>133.0</ele><time>2026-04-21T02:04:25.959Z</time></trkpt><trkpt lat="45.4090212" lon="10.5399609"><ele>133.0</ele><time>2026-04-21T02:04:43.964Z</time></trkpt><trkpt lat="45.4090201" lon="10.5398684"><ele>133.0</ele><time>2026-04-21T02:04:50.961Z</time></trkpt><trkpt lat="45.4089534" lon="10.5398723"><ele>133.0</ele><time>2026-04-21T02:06:22.959Z</time></trkpt><trkpt lat="45.4089258" lon="10.5399537"><ele>133.0</ele><time>2026-04-21T02:06:59.956Z</time></trkpt><trkpt lat="45.4089107" lon="10.5398652"><ele>133.0</ele><time>2026-04-21T02:07:43.964Z</time></trkpt><trkpt lat="45.4089623" lon="10.5398104"><ele>133.0</ele><time>2026-04-21T02:09:17.957Z</time></trkpt><trkpt lat="45.4089103" lon="10.5397261"><ele>133.0</ele><time>2026-04-21T02:10:45.956Z</time></trkpt><trkpt lat="45.4089702" lon="10.5398009"><ele>133.0</ele><time>2026-04-21T02:11:08.965Z</time></trkpt><trkpt lat="45.4090515" lon="10.5398612"><ele>133.0</ele><time>2026-04-21T02:11:14.964Z</time></trkpt><trkpt lat="45.4089812" lon="10.5398771"><ele>133.0</ele><time>2026-04-21T02:11:18.955Z</time></trkpt><trkpt lat="45.4089204" lon="10.5399163"><ele>133.0</ele><time>2026-04-21T02:11:39.956Z</time></trkpt><trkpt lat="45.4088857" lon="10.5400117"><ele>133.0</ele><time>2026-04-21T02:12:02.963Z</time></trkpt><trkpt lat="45.4088855" lon="10.5399184"><ele>133.0</ele><time>2026-04-21T02:12:32.953Z</time></trkpt><trkpt lat="45.4088204" lon="10.5398864"><ele>133.0</ele><time>2026-04-21T02:13:42.964Z</time></trkpt><trkpt lat="45.4088807" lon="10.5398518"><ele>133.0</ele><time>2026-04-21T02:13:56.955Z</time></trkpt><trkpt lat="45.4089362" lon="10.539803"><ele>133.0</ele><time>2026-04-21T02:14:12.002Z</time></trkpt><trkpt lat="45.4089917" lon="10.5397606"><ele>133.0</ele><time>2026-04-21T02:14:13.959Z</time></trkpt><trkpt lat="45.4089789" lon="10.5398668"><ele>133.0</ele><time>2026-04-21T02:15:06.954Z</time></trkpt><trkpt lat="45.4089197" lon="10.5399184"><ele>133.0</ele><time>2026-04-21T02:17:08.955Z</time></trkpt><trkpt lat="45.4089324" lon="10.53982"><ele>133.0</ele><time>2026-04-21T02:17:46.956Z</time></trkpt><trkpt lat="45.4090017" lon="10.5398167"><ele>133.0</ele><time>2026-04-21T02:18:34.964Z</time></trkpt><trkpt lat="45.4089394" lon="10.5398616"><ele>133.0</ele><time>2026-04-21T02:19:17.961Z</time></trkpt><trkpt lat="45.409054" lon="10.5397952"><ele>133.0</ele><time>2026-04-21T02:22:34.956Z</time></trkpt><trkpt lat="45.4090288" lon="10.5398853"><ele>133.0</ele><time>2026-04-21T02:23:09.966Z</time></trkpt><trkpt lat="45.4089525" lon="10.5398684"><ele>133.0</ele><time>2026-04-21T02:23:45.961Z</time></trkpt><trkpt lat="45.4088879" lon="10.5398941"><ele>133.0</ele><time>2026-04-21T02:23:47.955Z</time></trkpt><trkpt lat="45.4088243" lon="10.5399337"><ele>133.0</ele><time>2026-04-21T02:23:57.955Z</time></trkpt><trkpt lat="45.40889" lon="10.5399312"><ele>133.0</ele><time>2026-04-21T02:24:11.957Z</time></trkpt><trkpt lat="45.4089463" lon="10.5398666"><ele>133.0</ele><time>2026-04-21T02:25:42.955Z</time></trkpt><trkpt lat="45.408879" lon="10.539843"><ele>133.0</ele><time>2026-04-21T02:26:25.966Z</time></trkpt><trkpt lat="45.4088567" lon="10.5399271"><ele>133.0</ele><time>2026-04-21T02:26:34.963Z</time></trkpt><trkpt lat="45.4089203" lon="10.5399406"><ele>133.0</ele><time>2026-04-21T02:26:46.957Z</time></trkpt><trkpt lat="45.408994" lon="10.5399054"><ele>133.0</ele><time>2026-04-21T02:26:54.957Z</time></trkpt><trkpt lat="45.4089234" lon="10.5399129"><ele>133.0</ele><time>2026-04-21T02:27:06.965Z</time></trkpt><trkpt lat="45.408954" lon="10.5398215"><ele>133.0</ele><time>2026-04-21T02:28:30.963Z</time></trkpt><trkpt lat="45.4089566" lon="10.5396825"><ele>133.0</ele><time>2026-04-21T02:28:44.958Z</time></trkpt><trkpt lat="45.4089632" lon="10.5397858"><ele>133.0</ele><time>2026-04-21T02:28:55.956Z</time></trkpt><trkpt lat="45.4088966" lon="10.5397809"><ele>133.0</ele><time>2026-04-21T02:29:54.958Z</time></trkpt><trkpt lat="45.4088485" lon="10.5398542"><ele>133.0</ele><time>2026-04-21T02:30:03.954Z</time></trkpt><trkpt lat="45.4089118" lon="10.5398717"><ele>133.0</ele><time>2026-04-21T02:30:30.96Z</time></trkpt><trkpt lat="45.4088487" lon="10.5398501"><ele>133.0</ele><time>2026-04-21T02:31:19.963Z</time></trkpt><trkpt lat="45.4087884" lon="10.5399485"><ele>133.0</ele><time>2026-04-21T02:31:26.961Z</time></trkpt><trkpt lat="45.4088627" lon="10.5398904"><ele>133.0</ele><time>2026-04-21T02:31:42.962Z</time></trkpt><trkpt lat="45.4088006" lon="10.5398662"><ele>133.0</ele><time>2026-04-21T02:32:24.965Z</time></trkpt><trkpt lat="45.4088723" lon="10.5398994"><ele>133.0</ele><time>2026-04-21T02:32:38.955Z</time></trkpt><trkpt lat="45.4089336" lon="10.5399244"><ele>133.0</ele><time>2026-04-21T02:32:43.958Z</time></trkpt><trkpt lat="45.4089971" lon="10.5399075"><ele>133.0</ele><time>2026-04-21T02:32:53.954Z</time></trkpt><trkpt lat="45.4090356" lon="10.5398315"><ele>133.0</ele><time>2026-04-21T02:33:19.956Z</time></trkpt><trkpt lat="45.4089665" lon="10.539836"><ele>133.0</ele><time>2026-04-21T02:33:31.968Z</time></trkpt><trkpt lat="45.4089025" lon="10.5398362"><ele>133.0</ele><time>2026-04-21T02:33:41.954Z</time></trkpt><trkpt lat="45.4088284" lon="10.5398948"><ele>133.0</ele><time>2026-04-21T02:33:48.95Z</time></trkpt><trkpt lat="45.4089118" lon="10.5399427"><ele>133.0</ele><time>2026-04-21T02:33:57.955Z</time></trkpt><trkpt lat="45.4089419" lon="10.5398479"><ele>133.0</ele><time>2026-04-21T02:34:04.961Z</time></trkpt><trkpt lat="45.4088668" lon="10.5398957"><ele>133.0</ele><time>2026-04-21T02:34:07.955Z</time></trkpt><trkpt lat="45.4087729" lon="10.5399909"><ele>133.0</ele><time>2026-04-21T02:34:16.954Z</time></trkpt><trkpt lat="45.4088999" lon="10.5399225"><ele>133.0</ele><time>2026-04-21T02:34:32.955Z</time></trkpt><trkpt lat="45.4090114" lon="10.5397987"><ele>133.0</ele><time>2026-04-21T02:34:52.961Z</time></trkpt><trkpt lat="45.4089493" lon="10.539825"><ele>133.0</ele><time>2026-04-21T02:35:06.969Z</time></trkpt><trkpt lat="45.4089036" lon="10.5399321"><ele>133.0</ele><time>2026-04-21T02:35:29.954Z</time></trkpt><trkpt lat="45.4089959" lon="10.5399002"><ele>133.0</ele><time>2026-04-21T02:35:43.956Z</time></trkpt><trkpt lat="45.4089731" lon="10.539772"><ele>133.0</ele><time>2026-04-21T02:35:54.962Z</time></trkpt><trkpt lat="45.4089966" lon="10.5396772"><ele>133.0</ele><time>2026-04-21T02:36:01.957Z</time></trkpt><trkpt lat="45.4090249" lon="10.5397702"><ele>133.0</ele><time>2026-04-21T02:36:29.965Z</time></trkpt><trkpt lat="45.4089345" lon="10.5398023"><ele>133.0</ele><time>2026-04-21T02:36:36.963Z</time></trkpt><trkpt lat="45.4088662" lon="10.5398303"><ele>133.0</ele><time>2026-04-21T02:36:38.963Z</time></trkpt><trkpt lat="45.4087978" lon="10.5398319"><ele>133.0</ele><time>2026-04-21T02:36:40.957Z</time></trkpt><trkpt lat="45.4088621" lon="10.5398562"><ele>133.0</ele><time>2026-04-21T02:37:01.954Z</time></trkpt><trkpt lat="45.408959" lon="10.539868"><ele>133.0</ele><time>2026-04-21T02:37:21.956Z</time></trkpt><trkpt lat="45.408899" lon="10.5398282"><ele>133.0</ele><time>2026-04-21T02:37:49.966Z</time></trkpt><trkpt lat="45.4089806" lon="10.5398206"><ele>133.0</ele><time>2026-04-21T02:38:45.954Z</time></trkpt><trkpt lat="45.408914" lon="10.5398059"><ele>133.0</ele><time>2026-04-21T02:39:04.958Z</time></trkpt><trkpt lat="45.4089843" lon="10.5398333"><ele>133.0</ele><time>2026-04-21T02:39:36.959Z</time></trkpt><trkpt lat="45.4089363" lon="10.539772"><ele>133.0</ele><time>2026-04-21T02:39:46.96Z</time></trkpt><trkpt lat="45.4090002" lon="10.5397823"><ele>133.0</ele><time>2026-04-21T02:40:12.957Z</time></trkpt><trkpt lat="45.4089451" lon="10.5397115"><ele>133.0</ele><time>2026-04-21T02:40:23.962Z</time></trkpt><trkpt lat="45.4088783" lon="10.5397111"><ele>133.0</ele><time>2026-04-21T02:40:28.955Z</time></trkpt><trkpt lat="45.4088133" lon="10.5397613"><ele>133.0</ele><time>2026-04-21T02:40:31.962Z</time></trkpt><trkpt lat="45.4089002" lon="10.5397687"><ele>133.0</ele><time>2026-04-21T02:40:50.955Z</time></trkpt><trkpt lat="45.4088668" lon="10.539855"><ele>133.0</ele><time>2026-04-21T02:41:16.958Z</time></trkpt><trkpt lat="45.4089333" lon="10.5398149"><ele>133.0</ele><time>2026-04-21T02:42:07.956Z</time></trkpt><trkpt lat="45.4088655" lon="10.5398319"><ele>133.0</ele><time>2026-04-21T02:42:42.961Z</time></trkpt><trkpt lat="45.4089246" lon="10.5398678"><ele>133.0</ele><time>2026-04-21T02:43:08.961Z</time></trkpt><trkpt lat="45.4090672" lon="10.5398573"><ele>133.0</ele><time>2026-04-21T02:43:18.967Z</time></trkpt><trkpt lat="45.4089836" lon="10.5398794"><ele>133.0</ele><time>2026-04-21T02:43:29.957Z</time></trkpt><trkpt lat="45.4089102" lon="10.5398892"><ele>133.0</ele><time>2026-04-21T02:43:31.961Z</time></trkpt><trkpt lat="45.4088168" lon="10.5399126"><ele>133.0</ele><time>2026-04-21T02:43:37.957Z</time></trkpt><trkpt lat="45.4088784" lon="10.5398769"><ele>133.0</ele><time>2026-04-21T02:43:56.962Z</time></trkpt><trkpt lat="45.4088297" lon="10.5399482"><ele>133.0</ele><time>2026-04-21T02:46:27.955Z</time></trkpt><trkpt lat="45.4089134" lon="10.5399493"><ele>133.0</ele><time>2026-04-21T02:46:40.959Z</time></trkpt><trkpt lat="45.4089294" lon="10.5398585"><ele>133.0</ele><time>2026-04-21T02:47:09.952Z</time></trkpt><trkpt lat="45.4088696" lon="10.5399075"><ele>133.0</ele><time>2026-04-21T02:48:08.962Z</time></trkpt><trkpt lat="45.4087764" lon="10.5400001"><ele>133.0</ele><time>2026-04-21T02:48:30.956Z</time></trkpt><trkpt lat="45.4088352" lon="10.5399499"><ele>133.0</ele><time>2026-04-21T02:49:14.957Z</time></trkpt><trkpt lat="45.4088897" lon="10.5398962"><ele>133.0</ele><time>2026-04-21T02:49:17.957Z</time></trkpt><trkpt lat="45.409028" lon="10.5398006"><ele>133.0</ele><time>2026-04-21T02:51:16.962Z</time></trkpt><trkpt lat="45.408958" lon="10.5397655"><ele>133.0</ele><time>2026-04-21T02:51:46.961Z</time></trkpt><trkpt lat="45.4088511" lon="10.5398194"><ele>133.0</ele><time>2026-04-21T02:52:16.955Z</time></trkpt><trkpt lat="45.4089453" lon="10.5398706"><ele>133.0</ele><time>2026-04-21T02:53:40.963Z</time></trkpt><trkpt lat="45.4088829" lon="10.5398537"><ele>133.0</ele><time>2026-04-21T02:55:17.957Z</time></trkpt><trkpt lat="45.408817" lon="10.5398741"><ele>133.0</ele><time>2026-04-21T02:55:20.953Z</time></trkpt><trkpt lat="45.4087517" lon="10.539896"><ele>133.0</ele><time>2026-04-21T02:55:25.957Z</time></trkpt><trkpt lat="45.4088444" lon="10.5397862"><ele>133.0</ele><time>2026-04-21T02:55:59.969Z</time></trkpt><trkpt lat="45.4088062" lon="10.5398796"><ele>133.0</ele><time>2026-04-21T02:56:16.956Z</time></trkpt><trkpt lat="45.4090255" lon="10.5399066"><ele>132.0</ele><time>2026-04-21T02:56:39.384Z</time></trkpt><trkpt lat="45.4088086" lon="10.540507"><ele>132.2</ele><time>2026-04-21T02:57:27.955Z</time></trkpt><trkpt lat="45.408778" lon="10.540303"><ele>132.39999999999998</ele><time>2026-04-21T02:57:29.952Z</time></trkpt><trkpt lat="45.4088798" lon="10.5402747"><ele>132.60000000000002</ele><time>2026-04-21T02:57:30.957Z</time></trkpt><trkpt lat="45.4089647" lon="10.5402771"><ele>132.8</ele><time>2026-04-21T02:57:31.965Z</time></trkpt><trkpt lat="45.4090302" lon="10.540277"><ele>133.0</ele><time>2026-04-21T02:57:34.949Z</time></trkpt><trkpt lat="45.4090877" lon="10.5402181"><ele>133.0</ele><time>2026-04-21T02:57:36.948Z</time></trkpt><trkpt lat="45.409041" lon="10.5401466"><ele>133.0</ele><time>2026-04-21T02:57:39.952Z</time></trkpt><trkpt lat="45.4090202" lon="10.5400565"><ele>133.0</ele><time>2026-04-21T02:57:41.955Z</time></trkpt><trkpt lat="45.4089545" lon="10.5400383"><ele>133.0</ele><time>2026-04-21T02:57:44.96Z</time></trkpt><trkpt lat="45.4088798" lon="10.5400269"><ele>133.0</ele><time>2026-04-21T02:57:47.961Z</time></trkpt><trkpt lat="45.4088023" lon="10.5400339"><ele>133.0</ele><time>2026-04-21T02:57:52.965Z</time></trkpt><trkpt lat="45.4087129" lon="10.5399757"><ele>131.5</ele><time>2026-04-21T02:57:57.965Z</time></trkpt><trkpt lat="45.4086459" lon="10.539969"><ele>130.0</ele><time>2026-04-21T02:57:59.963Z</time></trkpt><trkpt lat="45.4085739" lon="10.5399896"><ele>128.5</ele><time>2026-04-21T02:58:03.947Z</time></trkpt><trkpt lat="45.4084903" lon="10.5400155"><ele>127.0</ele><time>2026-04-21T02:58:09.952Z</time></trkpt><trkpt lat="45.4084226" lon="10.5400036"><ele>125.50000000000001</ele><time>2026-04-21T02:58:12.948Z</time></trkpt><trkpt lat="45.4083175" lon="10.5400027"><ele>124.0</ele><time>2026-04-21T02:58:17.949Z</time></trkpt><trkpt lat="45.4083812" lon="10.5400461"><ele>124.00000000000001</ele><time>2026-04-21T02:58:41.958Z</time></trkpt><trkpt lat="45.4084588" lon="10.5400382"><ele>124.0</ele><time>2026-04-21T02:59:20.955Z</time></trkpt><trkpt lat="45.4085387" lon="10.5400275"><ele>124.0</ele><time>2026-04-21T02:59:21.954Z</time></trkpt><trkpt lat="45.4086187" lon="10.5400118"><ele>124.0</ele><time>2026-04-21T02:59:22.962Z</time></trkpt><trkpt lat="45.4086913" lon="10.5399979"><ele>124.00000000000001</ele><time>2026-04-21T02:59:23.963Z</time></trkpt><trkpt lat="45.4087552" lon="10.5399862"><ele>124.0</ele><time>2026-04-21T02:59:36.944Z</time></trkpt><trkpt lat="45.4090329" lon="10.5398873"><ele>124.0</ele><time>2026-04-21T03:00:53.552Z</time></trkpt><trkpt lat="45.4085832" lon="10.5400719"><ele>124.0</ele><time>2026-04-21T03:02:17.952Z</time></trkpt><trkpt lat="45.4086323" lon="10.5400151"><ele>124.0</ele><time>2026-04-21T03:02:18.95Z</time></trkpt><trkpt lat="45.4086871" lon="10.5399589"><ele>124.0</ele><time>2026-04-21T03:02:19.954Z</time></trkpt><trkpt lat="45.409027" lon="10.5399075"><ele>124.0</ele><time>2026-04-21T03:02:28.221Z</time></trkpt><trkpt lat="45.4087991" lon="10.5399248"><ele>124.0</ele><time>2026-04-21T03:02:38.952Z</time></trkpt><trkpt lat="45.4088707" lon="10.5398902"><ele>124.0</ele><time>2026-04-21T03:02:42.952Z</time></trkpt><trkpt lat="45.4089454" lon="10.5398538"><ele>124.0</ele><time>2026-04-21T03:02:47.959Z</time></trkpt><trkpt lat="45.4088733" lon="10.5398376"><ele>124.0</ele><time>2026-04-21T03:03:07.95Z</time></trkpt><trkpt lat="45.4089288" lon="10.5398829"><ele>124.00000000000001</ele><time>2026-04-21T03:03:39.95Z</time></trkpt><trkpt lat="45.4088661" lon="10.5399484"><ele>124.0</ele><time>2026-04-21T03:03:49.956Z</time></trkpt><trkpt lat="45.4087917" lon="10.5399628"><ele>124.0</ele><time>2026-04-21T03:03:57.955Z</time></trkpt><trkpt lat="45.4087071" lon="10.5399747"><ele>124.00000000000001</ele><time>2026-04-21T03:04:00.959Z</time></trkpt><trkpt lat="45.4086531" lon="10.540029"><ele>124.0</ele><time>2026-04-21T03:04:03.949Z</time></trkpt><trkpt lat="45.4086051" lon="10.5400956"><ele>124.0</ele><time>2026-04-21T03:04:06.956Z</time></trkpt><trkpt lat="45.4085482" lon="10.5401606"><ele>124.00000000000001</ele><time>2026-04-21T03:04:15.96Z</time></trkpt><trkpt lat="45.4086434" lon="10.5401619"><ele>124.0</ele><time>2026-04-21T03:04:25.958Z</time></trkpt><trkpt lat="45.4087255" lon="10.5401227"><ele>124.0</ele><time>2026-04-21T03:04:31.961Z</time></trkpt><trkpt lat="45.4087714" lon="10.5400189"><ele>124.0</ele><time>2026-04-21T03:04:39.951Z</time></trkpt><trkpt lat="45.4088131" lon="10.5399503"><ele>124.00000000000001</ele><time>2026-04-21T03:04:42.961Z</time></trkpt><trkpt lat="45.4088713" lon="10.5398838"><ele>124.0</ele><time>2026-04-21T03:04:45.951Z</time></trkpt><trkpt lat="45.4089159" lon="10.5398117"><ele>125.28571428571429</ele><time>2026-04-21T03:04:49.955Z</time></trkpt><trkpt lat="45.4089625" lon="10.5397489"><ele>126.57142857142858</ele><time>2026-04-21T03:04:58.958Z</time></trkpt><trkpt lat="45.4089127" lon="10.5398169"><ele>127.85714285714286</ele><time>2026-04-21T03:05:22.959Z</time></trkpt><trkpt lat="45.408956" lon="10.5397444"><ele>129.14285714285714</ele><time>2026-04-21T03:05:38.961Z</time></trkpt><trkpt lat="45.409057" lon="10.539707"><ele>130.42857142857144</ele><time>2026-04-21T03:05:51.948Z</time></trkpt><trkpt lat="45.4090373" lon="10.539799"><ele>131.71428571428572</ele><time>2026-04-21T03:06:13.949Z</time></trkpt><trkpt lat="45.4089847" lon="10.5398738"><ele>133.0</ele><time>2026-04-21T03:06:22.954Z</time></trkpt><trkpt lat="45.4090567" lon="10.5398805"><ele>133.0</ele><time>2026-04-21T03:07:52.953Z</time></trkpt><trkpt lat="45.4090006" lon="10.5397944"><ele>133.0</ele><time>2026-04-21T03:08:15.95Z</time></trkpt><trkpt lat="45.408945" lon="10.5397461"><ele>133.0</ele><time>2026-04-21T03:08:20.959Z</time></trkpt><trkpt lat="45.4090036" lon="10.5397063"><ele>133.0</ele><time>2026-04-21T03:08:23.945Z</time></trkpt><trkpt lat="45.4090655" lon="10.5397358"><ele>133.0</ele><time>2026-04-21T03:08:26.197Z</time></trkpt><trkpt lat="45.4089715" lon="10.5397149"><ele>133.0</ele><time>2026-04-21T03:08:28.952Z</time></trkpt><trkpt lat="45.4089637" lon="10.5398167"><ele>133.0</ele><time>2026-04-21T03:08:37.959Z</time></trkpt><trkpt lat="45.408871" lon="10.539819"><ele>131.5</ele><time>2026-04-21T03:08:44.961Z</time></trkpt><trkpt lat="45.4087558" lon="10.5397998"><ele>130.0</ele><time>2026-04-21T03:08:47.949Z</time></trkpt><trkpt lat="45.4088085" lon="10.5398658"><ele>128.5</ele><time>2026-04-21T03:09:00.955Z</time></trkpt><trkpt lat="45.4087411" lon="10.5397416"><ele>127.0</ele><time>2026-04-21T03:09:10.959Z</time></trkpt><trkpt lat="45.4086764" lon="10.5397278"><ele>125.50000000000001</ele><time>2026-04-21T03:09:13.953Z</time></trkpt><trkpt lat="45.4086122" lon="10.5397029"><ele>124.0</ele><time>2026-04-21T03:09:16.954Z</time></trkpt><trkpt lat="45.4085496" lon="10.5396792"><ele>124.00000000000001</ele><time>2026-04-21T03:09:18.959Z</time></trkpt><trkpt lat="45.4084486" lon="10.5396559"><ele>124.0</ele><time>2026-04-21T03:09:20.961Z</time></trkpt><trkpt lat="45.4084411" lon="10.5397488"><ele>124.0</ele><time>2026-04-21T03:09:24.96Z</time></trkpt><trkpt lat="45.4084323" lon="10.539869"><ele>124.0</ele><time>2026-04-21T03:09:28.954Z</time></trkpt><trkpt lat="45.408435" lon="10.5399614"><ele>124.00000000000001</ele><time>2026-04-21T03:09:31.955Z</time></trkpt><trkpt lat="45.4084739" lon="10.540053"><ele>124.0</ele><time>2026-04-21T03:09:34.956Z</time></trkpt><trkpt lat="45.4085398" lon="10.5400374"><ele>124.00000000000001</ele><time>2026-04-21T03:09:38.961Z</time></trkpt><trkpt lat="45.4085993" lon="10.5399868"><ele>124.0</ele><time>2026-04-21T03:09:43.954Z</time></trkpt><trkpt lat="45.4087378" lon="10.5399725"><ele>124.0</ele><time>2026-04-21T03:09:56.964Z</time></trkpt><trkpt lat="45.408802" lon="10.5399337"><ele>124.0</ele><time>2026-04-21T03:10:00.955Z</time></trkpt><trkpt lat="45.4088727" lon="10.539911"><ele>124.00000000000001</ele><time>2026-04-21T03:10:04.949Z</time></trkpt><trkpt lat="45.4089455" lon="10.5398774"><ele>124.0</ele><time>2026-04-21T03:10:07.951Z</time></trkpt><trkpt lat="45.409067" lon="10.5398839"><ele>125.50000000000001</ele><time>2026-04-21T03:10:12.961Z</time></trkpt><trkpt lat="45.4091341" lon="10.539904"><ele>127.0</ele><time>2026-04-21T03:10:17.956Z</time></trkpt><trkpt lat="45.4092153" lon="10.5399022"><ele>128.5</ele><time>2026-04-21T03:10:20.961Z</time></trkpt><trkpt lat="45.4091463" lon="10.5398743"><ele>130.0</ele><time>2026-04-21T03:10:25.958Z</time></trkpt><trkpt lat="45.4090432" lon="10.5398796"><ele>131.5</ele><time>2026-04-21T03:10:28.962Z</time></trkpt><trkpt lat="45.40893" lon="10.5398391"><ele>133.0</ele><time>2026-04-21T03:10:29.957Z</time></trkpt><trkpt lat="45.4088439" lon="10.5398106"><ele>133.0</ele><time>2026-04-21T03:10:30.956Z</time></trkpt><trkpt lat="45.4087771" lon="10.5397669"><ele>133.0</ele><time>2026-04-21T03:10:39.951Z</time></trkpt><trkpt lat="45.4088889" lon="10.5397211"><ele>133.0</ele><time>2026-04-21T03:10:58.962Z</time></trkpt><trkpt lat="45.4089787" lon="10.5397215"><ele>133.0</ele><time>2026-04-21T03:11:05.96Z</time></trkpt><trkpt lat="45.4090405" lon="10.5396769"><ele>133.0</ele><time>2026-04-21T03:11:13.953Z</time></trkpt><trkpt lat="45.4089547" lon="10.5396173"><ele>133.0</ele><time>2026-04-21T03:11:23.955Z</time></trkpt><trkpt lat="45.4090406" lon="10.5395192"><ele>133.0</ele><time>2026-04-21T03:11:44.953Z</time></trkpt><trkpt lat="45.409073" lon="10.5394362"><ele>133.0</ele><time>2026-04-21T03:11:49.958Z</time></trkpt><trkpt lat="45.4090078" lon="10.5395074"><ele>133.0</ele><time>2026-04-21T03:12:02.959Z</time></trkpt><trkpt lat="45.4089396" lon="10.5394917"><ele>133.0</ele><time>2026-04-21T03:12:04.959Z</time></trkpt><trkpt lat="45.4088639" lon="10.5394752"><ele>133.0</ele><time>2026-04-21T03:12:10.958Z</time></trkpt><trkpt lat="45.4090083" lon="10.5395104"><ele>133.0</ele><time>2026-04-21T03:12:22.951Z</time></trkpt><trkpt lat="45.4089434" lon="10.5395867"><ele>133.0</ele><time>2026-04-21T03:12:25.952Z</time></trkpt><trkpt lat="45.4089036" lon="10.5396611"><ele>133.0</ele><time>2026-04-21T03:12:28.956Z</time></trkpt><trkpt lat="45.4088385" lon="10.53972"><ele>133.0</ele><time>2026-04-21T03:12:31.955Z</time></trkpt><trkpt lat="45.4088426" lon="10.539823"><ele>133.0</ele><time>2026-04-21T03:12:40.95Z</time></trkpt><trkpt lat="45.4089346" lon="10.5398242"><ele>133.0</ele><time>2026-04-21T03:12:44.955Z</time></trkpt><trkpt lat="45.4088698" lon="10.5398189"><ele>133.0</ele><time>2026-04-21T03:12:52.96Z</time></trkpt><trkpt lat="45.4088095" lon="10.5398542"><ele>133.0</ele><time>2026-04-21T03:13:54.948Z</time></trkpt><trkpt lat="45.4088558" lon="10.5397926"><ele>133.0</ele><time>2026-04-21T03:14:18.953Z</time></trkpt><trkpt lat="45.4088" lon="10.5398914"><ele>133.0</ele><time>2026-04-21T03:14:26.952Z</time></trkpt><trkpt lat="45.4088974" lon="10.5398554"><ele>133.0</ele><time>2026-04-21T03:15:03.961Z</time></trkpt><trkpt lat="45.4089637" lon="10.5398433"><ele>133.0</ele><time>2026-04-21T03:15:07.953Z</time></trkpt><trkpt lat="45.408932" lon="10.5399268"><ele>133.0</ele><time>2026-04-21T03:15:31.949Z</time></trkpt><trkpt lat="45.4088035" lon="10.5399309"><ele>133.0</ele><time>2026-04-21T03:15:45.958Z</time></trkpt><trkpt lat="45.4088755" lon="10.5399428"><ele>133.0</ele><time>2026-04-21T03:16:15.96Z</time></trkpt><trkpt lat="45.408785" lon="10.5400292"><ele>133.0</ele><time>2026-04-21T03:16:40.963Z</time></trkpt><trkpt lat="45.4088484" lon="10.5399891"><ele>133.0</ele><time>2026-04-21T03:17:09.952Z</time></trkpt><trkpt lat="45.4087722" lon="10.5399879"><ele>133.0</ele><time>2026-04-21T03:17:14.964Z</time></trkpt><trkpt lat="45.4087019" lon="10.539998"><ele>133.0</ele><time>2026-04-21T03:17:17.952Z</time></trkpt><trkpt lat="45.4087448" lon="10.5399268"><ele>133.0</ele><time>2026-04-21T03:17:26.961Z</time></trkpt><trkpt lat="45.4087996" lon="10.5398577"><ele>133.0</ele><time>2026-04-21T03:17:31.959Z</time></trkpt><trkpt lat="45.408877" lon="10.5398373"><ele>133.0</ele><time>2026-04-21T03:18:02.949Z</time></trkpt><trkpt lat="45.4088182" lon="10.5398858"><ele>133.0</ele><time>2026-04-21T03:18:18.952Z</time></trkpt><trkpt lat="45.4088572" lon="10.53981"><ele>133.0</ele><time>2026-04-21T03:18:36.953Z</time></trkpt><trkpt lat="45.4089277" lon="10.5397764"><ele>133.0</ele><time>2026-04-21T03:18:40.949Z</time></trkpt><trkpt lat="45.4089984" lon="10.5397452"><ele>133.0</ele><time>2026-04-21T03:18:44.96Z</time></trkpt><trkpt lat="45.4091019" lon="10.5396823"><ele>133.0</ele><time>2026-04-21T03:18:50.951Z</time></trkpt><trkpt lat="45.4092842" lon="10.5396032"><ele>133.0</ele><time>2026-04-21T03:18:54.965Z</time></trkpt><trkpt lat="45.4093551" lon="10.5395606"><ele>133.0</ele><time>2026-04-21T03:18:55.961Z</time></trkpt><trkpt lat="45.4092639" lon="10.539618"><ele>133.0</ele><time>2026-04-21T03:19:07.956Z</time></trkpt><trkpt lat="45.4092005" lon="10.5396414"><ele>133.0</ele><time>2026-04-21T03:19:10.951Z</time></trkpt><trkpt lat="45.4091274" lon="10.5396617"><ele>133.0</ele><time>2026-04-21T03:19:13.955Z</time></trkpt><trkpt lat="45.4091132" lon="10.5397539"><ele>133.0</ele><time>2026-04-21T03:19:37.96Z</time></trkpt><trkpt lat="45.4090585" lon="10.5398123"><ele>133.0</ele><time>2026-04-21T03:19:44.958Z</time></trkpt><trkpt lat="45.4089489" lon="10.5398019"><ele>133.0</ele><time>2026-04-21T03:19:57.951Z</time></trkpt><trkpt lat="45.4089961" lon="10.5397401"><ele>133.0</ele><time>2026-04-21T03:20:13.948Z</time></trkpt><trkpt lat="45.408933" lon="10.5397721"><ele>133.0</ele><time>2026-04-21T03:22:01.949Z</time></trkpt><trkpt lat="45.4089979" lon="10.5397467"><ele>133.0</ele><time>2026-04-21T03:22:13.959Z</time></trkpt><trkpt lat="45.408951" lon="10.5398124"><ele>133.0</ele><time>2026-04-21T03:22:46.953Z</time></trkpt><trkpt lat="45.4088885" lon="10.5398768"><ele>133.0</ele><time>2026-04-21T03:22:52.963Z</time></trkpt><trkpt lat="45.4088161" lon="10.5399351"><ele>133.0</ele><time>2026-04-21T03:22:54.957Z</time></trkpt><trkpt lat="45.4087464" lon="10.5399781"><ele>133.0</ele><time>2026-04-21T03:22:58.951Z</time></trkpt><trkpt lat="45.4088085" lon="10.5398766"><ele>133.0</ele><time>2026-04-21T03:24:00.96Z</time></trkpt><trkpt lat="45.4087542" lon="10.5398225"><ele>133.0</ele><time>2026-04-21T03:24:15.957Z</time></trkpt><trkpt lat="45.4086045" lon="10.5398467"><ele>131.20000000000002</ele><time>2026-04-21T03:24:18.95Z</time></trkpt><trkpt lat="45.4084816" lon="10.5399219"><ele>129.4</ele><time>2026-04-21T03:24:20.959Z</time></trkpt><trkpt lat="45.4084325" lon="10.5398636"><ele>127.60000000000001</ele><time>2026-04-21T03:24:25.953Z</time></trkpt><trkpt lat="45.4084043" lon="10.5397733"><ele>125.80000000000001</ele><time>2026-04-21T03:24:30.954Z</time></trkpt><trkpt lat="45.4085656" lon="10.5398369"><ele>124.0</ele><time>2026-04-21T03:24:32.955Z</time></trkpt><trkpt lat="45.4086761" lon="10.5399077"><ele>124.0</ele><time>2026-04-21T03:24:33.95Z</time></trkpt><trkpt lat="45.4087701" lon="10.5399498"><ele>124.00000000000001</ele><time>2026-04-21T03:24:36.961Z</time></trkpt><trkpt lat="45.4088158" lon="10.5400121"><ele>124.0</ele><time>2026-04-21T03:24:38.961Z</time></trkpt><trkpt lat="45.40881" lon="10.5401026"><ele>124.0</ele><time>2026-04-21T03:24:40.948Z</time></trkpt><trkpt lat="45.40882" lon="10.5401993"><ele>124.00000000000001</ele><time>2026-04-21T03:24:43.951Z</time></trkpt><trkpt lat="45.4088726" lon="10.5402611"><ele>124.0</ele><time>2026-04-21T03:24:49.951Z</time></trkpt><trkpt lat="45.4089186" lon="10.5403361"><ele>124.0</ele><time>2026-04-21T03:24:54.956Z</time></trkpt><trkpt lat="45.4089027" lon="10.540425"><ele>124.0</ele><time>2026-04-21T03:25:00.957Z</time></trkpt><trkpt lat="45.408796" lon="10.5403568"><ele>124.0</ele><time>2026-04-21T03:25:11.952Z</time></trkpt><trkpt lat="45.408648" lon="10.5400588"><ele>124.0</ele><time>2026-04-21T03:25:12.951Z</time></trkpt><trkpt lat="45.408619" lon="10.5399695"><ele>124.0</ele><time>2026-04-21T03:25:20.949Z</time></trkpt><trkpt lat="45.4086439" lon="10.5398606"><ele>124.0</ele><time>2026-04-21T03:25:25.958Z</time></trkpt><trkpt lat="45.4087087" lon="10.5397797"><ele>124.0</ele><time>2026-04-21T03:25:28.95Z</time></trkpt><trkpt lat="45.4088007" lon="10.5397478"><ele>124.0</ele><time>2026-04-21T03:25:43.962Z</time></trkpt><trkpt lat="45.4089342" lon="10.5397958"><ele>124.0</ele><time>2026-04-21T03:25:47.961Z</time></trkpt><trkpt lat="45.409006" lon="10.5398225"><ele>124.0</ele><time>2026-04-21T03:25:51.959Z</time></trkpt><trkpt lat="45.4090892" lon="10.5398253"><ele>125.50000000000001</ele><time>2026-04-21T03:25:54.945Z</time></trkpt><trkpt lat="45.4091616" lon="10.5398295"><ele>127.0</ele><time>2026-04-21T03:26:31.947Z</time></trkpt><trkpt lat="45.4092403" lon="10.5398181"><ele>128.5</ele><time>2026-04-21T03:26:34.948Z</time></trkpt><trkpt lat="45.409305" lon="10.5398268"><ele>130.0</ele><time>2026-04-21T03:26:39.953Z</time></trkpt><trkpt lat="45.409244" lon="10.5397789"><ele>131.5</ele><time>2026-04-21T03:26:58.95Z</time></trkpt><trkpt lat="45.4091766" lon="10.5397503"><ele>133.0</ele><time>2026-04-21T03:27:00.959Z</time></trkpt><trkpt lat="45.4090788" lon="10.5397236"><ele>133.0</ele><time>2026-04-21T03:27:05.948Z</time></trkpt><trkpt lat="45.4090012" lon="10.5397077"><ele>133.0</ele><time>2026-04-21T03:27:41.957Z</time></trkpt><trkpt lat="45.4090636" lon="10.5396918"><ele>133.0</ele><time>2026-04-21T03:28:15.958Z</time></trkpt><trkpt lat="45.4091275" lon="10.5396611"><ele>133.0</ele><time>2026-04-21T03:28:37.95Z</time></trkpt><trkpt lat="45.4092233" lon="10.5397351"><ele>133.0</ele><time>2026-04-21T03:28:47.961Z</time></trkpt><trkpt lat="45.4090901" lon="10.5397668"><ele>133.0</ele><time>2026-04-21T03:28:54.958Z</time></trkpt><trkpt lat="45.4090173" lon="10.5396998"><ele>133.0</ele><time>2026-04-21T03:29:04.958Z</time></trkpt><trkpt lat="45.4089093" lon="10.5396732"><ele>133.0</ele><time>2026-04-21T03:29:06.958Z</time></trkpt><trkpt lat="45.4088179" lon="10.5396949"><ele>133.0</ele><time>2026-04-21T03:29:10.95Z</time></trkpt><trkpt lat="45.4088947" lon="10.539706"><ele>133.0</ele><time>2026-04-21T03:29:20.953Z</time></trkpt><trkpt lat="45.4089363" lon="10.5396223"><ele>133.0</ele><time>2026-04-21T03:29:30.96Z</time></trkpt><trkpt lat="45.4090154" lon="10.5395436"><ele>133.0</ele><time>2026-04-21T03:29:38.958Z</time></trkpt><trkpt lat="45.4089739" lon="10.5396308"><ele>133.0</ele><time>2026-04-21T03:29:52.959Z</time></trkpt><trkpt lat="45.4089067" lon="10.5396829"><ele>133.0</ele><time>2026-04-21T03:29:58.95Z</time></trkpt><trkpt lat="45.4088512" lon="10.5397441"><ele>133.0</ele><time>2026-04-21T03:30:00.961Z</time></trkpt><trkpt lat="45.4089438" lon="10.5397405"><ele>133.0</ele><time>2026-04-21T03:30:11.952Z</time></trkpt><trkpt lat="45.4090405" lon="10.5397379"><ele>133.0</ele><time>2026-04-21T03:30:15.948Z</time></trkpt><trkpt lat="45.4091491" lon="10.539717"><ele>133.0</ele><time>2026-04-21T03:30:24.956Z</time></trkpt><trkpt lat="45.4091023" lon="10.5396488"><ele>133.0</ele><time>2026-04-21T03:30:44.958Z</time></trkpt><trkpt lat="45.4090282" lon="10.5396519"><ele>133.0</ele><time>2026-04-21T03:31:05.958Z</time></trkpt><trkpt lat="45.4089491" lon="10.5396069"><ele>133.0</ele><time>2026-04-21T03:31:09.956Z</time></trkpt><trkpt lat="45.4088805" lon="10.5396071"><ele>133.0</ele><time>2026-04-21T03:31:13.961Z</time></trkpt><trkpt lat="45.4089237" lon="10.5396807"><ele>133.0</ele><time>2026-04-21T03:31:27.95Z</time></trkpt><trkpt lat="45.4088739" lon="10.5395764"><ele>132.33333333333334</ele><time>2026-04-21T03:31:47.959Z</time></trkpt><trkpt lat="45.4088141" lon="10.5394921"><ele>131.66666666666669</ele><time>2026-04-21T03:31:52.951Z</time></trkpt><trkpt lat="45.4088799" lon="10.5394428"><ele>131.0</ele><time>2026-04-21T03:32:05.959Z</time></trkpt><trkpt lat="45.4088143" lon="10.5394479"><ele>130.33333333333334</ele><time>2026-04-21T03:32:12.953Z</time></trkpt><trkpt lat="45.4087137" lon="10.5393918"><ele>129.66666666666666</ele><time>2026-04-21T03:32:31.952Z</time></trkpt><trkpt lat="45.4087651" lon="10.539291"><ele>129.0</ele><time>2026-04-21T03:32:44.959Z</time></trkpt><trkpt lat="45.4087529" lon="10.5393879"><ele>129.0</ele><time>2026-04-21T03:32:57.951Z</time></trkpt><trkpt lat="45.4088621" lon="10.5393805"><ele>129.0</ele><time>2026-04-21T03:33:15.959Z</time></trkpt><trkpt lat="45.4088713" lon="10.539481"><ele>129.0</ele><time>2026-04-21T03:33:23.96Z</time></trkpt><trkpt lat="45.4089557" lon="10.5395239"><ele>129.0</ele><time>2026-04-21T03:33:29.953Z</time></trkpt><trkpt lat="45.4089726" lon="10.5396258"><ele>129.0</ele><time>2026-04-21T03:33:53.952Z</time></trkpt><trkpt lat="45.4089259" lon="10.5396999"><ele>129.0</ele><time>2026-04-21T03:34:00.951Z</time></trkpt><trkpt lat="45.4088795" lon="10.5397661"><ele>129.66666666666666</ele><time>2026-04-21T03:34:12.961Z</time></trkpt><trkpt lat="45.4088235" lon="10.5398313"><ele>130.33333333333334</ele><time>2026-04-21T03:34:23.951Z</time></trkpt><trkpt lat="45.4087386" lon="10.5398729"><ele>131.0</ele><time>2026-04-21T03:34:44.962Z</time></trkpt><trkpt lat="45.4088218" lon="10.5398524"><ele>131.66666666666669</ele><time>2026-04-21T03:35:11.956Z</time></trkpt><trkpt lat="45.408935" lon="10.5398846"><ele>132.33333333333334</ele><time>2026-04-21T03:35:37.956Z</time></trkpt><trkpt lat="45.4088507" lon="10.5398873"><ele>133.0</ele><time>2026-04-21T03:36:20.95Z</time></trkpt><trkpt lat="45.4087883" lon="10.5399316"><ele>133.0</ele><time>2026-04-21T03:36:23.956Z</time></trkpt><trkpt lat="45.4087367" lon="10.5399853"><ele>133.0</ele><time>2026-04-21T03:36:31.958Z</time></trkpt><trkpt lat="45.4088037" lon="10.5399318"><ele>133.0</ele><time>2026-04-21T03:36:40.963Z</time></trkpt><trkpt lat="45.408873" lon="10.5398833"><ele>133.0</ele><time>2026-04-21T03:36:51.956Z</time></trkpt><trkpt lat="45.4089337" lon="10.5398092"><ele>133.0</ele><time>2026-04-21T03:36:57.962Z</time></trkpt><trkpt lat="45.4089991" lon="10.5397836"><ele>133.0</ele><time>2026-04-21T03:37:11.953Z</time></trkpt><trkpt lat="45.4090647" lon="10.5398182"><ele>133.0</ele><time>2026-04-21T03:37:17.95Z</time></trkpt><trkpt lat="45.4090095" lon="10.539772"><ele>133.0</ele><time>2026-04-21T03:38:26.951Z</time></trkpt><trkpt lat="45.4089541" lon="10.5398153"><ele>133.0</ele><time>2026-04-21T03:39:43.953Z</time></trkpt><trkpt lat="45.4089229" lon="10.5399247"><ele>133.0</ele><time>2026-04-21T03:40:14.953Z</time></trkpt><trkpt lat="45.4088618" lon="10.5398858"><ele>133.0</ele><time>2026-04-21T03:40:31.962Z</time></trkpt><trkpt lat="45.408932" lon="10.5399129"><ele>133.0</ele><time>2026-04-21T03:41:08.956Z</time></trkpt><trkpt lat="45.4089528" lon="10.5398254"><ele>133.0</ele><time>2026-04-21T03:41:49.961Z</time></trkpt><trkpt lat="45.4088821" lon="10.5398031"><ele>133.0</ele><time>2026-04-21T03:42:04.952Z</time></trkpt><trkpt lat="45.4089564" lon="10.539803"><ele>133.0</ele><time>2026-04-21T03:42:22.955Z</time></trkpt><trkpt lat="45.4090282" lon="10.5397746"><ele>133.0</ele><time>2026-04-21T03:42:39.953Z</time></trkpt><trkpt lat="45.4090079" lon="10.5398768"><ele>133.0</ele><time>2026-04-21T03:43:09.95Z</time></trkpt><trkpt lat="45.4090769" lon="10.5398664"><ele>133.0</ele><time>2026-04-21T03:43:16.953Z</time></trkpt><trkpt lat="45.4091341" lon="10.5398222"><ele>133.0</ele><time>2026-04-21T03:43:22.956Z</time></trkpt><trkpt lat="45.4091869" lon="10.5397514"><ele>133.0</ele><time>2026-04-21T03:43:28.951Z</time></trkpt><trkpt lat="45.4091344" lon="10.5398272"><ele>133.0</ele><time>2026-04-21T03:43:56.952Z</time></trkpt><trkpt lat="45.4091678" lon="10.5397364"><ele>133.0</ele><time>2026-04-21T03:44:33.958Z</time></trkpt><trkpt lat="45.409118" lon="10.5396542"><ele>133.0</ele><time>2026-04-21T03:44:51.959Z</time></trkpt><trkpt lat="45.4090514" lon="10.5396724"><ele>133.0</ele><time>2026-04-21T03:45:01.951Z</time></trkpt><trkpt lat="45.4090327" lon="10.5397812"><ele>133.0</ele><time>2026-04-21T03:45:08.959Z</time></trkpt><trkpt lat="45.4090945" lon="10.5397595"><ele>133.0</ele><time>2026-04-21T03:46:04.956Z</time></trkpt><trkpt lat="45.4090378" lon="10.5398229"><ele>133.0</ele><time>2026-04-21T03:46:09.957Z</time></trkpt><trkpt lat="45.4089732" lon="10.5398692"><ele>133.0</ele><time>2026-04-21T03:46:17.952Z</time></trkpt><trkpt lat="45.4089062" lon="10.5399024"><ele>133.0</ele><time>2026-04-21T03:46:25.954Z</time></trkpt><trkpt lat="45.4089706" lon="10.5398728"><ele>133.0</ele><time>2026-04-21T03:47:02.956Z</time></trkpt><trkpt lat="45.4090793" lon="10.5398557"><ele>133.0</ele><time>2026-04-21T03:47:37.95Z</time></trkpt><trkpt lat="45.4090092" lon="10.539886"><ele>133.0</ele><time>2026-04-21T03:47:54.948Z</time></trkpt><trkpt lat="45.4090625" lon="10.5398349"><ele>133.0</ele><time>2026-04-21T03:48:33.951Z</time></trkpt><trkpt lat="45.4091289" lon="10.5398187"><ele>133.0</ele><time>2026-04-21T03:49:06.947Z</time></trkpt><trkpt lat="45.4090651" lon="10.5398303"><ele>133.0</ele><time>2026-04-21T03:50:55.953Z</time></trkpt><trkpt lat="45.4089986" lon="10.539842"><ele>133.0</ele><time>2026-04-21T03:51:00.948Z</time></trkpt><trkpt lat="45.4089397" lon="10.5398874"><ele>133.0</ele><time>2026-04-21T03:52:20.951Z</time></trkpt><trkpt lat="45.4088718" lon="10.5399259"><ele>133.0</ele><time>2026-04-21T03:53:02.95Z</time></trkpt><trkpt lat="45.4089357" lon="10.5399435"><ele>133.0</ele><time>2026-04-21T03:53:18.952Z</time></trkpt><trkpt lat="45.409014" lon="10.5398896"><ele>133.0</ele><time>2026-04-21T03:54:42.947Z</time></trkpt><trkpt lat="45.409035" lon="10.5397978"><ele>133.0</ele><time>2026-04-21T03:55:56.957Z</time></trkpt><trkpt lat="45.4090767" lon="10.5397216"><ele>133.0</ele><time>2026-04-21T03:56:00.951Z</time></trkpt><trkpt lat="45.4090254" lon="10.5397842"><ele>133.0</ele><time>2026-04-21T03:56:09.946Z</time></trkpt><trkpt lat="45.4089705" lon="10.5398485"><ele>133.0</ele><time>2026-04-21T03:56:12.958Z</time></trkpt><trkpt lat="45.4090435" lon="10.5398446"><ele>133.0</ele><time>2026-04-21T03:56:36.958Z</time></trkpt><trkpt lat="45.4090594" lon="10.5399401"><ele>133.0</ele><time>2026-04-21T03:56:53.958Z</time></trkpt><trkpt lat="45.40913" lon="10.5399517"><ele>133.0</ele><time>2026-04-21T03:57:12.952Z</time></trkpt><trkpt lat="45.4092127" lon="10.5399055"><ele>133.0</ele><time>2026-04-21T03:57:22.95Z</time></trkpt><trkpt lat="45.409265" lon="10.5398442"><ele>133.0</ele><time>2026-04-21T03:57:37.949Z</time></trkpt><trkpt lat="45.4092082" lon="10.5397767"><ele>133.0</ele><time>2026-04-21T03:57:42.956Z</time></trkpt><trkpt lat="45.409143" lon="10.5397466"><ele>133.0</ele><time>2026-04-21T03:57:48.951Z</time></trkpt><trkpt lat="45.4090798" lon="10.5397279"><ele>133.0</ele><time>2026-04-21T03:57:52.954Z</time></trkpt><trkpt lat="45.4090113" lon="10.5396933"><ele>133.0</ele><time>2026-04-21T03:57:55.952Z</time></trkpt><trkpt lat="45.409078" lon="10.5397166"><ele>133.0</ele><time>2026-04-21T03:58:37.956Z</time></trkpt><trkpt lat="45.4090802" lon="10.5398089"><ele>133.0</ele><time>2026-04-21T03:59:09.947Z</time></trkpt><trkpt lat="45.4090176" lon="10.5398366"><ele>133.0</ele><time>2026-04-21T03:59:19.958Z</time></trkpt><trkpt lat="45.4089885" lon="10.5399172"><ele>133.0</ele><time>2026-04-21T03:59:32.949Z</time></trkpt><trkpt lat="45.4091172" lon="10.5398747"><ele>133.0</ele><time>2026-04-21T04:01:49.951Z</time></trkpt><trkpt lat="45.4090659" lon="10.5398092"><ele>133.0</ele><time>2026-04-21T04:01:55.956Z</time></trkpt><trkpt lat="45.4090201" lon="10.5398709"><ele>133.0</ele><time>2026-04-21T04:03:06.954Z</time></trkpt><trkpt lat="45.408954" lon="10.539906"><ele>133.0</ele><time>2026-04-21T04:03:47.957Z</time></trkpt><trkpt lat="45.4088922" lon="10.5398787"><ele>133.0</ele><time>2026-04-21T04:03:49.951Z</time></trkpt><trkpt lat="45.4089669" lon="10.5398486"><ele>133.0</ele><time>2026-04-21T04:04:01.943Z</time></trkpt><trkpt lat="45.4090341" lon="10.5398628"><ele>133.0</ele><time>2026-04-21T04:04:09.95Z</time></trkpt><trkpt lat="45.4090478" lon="10.5399537"><ele>133.0</ele><time>2026-04-21T04:04:50.945Z</time></trkpt><trkpt lat="45.409005" lon="10.5398711"><ele>133.0</ele><time>2026-04-21T04:05:16.949Z</time></trkpt><trkpt lat="45.4091059" lon="10.5398871"><ele>133.0</ele><time>2026-04-21T04:05:50.954Z</time></trkpt><trkpt lat="45.4090383" lon="10.5398876"><ele>133.0</ele><time>2026-04-21T04:05:56.945Z</time></trkpt><trkpt lat="45.4089677" lon="10.5397802"><ele>133.0</ele><time>2026-04-21T04:06:00.952Z</time></trkpt><trkpt lat="45.4090031" lon="10.5398682"><ele>133.0</ele><time>2026-04-21T04:06:33.948Z</time></trkpt><trkpt lat="45.4089392" lon="10.5398731"><ele>133.0</ele><time>2026-04-21T04:07:00.95Z</time></trkpt><trkpt lat="45.4090724" lon="10.5398074"><ele>133.0</ele><time>2026-04-21T04:07:53.96Z</time></trkpt><trkpt lat="45.4090084" lon="10.5397816"><ele>133.0</ele><time>2026-04-21T04:07:58.948Z</time></trkpt><trkpt lat="45.4089423" lon="10.5397398"><ele>133.0</ele><time>2026-04-21T04:08:05.951Z</time></trkpt><trkpt lat="45.408964" lon="10.5398349"><ele>133.0</ele><time>2026-04-21T04:08:25.952Z</time></trkpt><trkpt lat="45.4090597" lon="10.5398399"><ele>133.0</ele><time>2026-04-21T04:09:13.951Z</time></trkpt><trkpt lat="45.4090831" lon="10.5399321"><ele>133.0</ele><time>2026-04-21T04:09:18.957Z</time></trkpt><trkpt lat="45.4091095" lon="10.5398486"><ele>133.0</ele><time>2026-04-21T04:09:28.949Z</time></trkpt><trkpt lat="45.409039" lon="10.5398449"><ele>133.0</ele><time>2026-04-21T04:09:42.95Z</time></trkpt><trkpt lat="45.4089816" lon="10.5398855"><ele>133.0</ele><time>2026-04-21T04:09:47.95Z</time></trkpt><trkpt lat="45.4090174" lon="10.5397903"><ele>133.0</ele><time>2026-04-21T04:10:01.956Z</time></trkpt><trkpt lat="45.4089797" lon="10.5398708"><ele>133.0</ele><time>2026-04-21T04:10:20.952Z</time></trkpt><trkpt lat="45.409032" lon="10.5397965"><ele>133.0</ele><time>2026-04-21T04:10:31.949Z</time></trkpt><trkpt lat="45.4090753" lon="10.5397124"><ele>133.0</ele><time>2026-04-21T04:10:37.951Z</time></trkpt><trkpt lat="45.4091213" lon="10.5396471"><ele>133.0</ele><time>2026-04-21T04:10:54.952Z</time></trkpt><trkpt lat="45.4091394" lon="10.5395605"><ele>133.0</ele><time>2026-04-21T04:11:04.947Z</time></trkpt><trkpt lat="45.4089993" lon="10.539741"><ele>133.0</ele><time>2026-04-21T04:11:17.954Z</time></trkpt><trkpt lat="45.4089435" lon="10.5397894"><ele>133.0</ele><time>2026-04-21T04:11:18.957Z</time></trkpt><trkpt lat="45.4089929" lon="10.5396896"><ele>133.0</ele><time>2026-04-21T04:11:32.962Z</time></trkpt><trkpt lat="45.4089287" lon="10.5399003"><ele>133.0</ele><time>2026-04-21T04:11:54.943Z</time></trkpt><trkpt lat="45.4088705" lon="10.5399794"><ele>133.0</ele><time>2026-04-21T04:11:59.957Z</time></trkpt><trkpt lat="45.4089457" lon="10.5399704"><ele>133.0</ele><time>2026-04-21T04:12:07.953Z</time></trkpt><trkpt lat="45.4088649" lon="10.5398852"><ele>133.0</ele><time>2026-04-21T04:12:09.95Z</time></trkpt><trkpt lat="45.4089254" lon="10.5398426"><ele>133.0</ele><time>2026-04-21T04:12:10.947Z</time></trkpt><trkpt lat="45.4089012" lon="10.5397437"><ele>133.0</ele><time>2026-04-21T04:12:17.948Z</time></trkpt><trkpt lat="45.4089805" lon="10.5396748"><ele>133.0</ele><time>2026-04-21T04:12:20.949Z</time></trkpt><trkpt lat="45.4090708" lon="10.5396348"><ele>133.0</ele><time>2026-04-21T04:12:24.947Z</time></trkpt><trkpt lat="45.4091398" lon="10.5396282"><ele>133.0</ele><time>2026-04-21T04:12:31.951Z</time></trkpt><trkpt lat="45.4090236" lon="10.5396343"><ele>133.0</ele><time>2026-04-21T04:12:34.952Z</time></trkpt><trkpt lat="45.4089414" lon="10.5396382"><ele>133.0</ele><time>2026-04-21T04:12:35.959Z</time></trkpt><trkpt lat="45.4088743" lon="10.539624"><ele>133.0</ele><time>2026-04-21T04:12:39.946Z</time></trkpt><trkpt lat="45.4089405" lon="10.539756"><ele>133.0</ele><time>2026-04-21T04:13:02.947Z</time></trkpt><trkpt lat="45.4090098" lon="10.5397135"><ele>133.0</ele><time>2026-04-21T04:14:52.953Z</time></trkpt><trkpt lat="45.4090802" lon="10.5396646"><ele>133.0</ele><time>2026-04-21T04:15:01.954Z</time></trkpt><trkpt lat="45.4090733" lon="10.539761"><ele>133.0</ele><time>2026-04-21T04:15:17.958Z</time></trkpt><trkpt lat="45.4090095" lon="10.5398257"><ele>133.0</ele><time>2026-04-21T04:15:21.947Z</time></trkpt><trkpt lat="45.4089367" lon="10.5397733"><ele>133.0</ele><time>2026-04-21T04:16:47.955Z</time></trkpt><trkpt lat="45.408861" lon="10.5397334"><ele>133.0</ele><time>2026-04-21T04:18:18.958Z</time></trkpt><trkpt lat="45.4089262" lon="10.5397832"><ele>133.0</ele><time>2026-04-21T04:18:25.95Z</time></trkpt><trkpt lat="45.4088334" lon="10.5397723"><ele>133.0</ele><time>2026-04-21T04:21:00.956Z</time></trkpt><trkpt lat="45.4089073" lon="10.5397813"><ele>133.0</ele><time>2026-04-21T04:21:51.95Z</time></trkpt><trkpt lat="45.4089892" lon="10.539799"><ele>133.0</ele><time>2026-04-21T04:24:09.947Z</time></trkpt><trkpt lat="45.4089543" lon="10.5398911"><ele>133.0</ele><time>2026-04-21T04:24:20.954Z</time></trkpt><trkpt lat="45.4088897" lon="10.5399541"><ele>133.0</ele><time>2026-04-21T04:24:26.94Z</time></trkpt><trkpt lat="45.4088413" lon="10.539886"><ele>133.0</ele><time>2026-04-21T04:25:35.954Z</time></trkpt><trkpt lat="45.4089386" lon="10.5398253"><ele>133.0</ele><time>2026-04-21T04:25:47.95Z</time></trkpt><trkpt lat="45.4089502" lon="10.5397187"><ele>133.0</ele><time>2026-04-21T04:26:53.947Z</time></trkpt><trkpt lat="45.4090525" lon="10.5396693"><ele>133.0</ele><time>2026-04-21T04:27:26.949Z</time></trkpt><trkpt lat="45.4091108" lon="10.539712"><ele>133.0</ele><time>2026-04-21T04:27:36.951Z</time></trkpt><trkpt lat="45.4090444" lon="10.5397184"><ele>133.0</ele><time>2026-04-21T04:28:28.951Z</time></trkpt><trkpt lat="45.4089732" lon="10.5397717"><ele>133.0</ele><time>2026-04-21T04:28:41.957Z</time></trkpt><trkpt lat="45.4090175" lon="10.5396977"><ele>133.0</ele><time>2026-04-21T04:29:03.945Z</time></trkpt><trkpt lat="45.409079" lon="10.5397226"><ele>133.0</ele><time>2026-04-21T04:29:22.957Z</time></trkpt><trkpt lat="45.4091174" lon="10.539798"><ele>133.0</ele><time>2026-04-21T04:29:35.947Z</time></trkpt><trkpt lat="45.409105" lon="10.5396978"><ele>133.0</ele><time>2026-04-21T04:30:56.951Z</time></trkpt><trkpt lat="45.4091416" lon="10.5397737"><ele>133.0</ele><time>2026-04-21T04:31:16.951Z</time></trkpt><trkpt lat="45.4090536" lon="10.5397568"><ele>133.0</ele><time>2026-04-21T04:31:39.948Z</time></trkpt><trkpt lat="45.4090509" lon="10.539662"><ele>133.0</ele><time>2026-04-21T04:31:57.955Z</time></trkpt><trkpt lat="45.4090766" lon="10.5397592"><ele>133.0</ele><time>2026-04-21T04:32:41.947Z</time></trkpt><trkpt lat="45.4091296" lon="10.5398126"><ele>133.0</ele><time>2026-04-21T04:32:48.952Z</time></trkpt><trkpt lat="45.4091338" lon="10.539932"><ele>133.0</ele><time>2026-04-21T04:33:42.952Z</time></trkpt><trkpt lat="45.409216" lon="10.5399097"><ele>133.0</ele><time>2026-04-21T04:34:03.947Z</time></trkpt><trkpt lat="45.4091591" lon="10.5398496"><ele>133.0</ele><time>2026-04-21T04:35:08.948Z</time></trkpt><trkpt lat="45.409086" lon="10.5398473"><ele>133.0</ele><time>2026-04-21T04:35:12.957Z</time></trkpt><trkpt lat="45.4091346" lon="10.5397892"><ele>133.0</ele><time>2026-04-21T04:35:35.948Z</time></trkpt><trkpt lat="45.4091965" lon="10.5397591"><ele>133.0</ele><time>2026-04-21T04:37:15.956Z</time></trkpt><trkpt lat="45.4091258" lon="10.5397597"><ele>133.0</ele><time>2026-04-21T04:37:36.949Z</time></trkpt><trkpt lat="45.4090653" lon="10.5398207"><ele>133.0</ele><time>2026-04-21T04:37:39.956Z</time></trkpt><trkpt lat="45.4090024" lon="10.5398116"><ele>133.0</ele><time>2026-04-21T04:38:17.947Z</time></trkpt><trkpt lat="45.4090434" lon="10.5397243"><ele>133.0</ele><time>2026-04-21T04:39:18.953Z</time></trkpt><trkpt lat="45.4089765" lon="10.5396807"><ele>133.0</ele><time>2026-04-21T04:39:24.957Z</time></trkpt><trkpt lat="45.4089013" lon="10.539707"><ele>133.0</ele><time>2026-04-21T04:39:32.947Z</time></trkpt><trkpt lat="45.4088505" lon="10.539765"><ele>133.0</ele><time>2026-04-21T04:39:39.947Z</time></trkpt><trkpt lat="45.4088944" lon="10.5398313"><ele>133.0</ele><time>2026-04-21T04:40:14.946Z</time></trkpt><trkpt lat="45.4089678" lon="10.5398669"><ele>133.0</ele><time>2026-04-21T04:42:09.955Z</time></trkpt><trkpt lat="45.4089011" lon="10.5398932"><ele>133.0</ele><time>2026-04-21T04:43:04.955Z</time></trkpt><trkpt lat="45.409018" lon="10.539876"><ele>133.0</ele><time>2026-04-21T04:44:03.955Z</time></trkpt><trkpt lat="45.4089661" lon="10.5398154"><ele>133.0</ele><time>2026-04-21T04:44:39.947Z</time></trkpt><trkpt lat="45.4088914" lon="10.5398236"><ele>133.0</ele><time>2026-04-21T04:44:42.954Z</time></trkpt><trkpt lat="45.4088253" lon="10.5398192"><ele>133.0</ele><time>2026-04-21T04:44:50.957Z</time></trkpt><trkpt lat="45.4089004" lon="10.5398349"><ele>133.0</ele><time>2026-04-21T04:44:57.948Z</time></trkpt><trkpt lat="45.4089646" lon="10.5398616"><ele>133.0</ele><time>2026-04-21T04:45:59.955Z</time></trkpt><trkpt lat="45.4089253" lon="10.539941"><ele>133.0</ele><time>2026-04-21T04:46:12.947Z</time></trkpt><trkpt lat="45.4089836" lon="10.5398482"><ele>133.0</ele><time>2026-04-21T04:46:34.947Z</time></trkpt><trkpt lat="45.409049" lon="10.5397752"><ele>133.0</ele><time>2026-04-21T04:46:43.941Z</time></trkpt><trkpt lat="45.4090034" lon="10.5398502"><ele>133.0</ele><time>2026-04-21T04:46:53.954Z</time></trkpt><trkpt lat="45.4089211" lon="10.5398399"><ele>133.0</ele><time>2026-04-21T04:47:10.95Z</time></trkpt><trkpt lat="45.4089837" lon="10.5398812"><ele>133.0</ele><time>2026-04-21T04:47:17.954Z</time></trkpt><trkpt lat="45.4088946" lon="10.5398782"><ele>133.0</ele><time>2026-04-21T04:47:32.953Z</time></trkpt><trkpt lat="45.4088488" lon="10.5399427"><ele>133.0</ele><time>2026-04-21T04:48:26.947Z</time></trkpt><trkpt lat="45.4088376" lon="10.5398481"><ele>133.0</ele><time>2026-04-21T04:49:43.949Z</time></trkpt><trkpt lat="45.4089027" lon="10.5397636"><ele>133.0</ele><time>2026-04-21T04:51:05.949Z</time></trkpt><trkpt lat="45.4090168" lon="10.5397696"><ele>133.0</ele><time>2026-04-21T04:52:26.954Z</time></trkpt><trkpt lat="45.4090869" lon="10.5397904"><ele>133.0</ele><time>2026-04-21T04:52:49.944Z</time></trkpt><trkpt lat="45.4089623" lon="10.5398053"><ele>133.0</ele><time>2026-04-21T04:53:05.95Z</time></trkpt><trkpt lat="45.4090264" lon="10.5398498"><ele>133.0</ele><time>2026-04-21T04:53:10.951Z</time></trkpt><trkpt lat="45.4089727" lon="10.5399002"><ele>133.0</ele><time>2026-04-21T04:53:17.949Z</time></trkpt><trkpt lat="45.4088819" lon="10.5399671"><ele>133.0</ele><time>2026-04-21T04:54:25.946Z</time></trkpt><trkpt lat="45.4089587" lon="10.5399186"><ele>133.0</ele><time>2026-04-21T04:54:48.946Z</time></trkpt><trkpt lat="45.4088868" lon="10.5398788"><ele>133.0</ele><time>2026-04-21T04:55:22.947Z</time></trkpt><trkpt lat="45.4088206" lon="10.5399122"><ele>133.0</ele><time>2026-04-21T04:55:29.948Z</time></trkpt><trkpt lat="45.4088813" lon="10.5398516"><ele>133.0</ele><time>2026-04-21T04:55:50.954Z</time></trkpt><trkpt lat="45.4089551" lon="10.5398813"><ele>133.0</ele><time>2026-04-21T04:55:57.948Z</time></trkpt><trkpt lat="45.4090247" lon="10.5398921"><ele>133.0</ele><time>2026-04-21T04:55:59.953Z</time></trkpt><trkpt lat="45.4089324" lon="10.5399031"><ele>133.0</ele><time>2026-04-21T04:56:17.953Z</time></trkpt><trkpt lat="45.4090031" lon="10.5398573"><ele>133.0</ele><time>2026-04-21T04:56:55.952Z</time></trkpt><trkpt lat="45.4089276" lon="10.5397769"><ele>133.0</ele><time>2026-04-21T04:57:11.955Z</time></trkpt><trkpt lat="45.4089985" lon="10.5397442"><ele>133.0</ele><time>2026-04-21T04:57:18.95Z</time></trkpt><trkpt lat="45.4090442" lon="10.5398235"><ele>133.0</ele><time>2026-04-21T04:57:47.944Z</time></trkpt><trkpt lat="45.4089816" lon="10.539802"><ele>133.0</ele><time>2026-04-21T04:57:56.943Z</time></trkpt><trkpt lat="45.4089121" lon="10.5398039"><ele>133.0</ele><time>2026-04-21T04:59:20.955Z</time></trkpt><trkpt lat="45.4088511" lon="10.5398275"><ele>133.0</ele><time>2026-04-21T04:59:28.94Z</time></trkpt><trkpt lat="45.408933" lon="10.5397812"><ele>133.0</ele><time>2026-04-21T05:00:08.944Z</time></trkpt><trkpt lat="45.408959" lon="10.5398636"><ele>133.0</ele><time>2026-04-21T05:00:27.957Z</time></trkpt><trkpt lat="45.4090638" lon="10.5398486"><ele>133.0</ele><time>2026-04-21T05:01:49.951Z</time></trkpt><trkpt lat="45.4089519" lon="10.5398364"><ele>133.0</ele><time>2026-04-21T05:02:20.948Z</time></trkpt><trkpt lat="45.4089311" lon="10.5397475"><ele>133.0</ele><time>2026-04-21T05:03:53.952Z</time></trkpt><trkpt lat="45.4090009" lon="10.5397364"><ele>133.0</ele><time>2026-04-21T05:04:05.949Z</time></trkpt><trkpt lat="45.4089903" lon="10.5398269"><ele>133.0</ele><time>2026-04-21T05:04:39.944Z</time></trkpt><trkpt lat="45.4090445" lon="10.5397777"><ele>133.0</ele><time>2026-04-21T05:05:13.952Z</time></trkpt><trkpt lat="45.4089881" lon="10.539831"><ele>133.0</ele><time>2026-04-21T05:05:32.949Z</time></trkpt><trkpt lat="45.4090822" lon="10.5398299"><ele>133.0</ele><time>2026-04-21T05:06:02.95Z</time></trkpt><trkpt lat="45.409012" lon="10.5398331"><ele>133.0</ele><time>2026-04-21T05:06:20.955Z</time></trkpt><trkpt lat="45.4090887" lon="10.5397734"><ele>133.0</ele><time>2026-04-21T05:07:05.949Z</time></trkpt><trkpt lat="45.4090143" lon="10.5398434"><ele>133.0</ele><time>2026-04-21T05:07:19.946Z</time></trkpt><trkpt lat="45.4089883" lon="10.53976"><ele>133.0</ele><time>2026-04-21T05:07:42.946Z</time></trkpt><trkpt lat="45.4089292" lon="10.5398166"><ele>133.0</ele><time>2026-04-21T05:08:23.953Z</time></trkpt><trkpt lat="45.4089605" lon="10.539896"><ele>133.0</ele><time>2026-04-21T05:09:19.947Z</time></trkpt><trkpt lat="45.4090259" lon="10.5398927"><ele>133.0</ele><time>2026-04-21T05:09:33.951Z</time></trkpt><trkpt lat="45.4090759" lon="10.5398118"><ele>133.0</ele><time>2026-04-21T05:10:06.95Z</time></trkpt><trkpt lat="45.4090027" lon="10.5397635"><ele>133.0</ele><time>2026-04-21T05:10:35.949Z</time></trkpt><trkpt lat="45.409063" lon="10.5397898"><ele>133.0</ele><time>2026-04-21T05:10:59.946Z</time></trkpt><trkpt lat="45.4091757" lon="10.5398593"><ele>133.0</ele><time>2026-04-21T05:11:55.952Z</time></trkpt><trkpt lat="45.4091095" lon="10.5398684"><ele>133.0</ele><time>2026-04-21T05:12:13.947Z</time></trkpt><trkpt lat="45.4090173" lon="10.5398788"><ele>133.0</ele><time>2026-04-21T05:12:46.95Z</time></trkpt><trkpt lat="45.4089473" lon="10.5398701"><ele>133.0</ele><time>2026-04-21T05:12:47.945Z</time></trkpt><trkpt lat="45.4088599" lon="10.5398547"><ele>133.0</ele><time>2026-04-21T05:12:50.952Z</time></trkpt><trkpt lat="45.4087805" lon="10.5398428"><ele>133.0</ele><time>2026-04-21T05:12:52.948Z</time></trkpt><trkpt lat="45.4087154" lon="10.5398393"><ele>133.0</ele><time>2026-04-21T05:12:53.946Z</time></trkpt><trkpt lat="45.4086492" lon="10.5398082"><ele>133.0</ele><time>2026-04-21T05:12:57.955Z</time></trkpt><trkpt lat="45.4085627" lon="10.5397984"><ele>133.0</ele><time>2026-04-21T05:12:59.951Z</time></trkpt><trkpt lat="45.4086543" lon="10.5397961"><ele>133.0</ele><time>2026-04-21T05:13:09.944Z</time></trkpt><trkpt lat="45.4087783" lon="10.5397929"><ele>133.0</ele><time>2026-04-21T05:13:11.947Z</time></trkpt><trkpt lat="45.4088369" lon="10.5398282"><ele>133.0</ele><time>2026-04-21T05:13:20.953Z</time></trkpt><trkpt lat="45.4089116" lon="10.5398318"><ele>133.0</ele><time>2026-04-21T05:13:23.956Z</time></trkpt><trkpt lat="45.4090754" lon="10.5397942"><ele>133.0</ele><time>2026-04-21T05:13:28.953Z</time></trkpt><trkpt lat="45.4091438" lon="10.5398002"><ele>133.0</ele><time>2026-04-21T05:13:31.953Z</time></trkpt><trkpt lat="45.4090784" lon="10.5398274"><ele>133.0</ele><time>2026-04-21T05:13:32.949Z</time></trkpt><trkpt lat="45.4089823" lon="10.5398689"><ele>133.0</ele><time>2026-04-21T05:13:39.956Z</time></trkpt><trkpt lat="45.4088753" lon="10.5398938"><ele>133.0</ele><time>2026-04-21T05:13:40.952Z</time></trkpt><trkpt lat="45.4087821" lon="10.539921"><ele>133.0</ele><time>2026-04-21T05:13:41.95Z</time></trkpt><trkpt lat="45.4087192" lon="10.5399139"><ele>133.0</ele><time>2026-04-21T05:13:49.954Z</time></trkpt><trkpt lat="45.4086317" lon="10.5399265"><ele>131.20000000000002</ele><time>2026-04-21T05:13:54.956Z</time></trkpt><trkpt lat="45.4085142" lon="10.5399297"><ele>129.4</ele><time>2026-04-21T05:13:57.955Z</time></trkpt><trkpt lat="45.4084098" lon="10.5399278"><ele>127.60000000000001</ele><time>2026-04-21T05:13:59.95Z</time></trkpt><trkpt lat="45.4083315" lon="10.5398992"><ele>125.80000000000001</ele><time>2026-04-21T05:14:14.949Z</time></trkpt><trkpt lat="45.4083983" lon="10.5398848"><ele>124.0</ele><time>2026-04-21T05:14:50.948Z</time></trkpt><trkpt lat="45.4085449" lon="10.53984"><ele>124.00000000000001</ele><time>2026-04-21T05:14:52.953Z</time></trkpt><trkpt lat="45.4086733" lon="10.5398314"><ele>124.0</ele><time>2026-04-21T05:14:53.954Z</time></trkpt><trkpt lat="45.4087644" lon="10.5398295"><ele>124.0</ele><time>2026-04-21T05:14:54.949Z</time></trkpt><trkpt lat="45.4088274" lon="10.5398257"><ele>124.0</ele><time>2026-04-21T05:14:55.947Z</time></trkpt><trkpt lat="45.4088997" lon="10.5398152"><ele>124.00000000000001</ele><time>2026-04-21T05:14:57.95Z</time></trkpt><trkpt lat="45.4089849" lon="10.5398021"><ele>124.0</ele><time>2026-04-21T05:14:59.95Z</time></trkpt><trkpt lat="45.4090622" lon="10.5398004"><ele>124.0</ele><time>2026-04-21T05:15:02.952Z</time></trkpt><trkpt lat="45.4091838" lon="10.5397954"><ele>124.0</ele><time>2026-04-21T05:15:11.128Z</time></trkpt><trkpt lat="45.4092772" lon="10.53977"><ele>124.0</ele><time>2026-04-21T05:15:24.946Z</time></trkpt><trkpt lat="45.409138" lon="10.5397841"><ele>124.0</ele><time>2026-04-21T05:15:25.946Z</time></trkpt><trkpt lat="45.4090678" lon="10.5398071"><ele>124.0</ele><time>2026-04-21T05:15:27.948Z</time></trkpt><trkpt lat="45.4088205" lon="10.5398435"><ele>124.0</ele><time>2026-04-21T05:15:28.951Z</time></trkpt><trkpt lat="45.4087027" lon="10.5398578"><ele>124.0</ele><time>2026-04-21T05:15:29.951Z</time></trkpt><trkpt lat="45.4086244" lon="10.539868"><ele>124.0</ele><time>2026-04-21T05:15:30.953Z</time></trkpt><trkpt lat="45.4087281" lon="10.5399136"><ele>124.0</ele><time>2026-04-21T05:15:42.948Z</time></trkpt><trkpt lat="45.4088686" lon="10.539927"><ele>124.0</ele><time>2026-04-21T05:15:45.942Z</time></trkpt><trkpt lat="45.4089489" lon="10.5399205"><ele>124.0</ele><time>2026-04-21T05:15:46.954Z</time></trkpt><trkpt lat="45.4090149" lon="10.5399734"><ele>124.0</ele><time>2026-04-21T05:15:53.945Z</time></trkpt><trkpt lat="45.4088608" lon="10.5400164"><ele>124.0</ele><time>2026-04-21T05:16:03.947Z</time></trkpt><trkpt lat="45.4087907" lon="10.5400277"><ele>124.0</ele><time>2026-04-21T05:16:04.952Z</time></trkpt><trkpt lat="45.4087999" lon="10.5398851"><ele>124.0</ele><time>2026-04-21T05:16:25.94Z</time></trkpt><trkpt lat="45.4089492" lon="10.5398861"><ele>125.50000000000001</ele><time>2026-04-21T05:16:29.953Z</time></trkpt><trkpt lat="45.4090343" lon="10.5398772"><ele>127.0</ele><time>2026-04-21T05:16:30.952Z</time></trkpt><trkpt lat="45.4090977" lon="10.5398688"><ele>128.5</ele><time>2026-04-21T05:16:31.95Z</time></trkpt><trkpt lat="45.4091647" lon="10.5398628"><ele>130.0</ele><time>2026-04-21T05:16:32.943Z</time></trkpt><trkpt lat="45.4092785" lon="10.5398409"><ele>131.5</ele><time>2026-04-21T05:16:34.947Z</time></trkpt><trkpt lat="45.4093919" lon="10.5398302"><ele>133.0</ele><time>2026-04-21T05:16:36.952Z</time></trkpt><trkpt lat="45.4094723" lon="10.5398119"><ele>133.0</ele><time>2026-04-21T05:16:38.946Z</time></trkpt><trkpt lat="45.4095519" lon="10.5397921"><ele>133.0</ele><time>2026-04-21T05:16:40.953Z</time></trkpt><trkpt lat="45.4096171" lon="10.5397682"><ele>133.0</ele><time>2026-04-21T05:16:42.944Z</time></trkpt><trkpt lat="45.4096929" lon="10.5397556"><ele>133.0</ele><time>2026-04-21T05:16:43.954Z</time></trkpt><trkpt lat="45.4095705" lon="10.5397586"><ele>133.0</ele><time>2026-04-21T05:16:46.946Z</time></trkpt><trkpt lat="45.4094789" lon="10.539758"><ele>133.0</ele><time>2026-04-21T05:16:47.953Z</time></trkpt><trkpt lat="45.409329" lon="10.5397744"><ele>133.0</ele><time>2026-04-21T05:16:48.951Z</time></trkpt><trkpt lat="45.409024" lon="10.5398196"><ele>133.0</ele><time>2026-04-21T05:16:49.946Z</time></trkpt><trkpt lat="45.4089539" lon="10.5398356"><ele>133.0</ele><time>2026-04-21T05:16:51.951Z</time></trkpt><trkpt lat="45.4090449" lon="10.5398289"><ele>133.0</ele><time>2026-04-21T05:17:00.947Z</time></trkpt><trkpt lat="45.4091257" lon="10.5397868"><ele>133.0</ele><time>2026-04-21T05:17:04.943Z</time></trkpt><trkpt lat="45.4090469" lon="10.539775"><ele>133.0</ele><time>2026-04-21T05:17:11.949Z</time></trkpt><trkpt lat="45.4089563" lon="10.5397565"><ele>133.0</ele><time>2026-04-21T05:17:16.951Z</time></trkpt><trkpt lat="45.4088895" lon="10.5397502"><ele>133.0</ele><time>2026-04-21T05:17:21.949Z</time></trkpt><trkpt lat="45.4087633" lon="10.5397683"><ele>133.0</ele><time>2026-04-21T05:17:24.943Z</time></trkpt><trkpt lat="45.4086915" lon="10.5397848"><ele>133.0</ele><time>2026-04-21T05:17:26.946Z</time></trkpt><trkpt lat="45.4088387" lon="10.53976"><ele>133.0</ele><time>2026-04-21T05:17:29.951Z</time></trkpt><trkpt lat="45.408945" lon="10.5396928"><ele>133.0</ele><time>2026-04-21T05:17:48.945Z</time></trkpt><trkpt lat="45.4090329" lon="10.5397112"><ele>133.0</ele><time>2026-04-21T05:17:55.945Z</time></trkpt><trkpt lat="45.4090989" lon="10.5397258"><ele>133.0</ele><time>2026-04-21T05:17:59.951Z</time></trkpt><trkpt lat="45.4090877" lon="10.5398212"><ele>133.0</ele><time>2026-04-21T05:18:47.947Z</time></trkpt><trkpt lat="45.4089936" lon="10.5398664"><ele>133.0</ele><time>2026-04-21T05:19:00.943Z</time></trkpt><trkpt lat="45.4090322" lon="10.5397927"><ele>133.0</ele><time>2026-04-21T05:19:17.945Z</time></trkpt><trkpt lat="45.4091024" lon="10.5397336"><ele>133.0</ele><time>2026-04-21T05:19:25.946Z</time></trkpt><trkpt lat="45.4090385" lon="10.5397793"><ele>133.0</ele><time>2026-04-21T05:19:55.952Z</time></trkpt><trkpt lat="45.4089332" lon="10.5399231"><ele>133.0</ele><time>2026-04-21T05:19:57.945Z</time></trkpt><trkpt lat="45.4088867" lon="10.540004"><ele>133.0</ele><time>2026-04-21T05:19:58.946Z</time></trkpt><trkpt lat="45.4088386" lon="10.5401051"><ele>133.0</ele><time>2026-04-21T05:20:01.949Z</time></trkpt><trkpt lat="45.4089076" lon="10.5400039"><ele>133.0</ele><time>2026-04-21T05:20:05.953Z</time></trkpt><trkpt lat="45.4089959" lon="10.5398874"><ele>133.0</ele><time>2026-04-21T05:20:07.953Z</time></trkpt><trkpt lat="45.4090134" lon="10.5397512"><ele>133.0</ele><time>2026-04-21T05:20:09.947Z</time></trkpt><trkpt lat="45.4090792" lon="10.5396706"><ele>133.0</ele><time>2026-04-21T05:20:30.946Z</time></trkpt><trkpt lat="45.4090288" lon="10.5397302"><ele>133.0</ele><time>2026-04-21T05:20:43.946Z</time></trkpt><trkpt lat="45.4090729" lon="10.5397973"><ele>133.0</ele><time>2026-04-21T05:21:54.955Z</time></trkpt><trkpt lat="45.4090179" lon="10.5398669"><ele>133.0</ele><time>2026-04-21T05:22:01.945Z</time></trkpt><trkpt lat="45.4090617" lon="10.5397933"><ele>133.0</ele><time>2026-04-21T05:22:43.95Z</time></trkpt><trkpt lat="45.4091669" lon="10.5397997"><ele>133.0</ele><time>2026-04-21T05:22:59.956Z</time></trkpt><trkpt lat="45.4090993" lon="10.5398194"><ele>133.0</ele><time>2026-04-21T05:23:15.951Z</time></trkpt><trkpt lat="45.4091551" lon="10.539764"><ele>133.0</ele><time>2026-04-21T05:23:28.944Z</time></trkpt><trkpt lat="45.4091157" lon="10.5398357"><ele>133.0</ele><time>2026-04-21T05:23:58.954Z</time></trkpt><trkpt lat="45.4091101" lon="10.5397462"><ele>133.0</ele><time>2026-04-21T05:24:23.952Z</time></trkpt><trkpt lat="45.4091803" lon="10.5397592"><ele>133.0</ele><time>2026-04-21T05:24:41.944Z</time></trkpt><trkpt lat="45.4091242" lon="10.5397133"><ele>133.0</ele><time>2026-04-21T05:25:06.942Z</time></trkpt><trkpt lat="45.4090387" lon="10.5397454"><ele>133.0</ele><time>2026-04-21T05:25:24.944Z</time></trkpt><trkpt lat="45.4089616" lon="10.5397333"><ele>133.0</ele><time>2026-04-21T05:25:33.947Z</time></trkpt><trkpt lat="45.4090291" lon="10.5397373"><ele>133.0</ele><time>2026-04-21T05:25:47.944Z</time></trkpt><trkpt lat="45.4091085" lon="10.5397938"><ele>133.0</ele><time>2026-04-21T05:25:54.947Z</time></trkpt><trkpt lat="45.4091708" lon="10.5398467"><ele>133.0</ele><time>2026-04-21T05:26:03.943Z</time></trkpt><trkpt lat="45.4091091" lon="10.5398167"><ele>133.0</ele><time>2026-04-21T05:26:27.944Z</time></trkpt><trkpt lat="45.4090448" lon="10.5397957"><ele>133.0</ele><time>2026-04-21T05:26:35.939Z</time></trkpt><trkpt lat="45.4089794" lon="10.539789"><ele>133.0</ele><time>2026-04-21T05:27:11.95Z</time></trkpt><trkpt lat="45.4091274" lon="10.5397911"><ele>133.0</ele><time>2026-04-21T05:27:35.942Z</time></trkpt><trkpt lat="45.4092211" lon="10.5398453"><ele>133.0</ele><time>2026-04-21T05:27:53.946Z</time></trkpt><trkpt lat="45.40929" lon="10.5398296"><ele>133.0</ele><time>2026-04-21T05:27:57.942Z</time></trkpt><trkpt lat="45.4093597" lon="10.5398333"><ele>133.0</ele><time>2026-04-21T05:28:15.945Z</time></trkpt><trkpt lat="45.4094301" lon="10.5398074"><ele>133.0</ele><time>2026-04-21T05:28:19.945Z</time></trkpt><trkpt lat="45.4093626" lon="10.5398125"><ele>133.0</ele><time>2026-04-21T05:28:28.95Z</time></trkpt><trkpt lat="45.4092706" lon="10.5398392"><ele>133.0</ele><time>2026-04-21T05:28:31.942Z</time></trkpt><trkpt lat="45.4091954" lon="10.5398495"><ele>133.0</ele><time>2026-04-21T05:28:36.945Z</time></trkpt><trkpt lat="45.4091041" lon="10.5398752"><ele>133.0</ele><time>2026-04-21T05:28:50.95Z</time></trkpt><trkpt lat="45.4090319" lon="10.5398901"><ele>133.0</ele><time>2026-04-21T05:28:55.946Z</time></trkpt><trkpt lat="45.4091099" lon="10.5398818"><ele>133.0</ele><time>2026-04-21T05:29:06.947Z</time></trkpt><trkpt lat="45.4090403" lon="10.5398757"><ele>133.0</ele><time>2026-04-21T05:29:52.944Z</time></trkpt><trkpt lat="45.409127" lon="10.539873"><ele>133.0</ele><time>2026-04-21T05:30:31.949Z</time></trkpt><trkpt lat="45.4090609" lon="10.53988"><ele>133.0</ele><time>2026-04-21T05:30:34.942Z</time></trkpt><trkpt lat="45.4089819" lon="10.5398957"><ele>133.0</ele><time>2026-04-21T05:30:44.951Z</time></trkpt><trkpt lat="45.4090691" lon="10.5398953"><ele>133.0</ele><time>2026-04-21T05:30:49.942Z</time></trkpt><trkpt lat="45.409103" lon="10.5398088"><ele>133.0</ele><time>2026-04-21T05:31:10.946Z</time></trkpt><trkpt lat="45.4090345" lon="10.5398375"><ele>133.0</ele><time>2026-04-21T05:31:15.945Z</time></trkpt><trkpt lat="45.4091105" lon="10.5398468"><ele>133.0</ele><time>2026-04-21T05:31:37.942Z</time></trkpt><trkpt lat="45.4090789" lon="10.5399284"><ele>133.0</ele><time>2026-04-21T05:32:27.944Z</time></trkpt><trkpt lat="45.409024" lon="10.539868"><ele>133.0</ele><time>2026-04-21T05:32:45.951Z</time></trkpt><trkpt lat="45.4089559" lon="10.5399111"><ele>133.0</ele><time>2026-04-21T05:32:48.951Z</time></trkpt><trkpt lat="45.408886" lon="10.5399618"><ele>133.0</ele><time>2026-04-21T05:32:51.943Z</time></trkpt><trkpt lat="45.4089408" lon="10.5399046"><ele>133.0</ele><time>2026-04-21T05:32:56.947Z</time></trkpt><trkpt lat="45.4090425" lon="10.5398863"><ele>133.0</ele><time>2026-04-21T05:33:10.955Z</time></trkpt><trkpt lat="45.4091337" lon="10.5398253"><ele>133.0</ele><time>2026-04-21T05:33:50.95Z</time></trkpt><trkpt lat="45.4091994" lon="10.5397777"><ele>133.0</ele><time>2026-04-21T05:33:54.946Z</time></trkpt><trkpt lat="45.4092646" lon="10.539735"><ele>133.0</ele><time>2026-04-21T05:33:56.945Z</time></trkpt><trkpt lat="45.4091642" lon="10.5397529"><ele>133.0</ele><time>2026-04-21T05:34:07.948Z</time></trkpt><trkpt lat="45.4090961" lon="10.5398617"><ele>133.0</ele><time>2026-04-21T05:34:28.944Z</time></trkpt><trkpt lat="45.4090662" lon="10.5399439"><ele>133.0</ele><time>2026-04-21T05:34:44.945Z</time></trkpt><trkpt lat="45.4089892" lon="10.5399371"><ele>133.0</ele><time>2026-04-21T05:34:47.95Z</time></trkpt><trkpt lat="45.4090092" lon="10.5398426"><ele>133.0</ele><time>2026-04-21T05:35:00.942Z</time></trkpt><trkpt lat="45.4090463" lon="10.5397633"><ele>133.0</ele><time>2026-04-21T05:35:02.943Z</time></trkpt><trkpt lat="45.4089954" lon="10.539854"><ele>133.0</ele><time>2026-04-21T05:35:18.951Z</time></trkpt><trkpt lat="45.4089366" lon="10.5399555"><ele>133.0</ele><time>2026-04-21T05:35:24.943Z</time></trkpt><trkpt lat="45.4090401" lon="10.539871"><ele>133.0</ele><time>2026-04-21T05:35:32.942Z</time></trkpt><trkpt lat="45.4089779" lon="10.5397983"><ele>133.0</ele><time>2026-04-21T05:35:45.949Z</time></trkpt><trkpt lat="45.4089693" lon="10.5398931"><ele>133.0</ele><time>2026-04-21T05:36:11.944Z</time></trkpt><trkpt lat="45.4090479" lon="10.5399574"><ele>133.0</ele><time>2026-04-21T05:36:19.956Z</time></trkpt><trkpt lat="45.4089868" lon="10.5398878"><ele>133.0</ele><time>2026-04-21T05:36:36.95Z</time></trkpt><trkpt lat="45.4090702" lon="10.5398712"><ele>133.0</ele><time>2026-04-21T05:36:40.944Z</time></trkpt><trkpt lat="45.409176" lon="10.5398838"><ele>133.0</ele><time>2026-04-21T05:36:53.949Z</time></trkpt><trkpt lat="45.4092693" lon="10.5398689"><ele>133.0</ele><time>2026-04-21T05:36:56.94Z</time></trkpt><trkpt lat="45.4091999" lon="10.5398389"><ele>133.0</ele><time>2026-04-21T05:36:58.938Z</time></trkpt><trkpt lat="45.4092778" lon="10.5398256"><ele>133.0</ele><time>2026-04-21T05:37:24.941Z</time></trkpt><trkpt lat="45.409212" lon="10.5398184"><ele>133.0</ele><time>2026-04-21T05:37:34.947Z</time></trkpt><trkpt lat="45.4091497" lon="10.5398336"><ele>133.0</ele><time>2026-04-21T05:37:41.947Z</time></trkpt><trkpt lat="45.409079" lon="10.5398437"><ele>133.0</ele><time>2026-04-21T05:39:13.941Z</time></trkpt><trkpt lat="45.4091689" lon="10.5398239"><ele>133.0</ele><time>2026-04-21T05:39:19.944Z</time></trkpt><trkpt lat="45.4091043" lon="10.5398339"><ele>133.0</ele><time>2026-04-21T05:39:39.943Z</time></trkpt><trkpt lat="45.4091675" lon="10.5397833"><ele>133.0</ele><time>2026-04-21T05:39:53.945Z</time></trkpt><trkpt lat="45.4090567" lon="10.5398579"><ele>133.0</ele><time>2026-04-21T05:40:11.95Z</time></trkpt><trkpt lat="45.4089931" lon="10.5399072"><ele>133.0</ele><time>2026-04-21T05:40:14.948Z</time></trkpt><trkpt lat="45.409065" lon="10.5398465"><ele>133.0</ele><time>2026-04-21T05:40:18.94Z</time></trkpt><trkpt lat="45.4091324" lon="10.5397802"><ele>133.0</ele><time>2026-04-21T05:40:21.951Z</time></trkpt><trkpt lat="45.4090628" lon="10.5398156"><ele>133.0</ele><time>2026-04-21T05:40:41.948Z</time></trkpt><trkpt lat="45.4091243" lon="10.5397582"><ele>133.0</ele><time>2026-04-21T05:40:49.946Z</time></trkpt><trkpt lat="45.4091932" lon="10.5397785"><ele>133.0</ele><time>2026-04-21T05:41:01.946Z</time></trkpt><trkpt lat="45.409125" lon="10.5398095"><ele>133.0</ele><time>2026-04-21T05:41:11.948Z</time></trkpt><trkpt lat="45.4090625" lon="10.53986"><ele>133.0</ele><time>2026-04-21T05:41:15.95Z</time></trkpt><trkpt lat="45.4089847" lon="10.5398737"><ele>133.0</ele><time>2026-04-21T05:41:34.951Z</time></trkpt><trkpt lat="45.4089243" lon="10.5399232"><ele>133.0</ele><time>2026-04-21T05:41:41.943Z</time></trkpt><trkpt lat="45.4089863" lon="10.5398627"><ele>133.0</ele><time>2026-04-21T05:42:06.947Z</time></trkpt><trkpt lat="45.4090955" lon="10.5398398"><ele>133.0</ele><time>2026-04-21T05:44:27.948Z</time></trkpt><trkpt lat="45.4090321" lon="10.5398489"><ele>133.0</ele><time>2026-04-21T05:45:30.951Z</time></trkpt><trkpt lat="45.4091072" lon="10.5398321"><ele>133.0</ele><time>2026-04-21T05:46:19.949Z</time></trkpt><trkpt lat="45.4090387" lon="10.5397184"><ele>133.0</ele><time>2026-04-21T05:47:29.943Z</time></trkpt><trkpt lat="45.4089867" lon="10.5397805"><ele>133.0</ele><time>2026-04-21T05:48:07.952Z</time></trkpt><trkpt lat="45.40902" lon="10.5396812"><ele>133.0</ele><time>2026-04-21T05:50:30.945Z</time></trkpt><trkpt lat="45.4090954" lon="10.5398097"><ele>133.0</ele><time>2026-04-21T05:51:10.94Z</time></trkpt><trkpt lat="45.4090366" lon="10.5398587"><ele>133.0</ele><time>2026-04-21T05:51:17.944Z</time></trkpt><trkpt lat="45.4089716" lon="10.5398359"><ele>133.0</ele><time>2026-04-21T05:51:52.949Z</time></trkpt><trkpt lat="45.4090282" lon="10.5397915"><ele>133.0</ele><time>2026-04-21T05:51:56.946Z</time></trkpt><trkpt lat="45.4090792" lon="10.5397103"><ele>133.0</ele><time>2026-04-21T05:52:43.945Z</time></trkpt><trkpt lat="45.4090091" lon="10.5397741"><ele>133.0</ele><time>2026-04-21T05:53:03.939Z</time></trkpt><trkpt lat="45.4089614" lon="10.539867"><ele>133.0</ele><time>2026-04-21T05:53:24.946Z</time></trkpt><trkpt lat="45.4090031" lon="10.539776"><ele>133.0</ele><time>2026-04-21T05:53:49.952Z</time></trkpt><trkpt lat="45.4090605" lon="10.5397331"><ele>133.0</ele><time>2026-04-21T05:55:36.947Z</time></trkpt><trkpt lat="45.4091706" lon="10.5396854"><ele>133.0</ele><time>2026-04-21T05:56:43.945Z</time></trkpt><trkpt lat="45.4091285" lon="10.5397726"><ele>133.0</ele><time>2026-04-21T05:56:48.949Z</time></trkpt><trkpt lat="45.4091974" lon="10.5398012"><ele>133.0</ele><time>2026-04-21T05:57:08.942Z</time></trkpt><trkpt lat="45.4091231" lon="10.5397573"><ele>133.0</ele><time>2026-04-21T05:57:32.942Z</time></trkpt><trkpt lat="45.4090608" lon="10.5397761"><ele>133.0</ele><time>2026-04-21T05:58:08.946Z</time></trkpt><trkpt lat="45.409013" lon="10.539835"><ele>133.0</ele><time>2026-04-21T05:58:44.947Z</time></trkpt><trkpt lat="45.408942" lon="10.5399062"><ele>133.0</ele><time>2026-04-21T05:58:55.95Z</time></trkpt><trkpt lat="45.4089644" lon="10.539747"><ele>133.0</ele><time>2026-04-21T05:59:39.945Z</time></trkpt><trkpt lat="45.4091324" lon="10.5397766"><ele>133.0</ele><time>2026-04-21T06:00:37.94Z</time></trkpt><trkpt lat="45.4090541" lon="10.5397782"><ele>133.0</ele><time>2026-04-21T06:00:40.945Z</time></trkpt><trkpt lat="45.4089854" lon="10.5397929"><ele>133.0</ele><time>2026-04-21T06:01:36.942Z</time></trkpt><trkpt lat="45.4089182" lon="10.5397807"><ele>133.0</ele><time>2026-04-21T06:01:43.943Z</time></trkpt><trkpt lat="45.4088561" lon="10.5397425"><ele>133.0</ele><time>2026-04-21T06:01:57.946Z</time></trkpt><trkpt lat="45.4089311" lon="10.5397205"><ele>133.0</ele><time>2026-04-21T06:02:18.949Z</time></trkpt><trkpt lat="45.4089972" lon="10.5397508"><ele>133.0</ele><time>2026-04-21T06:02:21.946Z</time></trkpt><trkpt lat="45.4090602" lon="10.5397811"><ele>133.0</ele><time>2026-04-21T06:02:22.948Z</time></trkpt><trkpt lat="45.4090914" lon="10.5398645"><ele>133.0</ele><time>2026-04-21T06:02:34.945Z</time></trkpt><trkpt lat="45.4091513" lon="10.5398974"><ele>133.0</ele><time>2026-04-21T06:02:35.95Z</time></trkpt><trkpt lat="45.4090806" lon="10.5398735"><ele>133.0</ele><time>2026-04-21T06:02:38.949Z</time></trkpt><trkpt lat="45.4090108" lon="10.5398542"><ele>133.0</ele><time>2026-04-21T06:02:42.939Z</time></trkpt><trkpt lat="45.4089532" lon="10.5397999"><ele>133.0</ele><time>2026-04-21T06:03:13.943Z</time></trkpt><trkpt lat="45.4088994" lon="10.5397453"><ele>133.0</ele><time>2026-04-21T06:03:58.95Z</time></trkpt><trkpt lat="45.4089672" lon="10.5398087"><ele>133.0</ele><time>2026-04-21T06:04:40.95Z</time></trkpt><trkpt lat="45.4089167" lon="10.5398688"><ele>133.0</ele><time>2026-04-21T06:04:49.942Z</time></trkpt><trkpt lat="45.4088323" lon="10.5399777"><ele>133.0</ele><time>2026-04-21T06:05:12.944Z</time></trkpt><trkpt lat="45.4087326" lon="10.539997"><ele>133.0</ele><time>2026-04-21T06:05:20.949Z</time></trkpt><trkpt lat="45.4086651" lon="10.5399531"><ele>133.0</ele><time>2026-04-21T06:05:28.944Z</time></trkpt><trkpt lat="45.4087377" lon="10.5399035"><ele>133.0</ele><time>2026-04-21T06:05:37.942Z</time></trkpt><trkpt lat="45.4087955" lon="10.539859"><ele>133.0</ele><time>2026-04-21T06:05:39.949Z</time></trkpt><trkpt lat="45.4088746" lon="10.5398713"><ele>133.0</ele><time>2026-04-21T06:05:43.945Z</time></trkpt><trkpt lat="45.4089365" lon="10.5397846"><ele>133.0</ele><time>2026-04-21T06:06:35.952Z</time></trkpt><trkpt lat="45.4089363" lon="10.5398869"><ele>133.0</ele><time>2026-04-21T06:06:45.951Z</time></trkpt><trkpt lat="45.4089227" lon="10.5400023"><ele>133.0</ele><time>2026-04-21T06:06:47.952Z</time></trkpt><trkpt lat="45.4088782" lon="10.5400938"><ele>133.0</ele><time>2026-04-21T06:06:56.942Z</time></trkpt><trkpt lat="45.4088009" lon="10.5401191"><ele>133.0</ele><time>2026-04-21T06:06:58.945Z</time></trkpt><trkpt lat="45.4087348" lon="10.5400684"><ele>133.0</ele><time>2026-04-21T06:07:08.955Z</time></trkpt><trkpt lat="45.4087158" lon="10.539979"><ele>133.0</ele><time>2026-04-21T06:07:20.951Z</time></trkpt><trkpt lat="45.4088263" lon="10.5399315"><ele>133.0</ele><time>2026-04-21T06:07:47.944Z</time></trkpt><trkpt lat="45.4089317" lon="10.5399094"><ele>133.0</ele><time>2026-04-21T06:08:47.949Z</time></trkpt><trkpt lat="45.4089084" lon="10.5398247"><ele>133.0</ele><time>2026-04-21T06:09:06.942Z</time></trkpt><trkpt lat="45.4088321" lon="10.5397836"><ele>133.0</ele><time>2026-04-21T06:09:08.943Z</time></trkpt><trkpt lat="45.4088903" lon="10.5397492"><ele>133.0</ele><time>2026-04-21T06:09:27.95Z</time></trkpt><trkpt lat="45.4088175" lon="10.5396945"><ele>133.0</ele><time>2026-04-21T06:10:29.945Z</time></trkpt><trkpt lat="45.4087255" lon="10.5396805"><ele>133.0</ele><time>2026-04-21T06:10:31.946Z</time></trkpt><trkpt lat="45.4087843" lon="10.539727"><ele>133.0</ele><time>2026-04-21T06:10:45.947Z</time></trkpt><trkpt lat="45.4088561" lon="10.5397539"><ele>133.0</ele><time>2026-04-21T06:10:48.951Z</time></trkpt><trkpt lat="45.4089197" lon="10.539773"><ele>133.0</ele><time>2026-04-21T06:10:51.95Z</time></trkpt><trkpt lat="45.4089537" lon="10.5398612"><ele>133.0</ele><time>2026-04-21T06:11:26.945Z</time></trkpt><trkpt lat="45.4090263" lon="10.5399332"><ele>133.0</ele><time>2026-04-21T06:11:43.943Z</time></trkpt><trkpt lat="45.4090745" lon="10.5400197"><ele>133.0</ele><time>2026-04-21T06:11:46.947Z</time></trkpt><trkpt lat="45.4090401" lon="10.5399382"><ele>133.0</ele><time>2026-04-21T06:12:05.947Z</time></trkpt><trkpt lat="45.408991" lon="10.5398791"><ele>133.0</ele><time>2026-04-21T06:12:09.948Z</time></trkpt><trkpt lat="45.4089311" lon="10.5398257"><ele>133.0</ele><time>2026-04-21T06:12:17.942Z</time></trkpt><trkpt lat="45.4090019" lon="10.5398365"><ele>133.0</ele><time>2026-04-21T06:12:39.944Z</time></trkpt><trkpt lat="45.4090818" lon="10.5398968"><ele>133.0</ele><time>2026-04-21T06:12:42.943Z</time></trkpt><trkpt lat="45.409159" lon="10.5399563"><ele>133.0</ele><time>2026-04-21T06:12:44.949Z</time></trkpt><trkpt lat="45.4092267" lon="10.5400097"><ele>133.0</ele><time>2026-04-21T06:12:46.955Z</time></trkpt><trkpt lat="45.4092876" lon="10.5400544"><ele>133.0</ele><time>2026-04-21T06:12:49.948Z</time></trkpt><trkpt lat="45.4092459" lon="10.5399346"><ele>133.0</ele><time>2026-04-21T06:13:13.945Z</time></trkpt><trkpt lat="45.4091889" lon="10.5398821"><ele>133.0</ele><time>2026-04-21T06:13:20.944Z</time></trkpt><trkpt lat="45.4090998" lon="10.5398341"><ele>133.0</ele><time>2026-04-21T06:13:32.947Z</time></trkpt><trkpt lat="45.4090328" lon="10.5398286"><ele>133.0</ele><time>2026-04-21T06:14:00.946Z</time></trkpt><trkpt lat="45.4089681" lon="10.5397864"><ele>133.0</ele><time>2026-04-21T06:14:17.944Z</time></trkpt><trkpt lat="45.408914" lon="10.5398323"><ele>133.0</ele><time>2026-04-21T06:15:12.955Z</time></trkpt><trkpt lat="45.4088468" lon="10.5398612"><ele>133.0</ele><time>2026-04-21T06:15:47.942Z</time></trkpt><trkpt lat="45.4089142" lon="10.5398333"><ele>133.0</ele><time>2026-04-21T06:16:14.945Z</time></trkpt><trkpt lat="45.4089956" lon="10.5397727"><ele>133.0</ele><time>2026-04-21T06:17:12.951Z</time></trkpt><trkpt lat="45.4090376" lon="10.5398508"><ele>133.0</ele><time>2026-04-21T06:17:47.944Z</time></trkpt><trkpt lat="45.4090673" lon="10.5396815"><ele>133.0</ele><time>2026-04-21T06:18:39.939Z</time></trkpt><trkpt lat="45.4089746" lon="10.5397374"><ele>133.0</ele><time>2026-04-21T06:19:08.949Z</time></trkpt><trkpt lat="45.4089419" lon="10.5398284"><ele>133.0</ele><time>2026-04-21T06:19:15.942Z</time></trkpt><trkpt lat="45.4089601" lon="10.5399213"><ele>133.0</ele><time>2026-04-21T06:19:24.952Z</time></trkpt><trkpt lat="45.4090116" lon="10.5399939"><ele>133.0</ele><time>2026-04-21T06:19:40.949Z</time></trkpt><trkpt lat="45.4090531" lon="10.5400975"><ele>133.0</ele><time>2026-04-21T06:19:45.944Z</time></trkpt><trkpt lat="45.408995" lon="10.5400286"><ele>133.0</ele><time>2026-04-21T06:19:58.951Z</time></trkpt><trkpt lat="45.4089218" lon="10.5399883"><ele>133.0</ele><time>2026-04-21T06:20:20.949Z</time></trkpt><trkpt lat="45.4088536" lon="10.5399041"><ele>133.0</ele><time>2026-04-21T06:20:41.942Z</time></trkpt><trkpt lat="45.4088435" lon="10.5397731"><ele>133.0</ele><time>2026-04-21T06:20:50.946Z</time></trkpt><trkpt lat="45.4089146" lon="10.5398109"><ele>133.0</ele><time>2026-04-21T06:21:08.952Z</time></trkpt><trkpt lat="45.4089636" lon="10.5398848"><ele>133.0</ele><time>2026-04-21T06:21:18.95Z</time></trkpt><trkpt lat="45.4090457" lon="10.5399582"><ele>133.0</ele><time>2026-04-21T06:21:20.951Z</time></trkpt><trkpt lat="45.4090532" lon="10.5398666"><ele>133.0</ele><time>2026-04-21T06:21:55.944Z</time></trkpt><trkpt lat="45.4090005" lon="10.5397904"><ele>133.0</ele><time>2026-04-21T06:22:05.946Z</time></trkpt><trkpt lat="45.40904" lon="10.5398606"><ele>133.0</ele><time>2026-04-21T06:22:14.947Z</time></trkpt><trkpt lat="45.4089654" lon="10.5398007"><ele>133.0</ele><time>2026-04-21T06:22:26.945Z</time></trkpt><trkpt lat="45.4090297" lon="10.539859"><ele>133.0</ele><time>2026-04-21T06:23:09.945Z</time></trkpt><trkpt lat="45.4089266" lon="10.5397955"><ele>133.0</ele><time>2026-04-21T06:23:19.951Z</time></trkpt><trkpt lat="45.4088585" lon="10.539762"><ele>133.0</ele><time>2026-04-21T06:23:24.943Z</time></trkpt><trkpt lat="45.4089667" lon="10.5398047"><ele>133.0</ele><time>2026-04-21T06:23:43.953Z</time></trkpt><trkpt lat="45.4090323" lon="10.5398783"><ele>133.0</ele><time>2026-04-21T06:23:45.95Z</time></trkpt><trkpt lat="45.4091025" lon="10.5399083"><ele>133.0</ele><time>2026-04-21T06:24:20.943Z</time></trkpt><trkpt lat="45.4091772" lon="10.5399334"><ele>133.0</ele><time>2026-04-21T06:24:26.946Z</time></trkpt><trkpt lat="45.4090977" lon="10.5399348"><ele>133.0</ele><time>2026-04-21T06:24:45.942Z</time></trkpt><trkpt lat="45.4090275" lon="10.5399072"><ele>133.0</ele><time>2026-04-21T06:24:56.614Z</time></trkpt><trkpt lat="45.4089311" lon="10.5399132"><ele>133.0</ele><time>2026-04-21T06:25:00.949Z</time></trkpt><trkpt lat="45.4088652" lon="10.5398453"><ele>133.0</ele><time>2026-04-21T06:25:07.944Z</time></trkpt><trkpt lat="45.4089413" lon="10.5398187"><ele>133.0</ele><time>2026-04-21T06:25:13.947Z</time></trkpt><trkpt lat="45.4088839" lon="10.5397728"><ele>133.0</ele><time>2026-04-21T06:25:16.942Z</time></trkpt><trkpt lat="45.4087817" lon="10.5397216"><ele>133.0</ele><time>2026-04-21T06:25:19.947Z</time></trkpt><trkpt lat="45.4087112" lon="10.5396949"><ele>133.0</ele><time>2026-04-21T06:25:23.944Z</time></trkpt><trkpt lat="45.4086413" lon="10.5396685"><ele>133.0</ele><time>2026-04-21T06:25:27.948Z</time></trkpt><trkpt lat="45.4085502" lon="10.5396671"><ele>133.0</ele><time>2026-04-21T06:25:37.146Z</time></trkpt><trkpt lat="45.4077957" lon="10.5394758"><ele>131.20000000000002</ele><time>2026-04-21T06:25:46.945Z</time></trkpt><trkpt lat="45.4079008" lon="10.5395188"><ele>129.4</ele><time>2026-04-21T06:25:51.947Z</time></trkpt><trkpt lat="45.4080029" lon="10.5395562"><ele>127.60000000000001</ele><time>2026-04-21T06:25:52.944Z</time></trkpt><trkpt lat="45.4080984" lon="10.5395893"><ele>125.80000000000001</ele><time>2026-04-21T06:25:53.943Z</time></trkpt><trkpt lat="45.4081949" lon="10.5396306"><ele>124.0</ele><time>2026-04-21T06:25:55.946Z</time></trkpt><trkpt lat="45.4082873" lon="10.5396729"><ele>124.00000000000001</ele><time>2026-04-21T06:25:57.94Z</time></trkpt><trkpt lat="45.4083697" lon="10.5397008"><ele>124.0</ele><time>2026-04-21T06:25:58.948Z</time></trkpt><trkpt lat="45.4084314" lon="10.5397256"><ele>124.0</ele><time>2026-04-21T06:25:59.945Z</time></trkpt><trkpt lat="45.4085007" lon="10.5397617"><ele>124.0</ele><time>2026-04-21T06:26:01.944Z</time></trkpt><trkpt lat="45.4085641" lon="10.5397948"><ele>124.00000000000001</ele><time>2026-04-21T06:26:03.949Z</time></trkpt><trkpt lat="45.4086385" lon="10.5398135"><ele>124.0</ele><time>2026-04-21T06:26:05.948Z</time></trkpt><trkpt lat="45.4087465" lon="10.5398024"><ele>124.00000000000001</ele><time>2026-04-21T06:26:07.947Z</time></trkpt><trkpt lat="45.4088217" lon="10.5398026"><ele>124.0</ele><time>2026-04-21T06:26:09.941Z</time></trkpt><trkpt lat="45.4089015" lon="10.5398149"><ele>124.0</ele><time>2026-04-21T06:26:16.945Z</time></trkpt><trkpt lat="45.4089777" lon="10.5397869"><ele>124.0</ele><time>2026-04-21T06:26:26.941Z</time></trkpt><trkpt lat="45.4090287" lon="10.5398425"><ele>124.00000000000001</ele><time>2026-04-21T06:27:04.948Z</time></trkpt><trkpt lat="45.4091233" lon="10.5398563"><ele>124.0</ele><time>2026-04-21T06:27:23.942Z</time></trkpt><trkpt lat="45.409039" lon="10.5398318"><ele>125.28571428571429</ele><time>2026-04-21T06:27:30.939Z</time></trkpt><trkpt lat="45.4089691" lon="10.539853"><ele>126.57142857142858</ele><time>2026-04-21T06:28:03.944Z</time></trkpt><trkpt lat="45.4088956" lon="10.5398319"><ele>127.85714285714286</ele><time>2026-04-21T06:29:09.943Z</time></trkpt><trkpt lat="45.4089598" lon="10.5398439"><ele>129.14285714285714</ele><time>2026-04-21T06:29:25.943Z</time></trkpt><trkpt lat="45.4089571" lon="10.5397234"><ele>130.42857142857144</ele><time>2026-04-21T06:30:10.95Z</time></trkpt><trkpt lat="45.4089887" lon="10.5398052"><ele>131.71428571428572</ele><time>2026-04-21T06:31:02.944Z</time></trkpt><trkpt lat="45.4089261" lon="10.5398385"><ele>133.0</ele><time>2026-04-21T06:31:12.943Z</time></trkpt><trkpt lat="45.4089903" lon="10.5398285"><ele>133.0</ele><time>2026-04-21T06:31:31.942Z</time></trkpt><trkpt lat="45.4090517" lon="10.5397182"><ele>133.0</ele><time>2026-04-21T06:31:47.95Z</time></trkpt><trkpt lat="45.4089979" lon="10.5396644"><ele>133.0</ele><time>2026-04-21T06:31:56.948Z</time></trkpt><trkpt lat="45.4089217" lon="10.5396902"><ele>133.0</ele><time>2026-04-21T06:32:00.944Z</time></trkpt><trkpt lat="45.408819" lon="10.5397841"><ele>133.0</ele><time>2026-04-21T06:32:04.948Z</time></trkpt><trkpt lat="45.4087418" lon="10.5398084"><ele>133.0</ele><time>2026-04-21T06:32:07.95Z</time></trkpt><trkpt lat="45.4086576" lon="10.5398214"><ele>133.0</ele><time>2026-04-21T06:32:10.943Z</time></trkpt><trkpt lat="45.4087201" lon="10.5398087"><ele>133.0</ele><time>2026-04-21T06:32:14.946Z</time></trkpt><trkpt lat="45.4087859" lon="10.5397875"><ele>133.0</ele><time>2026-04-21T06:32:16.951Z</time></trkpt><trkpt lat="45.4088457" lon="10.5397525"><ele>133.0</ele><time>2026-04-21T06:32:20.94Z</time></trkpt><trkpt lat="45.4089173" lon="10.5397432"><ele>133.0</ele><time>2026-04-21T06:32:24.947Z</time></trkpt><trkpt lat="45.4089831" lon="10.539712"><ele>133.0</ele><time>2026-04-21T06:32:26.951Z</time></trkpt><trkpt lat="45.4091008" lon="10.5396694"><ele>133.0</ele><time>2026-04-21T06:32:29.939Z</time></trkpt><trkpt lat="45.4091983" lon="10.5396381"><ele>133.0</ele><time>2026-04-21T06:32:31.949Z</time></trkpt><trkpt lat="45.4092999" lon="10.5396465"><ele>133.0</ele><time>2026-04-21T06:32:34.944Z</time></trkpt><trkpt lat="45.4093094" lon="10.5397376"><ele>133.0</ele><time>2026-04-21T06:32:40.95Z</time></trkpt><trkpt lat="45.4094142" lon="10.5397696"><ele>133.0</ele><time>2026-04-21T06:32:44.939Z</time></trkpt><trkpt lat="45.4094612" lon="10.5397002"><ele>133.0</ele><time>2026-04-21T06:32:53.95Z</time></trkpt><trkpt lat="45.4093678" lon="10.5397179"><ele>133.0</ele><time>2026-04-21T06:32:56.949Z</time></trkpt><trkpt lat="45.4093025" lon="10.5397149"><ele>133.0</ele><time>2026-04-21T06:32:57.945Z</time></trkpt><trkpt lat="45.4092245" lon="10.5397345"><ele>133.0</ele><time>2026-04-21T06:32:58.943Z</time></trkpt><trkpt lat="45.4090818" lon="10.5397552"><ele>133.0</ele><time>2026-04-21T06:33:00.94Z</time></trkpt><trkpt lat="45.4090129" lon="10.5397732"><ele>133.0</ele><time>2026-04-21T06:33:04.946Z</time></trkpt><trkpt lat="45.4089596" lon="10.5398277"><ele>133.0</ele><time>2026-04-21T06:33:08.941Z</time></trkpt><trkpt lat="45.4090573" lon="10.5398138"><ele>133.0</ele><time>2026-04-21T06:33:25.942Z</time></trkpt><trkpt lat="45.4089602" lon="10.5399449"><ele>133.0</ele><time>2026-04-21T06:33:44.95Z</time></trkpt><trkpt lat="45.4088904" lon="10.5400211"><ele>133.0</ele><time>2026-04-21T06:33:45.953Z</time></trkpt><trkpt lat="45.4088308" lon="10.5400777"><ele>133.0</ele><time>2026-04-21T06:33:46.94Z</time></trkpt><trkpt lat="45.40877" lon="10.5399847"><ele>133.0</ele><time>2026-04-21T06:33:50.946Z</time></trkpt><trkpt lat="45.4088229" lon="10.5399306"><ele>133.0</ele><time>2026-04-21T06:34:03.945Z</time></trkpt><trkpt lat="45.4088504" lon="10.5398325"><ele>133.0</ele><time>2026-04-21T06:35:03.946Z</time></trkpt><trkpt lat="45.4089296" lon="10.5398914"><ele>133.0</ele><time>2026-04-21T06:35:49.946Z</time></trkpt><trkpt lat="45.408867" lon="10.5398447"><ele>133.0</ele><time>2026-04-21T06:36:02.953Z</time></trkpt><trkpt lat="45.4089486" lon="10.5397751"><ele>133.0</ele><time>2026-04-21T06:37:46.95Z</time></trkpt><trkpt lat="45.4089315" lon="10.5398633"><ele>133.0</ele><time>2026-04-21T06:40:58.951Z</time></trkpt><trkpt lat="45.4089306" lon="10.5397682"><ele>133.0</ele><time>2026-04-21T06:41:22.95Z</time></trkpt><trkpt lat="45.4089252" lon="10.5398595"><ele>133.0</ele><time>2026-04-21T06:41:52.95Z</time></trkpt><trkpt lat="45.408851" lon="10.5398326"><ele>133.0</ele><time>2026-04-21T06:42:13.945Z</time></trkpt><trkpt lat="45.4089186" lon="10.5398328"><ele>133.0</ele><time>2026-04-21T06:42:51.945Z</time></trkpt><trkpt lat="45.4089831" lon="10.5398179"><ele>133.0</ele><time>2026-04-21T06:43:00.947Z</time></trkpt><trkpt lat="45.4090276" lon="10.5397473"><ele>133.0</ele><time>2026-04-21T06:43:26.943Z</time></trkpt><trkpt lat="45.408966" lon="10.5397856"><ele>133.0</ele><time>2026-04-21T06:43:41.957Z</time></trkpt><trkpt lat="45.4089066" lon="10.5397064"><ele>133.0</ele><time>2026-04-21T06:44:02.946Z</time></trkpt><trkpt lat="45.4088495" lon="10.539653"><ele>133.0</ele><time>2026-04-21T06:44:08.943Z</time></trkpt><trkpt lat="45.4087937" lon="10.5397048"><ele>133.0</ele><time>2026-04-21T06:44:24.944Z</time></trkpt><trkpt lat="45.408861" lon="10.5397395"><ele>133.0</ele><time>2026-04-21T06:44:28.951Z</time></trkpt><trkpt lat="45.408761" lon="10.5397684"><ele>133.0</ele><time>2026-04-21T06:45:04.945Z</time></trkpt><trkpt lat="45.40883" lon="10.5397862"><ele>133.0</ele><time>2026-04-21T06:45:10.95Z</time></trkpt><trkpt lat="45.4087516" lon="10.5398182"><ele>133.0</ele><time>2026-04-21T06:45:40.946Z</time></trkpt><trkpt lat="45.4088313" lon="10.5398616"><ele>133.0</ele><time>2026-04-21T06:45:52.941Z</time></trkpt><trkpt lat="45.4089189" lon="10.5398338"><ele>133.0</ele><time>2026-04-21T06:46:20.946Z</time></trkpt><trkpt lat="45.4090357" lon="10.5398065"><ele>133.0</ele><time>2026-04-21T06:46:22.946Z</time></trkpt><trkpt lat="45.4089596" lon="10.5398007"><ele>133.0</ele><time>2026-04-21T06:46:38.947Z</time></trkpt><trkpt lat="45.4089337" lon="10.5398886"><ele>133.0</ele><time>2026-04-21T06:48:12.943Z</time></trkpt><trkpt lat="45.408928" lon="10.5399789"><ele>133.0</ele><time>2026-04-21T06:48:41.95Z</time></trkpt><trkpt lat="45.4088801" lon="10.539909"><ele>133.0</ele><time>2026-04-21T06:48:53.943Z</time></trkpt><trkpt lat="45.4088457" lon="10.5398028"><ele>133.0</ele><time>2026-04-21T06:49:32.941Z</time></trkpt><trkpt lat="45.4088587" lon="10.5396931"><ele>133.0</ele><time>2026-04-21T06:49:35.952Z</time></trkpt><trkpt lat="45.4089141" lon="10.5397506"><ele>133.0</ele><time>2026-04-21T06:50:05.946Z</time></trkpt><trkpt lat="45.4089654" lon="10.5398119"><ele>133.0</ele><time>2026-04-21T06:50:07.953Z</time></trkpt><trkpt lat="45.4090296" lon="10.5398981"><ele>133.0</ele><time>2026-04-21T06:50:10.955Z</time></trkpt><trkpt lat="45.4091088" lon="10.5399673"><ele>133.0</ele><time>2026-04-21T06:50:19.951Z</time></trkpt><trkpt lat="45.4090611" lon="10.539904"><ele>133.0</ele><time>2026-04-21T06:50:25.95Z</time></trkpt><trkpt lat="45.4090262" lon="10.5399832"><ele>133.0</ele><time>2026-04-21T06:50:46.943Z</time></trkpt><trkpt lat="45.4090055" lon="10.53989"><ele>133.0</ele><time>2026-04-21T06:51:14.948Z</time></trkpt><trkpt lat="45.409001" lon="10.5397989"><ele>133.0</ele><time>2026-04-21T06:51:29.952Z</time></trkpt><trkpt lat="45.4089749" lon="10.5397124"><ele>133.0</ele><time>2026-04-21T06:51:32.948Z</time></trkpt><trkpt lat="45.409016" lon="10.5398101"><ele>133.0</ele><time>2026-04-21T06:52:18.952Z</time></trkpt><trkpt lat="45.4090474" lon="10.5398931"><ele>133.0</ele><time>2026-04-21T06:52:22.95Z</time></trkpt><trkpt lat="45.4090891" lon="10.5400289"><ele>133.0</ele><time>2026-04-21T06:52:51.949Z</time></trkpt><trkpt lat="45.4091565" lon="10.5400622"><ele>133.0</ele><time>2026-04-21T06:52:59.951Z</time></trkpt><trkpt lat="45.4091259" lon="10.5399778"><ele>133.0</ele><time>2026-04-21T06:53:03.943Z</time></trkpt><trkpt lat="45.4090828" lon="10.5399046"><ele>133.0</ele><time>2026-04-21T06:53:10.948Z</time></trkpt><trkpt lat="45.4090483" lon="10.5397486"><ele>133.0</ele><time>2026-04-21T06:53:32.937Z</time></trkpt><trkpt lat="45.4090971" lon="10.5398353"><ele>133.0</ele><time>2026-04-21T06:53:51.949Z</time></trkpt><trkpt lat="45.4090439" lon="10.5398891"><ele>133.0</ele><time>2026-04-21T06:54:05.944Z</time></trkpt><trkpt lat="45.408981" lon="10.539905"><ele>133.0</ele><time>2026-04-21T06:54:45.946Z</time></trkpt><trkpt lat="45.4089316" lon="10.5398293"><ele>133.0</ele><time>2026-04-21T06:54:51.943Z</time></trkpt><trkpt lat="45.4090008" lon="10.5398762"><ele>133.0</ele><time>2026-04-21T06:55:07.946Z</time></trkpt><trkpt lat="45.4089614" lon="10.5399838"><ele>133.0</ele><time>2026-04-21T06:55:46.945Z</time></trkpt><trkpt lat="45.40902" lon="10.5400885"><ele>133.0</ele><time>2026-04-21T06:55:48.943Z</time></trkpt><trkpt lat="45.4090826" lon="10.5401648"><ele>133.0</ele><time>2026-04-21T06:55:53.954Z</time></trkpt><trkpt lat="45.4090614" lon="10.5400742"><ele>133.0</ele><time>2026-04-21T06:55:58.953Z</time></trkpt><trkpt lat="45.4090428" lon="10.5399711"><ele>133.0</ele><time>2026-04-21T06:56:01.95Z</time></trkpt><trkpt lat="45.4089723" lon="10.5399245"><ele>133.0</ele><time>2026-04-21T06:56:35.942Z</time></trkpt><trkpt lat="45.4088862" lon="10.5399236"><ele>133.0</ele><time>2026-04-21T06:56:50.935Z</time></trkpt><trkpt lat="45.4089744" lon="10.5399587"><ele>133.0</ele><time>2026-04-21T06:57:16.945Z</time></trkpt><trkpt lat="45.4089795" lon="10.539842"><ele>133.0</ele><time>2026-04-21T06:57:26.951Z</time></trkpt><trkpt lat="45.4089103" lon="10.5397854"><ele>133.0</ele><time>2026-04-21T06:57:29.949Z</time></trkpt><trkpt lat="45.4089563" lon="10.5398757"><ele>133.0</ele><time>2026-04-21T06:57:57.942Z</time></trkpt><trkpt lat="45.4090452" lon="10.5399425"><ele>133.0</ele><time>2026-04-21T06:58:34.946Z</time></trkpt><trkpt lat="45.4091892" lon="10.5400812"><ele>133.0</ele><time>2026-04-21T06:58:36.949Z</time></trkpt><trkpt lat="45.4091369" lon="10.5400298"><ele>133.0</ele><time>2026-04-21T06:58:43.946Z</time></trkpt><trkpt lat="45.4090646" lon="10.5399562"><ele>133.0</ele><time>2026-04-21T06:58:47.95Z</time></trkpt><trkpt lat="45.4090027" lon="10.5398778"><ele>133.0</ele><time>2026-04-21T06:58:54.953Z</time></trkpt><trkpt lat="45.4089412" lon="10.5398411"><ele>133.0</ele><time>2026-04-21T06:58:56.946Z</time></trkpt><trkpt lat="45.4087477" lon="10.5397105"><ele>131.20000000000002</ele><time>2026-04-21T06:59:12.944Z</time></trkpt><trkpt lat="45.4085791" lon="10.5395787"><ele>129.4</ele><time>2026-04-21T06:59:13.948Z</time></trkpt><trkpt lat="45.4085111" lon="10.5395301"><ele>127.60000000000001</ele><time>2026-04-21T06:59:14.939Z</time></trkpt><trkpt lat="45.4085899" lon="10.5395965"><ele>125.80000000000001</ele><time>2026-04-21T06:59:23.944Z</time></trkpt><trkpt lat="45.4086612" lon="10.5396573"><ele>124.0</ele><time>2026-04-21T06:59:25.949Z</time></trkpt><trkpt lat="45.408705" lon="10.5397476"><ele>124.00000000000001</ele><time>2026-04-21T06:59:43.95Z</time></trkpt><trkpt lat="45.4087726" lon="10.5397954"><ele>124.0</ele><time>2026-04-21T06:59:44.945Z</time></trkpt><trkpt lat="45.4086713" lon="10.5398458"><ele>124.0</ele><time>2026-04-21T06:59:59.954Z</time></trkpt><trkpt lat="45.4086092" lon="10.5398212"><ele>124.0</ele><time>2026-04-21T07:00:08.939Z</time></trkpt><trkpt lat="45.4086762" lon="10.539828"><ele>124.00000000000001</ele><time>2026-04-21T07:00:11.944Z</time></trkpt><trkpt lat="45.4087421" lon="10.5397984"><ele>124.0</ele><time>2026-04-21T07:00:13.954Z</time></trkpt><trkpt lat="45.4088223" lon="10.5397839"><ele>125.50000000000001</ele><time>2026-04-21T07:00:18.943Z</time></trkpt><trkpt lat="45.4089317" lon="10.5398379"><ele>127.0</ele><time>2026-04-21T07:00:26.943Z</time></trkpt><trkpt lat="45.4088787" lon="10.5397673"><ele>128.5</ele><time>2026-04-21T07:00:33.938Z</time></trkpt><trkpt lat="45.4089357" lon="10.539812"><ele>130.0</ele><time>2026-04-21T07:00:46.947Z</time></trkpt><trkpt lat="45.4088737" lon="10.5397721"><ele>131.5</ele><time>2026-04-21T07:01:24.945Z</time></trkpt><trkpt lat="45.4089199" lon="10.5398337"><ele>133.0</ele><time>2026-04-21T07:01:39.945Z</time></trkpt><trkpt lat="45.4089769" lon="10.5398859"><ele>133.0</ele><time>2026-04-21T07:02:06.951Z</time></trkpt><trkpt lat="45.4090456" lon="10.5399406"><ele>133.0</ele><time>2026-04-21T07:02:09.952Z</time></trkpt><trkpt lat="45.4089662" lon="10.5399693"><ele>133.0</ele><time>2026-04-21T07:02:17.952Z</time></trkpt><trkpt lat="45.4088869" lon="10.5398946"><ele>133.0</ele><time>2026-04-21T07:02:19.952Z</time></trkpt><trkpt lat="45.4088064" lon="10.5398279"><ele>133.0</ele><time>2026-04-21T07:02:22.939Z</time></trkpt><trkpt lat="45.4087118" lon="10.5397616"><ele>133.0</ele><time>2026-04-21T07:02:28.941Z</time></trkpt><trkpt lat="45.4086415" lon="10.5397234"><ele>133.0</ele><time>2026-04-21T07:02:31.953Z</time></trkpt><trkpt lat="45.408699" lon="10.5397608"><ele>133.0</ele><time>2026-04-21T07:02:37.951Z</time></trkpt><trkpt lat="45.408783" lon="10.5398123"><ele>133.0</ele><time>2026-04-21T07:02:40.954Z</time></trkpt><trkpt lat="45.4089391" lon="10.5398468"><ele>133.0</ele><time>2026-04-21T07:03:02.946Z</time></trkpt><trkpt lat="45.409037" lon="10.5398544"><ele>133.0</ele><time>2026-04-21T07:04:27.944Z</time></trkpt><trkpt lat="45.4089759" lon="10.5398193"><ele>133.0</ele><time>2026-04-21T07:05:08.944Z</time></trkpt><trkpt lat="45.4090109" lon="10.5399034"><ele>133.0</ele><time>2026-04-21T07:05:15.945Z</time></trkpt><trkpt lat="45.4089517" lon="10.5399385"><ele>133.0</ele><time>2026-04-21T07:05:25.953Z</time></trkpt><trkpt lat="45.4090141" lon="10.5399836"><ele>133.0</ele><time>2026-04-21T07:06:02.95Z</time></trkpt><trkpt lat="45.4089909" lon="10.5400766"><ele>133.0</ele><time>2026-04-21T07:06:17.945Z</time></trkpt><trkpt lat="45.4089247" lon="10.5400268"><ele>133.0</ele><time>2026-04-21T07:08:19.942Z</time></trkpt><trkpt lat="45.4088501" lon="10.540033"><ele>131.20000000000002</ele><time>2026-04-21T07:08:28.942Z</time></trkpt><trkpt lat="45.4087619" lon="10.5399619"><ele>129.4</ele><time>2026-04-21T07:08:31.949Z</time></trkpt><trkpt lat="45.4086901" lon="10.5398794"><ele>127.60000000000001</ele><time>2026-04-21T07:08:38.949Z</time></trkpt><trkpt lat="45.40861" lon="10.5398603"><ele>125.80000000000001</ele><time>2026-04-21T07:08:43.945Z</time></trkpt><trkpt lat="45.4085482" lon="10.5398196"><ele>124.0</ele><time>2026-04-21T07:08:45.954Z</time></trkpt><trkpt lat="45.4086812" lon="10.5398287"><ele>124.00000000000001</ele><time>2026-04-21T07:08:54.953Z</time></trkpt><trkpt lat="45.4087477" lon="10.5398619"><ele>124.0</ele><time>2026-04-21T07:08:55.955Z</time></trkpt><trkpt lat="45.4088098" lon="10.539893"><ele>124.0</ele><time>2026-04-21T07:08:56.952Z</time></trkpt><trkpt lat="45.4089271" lon="10.5399163"><ele>124.0</ele><time>2026-04-21T07:09:09.944Z</time></trkpt><trkpt lat="45.4089278" lon="10.5398123"><ele>124.00000000000001</ele><time>2026-04-21T07:09:39.941Z</time></trkpt><trkpt lat="45.4089825" lon="10.5397676"><ele>124.0</ele><time>2026-04-21T07:09:43.944Z</time></trkpt><trkpt lat="45.4089356" lon="10.5398332"><ele>125.50000000000001</ele><time>2026-04-21T07:10:19.951Z</time></trkpt><trkpt lat="45.4088906" lon="10.5397436"><ele>127.0</ele><time>2026-04-21T07:10:24.948Z</time></trkpt><trkpt lat="45.4089958" lon="10.5398548"><ele>128.5</ele><time>2026-04-21T07:10:56.948Z</time></trkpt><trkpt lat="45.4089543" lon="10.5397823"><ele>130.0</ele><time>2026-04-21T07:11:14.952Z</time></trkpt><trkpt lat="45.4088741" lon="10.5398124"><ele>131.5</ele><time>2026-04-21T07:11:21.937Z</time></trkpt><trkpt lat="45.408961" lon="10.539851"><ele>133.0</ele><time>2026-04-21T07:11:30.95Z</time></trkpt><trkpt lat="45.4088708" lon="10.5398963"><ele>133.0</ele><time>2026-04-21T07:11:37.945Z</time></trkpt><trkpt lat="45.4088313" lon="10.5398179"><ele>133.0</ele><time>2026-04-21T07:11:58.948Z</time></trkpt><trkpt lat="45.4087544" lon="10.5397611"><ele>133.0</ele><time>2026-04-21T07:12:04.952Z</time></trkpt><trkpt lat="45.408682" lon="10.5398471"><ele>133.0</ele><time>2026-04-21T07:12:07.954Z</time></trkpt><trkpt lat="45.4086083" lon="10.5398822"><ele>133.0</ele><time>2026-04-21T07:12:11.942Z</time></trkpt><trkpt lat="45.4085581" lon="10.5399514"><ele>133.0</ele><time>2026-04-21T07:12:17.955Z</time></trkpt><trkpt lat="45.4086367" lon="10.5399888"><ele>133.0</ele><time>2026-04-21T07:12:20.945Z</time></trkpt><trkpt lat="45.4087044" lon="10.5399416"><ele>133.0</ele><time>2026-04-21T07:12:34.943Z</time></trkpt><trkpt lat="45.408779" lon="10.5398933"><ele>133.0</ele><time>2026-04-21T07:12:57.95Z</time></trkpt><trkpt lat="45.4089027" lon="10.5398434"><ele>133.0</ele><time>2026-04-21T07:13:10.945Z</time></trkpt><trkpt lat="45.4089667" lon="10.5398137"><ele>133.0</ele><time>2026-04-21T07:13:15.949Z</time></trkpt><trkpt lat="45.408901" lon="10.5398765"><ele>133.0</ele><time>2026-04-21T07:14:11.943Z</time></trkpt><trkpt lat="45.4089475" lon="10.5399559"><ele>133.0</ele><time>2026-04-21T07:14:17.953Z</time></trkpt><trkpt lat="45.4089384" lon="10.5398293"><ele>133.0</ele><time>2026-04-21T07:14:55.942Z</time></trkpt><trkpt lat="45.409008" lon="10.5398691"><ele>133.0</ele><time>2026-04-21T07:16:03.948Z</time></trkpt><trkpt lat="45.409128" lon="10.5398862"><ele>133.0</ele><time>2026-04-21T07:16:13.946Z</time></trkpt><trkpt lat="45.4090671" lon="10.539765"><ele>133.0</ele><time>2026-04-21T07:16:40.945Z</time></trkpt><trkpt lat="45.4090422" lon="10.5396601"><ele>133.0</ele><time>2026-04-21T07:16:42.95Z</time></trkpt><trkpt lat="45.4090184" lon="10.539576"><ele>133.0</ele><time>2026-04-21T07:16:44.948Z</time></trkpt><trkpt lat="45.4090009" lon="10.5394398"><ele>133.0</ele><time>2026-04-21T07:16:48.946Z</time></trkpt><trkpt lat="45.4089738" lon="10.5393587"><ele>133.0</ele><time>2026-04-21T07:16:57.959Z</time></trkpt><trkpt lat="45.4089972" lon="10.5394482"><ele>133.0</ele><time>2026-04-21T07:17:01.947Z</time></trkpt><trkpt lat="45.4090044" lon="10.5395696"><ele>133.0</ele><time>2026-04-21T07:17:04.949Z</time></trkpt><trkpt lat="45.4090212" lon="10.5396579"><ele>133.0</ele><time>2026-04-21T07:17:06.954Z</time></trkpt><trkpt lat="45.4091053" lon="10.5397424"><ele>133.0</ele><time>2026-04-21T07:17:10.951Z</time></trkpt><trkpt lat="45.4091586" lon="10.5398272"><ele>133.0</ele><time>2026-04-21T07:17:15.951Z</time></trkpt><trkpt lat="45.4090574" lon="10.5398184"><ele>133.0</ele><time>2026-04-21T07:17:39.955Z</time></trkpt><trkpt lat="45.4090173" lon="10.5398988"><ele>133.0</ele><time>2026-04-21T07:18:03.947Z</time></trkpt><trkpt lat="45.4089553" lon="10.5398439"><ele>133.0</ele><time>2026-04-21T07:18:42.942Z</time></trkpt><trkpt lat="45.408924" lon="10.5399231"><ele>133.0</ele><time>2026-04-21T07:19:01.953Z</time></trkpt><trkpt lat="45.4088633" lon="10.5398952"><ele>133.0</ele><time>2026-04-21T07:19:15.94Z</time></trkpt><trkpt lat="45.4087875" lon="10.5398725"><ele>133.0</ele><time>2026-04-21T07:19:40.952Z</time></trkpt><trkpt lat="45.4087278" lon="10.5397895"><ele>133.0</ele><time>2026-04-21T07:20:03.945Z</time></trkpt><trkpt lat="45.4088016" lon="10.5398317"><ele>133.0</ele><time>2026-04-21T07:20:10.944Z</time></trkpt><trkpt lat="45.4088818" lon="10.539876"><ele>133.0</ele><time>2026-04-21T07:20:14.955Z</time></trkpt><trkpt lat="45.4089921" lon="10.5399534"><ele>133.0</ele><time>2026-04-21T07:20:16.957Z</time></trkpt><trkpt lat="45.408946" lon="10.5398837"><ele>133.0</ele><time>2026-04-21T07:20:31.949Z</time></trkpt><trkpt lat="45.4090033" lon="10.5399313"><ele>133.0</ele><time>2026-04-21T07:20:40.955Z</time></trkpt><trkpt lat="45.4090681" lon="10.5400079"><ele>133.0</ele><time>2026-04-21T07:20:43.949Z</time></trkpt><trkpt lat="45.4089984" lon="10.5399796"><ele>133.0</ele><time>2026-04-21T07:20:58.945Z</time></trkpt><trkpt lat="45.4089401" lon="10.539936"><ele>133.0</ele><time>2026-04-21T07:21:01.937Z</time></trkpt><trkpt lat="45.4088835" lon="10.5398945"><ele>133.0</ele><time>2026-04-21T07:21:09.946Z</time></trkpt><trkpt lat="45.4088479" lon="10.5398031"><ele>133.0</ele><time>2026-04-21T07:21:24.942Z</time></trkpt><trkpt lat="45.4087802" lon="10.5397634"><ele>133.0</ele><time>2026-04-21T07:21:52.956Z</time></trkpt><trkpt lat="45.408707" lon="10.5397028"><ele>133.0</ele><time>2026-04-21T07:21:56.943Z</time></trkpt><trkpt lat="45.4087952" lon="10.5398076"><ele>133.0</ele><time>2026-04-21T07:21:58.951Z</time></trkpt><trkpt lat="45.4089528" lon="10.5399934"><ele>133.0</ele><time>2026-04-21T07:22:00.95Z</time></trkpt><trkpt lat="45.4088887" lon="10.5399626"><ele>131.5</ele><time>2026-04-21T07:22:05.943Z</time></trkpt><trkpt lat="45.408819" lon="10.5399347"><ele>130.0</ele><time>2026-04-21T07:22:07.943Z</time></trkpt><trkpt lat="45.4087581" lon="10.5399036"><ele>128.5</ele><time>2026-04-21T07:22:11.94Z</time></trkpt><trkpt lat="45.408691" lon="10.539845"><ele>127.0</ele><time>2026-04-21T07:22:15.942Z</time></trkpt><trkpt lat="45.4086318" lon="10.5397878"><ele>125.50000000000001</ele><time>2026-04-21T07:22:18.945Z</time></trkpt><trkpt lat="45.408546" lon="10.5397383"><ele>124.0</ele><time>2026-04-21T07:22:23.942Z</time></trkpt><trkpt lat="45.4084732" lon="10.5396856"><ele>124.0</ele><time>2026-04-21T07:22:29.941Z</time></trkpt><trkpt lat="45.4084122" lon="10.53964"><ele>124.0</ele><time>2026-04-21T07:22:31.944Z</time></trkpt><trkpt lat="45.4083396" lon="10.5395637"><ele>124.0</ele><time>2026-04-21T07:22:38.948Z</time></trkpt><trkpt lat="45.4084446" lon="10.5396082"><ele>124.0</ele><time>2026-04-21T07:22:45.943Z</time></trkpt><trkpt lat="45.4085407" lon="10.5396498"><ele>124.0</ele><time>2026-04-21T07:22:50.946Z</time></trkpt><trkpt lat="45.4087249" lon="10.5397747"><ele>124.00000000000001</ele><time>2026-04-21T07:22:51.952Z</time></trkpt><trkpt lat="45.408816" lon="10.5398492"><ele>124.0</ele><time>2026-04-21T07:22:53.943Z</time></trkpt><trkpt lat="45.408873" lon="10.5398934"><ele>124.0</ele><time>2026-04-21T07:23:26.942Z</time></trkpt><trkpt lat="45.4089483" lon="10.5399507"><ele>124.0</ele><time>2026-04-21T07:23:43.945Z</time></trkpt><trkpt lat="45.4090092" lon="10.539899"><ele>124.00000000000001</ele><time>2026-04-21T07:24:42.942Z</time></trkpt><trkpt lat="45.4089287" lon="10.5398554"><ele>124.0</ele><time>2026-04-21T07:25:16.951Z</time></trkpt><trkpt lat="45.4090026" lon="10.5398638"><ele>125.50000000000001</ele><time>2026-04-21T07:26:32.946Z</time></trkpt><trkpt lat="45.4089275" lon="10.5398961"><ele>127.0</ele><time>2026-04-21T07:27:12.943Z</time></trkpt><trkpt lat="45.408837" lon="10.539924"><ele>128.5</ele><time>2026-04-21T07:27:17.948Z</time></trkpt><trkpt lat="45.4088848" lon="10.539994"><ele>130.0</ele><time>2026-04-21T07:27:34.945Z</time></trkpt><trkpt lat="45.4088796" lon="10.5398953"><ele>131.5</ele><time>2026-04-21T07:28:19.942Z</time></trkpt><trkpt lat="45.4089939" lon="10.5398886"><ele>133.0</ele><time>2026-04-21T07:31:38.945Z</time></trkpt><trkpt lat="45.4090232" lon="10.5398079"><ele>133.0</ele><time>2026-04-21T07:32:10.948Z</time></trkpt><trkpt lat="45.4090798" lon="10.5398595"><ele>133.0</ele><time>2026-04-21T07:32:49.946Z</time></trkpt><trkpt lat="45.4091123" lon="10.5399399"><ele>133.0</ele><time>2026-04-21T07:33:07.943Z</time></trkpt><trkpt lat="45.4090458" lon="10.5399508"><ele>133.0</ele><time>2026-04-21T07:33:14.941Z</time></trkpt><trkpt lat="45.40899" lon="10.5398917"><ele>133.0</ele><time>2026-04-21T07:33:45.943Z</time></trkpt><trkpt lat="45.4089245" lon="10.5398645"><ele>133.0</ele><time>2026-04-21T07:33:48.942Z</time></trkpt><trkpt lat="45.408847" lon="10.5398334"><ele>133.0</ele><time>2026-04-21T07:33:52.943Z</time></trkpt><trkpt lat="45.4089288" lon="10.5399047"><ele>131.5</ele><time>2026-04-21T07:34:02.944Z</time></trkpt><trkpt lat="45.4088025" lon="10.5398557"><ele>130.0</ele><time>2026-04-21T07:34:06.95Z</time></trkpt><trkpt lat="45.408725" lon="10.5398091"><ele>128.5</ele><time>2026-04-21T07:34:08.95Z</time></trkpt><trkpt lat="45.4086617" lon="10.5397723"><ele>127.0</ele><time>2026-04-21T07:34:15.942Z</time></trkpt><trkpt lat="45.4085996" lon="10.5397392"><ele>125.50000000000001</ele><time>2026-04-21T07:34:16.948Z</time></trkpt><trkpt lat="45.4086724" lon="10.5397267"><ele>124.0</ele><time>2026-04-21T07:34:30.945Z</time></trkpt><trkpt lat="45.4086375" lon="10.539649"><ele>124.00000000000001</ele><time>2026-04-21T07:34:51.953Z</time></trkpt><trkpt lat="45.4086999" lon="10.5396833"><ele>124.0</ele><time>2026-04-21T07:35:04.947Z</time></trkpt><trkpt lat="45.4087739" lon="10.5397345"><ele>124.0</ele><time>2026-04-21T07:35:06.947Z</time></trkpt><trkpt lat="45.4088396" lon="10.5397816"><ele>124.0</ele><time>2026-04-21T07:35:09.947Z</time></trkpt><trkpt lat="45.408915" lon="10.5398173"><ele>124.00000000000001</ele><time>2026-04-21T07:35:13.945Z</time></trkpt><trkpt lat="45.4088433" lon="10.5397976"><ele>124.0</ele><time>2026-04-21T07:35:19.945Z</time></trkpt><trkpt lat="45.4089438" lon="10.5398805"><ele>125.50000000000001</ele><time>2026-04-21T07:35:28.945Z</time></trkpt><trkpt lat="45.4090238" lon="10.5399265"><ele>127.0</ele><time>2026-04-21T07:35:29.944Z</time></trkpt><trkpt lat="45.4090879" lon="10.5399647"><ele>128.5</ele><time>2026-04-21T07:35:30.951Z</time></trkpt><trkpt lat="45.4091341" lon="10.5400262"><ele>130.0</ele><time>2026-04-21T07:35:38.947Z</time></trkpt><trkpt lat="45.4091879" lon="10.5400755"><ele>131.5</ele><time>2026-04-21T07:35:41.955Z</time></trkpt><trkpt lat="45.4091126" lon="10.5399656"><ele>133.0</ele><time>2026-04-21T07:35:54.95Z</time></trkpt><trkpt lat="45.4090197" lon="10.5398611"><ele>133.0</ele><time>2026-04-21T07:35:58.958Z</time></trkpt><trkpt lat="45.4089591" lon="10.5398077"><ele>133.0</ele><time>2026-04-21T07:35:59.942Z</time></trkpt><trkpt lat="45.4088799" lon="10.5398019"><ele>133.0</ele><time>2026-04-21T07:36:04.949Z</time></trkpt><trkpt lat="45.4088057" lon="10.5397586"><ele>133.0</ele><time>2026-04-21T07:36:11.948Z</time></trkpt><trkpt lat="45.4088402" lon="10.5398402"><ele>133.0</ele><time>2026-04-21T07:36:26.944Z</time></trkpt><trkpt lat="45.4089149" lon="10.5398909"><ele>133.0</ele><time>2026-04-21T07:36:33.942Z</time></trkpt><trkpt lat="45.4089838" lon="10.5399004"><ele>133.0</ele><time>2026-04-21T07:36:38.947Z</time></trkpt><trkpt lat="45.4089144" lon="10.5398199"><ele>133.0</ele><time>2026-04-21T07:37:05.946Z</time></trkpt><trkpt lat="45.4088373" lon="10.5397026"><ele>133.0</ele><time>2026-04-21T07:37:22.945Z</time></trkpt><trkpt lat="45.4089202" lon="10.5398666"><ele>133.0</ele><time>2026-04-21T07:37:27.955Z</time></trkpt><trkpt lat="45.4090234" lon="10.5400108"><ele>133.0</ele><time>2026-04-21T07:37:31.941Z</time></trkpt><trkpt lat="45.4089396" lon="10.5399615"><ele>133.0</ele><time>2026-04-21T07:37:42.957Z</time></trkpt><trkpt lat="45.4088626" lon="10.5399353"><ele>133.0</ele><time>2026-04-21T07:37:47.947Z</time></trkpt><trkpt lat="45.4088248" lon="10.5398334"><ele>133.0</ele><time>2026-04-21T07:37:52.952Z</time></trkpt><trkpt lat="45.4088899" lon="10.5399105"><ele>133.0</ele><time>2026-04-21T07:38:08.947Z</time></trkpt><trkpt lat="45.4088544" lon="10.5397898"><ele>133.0</ele><time>2026-04-21T07:38:26.941Z</time></trkpt><trkpt lat="45.4089204" lon="10.5397921"><ele>133.0</ele><time>2026-04-21T07:38:35.947Z</time></trkpt><trkpt lat="45.4090154" lon="10.5397951"><ele>133.0</ele><time>2026-04-21T07:38:49.955Z</time></trkpt><trkpt lat="45.4090669" lon="10.5398645"><ele>133.0</ele><time>2026-04-21T07:38:56.95Z</time></trkpt><trkpt lat="45.4091195" lon="10.5399176"><ele>133.0</ele><time>2026-04-21T07:39:02.953Z</time></trkpt><trkpt lat="45.4092003" lon="10.5399641"><ele>133.0</ele><time>2026-04-21T07:39:07.946Z</time></trkpt><trkpt lat="45.40916" lon="10.5398694"><ele>133.0</ele><time>2026-04-21T07:39:14.947Z</time></trkpt><trkpt lat="45.4090918" lon="10.5398072"><ele>133.0</ele><time>2026-04-21T07:39:19.947Z</time></trkpt><trkpt lat="45.4091462" lon="10.5399084"><ele>133.0</ele><time>2026-04-21T07:39:25.944Z</time></trkpt><trkpt lat="45.4090706" lon="10.5398967"><ele>133.0</ele><time>2026-04-21T07:39:35.953Z</time></trkpt><trkpt lat="45.4090161" lon="10.5397984"><ele>133.0</ele><time>2026-04-21T07:39:38.949Z</time></trkpt><trkpt lat="45.4090447" lon="10.5396982"><ele>133.0</ele><time>2026-04-21T07:39:45.944Z</time></trkpt><trkpt lat="45.4089964" lon="10.5396294"><ele>133.0</ele><time>2026-04-21T07:40:08.943Z</time></trkpt><trkpt lat="45.4089297" lon="10.5396333"><ele>133.0</ele><time>2026-04-21T07:40:15.946Z</time></trkpt><trkpt lat="45.4089368" lon="10.5397409"><ele>133.0</ele><time>2026-04-21T07:40:22.943Z</time></trkpt><trkpt lat="45.4089963" lon="10.5398162"><ele>133.0</ele><time>2026-04-21T07:40:25.941Z</time></trkpt><trkpt lat="45.409018" lon="10.5399049"><ele>133.0</ele><time>2026-04-21T07:40:30.943Z</time></trkpt><trkpt lat="45.4089739" lon="10.539817"><ele>133.0</ele><time>2026-04-21T07:40:48.94Z</time></trkpt><trkpt lat="45.4090349" lon="10.5399296"><ele>133.0</ele><time>2026-04-21T07:40:51.941Z</time></trkpt><trkpt lat="45.4090174" lon="10.54002"><ele>133.0</ele><time>2026-04-21T07:40:54.942Z</time></trkpt><trkpt lat="45.4089921" lon="10.5401069"><ele>133.0</ele><time>2026-04-21T07:41:13.944Z</time></trkpt><trkpt lat="45.4089308" lon="10.5401526"><ele>133.0</ele><time>2026-04-21T07:41:15.942Z</time></trkpt><trkpt lat="45.4089339" lon="10.5400536"><ele>133.0</ele><time>2026-04-21T07:41:22.948Z</time></trkpt><trkpt lat="45.4089925" lon="10.5399787"><ele>133.0</ele><time>2026-04-21T07:41:27.941Z</time></trkpt><trkpt lat="45.4089452" lon="10.5400749"><ele>133.0</ele><time>2026-04-21T07:41:37.941Z</time></trkpt><trkpt lat="45.4089503" lon="10.5401703"><ele>133.0</ele><time>2026-04-21T07:41:39.945Z</time></trkpt><trkpt lat="45.4090065" lon="10.5401234"><ele>133.0</ele><time>2026-04-21T07:41:45.941Z</time></trkpt><trkpt lat="45.4089238" lon="10.5400847"><ele>133.0</ele><time>2026-04-21T07:42:09.942Z</time></trkpt><trkpt lat="45.4088455" lon="10.5400352"><ele>133.0</ele><time>2026-04-21T07:42:11.945Z</time></trkpt><trkpt lat="45.4088003" lon="10.5399602"><ele>133.0</ele><time>2026-04-21T07:42:14.95Z</time></trkpt><trkpt lat="45.4088489" lon="10.5398894"><ele>133.0</ele><time>2026-04-21T07:42:24.942Z</time></trkpt><trkpt lat="45.4089048" lon="10.5398434"><ele>133.0</ele><time>2026-04-21T07:42:34.943Z</time></trkpt><trkpt lat="45.408967" lon="10.5398872"><ele>133.0</ele><time>2026-04-21T07:42:48.943Z</time></trkpt><trkpt lat="45.409032" lon="10.5398786"><ele>133.0</ele><time>2026-04-21T07:42:59.937Z</time></trkpt><trkpt lat="45.4090153" lon="10.5397873"><ele>133.0</ele><time>2026-04-21T07:43:05.941Z</time></trkpt><trkpt lat="45.4089855" lon="10.5397075"><ele>133.0</ele><time>2026-04-21T07:43:10.945Z</time></trkpt><trkpt lat="45.408942" lon="10.5397727"><ele>133.0</ele><time>2026-04-21T07:43:17.943Z</time></trkpt><trkpt lat="45.4089792" lon="10.5398459"><ele>133.0</ele><time>2026-04-21T07:43:34.95Z</time></trkpt><trkpt lat="45.4089075" lon="10.539814"><ele>133.0</ele><time>2026-04-21T07:44:36.946Z</time></trkpt><trkpt lat="45.408847" lon="10.5397882"><ele>133.0</ele><time>2026-04-21T07:44:39.944Z</time></trkpt><trkpt lat="45.4089181" lon="10.5397757"><ele>133.0</ele><time>2026-04-21T07:44:59.946Z</time></trkpt><trkpt lat="45.4089755" lon="10.5398389"><ele>133.0</ele><time>2026-04-21T07:45:21.949Z</time></trkpt><trkpt lat="45.4089497" lon="10.539751"><ele>133.0</ele><time>2026-04-21T07:45:32.939Z</time></trkpt><trkpt lat="45.4090165" lon="10.5397564"><ele>133.0</ele><time>2026-04-21T07:46:00.945Z</time></trkpt><trkpt lat="45.4089203" lon="10.5397296"><ele>133.0</ele><time>2026-04-21T07:46:07.949Z</time></trkpt><trkpt lat="45.4089943" lon="10.5397186"><ele>133.0</ele><time>2026-04-21T07:46:12.938Z</time></trkpt><trkpt lat="45.4090706" lon="10.539757"><ele>133.0</ele><time>2026-04-21T07:46:19.952Z</time></trkpt><trkpt lat="45.4091192" lon="10.5398362"><ele>133.0</ele><time>2026-04-21T07:46:30.942Z</time></trkpt><trkpt lat="45.4090698" lon="10.5399322"><ele>133.0</ele><time>2026-04-21T07:47:11.943Z</time></trkpt><trkpt lat="45.4091874" lon="10.5399333"><ele>133.0</ele><time>2026-04-21T07:47:18.939Z</time></trkpt><trkpt lat="45.4091646" lon="10.5398358"><ele>133.0</ele><time>2026-04-21T07:47:35.942Z</time></trkpt><trkpt lat="45.4090782" lon="10.5398718"><ele>133.0</ele><time>2026-04-21T07:48:29.952Z</time></trkpt><trkpt lat="45.4091373" lon="10.5399085"><ele>133.0</ele><time>2026-04-21T07:48:42.949Z</time></trkpt><trkpt lat="45.4090734" lon="10.5398203"><ele>133.0</ele><time>2026-04-21T07:49:06.948Z</time></trkpt><trkpt lat="45.4090128" lon="10.5397902"><ele>133.0</ele><time>2026-04-21T07:49:12.942Z</time></trkpt><trkpt lat="45.4090236" lon="10.5398958"><ele>133.0</ele><time>2026-04-21T07:49:20.94Z</time></trkpt><trkpt lat="45.4091344" lon="10.5399404"><ele>133.0</ele><time>2026-04-21T07:49:28.939Z</time></trkpt><trkpt lat="45.4091063" lon="10.5398599"><ele>133.0</ele><time>2026-04-21T07:50:12.944Z</time></trkpt><trkpt lat="45.4090316" lon="10.5398074"><ele>133.0</ele><time>2026-04-21T07:51:02.948Z</time></trkpt><trkpt lat="45.4089656" lon="10.5398168"><ele>133.0</ele><time>2026-04-21T07:51:27.943Z</time></trkpt><trkpt lat="45.408904" lon="10.539796"><ele>133.0</ele><time>2026-04-21T07:51:36.941Z</time></trkpt><trkpt lat="45.4088187" lon="10.5398271"><ele>133.0</ele><time>2026-04-21T07:52:04.945Z</time></trkpt><trkpt lat="45.4087568" lon="10.5398044"><ele>133.0</ele><time>2026-04-21T07:52:08.951Z</time></trkpt><trkpt lat="45.4088503" lon="10.5397844"><ele>133.0</ele><time>2026-04-21T07:52:26.941Z</time></trkpt><trkpt lat="45.4088496" lon="10.5398782"><ele>133.0</ele><time>2026-04-21T07:52:29.945Z</time></trkpt><trkpt lat="45.4089133" lon="10.5398433"><ele>133.0</ele><time>2026-04-21T07:53:54.949Z</time></trkpt><trkpt lat="45.4088622" lon="10.5397735"><ele>133.0</ele><time>2026-04-21T07:54:09.949Z</time></trkpt><trkpt lat="45.4089055" lon="10.5398439"><ele>133.0</ele><time>2026-04-21T07:54:29.94Z</time></trkpt><trkpt lat="45.4089673" lon="10.5398967"><ele>133.0</ele><time>2026-04-21T07:55:41.94Z</time></trkpt><trkpt lat="45.409035" lon="10.5399245"><ele>133.0</ele><time>2026-04-21T07:55:53.949Z</time></trkpt><trkpt lat="45.4089638" lon="10.5399324"><ele>133.0</ele><time>2026-04-21T07:56:17.949Z</time></trkpt><trkpt lat="45.4088864" lon="10.5397827"><ele>133.0</ele><time>2026-04-21T07:56:41.943Z</time></trkpt><trkpt lat="45.4089149" lon="10.5397021"><ele>133.0</ele><time>2026-04-21T07:57:01.946Z</time></trkpt><trkpt lat="45.4090489" lon="10.5397832"><ele>133.0</ele><time>2026-04-21T07:57:59.948Z</time></trkpt><trkpt lat="45.408954" lon="10.5397437"><ele>133.0</ele><time>2026-04-21T07:58:41.94Z</time></trkpt><trkpt lat="45.4089982" lon="10.5398107"><ele>133.0</ele><time>2026-04-21T07:59:01.949Z</time></trkpt><trkpt lat="45.408949" lon="10.5397311"><ele>133.0</ele><time>2026-04-21T08:00:12.939Z</time></trkpt><trkpt lat="45.4090159" lon="10.539818"><ele>133.0</ele><time>2026-04-21T08:00:28.942Z</time></trkpt><trkpt lat="45.4089525" lon="10.5398173"><ele>133.0</ele><time>2026-04-21T08:01:27.948Z</time></trkpt><trkpt lat="45.4090209" lon="10.5397473"><ele>133.0</ele><time>2026-04-21T08:02:30.945Z</time></trkpt><trkpt lat="45.4090601" lon="10.5396453"><ele>133.0</ele><time>2026-04-21T08:02:48.945Z</time></trkpt><trkpt lat="45.4091266" lon="10.5395932"><ele>133.0</ele><time>2026-04-21T08:02:56.942Z</time></trkpt><trkpt lat="45.4091378" lon="10.5396971"><ele>133.0</ele><time>2026-04-21T08:03:12.951Z</time></trkpt><trkpt lat="45.4090859" lon="10.5397655"><ele>133.0</ele><time>2026-04-21T08:03:33.939Z</time></trkpt><trkpt lat="45.4090242" lon="10.5398296"><ele>133.0</ele><time>2026-04-21T08:03:39.947Z</time></trkpt><trkpt lat="45.4089604" lon="10.539878"><ele>133.0</ele><time>2026-04-21T08:03:41.94Z</time></trkpt><trkpt lat="45.4089031" lon="10.5399821"><ele>133.0</ele><time>2026-04-21T08:03:51.939Z</time></trkpt><trkpt lat="45.4089508" lon="10.5399235"><ele>133.0</ele><time>2026-04-21T08:03:56.942Z</time></trkpt><trkpt lat="45.4090569" lon="10.5398923"><ele>133.0</ele><time>2026-04-21T08:04:26.95Z</time></trkpt><trkpt lat="45.408996" lon="10.539867"><ele>133.0</ele><time>2026-04-21T08:05:27.941Z</time></trkpt><trkpt lat="45.4089641" lon="10.5397792"><ele>133.0</ele><time>2026-04-21T08:05:34.948Z</time></trkpt><trkpt lat="45.4089149" lon="10.539714"><ele>133.0</ele><time>2026-04-21T08:05:42.948Z</time></trkpt><trkpt lat="45.4088756" lon="10.5397934"><ele>133.0</ele><time>2026-04-21T08:06:22.944Z</time></trkpt><trkpt lat="45.4089238" lon="10.5398771"><ele>133.0</ele><time>2026-04-21T08:06:32.939Z</time></trkpt><trkpt lat="45.4089576" lon="10.5399663"><ele>133.0</ele><time>2026-04-21T08:06:35.939Z</time></trkpt><trkpt lat="45.4089587" lon="10.5398744"><ele>133.0</ele><time>2026-04-21T08:06:45.947Z</time></trkpt><trkpt lat="45.4089937" lon="10.5397849"><ele>133.0</ele><time>2026-04-21T08:07:15.939Z</time></trkpt><trkpt lat="45.4090488" lon="10.5397152"><ele>133.0</ele><time>2026-04-21T08:07:24.941Z</time></trkpt><trkpt lat="45.4089836" lon="10.5397078"><ele>133.0</ele><time>2026-04-21T08:07:43.944Z</time></trkpt><trkpt lat="45.4090553" lon="10.5397094"><ele>133.0</ele><time>2026-04-21T08:08:45.941Z</time></trkpt><trkpt lat="45.4091361" lon="10.5397304"><ele>133.0</ele><time>2026-04-21T08:08:59.94Z</time></trkpt><trkpt lat="45.4090677" lon="10.5397316"><ele>133.0</ele><time>2026-04-21T08:09:35.94Z</time></trkpt><trkpt lat="45.4089914" lon="10.5397082"><ele>133.0</ele><time>2026-04-21T08:11:18.94Z</time></trkpt><trkpt lat="45.4090273" lon="10.5396274"><ele>133.0</ele><time>2026-04-21T08:12:50.949Z</time></trkpt><trkpt lat="45.4089824" lon="10.5397192"><ele>133.0</ele><time>2026-04-21T08:14:31.951Z</time></trkpt><trkpt lat="45.4090391" lon="10.5396583"><ele>133.0</ele><time>2026-04-21T08:14:53.948Z</time></trkpt><trkpt lat="45.4089761" lon="10.5397001"><ele>133.0</ele><time>2026-04-21T08:15:29.94Z</time></trkpt><trkpt lat="45.4088962" lon="10.5397749"><ele>133.0</ele><time>2026-04-21T08:15:56.936Z</time></trkpt><trkpt lat="45.40883" lon="10.5398382"><ele>133.0</ele><time>2026-04-21T08:16:45.939Z</time></trkpt><trkpt lat="45.408889" lon="10.5398008"><ele>133.0</ele><time>2026-04-21T08:17:16.938Z</time></trkpt><trkpt lat="45.4088237" lon="10.5398503"><ele>133.0</ele><time>2026-04-21T08:17:35.027Z</time></trkpt><trkpt lat="45.4088848" lon="10.539823"><ele>133.0</ele><time>2026-04-21T08:17:43.947Z</time></trkpt><trkpt lat="45.4089438" lon="10.5397506"><ele>133.0</ele><time>2026-04-21T08:17:59.948Z</time></trkpt><trkpt lat="45.4090407" lon="10.5396565"><ele>133.0</ele><time>2026-04-21T08:18:23.945Z</time></trkpt><trkpt lat="45.4091378" lon="10.5396728"><ele>133.0</ele><time>2026-04-21T08:18:38.936Z</time></trkpt><trkpt lat="45.4090597" lon="10.5397029"><ele>133.0</ele><time>2026-04-21T08:19:03.938Z</time></trkpt><trkpt lat="45.4090152" lon="10.5397859"><ele>133.0</ele><time>2026-04-21T08:20:02.94Z</time></trkpt><trkpt lat="45.4090688" lon="10.5397263"><ele>133.0</ele><time>2026-04-21T08:21:37.938Z</time></trkpt><trkpt lat="45.4090069" lon="10.5397775"><ele>133.0</ele><time>2026-04-21T08:22:09.941Z</time></trkpt><trkpt lat="45.4089377" lon="10.5398253"><ele>133.0</ele><time>2026-04-21T08:22:21.942Z</time></trkpt><trkpt lat="45.4090011" lon="10.5397555"><ele>133.0</ele><time>2026-04-21T08:23:06.94Z</time></trkpt><trkpt lat="45.409054" lon="10.5396758"><ele>133.0</ele><time>2026-04-21T08:23:10.945Z</time></trkpt><trkpt lat="45.4091236" lon="10.5396094"><ele>133.0</ele><time>2026-04-21T08:23:16.945Z</time></trkpt><trkpt lat="45.4090613" lon="10.5396225"><ele>133.0</ele><time>2026-04-21T08:23:29.941Z</time></trkpt><trkpt lat="45.4090075" lon="10.5396722"><ele>133.0</ele><time>2026-04-21T08:23:34.948Z</time></trkpt><trkpt lat="45.4089759" lon="10.53975"><ele>133.0</ele><time>2026-04-21T08:24:01.947Z</time></trkpt><trkpt lat="45.4089302" lon="10.5398895"><ele>133.0</ele><time>2026-04-21T08:25:09.936Z</time></trkpt><trkpt lat="45.4090013" lon="10.5398629"><ele>133.0</ele><time>2026-04-21T08:26:08.951Z</time></trkpt><trkpt lat="45.4089655" lon="10.5397749"><ele>133.0</ele><time>2026-04-21T08:26:19.939Z</time></trkpt><trkpt lat="45.4088854" lon="10.5397737"><ele>133.0</ele><time>2026-04-21T08:26:28.93Z</time></trkpt><trkpt lat="45.408943" lon="10.5398229"><ele>133.0</ele><time>2026-04-21T08:26:32.941Z</time></trkpt><trkpt lat="45.408982" lon="10.5398952"><ele>133.0</ele><time>2026-04-21T08:26:36.94Z</time></trkpt><trkpt lat="45.4090773" lon="10.5400224"><ele>133.0</ele><time>2026-04-21T08:26:41.947Z</time></trkpt><trkpt lat="45.4090079" lon="10.5400018"><ele>133.0</ele><time>2026-04-21T08:26:49.941Z</time></trkpt><trkpt lat="45.4089653" lon="10.5399328"><ele>133.0</ele><time>2026-04-21T08:26:51.942Z</time></trkpt><trkpt lat="45.4089455" lon="10.5398455"><ele>133.0</ele><time>2026-04-21T08:26:54.945Z</time></trkpt><trkpt lat="45.4088902" lon="10.5398003"><ele>133.0</ele><time>2026-04-21T08:27:24.942Z</time></trkpt><trkpt lat="45.4088619" lon="10.5398856"><ele>133.0</ele><time>2026-04-21T08:27:54.936Z</time></trkpt><trkpt lat="45.4089565" lon="10.5399222"><ele>133.0</ele><time>2026-04-21T08:30:59.939Z</time></trkpt><trkpt lat="45.4089791" lon="10.5398237"><ele>133.0</ele><time>2026-04-21T08:31:24.939Z</time></trkpt><trkpt lat="45.4090429" lon="10.5398443"><ele>133.0</ele><time>2026-04-21T08:31:33.938Z</time></trkpt><trkpt lat="45.4090007" lon="10.5399522"><ele>133.0</ele><time>2026-04-21T08:31:49.936Z</time></trkpt><trkpt lat="45.4090091" lon="10.5398122"><ele>133.0</ele><time>2026-04-21T08:31:58.936Z</time></trkpt><trkpt lat="45.4089622" lon="10.5398867"><ele>133.0</ele><time>2026-04-21T08:33:14.944Z</time></trkpt><trkpt lat="45.4088896" lon="10.5398949"><ele>133.0</ele><time>2026-04-21T08:35:32.944Z</time></trkpt><trkpt lat="45.4089506" lon="10.5398578"><ele>133.0</ele><time>2026-04-21T08:35:56.937Z</time></trkpt><trkpt lat="45.4089429" lon="10.5397612"><ele>133.0</ele><time>2026-04-21T08:36:11.955Z</time></trkpt><trkpt lat="45.4089098" lon="10.5398544"><ele>133.0</ele><time>2026-04-21T08:37:13.949Z</time></trkpt><trkpt lat="45.4088592" lon="10.5399169"><ele>133.0</ele><time>2026-04-21T08:37:24.946Z</time></trkpt><trkpt lat="45.4089328" lon="10.5398845"><ele>133.0</ele><time>2026-04-21T08:38:15.944Z</time></trkpt><trkpt lat="45.4089303" lon="10.5397571"><ele>133.0</ele><time>2026-04-21T08:41:02.939Z</time></trkpt><trkpt lat="45.4088899" lon="10.5398357"><ele>133.0</ele><time>2026-04-21T08:41:14.944Z</time></trkpt><trkpt lat="45.4088656" lon="10.5399352"><ele>133.0</ele><time>2026-04-21T08:42:40.94Z</time></trkpt><trkpt lat="45.4089135" lon="10.5398396"><ele>133.0</ele><time>2026-04-21T08:42:54.945Z</time></trkpt><trkpt lat="45.408909" lon="10.5397018"><ele>133.0</ele><time>2026-04-21T08:46:22.941Z</time></trkpt><trkpt lat="45.4088949" lon="10.5397982"><ele>133.0</ele><time>2026-04-21T08:47:10.941Z</time></trkpt><trkpt lat="45.4088601" lon="10.5397132"><ele>133.0</ele><time>2026-04-21T08:48:43.947Z</time></trkpt><trkpt lat="45.4089255" lon="10.5397296"><ele>133.0</ele><time>2026-04-21T08:49:35.936Z</time></trkpt><trkpt lat="45.4089429" lon="10.5398158"><ele>133.0</ele><time>2026-04-21T08:50:09.94Z</time></trkpt><trkpt lat="45.4089988" lon="10.5397303"><ele>133.0</ele><time>2026-04-21T08:53:21.941Z</time></trkpt><trkpt lat="45.4090183" lon="10.5396343"><ele>133.0</ele><time>2026-04-21T08:53:25.942Z</time></trkpt><trkpt lat="45.4089961" lon="10.5397209"><ele>133.0</ele><time>2026-04-21T08:53:49.938Z</time></trkpt><trkpt lat="45.4090133" lon="10.539815"><ele>133.0</ele><time>2026-04-21T08:54:21.939Z</time></trkpt><trkpt lat="45.4089626" lon="10.5398789"><ele>133.0</ele><time>2026-04-21T08:54:31.939Z</time></trkpt><trkpt lat="45.4088975" lon="10.5398308"><ele>133.0</ele><time>2026-04-21T08:54:46.942Z</time></trkpt><trkpt lat="45.4089723" lon="10.5398513"><ele>133.0</ele><time>2026-04-21T08:55:46.944Z</time></trkpt><trkpt lat="45.4089769" lon="10.5397241"><ele>133.0</ele><time>2026-04-21T08:56:32.94Z</time></trkpt><trkpt lat="45.4089695" lon="10.5398156"><ele>133.0</ele><time>2026-04-21T08:56:53.945Z</time></trkpt><trkpt lat="45.4089196" lon="10.539871"><ele>133.0</ele><time>2026-04-21T08:57:02.939Z</time></trkpt><trkpt lat="45.4088592" lon="10.5398432"><ele>133.0</ele><time>2026-04-21T08:57:10.939Z</time></trkpt><trkpt lat="45.4089217" lon="10.5398253"><ele>133.0</ele><time>2026-04-21T08:57:18.935Z</time></trkpt><trkpt lat="45.4088666" lon="10.5398882"><ele>133.0</ele><time>2026-04-21T08:57:36.939Z</time></trkpt><trkpt lat="45.4089325" lon="10.5398743"><ele>133.0</ele><time>2026-04-21T08:57:56.939Z</time></trkpt><trkpt lat="45.4090198" lon="10.5398793"><ele>133.0</ele><time>2026-04-21T08:58:27.948Z</time></trkpt><trkpt lat="45.4089973" lon="10.5399675"><ele>133.0</ele><time>2026-04-21T08:58:41.94Z</time></trkpt><trkpt lat="45.4090195" lon="10.5398564"><ele>133.0</ele><time>2026-04-21T08:58:59.948Z</time></trkpt><trkpt lat="45.4090915" lon="10.5397302"><ele>133.0</ele><time>2026-04-21T08:59:48.946Z</time></trkpt><trkpt lat="45.4091901" lon="10.5395994"><ele>133.0</ele><time>2026-04-21T08:59:50.945Z</time></trkpt><trkpt lat="45.4091262" lon="10.5396591"><ele>133.0</ele><time>2026-04-21T09:00:02.94Z</time></trkpt><trkpt lat="45.4090236" lon="10.539723"><ele>133.0</ele><time>2026-04-21T09:00:16.943Z</time></trkpt><trkpt lat="45.4089322" lon="10.5397828"><ele>133.0</ele><time>2026-04-21T09:00:28.938Z</time></trkpt><trkpt lat="45.408901" lon="10.5396844"><ele>133.0</ele><time>2026-04-21T09:00:33.941Z</time></trkpt><trkpt lat="45.4089311" lon="10.5398485"><ele>133.0</ele><time>2026-04-21T09:01:33.938Z</time></trkpt><trkpt lat="45.4089941" lon="10.539857"><ele>133.0</ele><time>2026-04-21T09:02:04.936Z</time></trkpt><trkpt lat="45.4090803" lon="10.5398028"><ele>133.0</ele><time>2026-04-21T09:02:12.936Z</time></trkpt><trkpt lat="45.4090181" lon="10.539766"><ele>133.0</ele><time>2026-04-21T09:02:35.941Z</time></trkpt><trkpt lat="45.4089541" lon="10.5397671"><ele>133.0</ele><time>2026-04-21T09:02:45.937Z</time></trkpt><trkpt lat="45.4088903" lon="10.5397562"><ele>133.0</ele><time>2026-04-21T09:03:49.937Z</time></trkpt><trkpt lat="45.408966" lon="10.5396735"><ele>133.0</ele><time>2026-04-21T09:03:58.935Z</time></trkpt><trkpt lat="45.4090701" lon="10.53963"><ele>133.0</ele><time>2026-04-21T09:04:06.936Z</time></trkpt><trkpt lat="45.4090624" lon="10.5397204"><ele>133.0</ele><time>2026-04-21T09:04:11.945Z</time></trkpt><trkpt lat="45.4090209" lon="10.5397954"><ele>133.0</ele><time>2026-04-21T09:04:22.936Z</time></trkpt><trkpt lat="45.4089807" lon="10.5398673"><ele>133.0</ele><time>2026-04-21T09:04:27.948Z</time></trkpt><trkpt lat="45.4089455" lon="10.539942"><ele>133.0</ele><time>2026-04-21T09:05:12.938Z</time></trkpt><trkpt lat="45.4090125" lon="10.5399462"><ele>133.0</ele><time>2026-04-21T09:05:56.942Z</time></trkpt><trkpt lat="45.4090486" lon="10.5398181"><ele>133.0</ele><time>2026-04-21T09:06:11.942Z</time></trkpt><trkpt lat="45.4090328" lon="10.5397267"><ele>133.0</ele><time>2026-04-21T09:06:21.947Z</time></trkpt><trkpt lat="45.4089805" lon="10.5398037"><ele>133.0</ele><time>2026-04-21T09:06:38.946Z</time></trkpt><trkpt lat="45.4088697" lon="10.5397782"><ele>133.0</ele><time>2026-04-21T09:07:36.947Z</time></trkpt><trkpt lat="45.4089337" lon="10.5398209"><ele>133.0</ele><time>2026-04-21T09:07:57.94Z</time></trkpt><trkpt lat="45.4088632" lon="10.5398388"><ele>133.0</ele><time>2026-04-21T09:08:58.935Z</time></trkpt><trkpt lat="45.4089054" lon="10.5399082"><ele>133.0</ele><time>2026-04-21T09:10:29.937Z</time></trkpt><trkpt lat="45.4090037" lon="10.5398238"><ele>133.0</ele><time>2026-04-21T09:11:49.939Z</time></trkpt><trkpt lat="45.4089964" lon="10.5397245"><ele>133.0</ele><time>2026-04-21T09:12:05.947Z</time></trkpt><trkpt lat="45.4089667" lon="10.5398155"><ele>133.0</ele><time>2026-04-21T09:12:50.943Z</time></trkpt><trkpt lat="45.4089142" lon="10.5398674"><ele>133.0</ele><time>2026-04-21T09:12:55.936Z</time></trkpt><trkpt lat="45.4089721" lon="10.5398223"><ele>133.0</ele><time>2026-04-21T09:13:08.946Z</time></trkpt><trkpt lat="45.4089104" lon="10.539773"><ele>133.0</ele><time>2026-04-21T09:13:37.94Z</time></trkpt><trkpt lat="45.4089329" lon="10.5396796"><ele>133.0</ele><time>2026-04-21T09:13:44.939Z</time></trkpt><trkpt lat="45.4088406" lon="10.5397296"><ele>133.0</ele><time>2026-04-21T09:13:47.951Z</time></trkpt><trkpt lat="45.4087824" lon="10.5397678"><ele>133.0</ele><time>2026-04-21T09:13:48.944Z</time></trkpt><trkpt lat="45.4088833" lon="10.5398388"><ele>133.0</ele><time>2026-04-21T09:14:13.941Z</time></trkpt><trkpt lat="45.4089364" lon="10.539788"><ele>133.0</ele><time>2026-04-21T09:14:32.938Z</time></trkpt><trkpt lat="45.4089457" lon="10.5396636"><ele>133.0</ele><time>2026-04-21T09:14:37.944Z</time></trkpt><trkpt lat="45.4088836" lon="10.5396455"><ele>133.0</ele><time>2026-04-21T09:14:48.938Z</time></trkpt><trkpt lat="45.4088197" lon="10.5396195"><ele>133.0</ele><time>2026-04-21T09:14:55.941Z</time></trkpt><trkpt lat="45.4088085" lon="10.5397577"><ele>133.0</ele><time>2026-04-21T09:15:11.954Z</time></trkpt><trkpt lat="45.408844" lon="10.539854"><ele>133.0</ele><time>2026-04-21T09:15:13.94Z</time></trkpt><trkpt lat="45.408913" lon="10.5398635"><ele>133.0</ele><time>2026-04-21T09:15:57.946Z</time></trkpt><trkpt lat="45.4089761" lon="10.5397886"><ele>133.0</ele><time>2026-04-21T09:16:01.947Z</time></trkpt><trkpt lat="45.4090132" lon="10.5396896"><ele>133.0</ele><time>2026-04-21T09:16:04.938Z</time></trkpt><trkpt lat="45.4089547" lon="10.5396262"><ele>133.0</ele><time>2026-04-21T09:16:08.945Z</time></trkpt><trkpt lat="45.4088873" lon="10.5395141"><ele>133.0</ele><time>2026-04-21T09:16:15.946Z</time></trkpt><trkpt lat="45.4088668" lon="10.5396042"><ele>133.0</ele><time>2026-04-21T09:16:34.938Z</time></trkpt><trkpt lat="45.4088804" lon="10.5396997"><ele>133.0</ele><time>2026-04-21T09:16:41.945Z</time></trkpt><trkpt lat="45.4089145" lon="10.539776"><ele>133.0</ele><time>2026-04-21T09:16:50.935Z</time></trkpt><trkpt lat="45.4089864" lon="10.5398229"><ele>133.0</ele><time>2026-04-21T09:17:50.941Z</time></trkpt><trkpt lat="45.4089516" lon="10.5397368"><ele>133.0</ele><time>2026-04-21T09:17:58.935Z</time></trkpt><trkpt lat="45.408952" lon="10.5398283"><ele>133.0</ele><time>2026-04-21T09:18:05.939Z</time></trkpt><trkpt lat="45.4090408" lon="10.5398784"><ele>133.0</ele><time>2026-04-21T09:18:34.945Z</time></trkpt><trkpt lat="45.4091338" lon="10.5397781"><ele>133.0</ele><time>2026-04-21T09:18:56.946Z</time></trkpt><trkpt lat="45.409066" lon="10.5397905"><ele>133.0</ele><time>2026-04-21T09:19:07.944Z</time></trkpt><trkpt lat="45.4089563" lon="10.5397931"><ele>133.0</ele><time>2026-04-21T09:20:16.936Z</time></trkpt><trkpt lat="45.409002" lon="10.5397177"><ele>133.0</ele><time>2026-04-21T09:20:37.946Z</time></trkpt><trkpt lat="45.4089338" lon="10.5396878"><ele>133.0</ele><time>2026-04-21T09:20:51.945Z</time></trkpt><trkpt lat="45.4088345" lon="10.5398082"><ele>133.0</ele><time>2026-04-21T09:21:02.947Z</time></trkpt><trkpt lat="45.4089151" lon="10.5398574"><ele>133.0</ele><time>2026-04-21T09:21:37.938Z</time></trkpt><trkpt lat="45.4089351" lon="10.5397649"><ele>133.0</ele><time>2026-04-21T09:21:55.947Z</time></trkpt><trkpt lat="45.4090184" lon="10.5396736"><ele>133.0</ele><time>2026-04-21T09:22:14.946Z</time></trkpt><trkpt lat="45.4089746" lon="10.5397539"><ele>133.0</ele><time>2026-04-21T09:22:17.94Z</time></trkpt><trkpt lat="45.4089065" lon="10.5398241"><ele>133.0</ele><time>2026-04-21T09:22:20.943Z</time></trkpt><trkpt lat="45.4088596" lon="10.5399135"><ele>131.20000000000002</ele><time>2026-04-21T09:22:26.937Z</time></trkpt><trkpt lat="45.4088256" lon="10.5400136"><ele>129.4</ele><time>2026-04-21T09:22:38.946Z</time></trkpt><trkpt lat="45.408733" lon="10.5400951"><ele>127.60000000000001</ele><time>2026-04-21T09:22:48.946Z</time></trkpt><trkpt lat="45.4087215" lon="10.5399838"><ele>125.80000000000001</ele><time>2026-04-21T09:22:53.946Z</time></trkpt><trkpt lat="45.4087351" lon="10.5398522"><ele>124.0</ele><time>2026-04-21T09:22:55.944Z</time></trkpt><trkpt lat="45.4086902" lon="10.539965"><ele>124.0</ele><time>2026-04-21T09:22:59.936Z</time></trkpt><trkpt lat="45.4086941" lon="10.5400732"><ele>124.0</ele><time>2026-04-21T09:23:08.946Z</time></trkpt><trkpt lat="45.4087117" lon="10.5401824"><ele>124.0</ele><time>2026-04-21T09:23:11.938Z</time></trkpt><trkpt lat="45.4088405" lon="10.5400137"><ele>124.0</ele><time>2026-04-21T09:23:14.937Z</time></trkpt><trkpt lat="45.4089307" lon="10.539878"><ele>125.80000000000001</ele><time>2026-04-21T09:23:15.935Z</time></trkpt><trkpt lat="45.4089981" lon="10.5398196"><ele>127.60000000000001</ele><time>2026-04-21T09:23:17.945Z</time></trkpt><trkpt lat="45.4090844" lon="10.5397154"><ele>129.4</ele><time>2026-04-21T09:23:19.943Z</time></trkpt><trkpt lat="45.4090267" lon="10.5398266"><ele>131.20000000000002</ele><time>2026-04-21T09:23:25.944Z</time></trkpt><trkpt lat="45.4089582" lon="10.539961"><ele>133.0</ele><time>2026-04-21T09:23:26.943Z</time></trkpt><trkpt lat="45.4089376" lon="10.5400464"><ele>133.0</ele><time>2026-04-21T09:23:34.935Z</time></trkpt><trkpt lat="45.4091442" lon="10.5398295"><ele>133.0</ele><time>2026-04-21T09:23:54.94Z</time></trkpt><trkpt lat="45.4092047" lon="10.5397138"><ele>133.0</ele><time>2026-04-21T09:23:55.948Z</time></trkpt><trkpt lat="45.4092434" lon="10.5396051"><ele>133.0</ele><time>2026-04-21T09:23:58.934Z</time></trkpt><trkpt lat="45.4091984" lon="10.5396882"><ele>133.0</ele><time>2026-04-21T09:24:10.942Z</time></trkpt><trkpt lat="45.4091327" lon="10.5397465"><ele>133.0</ele><time>2026-04-21T09:24:13.936Z</time></trkpt><trkpt lat="45.4090421" lon="10.5398283"><ele>133.0</ele><time>2026-04-21T09:24:17.939Z</time></trkpt><trkpt lat="45.4089809" lon="10.5398672"><ele>133.0</ele><time>2026-04-21T09:24:18.941Z</time></trkpt><trkpt lat="45.4089096" lon="10.5399018"><ele>133.0</ele><time>2026-04-21T09:24:26.936Z</time></trkpt><trkpt lat="45.4090256" lon="10.5398382"><ele>133.0</ele><time>2026-04-21T09:25:45.945Z</time></trkpt><trkpt lat="45.4090013" lon="10.5399272"><ele>133.0</ele><time>2026-04-21T09:26:52.942Z</time></trkpt><trkpt lat="45.4089444" lon="10.540034"><ele>133.0</ele><time>2026-04-21T09:27:02.935Z</time></trkpt><trkpt lat="45.4089066" lon="10.5399503"><ele>133.0</ele><time>2026-04-21T09:27:08.937Z</time></trkpt><trkpt lat="45.4089113" lon="10.5398539"><ele>133.0</ele><time>2026-04-21T09:27:14.941Z</time></trkpt><trkpt lat="45.4089987" lon="10.5398544"><ele>133.0</ele><time>2026-04-21T09:29:22.946Z</time></trkpt><trkpt lat="45.4089441" lon="10.5399003"><ele>133.0</ele><time>2026-04-21T09:30:52.943Z</time></trkpt><trkpt lat="45.408977" lon="10.5398177"><ele>133.0</ele><time>2026-04-21T09:31:30.936Z</time></trkpt><trkpt lat="45.4089117" lon="10.5397607"><ele>133.0</ele><time>2026-04-21T09:31:53.94Z</time></trkpt><trkpt lat="45.4089063" lon="10.5398535"><ele>133.0</ele><time>2026-04-21T09:33:21.936Z</time></trkpt><trkpt lat="45.4089483" lon="10.5397825"><ele>133.0</ele><time>2026-04-21T09:33:38.941Z</time></trkpt><trkpt lat="45.4090084" lon="10.5398124"><ele>133.0</ele><time>2026-04-21T09:33:47.939Z</time></trkpt><trkpt lat="45.4090104" lon="10.5399023"><ele>133.0</ele><time>2026-04-21T09:33:58.946Z</time></trkpt><trkpt lat="45.408947" lon="10.539907"><ele>133.0</ele><time>2026-04-21T09:34:05.935Z</time></trkpt><trkpt lat="45.4089719" lon="10.5398245"><ele>133.0</ele><time>2026-04-21T09:34:18.94Z</time></trkpt><trkpt lat="45.4089902" lon="10.5397116"><ele>133.0</ele><time>2026-04-21T09:34:33.943Z</time></trkpt><trkpt lat="45.4089271" lon="10.5397028"><ele>133.0</ele><time>2026-04-21T09:34:56.946Z</time></trkpt><trkpt lat="45.4089302" lon="10.5398039"><ele>133.0</ele><time>2026-04-21T09:35:04.943Z</time></trkpt><trkpt lat="45.4089887" lon="10.5397516"><ele>133.0</ele><time>2026-04-21T09:35:32.934Z</time></trkpt><trkpt lat="45.4090694" lon="10.5397351"><ele>133.0</ele><time>2026-04-21T09:35:53.944Z</time></trkpt><trkpt lat="45.4090299" lon="10.5398172"><ele>133.0</ele><time>2026-04-21T09:35:57.939Z</time></trkpt><trkpt lat="45.4089671" lon="10.5398767"><ele>133.0</ele><time>2026-04-21T09:36:08.94Z</time></trkpt><trkpt lat="45.4089932" lon="10.5397805"><ele>133.0</ele><time>2026-04-21T09:36:17.942Z</time></trkpt><trkpt lat="45.4088989" lon="10.5398098"><ele>133.0</ele><time>2026-04-21T09:36:37.944Z</time></trkpt><trkpt lat="45.408916" lon="10.5397208"><ele>133.0</ele><time>2026-04-21T09:37:00.945Z</time></trkpt><trkpt lat="45.4088964" lon="10.5398674"><ele>133.0</ele><time>2026-04-21T09:37:59.937Z</time></trkpt><trkpt lat="45.4089183" lon="10.5397811"><ele>133.0</ele><time>2026-04-21T09:38:19.95Z</time></trkpt><trkpt lat="45.4089701" lon="10.5397218"><ele>133.0</ele><time>2026-04-21T09:38:27.946Z</time></trkpt><trkpt lat="45.4089262" lon="10.5397937"><ele>133.0</ele><time>2026-04-21T09:38:41.938Z</time></trkpt><trkpt lat="45.4088561" lon="10.5399226"><ele>133.0</ele><time>2026-04-21T09:38:47.946Z</time></trkpt><trkpt lat="45.4087923" lon="10.5399885"><ele>133.0</ele><time>2026-04-21T09:38:53.947Z</time></trkpt><trkpt lat="45.4088679" lon="10.5399477"><ele>133.0</ele><time>2026-04-21T09:39:01.937Z</time></trkpt><trkpt lat="45.4089523" lon="10.5398652"><ele>133.0</ele><time>2026-04-21T09:39:06.937Z</time></trkpt><trkpt lat="45.4090115" lon="10.5397358"><ele>133.0</ele><time>2026-04-21T09:39:19.95Z</time></trkpt><trkpt lat="45.4090782" lon="10.5396681"><ele>133.0</ele><time>2026-04-21T09:39:22.936Z</time></trkpt><trkpt lat="45.4091397" lon="10.5396445"><ele>133.0</ele><time>2026-04-21T09:40:36.937Z</time></trkpt><trkpt lat="45.4090749" lon="10.539678"><ele>133.0</ele><time>2026-04-21T09:40:41.944Z</time></trkpt><trkpt lat="45.4090002" lon="10.5397293"><ele>133.0</ele><time>2026-04-21T09:40:46.945Z</time></trkpt><trkpt lat="45.4089173" lon="10.5397763"><ele>133.0</ele><time>2026-04-21T09:40:51.935Z</time></trkpt><trkpt lat="45.4089891" lon="10.5397807"><ele>133.0</ele><time>2026-04-21T09:41:12.945Z</time></trkpt><trkpt lat="45.4089187" lon="10.5397984"><ele>133.0</ele><time>2026-04-21T09:41:37.948Z</time></trkpt><trkpt lat="45.4088496" lon="10.5397485"><ele>133.0</ele><time>2026-04-21T09:41:48.935Z</time></trkpt><trkpt lat="45.4087804" lon="10.5397522"><ele>133.0</ele><time>2026-04-21T09:41:55.945Z</time></trkpt><trkpt lat="45.4086711" lon="10.5397838"><ele>133.0</ele><time>2026-04-21T09:41:57.934Z</time></trkpt><trkpt lat="45.4087472" lon="10.5397464"><ele>133.0</ele><time>2026-04-21T09:42:10.935Z</time></trkpt><trkpt lat="45.4088135" lon="10.5396911"><ele>133.0</ele><time>2026-04-21T09:42:14.942Z</time></trkpt><trkpt lat="45.4086953" lon="10.5397191"><ele>133.0</ele><time>2026-04-21T09:42:17.935Z</time></trkpt><trkpt lat="45.4087756" lon="10.5396889"><ele>133.0</ele><time>2026-04-21T09:42:24.937Z</time></trkpt><trkpt lat="45.4088535" lon="10.539694"><ele>133.0</ele><time>2026-04-21T09:42:39.942Z</time></trkpt><trkpt lat="45.4087993" lon="10.5397403"><ele>133.0</ele><time>2026-04-21T09:42:44.939Z</time></trkpt><trkpt lat="45.4087262" lon="10.5397596"><ele>133.0</ele><time>2026-04-21T09:42:47.942Z</time></trkpt><trkpt lat="45.4088812" lon="10.5397158"><ele>133.0</ele><time>2026-04-21T09:43:28.938Z</time></trkpt><trkpt lat="45.4088153" lon="10.5397309"><ele>133.0</ele><time>2026-04-21T09:43:42.935Z</time></trkpt><trkpt lat="45.4087385" lon="10.5398217"><ele>133.0</ele><time>2026-04-21T09:43:46.943Z</time></trkpt><trkpt lat="45.4086891" lon="10.539886"><ele>133.0</ele><time>2026-04-21T09:43:49.937Z</time></trkpt><trkpt lat="45.4086033" lon="10.5399782"><ele>133.0</ele><time>2026-04-21T09:43:51.936Z</time></trkpt><trkpt lat="45.4085401" lon="10.5400262"><ele>133.0</ele><time>2026-04-21T09:43:53.942Z</time></trkpt><trkpt lat="45.4086001" lon="10.5398819"><ele>133.0</ele><time>2026-04-21T09:43:56.938Z</time></trkpt><trkpt lat="45.4087026" lon="10.5397877"><ele>133.0</ele><time>2026-04-21T09:44:00.932Z</time></trkpt><trkpt lat="45.4087647" lon="10.5397384"><ele>133.0</ele><time>2026-04-21T09:44:02.945Z</time></trkpt><trkpt lat="45.40882" lon="10.5397855"><ele>133.0</ele><time>2026-04-21T09:44:11.945Z</time></trkpt><trkpt lat="45.4088768" lon="10.539693"><ele>133.0</ele><time>2026-04-21T09:44:26.944Z</time></trkpt><trkpt lat="45.4089544" lon="10.5396288"><ele>133.0</ele><time>2026-04-21T09:44:31.935Z</time></trkpt><trkpt lat="45.4088787" lon="10.5397253"><ele>133.0</ele><time>2026-04-21T09:44:37.945Z</time></trkpt><trkpt lat="45.4089471" lon="10.539716"><ele>133.0</ele><time>2026-04-21T09:44:43.944Z</time></trkpt><trkpt lat="45.4090266" lon="10.5397347"><ele>133.0</ele><time>2026-04-21T09:47:06.936Z</time></trkpt><trkpt lat="45.408993" lon="10.5398111"><ele>133.0</ele><time>2026-04-21T09:47:25.951Z</time></trkpt><trkpt lat="45.4089714" lon="10.5399438"><ele>133.0</ele><time>2026-04-21T09:49:42.938Z</time></trkpt><trkpt lat="45.4090478" lon="10.5398014"><ele>133.0</ele><time>2026-04-21T09:51:20.943Z</time></trkpt><trkpt lat="45.4089792" lon="10.5398316"><ele>133.0</ele><time>2026-04-21T09:51:28.939Z</time></trkpt><trkpt lat="45.4089432" lon="10.5399139"><ele>133.0</ele><time>2026-04-21T09:51:29.942Z</time></trkpt><trkpt lat="45.4088971" lon="10.5399852"><ele>133.0</ele><time>2026-04-21T09:51:32.94Z</time></trkpt><trkpt lat="45.4089613" lon="10.5399674"><ele>133.0</ele><time>2026-04-21T09:51:35.937Z</time></trkpt><trkpt lat="45.4090005" lon="10.5398788"><ele>133.0</ele><time>2026-04-21T09:51:40.945Z</time></trkpt><trkpt lat="45.4090327" lon="10.5398005"><ele>133.0</ele><time>2026-04-21T09:51:58.936Z</time></trkpt><trkpt lat="45.4089757" lon="10.5397477"><ele>133.0</ele><time>2026-04-21T09:52:12.947Z</time></trkpt><trkpt lat="45.40891" lon="10.5397862"><ele>133.0</ele><time>2026-04-21T09:52:18.937Z</time></trkpt><trkpt lat="45.4090278" lon="10.5397206"><ele>133.0</ele><time>2026-04-21T09:53:19.942Z</time></trkpt><trkpt lat="45.4090885" lon="10.5396243"><ele>133.0</ele><time>2026-04-21T09:53:25.939Z</time></trkpt><trkpt lat="45.4091075" lon="10.539778"><ele>133.0</ele><time>2026-04-21T09:53:46.94Z</time></trkpt><trkpt lat="45.4091104" lon="10.539889"><ele>133.0</ele><time>2026-04-21T09:53:58.936Z</time></trkpt><trkpt lat="45.4090455" lon="10.5398782"><ele>133.0</ele><time>2026-04-21T09:54:06.943Z</time></trkpt><trkpt lat="45.4089947" lon="10.5398191"><ele>133.0</ele><time>2026-04-21T09:54:18.937Z</time></trkpt><trkpt lat="45.4090584" lon="10.539802"><ele>133.0</ele><time>2026-04-21T09:54:38.945Z</time></trkpt><trkpt lat="45.4091342" lon="10.5398769"><ele>133.0</ele><time>2026-04-21T09:55:14.938Z</time></trkpt><trkpt lat="45.4092108" lon="10.5398805"><ele>133.0</ele><time>2026-04-21T09:55:16.94Z</time></trkpt><trkpt lat="45.409286" lon="10.5398858"><ele>133.0</ele><time>2026-04-21T09:55:18.945Z</time></trkpt><trkpt lat="45.4092072" lon="10.5398845"><ele>133.0</ele><time>2026-04-21T09:55:28.933Z</time></trkpt><trkpt lat="45.4090888" lon="10.5398794"><ele>133.0</ele><time>2026-04-21T09:55:41.935Z</time></trkpt><trkpt lat="45.4091767" lon="10.5398901"><ele>133.0</ele><time>2026-04-21T09:55:50.935Z</time></trkpt><trkpt lat="45.4091131" lon="10.5399403"><ele>133.0</ele><time>2026-04-21T09:56:00.941Z</time></trkpt><trkpt lat="45.4090336" lon="10.5399165"><ele>133.0</ele><time>2026-04-21T09:56:07.94Z</time></trkpt><trkpt lat="45.4089217" lon="10.5398902"><ele>133.0</ele><time>2026-04-21T09:56:10.946Z</time></trkpt><trkpt lat="45.4088566" lon="10.5398745"><ele>133.0</ele><time>2026-04-21T09:56:14.933Z</time></trkpt><trkpt lat="45.4087297" lon="10.5398764"><ele>133.0</ele><time>2026-04-21T09:56:18.942Z</time></trkpt><trkpt lat="45.4085847" lon="10.539886"><ele>133.0</ele><time>2026-04-21T09:56:25.939Z</time></trkpt><trkpt lat="45.4085042" lon="10.539885"><ele>133.0</ele><time>2026-04-21T09:56:31.935Z</time></trkpt><trkpt lat="45.4085637" lon="10.5398482"><ele>133.0</ele><time>2026-04-21T09:56:35.936Z</time></trkpt><trkpt lat="45.4086312" lon="10.5398272"><ele>133.0</ele><time>2026-04-21T09:56:47.936Z</time></trkpt><trkpt lat="45.4086985" lon="10.5398311"><ele>133.0</ele><time>2026-04-21T09:56:53.936Z</time></trkpt><trkpt lat="45.4087572" lon="10.5397976"><ele>133.0</ele><time>2026-04-21T09:57:05.942Z</time></trkpt><trkpt lat="45.4088098" lon="10.5398593"><ele>133.0</ele><time>2026-04-21T09:57:45.946Z</time></trkpt><trkpt lat="45.4088767" lon="10.5398617"><ele>133.0</ele><time>2026-04-21T09:58:05.951Z</time></trkpt><trkpt lat="45.408954" lon="10.5398377"><ele>133.0</ele><time>2026-04-21T09:59:18.94Z</time></trkpt><trkpt lat="45.4090151" lon="10.539798"><ele>133.0</ele><time>2026-04-21T09:59:26.939Z</time></trkpt><trkpt lat="45.4089474" lon="10.5398102"><ele>133.0</ele><time>2026-04-21T09:59:56.939Z</time></trkpt><trkpt lat="45.4089058" lon="10.5399595"><ele>133.0</ele><time>2026-04-21T10:00:59.937Z</time></trkpt><trkpt lat="45.40895" lon="10.5398953"><ele>133.0</ele><time>2026-04-21T10:01:15.935Z</time></trkpt><trkpt lat="45.4090227" lon="10.5398705"><ele>133.0</ele><time>2026-04-21T10:01:33.945Z</time></trkpt><trkpt lat="45.4088781" lon="10.5398883"><ele>133.0</ele><time>2026-04-21T10:02:27.937Z</time></trkpt><trkpt lat="45.4087858" lon="10.5398432"><ele>133.0</ele><time>2026-04-21T10:02:38.946Z</time></trkpt><trkpt lat="45.4088671" lon="10.5397724"><ele>133.0</ele><time>2026-04-21T10:03:08.937Z</time></trkpt><trkpt lat="45.4088511" lon="10.5398622"><ele>133.0</ele><time>2026-04-21T10:03:22.94Z</time></trkpt><trkpt lat="45.4088424" lon="10.5399527"><ele>133.0</ele><time>2026-04-21T10:03:33.936Z</time></trkpt><trkpt lat="45.4089057" lon="10.5399364"><ele>133.0</ele><time>2026-04-21T10:03:59.949Z</time></trkpt><trkpt lat="45.4089391" lon="10.5398583"><ele>133.0</ele><time>2026-04-21T10:04:13.938Z</time></trkpt><trkpt lat="45.4088951" lon="10.5397784"><ele>133.0</ele><time>2026-04-21T10:04:18.945Z</time></trkpt><trkpt lat="45.4088291" lon="10.5397686"><ele>133.0</ele><time>2026-04-21T10:04:33.94Z</time></trkpt><trkpt lat="45.4087751" lon="10.5398254"><ele>133.0</ele><time>2026-04-21T10:04:35.939Z</time></trkpt><trkpt lat="45.4088499" lon="10.5397907"><ele>133.0</ele><time>2026-04-21T10:04:43.943Z</time></trkpt><trkpt lat="45.4089169" lon="10.5397493"><ele>133.0</ele><time>2026-04-21T10:04:47.937Z</time></trkpt><trkpt lat="45.4088298" lon="10.5398616"><ele>133.0</ele><time>2026-04-21T10:05:12.946Z</time></trkpt><trkpt lat="45.4087551" lon="10.5398975"><ele>133.0</ele><time>2026-04-21T10:05:21.947Z</time></trkpt><trkpt lat="45.4086595" lon="10.5398845"><ele>133.0</ele><time>2026-04-21T10:05:30.946Z</time></trkpt><trkpt lat="45.4087256" lon="10.5398605"><ele>133.0</ele><time>2026-04-21T10:05:54.946Z</time></trkpt><trkpt lat="45.4088799" lon="10.5398281"><ele>133.0</ele><time>2026-04-21T10:06:10.945Z</time></trkpt><trkpt lat="45.4089707" lon="10.5398486"><ele>133.0</ele><time>2026-04-21T10:06:18.945Z</time></trkpt><trkpt lat="45.4089041" lon="10.5398779"><ele>133.0</ele><time>2026-04-21T10:07:42.933Z</time></trkpt><trkpt lat="45.4089857" lon="10.5398329"><ele>133.0</ele><time>2026-04-21T10:09:48.94Z</time></trkpt><trkpt lat="45.4089442" lon="10.5397332"><ele>133.0</ele><time>2026-04-21T10:10:01.937Z</time></trkpt><trkpt lat="45.4088676" lon="10.5397679"><ele>133.0</ele><time>2026-04-21T10:10:06.937Z</time></trkpt><trkpt lat="45.4089223" lon="10.5396638"><ele>133.0</ele><time>2026-04-21T10:10:17.938Z</time></trkpt><trkpt lat="45.4089506" lon="10.5397856"><ele>133.0</ele><time>2026-04-21T10:10:53.939Z</time></trkpt><trkpt lat="45.4089101" lon="10.5399067"><ele>133.0</ele><time>2026-04-21T10:11:17.942Z</time></trkpt><trkpt lat="45.4089764" lon="10.5398434"><ele>133.0</ele><time>2026-04-21T10:11:52.945Z</time></trkpt><trkpt lat="45.4090578" lon="10.539779"><ele>133.0</ele><time>2026-04-21T10:11:57.935Z</time></trkpt><trkpt lat="45.4091545" lon="10.5398101"><ele>133.0</ele><time>2026-04-21T10:12:30.938Z</time></trkpt><trkpt lat="45.4092157" lon="10.5397607"><ele>133.0</ele><time>2026-04-21T10:12:33.941Z</time></trkpt><trkpt lat="45.4092286" lon="10.5396618"><ele>133.0</ele><time>2026-04-21T10:12:43.945Z</time></trkpt><trkpt lat="45.4091636" lon="10.5396174"><ele>133.0</ele><time>2026-04-21T10:13:08.936Z</time></trkpt><trkpt lat="45.4091212" lon="10.539693"><ele>133.0</ele><time>2026-04-21T10:13:11.935Z</time></trkpt><trkpt lat="45.4090319" lon="10.53974"><ele>133.0</ele><time>2026-04-21T10:13:34.934Z</time></trkpt><trkpt lat="45.4090182" lon="10.5398484"><ele>133.0</ele><time>2026-04-21T10:13:37.947Z</time></trkpt><trkpt lat="45.4089825" lon="10.5399344"><ele>133.0</ele><time>2026-04-21T10:13:45.944Z</time></trkpt><trkpt lat="45.4089857" lon="10.539839"><ele>133.0</ele><time>2026-04-21T10:13:56.945Z</time></trkpt><trkpt lat="45.4089267" lon="10.5397859"><ele>133.0</ele><time>2026-04-21T10:14:12.938Z</time></trkpt><trkpt lat="45.4088906" lon="10.5399216"><ele>133.0</ele><time>2026-04-21T10:15:05.936Z</time></trkpt><trkpt lat="45.4088469" lon="10.5400026"><ele>133.0</ele><time>2026-04-21T10:15:22.939Z</time></trkpt><trkpt lat="45.4089221" lon="10.5399606"><ele>133.0</ele><time>2026-04-21T10:15:37.936Z</time></trkpt><trkpt lat="45.4090011" lon="10.5399418"><ele>133.0</ele><time>2026-04-21T10:15:39.938Z</time></trkpt><trkpt lat="45.4091048" lon="10.5398993"><ele>133.0</ele><time>2026-04-21T10:15:45.934Z</time></trkpt><trkpt lat="45.40904" lon="10.5399162"><ele>133.0</ele><time>2026-04-21T10:15:52.937Z</time></trkpt><trkpt lat="45.4089708" lon="10.539975"><ele>133.0</ele><time>2026-04-21T10:16:01.937Z</time></trkpt><trkpt lat="45.408901" lon="10.540018"><ele>133.0</ele><time>2026-04-21T10:16:02.935Z</time></trkpt><trkpt lat="45.4088314" lon="10.5400512"><ele>133.0</ele><time>2026-04-21T10:16:03.934Z</time></trkpt><trkpt lat="45.4087741" lon="10.5401001"><ele>133.0</ele><time>2026-04-21T10:16:07.942Z</time></trkpt><trkpt lat="45.4087092" lon="10.5401245"><ele>133.0</ele><time>2026-04-21T10:16:11.933Z</time></trkpt><trkpt lat="45.4087847" lon="10.5400739"><ele>133.0</ele><time>2026-04-21T10:16:18.935Z</time></trkpt><trkpt lat="45.4088105" lon="10.5399715"><ele>133.0</ele><time>2026-04-21T10:16:33.934Z</time></trkpt><trkpt lat="45.4088474" lon="10.5398791"><ele>133.0</ele><time>2026-04-21T10:16:37.945Z</time></trkpt><trkpt lat="45.4089281" lon="10.5398545"><ele>133.0</ele><time>2026-04-21T10:16:55.948Z</time></trkpt><trkpt lat="45.4089909" lon="10.5397981"><ele>133.0</ele><time>2026-04-21T10:16:57.944Z</time></trkpt><trkpt lat="45.4090423" lon="10.5397207"><ele>133.0</ele><time>2026-04-21T10:17:00.934Z</time></trkpt><trkpt lat="45.409121" lon="10.5397035"><ele>133.0</ele><time>2026-04-21T10:17:03.944Z</time></trkpt><trkpt lat="45.4091873" lon="10.5396888"><ele>133.0</ele><time>2026-04-21T10:17:06.933Z</time></trkpt><trkpt lat="45.4092616" lon="10.5396456"><ele>133.0</ele><time>2026-04-21T10:17:10.934Z</time></trkpt><trkpt lat="45.4093453" lon="10.5395368"><ele>133.0</ele><time>2026-04-21T10:17:21.938Z</time></trkpt><trkpt lat="45.4092082" lon="10.5395902"><ele>133.0</ele><time>2026-04-21T10:17:27.939Z</time></trkpt><trkpt lat="45.4090992" lon="10.5396339"><ele>133.0</ele><time>2026-04-21T10:17:30.935Z</time></trkpt><trkpt lat="45.4089991" lon="10.5397312"><ele>133.0</ele><time>2026-04-21T10:17:32.941Z</time></trkpt><trkpt lat="45.4089166" lon="10.5398324"><ele>133.0</ele><time>2026-04-21T10:17:34.938Z</time></trkpt><trkpt lat="45.408982" lon="10.539779"><ele>133.0</ele><time>2026-04-21T10:17:46.933Z</time></trkpt><trkpt lat="45.4090459" lon="10.5397251"><ele>133.0</ele><time>2026-04-21T10:17:49.935Z</time></trkpt><trkpt lat="45.4091235" lon="10.5396921"><ele>133.0</ele><time>2026-04-21T10:17:52.94Z</time></trkpt><trkpt lat="45.4091828" lon="10.5396531"><ele>133.0</ele><time>2026-04-21T10:17:54.936Z</time></trkpt><trkpt lat="45.4092738" lon="10.5396238"><ele>133.0</ele><time>2026-04-21T10:17:56.937Z</time></trkpt><trkpt lat="45.4093378" lon="10.5396047"><ele>133.0</ele><time>2026-04-21T10:17:59.939Z</time></trkpt><trkpt lat="45.4091823" lon="10.5396877"><ele>133.0</ele><time>2026-04-21T10:18:06.942Z</time></trkpt><trkpt lat="45.409118" lon="10.5397477"><ele>133.0</ele><time>2026-04-21T10:18:07.938Z</time></trkpt><trkpt lat="45.4090588" lon="10.5397968"><ele>133.0</ele><time>2026-04-21T10:18:08.941Z</time></trkpt><trkpt lat="45.4089823" lon="10.5398649"><ele>133.0</ele><time>2026-04-21T10:18:10.936Z</time></trkpt><trkpt lat="45.4090306" lon="10.5397934"><ele>133.0</ele><time>2026-04-21T10:18:43.939Z</time></trkpt><trkpt lat="45.4089647" lon="10.5398089"><ele>133.0</ele><time>2026-04-21T10:18:47.946Z</time></trkpt><trkpt lat="45.4089805" lon="10.5399336"><ele>133.0</ele><time>2026-04-21T10:19:09.935Z</time></trkpt><trkpt lat="45.4089933" lon="10.54004"><ele>133.0</ele><time>2026-04-21T10:19:29.941Z</time></trkpt><trkpt lat="45.4090632" lon="10.5400212"><ele>133.0</ele><time>2026-04-21T10:19:40.937Z</time></trkpt><trkpt lat="45.4091125" lon="10.5399647"><ele>133.0</ele><time>2026-04-21T10:19:48.935Z</time></trkpt><trkpt lat="45.409048" lon="10.5399428"><ele>133.0</ele><time>2026-04-21T10:19:56.936Z</time></trkpt><trkpt lat="45.40908" lon="10.539855"><ele>133.0</ele><time>2026-04-21T10:20:11.945Z</time></trkpt><trkpt lat="45.4089973" lon="10.5398391"><ele>133.0</ele><time>2026-04-21T10:20:28.939Z</time></trkpt><trkpt lat="45.408927" lon="10.5398763"><ele>133.0</ele><time>2026-04-21T10:20:33.946Z</time></trkpt><trkpt lat="45.4088979" lon="10.5399623"><ele>133.0</ele><time>2026-04-21T10:21:02.94Z</time></trkpt><trkpt lat="45.4089494" lon="10.5399104"><ele>133.0</ele><time>2026-04-21T10:21:33.937Z</time></trkpt><trkpt lat="45.4089892" lon="10.5398408"><ele>133.0</ele><time>2026-04-21T10:21:41.949Z</time></trkpt><trkpt lat="45.4089167" lon="10.5397648"><ele>133.0</ele><time>2026-04-21T10:21:55.945Z</time></trkpt><trkpt lat="45.4088984" lon="10.5398552"><ele>133.0</ele><time>2026-04-21T10:22:18.94Z</time></trkpt><trkpt lat="45.4089697" lon="10.5398465"><ele>133.0</ele><time>2026-04-21T10:22:55.938Z</time></trkpt><trkpt lat="45.4089733" lon="10.5399576"><ele>133.0</ele><time>2026-04-21T10:24:45.936Z</time></trkpt><trkpt lat="45.4089298" lon="10.5398911"><ele>133.0</ele><time>2026-04-21T10:25:09.947Z</time></trkpt><trkpt lat="45.4088735" lon="10.5398241"><ele>133.0</ele><time>2026-04-21T10:25:28.938Z</time></trkpt><trkpt lat="45.4089476" lon="10.5397481"><ele>133.0</ele><time>2026-04-21T10:26:37.936Z</time></trkpt><trkpt lat="45.4089623" lon="10.5396318"><ele>133.0</ele><time>2026-04-21T10:26:43.937Z</time></trkpt><trkpt lat="45.4089672" lon="10.5397373"><ele>133.0</ele><time>2026-04-21T10:26:54.938Z</time></trkpt><trkpt lat="45.4090228" lon="10.5398141"><ele>133.0</ele><time>2026-04-21T10:26:58.937Z</time></trkpt><trkpt lat="45.4090219" lon="10.5399139"><ele>133.0</ele><time>2026-04-21T10:27:05.942Z</time></trkpt><trkpt lat="45.4089561" lon="10.5398924"><ele>133.0</ele><time>2026-04-21T10:27:56.936Z</time></trkpt><trkpt lat="45.4089691" lon="10.540009"><ele>133.0</ele><time>2026-04-21T10:28:18.942Z</time></trkpt><trkpt lat="45.4090297" lon="10.5399693"><ele>133.0</ele><time>2026-04-21T10:28:25.933Z</time></trkpt><trkpt lat="45.4090698" lon="10.5398931"><ele>133.0</ele><time>2026-04-21T10:28:35.944Z</time></trkpt><trkpt lat="45.4090218" lon="10.539835"><ele>133.0</ele><time>2026-04-21T10:29:03.938Z</time></trkpt><trkpt lat="45.4089642" lon="10.5397972"><ele>133.0</ele><time>2026-04-21T10:29:20.938Z</time></trkpt><trkpt lat="45.4089922" lon="10.5398893"><ele>133.0</ele><time>2026-04-21T10:29:59.936Z</time></trkpt><trkpt lat="45.4089474" lon="10.5399724"><ele>133.0</ele><time>2026-04-21T10:30:34.935Z</time></trkpt><trkpt lat="45.4090185" lon="10.5399055"><ele>133.0</ele><time>2026-04-21T10:31:37.932Z</time></trkpt><trkpt lat="45.4089535" lon="10.5397863"><ele>133.0</ele><time>2026-04-21T10:35:11.939Z</time></trkpt><trkpt lat="45.4089832" lon="10.5397009"><ele>133.0</ele><time>2026-04-21T10:35:49.935Z</time></trkpt><trkpt lat="45.4090424" lon="10.5397791"><ele>133.0</ele><time>2026-04-21T10:35:59.935Z</time></trkpt><trkpt lat="45.4089673" lon="10.5397209"><ele>133.0</ele><time>2026-04-21T10:36:01.944Z</time></trkpt><trkpt lat="45.4089198" lon="10.5396324"><ele>133.0</ele><time>2026-04-21T10:36:06.936Z</time></trkpt><trkpt lat="45.4088359" lon="10.5395597"><ele>133.0</ele><time>2026-04-21T10:36:12.938Z</time></trkpt><trkpt lat="45.4087788" lon="10.5395052"><ele>133.0</ele><time>2026-04-21T10:36:16.943Z</time></trkpt><trkpt lat="45.408877" lon="10.5395928"><ele>133.0</ele><time>2026-04-21T10:36:20.94Z</time></trkpt><trkpt lat="45.4089296" lon="10.5396615"><ele>133.0</ele><time>2026-04-21T10:36:21.937Z</time></trkpt><trkpt lat="45.4089762" lon="10.5397442"><ele>133.0</ele><time>2026-04-21T10:36:24.938Z</time></trkpt><trkpt lat="45.4090249" lon="10.5398113"><ele>133.0</ele><time>2026-04-21T10:36:27.941Z</time></trkpt><trkpt lat="45.4090926" lon="10.5398656"><ele>133.0</ele><time>2026-04-21T10:36:47.945Z</time></trkpt><trkpt lat="45.4090719" lon="10.5397777"><ele>133.0</ele><time>2026-04-21T10:37:16.947Z</time></trkpt><trkpt lat="45.4090287" lon="10.5398473"><ele>133.0</ele><time>2026-04-21T10:37:26.944Z</time></trkpt><trkpt lat="45.4089495" lon="10.539824"><ele>133.0</ele><time>2026-04-21T10:37:55.938Z</time></trkpt><trkpt lat="45.4088829" lon="10.5398112"><ele>133.0</ele><time>2026-04-21T10:37:58.94Z</time></trkpt><trkpt lat="45.4087997" lon="10.5398127"><ele>133.0</ele><time>2026-04-21T10:38:03.934Z</time></trkpt><trkpt lat="45.4088823" lon="10.5398206"><ele>133.0</ele><time>2026-04-21T10:38:12.935Z</time></trkpt><trkpt lat="45.4089846" lon="10.5398684"><ele>133.0</ele><time>2026-04-21T10:38:17.939Z</time></trkpt><trkpt lat="45.4090933" lon="10.5398479"><ele>133.0</ele><time>2026-04-21T10:38:26.936Z</time></trkpt><trkpt lat="45.4090323" lon="10.5397468"><ele>133.0</ele><time>2026-04-21T10:38:54.947Z</time></trkpt><trkpt lat="45.4090933" lon="10.5397966"><ele>133.0</ele><time>2026-04-21T10:39:56.934Z</time></trkpt><trkpt lat="45.4090451" lon="10.5398742"><ele>133.0</ele><time>2026-04-21T10:40:51.938Z</time></trkpt><trkpt lat="45.4089667" lon="10.5398389"><ele>133.0</ele><time>2026-04-21T10:41:19.936Z</time></trkpt><trkpt lat="45.4090068" lon="10.5397189"><ele>133.0</ele><time>2026-04-21T10:42:23.935Z</time></trkpt><trkpt lat="45.4089896" lon="10.5398082"><ele>133.0</ele><time>2026-04-21T10:43:24.945Z</time></trkpt><trkpt lat="45.4089633" lon="10.5397267"><ele>133.0</ele><time>2026-04-21T10:46:04.935Z</time></trkpt><trkpt lat="45.4089684" lon="10.5398264"><ele>133.0</ele><time>2026-04-21T10:46:44.935Z</time></trkpt><trkpt lat="45.4090085" lon="10.5399064"><ele>133.0</ele><time>2026-04-21T10:47:18.94Z</time></trkpt><trkpt lat="45.4089788" lon="10.5399976"><ele>133.0</ele><time>2026-04-21T10:47:22.941Z</time></trkpt><trkpt lat="45.4089201" lon="10.5399552"><ele>133.0</ele><time>2026-04-21T10:47:29.941Z</time></trkpt><trkpt lat="45.4089841" lon="10.539874"><ele>133.0</ele><time>2026-04-21T10:48:01.938Z</time></trkpt><trkpt lat="45.409014" lon="10.5397928"><ele>133.0</ele><time>2026-04-21T10:49:36.943Z</time></trkpt><trkpt lat="45.408955" lon="10.5397607"><ele>133.0</ele><time>2026-04-21T10:49:46.943Z</time></trkpt><trkpt lat="45.4088865" lon="10.5397162"><ele>133.0</ele><time>2026-04-21T10:49:53.938Z</time></trkpt><trkpt lat="45.4089379" lon="10.5396462"><ele>133.0</ele><time>2026-04-21T10:50:25.938Z</time></trkpt><trkpt lat="45.4090084" lon="10.5396553"><ele>133.0</ele><time>2026-04-21T10:50:31.934Z</time></trkpt><trkpt lat="45.4089439" lon="10.5396688"><ele>133.0</ele><time>2026-04-21T10:51:09.937Z</time></trkpt><trkpt lat="45.4088778" lon="10.5396889"><ele>133.0</ele><time>2026-04-21T10:51:46.935Z</time></trkpt><trkpt lat="45.4088342" lon="10.5396092"><ele>133.0</ele><time>2026-04-21T10:52:24.935Z</time></trkpt><trkpt lat="45.4087755" lon="10.5396737"><ele>133.0</ele><time>2026-04-21T10:52:30.943Z</time></trkpt><trkpt lat="45.4088299" lon="10.5397335"><ele>133.0</ele><time>2026-04-21T10:52:57.935Z</time></trkpt><trkpt lat="45.4088996" lon="10.5397552"><ele>133.0</ele><time>2026-04-21T10:53:03.942Z</time></trkpt><trkpt lat="45.4089846" lon="10.5398117"><ele>133.0</ele><time>2026-04-21T10:53:35.943Z</time></trkpt><trkpt lat="45.4091203" lon="10.5397496"><ele>133.0</ele><time>2026-04-21T10:55:09.936Z</time></trkpt><trkpt lat="45.4090583" lon="10.5397296"><ele>133.0</ele><time>2026-04-21T10:55:21.936Z</time></trkpt><trkpt lat="45.4089893" lon="10.5397097"><ele>133.0</ele><time>2026-04-21T10:55:32.938Z</time></trkpt><trkpt lat="45.4090637" lon="10.5397124"><ele>133.0</ele><time>2026-04-21T10:55:56.938Z</time></trkpt><trkpt lat="45.4089988" lon="10.5397317"><ele>133.0</ele><time>2026-04-21T10:56:51.941Z</time></trkpt><trkpt lat="45.4089362" lon="10.5397501"><ele>133.0</ele><time>2026-04-21T10:57:00.944Z</time></trkpt><trkpt lat="45.409006" lon="10.5397584"><ele>133.0</ele><time>2026-04-21T10:57:06.946Z</time></trkpt><trkpt lat="45.4089097" lon="10.5397692"><ele>133.0</ele><time>2026-04-21T10:57:11.936Z</time></trkpt><trkpt lat="45.4088482" lon="10.5398069"><ele>133.0</ele><time>2026-04-21T10:57:20.841Z</time></trkpt><trkpt lat="45.4087607" lon="10.5397662"><ele>133.0</ele><time>2026-04-21T10:58:16.935Z</time></trkpt><trkpt lat="45.4088352" lon="10.5398317"><ele>133.0</ele><time>2026-04-21T10:58:31.938Z</time></trkpt><trkpt lat="45.4089085" lon="10.5398859"><ele>133.0</ele><time>2026-04-21T10:58:50.944Z</time></trkpt><trkpt lat="45.4089645" lon="10.5398338"><ele>133.0</ele><time>2026-04-21T10:59:34.947Z</time></trkpt><trkpt lat="45.4090098" lon="10.5397582"><ele>133.0</ele><time>2026-04-21T10:59:39.943Z</time></trkpt><trkpt lat="45.408974" lon="10.5398421"><ele>133.0</ele><time>2026-04-21T10:59:56.939Z</time></trkpt><trkpt lat="45.4090109" lon="10.5397524"><ele>133.0</ele><time>2026-04-21T11:00:39.945Z</time></trkpt><trkpt lat="45.4090404" lon="10.5398407"><ele>133.0</ele><time>2026-04-21T11:01:38.939Z</time></trkpt><trkpt lat="45.4090071" lon="10.5397562"><ele>133.0</ele><time>2026-04-21T11:02:17.943Z</time></trkpt><trkpt lat="45.4090618" lon="10.5396749"><ele>133.0</ele><time>2026-04-21T11:03:38.942Z</time></trkpt><trkpt lat="45.4090127" lon="10.5397423"><ele>133.0</ele><time>2026-04-21T11:04:07.936Z</time></trkpt><trkpt lat="45.4090061" lon="10.5396461"><ele>133.0</ele><time>2026-04-21T11:04:18.936Z</time></trkpt><trkpt lat="45.4091086" lon="10.5397421"><ele>133.0</ele><time>2026-04-21T11:04:41.944Z</time></trkpt><trkpt lat="45.4090432" lon="10.5397326"><ele>133.0</ele><time>2026-04-21T11:05:14.933Z</time></trkpt><trkpt lat="45.4089972" lon="10.5396382"><ele>133.0</ele><time>2026-04-21T11:05:17.941Z</time></trkpt><trkpt lat="45.4089408" lon="10.539572"><ele>133.0</ele><time>2026-04-21T11:05:19.933Z</time></trkpt><trkpt lat="45.4089885" lon="10.5396439"><ele>133.0</ele><time>2026-04-21T11:05:29.934Z</time></trkpt><trkpt lat="45.4090546" lon="10.5396856"><ele>133.0</ele><time>2026-04-21T11:05:33.937Z</time></trkpt><trkpt lat="45.4090772" lon="10.5397898"><ele>133.0</ele><time>2026-04-21T11:05:48.937Z</time></trkpt><trkpt lat="45.409014" lon="10.5398219"><ele>133.0</ele><time>2026-04-21T11:05:54.938Z</time></trkpt><trkpt lat="45.4089503" lon="10.5398113"><ele>133.0</ele><time>2026-04-21T11:06:21.938Z</time></trkpt><trkpt lat="45.4090401" lon="10.5397697"><ele>133.0</ele><time>2026-04-21T11:06:53.942Z</time></trkpt><trkpt lat="45.4090067" lon="10.5398528"><ele>133.0</ele><time>2026-04-21T11:07:21.935Z</time></trkpt><trkpt lat="45.4089691" lon="10.5397792"><ele>133.0</ele><time>2026-04-21T11:08:02.934Z</time></trkpt><trkpt lat="45.4090425" lon="10.5397653"><ele>133.0</ele><time>2026-04-21T11:08:18.938Z</time></trkpt><trkpt lat="45.4089613" lon="10.5397343"><ele>133.0</ele><time>2026-04-21T11:09:09.934Z</time></trkpt><trkpt lat="45.4088847" lon="10.5397214"><ele>133.0</ele><time>2026-04-21T11:09:26.943Z</time></trkpt><trkpt lat="45.408987" lon="10.5397447"><ele>133.0</ele><time>2026-04-21T11:10:07.939Z</time></trkpt><trkpt lat="45.409056" lon="10.5397555"><ele>133.0</ele><time>2026-04-21T11:10:30.939Z</time></trkpt><trkpt lat="45.408996" lon="10.5397901"><ele>133.0</ele><time>2026-04-21T11:11:15.941Z</time></trkpt><trkpt lat="45.4089309" lon="10.5398121"><ele>133.0</ele><time>2026-04-21T11:13:07.938Z</time></trkpt><trkpt lat="45.4089363" lon="10.5397188"><ele>133.0</ele><time>2026-04-21T11:13:09.942Z</time></trkpt><trkpt lat="45.4089792" lon="10.5397853"><ele>133.0</ele><time>2026-04-21T11:13:40.941Z</time></trkpt><trkpt lat="45.4090258" lon="10.5398527"><ele>133.0</ele><time>2026-04-21T11:13:46.938Z</time></trkpt><trkpt lat="45.4089614" lon="10.5398242"><ele>133.0</ele><time>2026-04-21T11:17:19.941Z</time></trkpt><trkpt lat="45.4089009" lon="10.5397828"><ele>133.0</ele><time>2026-04-21T11:17:52.939Z</time></trkpt><trkpt lat="45.408843" lon="10.5398191"><ele>133.0</ele><time>2026-04-21T11:18:00.938Z</time></trkpt><trkpt lat="45.4088539" lon="10.5399075"><ele>133.0</ele><time>2026-04-21T11:18:07.94Z</time></trkpt><trkpt lat="45.4089213" lon="10.5399033"><ele>133.0</ele><time>2026-04-21T11:18:22.936Z</time></trkpt><trkpt lat="45.4089241" lon="10.5398092"><ele>133.0</ele><time>2026-04-21T11:19:04.944Z</time></trkpt><trkpt lat="45.4089992" lon="10.5397918"><ele>133.0</ele><time>2026-04-21T11:19:06.928Z</time></trkpt><trkpt lat="45.409063" lon="10.5397746"><ele>133.0</ele><time>2026-04-21T11:19:10.932Z</time></trkpt><trkpt lat="45.4090592" lon="10.5396765"><ele>133.0</ele><time>2026-04-21T11:20:29.94Z</time></trkpt><trkpt lat="45.4091207" lon="10.5396285"><ele>133.0</ele><time>2026-04-21T11:20:35.939Z</time></trkpt><trkpt lat="45.4090503" lon="10.5396196"><ele>133.0</ele><time>2026-04-21T11:20:49.937Z</time></trkpt><trkpt lat="45.4089466" lon="10.539583"><ele>133.0</ele><time>2026-04-21T11:21:29.937Z</time></trkpt><trkpt lat="45.4088369" lon="10.5396051"><ele>133.0</ele><time>2026-04-21T11:21:32.944Z</time></trkpt><trkpt lat="45.4088629" lon="10.5396988"><ele>133.0</ele><time>2026-04-21T11:22:08.936Z</time></trkpt><trkpt lat="45.4088129" lon="10.5397961"><ele>133.0</ele><time>2026-04-21T11:22:38.939Z</time></trkpt><trkpt lat="45.4088982" lon="10.5398753"><ele>133.0</ele><time>2026-04-21T11:23:26.938Z</time></trkpt><trkpt lat="45.4089535" lon="10.5398177"><ele>133.0</ele><time>2026-04-21T11:24:25.937Z</time></trkpt><trkpt lat="45.409049" lon="10.5397152"><ele>133.0</ele><time>2026-04-21T11:25:02.941Z</time></trkpt><trkpt lat="45.408993" lon="10.5396656"><ele>133.0</ele><time>2026-04-21T11:26:01.943Z</time></trkpt><trkpt lat="45.4089431" lon="10.5397338"><ele>133.0</ele><time>2026-04-21T11:26:22.938Z</time></trkpt><trkpt lat="45.4088768" lon="10.5397925"><ele>133.0</ele><time>2026-04-21T11:26:40.944Z</time></trkpt><trkpt lat="45.4088244" lon="10.5398685"><ele>133.0</ele><time>2026-04-21T11:26:45.933Z</time></trkpt><trkpt lat="45.4088683" lon="10.5397797"><ele>133.0</ele><time>2026-04-21T11:27:09.933Z</time></trkpt><trkpt lat="45.4089629" lon="10.5397591"><ele>133.0</ele><time>2026-04-21T11:27:31.931Z</time></trkpt><trkpt lat="45.409042" lon="10.5397969"><ele>133.0</ele><time>2026-04-21T11:28:07.934Z</time></trkpt><trkpt lat="45.4089725" lon="10.5398216"><ele>133.0</ele><time>2026-04-21T11:28:26.934Z</time></trkpt><trkpt lat="45.4089112" lon="10.539796"><ele>133.0</ele><time>2026-04-21T11:28:30.933Z</time></trkpt><trkpt lat="45.4089437" lon="10.5397154"><ele>133.0</ele><time>2026-04-21T11:28:43.939Z</time></trkpt><trkpt lat="45.408843" lon="10.539719"><ele>133.0</ele><time>2026-04-21T11:29:52.937Z</time></trkpt><trkpt lat="45.4089483" lon="10.5397539"><ele>133.0</ele><time>2026-04-21T11:30:44.938Z</time></trkpt><trkpt lat="45.4090403" lon="10.5397552"><ele>133.0</ele><time>2026-04-21T11:32:39.942Z</time></trkpt><trkpt lat="45.4090363" lon="10.539652"><ele>133.0</ele><time>2026-04-21T11:32:54.941Z</time></trkpt><trkpt lat="45.4090026" lon="10.5397369"><ele>133.0</ele><time>2026-04-21T11:33:05.944Z</time></trkpt><trkpt lat="45.4089317" lon="10.5397502"><ele>133.0</ele><time>2026-04-21T11:33:07.932Z</time></trkpt><trkpt lat="45.4090129" lon="10.5398214"><ele>133.0</ele><time>2026-04-21T11:33:41.937Z</time></trkpt><trkpt lat="45.4090877" lon="10.5397893"><ele>133.0</ele><time>2026-04-21T11:34:21.936Z</time></trkpt><trkpt lat="45.4091177" lon="10.5397033"><ele>133.0</ele><time>2026-04-21T11:34:31.94Z</time></trkpt><trkpt lat="45.409138" lon="10.5396068"><ele>133.0</ele><time>2026-04-21T11:34:50.937Z</time></trkpt><trkpt lat="45.4090634" lon="10.539635"><ele>133.0</ele><time>2026-04-21T11:36:22.937Z</time></trkpt><trkpt lat="45.4091279" lon="10.5396569"><ele>133.0</ele><time>2026-04-21T11:36:32.933Z</time></trkpt><trkpt lat="45.4090866" lon="10.5395623"><ele>133.0</ele><time>2026-04-21T11:36:56.933Z</time></trkpt><trkpt lat="45.4091291" lon="10.5396341"><ele>133.0</ele><time>2026-04-21T11:37:25.937Z</time></trkpt><trkpt lat="45.4091848" lon="10.5395809"><ele>133.0</ele><time>2026-04-21T11:37:46.933Z</time></trkpt><trkpt lat="45.4092586" lon="10.5395547"><ele>133.0</ele><time>2026-04-21T11:38:21.937Z</time></trkpt><trkpt lat="45.4093254" lon="10.5395085"><ele>132.33333333333334</ele><time>2026-04-21T11:38:24.934Z</time></trkpt><trkpt lat="45.4094349" lon="10.5395254"><ele>131.66666666666669</ele><time>2026-04-21T11:38:32.934Z</time></trkpt><trkpt lat="45.4093338" lon="10.5395426"><ele>131.0</ele><time>2026-04-21T11:38:43.931Z</time></trkpt><trkpt lat="45.4092733" lon="10.5395114"><ele>130.33333333333334</ele><time>2026-04-21T11:38:45.946Z</time></trkpt><trkpt lat="45.4091949" lon="10.5395003"><ele>129.66666666666666</ele><time>2026-04-21T11:38:49.936Z</time></trkpt><trkpt lat="45.4091299" lon="10.5394992"><ele>129.0</ele><time>2026-04-21T11:38:51.935Z</time></trkpt><trkpt lat="45.4090408" lon="10.5394708"><ele>129.0</ele><time>2026-04-21T11:38:53.938Z</time></trkpt><trkpt lat="45.409068" lon="10.5395575"><ele>129.0</ele><time>2026-04-21T11:39:02.942Z</time></trkpt><trkpt lat="45.4090018" lon="10.5396325"><ele>129.0</ele><time>2026-04-21T11:39:09.937Z</time></trkpt><trkpt lat="45.4089096" lon="10.5396111"><ele>129.0</ele><time>2026-04-21T11:39:12.941Z</time></trkpt><trkpt lat="45.4088451" lon="10.5395033"><ele>129.0</ele><time>2026-04-21T11:39:14.932Z</time></trkpt><trkpt lat="45.4088095" lon="10.5394241"><ele>129.0</ele><time>2026-04-21T11:39:15.937Z</time></trkpt><trkpt lat="45.4087474" lon="10.5393938"><ele>129.0</ele><time>2026-04-21T11:39:18.933Z</time></trkpt><trkpt lat="45.4088064" lon="10.5394306"><ele>129.0</ele><time>2026-04-21T11:39:25.927Z</time></trkpt><trkpt lat="45.4088684" lon="10.5394501"><ele>129.0</ele><time>2026-04-21T11:39:30.944Z</time></trkpt><trkpt lat="45.4089347" lon="10.5395023"><ele>129.0</ele><time>2026-04-21T11:39:34.934Z</time></trkpt><trkpt lat="45.4090475" lon="10.5394823"><ele>129.0</ele><time>2026-04-21T11:39:40.934Z</time></trkpt><trkpt lat="45.4091052" lon="10.5395252"><ele>129.0</ele><time>2026-04-21T11:39:59.945Z</time></trkpt><trkpt lat="45.4090466" lon="10.5395983"><ele>129.8</ele><time>2026-04-21T11:40:08.943Z</time></trkpt><trkpt lat="45.408988" lon="10.5396493"><ele>130.60000000000002</ele><time>2026-04-21T11:40:12.931Z</time></trkpt><trkpt lat="45.4090195" lon="10.5397357"><ele>131.4</ele><time>2026-04-21T11:40:21.931Z</time></trkpt><trkpt lat="45.4091178" lon="10.5398139"><ele>132.20000000000002</ele><time>2026-04-21T11:41:08.938Z</time></trkpt><trkpt lat="45.4092484" lon="10.5398108"><ele>133.0</ele><time>2026-04-21T11:41:11.936Z</time></trkpt><trkpt lat="45.4093362" lon="10.5398226"><ele>133.0</ele><time>2026-04-21T11:41:15.938Z</time></trkpt><trkpt lat="45.4094109" lon="10.5397665"><ele>133.0</ele><time>2026-04-21T11:41:20.935Z</time></trkpt><trkpt lat="45.4094998" lon="10.5397737"><ele>133.0</ele><time>2026-04-21T11:41:24.941Z</time></trkpt><trkpt lat="45.4093603" lon="10.5397058"><ele>133.0</ele><time>2026-04-21T11:41:26.938Z</time></trkpt><trkpt lat="45.4091298" lon="10.5397072"><ele>133.0</ele><time>2026-04-21T11:41:27.939Z</time></trkpt><trkpt lat="45.4090239" lon="10.5397321"><ele>133.0</ele><time>2026-04-21T11:41:28.941Z</time></trkpt><trkpt lat="45.4090145" lon="10.5396337"><ele>133.0</ele><time>2026-04-21T11:41:42.938Z</time></trkpt><trkpt lat="45.4090165" lon="10.5397329"><ele>133.0</ele><time>2026-04-21T11:42:04.934Z</time></trkpt><trkpt lat="45.4090359" lon="10.5398207"><ele>133.0</ele><time>2026-04-21T11:42:12.935Z</time></trkpt><trkpt lat="45.4091383" lon="10.5398475"><ele>133.0</ele><time>2026-04-21T11:42:46.933Z</time></trkpt><trkpt lat="45.4092102" lon="10.539835"><ele>133.0</ele><time>2026-04-21T11:43:15.932Z</time></trkpt><trkpt lat="45.4091518" lon="10.539702"><ele>133.0</ele><time>2026-04-21T11:43:50.935Z</time></trkpt><trkpt lat="45.4091966" lon="10.5398069"><ele>133.0</ele><time>2026-04-21T11:44:15.934Z</time></trkpt><trkpt lat="45.4091279" lon="10.5398147"><ele>133.0</ele><time>2026-04-21T11:44:26.936Z</time></trkpt><trkpt lat="45.4090519" lon="10.5397769"><ele>133.0</ele><time>2026-04-21T11:44:31.934Z</time></trkpt><trkpt lat="45.4090232" lon="10.5396886"><ele>133.0</ele><time>2026-04-21T11:44:39.933Z</time></trkpt><trkpt lat="45.4090083" lon="10.5395988"><ele>132.42857142857142</ele><time>2026-04-21T11:44:50.942Z</time></trkpt><trkpt lat="45.408974" lon="10.5395038"><ele>131.85714285714286</ele><time>2026-04-21T11:45:21.933Z</time></trkpt><trkpt lat="45.4090375" lon="10.5394382"><ele>131.28571428571428</ele><time>2026-04-21T11:45:33.943Z</time></trkpt><trkpt lat="45.4089764" lon="10.5393815"><ele>130.71428571428572</ele><time>2026-04-21T11:45:47.942Z</time></trkpt><trkpt lat="45.4089896" lon="10.5392828"><ele>130.14285714285714</ele><time>2026-04-21T11:46:06.937Z</time></trkpt><trkpt lat="45.4090345" lon="10.5393468"><ele>129.57142857142856</ele><time>2026-04-21T11:46:28.942Z</time></trkpt><trkpt lat="45.4089568" lon="10.5393197"><ele>129.0</ele><time>2026-04-21T11:46:45.932Z</time></trkpt><trkpt lat="45.4088964" lon="10.5393478"><ele>129.0</ele><time>2026-04-21T11:46:53.939Z</time></trkpt><trkpt lat="45.4088165" lon="10.5393812"><ele>129.0</ele><time>2026-04-21T11:47:00.937Z</time></trkpt><trkpt lat="45.4088464" lon="10.5394639"><ele>129.0</ele><time>2026-04-21T11:47:16.943Z</time></trkpt><trkpt lat="45.4088336" lon="10.5395894"><ele>129.0</ele><time>2026-04-21T11:47:26.937Z</time></trkpt><trkpt lat="45.4088512" lon="10.5396959"><ele>129.0</ele><time>2026-04-21T11:47:37.935Z</time></trkpt><trkpt lat="45.4089339" lon="10.5397621"><ele>129.0</ele><time>2026-04-21T11:47:55.933Z</time></trkpt><trkpt lat="45.4089913" lon="10.5398084"><ele>129.57142857142856</ele><time>2026-04-21T11:47:57.942Z</time></trkpt><trkpt lat="45.4089649" lon="10.5397169"><ele>130.14285714285714</ele><time>2026-04-21T11:49:00.936Z</time></trkpt><trkpt lat="45.4090163" lon="10.5397878"><ele>130.71428571428572</ele><time>2026-04-21T11:49:09.933Z</time></trkpt><trkpt lat="45.4090451" lon="10.539705"><ele>131.28571428571428</ele><time>2026-04-21T11:49:34.946Z</time></trkpt><trkpt lat="45.4091331" lon="10.5397567"><ele>131.85714285714286</ele><time>2026-04-21T11:50:11.941Z</time></trkpt><trkpt lat="45.4090695" lon="10.5398021"><ele>132.42857142857142</ele><time>2026-04-21T11:50:20.935Z</time></trkpt><trkpt lat="45.4090145" lon="10.5398603"><ele>133.0</ele><time>2026-04-21T11:51:11.937Z</time></trkpt><trkpt lat="45.4089636" lon="10.5398042"><ele>133.0</ele><time>2026-04-21T11:51:42.938Z</time></trkpt><trkpt lat="45.4089609" lon="10.5399071"><ele>133.0</ele><time>2026-04-21T11:52:08.935Z</time></trkpt><trkpt lat="45.4088704" lon="10.5398838"><ele>133.0</ele><time>2026-04-21T11:52:19.943Z</time></trkpt><trkpt lat="45.4088088" lon="10.5398493"><ele>133.0</ele><time>2026-04-21T11:52:22.937Z</time></trkpt><trkpt lat="45.4088646" lon="10.5397892"><ele>133.0</ele><time>2026-04-21T11:53:07.945Z</time></trkpt><trkpt lat="45.4087991" lon="10.5397674"><ele>133.0</ele><time>2026-04-21T11:53:24.949Z</time></trkpt><trkpt lat="45.408862" lon="10.5397987"><ele>133.0</ele><time>2026-04-21T11:53:42.943Z</time></trkpt><trkpt lat="45.4089518" lon="10.5397863"><ele>133.0</ele><time>2026-04-21T11:53:52.937Z</time></trkpt><trkpt lat="45.4089358" lon="10.5398942"><ele>133.0</ele><time>2026-04-21T11:54:02.938Z</time></trkpt><trkpt lat="45.4089732" lon="10.5398181"><ele>133.0</ele><time>2026-04-21T11:54:23.943Z</time></trkpt><trkpt lat="45.4089998" lon="10.539705"><ele>133.0</ele><time>2026-04-21T11:54:32.933Z</time></trkpt><trkpt lat="45.4089723" lon="10.5395546"><ele>133.0</ele><time>2026-04-21T11:54:49.936Z</time></trkpt><trkpt lat="45.4089683" lon="10.5394451"><ele>133.0</ele><time>2026-04-21T11:54:52.944Z</time></trkpt><trkpt lat="45.4089909" lon="10.539351"><ele>133.0</ele><time>2026-04-21T11:54:53.943Z</time></trkpt><trkpt lat="45.4090414" lon="10.5392541"><ele>133.0</ele><time>2026-04-21T11:55:00.937Z</time></trkpt><trkpt lat="45.4090604" lon="10.539161"><ele>133.0</ele><time>2026-04-21T11:55:09.943Z</time></trkpt><trkpt lat="45.4090137" lon="10.539227"><ele>133.0</ele><time>2026-04-21T11:55:23.934Z</time></trkpt><trkpt lat="45.4090285" lon="10.5393282"><ele>133.0</ele><time>2026-04-21T11:55:35.947Z</time></trkpt><trkpt lat="45.4090789" lon="10.5393919"><ele>133.0</ele><time>2026-04-21T11:55:46.938Z</time></trkpt><trkpt lat="45.4090281" lon="10.5394838"><ele>133.0</ele><time>2026-04-21T11:56:05.939Z</time></trkpt><trkpt lat="45.4089943" lon="10.5395784"><ele>133.0</ele><time>2026-04-21T11:56:23.942Z</time></trkpt><trkpt lat="45.4089226" lon="10.5396086"><ele>133.0</ele><time>2026-04-21T11:56:53.934Z</time></trkpt><trkpt lat="45.4089486" lon="10.539695"><ele>133.0</ele><time>2026-04-21T11:57:46.939Z</time></trkpt><trkpt lat="45.4089664" lon="10.5396019"><ele>133.0</ele><time>2026-04-21T11:58:05.936Z</time></trkpt><trkpt lat="45.4090082" lon="10.5395198"><ele>133.0</ele><time>2026-04-21T11:58:10.941Z</time></trkpt><trkpt lat="45.4090344" lon="10.5394279"><ele>133.0</ele><time>2026-04-21T11:58:16.945Z</time></trkpt><trkpt lat="45.4090877" lon="10.5393717"><ele>133.0</ele><time>2026-04-21T11:58:36.948Z</time></trkpt><trkpt lat="45.4091283" lon="10.5394406"><ele>133.0</ele><time>2026-04-21T11:59:04.94Z</time></trkpt><trkpt lat="45.4091223" lon="10.5395326"><ele>133.0</ele><time>2026-04-21T12:00:02.944Z</time></trkpt><trkpt lat="45.4091632" lon="10.5396345"><ele>133.0</ele><time>2026-04-21T12:00:05.945Z</time></trkpt><trkpt lat="45.4091599" lon="10.539747"><ele>133.0</ele><time>2026-04-21T12:00:10.94Z</time></trkpt><trkpt lat="45.4091093" lon="10.5398083"><ele>133.0</ele><time>2026-04-21T12:00:56.935Z</time></trkpt><trkpt lat="45.4090544" lon="10.539869"><ele>133.0</ele><time>2026-04-21T12:01:07.939Z</time></trkpt><trkpt lat="45.4089915" lon="10.5398747"><ele>133.0</ele><time>2026-04-21T12:01:18.946Z</time></trkpt><trkpt lat="45.4089087" lon="10.5399146"><ele>133.0</ele><time>2026-04-21T12:01:26.938Z</time></trkpt><trkpt lat="45.4088442" lon="10.539868"><ele>133.0</ele><time>2026-04-21T12:01:54.938Z</time></trkpt><trkpt lat="45.4088913" lon="10.5399719"><ele>133.0</ele><time>2026-04-21T12:02:26.938Z</time></trkpt><trkpt lat="45.4088599" lon="10.5398863"><ele>133.0</ele><time>2026-04-21T12:02:50.938Z</time></trkpt><trkpt lat="45.4089444" lon="10.5398536"><ele>133.0</ele><time>2026-04-21T12:04:00.944Z</time></trkpt><trkpt lat="45.4088885" lon="10.5397729"><ele>133.0</ele><time>2026-04-21T12:05:21.943Z</time></trkpt><trkpt lat="45.4089523" lon="10.53975"><ele>133.0</ele><time>2026-04-21T12:07:23.943Z</time></trkpt><trkpt lat="45.4090194" lon="10.5397445"><ele>133.0</ele><time>2026-04-21T12:08:02.946Z</time></trkpt><trkpt lat="45.408949" lon="10.5397653"><ele>133.0</ele><time>2026-04-21T12:08:30.932Z</time></trkpt><trkpt lat="45.4088863" lon="10.5397935"><ele>133.0</ele><time>2026-04-21T12:09:03.944Z</time></trkpt><trkpt lat="45.4088226" lon="10.5397823"><ele>133.0</ele><time>2026-04-21T12:09:11.949Z</time></trkpt><trkpt lat="45.4089113" lon="10.5398249"><ele>133.0</ele><time>2026-04-21T12:11:14.932Z</time></trkpt><trkpt lat="45.4088498" lon="10.5397976"><ele>133.0</ele><time>2026-04-21T12:11:57.934Z</time></trkpt><trkpt lat="45.4089132" lon="10.5397981"><ele>133.0</ele><time>2026-04-21T12:12:40.943Z</time></trkpt><trkpt lat="45.4088612" lon="10.5398543"><ele>133.0</ele><time>2026-04-21T12:13:57.935Z</time></trkpt><trkpt lat="45.4088162" lon="10.5397828"><ele>133.0</ele><time>2026-04-21T12:14:09.944Z</time></trkpt><trkpt lat="45.4089208" lon="10.5397246"><ele>133.0</ele><time>2026-04-21T12:14:39.935Z</time></trkpt><trkpt lat="45.4089303" lon="10.5398158"><ele>133.0</ele><time>2026-04-21T12:15:01.944Z</time></trkpt><trkpt lat="45.4088671" lon="10.5398491"><ele>133.0</ele><time>2026-04-21T12:18:37.944Z</time></trkpt><trkpt lat="45.4088657" lon="10.5397544"><ele>133.0</ele><time>2026-04-21T12:18:48.938Z</time></trkpt><trkpt lat="45.4089276" lon="10.5396023"><ele>133.0</ele><time>2026-04-21T12:19:00.94Z</time></trkpt><trkpt lat="45.4089498" lon="10.5396964"><ele>133.0</ele><time>2026-04-21T12:19:17.934Z</time></trkpt><trkpt lat="45.408891" lon="10.5397644"><ele>133.0</ele><time>2026-04-21T12:19:24.935Z</time></trkpt><trkpt lat="45.4089724" lon="10.5397742"><ele>133.0</ele><time>2026-04-21T12:19:37.946Z</time></trkpt><trkpt lat="45.40891" lon="10.539805"><ele>133.0</ele><time>2026-04-21T12:19:49.936Z</time></trkpt><trkpt lat="45.4088607" lon="10.5398763"><ele>133.0</ele><time>2026-04-21T12:22:04.943Z</time></trkpt><trkpt lat="45.4088762" lon="10.5397888"><ele>133.0</ele><time>2026-04-21T12:23:02.943Z</time></trkpt><trkpt lat="45.4089534" lon="10.5398202"><ele>133.0</ele><time>2026-04-21T12:23:22.933Z</time></trkpt><trkpt lat="45.4088882" lon="10.5398788"><ele>133.0</ele><time>2026-04-21T12:25:13.941Z</time></trkpt><trkpt lat="45.4088271" lon="10.5398234"><ele>133.0</ele><time>2026-04-21T12:26:17.941Z</time></trkpt><trkpt lat="45.4088892" lon="10.5397801"><ele>133.0</ele><time>2026-04-21T12:26:25.941Z</time></trkpt><trkpt lat="45.4089691" lon="10.5397031"><ele>133.0</ele><time>2026-04-21T12:27:01.935Z</time></trkpt><trkpt lat="45.4088585" lon="10.5397753"><ele>133.0</ele><time>2026-04-21T12:27:11.936Z</time></trkpt><trkpt lat="45.4088059" lon="10.5398398"><ele>133.0</ele><time>2026-04-21T12:27:16.939Z</time></trkpt><trkpt lat="45.4087631" lon="10.5399184"><ele>133.0</ele><time>2026-04-21T12:27:20.941Z</time></trkpt><trkpt lat="45.4088426" lon="10.5398889"><ele>133.0</ele><time>2026-04-21T12:27:38.941Z</time></trkpt><trkpt lat="45.4089116" lon="10.5398634"><ele>133.0</ele><time>2026-04-21T12:28:36.941Z</time></trkpt><trkpt lat="45.4088557" lon="10.5397834"><ele>133.0</ele><time>2026-04-21T12:28:54.94Z</time></trkpt><trkpt lat="45.4088581" lon="10.539666"><ele>133.0</ele><time>2026-04-21T12:28:57.934Z</time></trkpt><trkpt lat="45.4088208" lon="10.5397499"><ele>133.0</ele><time>2026-04-21T12:29:06.936Z</time></trkpt><trkpt lat="45.4087684" lon="10.5398752"><ele>133.0</ele><time>2026-04-21T12:30:11.928Z</time></trkpt><trkpt lat="45.408827" lon="10.5399114"><ele>133.0</ele><time>2026-04-21T12:30:22.94Z</time></trkpt><trkpt lat="45.4089434" lon="10.5398578"><ele>133.0</ele><time>2026-04-21T12:30:37.943Z</time></trkpt><trkpt lat="45.4088739" lon="10.5398418"><ele>133.0</ele><time>2026-04-21T12:32:20.937Z</time></trkpt><trkpt lat="45.4089366" lon="10.5398318"><ele>133.0</ele><time>2026-04-21T12:34:05.937Z</time></trkpt><trkpt lat="45.4088962" lon="10.5397602"><ele>133.0</ele><time>2026-04-21T12:37:29.937Z</time></trkpt><trkpt lat="45.4088215" lon="10.5397919"><ele>133.0</ele><time>2026-04-21T12:37:33.933Z</time></trkpt><trkpt lat="45.4087444" lon="10.5398203"><ele>133.0</ele><time>2026-04-21T12:37:35.943Z</time></trkpt><trkpt lat="45.4088234" lon="10.5398085"><ele>133.0</ele><time>2026-04-21T12:37:58.939Z</time></trkpt><trkpt lat="45.4089051" lon="10.5398039"><ele>133.0</ele><time>2026-04-21T12:38:11.935Z</time></trkpt><trkpt lat="45.4089678" lon="10.5398178"><ele>133.0</ele><time>2026-04-21T12:38:29.937Z</time></trkpt><trkpt lat="45.4090508" lon="10.5398228"><ele>133.0</ele><time>2026-04-21T12:39:23.935Z</time></trkpt><trkpt lat="45.4089888" lon="10.5397952"><ele>133.0</ele><time>2026-04-21T12:40:07.936Z</time></trkpt><trkpt lat="45.4089608" lon="10.539878"><ele>133.0</ele><time>2026-04-21T12:41:10.938Z</time></trkpt><trkpt lat="45.4088775" lon="10.5398198"><ele>133.0</ele><time>2026-04-21T12:42:45.933Z</time></trkpt><trkpt lat="45.4089524" lon="10.5398114"><ele>133.0</ele><time>2026-04-21T12:43:07.941Z</time></trkpt><trkpt lat="45.4088958" lon="10.5397372"><ele>133.0</ele><time>2026-04-21T12:43:27.935Z</time></trkpt><trkpt lat="45.4089701" lon="10.5397576"><ele>133.0</ele><time>2026-04-21T12:43:38.934Z</time></trkpt><trkpt lat="45.4089103" lon="10.5397253"><ele>133.0</ele><time>2026-04-21T12:44:11.937Z</time></trkpt><trkpt lat="45.40889" lon="10.539814"><ele>133.0</ele><time>2026-04-21T12:44:35.934Z</time></trkpt><trkpt lat="45.408823" lon="10.5398342"><ele>133.0</ele><time>2026-04-21T12:44:55.933Z</time></trkpt><trkpt lat="45.4088883" lon="10.539805"><ele>133.0</ele><time>2026-04-21T12:45:41.934Z</time></trkpt><trkpt lat="45.408965" lon="10.5398307"><ele>133.0</ele><time>2026-04-21T12:47:41.936Z</time></trkpt><trkpt lat="45.4090342" lon="10.5398478"><ele>133.0</ele><time>2026-04-21T12:48:03.942Z</time></trkpt><trkpt lat="45.4089851" lon="10.5397747"><ele>133.0</ele><time>2026-04-21T12:49:13.932Z</time></trkpt><trkpt lat="45.4089248" lon="10.5398027"><ele>133.0</ele><time>2026-04-21T12:49:35.937Z</time></trkpt><trkpt lat="45.4088717" lon="10.5397348"><ele>133.0</ele><time>2026-04-21T12:51:03.934Z</time></trkpt><trkpt lat="45.4089455" lon="10.5398078"><ele>133.0</ele><time>2026-04-21T12:51:34.94Z</time></trkpt><trkpt lat="45.4088809" lon="10.5398052"><ele>133.0</ele><time>2026-04-21T12:52:21.935Z</time></trkpt><trkpt lat="45.4088897" lon="10.5397159"><ele>133.0</ele><time>2026-04-21T12:53:12.936Z</time></trkpt><trkpt lat="45.4089244" lon="10.5398366"><ele>133.0</ele><time>2026-04-21T12:53:26.944Z</time></trkpt><trkpt lat="45.4090193" lon="10.5398316"><ele>133.0</ele><time>2026-04-21T12:53:48.934Z</time></trkpt><trkpt lat="45.4091091" lon="10.5398298"><ele>133.0</ele><time>2026-04-21T12:54:02.936Z</time></trkpt><trkpt lat="45.4090677" lon="10.5397564"><ele>133.0</ele><time>2026-04-21T12:55:30.941Z</time></trkpt><trkpt lat="45.4089853" lon="10.5397831"><ele>133.0</ele><time>2026-04-21T12:56:17.942Z</time></trkpt><trkpt lat="45.4089252" lon="10.5397182"><ele>133.0</ele><time>2026-04-21T12:56:28.932Z</time></trkpt><trkpt lat="45.4090114" lon="10.5397742"><ele>133.0</ele><time>2026-04-21T12:57:10.936Z</time></trkpt><trkpt lat="45.4089266" lon="10.5397993"><ele>133.0</ele><time>2026-04-21T12:58:47.932Z</time></trkpt><trkpt lat="45.4089177" lon="10.5398986"><ele>133.0</ele><time>2026-04-21T13:00:26.934Z</time></trkpt><trkpt lat="45.4089411" lon="10.5397858"><ele>133.0</ele><time>2026-04-21T13:01:31.93Z</time></trkpt><trkpt lat="45.4089611" lon="10.5396806"><ele>133.0</ele><time>2026-04-21T13:01:35.942Z</time></trkpt><trkpt lat="45.4090122" lon="10.539604"><ele>133.0</ele><time>2026-04-21T13:01:38.935Z</time></trkpt><trkpt lat="45.4089329" lon="10.5396093"><ele>133.0</ele><time>2026-04-21T13:01:52.938Z</time></trkpt><trkpt lat="45.4090105" lon="10.5396091"><ele>133.0</ele><time>2026-04-21T13:02:21.932Z</time></trkpt><trkpt lat="45.4090646" lon="10.5397008"><ele>133.0</ele><time>2026-04-21T13:02:30.935Z</time></trkpt><trkpt lat="45.4090437" lon="10.5397909"><ele>133.0</ele><time>2026-04-21T13:02:44.934Z</time></trkpt><trkpt lat="45.4089895" lon="10.5398437"><ele>133.0</ele><time>2026-04-21T13:02:49.941Z</time></trkpt><trkpt lat="45.4090033" lon="10.5397559"><ele>133.0</ele><time>2026-04-21T13:04:01.942Z</time></trkpt><trkpt lat="45.4089787" lon="10.5398398"><ele>133.0</ele><time>2026-04-21T13:04:57.933Z</time></trkpt><trkpt lat="45.4089096" lon="10.5398222"><ele>133.0</ele><time>2026-04-21T13:05:59.94Z</time></trkpt><trkpt lat="45.4088333" lon="10.5398545"><ele>133.0</ele><time>2026-04-21T13:07:12.942Z</time></trkpt><trkpt lat="45.40874" lon="10.5399029"><ele>133.0</ele><time>2026-04-21T13:07:14.93Z</time></trkpt><trkpt lat="45.4087706" lon="10.5398113"><ele>133.0</ele><time>2026-04-21T13:07:26.94Z</time></trkpt><trkpt lat="45.4088585" lon="10.5397847"><ele>133.0</ele><time>2026-04-21T13:08:28.934Z</time></trkpt><trkpt lat="45.4089134" lon="10.5397323"><ele>133.0</ele><time>2026-04-21T13:08:44.934Z</time></trkpt><trkpt lat="45.4089739" lon="10.5398008"><ele>133.0</ele><time>2026-04-21T13:09:24.934Z</time></trkpt><trkpt lat="45.4089122" lon="10.5397753"><ele>133.0</ele><time>2026-04-21T13:12:24.931Z</time></trkpt><trkpt lat="45.4089759" lon="10.5397725"><ele>133.0</ele><time>2026-04-21T13:13:57.938Z</time></trkpt><trkpt lat="45.4090738" lon="10.5397196"><ele>133.0</ele><time>2026-04-21T13:14:58.932Z</time></trkpt><trkpt lat="45.4090528" lon="10.5398204"><ele>133.0</ele><time>2026-04-21T13:15:11.942Z</time></trkpt><trkpt lat="45.4089827" lon="10.5398009"><ele>133.0</ele><time>2026-04-21T13:15:30.934Z</time></trkpt><trkpt lat="45.4090244" lon="10.5397092"><ele>133.0</ele><time>2026-04-21T13:15:55.931Z</time></trkpt><trkpt lat="45.4090113" lon="10.5398008"><ele>133.0</ele><time>2026-04-21T13:16:31.941Z</time></trkpt><trkpt lat="45.4089305" lon="10.5397657"><ele>133.0</ele><time>2026-04-21T13:19:32.937Z</time></trkpt><trkpt lat="45.4090083" lon="10.53977"><ele>133.0</ele><time>2026-04-21T13:21:39.939Z</time></trkpt><trkpt lat="45.4089244" lon="10.539781"><ele>133.0</ele><time>2026-04-21T13:22:08.937Z</time></trkpt><trkpt lat="45.4089792" lon="10.5398721"><ele>133.0</ele><time>2026-04-21T13:22:51.931Z</time></trkpt><trkpt lat="45.4089046" lon="10.5398311"><ele>133.0</ele><time>2026-04-21T13:23:16.93Z</time></trkpt><trkpt lat="45.4088644" lon="10.5399251"><ele>133.0</ele><time>2026-04-21T13:23:44.93Z</time></trkpt><trkpt lat="45.4089178" lon="10.5398719"><ele>133.0</ele><time>2026-04-21T13:24:07.943Z</time></trkpt><trkpt lat="45.4089496" lon="10.5397724"><ele>133.0</ele><time>2026-04-21T13:25:37.942Z</time></trkpt><trkpt lat="45.4090052" lon="10.5397237"><ele>133.0</ele><time>2026-04-21T13:27:32.937Z</time></trkpt><trkpt lat="45.4090538" lon="10.5397894"><ele>133.0</ele><time>2026-04-21T13:28:30.934Z</time></trkpt><trkpt lat="45.4090396" lon="10.5398876"><ele>133.0</ele><time>2026-04-21T13:29:37.933Z</time></trkpt><trkpt lat="45.408987" lon="10.5398348"><ele>133.0</ele><time>2026-04-21T13:29:59.932Z</time></trkpt><trkpt lat="45.4089284" lon="10.5397691"><ele>133.0</ele><time>2026-04-21T13:30:20.936Z</time></trkpt><trkpt lat="45.4089649" lon="10.5398445"><ele>133.0</ele><time>2026-04-21T13:31:39.93Z</time></trkpt><trkpt lat="45.4089383" lon="10.539755"><ele>133.0</ele><time>2026-04-21T13:33:04.941Z</time></trkpt><trkpt lat="45.4088985" lon="10.5396821"><ele>133.0</ele><time>2026-04-21T13:33:30.933Z</time></trkpt><trkpt lat="45.4088164" lon="10.5396832"><ele>133.0</ele><time>2026-04-21T13:34:02.934Z</time></trkpt><trkpt lat="45.408898" lon="10.5397055"><ele>133.0</ele><time>2026-04-21T13:34:25.942Z</time></trkpt><trkpt lat="45.4089684" lon="10.5397124"><ele>133.0</ele><time>2026-04-21T13:35:23.928Z</time></trkpt><trkpt lat="45.40904" lon="10.5397418"><ele>133.0</ele><time>2026-04-21T13:35:28.932Z</time></trkpt><trkpt lat="45.4091087" lon="10.5397821"><ele>133.0</ele><time>2026-04-21T13:35:33.934Z</time></trkpt><trkpt lat="45.4090297" lon="10.539798"><ele>133.0</ele><time>2026-04-21T13:35:42.932Z</time></trkpt><trkpt lat="45.4089585" lon="10.539778"><ele>133.0</ele><time>2026-04-21T13:35:46.942Z</time></trkpt><trkpt lat="45.4088906" lon="10.5397616"><ele>133.0</ele><time>2026-04-21T13:36:08.933Z</time></trkpt><trkpt lat="45.408823" lon="10.5397508"><ele>133.0</ele><time>2026-04-21T13:36:12.94Z</time></trkpt><trkpt lat="45.408749" lon="10.5397445"><ele>133.0</ele><time>2026-04-21T13:36:17.931Z</time></trkpt><trkpt lat="45.4088527" lon="10.539693"><ele>133.0</ele><time>2026-04-21T13:37:04.933Z</time></trkpt><trkpt lat="45.4089111" lon="10.5397704"><ele>133.0</ele><time>2026-04-21T13:37:21.929Z</time></trkpt><trkpt lat="45.4090195" lon="10.5397846"><ele>133.0</ele><time>2026-04-21T13:37:45.929Z</time></trkpt><trkpt lat="45.4090843" lon="10.5397787"><ele>133.0</ele><time>2026-04-21T13:39:25.942Z</time></trkpt><trkpt lat="45.4091548" lon="10.5397429"><ele>133.0</ele><time>2026-04-21T13:39:29.937Z</time></trkpt><trkpt lat="45.409248" lon="10.5397333"><ele>133.0</ele><time>2026-04-21T13:40:26.938Z</time></trkpt><trkpt lat="45.4093171" lon="10.5397978"><ele>133.0</ele><time>2026-04-21T13:40:55.938Z</time></trkpt><trkpt lat="45.4092559" lon="10.5398242"><ele>133.0</ele><time>2026-04-21T13:41:12.938Z</time></trkpt><trkpt lat="45.4091655" lon="10.5398449"><ele>133.0</ele><time>2026-04-21T13:41:16.933Z</time></trkpt><trkpt lat="45.4091028" lon="10.5398314"><ele>133.0</ele><time>2026-04-21T13:41:20.936Z</time></trkpt><trkpt lat="45.4090281" lon="10.5397879"><ele>133.0</ele><time>2026-04-21T13:41:31.94Z</time></trkpt><trkpt lat="45.4089349" lon="10.5397521"><ele>133.0</ele><time>2026-04-21T13:41:49.932Z</time></trkpt><trkpt lat="45.4089996" lon="10.5397508"><ele>133.0</ele><time>2026-04-21T13:43:16.935Z</time></trkpt><trkpt lat="45.4089808" lon="10.5396639"><ele>133.0</ele><time>2026-04-21T13:43:30.941Z</time></trkpt><trkpt lat="45.4089633" lon="10.5397617"><ele>133.0</ele><time>2026-04-21T13:45:28.931Z</time></trkpt><trkpt lat="45.4089445" lon="10.5398626"><ele>133.0</ele><time>2026-04-21T13:47:59.939Z</time></trkpt><trkpt lat="45.4088806" lon="10.5397888"><ele>133.0</ele><time>2026-04-21T13:51:55.942Z</time></trkpt><trkpt lat="45.4089384" lon="10.5398335"><ele>133.0</ele><time>2026-04-21T13:53:47.937Z</time></trkpt><trkpt lat="45.4088412" lon="10.5397569"><ele>133.0</ele><time>2026-04-21T13:55:29.939Z</time></trkpt><trkpt lat="45.4088472" lon="10.539664"><ele>133.0</ele><time>2026-04-21T13:55:55.936Z</time></trkpt><trkpt lat="45.4089104" lon="10.5396737"><ele>133.0</ele><time>2026-04-21T13:56:34.939Z</time></trkpt><trkpt lat="45.4089375" lon="10.5397617"><ele>133.0</ele><time>2026-04-21T13:58:08.937Z</time></trkpt><trkpt lat="45.4088601" lon="10.5397731"><ele>133.0</ele><time>2026-04-21T13:58:13.937Z</time></trkpt><trkpt lat="45.4087516" lon="10.5396914"><ele>133.0</ele><time>2026-04-21T13:58:29.93Z</time></trkpt><trkpt lat="45.40881" lon="10.5397267"><ele>133.0</ele><time>2026-04-21T13:58:46.933Z</time></trkpt><trkpt lat="45.4088703" lon="10.5397849"><ele>133.0</ele><time>2026-04-21T13:58:48.94Z</time></trkpt><trkpt lat="45.4089236" lon="10.5398373"><ele>133.0</ele><time>2026-04-21T13:59:51.93Z</time></trkpt><trkpt lat="45.409003" lon="10.5398298"><ele>133.0</ele><time>2026-04-21T14:01:39.939Z</time></trkpt><trkpt lat="45.4089428" lon="10.5398016"><ele>133.0</ele><time>2026-04-21T14:02:08.934Z</time></trkpt><trkpt lat="45.4088715" lon="10.539844"><ele>133.0</ele><time>2026-04-21T14:08:26.934Z</time></trkpt><trkpt lat="45.408968" lon="10.5397969"><ele>133.0</ele><time>2026-04-21T14:08:50.934Z</time></trkpt><trkpt lat="45.4088895" lon="10.5398306"><ele>133.0</ele><time>2026-04-21T14:12:16.935Z</time></trkpt><trkpt lat="45.4088189" lon="10.5398247"><ele>133.0</ele><time>2026-04-21T14:12:40.934Z</time></trkpt><trkpt lat="45.408897" lon="10.5397367"><ele>133.0</ele><time>2026-04-21T14:14:10.936Z</time></trkpt><trkpt lat="45.4089657" lon="10.5397882"><ele>133.0</ele><time>2026-04-21T14:14:19.931Z</time></trkpt><trkpt lat="45.4088857" lon="10.5397609"><ele>133.0</ele><time>2026-04-21T14:15:50.932Z</time></trkpt><trkpt lat="45.4088131" lon="10.5397892"><ele>133.0</ele><time>2026-04-21T14:16:00.93Z</time></trkpt><trkpt lat="45.408912" lon="10.5398196"><ele>133.0</ele><time>2026-04-21T14:16:40.94Z</time></trkpt><trkpt lat="45.4090032" lon="10.5398223"><ele>133.0</ele><time>2026-04-21T14:17:07.939Z</time></trkpt><trkpt lat="45.408955" lon="10.5399007"><ele>133.0</ele><time>2026-04-21T14:17:37.934Z</time></trkpt><trkpt lat="45.4089257" lon="10.5398205"><ele>133.0</ele><time>2026-04-21T14:18:02.933Z</time></trkpt><trkpt lat="45.4089954" lon="10.5398276"><ele>133.0</ele><time>2026-04-21T14:18:44.934Z</time></trkpt><trkpt lat="45.4089317" lon="10.5397832"><ele>133.0</ele><time>2026-04-21T14:19:02.938Z</time></trkpt><trkpt lat="45.4088703" lon="10.5397246"><ele>133.0</ele><time>2026-04-21T14:19:09.932Z</time></trkpt><trkpt lat="45.4089342" lon="10.5397364"><ele>133.0</ele><time>2026-04-21T14:19:19.934Z</time></trkpt><trkpt lat="45.408976" lon="10.5398226"><ele>133.0</ele><time>2026-04-21T14:20:58.943Z</time></trkpt><trkpt lat="45.4089198" lon="10.5398728"><ele>133.0</ele><time>2026-04-21T14:21:28.93Z</time></trkpt><trkpt lat="45.4089433" lon="10.5399663"><ele>133.0</ele><time>2026-04-21T14:23:03.929Z</time></trkpt><trkpt lat="45.4089242" lon="10.5398773"><ele>133.0</ele><time>2026-04-21T14:24:10.94Z</time></trkpt><trkpt lat="45.408886" lon="10.5397986"><ele>133.0</ele><time>2026-04-21T14:24:46.93Z</time></trkpt><trkpt lat="45.4088248" lon="10.5397675"><ele>133.0</ele><time>2026-04-21T14:25:01.937Z</time></trkpt><trkpt lat="45.4087597" lon="10.5397459"><ele>133.0</ele><time>2026-04-21T14:25:05.932Z</time></trkpt><trkpt lat="45.4088332" lon="10.5398431"><ele>133.0</ele><time>2026-04-21T14:25:24.936Z</time></trkpt><trkpt lat="45.4088816" lon="10.5397625"><ele>133.0</ele><time>2026-04-21T14:25:42.923Z</time></trkpt><trkpt lat="45.4088195" lon="10.5397439"><ele>133.0</ele><time>2026-04-21T14:26:43.945Z</time></trkpt><trkpt lat="45.4087464" lon="10.5397294"><ele>133.0</ele><time>2026-04-21T14:26:55.94Z</time></trkpt><trkpt lat="45.4086736" lon="10.5396962"><ele>133.0</ele><time>2026-04-21T14:27:01.939Z</time></trkpt><trkpt lat="45.4087504" lon="10.5397368"><ele>133.0</ele><time>2026-04-21T14:27:15.928Z</time></trkpt><trkpt lat="45.4088196" lon="10.5397627"><ele>133.0</ele><time>2026-04-21T14:27:23.932Z</time></trkpt><trkpt lat="45.4088748" lon="10.5398245"><ele>133.0</ele><time>2026-04-21T14:27:29.931Z</time></trkpt><trkpt lat="45.4087868" lon="10.5398086"><ele>133.0</ele><time>2026-04-21T14:27:51.935Z</time></trkpt><trkpt lat="45.4088464" lon="10.5397682"><ele>133.0</ele><time>2026-04-21T14:28:07.931Z</time></trkpt><trkpt lat="45.4089562" lon="10.5398462"><ele>133.0</ele><time>2026-04-21T14:28:52.936Z</time></trkpt><trkpt lat="45.4088814" lon="10.5398329"><ele>133.0</ele><time>2026-04-21T14:29:00.93Z</time></trkpt><trkpt lat="45.4088201" lon="10.5397858"><ele>133.0</ele><time>2026-04-21T14:29:03.939Z</time></trkpt><trkpt lat="45.4088858" lon="10.5397403"><ele>133.0</ele><time>2026-04-21T14:29:10.939Z</time></trkpt><trkpt lat="45.4089657" lon="10.5397412"><ele>133.0</ele><time>2026-04-21T14:29:17.927Z</time></trkpt><trkpt lat="45.4090248" lon="10.5397916"><ele>133.0</ele><time>2026-04-21T14:29:50.936Z</time></trkpt><trkpt lat="45.4091005" lon="10.5399005"><ele>133.0</ele><time>2026-04-21T14:29:57.925Z</time></trkpt><trkpt lat="45.4090545" lon="10.5398357"><ele>133.0</ele><time>2026-04-21T14:30:16.938Z</time></trkpt><trkpt lat="45.4089945" lon="10.539796"><ele>133.0</ele><time>2026-04-21T14:30:36.928Z</time></trkpt><trkpt lat="45.4089258" lon="10.5398187"><ele>133.0</ele><time>2026-04-21T14:30:41.934Z</time></trkpt><trkpt lat="45.4088535" lon="10.539831"><ele>133.0</ele><time>2026-04-21T14:30:56.939Z</time></trkpt><trkpt lat="45.4089088" lon="10.5397833"><ele>133.0</ele><time>2026-04-21T14:30:59.942Z</time></trkpt><trkpt lat="45.4089776" lon="10.5397731"><ele>133.0</ele><time>2026-04-21T14:31:35.929Z</time></trkpt><trkpt lat="45.4090664" lon="10.5397932"><ele>133.0</ele><time>2026-04-21T14:31:40.926Z</time></trkpt><trkpt lat="45.4091489" lon="10.5398425"><ele>133.0</ele><time>2026-04-21T14:31:59.935Z</time></trkpt><trkpt lat="45.4092105" lon="10.5398619"><ele>133.0</ele><time>2026-04-21T14:32:05.924Z</time></trkpt><trkpt lat="45.4092805" lon="10.5399346"><ele>133.0</ele><time>2026-04-21T14:32:35.934Z</time></trkpt><trkpt lat="45.4093506" lon="10.5399602"><ele>133.0</ele><time>2026-04-21T14:32:36.936Z</time></trkpt><trkpt lat="45.4093328" lon="10.539868"><ele>133.0</ele><time>2026-04-21T14:32:52.94Z</time></trkpt><trkpt lat="45.4092653" lon="10.5398778"><ele>133.0</ele><time>2026-04-21T14:33:00.933Z</time></trkpt><trkpt lat="45.4091902" lon="10.5398878"><ele>133.0</ele><time>2026-04-21T14:33:03.933Z</time></trkpt><trkpt lat="45.4091307" lon="10.5399311"><ele>133.0</ele><time>2026-04-21T14:33:12.927Z</time></trkpt><trkpt lat="45.4090641" lon="10.5399221"><ele>133.0</ele><time>2026-04-21T14:33:17.939Z</time></trkpt><trkpt lat="45.4089985" lon="10.5399129"><ele>133.0</ele><time>2026-04-21T14:33:23.935Z</time></trkpt><trkpt lat="45.4089344" lon="10.5398849"><ele>133.0</ele><time>2026-04-21T14:33:32.939Z</time></trkpt><trkpt lat="45.4090264" lon="10.5399009"><ele>133.0</ele><time>2026-04-21T14:34:02.938Z</time></trkpt><trkpt lat="45.4089806" lon="10.539828"><ele>133.0</ele><time>2026-04-21T14:34:10.941Z</time></trkpt><trkpt lat="45.4088488" lon="10.53984"><ele>133.0</ele><time>2026-04-21T14:34:19.938Z</time></trkpt><trkpt lat="45.4089085" lon="10.5399116"><ele>133.0</ele><time>2026-04-21T14:34:26.935Z</time></trkpt><trkpt lat="45.408857" lon="10.5398333"><ele>133.0</ele><time>2026-04-21T14:35:05.931Z</time></trkpt><trkpt lat="45.4087939" lon="10.5398456"><ele>133.0</ele><time>2026-04-21T14:35:17.935Z</time></trkpt><trkpt lat="45.4087066" lon="10.5398493"><ele>133.0</ele><time>2026-04-21T14:35:22.928Z</time></trkpt><trkpt lat="45.4088" lon="10.5398468"><ele>133.0</ele><time>2026-04-21T14:35:40.935Z</time></trkpt><trkpt lat="45.4088822" lon="10.5398592"><ele>133.0</ele><time>2026-04-21T14:35:57.936Z</time></trkpt><trkpt lat="45.4088044" lon="10.5398022"><ele>133.0</ele><time>2026-04-21T14:36:27.93Z</time></trkpt><trkpt lat="45.4088554" lon="10.5397443"><ele>133.0</ele><time>2026-04-21T14:36:33.929Z</time></trkpt><trkpt lat="45.4088917" lon="10.5398377"><ele>133.0</ele><time>2026-04-21T14:37:19.939Z</time></trkpt><trkpt lat="45.4088322" lon="10.5397958"><ele>133.0</ele><time>2026-04-21T14:37:26.933Z</time></trkpt><trkpt lat="45.4089422" lon="10.5397471"><ele>133.0</ele><time>2026-04-21T14:38:57.933Z</time></trkpt><trkpt lat="45.4089711" lon="10.5398297"><ele>133.0</ele><time>2026-04-21T14:39:44.932Z</time></trkpt><trkpt lat="45.4089009" lon="10.5398169"><ele>133.0</ele><time>2026-04-21T14:40:13.933Z</time></trkpt><trkpt lat="45.4089665" lon="10.5397979"><ele>133.0</ele><time>2026-04-21T14:40:40.932Z</time></trkpt><trkpt lat="45.4090098" lon="10.5396835"><ele>133.0</ele><time>2026-04-21T14:41:11.927Z</time></trkpt><trkpt lat="45.408953" lon="10.5397389"><ele>133.0</ele><time>2026-04-21T14:41:23.939Z</time></trkpt><trkpt lat="45.4089026" lon="10.5398093"><ele>133.0</ele><time>2026-04-21T14:42:10.94Z</time></trkpt><trkpt lat="45.4089668" lon="10.5398216"><ele>133.0</ele><time>2026-04-21T14:42:47.93Z</time></trkpt><trkpt lat="45.408901" lon="10.5398078"><ele>133.0</ele><time>2026-04-21T14:43:24.933Z</time></trkpt><trkpt lat="45.4088626" lon="10.539958"><ele>133.0</ele><time>2026-04-21T14:43:39.94Z</time></trkpt><trkpt lat="45.4089286" lon="10.5398945"><ele>133.0</ele><time>2026-04-21T14:43:49.938Z</time></trkpt><trkpt lat="45.4089689" lon="10.5398207"><ele>133.0</ele><time>2026-04-21T14:43:51.934Z</time></trkpt><trkpt lat="45.4089506" lon="10.5397333"><ele>133.0</ele><time>2026-04-21T14:46:23.937Z</time></trkpt><trkpt lat="45.40889" lon="10.5396714"><ele>133.0</ele><time>2026-04-21T14:47:26.928Z</time></trkpt><trkpt lat="45.4089092" lon="10.5395391"><ele>132.33333333333334</ele><time>2026-04-21T14:47:27.937Z</time></trkpt><trkpt lat="45.4089551" lon="10.5394478"><ele>131.66666666666669</ele><time>2026-04-21T14:47:29.933Z</time></trkpt><trkpt lat="45.4090122" lon="10.5393773"><ele>131.0</ele><time>2026-04-21T14:47:33.929Z</time></trkpt><trkpt lat="45.4090622" lon="10.5393046"><ele>130.33333333333334</ele><time>2026-04-21T14:47:36.93Z</time></trkpt><trkpt lat="45.4091087" lon="10.5392386"><ele>129.66666666666666</ele><time>2026-04-21T14:47:38.928Z</time></trkpt><trkpt lat="45.4091621" lon="10.5392863"><ele>129.0</ele><time>2026-04-21T14:47:44.924Z</time></trkpt><trkpt lat="45.4091209" lon="10.5394292"><ele>129.0</ele><time>2026-04-21T14:48:05.937Z</time></trkpt><trkpt lat="45.4090578" lon="10.5395181"><ele>129.0</ele><time>2026-04-21T14:48:08.927Z</time></trkpt><trkpt lat="45.4090158" lon="10.5395853"><ele>129.0</ele><time>2026-04-21T14:48:15.936Z</time></trkpt><trkpt lat="45.4089394" lon="10.5395771"><ele>129.0</ele><time>2026-04-21T14:48:21.932Z</time></trkpt><trkpt lat="45.4088826" lon="10.5396339"><ele>129.0</ele><time>2026-04-21T14:48:25.93Z</time></trkpt><trkpt lat="45.408949" lon="10.5396389"><ele>129.0</ele><time>2026-04-21T14:49:23.929Z</time></trkpt><trkpt lat="45.4090064" lon="10.5397309"><ele>129.66666666666666</ele><time>2026-04-21T14:50:10.93Z</time></trkpt><trkpt lat="45.4089459" lon="10.5396953"><ele>130.33333333333334</ele><time>2026-04-21T14:51:20.937Z</time></trkpt><trkpt lat="45.4089032" lon="10.5396252"><ele>131.0</ele><time>2026-04-21T14:51:30.936Z</time></trkpt><trkpt lat="45.4088804" lon="10.5397094"><ele>131.66666666666669</ele><time>2026-04-21T14:51:40.936Z</time></trkpt><trkpt lat="45.4087809" lon="10.5396953"><ele>132.33333333333334</ele><time>2026-04-21T14:53:36.93Z</time></trkpt><trkpt lat="45.4088408" lon="10.5397589"><ele>133.0</ele><time>2026-04-21T14:54:19.929Z</time></trkpt><trkpt lat="45.4089281" lon="10.539812"><ele>133.0</ele><time>2026-04-21T14:54:30.95Z</time></trkpt><trkpt lat="45.4089975" lon="10.539858"><ele>133.0</ele><time>2026-04-21T14:54:32.927Z</time></trkpt><trkpt lat="45.4089424" lon="10.5397934"><ele>133.0</ele><time>2026-04-21T14:54:39.926Z</time></trkpt><trkpt lat="45.4088842" lon="10.5397442"><ele>133.0</ele><time>2026-04-21T14:54:43.922Z</time></trkpt><trkpt lat="45.4088198" lon="10.5396649"><ele>133.0</ele><time>2026-04-21T14:54:48.942Z</time></trkpt><trkpt lat="45.4087715" lon="10.5395944"><ele>133.0</ele><time>2026-04-21T14:54:50.946Z</time></trkpt><trkpt lat="45.4088311" lon="10.5395458"><ele>133.0</ele><time>2026-04-21T14:54:54.943Z</time></trkpt><trkpt lat="45.4088905" lon="10.5395968"><ele>133.0</ele><time>2026-04-21T14:54:57.943Z</time></trkpt><trkpt lat="45.4089459" lon="10.5396437"><ele>133.0</ele><time>2026-04-21T14:54:59.942Z</time></trkpt><trkpt lat="45.4089985" lon="10.5397075"><ele>133.0</ele><time>2026-04-21T14:55:03.926Z</time></trkpt><trkpt lat="45.4090528" lon="10.5398025"><ele>133.0</ele><time>2026-04-21T14:55:13.93Z</time></trkpt><trkpt lat="45.408999" lon="10.5398566"><ele>133.0</ele><time>2026-04-21T14:56:02.928Z</time></trkpt><trkpt lat="45.4090582" lon="10.5399004"><ele>133.0</ele><time>2026-04-21T14:56:27.923Z</time></trkpt><trkpt lat="45.4089961" lon="10.53992"><ele>133.0</ele><time>2026-04-21T14:56:34.932Z</time></trkpt><trkpt lat="45.4089071" lon="10.5398601"><ele>133.0</ele><time>2026-04-21T14:56:46.94Z</time></trkpt><trkpt lat="45.4089788" lon="10.539846"><ele>133.0</ele><time>2026-04-21T14:57:25.935Z</time></trkpt><trkpt lat="45.4089498" lon="10.5397543"><ele>133.0</ele><time>2026-04-21T14:57:45.933Z</time></trkpt><trkpt lat="45.4089582" lon="10.5396651"><ele>133.0</ele><time>2026-04-21T14:58:05.932Z</time></trkpt><trkpt lat="45.4089333" lon="10.5395556"><ele>133.0</ele><time>2026-04-21T14:58:09.933Z</time></trkpt><trkpt lat="45.40888" lon="10.5395022"><ele>133.0</ele><time>2026-04-21T14:58:16.942Z</time></trkpt><trkpt lat="45.4088984" lon="10.5395884"><ele>133.0</ele><time>2026-04-21T14:58:24.926Z</time></trkpt><trkpt lat="45.4088855" lon="10.5397384"><ele>133.0</ele><time>2026-04-21T14:58:36.929Z</time></trkpt><trkpt lat="45.4089077" lon="10.5398232"><ele>133.0</ele><time>2026-04-21T14:58:56.931Z</time></trkpt><trkpt lat="45.4089612" lon="10.5399203"><ele>133.0</ele><time>2026-04-21T14:58:58.934Z</time></trkpt><trkpt lat="45.4090134" lon="10.5399966"><ele>133.0</ele><time>2026-04-21T14:59:09.926Z</time></trkpt><trkpt lat="45.408998" lon="10.5399049"><ele>133.0</ele><time>2026-04-21T15:00:06.933Z</time></trkpt><trkpt lat="45.4090017" lon="10.5397324"><ele>133.0</ele><time>2026-04-21T15:00:22.928Z</time></trkpt><trkpt lat="45.4091008" lon="10.5397509"><ele>133.0</ele><time>2026-04-21T15:00:52.942Z</time></trkpt><trkpt lat="45.4090341" lon="10.5397482"><ele>133.0</ele><time>2026-04-21T15:01:13.939Z</time></trkpt><trkpt lat="45.4089901" lon="10.5398441"><ele>133.0</ele><time>2026-04-21T15:01:38.941Z</time></trkpt><trkpt lat="45.4089268" lon="10.5398475"><ele>133.0</ele><time>2026-04-21T15:02:29.932Z</time></trkpt><trkpt lat="45.4090042" lon="10.5399019"><ele>133.0</ele><time>2026-04-21T15:05:38.937Z</time></trkpt><trkpt lat="45.4089553" lon="10.5398317"><ele>133.0</ele><time>2026-04-21T15:05:49.932Z</time></trkpt><trkpt lat="45.4089032" lon="10.5397566"><ele>133.0</ele><time>2026-04-21T15:07:04.935Z</time></trkpt><trkpt lat="45.4089526" lon="10.539842"><ele>133.0</ele><time>2026-04-21T15:07:19.933Z</time></trkpt><trkpt lat="45.4089945" lon="10.539911"><ele>133.0</ele><time>2026-04-21T15:07:30.939Z</time></trkpt><trkpt lat="45.409068" lon="10.5399837"><ele>133.0</ele><time>2026-04-21T15:07:34.928Z</time></trkpt><trkpt lat="45.4090009" lon="10.5399429"><ele>133.0</ele><time>2026-04-21T15:07:44.934Z</time></trkpt><trkpt lat="45.4089385" lon="10.5398482"><ele>133.0</ele><time>2026-04-21T15:07:47.934Z</time></trkpt><trkpt lat="45.4088736" lon="10.5398538"><ele>133.0</ele><time>2026-04-21T15:08:09.937Z</time></trkpt><trkpt lat="45.4089041" lon="10.5399653"><ele>133.0</ele><time>2026-04-21T15:08:24.93Z</time></trkpt><trkpt lat="45.4089035" lon="10.5398055"><ele>133.0</ele><time>2026-04-21T15:09:05.932Z</time></trkpt><trkpt lat="45.4089518" lon="10.5399534"><ele>133.0</ele><time>2026-04-21T15:09:26.932Z</time></trkpt><trkpt lat="45.4089434" lon="10.5400574"><ele>133.0</ele><time>2026-04-21T15:09:38.931Z</time></trkpt><trkpt lat="45.4089077" lon="10.5399556"><ele>133.0</ele><time>2026-04-21T15:09:46.928Z</time></trkpt><trkpt lat="45.4088657" lon="10.5398863"><ele>133.0</ele><time>2026-04-21T15:09:57.935Z</time></trkpt><trkpt lat="45.4088431" lon="10.5397472"><ele>133.0</ele><time>2026-04-21T15:10:04.942Z</time></trkpt><trkpt lat="45.4087976" lon="10.5398406"><ele>133.0</ele><time>2026-04-21T15:10:09.928Z</time></trkpt><trkpt lat="45.4088467" lon="10.5397633"><ele>133.0</ele><time>2026-04-21T15:10:35.936Z</time></trkpt><trkpt lat="45.4087797" lon="10.5397604"><ele>133.0</ele><time>2026-04-21T15:11:01.937Z</time></trkpt><trkpt lat="45.4087145" lon="10.5398228"><ele>133.0</ele><time>2026-04-21T15:11:13.929Z</time></trkpt><trkpt lat="45.4087546" lon="10.5397309"><ele>133.0</ele><time>2026-04-21T15:11:34.937Z</time></trkpt><trkpt lat="45.4088213" lon="10.5397645"><ele>133.0</ele><time>2026-04-21T15:11:44.925Z</time></trkpt><trkpt lat="45.4088686" lon="10.5398364"><ele>133.0</ele><time>2026-04-21T15:12:06.931Z</time></trkpt><trkpt lat="45.4089119" lon="10.5400185"><ele>133.0</ele><time>2026-04-21T15:12:16.93Z</time></trkpt><trkpt lat="45.4089333" lon="10.5401084"><ele>133.0</ele><time>2026-04-21T15:12:25.938Z</time></trkpt><trkpt lat="45.4090068" lon="10.5401798"><ele>133.0</ele><time>2026-04-21T15:12:42.925Z</time></trkpt><trkpt lat="45.4089691" lon="10.5399743"><ele>133.0</ele><time>2026-04-21T15:12:46.936Z</time></trkpt><trkpt lat="45.4089204" lon="10.5398751"><ele>133.0</ele><time>2026-04-21T15:12:47.933Z</time></trkpt><trkpt lat="45.4088718" lon="10.5397954"><ele>133.0</ele><time>2026-04-21T15:12:48.926Z</time></trkpt><trkpt lat="45.4089395" lon="10.5397745"><ele>133.0</ele><time>2026-04-21T15:12:53.931Z</time></trkpt><trkpt lat="45.4089173" lon="10.539873"><ele>133.0</ele><time>2026-04-21T15:13:19.929Z</time></trkpt><trkpt lat="45.4088879" lon="10.5399536"><ele>133.0</ele><time>2026-04-21T15:13:26.926Z</time></trkpt><trkpt lat="45.4088227" lon="10.5400194"><ele>133.0</ele><time>2026-04-21T15:13:32.928Z</time></trkpt><trkpt lat="45.4089035" lon="10.539951"><ele>133.0</ele><time>2026-04-21T15:14:01.936Z</time></trkpt><trkpt lat="45.4088407" lon="10.5399847"><ele>133.0</ele><time>2026-04-21T15:14:15.937Z</time></trkpt><trkpt lat="45.4087688" lon="10.5400431"><ele>133.0</ele><time>2026-04-21T15:14:25.942Z</time></trkpt><trkpt lat="45.4087485" lon="10.5399317"><ele>133.0</ele><time>2026-04-21T15:14:30.929Z</time></trkpt><trkpt lat="45.4087528" lon="10.5398264"><ele>133.0</ele><time>2026-04-21T15:14:40.932Z</time></trkpt><trkpt lat="45.408829" lon="10.539879"><ele>133.0</ele><time>2026-04-21T15:14:48.929Z</time></trkpt><trkpt lat="45.4089265" lon="10.5398854"><ele>133.0</ele><time>2026-04-21T15:15:29.946Z</time></trkpt><trkpt lat="45.4088972" lon="10.5397812"><ele>133.0</ele><time>2026-04-21T15:15:44.931Z</time></trkpt><trkpt lat="45.4088555" lon="10.5396522"><ele>133.0</ele><time>2026-04-21T15:15:48.933Z</time></trkpt><trkpt lat="45.4088106" lon="10.5395298"><ele>133.0</ele><time>2026-04-21T15:15:50.927Z</time></trkpt><trkpt lat="45.4088338" lon="10.539623"><ele>133.0</ele><time>2026-04-21T15:16:17.931Z</time></trkpt><trkpt lat="45.4088768" lon="10.5396893"><ele>133.0</ele><time>2026-04-21T15:16:22.929Z</time></trkpt><trkpt lat="45.4088587" lon="10.5397804"><ele>133.0</ele><time>2026-04-21T15:16:34.936Z</time></trkpt><trkpt lat="45.4089282" lon="10.5398025"><ele>133.0</ele><time>2026-04-21T15:19:57.933Z</time></trkpt><trkpt lat="45.4089647" lon="10.5398759"><ele>133.0</ele><time>2026-04-21T15:20:08.933Z</time></trkpt><trkpt lat="45.4088961" lon="10.539889"><ele>133.0</ele><time>2026-04-21T15:20:58.938Z</time></trkpt><trkpt lat="45.4089634" lon="10.539923"><ele>133.0</ele><time>2026-04-21T15:21:26.928Z</time></trkpt><trkpt lat="45.4090224" lon="10.5399891"><ele>133.0</ele><time>2026-04-21T15:22:00.928Z</time></trkpt><trkpt lat="45.4089668" lon="10.5400356"><ele>133.0</ele><time>2026-04-21T15:22:21.928Z</time></trkpt><trkpt lat="45.4089401" lon="10.539951"><ele>133.0</ele><time>2026-04-21T15:22:30.929Z</time></trkpt><trkpt lat="45.4090021" lon="10.5399916"><ele>133.0</ele><time>2026-04-21T15:22:33.943Z</time></trkpt><trkpt lat="45.4090661" lon="10.539958"><ele>133.0</ele><time>2026-04-21T15:22:40.935Z</time></trkpt><trkpt lat="45.4090677" lon="10.539848"><ele>133.0</ele><time>2026-04-21T15:22:46.937Z</time></trkpt><trkpt lat="45.4089987" lon="10.5398285"><ele>133.0</ele><time>2026-04-21T15:22:56.927Z</time></trkpt><trkpt lat="45.4089875" lon="10.5397114"><ele>133.0</ele><time>2026-04-21T15:22:59.933Z</time></trkpt><trkpt lat="45.4089226" lon="10.5397258"><ele>133.0</ele><time>2026-04-21T15:23:54.925Z</time></trkpt><trkpt lat="45.4089717" lon="10.5398218"><ele>133.0</ele><time>2026-04-21T15:24:35.935Z</time></trkpt><trkpt lat="45.4089538" lon="10.5397268"><ele>133.0</ele><time>2026-04-21T15:24:41.922Z</time></trkpt><trkpt lat="45.40902" lon="10.5397019"><ele>133.0</ele><time>2026-04-21T15:24:47.934Z</time></trkpt><trkpt lat="45.4089565" lon="10.5396654"><ele>133.0</ele><time>2026-04-21T15:25:12.938Z</time></trkpt><trkpt lat="45.4089565" lon="10.5395598"><ele>133.0</ele><time>2026-04-21T15:25:19.935Z</time></trkpt><trkpt lat="45.4089194" lon="10.5394477"><ele>133.0</ele><time>2026-04-21T15:25:21.932Z</time></trkpt><trkpt lat="45.4088815" lon="10.5395264"><ele>133.0</ele><time>2026-04-21T15:25:39.931Z</time></trkpt><trkpt lat="45.4089323" lon="10.5395862"><ele>133.0</ele><time>2026-04-21T15:25:43.94Z</time></trkpt><trkpt lat="45.4089662" lon="10.5396816"><ele>133.0</ele><time>2026-04-21T15:26:17.935Z</time></trkpt><trkpt lat="45.4088779" lon="10.5396996"><ele>133.0</ele><time>2026-04-21T15:26:54.926Z</time></trkpt><trkpt lat="45.4088285" lon="10.5396226"><ele>133.0</ele><time>2026-04-21T15:26:57.917Z</time></trkpt><trkpt lat="45.4087779" lon="10.5395452"><ele>133.0</ele><time>2026-04-21T15:27:00.936Z</time></trkpt><trkpt lat="45.408718" lon="10.5394638"><ele>133.0</ele><time>2026-04-21T15:27:03.932Z</time></trkpt><trkpt lat="45.4086514" lon="10.539394"><ele>130.6</ele><time>2026-04-21T15:27:05.923Z</time></trkpt><trkpt lat="45.4085791" lon="10.5393095"><ele>128.20000000000002</ele><time>2026-04-21T15:27:07.931Z</time></trkpt><trkpt lat="45.4085078" lon="10.5392263"><ele>125.8</ele><time>2026-04-21T15:27:09.932Z</time></trkpt><trkpt lat="45.4084704" lon="10.5391315"><ele>123.4</ele><time>2026-04-21T15:27:11.925Z</time></trkpt><trkpt lat="45.4084332" lon="10.5390479"><ele>121.0</ele><time>2026-04-21T15:27:14.93Z</time></trkpt><trkpt lat="45.4085706" lon="10.5391731"><ele>125.0</ele><time>2026-04-21T15:27:15.934Z</time></trkpt><trkpt lat="45.4088616" lon="10.5394437"><ele>129.0</ele><time>2026-04-21T15:27:16.932Z</time></trkpt><trkpt lat="45.4089472" lon="10.5395289"><ele>129.57142857142856</ele><time>2026-04-21T15:27:17.929Z</time></trkpt><trkpt lat="45.4089986" lon="10.5396008"><ele>130.14285714285714</ele><time>2026-04-21T15:27:21.931Z</time></trkpt><trkpt lat="45.4089556" lon="10.539668"><ele>130.71428571428572</ele><time>2026-04-21T15:27:31.936Z</time></trkpt><trkpt lat="45.4089662" lon="10.5397606"><ele>131.28571428571428</ele><time>2026-04-21T15:27:45.932Z</time></trkpt><trkpt lat="45.4090189" lon="10.53981"><ele>131.85714285714286</ele><time>2026-04-21T15:27:48.939Z</time></trkpt><trkpt lat="45.409086" lon="10.5398508"><ele>132.42857142857142</ele><time>2026-04-21T15:27:53.936Z</time></trkpt><trkpt lat="45.409179" lon="10.5399134"><ele>133.0</ele><time>2026-04-21T15:28:02.939Z</time></trkpt><trkpt lat="45.4092512" lon="10.5399581"><ele>133.0</ele><time>2026-04-21T15:28:15.925Z</time></trkpt><trkpt lat="45.4092183" lon="10.5398594"><ele>133.0</ele><time>2026-04-21T15:28:21.929Z</time></trkpt><trkpt lat="45.4091458" lon="10.539842"><ele>133.0</ele><time>2026-04-21T15:28:27.934Z</time></trkpt><trkpt lat="45.4091149" lon="10.5397585"><ele>133.0</ele><time>2026-04-21T15:28:35.931Z</time></trkpt><trkpt lat="45.4090533" lon="10.5397398"><ele>133.0</ele><time>2026-04-21T15:28:44.934Z</time></trkpt><trkpt lat="45.4089823" lon="10.5397265"><ele>133.0</ele><time>2026-04-21T15:28:56.929Z</time></trkpt><trkpt lat="45.4089187" lon="10.5397662"><ele>133.0</ele><time>2026-04-21T15:29:12.927Z</time></trkpt><trkpt lat="45.4088454" lon="10.539696"><ele>133.0</ele><time>2026-04-21T15:29:39.929Z</time></trkpt><trkpt lat="45.4089111" lon="10.5397093"><ele>133.0</ele><time>2026-04-21T15:29:50.938Z</time></trkpt><trkpt lat="45.4088529" lon="10.5397672"><ele>133.0</ele><time>2026-04-21T15:31:22.929Z</time></trkpt><trkpt lat="45.4087825" lon="10.5397569"><ele>133.0</ele><time>2026-04-21T15:31:28.931Z</time></trkpt><trkpt lat="45.4087844" lon="10.5396587"><ele>133.0</ele><time>2026-04-21T15:31:43.936Z</time></trkpt><trkpt lat="45.4087978" lon="10.5395585"><ele>133.0</ele><time>2026-04-21T15:31:47.931Z</time></trkpt><trkpt lat="45.4087601" lon="10.5396625"><ele>133.0</ele><time>2026-04-21T15:32:07.942Z</time></trkpt><trkpt lat="45.4087189" lon="10.5397629"><ele>131.20000000000002</ele><time>2026-04-21T15:32:10.926Z</time></trkpt><trkpt lat="45.4086471" lon="10.5398336"><ele>129.4</ele><time>2026-04-21T15:32:22.927Z</time></trkpt><trkpt lat="45.4086443" lon="10.5399301"><ele>127.60000000000001</ele><time>2026-04-21T15:32:25.929Z</time></trkpt><trkpt lat="45.4086969" lon="10.5398482"><ele>125.80000000000001</ele><time>2026-04-21T15:32:31.934Z</time></trkpt><trkpt lat="45.4087747" lon="10.539647"><ele>124.0</ele><time>2026-04-21T15:32:35.926Z</time></trkpt><trkpt lat="45.4087469" lon="10.5395519"><ele>124.00000000000001</ele><time>2026-04-21T15:32:38.925Z</time></trkpt><trkpt lat="45.4087891" lon="10.5396634"><ele>124.0</ele><time>2026-04-21T15:32:47.93Z</time></trkpt><trkpt lat="45.4088462" lon="10.5397618"><ele>124.0</ele><time>2026-04-21T15:32:55.93Z</time></trkpt><trkpt lat="45.408787" lon="10.5398224"><ele>124.0</ele><time>2026-04-21T15:32:58.936Z</time></trkpt><trkpt lat="45.4089001" lon="10.5398597"><ele>124.00000000000001</ele><time>2026-04-21T15:33:21.938Z</time></trkpt><trkpt lat="45.4088916" lon="10.5397632"><ele>124.0</ele><time>2026-04-21T15:33:37.932Z</time></trkpt><trkpt lat="45.408856" lon="10.5396809"><ele>125.50000000000001</ele><time>2026-04-21T15:33:42.926Z</time></trkpt><trkpt lat="45.4088444" lon="10.539586"><ele>127.0</ele><time>2026-04-21T15:33:45.934Z</time></trkpt><trkpt lat="45.4088999" lon="10.5396788"><ele>128.5</ele><time>2026-04-21T15:33:51.923Z</time></trkpt><trkpt lat="45.4089589" lon="10.5397143"><ele>130.0</ele><time>2026-04-21T15:34:07.926Z</time></trkpt><trkpt lat="45.40908" lon="10.539724"><ele>131.5</ele><time>2026-04-21T15:34:12.929Z</time></trkpt><trkpt lat="45.4091626" lon="10.5397859"><ele>133.0</ele><time>2026-04-21T15:34:19.938Z</time></trkpt><trkpt lat="45.4092383" lon="10.5399241"><ele>133.0</ele><time>2026-04-21T15:34:21.92Z</time></trkpt><trkpt lat="45.40925" lon="10.5400167"><ele>133.0</ele><time>2026-04-21T15:34:29.933Z</time></trkpt><trkpt lat="45.4091551" lon="10.5399356"><ele>133.0</ele><time>2026-04-21T15:34:34.929Z</time></trkpt><trkpt lat="45.4090719" lon="10.5398502"><ele>133.0</ele><time>2026-04-21T15:34:35.927Z</time></trkpt><trkpt lat="45.4090208" lon="10.5397729"><ele>133.0</ele><time>2026-04-21T15:34:36.933Z</time></trkpt><trkpt lat="45.4089362" lon="10.5396901"><ele>133.0</ele><time>2026-04-21T15:34:38.926Z</time></trkpt><trkpt lat="45.4089372" lon="10.5397956"><ele>133.0</ele><time>2026-04-21T15:35:02.926Z</time></trkpt><trkpt lat="45.4088668" lon="10.5398628"><ele>133.0</ele><time>2026-04-21T15:35:09.93Z</time></trkpt><trkpt lat="45.4088309" lon="10.5399813"><ele>133.0</ele><time>2026-04-21T15:35:13.938Z</time></trkpt><trkpt lat="45.4087859" lon="10.5400518"><ele>133.0</ele><time>2026-04-21T15:35:16.93Z</time></trkpt><trkpt lat="45.4087223" lon="10.540066"><ele>133.0</ele><time>2026-04-21T15:35:19.927Z</time></trkpt><trkpt lat="45.4087589" lon="10.5399339"><ele>133.0</ele><time>2026-04-21T15:35:23.934Z</time></trkpt><trkpt lat="45.4088132" lon="10.5398683"><ele>133.0</ele><time>2026-04-21T15:35:26.931Z</time></trkpt><trkpt lat="45.4088787" lon="10.5397565"><ele>133.0</ele><time>2026-04-21T15:35:31.935Z</time></trkpt><trkpt lat="45.4089617" lon="10.5397752"><ele>133.0</ele><time>2026-04-21T15:36:30.932Z</time></trkpt><trkpt lat="45.4089353" lon="10.539616"><ele>133.0</ele><time>2026-04-21T15:36:48.928Z</time></trkpt><trkpt lat="45.408909" lon="10.5395031"><ele>133.0</ele><time>2026-04-21T15:36:50.925Z</time></trkpt><trkpt lat="45.4089328" lon="10.5395865"><ele>133.0</ele><time>2026-04-21T15:37:22.935Z</time></trkpt><trkpt lat="45.4089083" lon="10.5396876"><ele>133.0</ele><time>2026-04-21T15:37:38.925Z</time></trkpt><trkpt lat="45.408855" lon="10.5397477"><ele>133.0</ele><time>2026-04-21T15:37:47.926Z</time></trkpt><trkpt lat="45.4087946" lon="10.5398135"><ele>133.0</ele><time>2026-04-21T15:38:47.921Z</time></trkpt><trkpt lat="45.4087393" lon="10.5398649"><ele>133.0</ele><time>2026-04-21T15:39:05.927Z</time></trkpt><trkpt lat="45.4088091" lon="10.5398448"><ele>133.0</ele><time>2026-04-21T15:39:35.94Z</time></trkpt><trkpt lat="45.4088887" lon="10.5397932"><ele>133.0</ele><time>2026-04-21T15:40:05.92Z</time></trkpt><trkpt lat="45.4088341" lon="10.5398752"><ele>133.0</ele><time>2026-04-21T15:40:17.935Z</time></trkpt><trkpt lat="45.4087646" lon="10.5398807"><ele>133.0</ele><time>2026-04-21T15:40:22.927Z</time></trkpt><trkpt lat="45.4088699" lon="10.5398197"><ele>133.0</ele><time>2026-04-21T15:40:33.916Z</time></trkpt><trkpt lat="45.4088644" lon="10.5399197"><ele>133.0</ele><time>2026-04-21T15:40:46.925Z</time></trkpt><trkpt lat="45.4089034" lon="10.5398408"><ele>133.0</ele><time>2026-04-21T15:40:55.936Z</time></trkpt><trkpt lat="45.4088451" lon="10.5399488"><ele>131.5</ele><time>2026-04-21T15:41:19.934Z</time></trkpt><trkpt lat="45.4087925" lon="10.5400307"><ele>130.0</ele><time>2026-04-21T15:41:20.93Z</time></trkpt><trkpt lat="45.4086926" lon="10.5400601"><ele>128.5</ele><time>2026-04-21T15:41:32.931Z</time></trkpt><trkpt lat="45.4086373" lon="10.5401046"><ele>127.0</ele><time>2026-04-21T15:41:33.917Z</time></trkpt><trkpt lat="45.4085554" lon="10.5401826"><ele>125.50000000000001</ele><time>2026-04-21T15:41:36.924Z</time></trkpt><trkpt lat="45.4084717" lon="10.5402542"><ele>124.0</ele><time>2026-04-21T15:41:39.925Z</time></trkpt><trkpt lat="45.4085283" lon="10.5401696"><ele>124.00000000000001</ele><time>2026-04-21T15:41:43.929Z</time></trkpt><trkpt lat="45.4086259" lon="10.5400605"><ele>124.0</ele><time>2026-04-21T15:41:45.93Z</time></trkpt><trkpt lat="45.4086869" lon="10.5399835"><ele>124.0</ele><time>2026-04-21T15:41:48.929Z</time></trkpt><trkpt lat="45.4087457" lon="10.5399436"><ele>124.0</ele><time>2026-04-21T15:41:50.931Z</time></trkpt><trkpt lat="45.4088021" lon="10.5398985"><ele>124.00000000000001</ele><time>2026-04-21T15:41:53.926Z</time></trkpt><trkpt lat="45.4088761" lon="10.5398457"><ele>124.0</ele><time>2026-04-21T15:41:55.927Z</time></trkpt><trkpt lat="45.4089507" lon="10.5397922"><ele>124.00000000000001</ele><time>2026-04-21T15:42:01.919Z</time></trkpt><trkpt lat="45.4088989" lon="10.5398531"><ele>124.0</ele><time>2026-04-21T15:42:56.935Z</time></trkpt><trkpt lat="45.408832" lon="10.539955"><ele>124.0</ele><time>2026-04-21T15:43:14.925Z</time></trkpt><trkpt lat="45.4087828" lon="10.5398791"><ele>124.0</ele><time>2026-04-21T15:43:35.934Z</time></trkpt><trkpt lat="45.408842" lon="10.5398303"><ele>124.00000000000001</ele><time>2026-04-21T15:43:54.94Z</time></trkpt><trkpt lat="45.4089222" lon="10.5397774"><ele>124.0</ele><time>2026-04-21T15:45:45.932Z</time></trkpt><trkpt lat="45.4089247" lon="10.539683"><ele>125.50000000000001</ele><time>2026-04-21T15:45:50.923Z</time></trkpt><trkpt lat="45.4088503" lon="10.5396895"><ele>127.0</ele><time>2026-04-21T15:46:49.934Z</time></trkpt><trkpt lat="45.4088865" lon="10.5397808"><ele>128.5</ele><time>2026-04-21T15:47:21.94Z</time></trkpt><trkpt lat="45.4089848" lon="10.5397763"><ele>130.0</ele><time>2026-04-21T15:47:34.926Z</time></trkpt><trkpt lat="45.4089192" lon="10.5397828"><ele>131.5</ele><time>2026-04-21T15:48:05.933Z</time></trkpt><trkpt lat="45.4088626" lon="10.5396942"><ele>133.0</ele><time>2026-04-21T15:48:25.925Z</time></trkpt><trkpt lat="45.4089315" lon="10.5397575"><ele>133.0</ele><time>2026-04-21T15:48:59.929Z</time></trkpt><trkpt lat="45.4089994" lon="10.5397853"><ele>133.0</ele><time>2026-04-21T15:49:15.926Z</time></trkpt><trkpt lat="45.4090708" lon="10.539843"><ele>133.0</ele><time>2026-04-21T15:49:23.934Z</time></trkpt><trkpt lat="45.4091946" lon="10.5398941"><ele>133.0</ele><time>2026-04-21T15:49:29.935Z</time></trkpt><trkpt lat="45.4092853" lon="10.5398893"><ele>133.0</ele><time>2026-04-21T15:49:31.926Z</time></trkpt><trkpt lat="45.4092181" lon="10.5397401"><ele>133.0</ele><time>2026-04-21T15:49:42.934Z</time></trkpt><trkpt lat="45.4091997" lon="10.5398266"><ele>133.0</ele><time>2026-04-21T15:49:53.928Z</time></trkpt><trkpt lat="45.4091376" lon="10.5398035"><ele>133.0</ele><time>2026-04-21T15:50:02.927Z</time></trkpt><trkpt lat="45.4090564" lon="10.5397513"><ele>133.0</ele><time>2026-04-21T15:50:05.924Z</time></trkpt><trkpt lat="45.4089963" lon="10.5396798"><ele>133.0</ele><time>2026-04-21T15:50:08.924Z</time></trkpt><trkpt lat="45.408903" lon="10.5396141"><ele>133.0</ele><time>2026-04-21T15:50:11.925Z</time></trkpt><trkpt lat="45.4088354" lon="10.539652"><ele>133.0</ele><time>2026-04-21T15:50:29.932Z</time></trkpt><trkpt lat="45.4089002" lon="10.5397089"><ele>133.0</ele><time>2026-04-21T15:50:52.926Z</time></trkpt><trkpt lat="45.4089487" lon="10.5397882"><ele>133.0</ele><time>2026-04-21T15:52:59.932Z</time></trkpt><trkpt lat="45.4088857" lon="10.5398003"><ele>133.0</ele><time>2026-04-21T15:53:47.934Z</time></trkpt><trkpt lat="45.4089375" lon="10.5398974"><ele>133.0</ele><time>2026-04-21T15:54:15.923Z</time></trkpt><trkpt lat="45.4088624" lon="10.5399631"><ele>133.0</ele><time>2026-04-21T15:54:33.924Z</time></trkpt><trkpt lat="45.4089149" lon="10.5398989"><ele>133.0</ele><time>2026-04-21T15:54:39.93Z</time></trkpt><trkpt lat="45.4089615" lon="10.5398214"><ele>133.0</ele><time>2026-04-21T15:54:55.937Z</time></trkpt><trkpt lat="45.4090366" lon="10.5397614"><ele>133.0</ele><time>2026-04-21T15:55:04.922Z</time></trkpt><trkpt lat="45.4089749" lon="10.5397844"><ele>133.0</ele><time>2026-04-21T15:55:08.928Z</time></trkpt><trkpt lat="45.4088936" lon="10.5398349"><ele>133.0</ele><time>2026-04-21T15:55:24.921Z</time></trkpt><trkpt lat="45.4088301" lon="10.5398806"><ele>133.0</ele><time>2026-04-21T15:55:38.93Z</time></trkpt><trkpt lat="45.4088929" lon="10.539895"><ele>133.0</ele><time>2026-04-21T15:55:45.925Z</time></trkpt><trkpt lat="45.4089897" lon="10.5398968"><ele>133.0</ele><time>2026-04-21T15:55:52.931Z</time></trkpt><trkpt lat="45.4090971" lon="10.5398725"><ele>133.0</ele><time>2026-04-21T15:55:55.927Z</time></trkpt><trkpt lat="45.408969" lon="10.5398552"><ele>133.0</ele><time>2026-04-21T15:56:11.925Z</time></trkpt><trkpt lat="45.4089008" lon="10.5399132"><ele>133.0</ele><time>2026-04-21T15:56:36.915Z</time></trkpt><trkpt lat="45.4089644" lon="10.5398955"><ele>133.0</ele><time>2026-04-21T15:56:57.935Z</time></trkpt><trkpt lat="45.409076" lon="10.5397944"><ele>133.0</ele><time>2026-04-21T15:57:02.934Z</time></trkpt><trkpt lat="45.4091203" lon="10.5397229"><ele>133.0</ele><time>2026-04-21T15:57:03.926Z</time></trkpt><trkpt lat="45.4091751" lon="10.5396782"><ele>133.0</ele><time>2026-04-21T15:57:09.938Z</time></trkpt><trkpt lat="45.4091333" lon="10.5397461"><ele>133.0</ele><time>2026-04-21T15:57:28.932Z</time></trkpt><trkpt lat="45.4091896" lon="10.539638"><ele>133.0</ele><time>2026-04-21T15:57:30.934Z</time></trkpt><trkpt lat="45.409004" lon="10.5397432"><ele>133.0</ele><time>2026-04-21T15:57:36.929Z</time></trkpt><trkpt lat="45.4090478" lon="10.5396736"><ele>133.0</ele><time>2026-04-21T15:58:16.943Z</time></trkpt><trkpt lat="45.4089886" lon="10.5396351"><ele>133.0</ele><time>2026-04-21T15:58:23.936Z</time></trkpt><trkpt lat="45.4089828" lon="10.539738"><ele>133.0</ele><time>2026-04-21T15:58:47.933Z</time></trkpt><trkpt lat="45.4089317" lon="10.5398033"><ele>133.0</ele><time>2026-04-21T16:03:18.928Z</time></trkpt><trkpt lat="45.4088562" lon="10.539788"><ele>133.0</ele><time>2026-04-21T16:04:01.934Z</time></trkpt><trkpt lat="45.4087802" lon="10.5398114"><ele>133.0</ele><time>2026-04-21T16:04:12.925Z</time></trkpt><trkpt lat="45.4086927" lon="10.5398032"><ele>133.0</ele><time>2026-04-21T16:04:15.926Z</time></trkpt><trkpt lat="45.4088029" lon="10.5398452"><ele>133.0</ele><time>2026-04-21T16:04:22.928Z</time></trkpt><trkpt lat="45.4089129" lon="10.5398881"><ele>133.0</ele><time>2026-04-21T16:04:24.936Z</time></trkpt><trkpt lat="45.4089856" lon="10.5398581"><ele>133.0</ele><time>2026-04-21T16:05:05.923Z</time></trkpt><trkpt lat="45.4090522" lon="10.5398343"><ele>133.0</ele><time>2026-04-21T16:05:15.927Z</time></trkpt><trkpt lat="45.4090726" lon="10.5396963"><ele>133.0</ele><time>2026-04-21T16:05:29.923Z</time></trkpt><trkpt lat="45.4090088" lon="10.5396916"><ele>133.0</ele><time>2026-04-21T16:05:40.917Z</time></trkpt><trkpt lat="45.4090339" lon="10.5397854"><ele>133.0</ele><time>2026-04-21T16:05:47.927Z</time></trkpt><trkpt lat="45.4089322" lon="10.5398032"><ele>133.0</ele><time>2026-04-21T16:06:32.929Z</time></trkpt><trkpt lat="45.4088898" lon="10.5397361"><ele>133.0</ele><time>2026-04-21T16:06:45.923Z</time></trkpt><trkpt lat="45.4089547" lon="10.5396513"><ele>133.0</ele><time>2026-04-21T16:06:48.928Z</time></trkpt><trkpt lat="45.4090356" lon="10.5396464"><ele>133.0</ele><time>2026-04-21T16:07:00.924Z</time></trkpt><trkpt lat="45.4090349" lon="10.5397469"><ele>133.0</ele><time>2026-04-21T16:07:13.931Z</time></trkpt><trkpt lat="45.4089597" lon="10.5398077"><ele>133.0</ele><time>2026-04-21T16:07:24.923Z</time></trkpt><trkpt lat="45.4090262" lon="10.5398725"><ele>133.0</ele><time>2026-04-21T16:08:04.924Z</time></trkpt><trkpt lat="45.4090931" lon="10.5398732"><ele>133.0</ele><time>2026-04-21T16:08:09.924Z</time></trkpt><trkpt lat="45.4090296" lon="10.5398408"><ele>133.0</ele><time>2026-04-21T16:08:49.935Z</time></trkpt><trkpt lat="45.4089612" lon="10.5398532"><ele>133.0</ele><time>2026-04-21T16:09:09.927Z</time></trkpt><trkpt lat="45.4089097" lon="10.5397945"><ele>133.0</ele><time>2026-04-21T16:09:12.93Z</time></trkpt><trkpt lat="45.4088412" lon="10.5397639"><ele>133.0</ele><time>2026-04-21T16:09:17.925Z</time></trkpt><trkpt lat="45.4089147" lon="10.5397948"><ele>133.0</ele><time>2026-04-21T16:09:55.935Z</time></trkpt><trkpt lat="45.4088683" lon="10.5398844"><ele>133.0</ele><time>2026-04-21T16:10:07.919Z</time></trkpt><trkpt lat="45.4087998" lon="10.5398891"><ele>133.0</ele><time>2026-04-21T16:10:09.92Z</time></trkpt><trkpt lat="45.4088673" lon="10.5398213"><ele>133.0</ele><time>2026-04-21T16:10:16.918Z</time></trkpt><trkpt lat="45.408866" lon="10.5397229"><ele>133.0</ele><time>2026-04-21T16:10:22.922Z</time></trkpt><trkpt lat="45.4089865" lon="10.5396982"><ele>133.0</ele><time>2026-04-21T16:10:29.931Z</time></trkpt><trkpt lat="45.4091084" lon="10.5397002"><ele>133.0</ele><time>2026-04-21T16:10:31.925Z</time></trkpt><trkpt lat="45.4092248" lon="10.5397121"><ele>133.0</ele><time>2026-04-21T16:10:33.927Z</time></trkpt><trkpt lat="45.4091566" lon="10.5397517"><ele>133.0</ele><time>2026-04-21T16:10:37.937Z</time></trkpt><trkpt lat="45.4090953" lon="10.5397789"><ele>133.0</ele><time>2026-04-21T16:10:40.925Z</time></trkpt><trkpt lat="45.4090118" lon="10.539848"><ele>133.0</ele><time>2026-04-21T16:10:44.931Z</time></trkpt><trkpt lat="45.4089892" lon="10.5399333"><ele>133.0</ele><time>2026-04-21T16:10:50.934Z</time></trkpt><trkpt lat="45.4089326" lon="10.5400141"><ele>133.0</ele><time>2026-04-21T16:10:53.929Z</time></trkpt><trkpt lat="45.408878" lon="10.5399305"><ele>133.0</ele><time>2026-04-21T16:11:14.937Z</time></trkpt><trkpt lat="45.4088307" lon="10.5398494"><ele>133.0</ele><time>2026-04-21T16:11:22.933Z</time></trkpt><trkpt lat="45.4089118" lon="10.5397925"><ele>133.0</ele><time>2026-04-21T16:11:28.923Z</time></trkpt><trkpt lat="45.408845" lon="10.5397474"><ele>133.0</ele><time>2026-04-21T16:11:32.925Z</time></trkpt><trkpt lat="45.4089172" lon="10.539831"><ele>133.0</ele><time>2026-04-21T16:11:36.925Z</time></trkpt><trkpt lat="45.4089695" lon="10.5398998"><ele>133.0</ele><time>2026-04-21T16:11:39.934Z</time></trkpt><trkpt lat="45.408916" lon="10.5398221"><ele>133.0</ele><time>2026-04-21T16:11:56.931Z</time></trkpt><trkpt lat="45.4089888" lon="10.5398448"><ele>133.0</ele><time>2026-04-21T16:12:16.924Z</time></trkpt><trkpt lat="45.4089726" lon="10.5399319"><ele>133.0</ele><time>2026-04-21T16:12:24.922Z</time></trkpt><trkpt lat="45.4088595" lon="10.5399097"><ele>133.0</ele><time>2026-04-21T16:12:26.925Z</time></trkpt><trkpt lat="45.4088042" lon="10.5398516"><ele>133.0</ele><time>2026-04-21T16:12:53.93Z</time></trkpt><trkpt lat="45.4088888" lon="10.5398274"><ele>133.0</ele><time>2026-04-21T16:13:10.926Z</time></trkpt><trkpt lat="45.4089814" lon="10.5398558"><ele>133.0</ele><time>2026-04-21T16:13:16.931Z</time></trkpt><trkpt lat="45.4091045" lon="10.5398879"><ele>133.0</ele><time>2026-04-21T16:13:19.932Z</time></trkpt><trkpt lat="45.40903" lon="10.5398273"><ele>133.0</ele><time>2026-04-21T16:13:26.927Z</time></trkpt><trkpt lat="45.4089567" lon="10.5398085"><ele>133.0</ele><time>2026-04-21T16:13:28.915Z</time></trkpt><trkpt lat="45.4088966" lon="10.5397662"><ele>133.0</ele><time>2026-04-21T16:13:30.942Z</time></trkpt><trkpt lat="45.4088057" lon="10.5397328"><ele>133.0</ele><time>2026-04-21T16:13:33.931Z</time></trkpt><trkpt lat="45.4087442" lon="10.5396914"><ele>133.0</ele><time>2026-04-21T16:13:35.919Z</time></trkpt><trkpt lat="45.4091506" lon="10.539923"><ele>133.0</ele><time>2026-04-21T16:13:55.927Z</time></trkpt><trkpt lat="45.4090668" lon="10.5399114"><ele>133.0</ele><time>2026-04-21T16:14:01.934Z</time></trkpt><trkpt lat="45.4090091" lon="10.5398606"><ele>133.0</ele><time>2026-04-21T16:14:04.925Z</time></trkpt><trkpt lat="45.4089152" lon="10.5397971"><ele>133.0</ele><time>2026-04-21T16:14:07.927Z</time></trkpt><trkpt lat="45.4088512" lon="10.5397824"><ele>133.0</ele><time>2026-04-21T16:14:13.936Z</time></trkpt><trkpt lat="45.4087945" lon="10.5398582"><ele>133.0</ele><time>2026-04-21T16:14:18.924Z</time></trkpt><trkpt lat="45.4088661" lon="10.5398572"><ele>133.0</ele><time>2026-04-21T16:14:42.926Z</time></trkpt><trkpt lat="45.408981" lon="10.539835"><ele>133.0</ele><time>2026-04-21T16:15:22.93Z</time></trkpt><trkpt lat="45.4089291" lon="10.5399229"><ele>133.0</ele><time>2026-04-21T16:15:54.921Z</time></trkpt><trkpt lat="45.4089975" lon="10.5399129"><ele>133.0</ele><time>2026-04-21T16:16:19.929Z</time></trkpt><trkpt lat="45.4089377" lon="10.5399672"><ele>133.0</ele><time>2026-04-21T16:17:27.929Z</time></trkpt><trkpt lat="45.4088773" lon="10.5400105"><ele>133.0</ele><time>2026-04-21T16:17:46.924Z</time></trkpt><trkpt lat="45.4088888" lon="10.5398906"><ele>133.0</ele><time>2026-04-21T16:18:03.924Z</time></trkpt><trkpt lat="45.4088536" lon="10.5398046"><ele>133.0</ele><time>2026-04-21T16:18:12.929Z</time></trkpt><trkpt lat="45.4088203" lon="10.5399326"><ele>133.0</ele><time>2026-04-21T16:18:18.923Z</time></trkpt><trkpt lat="45.4088325" lon="10.5398378"><ele>133.0</ele><time>2026-04-21T16:18:25.931Z</time></trkpt><trkpt lat="45.408928" lon="10.5398273"><ele>133.0</ele><time>2026-04-21T16:18:37.927Z</time></trkpt><trkpt lat="45.4089972" lon="10.5398629"><ele>133.0</ele><time>2026-04-21T16:18:42.924Z</time></trkpt><trkpt lat="45.4090588" lon="10.5398985"><ele>133.0</ele><time>2026-04-21T16:18:47.929Z</time></trkpt><trkpt lat="45.4090128" lon="10.5398188"><ele>133.0</ele><time>2026-04-21T16:19:00.923Z</time></trkpt><trkpt lat="45.408928" lon="10.5398921"><ele>133.0</ele><time>2026-04-21T16:20:24.925Z</time></trkpt><trkpt lat="45.4090159" lon="10.5398499"><ele>133.0</ele><time>2026-04-21T16:21:43.928Z</time></trkpt><trkpt lat="45.4089531" lon="10.5398674"><ele>133.0</ele><time>2026-04-21T16:22:03.924Z</time></trkpt><trkpt lat="45.4088482" lon="10.5398225"><ele>133.0</ele><time>2026-04-21T16:24:01.928Z</time></trkpt><trkpt lat="45.4089019" lon="10.5398708"><ele>133.0</ele><time>2026-04-21T16:24:10.915Z</time></trkpt><trkpt lat="45.4090102" lon="10.5398463"><ele>133.0</ele><time>2026-04-21T16:25:23.92Z</time></trkpt><trkpt lat="45.4089428" lon="10.5398014"><ele>133.0</ele><time>2026-04-21T16:25:57.931Z</time></trkpt><trkpt lat="45.4090382" lon="10.5398099"><ele>133.0</ele><time>2026-04-21T16:26:44.924Z</time></trkpt><trkpt lat="45.4089883" lon="10.5397422"><ele>133.0</ele><time>2026-04-21T16:26:58.934Z</time></trkpt><trkpt lat="45.4089058" lon="10.5397257"><ele>133.0</ele><time>2026-04-21T16:27:40.925Z</time></trkpt><trkpt lat="45.4089632" lon="10.5396826"><ele>133.0</ele><time>2026-04-21T16:28:47.929Z</time></trkpt><trkpt lat="45.4088896" lon="10.5397468"><ele>133.0</ele><time>2026-04-21T16:28:58.932Z</time></trkpt><trkpt lat="45.4089638" lon="10.5397441"><ele>133.0</ele><time>2026-04-21T16:29:40.927Z</time></trkpt><trkpt lat="45.4089704" lon="10.539834"><ele>133.0</ele><time>2026-04-21T16:34:06.922Z</time></trkpt><trkpt lat="45.4090765" lon="10.5398792"><ele>133.0</ele><time>2026-04-21T16:35:16.923Z</time></trkpt><trkpt lat="45.4089406" lon="10.5398273"><ele>133.0</ele><time>2026-04-21T16:35:34.925Z</time></trkpt><trkpt lat="45.408866" lon="10.5398101"><ele>133.0</ele><time>2026-04-21T16:36:31.923Z</time></trkpt><trkpt lat="45.4089384" lon="10.5397627"><ele>133.0</ele><time>2026-04-21T16:39:26.924Z</time></trkpt><trkpt lat="45.4088689" lon="10.5397011"><ele>133.0</ele><time>2026-04-21T16:39:29.925Z</time></trkpt><trkpt lat="45.408783" lon="10.5396446"><ele>133.0</ele><time>2026-04-21T16:39:35.927Z</time></trkpt><trkpt lat="45.4088448" lon="10.5397023"><ele>133.0</ele><time>2026-04-21T16:40:11.921Z</time></trkpt><trkpt lat="45.4089054" lon="10.5397731"><ele>133.0</ele><time>2026-04-21T16:40:17.925Z</time></trkpt><trkpt lat="45.408848" lon="10.5398171"><ele>133.0</ele><time>2026-04-21T16:41:39.925Z</time></trkpt><trkpt lat="45.4089349" lon="10.5398687"><ele>133.0</ele><time>2026-04-21T16:42:27.923Z</time></trkpt><trkpt lat="45.4090336" lon="10.5398642"><ele>133.0</ele><time>2026-04-21T16:45:04.925Z</time></trkpt><trkpt lat="45.4089708" lon="10.5398818"><ele>133.0</ele><time>2026-04-21T16:45:25.925Z</time></trkpt><trkpt lat="45.4090369" lon="10.5398577"><ele>133.0</ele><time>2026-04-21T16:46:17.922Z</time></trkpt><trkpt lat="45.4089758" lon="10.5398283"><ele>133.0</ele><time>2026-04-21T16:47:09.927Z</time></trkpt><trkpt lat="45.4090431" lon="10.5398566"><ele>133.0</ele><time>2026-04-21T16:47:57.921Z</time></trkpt><trkpt lat="45.4089774" lon="10.5398526"><ele>133.0</ele><time>2026-04-21T16:49:41.923Z</time></trkpt><trkpt lat="45.4089022" lon="10.5398243"><ele>133.0</ele><time>2026-04-21T16:50:13.928Z</time></trkpt><trkpt lat="45.4089733" lon="10.539847"><ele>133.0</ele><time>2026-04-21T16:50:57.93Z</time></trkpt><trkpt lat="45.4089163" lon="10.5398027"><ele>133.0</ele><time>2026-04-21T16:53:58.93Z</time></trkpt><trkpt lat="45.4090101" lon="10.5398463"><ele>133.0</ele><time>2026-04-21T16:57:56.928Z</time></trkpt><trkpt lat="45.4089416" lon="10.5398312"><ele>133.0</ele><time>2026-04-21T16:59:24.925Z</time></trkpt><trkpt lat="45.4089944" lon="10.5397806"><ele>133.0</ele><time>2026-04-21T17:02:03.924Z</time></trkpt><trkpt lat="45.4090898" lon="10.5397447"><ele>133.0</ele><time>2026-04-21T17:02:33.923Z</time></trkpt><trkpt lat="45.4090247" lon="10.5397642"><ele>133.0</ele><time>2026-04-21T17:02:50.931Z</time></trkpt><trkpt lat="45.4089667" lon="10.5397293"><ele>133.0</ele><time>2026-04-21T17:03:33.923Z</time></trkpt><trkpt lat="45.408904" lon="10.5397813"><ele>133.0</ele><time>2026-04-21T17:03:56.929Z</time></trkpt><trkpt lat="45.4089507" lon="10.5398557"><ele>133.0</ele><time>2026-04-21T17:05:27.925Z</time></trkpt><trkpt lat="45.4090771" lon="10.5398792"><ele>133.0</ele><time>2026-04-21T17:05:44.924Z</time></trkpt><trkpt lat="45.4090063" lon="10.539795"><ele>133.0</ele><time>2026-04-21T17:06:06.929Z</time></trkpt><trkpt lat="45.4089427" lon="10.5397556"><ele>133.0</ele><time>2026-04-21T17:06:26.92Z</time></trkpt><trkpt lat="45.4089086" lon="10.5398339"><ele>133.0</ele><time>2026-04-21T17:08:48.929Z</time></trkpt><trkpt lat="45.4089118" lon="10.5397408"><ele>133.0</ele><time>2026-04-21T17:09:12.93Z</time></trkpt><trkpt lat="45.4089647" lon="10.5398098"><ele>133.0</ele><time>2026-04-21T17:10:09.929Z</time></trkpt><trkpt lat="45.4090466" lon="10.5398354"><ele>133.0</ele><time>2026-04-21T17:10:41.925Z</time></trkpt><trkpt lat="45.4089845" lon="10.5398809"><ele>133.0</ele><time>2026-04-21T17:12:21.923Z</time></trkpt><trkpt lat="45.4089317" lon="10.5399667"><ele>133.0</ele><time>2026-04-21T17:12:43.932Z</time></trkpt><trkpt lat="45.4088861" lon="10.5399018"><ele>133.0</ele><time>2026-04-21T17:12:49.927Z</time></trkpt><trkpt lat="45.4089533" lon="10.5398714"><ele>133.0</ele><time>2026-04-21T17:13:03.92Z</time></trkpt><trkpt lat="45.4089893" lon="10.5397774"><ele>133.0</ele><time>2026-04-21T17:16:35.918Z</time></trkpt><trkpt lat="45.4090734" lon="10.5397672"><ele>133.0</ele><time>2026-04-21T17:18:02.933Z</time></trkpt><trkpt lat="45.4091322" lon="10.5398246"><ele>133.0</ele><time>2026-04-21T17:18:13.921Z</time></trkpt><trkpt lat="45.4091985" lon="10.5397653"><ele>133.0</ele><time>2026-04-21T17:18:22.919Z</time></trkpt><trkpt lat="45.4091997" lon="10.5396601"><ele>133.0</ele><time>2026-04-21T17:18:47.92Z</time></trkpt><trkpt lat="45.4091124" lon="10.5397201"><ele>133.0</ele><time>2026-04-21T17:19:01.926Z</time></trkpt><trkpt lat="45.409066" lon="10.5398021"><ele>133.0</ele><time>2026-04-21T17:19:04.921Z</time></trkpt><trkpt lat="45.4090568" lon="10.5397123"><ele>133.0</ele><time>2026-04-21T17:19:16.929Z</time></trkpt><trkpt lat="45.4090262" lon="10.5396259"><ele>133.0</ele><time>2026-04-21T17:19:21.916Z</time></trkpt><trkpt lat="45.4089668" lon="10.5396777"><ele>133.0</ele><time>2026-04-21T17:19:27.918Z</time></trkpt><trkpt lat="45.4089071" lon="10.5397557"><ele>133.0</ele><time>2026-04-21T17:20:09.921Z</time></trkpt><trkpt lat="45.4088347" lon="10.5398216"><ele>133.0</ele><time>2026-04-21T17:20:19.931Z</time></trkpt><trkpt lat="45.4089463" lon="10.5397944"><ele>133.0</ele><time>2026-04-21T17:20:39.924Z</time></trkpt><trkpt lat="45.4090753" lon="10.5397097"><ele>133.0</ele><time>2026-04-21T17:20:45.927Z</time></trkpt><trkpt lat="45.4091704" lon="10.5397106"><ele>133.0</ele><time>2026-04-21T17:22:04.909Z</time></trkpt><trkpt lat="45.4091267" lon="10.5397796"><ele>133.0</ele><time>2026-04-21T17:23:06.92Z</time></trkpt><trkpt lat="45.4090396" lon="10.5398324"><ele>133.0</ele><time>2026-04-21T17:23:08.922Z</time></trkpt><trkpt lat="45.4090341" lon="10.5397391"><ele>133.0</ele><time>2026-04-21T17:23:39.918Z</time></trkpt><trkpt lat="45.4089927" lon="10.53967"><ele>133.0</ele><time>2026-04-21T17:23:44.933Z</time></trkpt><trkpt lat="45.4089669" lon="10.5397658"><ele>133.0</ele><time>2026-04-21T17:24:05.918Z</time></trkpt><trkpt lat="45.4088855" lon="10.5397728"><ele>133.0</ele><time>2026-04-21T17:24:13.914Z</time></trkpt><trkpt lat="45.4088441" lon="10.5398527"><ele>133.0</ele><time>2026-04-21T17:24:21.919Z</time></trkpt><trkpt lat="45.408908" lon="10.5398944"><ele>133.0</ele><time>2026-04-21T17:24:33.927Z</time></trkpt><trkpt lat="45.4089501" lon="10.5397896"><ele>133.0</ele><time>2026-04-21T17:24:48.926Z</time></trkpt><trkpt lat="45.4089864" lon="10.539716"><ele>133.0</ele><time>2026-04-21T17:24:51.922Z</time></trkpt><trkpt lat="45.4090277" lon="10.5397951"><ele>133.0</ele><time>2026-04-21T17:25:21.927Z</time></trkpt><trkpt lat="45.409094" lon="10.5397277"><ele>133.0</ele><time>2026-04-21T17:25:42.919Z</time></trkpt><trkpt lat="45.4090308" lon="10.5397374"><ele>133.0</ele><time>2026-04-21T17:25:57.919Z</time></trkpt><trkpt lat="45.4089837" lon="10.5398081"><ele>133.0</ele><time>2026-04-21T17:26:58.932Z</time></trkpt><trkpt lat="45.4089226" lon="10.5397642"><ele>133.0</ele><time>2026-04-21T17:27:17.926Z</time></trkpt><trkpt lat="45.408904" lon="10.5396462"><ele>133.0</ele><time>2026-04-21T17:27:22.927Z</time></trkpt><trkpt lat="45.408947" lon="10.5397637"><ele>133.0</ele><time>2026-04-21T17:27:50.928Z</time></trkpt><trkpt lat="45.408973" lon="10.5398513"><ele>133.0</ele><time>2026-04-21T17:28:00.917Z</time></trkpt><trkpt lat="45.4089133" lon="10.5397829"><ele>133.0</ele><time>2026-04-21T17:28:51.921Z</time></trkpt><trkpt lat="45.4088974" lon="10.5398858"><ele>133.0</ele><time>2026-04-21T17:29:08.926Z</time></trkpt><trkpt lat="45.4089805" lon="10.5399259"><ele>133.0</ele><time>2026-04-21T17:29:59.926Z</time></trkpt><trkpt lat="45.4090436" lon="10.5399533"><ele>133.0</ele><time>2026-04-21T17:30:29.924Z</time></trkpt><trkpt lat="45.4090987" lon="10.5398404"><ele>133.0</ele><time>2026-04-21T17:30:42.931Z</time></trkpt><trkpt lat="45.4090093" lon="10.5397373"><ele>133.0</ele><time>2026-04-21T17:30:48.925Z</time></trkpt><trkpt lat="45.4089651" lon="10.5396409"><ele>133.0</ele><time>2026-04-21T17:31:16.913Z</time></trkpt><trkpt lat="45.4088815" lon="10.5396286"><ele>133.0</ele><time>2026-04-21T17:31:42.925Z</time></trkpt><trkpt lat="45.4089433" lon="10.5396803"><ele>133.0</ele><time>2026-04-21T17:32:01.937Z</time></trkpt><trkpt lat="45.4090132" lon="10.5397616"><ele>133.0</ele><time>2026-04-21T17:32:35.92Z</time></trkpt><trkpt lat="45.4090818" lon="10.5398106"><ele>133.0</ele><time>2026-04-21T17:33:03.924Z</time></trkpt><trkpt lat="45.4090758" lon="10.5399211"><ele>133.0</ele><time>2026-04-21T17:33:29.926Z</time></trkpt><trkpt lat="45.4091804" lon="10.5399349"><ele>133.0</ele><time>2026-04-21T17:33:49.919Z</time></trkpt><trkpt lat="45.4091128" lon="10.5399987"><ele>133.0</ele><time>2026-04-21T17:33:56.923Z</time></trkpt><trkpt lat="45.4090717" lon="10.5400915"><ele>133.0</ele><time>2026-04-21T17:33:59.926Z</time></trkpt><trkpt lat="45.4090405" lon="10.5400045"><ele>133.0</ele><time>2026-04-21T17:34:15.911Z</time></trkpt><trkpt lat="45.408973" lon="10.5400375"><ele>133.0</ele><time>2026-04-21T17:34:19.926Z</time></trkpt><trkpt lat="45.4089011" lon="10.5400424"><ele>133.0</ele><time>2026-04-21T17:34:25.926Z</time></trkpt><trkpt lat="45.4089483" lon="10.5399829"><ele>133.0</ele><time>2026-04-21T17:34:45.918Z</time></trkpt><trkpt lat="45.4090106" lon="10.5399599"><ele>133.0</ele><time>2026-04-21T17:34:49.919Z</time></trkpt><trkpt lat="45.4090742" lon="10.5399213"><ele>133.0</ele><time>2026-04-21T17:34:53.912Z</time></trkpt><trkpt lat="45.4091329" lon="10.5398647"><ele>133.0</ele><time>2026-04-21T17:34:57.92Z</time></trkpt><trkpt lat="45.4092136" lon="10.5399127"><ele>133.0</ele><time>2026-04-21T17:35:09.922Z</time></trkpt><trkpt lat="45.4092775" lon="10.5398739"><ele>133.0</ele><time>2026-04-21T17:35:24.924Z</time></trkpt><trkpt lat="45.4091511" lon="10.5398448"><ele>133.0</ele><time>2026-04-21T17:35:33.924Z</time></trkpt><trkpt lat="45.4091545" lon="10.5397458"><ele>133.0</ele><time>2026-04-21T17:36:13.924Z</time></trkpt><trkpt lat="45.4090947" lon="10.5397829"><ele>133.0</ele><time>2026-04-21T17:36:16.918Z</time></trkpt><trkpt lat="45.4090054" lon="10.5398079"><ele>133.0</ele><time>2026-04-21T17:36:22.919Z</time></trkpt><trkpt lat="45.4089556" lon="10.5398794"><ele>133.0</ele><time>2026-04-21T17:36:26.918Z</time></trkpt><trkpt lat="45.4088744" lon="10.5400338"><ele>133.0</ele><time>2026-04-21T17:36:53.925Z</time></trkpt><trkpt lat="45.4088217" lon="10.5401246"><ele>133.0</ele><time>2026-04-21T17:36:55.921Z</time></trkpt><trkpt lat="45.4087677" lon="10.5402388"><ele>133.0</ele><time>2026-04-21T17:37:11.926Z</time></trkpt><trkpt lat="45.4088229" lon="10.5401238"><ele>133.0</ele><time>2026-04-21T17:37:14.918Z</time></trkpt><trkpt lat="45.4089015" lon="10.5400198"><ele>133.0</ele><time>2026-04-21T17:37:16.92Z</time></trkpt><trkpt lat="45.4089644" lon="10.5400327"><ele>133.0</ele><time>2026-04-21T17:37:20.92Z</time></trkpt><trkpt lat="45.4089529" lon="10.5399314"><ele>133.0</ele><time>2026-04-21T17:37:27.917Z</time></trkpt><trkpt lat="45.4089359" lon="10.5398391"><ele>133.0</ele><time>2026-04-21T17:37:36.919Z</time></trkpt><trkpt lat="45.4088822" lon="10.5398911"><ele>133.0</ele><time>2026-04-21T17:37:47.919Z</time></trkpt><trkpt lat="45.4088626" lon="10.5398036"><ele>133.0</ele><time>2026-04-21T17:38:57.926Z</time></trkpt><trkpt lat="45.4089448" lon="10.5398159"><ele>133.0</ele><time>2026-04-21T17:39:16.917Z</time></trkpt><trkpt lat="45.4089713" lon="10.5397295"><ele>133.0</ele><time>2026-04-21T17:39:51.928Z</time></trkpt><trkpt lat="45.4089596" lon="10.5398229"><ele>133.0</ele><time>2026-04-21T17:40:35.922Z</time></trkpt><trkpt lat="45.4088917" lon="10.5398753"><ele>133.0</ele><time>2026-04-21T17:40:43.927Z</time></trkpt><trkpt lat="45.4089482" lon="10.5398235"><ele>133.0</ele><time>2026-04-21T17:40:52.918Z</time></trkpt><trkpt lat="45.4088906" lon="10.5398833"><ele>133.0</ele><time>2026-04-21T17:41:28.926Z</time></trkpt><trkpt lat="45.4089577" lon="10.5398756"><ele>133.0</ele><time>2026-04-21T17:42:35.919Z</time></trkpt><trkpt lat="45.4089969" lon="10.5397978"><ele>133.0</ele><time>2026-04-21T17:44:49.919Z</time></trkpt><trkpt lat="45.4089484" lon="10.5398657"><ele>133.0</ele><time>2026-04-21T17:48:22.924Z</time></trkpt><trkpt lat="45.4090036" lon="10.5398108"><ele>133.0</ele><time>2026-04-21T17:50:23.916Z</time></trkpt><trkpt lat="45.4090073" lon="10.5399047"><ele>133.0</ele><time>2026-04-21T17:50:28.925Z</time></trkpt><trkpt lat="45.4089355" lon="10.5399306"><ele>133.0</ele><time>2026-04-21T17:50:41.923Z</time></trkpt><trkpt lat="45.4089719" lon="10.5398416"><ele>133.0</ele><time>2026-04-21T17:50:49.914Z</time></trkpt><trkpt lat="45.4090329" lon="10.5397804"><ele>133.0</ele><time>2026-04-21T17:51:12.915Z</time></trkpt><trkpt lat="45.4089967" lon="10.5398577"><ele>133.0</ele><time>2026-04-21T17:52:09.915Z</time></trkpt><trkpt lat="45.4089526" lon="10.5399219"><ele>133.0</ele><time>2026-04-21T17:52:17.919Z</time></trkpt><trkpt lat="45.4089731" lon="10.5400129"><ele>133.0</ele><time>2026-04-21T17:52:34.919Z</time></trkpt><trkpt lat="45.4089651" lon="10.5399038"><ele>133.0</ele><time>2026-04-21T17:53:09.917Z</time></trkpt><trkpt lat="45.4089131" lon="10.5398219"><ele>133.0</ele><time>2026-04-21T17:53:21.918Z</time></trkpt><trkpt lat="45.4088759" lon="10.5399004"><ele>133.0</ele><time>2026-04-21T17:53:33.923Z</time></trkpt><trkpt lat="45.4089437" lon="10.5399116"><ele>133.0</ele><time>2026-04-21T17:53:45.919Z</time></trkpt><trkpt lat="45.408935" lon="10.5398107"><ele>133.0</ele><time>2026-04-21T17:55:17.91Z</time></trkpt><trkpt lat="45.409016" lon="10.5398165"><ele>133.0</ele><time>2026-04-21T17:55:47.925Z</time></trkpt><trkpt lat="45.4089346" lon="10.5397909"><ele>133.0</ele><time>2026-04-21T17:56:00.925Z</time></trkpt><trkpt lat="45.40886" lon="10.5398058"><ele>133.0</ele><time>2026-04-21T17:56:03.925Z</time></trkpt><trkpt lat="45.4087407" lon="10.5398097"><ele>133.0</ele><time>2026-04-21T17:56:35.91Z</time></trkpt><trkpt lat="45.4088035" lon="10.539772"><ele>133.0</ele><time>2026-04-21T17:56:53.917Z</time></trkpt><trkpt lat="45.4089196" lon="10.5398775"><ele>133.0</ele><time>2026-04-21T17:57:13.923Z</time></trkpt><trkpt lat="45.4089687" lon="10.5399366"><ele>133.0</ele><time>2026-04-21T17:57:15.924Z</time></trkpt><trkpt lat="45.409044" lon="10.5399594"><ele>133.0</ele><time>2026-04-21T17:57:28.917Z</time></trkpt><trkpt lat="45.4090154" lon="10.5398662"><ele>133.0</ele><time>2026-04-21T17:57:31.927Z</time></trkpt><trkpt lat="45.4089506" lon="10.5397832"><ele>133.0</ele><time>2026-04-21T17:57:35.918Z</time></trkpt><trkpt lat="45.408995" lon="10.5398729"><ele>133.0</ele><time>2026-04-21T17:57:50.918Z</time></trkpt><trkpt lat="45.4089334" lon="10.5399002"><ele>133.0</ele><time>2026-04-21T17:58:34.924Z</time></trkpt><trkpt lat="45.4089466" lon="10.5397717"><ele>133.0</ele><time>2026-04-21T18:00:09.916Z</time></trkpt><trkpt lat="45.4090102" lon="10.5397661"><ele>133.0</ele><time>2026-04-21T18:00:22.92Z</time></trkpt><trkpt lat="45.408947" lon="10.5397408"><ele>133.0</ele><time>2026-04-21T18:00:50.918Z</time></trkpt><trkpt lat="45.4088788" lon="10.5397568"><ele>133.0</ele><time>2026-04-21T18:00:58.918Z</time></trkpt><trkpt lat="45.4088085" lon="10.5398696"><ele>133.0</ele><time>2026-04-21T18:01:09.923Z</time></trkpt><trkpt lat="45.4088185" lon="10.5399597"><ele>133.0</ele><time>2026-04-21T18:01:12.924Z</time></trkpt><trkpt lat="45.4087616" lon="10.5400385"><ele>133.0</ele><time>2026-04-21T18:01:28.92Z</time></trkpt><trkpt lat="45.4087576" lon="10.5399462"><ele>133.0</ele><time>2026-04-21T18:02:15.92Z</time></trkpt><trkpt lat="45.4088379" lon="10.5399147"><ele>133.0</ele><time>2026-04-21T18:02:36.914Z</time></trkpt><trkpt lat="45.4087761" lon="10.5399338"><ele>133.0</ele><time>2026-04-21T18:03:03.92Z</time></trkpt><trkpt lat="45.4088384" lon="10.5398785"><ele>133.0</ele><time>2026-04-21T18:03:27.92Z</time></trkpt><trkpt lat="45.4089321" lon="10.5398644"><ele>133.0</ele><time>2026-04-21T18:04:18.915Z</time></trkpt><trkpt lat="45.4090241" lon="10.5398268"><ele>133.0</ele><time>2026-04-21T18:04:33.923Z</time></trkpt><trkpt lat="45.4091157" lon="10.5397785"><ele>133.0</ele><time>2026-04-21T18:04:36.924Z</time></trkpt><trkpt lat="45.4091744" lon="10.5398521"><ele>133.0</ele><time>2026-04-21T18:04:55.917Z</time></trkpt><trkpt lat="45.4090871" lon="10.5397924"><ele>133.0</ele><time>2026-04-21T18:05:08.926Z</time></trkpt><trkpt lat="45.4090122" lon="10.5397412"><ele>133.0</ele><time>2026-04-21T18:05:10.916Z</time></trkpt><trkpt lat="45.4089293" lon="10.5397183"><ele>133.0</ele><time>2026-04-21T18:05:21.913Z</time></trkpt><trkpt lat="45.4088496" lon="10.5396363"><ele>133.0</ele><time>2026-04-21T18:05:23.925Z</time></trkpt><trkpt lat="45.4087894" lon="10.539572"><ele>133.0</ele><time>2026-04-21T18:05:24.925Z</time></trkpt><trkpt lat="45.4088959" lon="10.5396746"><ele>133.0</ele><time>2026-04-21T18:05:37.919Z</time></trkpt><trkpt lat="45.4089829" lon="10.5397642"><ele>133.0</ele><time>2026-04-21T18:05:39.917Z</time></trkpt><trkpt lat="45.4089694" lon="10.5398521"><ele>133.0</ele><time>2026-04-21T18:06:12.923Z</time></trkpt><trkpt lat="45.4089053" lon="10.5398354"><ele>133.0</ele><time>2026-04-21T18:07:41.915Z</time></trkpt><trkpt lat="45.4088281" lon="10.5398523"><ele>133.0</ele><time>2026-04-21T18:07:48.914Z</time></trkpt><trkpt lat="45.4088837" lon="10.5397942"><ele>133.0</ele><time>2026-04-21T18:08:16.934Z</time></trkpt><trkpt lat="45.4089337" lon="10.5397364"><ele>133.0</ele><time>2026-04-21T18:08:39.921Z</time></trkpt><trkpt lat="45.4089399" lon="10.5398383"><ele>133.0</ele><time>2026-04-21T18:10:07.917Z</time></trkpt><trkpt lat="45.408998" lon="10.5397931"><ele>133.0</ele><time>2026-04-21T18:10:11.92Z</time></trkpt><trkpt lat="45.4090712" lon="10.5397556"><ele>133.0</ele><time>2026-04-21T18:10:13.925Z</time></trkpt><trkpt lat="45.4090103" lon="10.539795"><ele>133.0</ele><time>2026-04-21T18:10:51.921Z</time></trkpt><trkpt lat="45.4088955" lon="10.5398108"><ele>133.0</ele><time>2026-04-21T18:10:53.925Z</time></trkpt><trkpt lat="45.4088294" lon="10.539825"><ele>133.0</ele><time>2026-04-21T18:10:55.916Z</time></trkpt><trkpt lat="45.408745" lon="10.5398421"><ele>133.0</ele><time>2026-04-21T18:10:58.925Z</time></trkpt><trkpt lat="45.4086641" lon="10.539867"><ele>133.0</ele><time>2026-04-21T18:11:02.92Z</time></trkpt><trkpt lat="45.4087392" lon="10.5398706"><ele>133.0</ele><time>2026-04-21T18:11:16.925Z</time></trkpt><trkpt lat="45.4088042" lon="10.5398496"><ele>133.0</ele><time>2026-04-21T18:11:20.915Z</time></trkpt><trkpt lat="45.4088661" lon="10.5398173"><ele>133.0</ele><time>2026-04-21T18:11:25.924Z</time></trkpt><trkpt lat="45.4089673" lon="10.5397828"><ele>133.0</ele><time>2026-04-21T18:12:53.926Z</time></trkpt><trkpt lat="45.4089041" lon="10.5398418"><ele>133.0</ele><time>2026-04-21T18:13:56.916Z</time></trkpt><trkpt lat="45.4090039" lon="10.5398313"><ele>133.0</ele><time>2026-04-21T18:14:08.924Z</time></trkpt><trkpt lat="45.4090716" lon="10.5398471"><ele>133.0</ele><time>2026-04-21T18:14:51.916Z</time></trkpt><trkpt lat="45.408965" lon="10.539853"><ele>133.0</ele><time>2026-04-21T18:14:53.915Z</time></trkpt><trkpt lat="45.4088353" lon="10.5398825"><ele>133.0</ele><time>2026-04-21T18:14:55.924Z</time></trkpt><trkpt lat="45.4087719" lon="10.5398941"><ele>133.0</ele><time>2026-04-21T18:14:56.921Z</time></trkpt><trkpt lat="45.4088281" lon="10.5398532"><ele>133.0</ele><time>2026-04-21T18:15:12.913Z</time></trkpt><trkpt lat="45.4088913" lon="10.5398474"><ele>133.0</ele><time>2026-04-21T18:15:15.914Z</time></trkpt><trkpt lat="45.4089682" lon="10.5398294"><ele>133.0</ele><time>2026-04-21T18:15:28.921Z</time></trkpt><trkpt lat="45.4090597" lon="10.5398067"><ele>133.0</ele><time>2026-04-21T18:15:30.918Z</time></trkpt><trkpt lat="45.4091383" lon="10.5397827"><ele>133.0</ele><time>2026-04-21T18:15:32.913Z</time></trkpt><trkpt lat="45.409075" lon="10.5397709"><ele>133.0</ele><time>2026-04-21T18:15:37.922Z</time></trkpt><trkpt lat="45.4090063" lon="10.5397981"><ele>133.0</ele><time>2026-04-21T18:15:44.916Z</time></trkpt><trkpt lat="45.4089399" lon="10.5398119"><ele>133.0</ele><time>2026-04-21T18:15:55.923Z</time></trkpt><trkpt lat="45.4088754" lon="10.5398148"><ele>133.0</ele><time>2026-04-21T18:15:58.913Z</time></trkpt><trkpt lat="45.4085708" lon="10.5399103"><ele>133.0</ele><time>2026-04-21T18:15:59.92Z</time></trkpt><trkpt lat="45.4083308" lon="10.5399841"><ele>133.0</ele><time>2026-04-21T18:16:00.925Z</time></trkpt><trkpt lat="45.4083943" lon="10.5399733"><ele>133.0</ele><time>2026-04-21T18:16:11.91Z</time></trkpt><trkpt lat="45.408463" lon="10.539972"><ele>133.0</ele><time>2026-04-21T18:16:15.909Z</time></trkpt><trkpt lat="45.4087588" lon="10.5399192"><ele>133.0</ele><time>2026-04-21T18:16:20.913Z</time></trkpt><trkpt lat="45.4089692" lon="10.5398857"><ele>133.0</ele><time>2026-04-21T18:16:21.916Z</time></trkpt><trkpt lat="45.4090667" lon="10.5398376"><ele>133.0</ele><time>2026-04-21T18:16:22.909Z</time></trkpt><trkpt lat="45.4090001" lon="10.5398461"><ele>133.0</ele><time>2026-04-21T18:16:26.924Z</time></trkpt><trkpt lat="45.4091075" lon="10.5397767"><ele>133.0</ele><time>2026-04-21T18:16:37.914Z</time></trkpt><trkpt lat="45.409024" lon="10.539816"><ele>133.0</ele><time>2026-04-21T18:16:42.917Z</time></trkpt><trkpt lat="45.4089806" lon="10.5398938"><ele>133.0</ele><time>2026-04-21T18:16:58.922Z</time></trkpt><trkpt lat="45.4089136" lon="10.5398762"><ele>133.0</ele><time>2026-04-21T18:17:54.924Z</time></trkpt><trkpt lat="45.4088528" lon="10.5399126"><ele>133.0</ele><time>2026-04-21T18:21:02.923Z</time></trkpt><trkpt lat="45.4087872" lon="10.5398803"><ele>133.0</ele><time>2026-04-21T18:21:53.915Z</time></trkpt><trkpt lat="45.4087236" lon="10.5399233"><ele>133.0</ele><time>2026-04-21T18:21:57.913Z</time></trkpt><trkpt lat="45.4086365" lon="10.5399721"><ele>133.0</ele><time>2026-04-21T18:22:01.923Z</time></trkpt><trkpt lat="45.4087017" lon="10.5399855"><ele>133.0</ele><time>2026-04-21T18:22:08.923Z</time></trkpt><trkpt lat="45.4087947" lon="10.5399496"><ele>133.0</ele><time>2026-04-21T18:22:42.917Z</time></trkpt><trkpt lat="45.4088713" lon="10.539898"><ele>133.0</ele><time>2026-04-21T18:22:59.919Z</time></trkpt><trkpt lat="45.40899" lon="10.5398912"><ele>133.0</ele><time>2026-04-21T18:23:58.916Z</time></trkpt><trkpt lat="45.4089227" lon="10.5398887"><ele>133.0</ele><time>2026-04-21T18:24:39.914Z</time></trkpt><trkpt lat="45.4088651" lon="10.5398217"><ele>133.0</ele><time>2026-04-21T18:24:50.923Z</time></trkpt><trkpt lat="45.4089857" lon="10.5397698"><ele>133.0</ele><time>2026-04-21T18:25:10.915Z</time></trkpt><trkpt lat="45.4089287" lon="10.5398377"><ele>133.0</ele><time>2026-04-21T18:25:27.917Z</time></trkpt><trkpt lat="45.4089899" lon="10.5398095"><ele>133.0</ele><time>2026-04-21T18:25:43.917Z</time></trkpt><trkpt lat="45.4090618" lon="10.5397246"><ele>133.0</ele><time>2026-04-21T18:27:09.924Z</time></trkpt><trkpt lat="45.4091383" lon="10.5396901"><ele>133.0</ele><time>2026-04-21T18:27:11.924Z</time></trkpt><trkpt lat="45.4092078" lon="10.5396857"><ele>133.0</ele><time>2026-04-21T18:27:14.913Z</time></trkpt><trkpt lat="45.4092086" lon="10.5397884"><ele>133.0</ele><time>2026-04-21T18:27:20.923Z</time></trkpt><trkpt lat="45.4091775" lon="10.5397079"><ele>133.0</ele><time>2026-04-21T18:28:18.912Z</time></trkpt><trkpt lat="45.4093093" lon="10.539695"><ele>133.0</ele><time>2026-04-21T18:29:06.921Z</time></trkpt><trkpt lat="45.4092373" lon="10.5397628"><ele>133.0</ele><time>2026-04-21T18:29:14.921Z</time></trkpt><trkpt lat="45.4091729" lon="10.5397891"><ele>133.0</ele><time>2026-04-21T18:29:19.914Z</time></trkpt><trkpt lat="45.409093" lon="10.5397994"><ele>133.0</ele><time>2026-04-21T18:30:03.921Z</time></trkpt><trkpt lat="45.4090256" lon="10.5397646"><ele>133.0</ele><time>2026-04-21T18:30:05.914Z</time></trkpt><trkpt lat="45.4089678" lon="10.5396941"><ele>133.0</ele><time>2026-04-21T18:30:19.915Z</time></trkpt><trkpt lat="45.4091085" lon="10.5396506"><ele>133.0</ele><time>2026-04-21T18:30:24.919Z</time></trkpt><trkpt lat="45.4091828" lon="10.5396439"><ele>133.0</ele><time>2026-04-21T18:30:26.911Z</time></trkpt><trkpt lat="45.4092548" lon="10.5395841"><ele>133.0</ele><time>2026-04-21T18:30:35.907Z</time></trkpt><trkpt lat="45.4093617" lon="10.5395062"><ele>133.0</ele><time>2026-04-21T18:30:40.908Z</time></trkpt><trkpt lat="45.4093151" lon="10.5394313"><ele>133.0</ele><time>2026-04-21T18:30:45.91Z</time></trkpt><trkpt lat="45.4092467" lon="10.5394591"><ele>133.0</ele><time>2026-04-21T18:31:03.913Z</time></trkpt><trkpt lat="45.4091607" lon="10.5394087"><ele>133.0</ele><time>2026-04-21T18:31:07.921Z</time></trkpt><trkpt lat="45.4090953" lon="10.5394607"><ele>133.0</ele><time>2026-04-21T18:31:13.923Z</time></trkpt><trkpt lat="45.409151" lon="10.5395296"><ele>133.0</ele><time>2026-04-21T18:31:18.918Z</time></trkpt><trkpt lat="45.4091355" lon="10.5396279"><ele>133.0</ele><time>2026-04-21T18:31:24.92Z</time></trkpt><trkpt lat="45.4090819" lon="10.5396853"><ele>133.0</ele><time>2026-04-21T18:31:32.922Z</time></trkpt><trkpt lat="45.4090257" lon="10.5397266"><ele>133.0</ele><time>2026-04-21T18:31:38.92Z</time></trkpt><trkpt lat="45.4089176" lon="10.5397939"><ele>133.0</ele><time>2026-04-21T18:32:06.91Z</time></trkpt><trkpt lat="45.4088562" lon="10.5398327"><ele>133.0</ele><time>2026-04-21T18:32:12.917Z</time></trkpt><trkpt lat="45.4089247" lon="10.5398654"><ele>133.0</ele><time>2026-04-21T18:32:48.91Z</time></trkpt><trkpt lat="45.408917" lon="10.5397695"><ele>133.0</ele><time>2026-04-21T18:33:08.916Z</time></trkpt><trkpt lat="45.4088572" lon="10.5398586"><ele>133.0</ele><time>2026-04-21T18:33:37.917Z</time></trkpt><trkpt lat="45.4089234" lon="10.5398092"><ele>133.0</ele><time>2026-04-21T18:33:52.913Z</time></trkpt><trkpt lat="45.4088351" lon="10.5397664"><ele>133.0</ele><time>2026-04-21T18:34:33.913Z</time></trkpt><trkpt lat="45.4087602" lon="10.5397048"><ele>133.0</ele><time>2026-04-21T18:34:36.922Z</time></trkpt><trkpt lat="45.4088427" lon="10.5396664"><ele>133.0</ele><time>2026-04-21T18:34:49.917Z</time></trkpt><trkpt lat="45.4089047" lon="10.5396844"><ele>133.0</ele><time>2026-04-21T18:34:58.914Z</time></trkpt><trkpt lat="45.4089889" lon="10.5396955"><ele>133.0</ele><time>2026-04-21T18:35:03.923Z</time></trkpt><trkpt lat="45.4090561" lon="10.5397457"><ele>133.0</ele><time>2026-04-21T18:35:09.918Z</time></trkpt><trkpt lat="45.4091065" lon="10.5398144"><ele>133.0</ele><time>2026-04-21T18:35:25.92Z</time></trkpt><trkpt lat="45.4090534" lon="10.5398661"><ele>133.0</ele><time>2026-04-21T18:35:41.922Z</time></trkpt><trkpt lat="45.4089881" lon="10.5398049"><ele>133.0</ele><time>2026-04-21T18:35:43.923Z</time></trkpt><trkpt lat="45.4089172" lon="10.5397563"><ele>133.0</ele><time>2026-04-21T18:36:31.923Z</time></trkpt><trkpt lat="45.4089955" lon="10.539745"><ele>133.0</ele><time>2026-04-21T18:37:29.916Z</time></trkpt><trkpt lat="45.408921" lon="10.5397312"><ele>133.0</ele><time>2026-04-21T18:38:02.92Z</time></trkpt><trkpt lat="45.4089818" lon="10.5397778"><ele>133.0</ele><time>2026-04-21T18:38:13.914Z</time></trkpt><trkpt lat="45.4090351" lon="10.539835"><ele>133.0</ele><time>2026-04-21T18:38:21.914Z</time></trkpt><trkpt lat="45.409064" lon="10.5397361"><ele>133.0</ele><time>2026-04-21T18:38:31.915Z</time></trkpt><trkpt lat="45.4090001" lon="10.5397041"><ele>133.0</ele><time>2026-04-21T18:38:36.913Z</time></trkpt><trkpt lat="45.4089319" lon="10.5396704"><ele>133.0</ele><time>2026-04-21T18:38:39.915Z</time></trkpt><trkpt lat="45.4087798" lon="10.5396489"><ele>133.0</ele><time>2026-04-21T18:38:46.913Z</time></trkpt><trkpt lat="45.4087152" lon="10.5396485"><ele>133.0</ele><time>2026-04-21T18:38:49.918Z</time></trkpt><trkpt lat="45.4087771" lon="10.5395205"><ele>133.0</ele><time>2026-04-21T18:38:52.917Z</time></trkpt><trkpt lat="45.4088489" lon="10.5395628"><ele>133.0</ele><time>2026-04-21T18:39:06.917Z</time></trkpt><trkpt lat="45.4089057" lon="10.5396082"><ele>133.0</ele><time>2026-04-21T18:39:14.914Z</time></trkpt><trkpt lat="45.4088985" lon="10.539706"><ele>133.0</ele><time>2026-04-21T18:39:32.917Z</time></trkpt><trkpt lat="45.4089878" lon="10.5398749"><ele>133.0</ele><time>2026-04-21T18:40:08.912Z</time></trkpt><trkpt lat="45.4090469" lon="10.5399121"><ele>133.0</ele><time>2026-04-21T18:40:19.915Z</time></trkpt><trkpt lat="45.4090009" lon="10.5398476"><ele>133.0</ele><time>2026-04-21T18:40:36.92Z</time></trkpt><trkpt lat="45.4088918" lon="10.5397886"><ele>133.0</ele><time>2026-04-21T18:40:39.912Z</time></trkpt><trkpt lat="45.4087589" lon="10.5397029"><ele>133.0</ele><time>2026-04-21T18:40:44.916Z</time></trkpt><trkpt lat="45.4088232" lon="10.5396929"><ele>133.0</ele><time>2026-04-21T18:40:50.913Z</time></trkpt><trkpt lat="45.4087267" lon="10.5396581"><ele>133.0</ele><time>2026-04-21T18:41:01.927Z</time></trkpt><trkpt lat="45.4088335" lon="10.5397261"><ele>133.0</ele><time>2026-04-21T18:41:12.916Z</time></trkpt><trkpt lat="45.4089039" lon="10.5397456"><ele>133.0</ele><time>2026-04-21T18:41:14.977Z</time></trkpt><trkpt lat="45.408904" lon="10.5398465"><ele>133.0</ele><time>2026-04-21T18:41:21.914Z</time></trkpt><trkpt lat="45.4089726" lon="10.5398984"><ele>133.0</ele><time>2026-04-21T18:41:35.916Z</time></trkpt><trkpt lat="45.4089791" lon="10.5398016"><ele>133.0</ele><time>2026-04-21T18:41:53.912Z</time></trkpt><trkpt lat="45.4089246" lon="10.5398504"><ele>133.0</ele><time>2026-04-21T18:41:58.922Z</time></trkpt><trkpt lat="45.4088827" lon="10.5399253"><ele>133.0</ele><time>2026-04-21T18:42:02.912Z</time></trkpt><trkpt lat="45.4088579" lon="10.540013"><ele>133.0</ele><time>2026-04-21T18:42:05.922Z</time></trkpt><trkpt lat="45.4087897" lon="10.5400795"><ele>132.83333333333334</ele><time>2026-04-21T18:42:08.92Z</time></trkpt><trkpt lat="45.4087349" lon="10.540133"><ele>132.66666666666669</ele><time>2026-04-21T18:42:09.922Z</time></trkpt><trkpt lat="45.4086799" lon="10.5401945"><ele>132.5</ele><time>2026-04-21T18:42:10.915Z</time></trkpt><trkpt lat="45.4086174" lon="10.5403082"><ele>132.33333333333334</ele><time>2026-04-21T18:42:12.918Z</time></trkpt><trkpt lat="45.4086905" lon="10.5402731"><ele>132.16666666666666</ele><time>2026-04-21T18:42:13.921Z</time></trkpt><trkpt lat="45.4087677" lon="10.5402557"><ele>132.0</ele><time>2026-04-21T18:42:15.92Z</time></trkpt><trkpt lat="45.4086372" lon="10.540391"><ele>132.0</ele><time>2026-04-21T18:42:18.92Z</time></trkpt><trkpt lat="45.4085615" lon="10.540463"><ele>132.0</ele><time>2026-04-21T18:42:19.924Z</time></trkpt><trkpt lat="45.4084804" lon="10.5405306"><ele>132.0</ele><time>2026-04-21T18:42:21.919Z</time></trkpt><trkpt lat="45.4083863" lon="10.5406076"><ele>132.0</ele><time>2026-04-21T18:42:23.919Z</time></trkpt><trkpt lat="45.4084257" lon="10.5405033"><ele>132.0</ele><time>2026-04-21T18:42:35.922Z</time></trkpt><trkpt lat="45.4083378" lon="10.5405967"><ele>132.0</ele><time>2026-04-21T18:42:41.916Z</time></trkpt><trkpt lat="45.4082862" lon="10.5406622"><ele>132.0</ele><time>2026-04-21T18:42:42.912Z</time></trkpt><trkpt lat="45.4082106" lon="10.5406771"><ele>132.0</ele><time>2026-04-21T18:42:45.923Z</time></trkpt><trkpt lat="45.4081437" lon="10.5407072"><ele>132.0</ele><time>2026-04-21T18:42:54.915Z</time></trkpt><trkpt lat="45.4081947" lon="10.5406065"><ele>132.0</ele><time>2026-04-21T18:43:01.913Z</time></trkpt><trkpt lat="45.4082639" lon="10.5405353"><ele>132.0</ele><time>2026-04-21T18:43:04.913Z</time></trkpt><trkpt lat="45.4084247" lon="10.5403932"><ele>132.16666666666666</ele><time>2026-04-21T18:43:06.92Z</time></trkpt><trkpt lat="45.4084824" lon="10.5403514"><ele>132.33333333333334</ele><time>2026-04-21T18:43:08.915Z</time></trkpt><trkpt lat="45.4085623" lon="10.540297"><ele>132.5</ele><time>2026-04-21T18:43:10.907Z</time></trkpt><trkpt lat="45.4086714" lon="10.540247"><ele>132.66666666666669</ele><time>2026-04-21T18:43:13.923Z</time></trkpt><trkpt lat="45.4087382" lon="10.5401968"><ele>132.83333333333334</ele><time>2026-04-21T18:43:15.919Z</time></trkpt><trkpt lat="45.4087942" lon="10.5401452"><ele>133.0</ele><time>2026-04-21T18:43:18.914Z</time></trkpt><trkpt lat="45.4088507" lon="10.5400851"><ele>133.0</ele><time>2026-04-21T18:43:20.915Z</time></trkpt><trkpt lat="45.4088227" lon="10.539987"><ele>133.0</ele><time>2026-04-21T18:43:30.916Z</time></trkpt><trkpt lat="45.4088614" lon="10.5398868"><ele>133.0</ele><time>2026-04-21T18:43:35.914Z</time></trkpt><trkpt lat="45.4089457" lon="10.5397944"><ele>133.0</ele><time>2026-04-21T18:44:14.913Z</time></trkpt><trkpt lat="45.4088719" lon="10.539815"><ele>133.0</ele><time>2026-04-21T18:45:03.916Z</time></trkpt><trkpt lat="45.4087545" lon="10.5398618"><ele>133.0</ele><time>2026-04-21T18:45:15.915Z</time></trkpt><trkpt lat="45.4086534" lon="10.5398297"><ele>133.0</ele><time>2026-04-21T18:45:20.916Z</time></trkpt><trkpt lat="45.4087188" lon="10.539769"><ele>133.0</ele><time>2026-04-21T18:45:39.913Z</time></trkpt><trkpt lat="45.4087909" lon="10.5397895"><ele>133.0</ele><time>2026-04-21T18:45:44.916Z</time></trkpt><trkpt lat="45.4088628" lon="10.5397965"><ele>133.0</ele><time>2026-04-21T18:45:52.913Z</time></trkpt><trkpt lat="45.4088955" lon="10.5397081"><ele>133.0</ele><time>2026-04-21T18:47:20.914Z</time></trkpt><trkpt lat="45.4089913" lon="10.539709"><ele>133.0</ele><time>2026-04-21T18:48:38.906Z</time></trkpt><trkpt lat="45.4090074" lon="10.5396168"><ele>133.0</ele><time>2026-04-21T18:48:52.911Z</time></trkpt><trkpt lat="45.4089793" lon="10.5395193"><ele>133.0</ele><time>2026-04-21T18:48:57.92Z</time></trkpt><trkpt lat="45.4089442" lon="10.5394442"><ele>133.0</ele><time>2026-04-21T18:49:20.917Z</time></trkpt><trkpt lat="45.4089169" lon="10.5393627"><ele>133.0</ele><time>2026-04-21T18:49:23.921Z</time></trkpt><trkpt lat="45.4089035" lon="10.5394513"><ele>133.0</ele><time>2026-04-21T18:49:44.915Z</time></trkpt><trkpt lat="45.4089427" lon="10.5395277"><ele>133.0</ele><time>2026-04-21T18:49:51.912Z</time></trkpt><trkpt lat="45.4090085" lon="10.5395675"><ele>133.0</ele><time>2026-04-21T18:49:59.912Z</time></trkpt><trkpt lat="45.4090405" lon="10.5396478"><ele>133.0</ele><time>2026-04-21T18:50:53.913Z</time></trkpt><trkpt lat="45.4090133" lon="10.5395542"><ele>133.0</ele><time>2026-04-21T18:51:38.912Z</time></trkpt><trkpt lat="45.4089939" lon="10.5396417"><ele>133.0</ele><time>2026-04-21T18:52:03.919Z</time></trkpt><trkpt lat="45.408977" lon="10.5397281"><ele>133.0</ele><time>2026-04-21T18:52:16.912Z</time></trkpt><trkpt lat="45.4089161" lon="10.539776"><ele>133.0</ele><time>2026-04-21T18:52:21.919Z</time></trkpt><trkpt lat="45.40899" lon="10.5397833"><ele>133.0</ele><time>2026-04-21T18:54:04.911Z</time></trkpt><trkpt lat="45.4089313" lon="10.5398157"><ele>133.0</ele><time>2026-04-21T18:55:13.922Z</time></trkpt><trkpt lat="45.4090113" lon="10.539777"><ele>133.0</ele><time>2026-04-21T18:56:04.916Z</time></trkpt><trkpt lat="45.408974" lon="10.5398512"><ele>133.0</ele><time>2026-04-21T18:56:59.922Z</time></trkpt><trkpt lat="45.408913" lon="10.5398764"><ele>133.0</ele><time>2026-04-21T18:59:02.922Z</time></trkpt><trkpt lat="45.4089734" lon="10.5398354"><ele>133.0</ele><time>2026-04-21T18:59:15.899Z</time></trkpt><trkpt lat="45.4089132" lon="10.5397967"><ele>133.0</ele><time>2026-04-21T19:00:10.913Z</time></trkpt><trkpt lat="45.4088264" lon="10.5398008"><ele>133.0</ele><time>2026-04-21T19:00:46.916Z</time></trkpt><trkpt lat="45.4087671" lon="10.5397379"><ele>133.0</ele><time>2026-04-21T19:00:54.915Z</time></trkpt><trkpt lat="45.4086713" lon="10.5397213"><ele>133.0</ele><time>2026-04-21T19:01:15.912Z</time></trkpt><trkpt lat="45.4087326" lon="10.5397562"><ele>133.0</ele><time>2026-04-21T19:01:32.914Z</time></trkpt><trkpt lat="45.4088028" lon="10.5397955"><ele>133.0</ele><time>2026-04-21T19:01:44.917Z</time></trkpt><trkpt lat="45.4088775" lon="10.5397829"><ele>133.0</ele><time>2026-04-21T19:02:27.919Z</time></trkpt><trkpt lat="45.4088399" lon="10.5397108"><ele>133.0</ele><time>2026-04-21T19:03:13.93Z</time></trkpt><trkpt lat="45.4088861" lon="10.5397762"><ele>133.0</ele><time>2026-04-21T19:03:40.922Z</time></trkpt><trkpt lat="45.4089904" lon="10.5397857"><ele>133.0</ele><time>2026-04-21T19:06:02.914Z</time></trkpt><trkpt lat="45.4090577" lon="10.5397469"><ele>133.0</ele><time>2026-04-21T19:06:06.921Z</time></trkpt><trkpt lat="45.409026" lon="10.5398325"><ele>133.0</ele><time>2026-04-21T19:06:15.927Z</time></trkpt><trkpt lat="45.4089666" lon="10.5398841"><ele>133.0</ele><time>2026-04-21T19:06:27.916Z</time></trkpt><trkpt lat="45.4089602" lon="10.5397861"><ele>133.0</ele><time>2026-04-21T19:06:38.925Z</time></trkpt><trkpt lat="45.4088923" lon="10.5397469"><ele>133.0</ele><time>2026-04-21T19:06:41.924Z</time></trkpt><trkpt lat="45.4088233" lon="10.5397578"><ele>133.0</ele><time>2026-04-21T19:08:16.921Z</time></trkpt><trkpt lat="45.4088985" lon="10.5397594"><ele>133.0</ele><time>2026-04-21T19:08:45.911Z</time></trkpt><trkpt lat="45.4089911" lon="10.5397634"><ele>133.0</ele><time>2026-04-21T19:10:28.917Z</time></trkpt><trkpt lat="45.4089278" lon="10.5397434"><ele>133.0</ele><time>2026-04-21T19:10:49.915Z</time></trkpt><trkpt lat="45.4089216" lon="10.5398393"><ele>133.0</ele><time>2026-04-21T19:11:20.91Z</time></trkpt><trkpt lat="45.4088622" lon="10.5398767"><ele>133.0</ele><time>2026-04-21T19:11:44.911Z</time></trkpt><trkpt lat="45.4087978" lon="10.5399153"><ele>133.0</ele><time>2026-04-21T19:11:52.911Z</time></trkpt><trkpt lat="45.4088526" lon="10.5398635"><ele>133.0</ele><time>2026-04-21T19:12:09.911Z</time></trkpt><trkpt lat="45.4089207" lon="10.5398383"><ele>133.0</ele><time>2026-04-21T19:12:14.919Z</time></trkpt><trkpt lat="45.4088443" lon="10.5398521"><ele>133.0</ele><time>2026-04-21T19:12:26.911Z</time></trkpt><trkpt lat="45.4087184" lon="10.5398857"><ele>133.0</ele><time>2026-04-21T19:12:38.919Z</time></trkpt><trkpt lat="45.4086756" lon="10.5399583"><ele>133.0</ele><time>2026-04-21T19:12:47.924Z</time></trkpt><trkpt lat="45.4087583" lon="10.5398669"><ele>133.0</ele><time>2026-04-21T19:12:49.924Z</time></trkpt><trkpt lat="45.4086914" lon="10.5398737"><ele>133.0</ele><time>2026-04-21T19:12:54.915Z</time></trkpt><trkpt lat="45.4086282" lon="10.5398907"><ele>133.0</ele><time>2026-04-21T19:12:59.914Z</time></trkpt><trkpt lat="45.4086903" lon="10.5398449"><ele>133.0</ele><time>2026-04-21T19:13:02.91Z</time></trkpt><trkpt lat="45.4087878" lon="10.539797"><ele>133.0</ele><time>2026-04-21T19:13:06.917Z</time></trkpt><trkpt lat="45.408857" lon="10.539829"><ele>133.0</ele><time>2026-04-21T19:13:26.913Z</time></trkpt><trkpt lat="45.4087851" lon="10.5398312"><ele>133.0</ele><time>2026-04-21T19:13:28.909Z</time></trkpt><trkpt lat="45.4086743" lon="10.5398762"><ele>133.0</ele><time>2026-04-21T19:13:33.908Z</time></trkpt><trkpt lat="45.4087786" lon="10.5398963"><ele>133.0</ele><time>2026-04-21T19:13:38.912Z</time></trkpt><trkpt lat="45.4087074" lon="10.5399133"><ele>133.0</ele><time>2026-04-21T19:13:45.905Z</time></trkpt><trkpt lat="45.4087703" lon="10.5399386"><ele>133.0</ele><time>2026-04-21T19:13:49.917Z</time></trkpt><trkpt lat="45.4088909" lon="10.5399844"><ele>133.0</ele><time>2026-04-21T19:13:56.917Z</time></trkpt><trkpt lat="45.4090288" lon="10.539908"><ele>133.0</ele><time>2026-04-21T19:14:28.004Z</time></trkpt><trkpt lat="45.4086066" lon="10.5401982"><ele>132.8</ele><time>2026-04-21T19:14:55.908Z</time></trkpt><trkpt lat="45.4084324" lon="10.5403626"><ele>132.60000000000002</ele><time>2026-04-21T19:14:56.921Z</time></trkpt><trkpt lat="45.4083811" lon="10.5404208"><ele>132.39999999999998</ele><time>2026-04-21T19:15:00.92Z</time></trkpt><trkpt lat="45.4084505" lon="10.5403385"><ele>132.2</ele><time>2026-04-21T19:15:04.916Z</time></trkpt><trkpt lat="45.4085043" lon="10.5402815"><ele>132.0</ele><time>2026-04-21T19:15:06.917Z</time></trkpt><trkpt lat="45.4085623" lon="10.5402132"><ele>132.14285714285714</ele><time>2026-04-21T19:15:08.908Z</time></trkpt><trkpt lat="45.408623" lon="10.5401492"><ele>132.28571428571428</ele><time>2026-04-21T19:15:11.917Z</time></trkpt><trkpt lat="45.4087026" lon="10.5401027"><ele>132.42857142857144</ele><time>2026-04-21T19:15:16.911Z</time></trkpt><trkpt lat="45.4087634" lon="10.5400525"><ele>132.57142857142856</ele><time>2026-04-21T19:15:22.911Z</time></trkpt><trkpt lat="45.4088334" lon="10.539993"><ele>132.71428571428572</ele><time>2026-04-21T19:15:29.919Z</time></trkpt><trkpt lat="45.4088946" lon="10.5399544"><ele>132.85714285714286</ele><time>2026-04-21T19:15:40.911Z</time></trkpt><trkpt lat="45.4089564" lon="10.5399245"><ele>133.0</ele><time>2026-04-21T19:15:48.922Z</time></trkpt><trkpt lat="45.4089978" lon="10.5398392"><ele>133.0</ele><time>2026-04-21T19:15:53.917Z</time></trkpt><trkpt lat="45.4089286" lon="10.5398319"><ele>133.0</ele><time>2026-04-21T19:15:55.913Z</time></trkpt><trkpt lat="45.4088396" lon="10.5397167"><ele>133.0</ele><time>2026-04-21T19:16:20.919Z</time></trkpt><trkpt lat="45.4088663" lon="10.5398062"><ele>133.0</ele><time>2026-04-21T19:16:36.912Z</time></trkpt><trkpt lat="45.4089272" lon="10.5398323"><ele>133.0</ele><time>2026-04-21T19:16:47.912Z</time></trkpt><trkpt lat="45.4088857" lon="10.5397452"><ele>133.0</ele><time>2026-04-21T19:17:07.926Z</time></trkpt><trkpt lat="45.4089329" lon="10.5396797"><ele>133.0</ele><time>2026-04-21T19:19:18.922Z</time></trkpt><trkpt lat="45.4088766" lon="10.5397443"><ele>133.0</ele><time>2026-04-21T19:19:54.912Z</time></trkpt><trkpt lat="45.4088051" lon="10.5397939"><ele>133.0</ele><time>2026-04-21T19:20:22.921Z</time></trkpt><trkpt lat="45.4087304" lon="10.5398087"><ele>133.0</ele><time>2026-04-21T19:20:36.91Z</time></trkpt><trkpt lat="45.408791" lon="10.5397674"><ele>133.0</ele><time>2026-04-21T19:20:48.909Z</time></trkpt><trkpt lat="45.4088332" lon="10.5396739"><ele>133.0</ele><time>2026-04-21T19:20:54.915Z</time></trkpt><trkpt lat="45.4088534" lon="10.5397653"><ele>133.0</ele><time>2026-04-21T19:21:32.914Z</time></trkpt><trkpt lat="45.408945" lon="10.5397861"><ele>133.0</ele><time>2026-04-21T19:22:05.911Z</time></trkpt><trkpt lat="45.409002" lon="10.5397443"><ele>133.0</ele><time>2026-04-21T19:22:19.911Z</time></trkpt><trkpt lat="45.4089128" lon="10.5397656"><ele>133.0</ele><time>2026-04-21T19:23:05.919Z</time></trkpt><trkpt lat="45.4088459" lon="10.5397744"><ele>133.0</ele><time>2026-04-21T19:23:10.91Z</time></trkpt><trkpt lat="45.4089203" lon="10.5397715"><ele>133.0</ele><time>2026-04-21T19:23:51.912Z</time></trkpt><trkpt lat="45.4088805" lon="10.5396889"><ele>133.0</ele><time>2026-04-21T19:24:03.916Z</time></trkpt><trkpt lat="45.4089499" lon="10.5396121"><ele>133.0</ele><time>2026-04-21T19:24:21.912Z</time></trkpt><trkpt lat="45.4088842" lon="10.5396337"><ele>133.0</ele><time>2026-04-21T19:24:51.917Z</time></trkpt><trkpt lat="45.4089605" lon="10.5396287"><ele>133.0</ele><time>2026-04-21T19:25:16.92Z</time></trkpt><trkpt lat="45.4088916" lon="10.5397928"><ele>133.0</ele><time>2026-04-21T19:25:46.918Z</time></trkpt><trkpt lat="45.4088716" lon="10.5399156"><ele>133.0</ele><time>2026-04-21T19:26:09.918Z</time></trkpt><trkpt lat="45.4087474" lon="10.539891"><ele>133.0</ele><time>2026-04-21T19:26:27.92Z</time></trkpt><trkpt lat="45.4088113" lon="10.5398494"><ele>133.0</ele><time>2026-04-21T19:27:03.917Z</time></trkpt><trkpt lat="45.4088867" lon="10.5398284"><ele>133.0</ele><time>2026-04-21T19:27:12.91Z</time></trkpt><trkpt lat="45.4089036" lon="10.5399199"><ele>133.0</ele><time>2026-04-21T19:28:06.919Z</time></trkpt><trkpt lat="45.408822" lon="10.539903"><ele>133.0</ele><time>2026-04-21T19:28:20.911Z</time></trkpt><trkpt lat="45.4088726" lon="10.5398349"><ele>133.0</ele><time>2026-04-21T19:28:34.912Z</time></trkpt><trkpt lat="45.4089639" lon="10.5398005"><ele>133.0</ele><time>2026-04-21T19:29:41.911Z</time></trkpt><trkpt lat="45.4090063" lon="10.5397019"><ele>133.0</ele><time>2026-04-21T19:29:49.911Z</time></trkpt><trkpt lat="45.4090602" lon="10.5396506"><ele>133.0</ele><time>2026-04-21T19:29:52.92Z</time></trkpt><trkpt lat="45.4089919" lon="10.5397178"><ele>133.0</ele><time>2026-04-21T19:30:00.914Z</time></trkpt><trkpt lat="45.4089264" lon="10.539789"><ele>133.0</ele><time>2026-04-21T19:30:09.913Z</time></trkpt><trkpt lat="45.4089728" lon="10.5397227"><ele>133.0</ele><time>2026-04-21T19:30:46.91Z</time></trkpt><trkpt lat="45.4089073" lon="10.5397436"><ele>133.0</ele><time>2026-04-21T19:31:00.905Z</time></trkpt><trkpt lat="45.4089629" lon="10.5397888"><ele>133.0</ele><time>2026-04-21T19:31:05.917Z</time></trkpt><trkpt lat="45.4089157" lon="10.5398906"><ele>133.0</ele><time>2026-04-21T19:31:32.912Z</time></trkpt><trkpt lat="45.4089047" lon="10.5397924"><ele>133.0</ele><time>2026-04-21T19:32:02.912Z</time></trkpt><trkpt lat="45.4088297" lon="10.539783"><ele>133.0</ele><time>2026-04-21T19:32:13.914Z</time></trkpt><trkpt lat="45.408824" lon="10.5398821"><ele>133.0</ele><time>2026-04-21T19:32:28.919Z</time></trkpt><trkpt lat="45.4088866" lon="10.5398699"><ele>133.0</ele><time>2026-04-21T19:32:54.91Z</time></trkpt><trkpt lat="45.4088202" lon="10.5398938"><ele>133.0</ele><time>2026-04-21T19:35:15.904Z</time></trkpt><trkpt lat="45.4087353" lon="10.5399125"><ele>131.20000000000002</ele><time>2026-04-21T19:35:18.921Z</time></trkpt><trkpt lat="45.4086575" lon="10.5399017"><ele>129.4</ele><time>2026-04-21T19:35:21.909Z</time></trkpt><trkpt lat="45.4085866" lon="10.5399324"><ele>127.60000000000001</ele><time>2026-04-21T19:35:23.91Z</time></trkpt><trkpt lat="45.4085034" lon="10.5399785"><ele>125.80000000000001</ele><time>2026-04-21T19:35:25.916Z</time></trkpt><trkpt lat="45.4084084" lon="10.5400405"><ele>124.0</ele><time>2026-04-21T19:35:27.912Z</time></trkpt><trkpt lat="45.4082996" lon="10.5401051"><ele>124.00000000000001</ele><time>2026-04-21T19:35:29.918Z</time></trkpt><trkpt lat="45.4084245" lon="10.5400602"><ele>124.0</ele><time>2026-04-21T19:35:33.915Z</time></trkpt><trkpt lat="45.4084876" lon="10.5400318"><ele>124.0</ele><time>2026-04-21T19:35:34.91Z</time></trkpt><trkpt lat="45.4085714" lon="10.5400059"><ele>124.0</ele><time>2026-04-21T19:35:37.908Z</time></trkpt><trkpt lat="45.4086356" lon="10.540008"><ele>124.00000000000001</ele><time>2026-04-21T19:35:43.917Z</time></trkpt><trkpt lat="45.4085711" lon="10.5399882"><ele>124.0</ele><time>2026-04-21T19:35:49.916Z</time></trkpt><trkpt lat="45.4085796" lon="10.5398245"><ele>124.00000000000001</ele><time>2026-04-21T19:35:54.91Z</time></trkpt><trkpt lat="45.4086567" lon="10.5398135"><ele>124.0</ele><time>2026-04-21T19:36:08.917Z</time></trkpt><trkpt lat="45.4087345" lon="10.5397463"><ele>124.0</ele><time>2026-04-21T19:36:28.913Z</time></trkpt><trkpt lat="45.4088324" lon="10.5397174"><ele>124.0</ele><time>2026-04-21T19:36:40.922Z</time></trkpt><trkpt lat="45.4088906" lon="10.5396674"><ele>124.00000000000001</ele><time>2026-04-21T19:36:43.91Z</time></trkpt><trkpt lat="45.4089257" lon="10.5397579"><ele>124.0</ele><time>2026-04-21T19:37:28.917Z</time></trkpt><trkpt lat="45.4088504" lon="10.5397148"><ele>124.00000000000001</ele><time>2026-04-21T19:37:34.916Z</time></trkpt><trkpt lat="45.4087724" lon="10.5396624"><ele>124.0</ele><time>2026-04-21T19:37:40.91Z</time></trkpt><trkpt lat="45.4087061" lon="10.5396645"><ele>124.0</ele><time>2026-04-21T19:37:42.911Z</time></trkpt><trkpt lat="45.4088069" lon="10.5397094"><ele>124.0</ele><time>2026-04-21T19:38:08.913Z</time></trkpt><trkpt lat="45.4088702" lon="10.5397899"><ele>124.00000000000001</ele><time>2026-04-21T19:38:09.917Z</time></trkpt><trkpt lat="45.4088234" lon="10.5397255"><ele>124.0</ele><time>2026-04-21T19:38:17.911Z</time></trkpt><trkpt lat="45.4087546" lon="10.5396283"><ele>124.0</ele><time>2026-04-21T19:38:19.91Z</time></trkpt><trkpt lat="45.4087003" lon="10.5395819"><ele>124.00000000000001</ele><time>2026-04-21T19:38:34.917Z</time></trkpt><trkpt lat="45.4087502" lon="10.5396455"><ele>124.0</ele><time>2026-04-21T19:39:07.917Z</time></trkpt><trkpt lat="45.4088132" lon="10.5396994"><ele>124.0</ele><time>2026-04-21T19:39:14.914Z</time></trkpt><trkpt lat="45.4088231" lon="10.5397959"><ele>124.00000000000001</ele><time>2026-04-21T19:40:37.91Z</time></trkpt><trkpt lat="45.4088612" lon="10.5397175"><ele>124.0</ele><time>2026-04-21T19:40:54.91Z</time></trkpt><trkpt lat="45.4089304" lon="10.5397594"><ele>124.0</ele><time>2026-04-21T19:41:17.912Z</time></trkpt><trkpt lat="45.4089624" lon="10.5398447"><ele>125.50000000000001</ele><time>2026-04-21T19:41:34.909Z</time></trkpt><trkpt lat="45.4089091" lon="10.5399904"><ele>127.0</ele><time>2026-04-21T19:42:00.908Z</time></trkpt><trkpt lat="45.4089337" lon="10.5398802"><ele>128.5</ele><time>2026-04-21T19:43:50.919Z</time></trkpt><trkpt lat="45.4089841" lon="10.5398211"><ele>130.0</ele><time>2026-04-21T19:43:51.917Z</time></trkpt><trkpt lat="45.4090324" lon="10.539746"><ele>131.5</ele><time>2026-04-21T19:43:54.911Z</time></trkpt><trkpt lat="45.4089658" lon="10.539719"><ele>133.0</ele><time>2026-04-21T19:44:07.918Z</time></trkpt><trkpt lat="45.4090198" lon="10.5398103"><ele>133.0</ele><time>2026-04-21T19:44:21.915Z</time></trkpt><trkpt lat="45.408946" lon="10.5398502"><ele>133.0</ele><time>2026-04-21T19:44:57.909Z</time></trkpt><trkpt lat="45.4088574" lon="10.5398991"><ele>133.0</ele><time>2026-04-21T19:45:08.907Z</time></trkpt><trkpt lat="45.4089171" lon="10.5398477"><ele>133.0</ele><time>2026-04-21T19:45:18.908Z</time></trkpt><trkpt lat="45.4090366" lon="10.5397942"><ele>133.0</ele><time>2026-04-21T19:45:32.908Z</time></trkpt><trkpt lat="45.4090989" lon="10.53967"><ele>133.0</ele><time>2026-04-21T19:45:49.91Z</time></trkpt><trkpt lat="45.4090339" lon="10.5397017"><ele>133.0</ele><time>2026-04-21T19:46:00.917Z</time></trkpt><trkpt lat="45.4090781" lon="10.5398034"><ele>133.0</ele><time>2026-04-21T19:46:02.916Z</time></trkpt><trkpt lat="45.4091584" lon="10.5398439"><ele>133.0</ele><time>2026-04-21T19:46:21.909Z</time></trkpt><trkpt lat="45.4092532" lon="10.5398228"><ele>133.0</ele><time>2026-04-21T19:46:26.912Z</time></trkpt><trkpt lat="45.4091156" lon="10.5399125"><ele>133.0</ele><time>2026-04-21T19:46:41.905Z</time></trkpt><trkpt lat="45.4090184" lon="10.5399457"><ele>133.0</ele><time>2026-04-21T19:46:45.906Z</time></trkpt><trkpt lat="45.408906" lon="10.5399714"><ele>133.0</ele><time>2026-04-21T19:46:47.915Z</time></trkpt><trkpt lat="45.4088398" lon="10.5399637"><ele>133.0</ele><time>2026-04-21T19:46:57.917Z</time></trkpt><trkpt lat="45.408815" lon="10.5400493"><ele>133.0</ele><time>2026-04-21T19:47:00.906Z</time></trkpt><trkpt lat="45.4087277" lon="10.5400575"><ele>133.0</ele><time>2026-04-21T19:47:12.909Z</time></trkpt><trkpt lat="45.4086278" lon="10.5400498"><ele>131.20000000000002</ele><time>2026-04-21T19:47:29.909Z</time></trkpt><trkpt lat="45.4086795" lon="10.5399891"><ele>129.4</ele><time>2026-04-21T19:47:36.011Z</time></trkpt><trkpt lat="45.4087472" lon="10.5399088"><ele>127.60000000000001</ele><time>2026-04-21T19:47:44.91Z</time></trkpt><trkpt lat="45.4088254" lon="10.5398349"><ele>125.80000000000001</ele><time>2026-04-21T19:47:50.909Z</time></trkpt><trkpt lat="45.4088208" lon="10.5396875"><ele>124.0</ele><time>2026-04-21T19:48:08.317Z</time></trkpt><trkpt lat="45.4085843" lon="10.5394377"><ele>124.0</ele><time>2026-04-21T19:48:12.913Z</time></trkpt><trkpt lat="45.4084741" lon="10.5394637"><ele>124.0</ele><time>2026-04-21T19:48:14.905Z</time></trkpt><trkpt lat="45.4082871" lon="10.5395983"><ele>124.0</ele><time>2026-04-21T19:48:16.911Z</time></trkpt><trkpt lat="45.4082201" lon="10.5396175"><ele>124.0</ele><time>2026-04-21T19:48:17.907Z</time></trkpt><trkpt lat="45.4081044" lon="10.5396277"><ele>133.0</ele><time>2026-04-21T19:48:24.43Z</time></trkpt><trkpt lat="45.409007" lon="10.5398646"><ele>124.0</ele><time>2026-04-21T19:48:48.947Z</time></trkpt><trkpt lat="45.4084582" lon="10.5400476"><ele>124.00000000000001</ele><time>2026-04-21T19:50:24.907Z</time></trkpt><trkpt lat="45.4085247" lon="10.5400502"><ele>124.0</ele><time>2026-04-21T19:50:29.912Z</time></trkpt><trkpt lat="45.4086251" lon="10.5400359"><ele>124.0</ele><time>2026-04-21T19:50:31.918Z</time></trkpt><trkpt lat="45.4086877" lon="10.5400183"><ele>124.0</ele><time>2026-04-21T19:50:33.906Z</time></trkpt><trkpt lat="45.4087519" lon="10.5399099"><ele>124.00000000000001</ele><time>2026-04-21T19:50:58.912Z</time></trkpt><trkpt lat="45.4087038" lon="10.5398448"><ele>124.0</ele><time>2026-04-21T19:51:09.908Z</time></trkpt><trkpt lat="45.4087976" lon="10.5398018"><ele>124.0</ele><time>2026-04-21T19:51:20.915Z</time></trkpt><trkpt lat="45.4088776" lon="10.539892"><ele>124.0</ele><time>2026-04-21T19:52:38.907Z</time></trkpt><trkpt lat="45.4089659" lon="10.5399253"><ele>124.0</ele><time>2026-04-21T19:53:34.916Z</time></trkpt><trkpt lat="45.4088847" lon="10.539901"><ele>124.0</ele><time>2026-04-21T19:53:47.91Z</time></trkpt><trkpt lat="45.4087727" lon="10.5398696"><ele>124.0</ele><time>2026-04-21T19:54:04.918Z</time></trkpt><trkpt lat="45.4086418" lon="10.5398567"><ele>124.00000000000001</ele><time>2026-04-21T19:54:34.907Z</time></trkpt><trkpt lat="45.4086752" lon="10.5397569"><ele>124.0</ele><time>2026-04-21T19:55:05.909Z</time></trkpt><trkpt lat="45.408789" lon="10.5397585"><ele>124.0</ele><time>2026-04-21T19:57:19.921Z</time></trkpt><trkpt lat="45.4087264" lon="10.5398106"><ele>124.0</ele><time>2026-04-21T19:57:41.907Z</time></trkpt><trkpt lat="45.4086189" lon="10.5398469"><ele>124.00000000000001</ele><time>2026-04-21T19:58:03.907Z</time></trkpt><trkpt lat="45.4086833" lon="10.5398283"><ele>124.0</ele><time>2026-04-21T19:58:40.919Z</time></trkpt><trkpt lat="45.4087854" lon="10.5398199"><ele>125.80000000000001</ele><time>2026-04-21T19:59:24.907Z</time></trkpt><trkpt lat="45.4088863" lon="10.5399002"><ele>127.60000000000001</ele><time>2026-04-21T19:59:36.915Z</time></trkpt><trkpt lat="45.4090074" lon="10.5399657"><ele>129.4</ele><time>2026-04-21T19:59:53.917Z</time></trkpt><trkpt lat="45.4091028" lon="10.5398971"><ele>131.20000000000002</ele><time>2026-04-21T20:00:04.907Z</time></trkpt><trkpt lat="45.4090531" lon="10.5398251"><ele>133.0</ele><time>2026-04-21T20:00:21.906Z</time></trkpt><trkpt lat="45.4089936" lon="10.5397813"><ele>133.0</ele><time>2026-04-21T20:00:28.908Z</time></trkpt><trkpt lat="45.4088841" lon="10.5397518"><ele>133.0</ele><time>2026-04-21T20:01:00.914Z</time></trkpt><trkpt lat="45.4089966" lon="10.5397783"><ele>133.0</ele><time>2026-04-21T20:02:52.91Z</time></trkpt><trkpt lat="45.4089454" lon="10.5398653"><ele>133.0</ele><time>2026-04-21T20:03:29.898Z</time></trkpt><trkpt lat="45.4088616" lon="10.5397852"><ele>133.0</ele><time>2026-04-21T20:03:39.904Z</time></trkpt><trkpt lat="45.4087871" lon="10.5397047"><ele>133.0</ele><time>2026-04-21T20:03:41.914Z</time></trkpt><trkpt lat="45.4088398" lon="10.5397736"><ele>133.0</ele><time>2026-04-21T20:04:00.908Z</time></trkpt><trkpt lat="45.4089479" lon="10.5398832"><ele>133.0</ele><time>2026-04-21T20:04:18.908Z</time></trkpt><trkpt lat="45.409013" lon="10.5399721"><ele>133.0</ele><time>2026-04-21T20:04:32.91Z</time></trkpt><trkpt lat="45.4089268" lon="10.539819"><ele>133.0</ele><time>2026-04-21T20:06:13.907Z</time></trkpt><trkpt lat="45.4088061" lon="10.5398274"><ele>133.0</ele><time>2026-04-21T20:06:42.916Z</time></trkpt><trkpt lat="45.4087385" lon="10.5398267"><ele>133.0</ele><time>2026-04-21T20:06:44.909Z</time></trkpt><trkpt lat="45.4086077" lon="10.53979"><ele>133.0</ele><time>2026-04-21T20:07:06.908Z</time></trkpt><trkpt lat="45.4086979" lon="10.5397795"><ele>133.0</ele><time>2026-04-21T20:07:40.906Z</time></trkpt><trkpt lat="45.4087591" lon="10.5398021"><ele>133.0</ele><time>2026-04-21T20:07:44.91Z</time></trkpt><trkpt lat="45.4088484" lon="10.5398506"><ele>133.0</ele><time>2026-04-21T20:07:58.904Z</time></trkpt><trkpt lat="45.4089581" lon="10.5398914"><ele>133.0</ele><time>2026-04-21T20:08:23.906Z</time></trkpt><trkpt lat="45.4088084" lon="10.5398684"><ele>133.0</ele><time>2026-04-21T20:08:55.907Z</time></trkpt><trkpt lat="45.4086756" lon="10.539832"><ele>133.0</ele><time>2026-04-21T20:09:07.912Z</time></trkpt><trkpt lat="45.4086007" lon="10.5399538"><ele>131.20000000000002</ele><time>2026-04-21T20:09:28.906Z</time></trkpt><trkpt lat="45.4084997" lon="10.5400116"><ele>129.4</ele><time>2026-04-21T20:09:47.904Z</time></trkpt><trkpt lat="45.4084543" lon="10.539929"><ele>127.60000000000001</ele><time>2026-04-21T20:11:16.908Z</time></trkpt><trkpt lat="45.4085531" lon="10.5398802"><ele>125.80000000000001</ele><time>2026-04-21T20:11:28.907Z</time></trkpt><trkpt lat="45.408681" lon="10.539805"><ele>124.0</ele><time>2026-04-21T20:11:47.903Z</time></trkpt><trkpt lat="45.4088088" lon="10.5397771"><ele>124.0</ele><time>2026-04-21T20:11:55.906Z</time></trkpt><trkpt lat="45.4089409" lon="10.5398071"><ele>124.0</ele><time>2026-04-21T20:12:47.912Z</time></trkpt><trkpt lat="45.4088676" lon="10.5397798"><ele>124.0</ele><time>2026-04-21T20:14:17.917Z</time></trkpt><trkpt lat="45.4087919" lon="10.539752"><ele>124.0</ele><time>2026-04-21T20:14:51.912Z</time></trkpt><trkpt lat="45.4088798" lon="10.5398142"><ele>124.0</ele><time>2026-04-21T20:16:56.906Z</time></trkpt><trkpt lat="45.4089914" lon="10.5398377"><ele>125.50000000000001</ele><time>2026-04-21T20:17:35.903Z</time></trkpt><trkpt lat="45.4090838" lon="10.5397723"><ele>127.0</ele><time>2026-04-21T20:18:49.91Z</time></trkpt><trkpt lat="45.4090689" lon="10.5396698"><ele>128.5</ele><time>2026-04-21T20:18:57.906Z</time></trkpt><trkpt lat="45.4089953" lon="10.5396465"><ele>130.0</ele><time>2026-04-21T20:18:59.905Z</time></trkpt><trkpt lat="45.4090619" lon="10.5396317"><ele>131.5</ele><time>2026-04-21T20:19:45.906Z</time></trkpt><trkpt lat="45.408979" lon="10.5396709"><ele>133.0</ele><time>2026-04-21T20:19:54.903Z</time></trkpt><trkpt lat="45.4088601" lon="10.539754"><ele>133.0</ele><time>2026-04-21T20:20:32.907Z</time></trkpt><trkpt lat="45.4088581" lon="10.5398573"><ele>133.0</ele><time>2026-04-21T20:21:48.903Z</time></trkpt><trkpt lat="45.4089331" lon="10.5398662"><ele>133.0</ele><time>2026-04-21T20:21:56.896Z</time></trkpt><trkpt lat="45.408868" lon="10.5398685"><ele>133.0</ele><time>2026-04-21T20:22:18.908Z</time></trkpt><trkpt lat="45.4089483" lon="10.5398667"><ele>133.0</ele><time>2026-04-21T20:22:48.912Z</time></trkpt><trkpt lat="45.4089922" lon="10.5399322"><ele>133.0</ele><time>2026-04-21T20:23:08.907Z</time></trkpt><trkpt lat="45.4090733" lon="10.5399446"><ele>133.0</ele><time>2026-04-21T20:23:21.911Z</time></trkpt><trkpt lat="45.4090099" lon="10.5399317"><ele>133.0</ele><time>2026-04-21T20:23:24.912Z</time></trkpt><trkpt lat="45.4089051" lon="10.5399077"><ele>133.0</ele><time>2026-04-21T20:23:33.907Z</time></trkpt><trkpt lat="45.4087885" lon="10.539921"><ele>133.0</ele><time>2026-04-21T20:23:51.903Z</time></trkpt><trkpt lat="45.4088634" lon="10.539888"><ele>133.0</ele><time>2026-04-21T20:24:04.913Z</time></trkpt><trkpt lat="45.4089479" lon="10.5398606"><ele>133.0</ele><time>2026-04-21T20:25:06.909Z</time></trkpt><trkpt lat="45.4088825" lon="10.5398441"><ele>133.0</ele><time>2026-04-21T20:25:45.903Z</time></trkpt><trkpt lat="45.4089459" lon="10.5398181"><ele>133.0</ele><time>2026-04-21T20:27:33.917Z</time></trkpt><trkpt lat="45.4089545" lon="10.5399412"><ele>133.0</ele><time>2026-04-21T20:27:50.914Z</time></trkpt><trkpt lat="45.4089367" lon="10.5398551"><ele>133.0</ele><time>2026-04-21T20:28:03.902Z</time></trkpt><trkpt lat="45.409" lon="10.5397805"><ele>133.0</ele><time>2026-04-21T20:28:27.904Z</time></trkpt><trkpt lat="45.4089868" lon="10.5399105"><ele>133.0</ele><time>2026-04-21T20:28:46.895Z</time></trkpt><trkpt lat="45.4089237" lon="10.5398799"><ele>133.0</ele><time>2026-04-21T20:28:54.902Z</time></trkpt><trkpt lat="45.4089633" lon="10.5398067"><ele>133.0</ele><time>2026-04-21T20:31:56.914Z</time></trkpt><trkpt lat="45.4090295" lon="10.5397521"><ele>133.0</ele><time>2026-04-21T20:31:57.902Z</time></trkpt><trkpt lat="45.4089466" lon="10.5397469"><ele>133.0</ele><time>2026-04-21T20:32:22.903Z</time></trkpt><trkpt lat="45.4089028" lon="10.5398911"><ele>133.0</ele><time>2026-04-21T20:32:40.907Z</time></trkpt><trkpt lat="45.40896" lon="10.5399551"><ele>133.0</ele><time>2026-04-21T20:32:49.921Z</time></trkpt><trkpt lat="45.4088811" lon="10.539936"><ele>133.0</ele><time>2026-04-21T20:33:14.916Z</time></trkpt><trkpt lat="45.4087805" lon="10.5399264"><ele>133.0</ele><time>2026-04-21T20:33:18.91Z</time></trkpt><trkpt lat="45.4088565" lon="10.5398844"><ele>133.0</ele><time>2026-04-21T20:33:25.906Z</time></trkpt><trkpt lat="45.4089398" lon="10.5398495"><ele>133.0</ele><time>2026-04-21T20:33:30.908Z</time></trkpt><trkpt lat="45.4090599" lon="10.5398664"><ele>133.0</ele><time>2026-04-21T20:40:26.902Z</time></trkpt><trkpt lat="45.408989" lon="10.5398675"><ele>133.0</ele><time>2026-04-21T20:40:52.911Z</time></trkpt><trkpt lat="45.408947" lon="10.5397777"><ele>133.0</ele><time>2026-04-21T20:42:41.906Z</time></trkpt><trkpt lat="45.4090116" lon="10.5397438"><ele>133.0</ele><time>2026-04-21T20:45:33.902Z</time></trkpt><trkpt lat="45.4089283" lon="10.5397826"><ele>133.0</ele><time>2026-04-21T20:45:56.905Z</time></trkpt><trkpt lat="45.4089992" lon="10.5398084"><ele>133.0</ele><time>2026-04-21T20:47:58.903Z</time></trkpt><trkpt lat="45.4088845" lon="10.5397815"><ele>133.0</ele><time>2026-04-21T20:49:10.9Z</time></trkpt><trkpt lat="45.4089595" lon="10.5398402"><ele>133.0</ele><time>2026-04-21T20:49:55.912Z</time></trkpt><trkpt lat="45.408883" lon="10.5398911"><ele>133.0</ele><time>2026-04-21T20:53:50.903Z</time></trkpt><trkpt lat="45.4089385" lon="10.5400563"><ele>133.0</ele><time>2026-04-21T20:55:49.899Z</time></trkpt><trkpt lat="45.4090295" lon="10.5399161"><ele>133.0</ele><time>2026-04-21T20:55:50.898Z</time></trkpt><trkpt lat="45.4091179" lon="10.5397873"><ele>133.0</ele><time>2026-04-21T20:55:51.9Z</time></trkpt><trkpt lat="45.409053" lon="10.5397878"><ele>133.0</ele><time>2026-04-21T20:56:07.903Z</time></trkpt><trkpt lat="45.4089891" lon="10.539755"><ele>133.0</ele><time>2026-04-21T20:56:09.905Z</time></trkpt><trkpt lat="45.4088803" lon="10.5397117"><ele>133.0</ele><time>2026-04-21T20:56:17.906Z</time></trkpt><trkpt lat="45.4090014" lon="10.5396906"><ele>133.0</ele><time>2026-04-21T20:57:15.903Z</time></trkpt><trkpt lat="45.408929" lon="10.5396458"><ele>133.0</ele><time>2026-04-21T20:57:25.911Z</time></trkpt><trkpt lat="45.4089836" lon="10.5397361"><ele>133.0</ele><time>2026-04-21T20:57:54.908Z</time></trkpt><trkpt lat="45.4089968" lon="10.539647"><ele>133.0</ele><time>2026-04-21T20:58:44.904Z</time></trkpt><trkpt lat="45.4089355" lon="10.5397778"><ele>133.0</ele><time>2026-04-21T20:59:38.903Z</time></trkpt><trkpt lat="45.4089895" lon="10.5398548"><ele>133.0</ele><time>2026-04-21T21:01:38.901Z</time></trkpt><trkpt lat="45.4089369" lon="10.5398051"><ele>133.0</ele><time>2026-04-21T21:03:09.9Z</time></trkpt><trkpt lat="45.4089719" lon="10.5396969"><ele>133.0</ele><time>2026-04-21T21:03:43.905Z</time></trkpt><trkpt lat="45.4089901" lon="10.5398013"><ele>133.0</ele><time>2026-04-21T21:04:21.899Z</time></trkpt><trkpt lat="45.4090529" lon="10.5397837"><ele>133.0</ele><time>2026-04-21T21:04:39.9Z</time></trkpt><trkpt lat="45.409121" lon="10.5397117"><ele>133.0</ele><time>2026-04-21T21:04:41.907Z</time></trkpt><trkpt lat="45.4090634" lon="10.5398183"><ele>133.0</ele><time>2026-04-21T21:04:52.898Z</time></trkpt><trkpt lat="45.4090108" lon="10.5398712"><ele>133.0</ele><time>2026-04-21T21:04:55.901Z</time></trkpt><trkpt lat="45.4089379" lon="10.5399154"><ele>133.0</ele><time>2026-04-21T21:05:37.902Z</time></trkpt><trkpt lat="45.4089905" lon="10.5398025"><ele>133.0</ele><time>2026-04-21T21:05:48.903Z</time></trkpt><trkpt lat="45.4089474" lon="10.5396862"><ele>133.0</ele><time>2026-04-21T21:09:22.908Z</time></trkpt><trkpt lat="45.4089095" lon="10.5397747"><ele>133.0</ele><time>2026-04-21T21:10:25.911Z</time></trkpt><trkpt lat="45.4089911" lon="10.5398024"><ele>133.0</ele><time>2026-04-21T21:11:07.904Z</time></trkpt><trkpt lat="45.4090493" lon="10.5397247"><ele>133.0</ele><time>2026-04-21T21:12:14.907Z</time></trkpt><trkpt lat="45.4089872" lon="10.5397638"><ele>133.0</ele><time>2026-04-21T21:12:36.907Z</time></trkpt><trkpt lat="45.4088737" lon="10.5397562"><ele>133.0</ele><time>2026-04-21T21:12:57.899Z</time></trkpt><trkpt lat="45.4089503" lon="10.5397425"><ele>133.0</ele><time>2026-04-21T21:13:48.902Z</time></trkpt><trkpt lat="45.4090649" lon="10.5397592"><ele>133.0</ele><time>2026-04-21T21:14:08.909Z</time></trkpt><trkpt lat="45.4090051" lon="10.5398057"><ele>133.0</ele><time>2026-04-21T21:14:23.903Z</time></trkpt><trkpt lat="45.4088955" lon="10.5397784"><ele>133.0</ele><time>2026-04-21T21:15:04.9Z</time></trkpt><trkpt lat="45.4089852" lon="10.5397333"><ele>133.0</ele><time>2026-04-21T21:15:34.902Z</time></trkpt><trkpt lat="45.4090623" lon="10.5397659"><ele>133.0</ele><time>2026-04-21T21:17:03.901Z</time></trkpt><trkpt lat="45.40913" lon="10.5397396"><ele>133.0</ele><time>2026-04-21T21:17:25.903Z</time></trkpt><trkpt lat="45.4090641" lon="10.5397198"><ele>133.0</ele><time>2026-04-21T21:17:48.899Z</time></trkpt><trkpt lat="45.4089646" lon="10.5397453"><ele>133.0</ele><time>2026-04-21T21:18:10.907Z</time></trkpt><trkpt lat="45.409113" lon="10.5397394"><ele>133.0</ele><time>2026-04-21T21:20:27.902Z</time></trkpt><trkpt lat="45.4090934" lon="10.5399022"><ele>133.0</ele><time>2026-04-21T21:26:39.898Z</time></trkpt><trkpt lat="45.4091083" lon="10.5398055"><ele>133.0</ele><time>2026-04-21T21:26:48.9Z</time></trkpt><trkpt lat="45.4090413" lon="10.5396977"><ele>133.0</ele><time>2026-04-21T21:30:28.898Z</time></trkpt><trkpt lat="45.4089819" lon="10.5395745"><ele>133.0</ele><time>2026-04-21T21:31:00.895Z</time></trkpt><trkpt lat="45.4090813" lon="10.539574"><ele>133.0</ele><time>2026-04-21T21:31:29.903Z</time></trkpt><trkpt lat="45.4090185" lon="10.5395584"><ele>133.0</ele><time>2026-04-21T21:31:33.899Z</time></trkpt><trkpt lat="45.408972" lon="10.5396441"><ele>133.0</ele><time>2026-04-21T21:31:36.903Z</time></trkpt><trkpt lat="45.4089806" lon="10.5397415"><ele>133.0</ele><time>2026-04-21T21:31:42.898Z</time></trkpt><trkpt lat="45.4089383" lon="10.5398183"><ele>133.0</ele><time>2026-04-21T21:32:11.906Z</time></trkpt><trkpt lat="45.4088246" lon="10.5398014"><ele>133.0</ele><time>2026-04-21T21:32:12.896Z</time></trkpt><trkpt lat="45.4087476" lon="10.5397791"><ele>133.0</ele><time>2026-04-21T21:32:13.899Z</time></trkpt><trkpt lat="45.4088059" lon="10.5397314"><ele>133.0</ele><time>2026-04-21T21:32:33.904Z</time></trkpt><trkpt lat="45.4089145" lon="10.5397698"><ele>133.0</ele><time>2026-04-21T21:32:54.898Z</time></trkpt><trkpt lat="45.4089813" lon="10.5397122"><ele>133.0</ele><time>2026-04-21T21:33:02.899Z</time></trkpt><trkpt lat="45.408998" lon="10.5398062"><ele>133.0</ele><time>2026-04-21T21:36:22.909Z</time></trkpt><trkpt lat="45.4090675" lon="10.5397473"><ele>133.0</ele><time>2026-04-21T21:37:22.898Z</time></trkpt><trkpt lat="45.4090104" lon="10.5398061"><ele>133.0</ele><time>2026-04-21T21:38:48.903Z</time></trkpt><trkpt lat="45.4090783" lon="10.5398908"><ele>133.0</ele><time>2026-04-21T21:45:35.907Z</time></trkpt><trkpt lat="45.4091028" lon="10.5397909"><ele>133.0</ele><time>2026-04-21T21:46:44.897Z</time></trkpt><trkpt lat="45.408998" lon="10.5397955"><ele>133.0</ele><time>2026-04-21T21:47:03.906Z</time></trkpt><trkpt lat="45.4089016" lon="10.5398588"><ele>133.0</ele><time>2026-04-21T21:47:20.9Z</time></trkpt><trkpt lat="45.4090193" lon="10.5399243"><ele>133.0</ele><time>2026-04-21T21:48:53.904Z</time></trkpt><trkpt lat="45.4089052" lon="10.539859"><ele>133.0</ele><time>2026-04-21T21:53:12.907Z</time></trkpt><trkpt lat="45.4090164" lon="10.5398527"><ele>133.0</ele><time>2026-04-21T21:54:12.897Z</time></trkpt><trkpt lat="45.4091176" lon="10.5398239"><ele>133.0</ele><time>2026-04-21T21:54:27.906Z</time></trkpt><trkpt lat="45.4090534" lon="10.5397564"><ele>133.0</ele><time>2026-04-21T21:55:18.896Z</time></trkpt><trkpt lat="45.4089684" lon="10.5398072"><ele>133.0</ele><time>2026-04-21T21:58:08.898Z</time></trkpt><trkpt lat="45.4089993" lon="10.5399043"><ele>133.0</ele><time>2026-04-21T22:00:26.897Z</time></trkpt><trkpt lat="45.4089797" lon="10.5399992"><ele>133.0</ele><time>2026-04-21T22:01:36.906Z</time></trkpt><trkpt lat="45.4090269" lon="10.5400695"><ele>133.0</ele><time>2026-04-21T22:01:41.9Z</time></trkpt><trkpt lat="45.4091249" lon="10.5400645"><ele>133.0</ele><time>2026-04-21T22:01:55.902Z</time></trkpt><trkpt lat="45.4091867" lon="10.5399623"><ele>133.0</ele><time>2026-04-21T22:02:21.89Z</time></trkpt><trkpt lat="45.4091549" lon="10.5398391"><ele>133.0</ele><time>2026-04-21T22:02:23.897Z</time></trkpt><trkpt lat="45.4091274" lon="10.539754"><ele>133.0</ele><time>2026-04-21T22:02:25.903Z</time></trkpt><trkpt lat="45.409064" lon="10.5396821"><ele>133.0</ele><time>2026-04-21T22:02:29.897Z</time></trkpt><trkpt lat="45.4090232" lon="10.5397549"><ele>133.0</ele><time>2026-04-21T22:03:11.898Z</time></trkpt><trkpt lat="45.4089966" lon="10.539859"><ele>133.0</ele><time>2026-04-21T22:03:18.892Z</time></trkpt><trkpt lat="45.4088736" lon="10.5398092"><ele>133.0</ele><time>2026-04-21T22:03:30.904Z</time></trkpt><trkpt lat="45.408895" lon="10.5396952"><ele>133.0</ele><time>2026-04-21T22:03:45.904Z</time></trkpt><trkpt lat="45.4088188" lon="10.5397257"><ele>133.0</ele><time>2026-04-21T22:03:54.901Z</time></trkpt><trkpt lat="45.4087426" lon="10.5397964"><ele>133.0</ele><time>2026-04-21T22:03:57.895Z</time></trkpt><trkpt lat="45.4088163" lon="10.5398602"><ele>133.0</ele><time>2026-04-21T22:04:05.907Z</time></trkpt><trkpt lat="45.4089627" lon="10.5398804"><ele>133.0</ele><time>2026-04-21T22:04:17.901Z</time></trkpt><trkpt lat="45.4090708" lon="10.5397651"><ele>133.0</ele><time>2026-04-21T22:04:35.9Z</time></trkpt><trkpt lat="45.4090065" lon="10.539844"><ele>133.0</ele><time>2026-04-21T22:04:51.906Z</time></trkpt><trkpt lat="45.4088854" lon="10.5399267"><ele>133.0</ele><time>2026-04-21T22:04:59.899Z</time></trkpt><trkpt lat="45.4088751" lon="10.5398295"><ele>133.0</ele><time>2026-04-21T22:05:23.899Z</time></trkpt><trkpt lat="45.4089215" lon="10.5397441"><ele>133.0</ele><time>2026-04-21T22:05:24.899Z</time></trkpt><trkpt lat="45.4090473" lon="10.5397316"><ele>133.0</ele><time>2026-04-21T22:08:24.905Z</time></trkpt><trkpt lat="45.4089892" lon="10.5397736"><ele>133.0</ele><time>2026-04-21T22:09:13.9Z</time></trkpt><trkpt lat="45.4089243" lon="10.5397437"><ele>133.0</ele><time>2026-04-21T22:10:31.897Z</time></trkpt><trkpt lat="45.4089817" lon="10.5397033"><ele>133.0</ele><time>2026-04-21T22:10:47.898Z</time></trkpt><trkpt lat="45.4089312" lon="10.5397785"><ele>133.0</ele><time>2026-04-21T22:11:46.905Z</time></trkpt><trkpt lat="45.4090433" lon="10.5397519"><ele>133.0</ele><time>2026-04-21T22:13:10.903Z</time></trkpt><trkpt lat="45.4090285" lon="10.5396238"><ele>133.0</ele><time>2026-04-21T22:13:20.9Z</time></trkpt><trkpt lat="45.4089382" lon="10.5396104"><ele>133.0</ele><time>2026-04-21T22:13:36.898Z</time></trkpt><trkpt lat="45.4089132" lon="10.5396992"><ele>133.0</ele><time>2026-04-21T22:13:37.899Z</time></trkpt><trkpt lat="45.4089197" lon="10.5398248"><ele>133.0</ele><time>2026-04-21T22:13:39.9Z</time></trkpt><trkpt lat="45.4090056" lon="10.5398324"><ele>133.0</ele><time>2026-04-21T22:15:33.893Z</time></trkpt><trkpt lat="45.4089482" lon="10.5397505"><ele>133.0</ele><time>2026-04-21T22:16:39.898Z</time></trkpt><trkpt lat="45.4089457" lon="10.5398511"><ele>133.0</ele><time>2026-04-21T22:17:53.902Z</time></trkpt><trkpt lat="45.4090418" lon="10.5398287"><ele>133.0</ele><time>2026-04-21T22:19:17.902Z</time></trkpt><trkpt lat="45.4089441" lon="10.5399132"><ele>133.0</ele><time>2026-04-21T22:19:26.897Z</time></trkpt><trkpt lat="45.4088727" lon="10.5399725"><ele>133.0</ele><time>2026-04-21T22:19:28.896Z</time></trkpt><trkpt lat="45.4089131" lon="10.5398812"><ele>133.0</ele><time>2026-04-21T22:19:55.909Z</time></trkpt><trkpt lat="45.4090144" lon="10.5398835"><ele>133.0</ele><time>2026-04-21T22:20:39.897Z</time></trkpt><trkpt lat="45.4089536" lon="10.5398429"><ele>133.0</ele><time>2026-04-21T22:20:55.898Z</time></trkpt><trkpt lat="45.4090151" lon="10.5397974"><ele>133.0</ele><time>2026-04-21T22:21:14.905Z</time></trkpt><trkpt lat="45.408955" lon="10.5398598"><ele>133.0</ele><time>2026-04-21T22:21:59.906Z</time></trkpt><trkpt lat="45.4089977" lon="10.5397831"><ele>133.0</ele><time>2026-04-21T22:23:29.898Z</time></trkpt><trkpt lat="45.4089421" lon="10.5397046"><ele>133.0</ele><time>2026-04-21T22:24:00.904Z</time></trkpt><trkpt lat="45.4090315" lon="10.5397319"><ele>133.0</ele><time>2026-04-21T22:25:09.894Z</time></trkpt><trkpt lat="45.4091412" lon="10.539759"><ele>133.0</ele><time>2026-04-21T22:25:11.901Z</time></trkpt><trkpt lat="45.4092263" lon="10.5397791"><ele>133.0</ele><time>2026-04-21T22:25:14.899Z</time></trkpt><trkpt lat="45.4091542" lon="10.539811"><ele>133.0</ele><time>2026-04-21T22:25:39.895Z</time></trkpt><trkpt lat="45.4090444" lon="10.5397744"><ele>133.0</ele><time>2026-04-21T22:25:56.896Z</time></trkpt><trkpt lat="45.4089675" lon="10.5398407"><ele>133.0</ele><time>2026-04-21T22:26:50.91Z</time></trkpt><trkpt lat="45.4090316" lon="10.5397769"><ele>133.0</ele><time>2026-04-21T22:30:35.992Z</time></trkpt><trkpt lat="45.4089624" lon="10.53976"><ele>133.0</ele><time>2026-04-21T22:30:56.899Z</time></trkpt><trkpt lat="45.4090418" lon="10.5396285"><ele>133.0</ele><time>2026-04-21T22:32:32.905Z</time></trkpt><trkpt lat="45.4090356" lon="10.5397358"><ele>133.0</ele><time>2026-04-21T22:32:46.905Z</time></trkpt><trkpt lat="45.4089357" lon="10.5398375"><ele>133.0</ele><time>2026-04-21T22:33:01.896Z</time></trkpt><trkpt lat="45.4089928" lon="10.539793"><ele>133.0</ele><time>2026-04-21T22:33:34.896Z</time></trkpt><trkpt lat="45.4090312" lon="10.5397161"><ele>133.0</ele><time>2026-04-21T22:33:37.905Z</time></trkpt><trkpt lat="45.4091174" lon="10.5395979"><ele>133.0</ele><time>2026-04-21T22:33:49.907Z</time></trkpt><trkpt lat="45.4090425" lon="10.5395733"><ele>133.0</ele><time>2026-04-21T22:34:13.897Z</time></trkpt><trkpt lat="45.4090909" lon="10.539671"><ele>133.0</ele><time>2026-04-21T22:34:38.896Z</time></trkpt><trkpt lat="45.408994" lon="10.5397883"><ele>133.0</ele><time>2026-04-21T22:35:04.899Z</time></trkpt><trkpt lat="45.4089239" lon="10.5398279"><ele>133.0</ele><time>2026-04-21T22:35:05.9Z</time></trkpt><trkpt lat="45.408859" lon="10.5398488"><ele>133.0</ele><time>2026-04-21T22:35:06.905Z</time></trkpt><trkpt lat="45.4089532" lon="10.5398622"><ele>133.0</ele><time>2026-04-21T22:35:14.894Z</time></trkpt><trkpt lat="45.4090644" lon="10.5398892"><ele>133.0</ele><time>2026-04-21T22:35:16.904Z</time></trkpt><trkpt lat="45.4091514" lon="10.5399125"><ele>133.0</ele><time>2026-04-21T22:35:22.898Z</time></trkpt><trkpt lat="45.4092492" lon="10.5399164"><ele>133.0</ele><time>2026-04-21T22:35:30.897Z</time></trkpt><trkpt lat="45.4091965" lon="10.5397909"><ele>133.0</ele><time>2026-04-21T22:36:00.895Z</time></trkpt><trkpt lat="45.409148" lon="10.5397114"><ele>133.0</ele><time>2026-04-21T22:36:03.904Z</time></trkpt><trkpt lat="45.4090676" lon="10.5396886"><ele>133.0</ele><time>2026-04-21T22:36:08.897Z</time></trkpt><trkpt lat="45.4089816" lon="10.5397146"><ele>133.0</ele><time>2026-04-21T22:36:21.902Z</time></trkpt><trkpt lat="45.4089427" lon="10.5396298"><ele>133.0</ele><time>2026-04-21T22:37:24.899Z</time></trkpt><trkpt lat="45.4088531" lon="10.5396098"><ele>133.0</ele><time>2026-04-21T22:38:04.907Z</time></trkpt><trkpt lat="45.4088619" lon="10.5396987"><ele>133.0</ele><time>2026-04-21T22:39:56.901Z</time></trkpt><trkpt lat="45.4089566" lon="10.5397682"><ele>133.0</ele><time>2026-04-21T22:40:27.896Z</time></trkpt><trkpt lat="45.409036" lon="10.5398645"><ele>133.0</ele><time>2026-04-21T22:40:51.895Z</time></trkpt><trkpt lat="45.4089717" lon="10.5398093"><ele>133.0</ele><time>2026-04-21T22:42:25.901Z</time></trkpt><trkpt lat="45.4088594" lon="10.5397669"><ele>133.0</ele><time>2026-04-21T22:42:53.899Z</time></trkpt><trkpt lat="45.4089649" lon="10.5397387"><ele>133.0</ele><time>2026-04-21T22:44:42.897Z</time></trkpt><trkpt lat="45.4090318" lon="10.5396926"><ele>133.0</ele><time>2026-04-21T22:44:51.89Z</time></trkpt><trkpt lat="45.4089595" lon="10.5396982"><ele>133.0</ele><time>2026-04-21T22:45:11.899Z</time></trkpt><trkpt lat="45.4090208" lon="10.5397726"><ele>133.0</ele><time>2026-04-21T22:46:01.895Z</time></trkpt><trkpt lat="45.4089626" lon="10.5398212"><ele>133.0</ele><time>2026-04-21T22:46:28.899Z</time></trkpt><trkpt lat="45.4089669" lon="10.5396897"><ele>133.0</ele><time>2026-04-21T22:47:08.898Z</time></trkpt><trkpt lat="45.4089617" lon="10.5397805"><ele>133.0</ele><time>2026-04-21T22:48:17.903Z</time></trkpt><trkpt lat="45.4089987" lon="10.5399136"><ele>133.0</ele><time>2026-04-21T22:48:57.896Z</time></trkpt><trkpt lat="45.4090012" lon="10.5397251"><ele>133.0</ele><time>2026-04-21T22:50:08.902Z</time></trkpt><trkpt lat="45.4090067" lon="10.5398486"><ele>133.0</ele><time>2026-04-21T22:51:25.897Z</time></trkpt><trkpt lat="45.4090773" lon="10.5399593"><ele>133.0</ele><time>2026-04-21T22:51:56.902Z</time></trkpt><trkpt lat="45.4091151" lon="10.53988"><ele>133.0</ele><time>2026-04-21T22:52:26.904Z</time></trkpt><trkpt lat="45.4090471" lon="10.539808"><ele>133.0</ele><time>2026-04-21T22:54:41.893Z</time></trkpt><trkpt lat="45.4090404" lon="10.5396978"><ele>133.0</ele><time>2026-04-21T22:55:48.896Z</time></trkpt><trkpt lat="45.4089238" lon="10.5396947"><ele>133.0</ele><time>2026-04-21T22:58:59.908Z</time></trkpt><trkpt lat="45.4089378" lon="10.5397856"><ele>133.0</ele><time>2026-04-21T23:01:01.902Z</time></trkpt><trkpt lat="45.4090065" lon="10.5398821"><ele>133.0</ele><time>2026-04-21T23:01:38.894Z</time></trkpt><trkpt lat="45.4090936" lon="10.5399445"><ele>133.0</ele><time>2026-04-21T23:02:19.904Z</time></trkpt><trkpt lat="45.4090999" lon="10.539852"><ele>133.0</ele><time>2026-04-21T23:04:01.896Z</time></trkpt><trkpt lat="45.4090682" lon="10.5397539"><ele>133.0</ele><time>2026-04-21T23:04:20.893Z</time></trkpt><trkpt lat="45.408967" lon="10.5396861"><ele>133.0</ele><time>2026-04-21T23:06:45.895Z</time></trkpt><trkpt lat="45.4089864" lon="10.5395962"><ele>133.0</ele><time>2026-04-21T23:07:26.892Z</time></trkpt><trkpt lat="45.4089715" lon="10.5396841"><ele>133.0</ele><time>2026-04-21T23:07:53.895Z</time></trkpt><trkpt lat="45.4088766" lon="10.5396748"><ele>133.0</ele><time>2026-04-21T23:11:15.894Z</time></trkpt><trkpt lat="45.4089109" lon="10.5397784"><ele>133.0</ele><time>2026-04-21T23:11:41.899Z</time></trkpt><trkpt lat="45.4090247" lon="10.5397399"><ele>133.0</ele><time>2026-04-21T23:12:23.902Z</time></trkpt><trkpt lat="45.409107" lon="10.5398408"><ele>133.0</ele><time>2026-04-21T23:12:39.896Z</time></trkpt><trkpt lat="45.4090242" lon="10.539806"><ele>133.0</ele><time>2026-04-21T23:13:06.897Z</time></trkpt><trkpt lat="45.409031" lon="10.5396906"><ele>133.0</ele><time>2026-04-21T23:15:17.896Z</time></trkpt><trkpt lat="45.4089962" lon="10.5397681"><ele>133.0</ele><time>2026-04-21T23:16:09.898Z</time></trkpt><trkpt lat="45.408919" lon="10.5397517"><ele>133.0</ele><time>2026-04-21T23:17:13.907Z</time></trkpt><trkpt lat="45.4089549" lon="10.5398476"><ele>133.0</ele><time>2026-04-21T23:18:07.901Z</time></trkpt><trkpt lat="45.4090136" lon="10.5397802"><ele>133.0</ele><time>2026-04-21T23:19:01.903Z</time></trkpt><trkpt lat="45.4090718" lon="10.5396807"><ele>133.0</ele><time>2026-04-21T23:20:18.899Z</time></trkpt><trkpt lat="45.4091262" lon="10.5395658"><ele>133.0</ele><time>2026-04-21T23:21:19.9Z</time></trkpt><trkpt lat="45.4091489" lon="10.5394526"><ele>133.0</ele><time>2026-04-21T23:22:13.895Z</time></trkpt><trkpt lat="45.409155" lon="10.5395549"><ele>133.0</ele><time>2026-04-21T23:22:34.9Z</time></trkpt><trkpt lat="45.4091063" lon="10.539674"><ele>133.0</ele><time>2026-04-21T23:23:02.892Z</time></trkpt><trkpt lat="45.4090151" lon="10.5396981"><ele>133.0</ele><time>2026-04-21T23:24:05.892Z</time></trkpt><trkpt lat="45.4090463" lon="10.5395981"><ele>133.0</ele><time>2026-04-21T23:25:26.896Z</time></trkpt><trkpt lat="45.4090239" lon="10.5396868"><ele>133.0</ele><time>2026-04-21T23:25:54.896Z</time></trkpt><trkpt lat="45.4089948" lon="10.5398319"><ele>133.0</ele><time>2026-04-21T23:28:16.893Z</time></trkpt><trkpt lat="45.4090551" lon="10.5397697"><ele>133.0</ele><time>2026-04-21T23:28:50.889Z</time></trkpt><trkpt lat="45.4091" lon="10.5398383"><ele>133.0</ele><time>2026-04-21T23:31:19.883Z</time></trkpt><trkpt lat="45.4090256" lon="10.5398119"><ele>133.0</ele><time>2026-04-21T23:31:20.895Z</time></trkpt><trkpt lat="45.4091103" lon="10.539693"><ele>133.0</ele><time>2026-04-21T23:32:25.898Z</time></trkpt><trkpt lat="45.4090813" lon="10.5396123"><ele>133.0</ele><time>2026-04-21T23:32:47.89Z</time></trkpt><trkpt lat="45.4090161" lon="10.5395378"><ele>133.0</ele><time>2026-04-21T23:33:00.898Z</time></trkpt><trkpt lat="45.4090518" lon="10.5396346"><ele>133.0</ele><time>2026-04-21T23:33:12.888Z</time></trkpt><trkpt lat="45.4090132" lon="10.5397396"><ele>133.0</ele><time>2026-04-21T23:33:30.894Z</time></trkpt><trkpt lat="45.4090067" lon="10.5396484"><ele>133.0</ele><time>2026-04-21T23:33:41.897Z</time></trkpt><trkpt lat="45.4091159" lon="10.53964"><ele>133.0</ele><time>2026-04-21T23:36:35.891Z</time></trkpt><trkpt lat="45.409046" lon="10.5396869"><ele>133.0</ele><time>2026-04-21T23:37:24.9Z</time></trkpt><trkpt lat="45.4089661" lon="10.5396089"><ele>133.0</ele><time>2026-04-21T23:38:31.893Z</time></trkpt><trkpt lat="45.408978" lon="10.5395102"><ele>133.0</ele><time>2026-04-21T23:38:43.908Z</time></trkpt><trkpt lat="45.4089842" lon="10.5396544"><ele>133.0</ele><time>2026-04-21T23:39:02.893Z</time></trkpt><trkpt lat="45.4089945" lon="10.5395257"><ele>133.0</ele><time>2026-04-21T23:45:21.894Z</time></trkpt><trkpt lat="45.4089796" lon="10.5394313"><ele>133.0</ele><time>2026-04-21T23:46:08.893Z</time></trkpt><trkpt lat="45.4090172" lon="10.5393581"><ele>133.0</ele><time>2026-04-21T23:46:10.889Z</time></trkpt><trkpt lat="45.4090891" lon="10.5392862"><ele>133.0</ele><time>2026-04-21T23:46:24.896Z</time></trkpt><trkpt lat="45.409077" lon="10.5394109"><ele>133.0</ele><time>2026-04-21T23:46:43.893Z</time></trkpt><trkpt lat="45.4090425" lon="10.5395765"><ele>133.0</ele><time>2026-04-21T23:46:56.885Z</time></trkpt><trkpt lat="45.4090567" lon="10.5394613"><ele>133.0</ele><time>2026-04-21T23:47:37.899Z</time></trkpt><trkpt lat="45.4090506" lon="10.5395865"><ele>133.0</ele><time>2026-04-21T23:48:17.9Z</time></trkpt><trkpt lat="45.408991" lon="10.5395393"><ele>133.0</ele><time>2026-04-21T23:49:03.888Z</time></trkpt><trkpt lat="45.4089399" lon="10.539633"><ele>133.0</ele><time>2026-04-21T23:50:06.894Z</time></trkpt><trkpt lat="45.4090195" lon="10.539647"><ele>133.0</ele><time>2026-04-21T23:51:06.888Z</time></trkpt><trkpt lat="45.4089875" lon="10.5395519"><ele>133.0</ele><time>2026-04-21T23:51:18.897Z</time></trkpt><trkpt lat="45.4090625" lon="10.5395079"><ele>133.0</ele><time>2026-04-21T23:51:54.897Z</time></trkpt><trkpt lat="45.4090768" lon="10.5395965"><ele>133.0</ele><time>2026-04-21T23:52:38.892Z</time></trkpt><trkpt lat="45.4089938" lon="10.5397117"><ele>133.0</ele><time>2026-04-21T23:53:10.891Z</time></trkpt><trkpt lat="45.4090617" lon="10.539745"><ele>133.0</ele><time>2026-04-21T23:53:28.899Z</time></trkpt><trkpt lat="45.4091433" lon="10.5397843"><ele>133.0</ele><time>2026-04-21T23:53:48.894Z</time></trkpt><trkpt lat="45.4092298" lon="10.5396978"><ele>133.0</ele><time>2026-04-21T23:54:12.897Z</time></trkpt><trkpt lat="45.4092282" lon="10.5395849"><ele>133.0</ele><time>2026-04-21T23:54:20.9Z</time></trkpt><trkpt lat="45.4091159" lon="10.539573"><ele>133.0</ele><time>2026-04-21T23:54:37.893Z</time></trkpt><trkpt lat="45.4092049" lon="10.5396271"><ele>133.0</ele><time>2026-04-21T23:56:59.897Z</time></trkpt><trkpt lat="45.4091436" lon="10.5396593"><ele>133.0</ele><time>2026-04-21T23:57:33.897Z</time></trkpt><trkpt lat="45.409073" lon="10.5397487"><ele>133.0</ele><time>2026-04-21T23:57:56.906Z</time></trkpt><trkpt lat="45.4089697" lon="10.5398727"><ele>133.0</ele><time>2026-04-21T23:58:16.889Z</time></trkpt><trkpt lat="45.4090317" lon="10.5398507"><ele>133.0</ele><time>2026-04-21T23:58:36.886Z</time></trkpt><trkpt lat="45.4089604" lon="10.5399055"><ele>133.0</ele><time>2026-04-21T23:58:46.895Z</time></trkpt><trkpt lat="45.4089372" lon="10.539773"><ele>133.0</ele><time>2026-04-21T23:59:03.892Z</time></trkpt><trkpt lat="45.4089672" lon="10.5396386"><ele>133.0</ele><time>2026-04-21T23:59:18.897Z</time></trkpt><trkpt lat="45.4089812" lon="10.5397327"><ele>133.0</ele><time>2026-04-22T00:01:13.894Z</time></trkpt><trkpt lat="45.4089614" lon="10.5398489"><ele>133.0</ele><time>2026-04-22T00:03:12.896Z</time></trkpt><trkpt lat="45.4090079" lon="10.5397773"><ele>133.0</ele><time>2026-04-22T00:04:33.893Z</time></trkpt><trkpt lat="45.4091443" lon="10.539711"><ele>133.0</ele><time>2026-04-22T00:05:48.891Z</time></trkpt><trkpt lat="45.4090721" lon="10.5397234"><ele>133.0</ele><time>2026-04-22T00:06:18.888Z</time></trkpt><trkpt lat="45.4089679" lon="10.5398104"><ele>133.0</ele><time>2026-04-22T00:06:48.897Z</time></trkpt><trkpt lat="45.4089451" lon="10.5399751"><ele>133.0</ele><time>2026-04-22T00:06:58.892Z</time></trkpt><trkpt lat="45.4090019" lon="10.5399234"><ele>133.0</ele><time>2026-04-22T00:07:18.895Z</time></trkpt><trkpt lat="45.4090631" lon="10.5397616"><ele>133.0</ele><time>2026-04-22T00:07:35.893Z</time></trkpt><trkpt lat="45.4090374" lon="10.5396483"><ele>133.0</ele><time>2026-04-22T00:07:49.898Z</time></trkpt><trkpt lat="45.4089778" lon="10.5397511"><ele>133.0</ele><time>2026-04-22T00:08:03.891Z</time></trkpt><trkpt lat="45.4089046" lon="10.5399084"><ele>133.0</ele><time>2026-04-22T00:09:06.9Z</time></trkpt><trkpt lat="45.4089225" lon="10.5397813"><ele>133.0</ele><time>2026-04-22T00:13:14.893Z</time></trkpt><trkpt lat="45.4090185" lon="10.5397477"><ele>133.0</ele><time>2026-04-22T00:14:27.893Z</time></trkpt><trkpt lat="45.4089538" lon="10.5398087"><ele>133.0</ele><time>2026-04-22T00:15:27.897Z</time></trkpt><trkpt lat="45.4090368" lon="10.539752"><ele>133.0</ele><time>2026-04-22T00:16:11.888Z</time></trkpt><trkpt lat="45.4090053" lon="10.5398487"><ele>133.0</ele><time>2026-04-22T00:17:14.897Z</time></trkpt><trkpt lat="45.4088873" lon="10.5398573"><ele>133.0</ele><time>2026-04-22T00:17:24.891Z</time></trkpt><trkpt lat="45.4089733" lon="10.5398333"><ele>133.0</ele><time>2026-04-22T00:17:52.894Z</time></trkpt><trkpt lat="45.4090337" lon="10.5397359"><ele>133.0</ele><time>2026-04-22T00:17:53.897Z</time></trkpt><trkpt lat="45.4089749" lon="10.5397867"><ele>133.0</ele><time>2026-04-22T00:18:03.899Z</time></trkpt><trkpt lat="45.4088794" lon="10.539909"><ele>133.0</ele><time>2026-04-22T00:18:20.891Z</time></trkpt><trkpt lat="45.4089476" lon="10.539813"><ele>133.0</ele><time>2026-04-22T00:18:40.892Z</time></trkpt><trkpt lat="45.4089628" lon="10.5400001"><ele>133.0</ele><time>2026-04-22T00:21:43.895Z</time></trkpt><trkpt lat="45.4089365" lon="10.5399134"><ele>133.0</ele><time>2026-04-22T00:21:55.896Z</time></trkpt><trkpt lat="45.4088295" lon="10.5398956"><ele>133.0</ele><time>2026-04-22T00:24:27.889Z</time></trkpt><trkpt lat="45.4087259" lon="10.5398522"><ele>133.0</ele><time>2026-04-22T00:24:38.892Z</time></trkpt><trkpt lat="45.4088068" lon="10.5399054"><ele>133.0</ele><time>2026-04-22T00:25:12.899Z</time></trkpt><trkpt lat="45.4088911" lon="10.5398681"><ele>133.0</ele><time>2026-04-22T00:25:41.892Z</time></trkpt><trkpt lat="45.4088234" lon="10.5397954"><ele>133.0</ele><time>2026-04-22T00:26:27.893Z</time></trkpt><trkpt lat="45.4087482" lon="10.5398966"><ele>133.0</ele><time>2026-04-22T00:26:55.893Z</time></trkpt><trkpt lat="45.4088593" lon="10.5399444"><ele>133.0</ele><time>2026-04-22T00:27:58.895Z</time></trkpt><trkpt lat="45.408947" lon="10.5399"><ele>133.0</ele><time>2026-04-22T00:28:16.89Z</time></trkpt><trkpt lat="45.4090142" lon="10.5398194"><ele>133.0</ele><time>2026-04-22T00:30:58.887Z</time></trkpt><trkpt lat="45.4088895" lon="10.5397949"><ele>133.0</ele><time>2026-04-22T00:31:22.891Z</time></trkpt><trkpt lat="45.408851" lon="10.5396608"><ele>133.0</ele><time>2026-04-22T00:33:16.886Z</time></trkpt><trkpt lat="45.408952" lon="10.5396264"><ele>133.0</ele><time>2026-04-22T00:33:38.892Z</time></trkpt><trkpt lat="45.4089879" lon="10.539739"><ele>133.0</ele><time>2026-04-22T00:33:52.891Z</time></trkpt><trkpt lat="45.4089385" lon="10.5398276"><ele>133.0</ele><time>2026-04-22T00:34:58.891Z</time></trkpt><trkpt lat="45.4088398" lon="10.539956"><ele>133.0</ele><time>2026-04-22T00:35:46.897Z</time></trkpt><trkpt lat="45.4088859" lon="10.5400761"><ele>133.0</ele><time>2026-04-22T00:36:22.885Z</time></trkpt><trkpt lat="45.4089706" lon="10.5401195"><ele>133.0</ele><time>2026-04-22T00:36:26.896Z</time></trkpt><trkpt lat="45.4090351" lon="10.5400154"><ele>133.0</ele><time>2026-04-22T00:36:36.892Z</time></trkpt><trkpt lat="45.408967" lon="10.539907"><ele>133.0</ele><time>2026-04-22T00:36:54.887Z</time></trkpt><trkpt lat="45.4089664" lon="10.5398012"><ele>133.0</ele><time>2026-04-22T00:37:24.899Z</time></trkpt><trkpt lat="45.4090497" lon="10.5398005"><ele>133.0</ele><time>2026-04-22T00:37:50.898Z</time></trkpt><trkpt lat="45.4089786" lon="10.5397765"><ele>133.0</ele><time>2026-04-22T00:38:28.893Z</time></trkpt><trkpt lat="45.4089166" lon="10.5398546"><ele>133.0</ele><time>2026-04-22T00:38:55.895Z</time></trkpt><trkpt lat="45.4088903" lon="10.5397461"><ele>133.0</ele><time>2026-04-22T00:39:46.887Z</time></trkpt><trkpt lat="45.4089729" lon="10.5397693"><ele>133.0</ele><time>2026-04-22T00:40:44.888Z</time></trkpt><trkpt lat="45.4088952" lon="10.53982"><ele>133.0</ele><time>2026-04-22T00:40:54.891Z</time></trkpt><trkpt lat="45.4087725" lon="10.5398444"><ele>133.0</ele><time>2026-04-22T00:41:06.885Z</time></trkpt><trkpt lat="45.4088614" lon="10.5397833"><ele>133.0</ele><time>2026-04-22T00:41:16.888Z</time></trkpt><trkpt lat="45.4089757" lon="10.5397384"><ele>133.0</ele><time>2026-04-22T00:41:42.893Z</time></trkpt><trkpt lat="45.4090388" lon="10.5397862"><ele>133.0</ele><time>2026-04-22T00:41:48.881Z</time></trkpt><trkpt lat="45.4090021" lon="10.5399065"><ele>133.0</ele><time>2026-04-22T00:42:05.886Z</time></trkpt><trkpt lat="45.4088951" lon="10.5398644"><ele>133.0</ele><time>2026-04-22T00:43:05.895Z</time></trkpt><trkpt lat="45.4089931" lon="10.5398144"><ele>133.0</ele><time>2026-04-22T00:44:18.897Z</time></trkpt><trkpt lat="45.4090477" lon="10.5397466"><ele>133.0</ele><time>2026-04-22T00:44:20.897Z</time></trkpt><trkpt lat="45.4091038" lon="10.5396589"><ele>133.0</ele><time>2026-04-22T00:44:23.888Z</time></trkpt><trkpt lat="45.4090029" lon="10.5397188"><ele>133.0</ele><time>2026-04-22T00:44:51.896Z</time></trkpt><trkpt lat="45.4089745" lon="10.5398183"><ele>133.0</ele><time>2026-04-22T00:46:35.891Z</time></trkpt><trkpt lat="45.4089165" lon="10.5398687"><ele>133.0</ele><time>2026-04-22T00:48:26.879Z</time></trkpt><trkpt lat="45.408846" lon="10.5399581"><ele>133.0</ele><time>2026-04-22T00:48:33.88Z</time></trkpt><trkpt lat="45.4088622" lon="10.5398472"><ele>133.0</ele><time>2026-04-22T00:48:53.894Z</time></trkpt><trkpt lat="45.4089276" lon="10.5398325"><ele>133.0</ele><time>2026-04-22T00:49:27.878Z</time></trkpt><trkpt lat="45.4088658" lon="10.5398519"><ele>133.0</ele><time>2026-04-22T00:53:12.888Z</time></trkpt><trkpt lat="45.408947" lon="10.5397587"><ele>133.0</ele><time>2026-04-22T00:53:52.889Z</time></trkpt><trkpt lat="45.4090186" lon="10.5397862"><ele>133.0</ele><time>2026-04-22T00:54:02.893Z</time></trkpt><trkpt lat="45.4089941" lon="10.5398753"><ele>133.0</ele><time>2026-04-22T00:54:51.887Z</time></trkpt><trkpt lat="45.4090244" lon="10.5397812"><ele>133.0</ele><time>2026-04-22T00:55:41.897Z</time></trkpt><trkpt lat="45.4089251" lon="10.5398888"><ele>133.0</ele><time>2026-04-22T00:56:40.894Z</time></trkpt><trkpt lat="45.4089839" lon="10.539787"><ele>133.0</ele><time>2026-04-22T00:57:00.892Z</time></trkpt><trkpt lat="45.4090426" lon="10.5397014"><ele>133.0</ele><time>2026-04-22T00:57:05.893Z</time></trkpt><trkpt lat="45.4090901" lon="10.5396212"><ele>133.0</ele><time>2026-04-22T00:57:09.879Z</time></trkpt><trkpt lat="45.4090267" lon="10.5396709"><ele>133.0</ele><time>2026-04-22T00:57:23.883Z</time></trkpt><trkpt lat="45.4089601" lon="10.5398354"><ele>133.0</ele><time>2026-04-22T00:57:27.891Z</time></trkpt><trkpt lat="45.4089072" lon="10.5399895"><ele>133.0</ele><time>2026-04-22T00:58:25.885Z</time></trkpt><trkpt lat="45.4088651" lon="10.5398953"><ele>133.0</ele><time>2026-04-22T00:59:42.886Z</time></trkpt><trkpt lat="45.4089172" lon="10.5398288"><ele>133.0</ele><time>2026-04-22T00:59:58.886Z</time></trkpt><trkpt lat="45.4090193" lon="10.5398586"><ele>133.0</ele><time>2026-04-22T01:02:24.903Z</time></trkpt><trkpt lat="45.4089684" lon="10.5397943"><ele>133.0</ele><time>2026-04-22T01:02:53.891Z</time></trkpt><trkpt lat="45.4089045" lon="10.5397793"><ele>133.0</ele><time>2026-04-22T01:03:17.894Z</time></trkpt><trkpt lat="45.4089412" lon="10.5396626"><ele>133.0</ele><time>2026-04-22T01:03:27.889Z</time></trkpt><trkpt lat="45.4089954" lon="10.5397471"><ele>133.0</ele><time>2026-04-22T01:03:48.89Z</time></trkpt><trkpt lat="45.4089296" lon="10.5397633"><ele>133.0</ele><time>2026-04-22T01:04:26.874Z</time></trkpt><trkpt lat="45.4088498" lon="10.5398229"><ele>133.0</ele><time>2026-04-22T01:04:52.886Z</time></trkpt><trkpt lat="45.4089176" lon="10.539795"><ele>133.0</ele><time>2026-04-22T01:05:36.883Z</time></trkpt><trkpt lat="45.4090207" lon="10.5397266"><ele>133.0</ele><time>2026-04-22T01:06:11.886Z</time></trkpt><trkpt lat="45.4089558" lon="10.5398188"><ele>133.0</ele><time>2026-04-22T01:06:27.884Z</time></trkpt><trkpt lat="45.4090046" lon="10.5397422"><ele>133.0</ele><time>2026-04-22T01:07:32.893Z</time></trkpt><trkpt lat="45.4090141" lon="10.5398392"><ele>133.0</ele><time>2026-04-22T01:07:52.885Z</time></trkpt><trkpt lat="45.4090985" lon="10.5398298"><ele>133.0</ele><time>2026-04-22T01:08:04.894Z</time></trkpt><trkpt lat="45.4090171" lon="10.5398216"><ele>133.0</ele><time>2026-04-22T01:08:11.894Z</time></trkpt><trkpt lat="45.4089472" lon="10.539823"><ele>133.0</ele><time>2026-04-22T01:08:13.887Z</time></trkpt><trkpt lat="45.408953" lon="10.5397179"><ele>133.0</ele><time>2026-04-22T01:08:19.894Z</time></trkpt><trkpt lat="45.4089533" lon="10.539815"><ele>133.0</ele><time>2026-04-22T01:08:52.895Z</time></trkpt><trkpt lat="45.4089117" lon="10.5398963"><ele>133.0</ele><time>2026-04-22T01:08:54.88Z</time></trkpt><trkpt lat="45.4088647" lon="10.539984"><ele>133.0</ele><time>2026-04-22T01:09:00.887Z</time></trkpt><trkpt lat="45.4089188" lon="10.5399143"><ele>133.0</ele><time>2026-04-22T01:09:02.892Z</time></trkpt><trkpt lat="45.4089965" lon="10.5398081"><ele>133.0</ele><time>2026-04-22T01:09:05.881Z</time></trkpt><trkpt lat="45.4090521" lon="10.5397192"><ele>133.0</ele><time>2026-04-22T01:09:07.889Z</time></trkpt><trkpt lat="45.408968" lon="10.5397993"><ele>133.0</ele><time>2026-04-22T01:09:35.883Z</time></trkpt><trkpt lat="45.4089094" lon="10.5398548"><ele>133.0</ele><time>2026-04-22T01:09:44.882Z</time></trkpt><trkpt lat="45.4088701" lon="10.5399823"><ele>133.0</ele><time>2026-04-22T01:09:59.884Z</time></trkpt><trkpt lat="45.4089352" lon="10.5399789"><ele>133.0</ele><time>2026-04-22T01:10:28.883Z</time></trkpt><trkpt lat="45.4090269" lon="10.5399128"><ele>133.0</ele><time>2026-04-22T01:10:50.884Z</time></trkpt><trkpt lat="45.4089578" lon="10.5398209"><ele>133.0</ele><time>2026-04-22T01:11:36.886Z</time></trkpt><trkpt lat="45.408904" lon="10.5398693"><ele>133.0</ele><time>2026-04-22T01:15:44.881Z</time></trkpt><trkpt lat="45.4089453" lon="10.5399392"><ele>133.0</ele><time>2026-04-22T01:18:04.891Z</time></trkpt><trkpt lat="45.4090007" lon="10.539891"><ele>133.0</ele><time>2026-04-22T01:18:26.883Z</time></trkpt><trkpt lat="45.4089341" lon="10.5398143"><ele>133.0</ele><time>2026-04-22T01:18:49.895Z</time></trkpt><trkpt lat="45.4088536" lon="10.5398361"><ele>133.0</ele><time>2026-04-22T01:19:53.89Z</time></trkpt><trkpt lat="45.4088003" lon="10.5399542"><ele>133.0</ele><time>2026-04-22T01:21:09.881Z</time></trkpt><trkpt lat="45.4087868" lon="10.5398638"><ele>133.0</ele><time>2026-04-22T01:21:28.891Z</time></trkpt><trkpt lat="45.4088457" lon="10.5399409"><ele>133.0</ele><time>2026-04-22T01:22:54.882Z</time></trkpt><trkpt lat="45.4089043" lon="10.5397691"><ele>133.0</ele><time>2026-04-22T01:28:18.887Z</time></trkpt><trkpt lat="45.4089064" lon="10.5399171"><ele>133.0</ele><time>2026-04-22T01:31:25.893Z</time></trkpt><trkpt lat="45.4089465" lon="10.5398379"><ele>133.0</ele><time>2026-04-22T01:35:19.892Z</time></trkpt><trkpt lat="45.4088834" lon="10.539793"><ele>133.0</ele><time>2026-04-22T01:35:59.89Z</time></trkpt><trkpt lat="45.4089386" lon="10.5397226"><ele>133.0</ele><time>2026-04-22T01:36:21.881Z</time></trkpt><trkpt lat="45.4089209" lon="10.5398126"><ele>133.0</ele><time>2026-04-22T01:36:58.889Z</time></trkpt><trkpt lat="45.4089835" lon="10.5397106"><ele>133.0</ele><time>2026-04-22T01:37:50.882Z</time></trkpt><trkpt lat="45.4089667" lon="10.5398067"><ele>133.0</ele><time>2026-04-22T01:39:53.882Z</time></trkpt><trkpt lat="45.4089061" lon="10.5398712"><ele>133.0</ele><time>2026-04-22T01:39:54.89Z</time></trkpt><trkpt lat="45.4088738" lon="10.5399513"><ele>133.0</ele><time>2026-04-22T01:39:56.887Z</time></trkpt><trkpt lat="45.408924" lon="10.539888"><ele>133.0</ele><time>2026-04-22T01:40:35.887Z</time></trkpt><trkpt lat="45.408977" lon="10.5397951"><ele>133.0</ele><time>2026-04-22T01:47:09.886Z</time></trkpt><trkpt lat="45.4089147" lon="10.5398231"><ele>133.0</ele><time>2026-04-22T01:47:31.894Z</time></trkpt><trkpt lat="45.4090006" lon="10.539831"><ele>133.0</ele><time>2026-04-22T01:49:27.889Z</time></trkpt><trkpt lat="45.4089774" lon="10.5399298"><ele>133.0</ele><time>2026-04-22T01:50:07.886Z</time></trkpt><trkpt lat="45.4089731" lon="10.5398275"><ele>133.0</ele><time>2026-04-22T01:50:31.891Z</time></trkpt><trkpt lat="45.4090303" lon="10.5396876"><ele>133.0</ele><time>2026-04-22T01:53:10.88Z</time></trkpt><trkpt lat="45.4089679" lon="10.5397094"><ele>133.0</ele><time>2026-04-22T01:53:49.885Z</time></trkpt><trkpt lat="45.4089372" lon="10.5398681"><ele>133.0</ele><time>2026-04-22T01:54:13.876Z</time></trkpt><trkpt lat="45.4089834" lon="10.5398009"><ele>133.0</ele><time>2026-04-22T01:55:19.883Z</time></trkpt><trkpt lat="45.4090499" lon="10.5397178"><ele>133.0</ele><time>2026-04-22T01:56:57.877Z</time></trkpt><trkpt lat="45.4089839" lon="10.5397902"><ele>133.0</ele><time>2026-04-22T01:57:23.883Z</time></trkpt><trkpt lat="45.4089297" lon="10.5398449"><ele>133.0</ele><time>2026-04-22T02:00:00.888Z</time></trkpt><trkpt lat="45.4090059" lon="10.5399197"><ele>133.0</ele><time>2026-04-22T02:00:25.89Z</time></trkpt><trkpt lat="45.4089514" lon="10.5398494"><ele>133.0</ele><time>2026-04-22T02:00:56.886Z</time></trkpt><trkpt lat="45.4089953" lon="10.5396883"><ele>133.0</ele><time>2026-04-22T02:01:32.885Z</time></trkpt><trkpt lat="45.4089688" lon="10.5395319"><ele>133.0</ele><time>2026-04-22T02:02:42.895Z</time></trkpt><trkpt lat="45.4089194" lon="10.5396278"><ele>133.0</ele><time>2026-04-22T02:03:03.882Z</time></trkpt><trkpt lat="45.408896" lon="10.5397997"><ele>133.0</ele><time>2026-04-22T02:04:06.884Z</time></trkpt><trkpt lat="45.40889" lon="10.5399298"><ele>133.0</ele><time>2026-04-22T02:04:36.883Z</time></trkpt><trkpt lat="45.4088466" lon="10.5398394"><ele>133.0</ele><time>2026-04-22T02:06:29.888Z</time></trkpt><trkpt lat="45.4088528" lon="10.5399587"><ele>133.0</ele><time>2026-04-22T02:09:39.884Z</time></trkpt><trkpt lat="45.408805" lon="10.5400198"><ele>133.0</ele><time>2026-04-22T02:09:46.888Z</time></trkpt><trkpt lat="45.408845" lon="10.5399235"><ele>133.0</ele><time>2026-04-22T02:10:57.887Z</time></trkpt><trkpt lat="45.4088261" lon="10.5397692"><ele>133.0</ele><time>2026-04-22T02:12:49.881Z</time></trkpt><trkpt lat="45.4088755" lon="10.5396404"><ele>133.0</ele><time>2026-04-22T02:13:01.888Z</time></trkpt><trkpt lat="45.4089763" lon="10.5396204"><ele>133.0</ele><time>2026-04-22T02:13:14.878Z</time></trkpt><trkpt lat="45.4089797" lon="10.5397288"><ele>133.0</ele><time>2026-04-22T02:13:41.883Z</time></trkpt><trkpt lat="45.4089071" lon="10.5398719"><ele>133.0</ele><time>2026-04-22T02:14:00.882Z</time></trkpt><trkpt lat="45.4088297" lon="10.5399352"><ele>133.0</ele><time>2026-04-22T02:16:35.887Z</time></trkpt><trkpt lat="45.4089026" lon="10.5398881"><ele>133.0</ele><time>2026-04-22T02:17:30.882Z</time></trkpt><trkpt lat="45.4088309" lon="10.5398493"><ele>133.0</ele><time>2026-04-22T02:18:25.89Z</time></trkpt><trkpt lat="45.408773" lon="10.5399527"><ele>133.0</ele><time>2026-04-22T02:19:02.879Z</time></trkpt><trkpt lat="45.4088383" lon="10.5399235"><ele>133.0</ele><time>2026-04-22T02:19:31.886Z</time></trkpt><trkpt lat="45.4087628" lon="10.5400111"><ele>133.0</ele><time>2026-04-22T02:20:41.88Z</time></trkpt><trkpt lat="45.4088008" lon="10.539928"><ele>133.0</ele><time>2026-04-22T02:20:43.881Z</time></trkpt><trkpt lat="45.4088987" lon="10.5398357"><ele>133.0</ele><time>2026-04-22T02:20:49.876Z</time></trkpt><trkpt lat="45.4089242" lon="10.5397526"><ele>133.0</ele><time>2026-04-22T02:26:03.888Z</time></trkpt><trkpt lat="45.4088128" lon="10.5398902"><ele>133.0</ele><time>2026-04-22T02:27:12.875Z</time></trkpt><trkpt lat="45.4087672" lon="10.5400643"><ele>133.0</ele><time>2026-04-22T02:27:22.885Z</time></trkpt><trkpt lat="45.4088483" lon="10.5400456"><ele>133.0</ele><time>2026-04-22T02:27:32.88Z</time></trkpt><trkpt lat="45.4089282" lon="10.5399277"><ele>133.0</ele><time>2026-04-22T02:27:46.888Z</time></trkpt><trkpt lat="45.4088896" lon="10.5398215"><ele>133.0</ele><time>2026-04-22T02:29:13.877Z</time></trkpt><trkpt lat="45.4087811" lon="10.5398854"><ele>133.0</ele><time>2026-04-22T02:29:29.88Z</time></trkpt><trkpt lat="45.4088433" lon="10.5398343"><ele>133.0</ele><time>2026-04-22T02:29:59.887Z</time></trkpt><trkpt lat="45.4089532" lon="10.539816"><ele>133.0</ele><time>2026-04-22T02:30:27.874Z</time></trkpt><trkpt lat="45.40891" lon="10.5399857"><ele>133.0</ele><time>2026-04-22T02:30:44.877Z</time></trkpt><trkpt lat="45.4089185" lon="10.5398696"><ele>133.0</ele><time>2026-04-22T02:31:14.879Z</time></trkpt><trkpt lat="45.4088607" lon="10.5399214"><ele>133.0</ele><time>2026-04-22T02:32:00.881Z</time></trkpt><trkpt lat="45.4089291" lon="10.5397827"><ele>133.0</ele><time>2026-04-22T02:39:46.88Z</time></trkpt><trkpt lat="45.408838" lon="10.5399136"><ele>133.0</ele><time>2026-04-22T02:40:55.887Z</time></trkpt><trkpt lat="45.4089073" lon="10.5398573"><ele>133.0</ele><time>2026-04-22T02:41:18.879Z</time></trkpt><trkpt lat="45.4089583" lon="10.5397339"><ele>133.0</ele><time>2026-04-22T02:44:17.882Z</time></trkpt><trkpt lat="45.4089027" lon="10.5398181"><ele>133.0</ele><time>2026-04-22T02:44:58.88Z</time></trkpt><trkpt lat="45.4088466" lon="10.5399276"><ele>133.0</ele><time>2026-04-22T02:45:36.882Z</time></trkpt><trkpt lat="45.4088843" lon="10.5398523"><ele>133.0</ele><time>2026-04-22T02:46:08.882Z</time></trkpt><trkpt lat="45.4088252" lon="10.5397889"><ele>133.0</ele><time>2026-04-22T02:47:23.878Z</time></trkpt><trkpt lat="45.4088703" lon="10.539896"><ele>133.0</ele><time>2026-04-22T02:47:43.879Z</time></trkpt><trkpt lat="45.4089558" lon="10.5398707"><ele>133.0</ele><time>2026-04-22T02:48:36.879Z</time></trkpt><trkpt lat="45.4089104" lon="10.5399512"><ele>133.0</ele><time>2026-04-22T02:52:20.884Z</time></trkpt><trkpt lat="45.408871" lon="10.5400453"><ele>133.0</ele><time>2026-04-22T02:52:35.886Z</time></trkpt><trkpt lat="45.4089392" lon="10.5400069"><ele>133.0</ele><time>2026-04-22T02:52:59.882Z</time></trkpt><trkpt lat="45.4089747" lon="10.5399262"><ele>133.0</ele><time>2026-04-22T02:53:06.881Z</time></trkpt><trkpt lat="45.4090241" lon="10.5398349"><ele>133.0</ele><time>2026-04-22T02:53:11.887Z</time></trkpt><trkpt lat="45.4090668" lon="10.539751"><ele>133.0</ele><time>2026-04-22T02:53:20.879Z</time></trkpt><trkpt lat="45.4090242" lon="10.5396755"><ele>133.0</ele><time>2026-04-22T02:53:39.877Z</time></trkpt><trkpt lat="45.408957" lon="10.5397985"><ele>133.0</ele><time>2026-04-22T02:55:01.893Z</time></trkpt><trkpt lat="45.4088907" lon="10.5397453"><ele>133.0</ele><time>2026-04-22T02:55:41.882Z</time></trkpt><trkpt lat="45.4089714" lon="10.539674"><ele>133.0</ele><time>2026-04-22T02:55:53.883Z</time></trkpt><trkpt lat="45.4089484" lon="10.5398055"><ele>133.0</ele><time>2026-04-22T02:56:49.889Z</time></trkpt><trkpt lat="45.4089348" lon="10.5399148"><ele>133.0</ele><time>2026-04-22T02:58:07.881Z</time></trkpt><trkpt lat="45.4089517" lon="10.5398228"><ele>133.0</ele><time>2026-04-22T02:58:37.887Z</time></trkpt><trkpt lat="45.4088986" lon="10.5399148"><ele>133.0</ele><time>2026-04-22T03:00:35.883Z</time></trkpt><trkpt lat="45.4088522" lon="10.5400835"><ele>133.0</ele><time>2026-04-22T03:00:40.878Z</time></trkpt><trkpt lat="45.4088951" lon="10.5400141"><ele>133.0</ele><time>2026-04-22T03:00:46.884Z</time></trkpt><trkpt lat="45.4089275" lon="10.5398984"><ele>133.0</ele><time>2026-04-22T03:01:01.893Z</time></trkpt><trkpt lat="45.4089686" lon="10.539825"><ele>133.0</ele><time>2026-04-22T03:01:04.876Z</time></trkpt><trkpt lat="45.409019" lon="10.5397385"><ele>133.0</ele><time>2026-04-22T03:01:23.881Z</time></trkpt><trkpt lat="45.4089757" lon="10.5398077"><ele>133.0</ele><time>2026-04-22T03:01:56.883Z</time></trkpt><trkpt lat="45.4089305" lon="10.5399078"><ele>133.0</ele><time>2026-04-22T03:01:58.883Z</time></trkpt><trkpt lat="45.4089548" lon="10.5398127"><ele>133.0</ele><time>2026-04-22T03:02:05.883Z</time></trkpt><trkpt lat="45.4088808" lon="10.5398137"><ele>133.0</ele><time>2026-04-22T03:02:32.882Z</time></trkpt><trkpt lat="45.4089999" lon="10.5398892"><ele>133.0</ele><time>2026-04-22T03:04:02.887Z</time></trkpt><trkpt lat="45.4090918" lon="10.5398311"><ele>133.0</ele><time>2026-04-22T03:04:05.881Z</time></trkpt><trkpt lat="45.4091014" lon="10.5397227"><ele>133.0</ele><time>2026-04-22T03:04:22.878Z</time></trkpt><trkpt lat="45.4090281" lon="10.539792"><ele>133.0</ele><time>2026-04-22T03:04:38.876Z</time></trkpt><trkpt lat="45.4089559" lon="10.5397711"><ele>133.0</ele><time>2026-04-22T03:05:33.877Z</time></trkpt><trkpt lat="45.4089027" lon="10.5397109"><ele>133.0</ele><time>2026-04-22T03:06:44.886Z</time></trkpt><trkpt lat="45.4089859" lon="10.5396862"><ele>133.0</ele><time>2026-04-22T03:07:42.884Z</time></trkpt><trkpt lat="45.4089935" lon="10.5398162"><ele>133.0</ele><time>2026-04-22T03:07:57.887Z</time></trkpt><trkpt lat="45.4089188" lon="10.5398828"><ele>133.0</ele><time>2026-04-22T03:08:49.881Z</time></trkpt><trkpt lat="45.4088963" lon="10.5397465"><ele>133.0</ele><time>2026-04-22T03:09:43.876Z</time></trkpt><trkpt lat="45.4090329" lon="10.5397051"><ele>133.0</ele><time>2026-04-22T03:10:21.881Z</time></trkpt><trkpt lat="45.4089061" lon="10.5397429"><ele>133.0</ele><time>2026-04-22T03:12:18.882Z</time></trkpt><trkpt lat="45.4089627" lon="10.5397841"><ele>133.0</ele><time>2026-04-22T03:13:01.881Z</time></trkpt><trkpt lat="45.4089422" lon="10.5398719"><ele>133.0</ele><time>2026-04-22T03:13:34.877Z</time></trkpt><trkpt lat="45.4088035" lon="10.5398888"><ele>133.0</ele><time>2026-04-22T03:13:57.875Z</time></trkpt><trkpt lat="45.408872" lon="10.5398371"><ele>133.0</ele><time>2026-04-22T03:14:40.879Z</time></trkpt><trkpt lat="45.4089283" lon="10.5397933"><ele>133.0</ele><time>2026-04-22T03:15:13.879Z</time></trkpt><trkpt lat="45.4089822" lon="10.5397437"><ele>133.0</ele><time>2026-04-22T03:15:14.887Z</time></trkpt><trkpt lat="45.4090287" lon="10.5396672"><ele>133.0</ele><time>2026-04-22T03:16:27.881Z</time></trkpt><trkpt lat="45.4090407" lon="10.5395454"><ele>133.0</ele><time>2026-04-22T03:17:10.889Z</time></trkpt><trkpt lat="45.4091023" lon="10.5396348"><ele>133.0</ele><time>2026-04-22T03:17:43.888Z</time></trkpt><trkpt lat="45.4091665" lon="10.5396111"><ele>133.0</ele><time>2026-04-22T03:17:56.878Z</time></trkpt><trkpt lat="45.4090563" lon="10.5396934"><ele>133.0</ele><time>2026-04-22T03:18:01.887Z</time></trkpt><trkpt lat="45.4090879" lon="10.5398544"><ele>133.0</ele><time>2026-04-22T03:18:43.879Z</time></trkpt><trkpt lat="45.4100571" lon="10.5394143"><ele>133.0</ele><time>2026-04-22T03:20:42.878Z</time></trkpt><trkpt lat="45.4099595" lon="10.539437"><ele>133.0</ele><time>2026-04-22T03:20:46.878Z</time></trkpt><trkpt lat="45.4098657" lon="10.5394612"><ele>133.0</ele><time>2026-04-22T03:20:54.872Z</time></trkpt><trkpt lat="45.4098048" lon="10.5394921"><ele>133.0</ele><time>2026-04-22T03:20:56.871Z</time></trkpt><trkpt lat="45.4096903" lon="10.539543"><ele>133.0</ele><time>2026-04-22T03:21:01.879Z</time></trkpt><trkpt lat="45.4096201" lon="10.5395594"><ele>133.0</ele><time>2026-04-22T03:21:03.877Z</time></trkpt><trkpt lat="45.4094953" lon="10.5396044"><ele>133.0</ele><time>2026-04-22T03:21:25.871Z</time></trkpt><trkpt lat="45.4094132" lon="10.5396485"><ele>133.0</ele><time>2026-04-22T03:21:27.876Z</time></trkpt><trkpt lat="45.4093192" lon="10.5396763"><ele>133.0</ele><time>2026-04-22T03:21:38.883Z</time></trkpt><trkpt lat="45.4091972" lon="10.539728"><ele>133.0</ele><time>2026-04-22T03:21:45.881Z</time></trkpt><trkpt lat="45.4091331" lon="10.5397645"><ele>133.0</ele><time>2026-04-22T03:21:49.88Z</time></trkpt><trkpt lat="45.4090509" lon="10.5397496"><ele>133.0</ele><time>2026-04-22T03:22:07.878Z</time></trkpt><trkpt lat="45.4089378" lon="10.5397791"><ele>133.0</ele><time>2026-04-22T03:22:17.879Z</time></trkpt><trkpt lat="45.4088593" lon="10.5398004"><ele>133.0</ele><time>2026-04-22T03:22:19.89Z</time></trkpt><trkpt lat="45.4087272" lon="10.5398458"><ele>133.0</ele><time>2026-04-22T03:22:54.884Z</time></trkpt><trkpt lat="45.4086292" lon="10.5398539"><ele>133.0</ele><time>2026-04-22T03:23:06.885Z</time></trkpt><trkpt lat="45.4087033" lon="10.53985"><ele>133.0</ele><time>2026-04-22T03:23:59.882Z</time></trkpt><trkpt lat="45.4087797" lon="10.539835"><ele>133.0</ele><time>2026-04-22T03:24:00.877Z</time></trkpt><trkpt lat="45.4088839" lon="10.539772"><ele>133.0</ele><time>2026-04-22T03:24:39.884Z</time></trkpt><trkpt lat="45.4090245" lon="10.5397182"><ele>133.0</ele><time>2026-04-22T03:24:44.876Z</time></trkpt><trkpt lat="45.408924" lon="10.5397197"><ele>133.0</ele><time>2026-04-22T03:24:59.882Z</time></trkpt><trkpt lat="45.4088663" lon="10.5397593"><ele>133.0</ele><time>2026-04-22T03:25:04.886Z</time></trkpt><trkpt lat="45.4087854" lon="10.5398255"><ele>133.0</ele><time>2026-04-22T03:25:18.885Z</time></trkpt><trkpt lat="45.4088693" lon="10.5398224"><ele>133.0</ele><time>2026-04-22T03:25:34.885Z</time></trkpt><trkpt lat="45.4088074" lon="10.5397677"><ele>133.0</ele><time>2026-04-22T03:25:59.889Z</time></trkpt><trkpt lat="45.408747" lon="10.5398203"><ele>133.0</ele><time>2026-04-22T03:26:53.876Z</time></trkpt><trkpt lat="45.408721" lon="10.5399777"><ele>133.0</ele><time>2026-04-22T03:27:09.876Z</time></trkpt><trkpt lat="45.4086086" lon="10.5400048"><ele>133.0</ele><time>2026-04-22T03:27:48.876Z</time></trkpt><trkpt lat="45.4086282" lon="10.5399075"><ele>133.0</ele><time>2026-04-22T03:28:41.884Z</time></trkpt><trkpt lat="45.4087201" lon="10.5398606"><ele>133.0</ele><time>2026-04-22T03:28:50.884Z</time></trkpt><trkpt lat="45.4087808" lon="10.5398024"><ele>133.0</ele><time>2026-04-22T03:29:26.879Z</time></trkpt><trkpt lat="45.4088424" lon="10.5397768"><ele>133.0</ele><time>2026-04-22T03:29:30.883Z</time></trkpt><trkpt lat="45.4089441" lon="10.539716"><ele>133.0</ele><time>2026-04-22T03:29:31.888Z</time></trkpt><trkpt lat="45.4090656" lon="10.539697"><ele>133.0</ele><time>2026-04-22T03:29:38.884Z</time></trkpt><trkpt lat="45.4091236" lon="10.5396572"><ele>133.0</ele><time>2026-04-22T03:29:46.879Z</time></trkpt><trkpt lat="45.4090407" lon="10.5396856"><ele>133.0</ele><time>2026-04-22T03:30:11.882Z</time></trkpt><trkpt lat="45.4089706" lon="10.5397714"><ele>133.0</ele><time>2026-04-22T03:30:30.876Z</time></trkpt><trkpt lat="45.4090394" lon="10.5397449"><ele>133.0</ele><time>2026-04-22T03:31:00.887Z</time></trkpt><trkpt lat="45.4091188" lon="10.5397195"><ele>133.0</ele><time>2026-04-22T03:33:02.884Z</time></trkpt><trkpt lat="45.4092327" lon="10.5396726"><ele>133.0</ele><time>2026-04-22T03:33:10.889Z</time></trkpt><trkpt lat="45.4093236" lon="10.5396167"><ele>133.0</ele><time>2026-04-22T03:33:12.88Z</time></trkpt><trkpt lat="45.4092268" lon="10.5396893"><ele>133.0</ele><time>2026-04-22T03:33:21.88Z</time></trkpt><trkpt lat="45.4091647" lon="10.5397851"><ele>133.0</ele><time>2026-04-22T03:33:27.886Z</time></trkpt><trkpt lat="45.409137" lon="10.5399169"><ele>133.0</ele><time>2026-04-22T03:33:47.879Z</time></trkpt><trkpt lat="45.4090762" lon="10.5398083"><ele>133.0</ele><time>2026-04-22T03:34:34.877Z</time></trkpt><trkpt lat="45.4091779" lon="10.5397029"><ele>133.0</ele><time>2026-04-22T03:40:03.883Z</time></trkpt><trkpt lat="45.4092581" lon="10.5396214"><ele>133.0</ele><time>2026-04-22T03:40:37.886Z</time></trkpt><trkpt lat="45.4091699" lon="10.5397009"><ele>133.0</ele><time>2026-04-22T03:44:09.885Z</time></trkpt><trkpt lat="45.4090699" lon="10.5397633"><ele>133.0</ele><time>2026-04-22T03:44:23.874Z</time></trkpt><trkpt lat="45.4091379" lon="10.5397246"><ele>133.0</ele><time>2026-04-22T03:44:39.876Z</time></trkpt><trkpt lat="45.4092038" lon="10.5397798"><ele>133.0</ele><time>2026-04-22T03:47:17.886Z</time></trkpt><trkpt lat="45.4093106" lon="10.5397925"><ele>133.0</ele><time>2026-04-22T03:47:43.891Z</time></trkpt><trkpt lat="45.4092407" lon="10.539759"><ele>133.0</ele><time>2026-04-22T03:48:41.878Z</time></trkpt><trkpt lat="45.4091503" lon="10.5397543"><ele>133.0</ele><time>2026-04-22T03:48:51.875Z</time></trkpt><trkpt lat="45.4090323" lon="10.5399101"><ele>133.0</ele><time>2026-04-22T03:49:09.324Z</time></trkpt><trkpt lat="45.4089269" lon="10.5397704"><ele>133.0</ele><time>2026-04-22T03:49:15.88Z</time></trkpt><trkpt lat="45.4090074" lon="10.5397504"><ele>133.0</ele><time>2026-04-22T03:49:34.887Z</time></trkpt><trkpt lat="45.4091148" lon="10.5396987"><ele>133.0</ele><time>2026-04-22T03:49:49.878Z</time></trkpt><trkpt lat="45.4091866" lon="10.5396697"><ele>133.0</ele><time>2026-04-22T03:49:51.883Z</time></trkpt><trkpt lat="45.4092779" lon="10.5396568"><ele>133.0</ele><time>2026-04-22T03:49:59.88Z</time></trkpt><trkpt lat="45.4094328" lon="10.5396485"><ele>133.0</ele><time>2026-04-22T03:50:10.88Z</time></trkpt><trkpt lat="45.4095762" lon="10.5396531"><ele>133.0</ele><time>2026-04-22T03:50:29.878Z</time></trkpt><trkpt lat="45.4094965" lon="10.5396206"><ele>133.0</ele><time>2026-04-22T03:50:35.878Z</time></trkpt><trkpt lat="45.409395" lon="10.5395773"><ele>133.0</ele><time>2026-04-22T03:50:44.87Z</time></trkpt><trkpt lat="45.409248" lon="10.5395764"><ele>133.0</ele><time>2026-04-22T03:51:00.883Z</time></trkpt><trkpt lat="45.4091821" lon="10.5396326"><ele>133.0</ele><time>2026-04-22T03:51:03.88Z</time></trkpt><trkpt lat="45.4091028" lon="10.5396941"><ele>133.0</ele><time>2026-04-22T03:51:18.879Z</time></trkpt><trkpt lat="45.4091823" lon="10.5396425"><ele>133.0</ele><time>2026-04-22T03:52:34.884Z</time></trkpt><trkpt lat="45.4091022" lon="10.5396428"><ele>133.0</ele><time>2026-04-22T03:52:53.883Z</time></trkpt><trkpt lat="45.4091827" lon="10.5396161"><ele>133.0</ele><time>2026-04-22T03:53:26.876Z</time></trkpt><trkpt lat="45.4090898" lon="10.5396237"><ele>133.0</ele><time>2026-04-22T03:53:54.883Z</time></trkpt><trkpt lat="45.4091739" lon="10.5396083"><ele>133.0</ele><time>2026-04-22T03:55:09.887Z</time></trkpt><trkpt lat="45.4092805" lon="10.539529"><ele>133.0</ele><time>2026-04-22T03:55:24.889Z</time></trkpt><trkpt lat="45.4092135" lon="10.5396279"><ele>133.0</ele><time>2026-04-22T03:55:32.885Z</time></trkpt><trkpt lat="45.4093048" lon="10.5396249"><ele>133.0</ele><time>2026-04-22T03:55:48.885Z</time></trkpt><trkpt lat="45.409427" lon="10.5395996"><ele>133.0</ele><time>2026-04-22T03:55:57.887Z</time></trkpt><trkpt lat="45.4094952" lon="10.539589"><ele>133.0</ele><time>2026-04-22T03:55:59.877Z</time></trkpt><trkpt lat="45.4096003" lon="10.539586"><ele>133.0</ele><time>2026-04-22T03:56:04.875Z</time></trkpt><trkpt lat="45.4095501" lon="10.539646"><ele>133.0</ele><time>2026-04-22T03:56:28.879Z</time></trkpt><trkpt lat="45.4094401" lon="10.5396259"><ele>133.0</ele><time>2026-04-22T03:56:39.882Z</time></trkpt><trkpt lat="45.409355" lon="10.5396109"><ele>133.0</ele><time>2026-04-22T03:56:41.888Z</time></trkpt><trkpt lat="45.4091678" lon="10.5396071"><ele>133.0</ele><time>2026-04-22T03:56:48.884Z</time></trkpt><trkpt lat="45.4090995" lon="10.5396304"><ele>133.0</ele><time>2026-04-22T03:56:51.877Z</time></trkpt><trkpt lat="45.4091543" lon="10.5397782"><ele>133.0</ele><time>2026-04-22T03:57:24.877Z</time></trkpt><trkpt lat="45.4090873" lon="10.5398578"><ele>133.0</ele><time>2026-04-22T03:57:32.879Z</time></trkpt><trkpt lat="45.4090198" lon="10.5398074"><ele>133.0</ele><time>2026-04-22T03:57:46.883Z</time></trkpt><trkpt lat="45.4090115" lon="10.5397165"><ele>133.0</ele><time>2026-04-22T03:58:12.878Z</time></trkpt><trkpt lat="45.4091324" lon="10.5396691"><ele>133.0</ele><time>2026-04-22T03:58:24.885Z</time></trkpt><trkpt lat="45.4092411" lon="10.5396018"><ele>133.0</ele><time>2026-04-22T03:58:39.883Z</time></trkpt><trkpt lat="45.4093676" lon="10.5395905"><ele>133.0</ele><time>2026-04-22T03:58:49.884Z</time></trkpt><trkpt lat="45.4093202" lon="10.5395207"><ele>133.0</ele><time>2026-04-22T03:59:02.876Z</time></trkpt><trkpt lat="45.4093943" lon="10.5395339"><ele>133.0</ele><time>2026-04-22T03:59:28.885Z</time></trkpt><trkpt lat="45.409341" lon="10.539617"><ele>133.0</ele><time>2026-04-22T03:59:39.884Z</time></trkpt><trkpt lat="45.4092352" lon="10.5396949"><ele>133.0</ele><time>2026-04-22T04:00:01.885Z</time></trkpt><trkpt lat="45.409314" lon="10.5396469"><ele>133.0</ele><time>2026-04-22T04:00:15.878Z</time></trkpt><trkpt lat="45.4092499" lon="10.5396472"><ele>133.0</ele><time>2026-04-22T04:00:29.876Z</time></trkpt><trkpt lat="45.4091502" lon="10.5396184"><ele>133.0</ele><time>2026-04-22T04:00:48.877Z</time></trkpt><trkpt lat="45.4090967" lon="10.5395699"><ele>133.0</ele><time>2026-04-22T04:01:52.875Z</time></trkpt><trkpt lat="45.4090142" lon="10.5395481"><ele>133.0</ele><time>2026-04-22T04:02:03.878Z</time></trkpt><trkpt lat="45.4090486" lon="10.5396321"><ele>133.0</ele><time>2026-04-22T04:03:09.879Z</time></trkpt><trkpt lat="45.4091383" lon="10.539648"><ele>133.0</ele><time>2026-04-22T04:03:12.878Z</time></trkpt><trkpt lat="45.4092144" lon="10.5396513"><ele>133.0</ele><time>2026-04-22T04:03:17.889Z</time></trkpt><trkpt lat="45.409298" lon="10.5396765"><ele>133.0</ele><time>2026-04-22T04:03:31.885Z</time></trkpt><trkpt lat="45.4092143" lon="10.5396696"><ele>133.0</ele><time>2026-04-22T04:04:10.878Z</time></trkpt><trkpt lat="45.4092888" lon="10.539658"><ele>133.0</ele><time>2026-04-22T04:04:21.882Z</time></trkpt><trkpt lat="45.4094511" lon="10.539648"><ele>133.0</ele><time>2026-04-22T04:04:45.883Z</time></trkpt><trkpt lat="45.4093491" lon="10.5396506"><ele>133.0</ele><time>2026-04-22T04:04:58.879Z</time></trkpt><trkpt lat="45.4092531" lon="10.5396383"><ele>133.0</ele><time>2026-04-22T04:05:10.888Z</time></trkpt><trkpt lat="45.4093015" lon="10.539558"><ele>133.0</ele><time>2026-04-22T04:05:43.88Z</time></trkpt><trkpt lat="45.4091944" lon="10.5395722"><ele>133.0</ele><time>2026-04-22T04:07:21.883Z</time></trkpt><trkpt lat="45.4091144" lon="10.5395712"><ele>133.0</ele><time>2026-04-22T04:07:32.876Z</time></trkpt><trkpt lat="45.4091678" lon="10.5396294"><ele>133.0</ele><time>2026-04-22T04:08:20.877Z</time></trkpt><trkpt lat="45.409302" lon="10.5396481"><ele>133.0</ele><time>2026-04-22T04:08:24.882Z</time></trkpt><trkpt lat="45.4092838" lon="10.5395234"><ele>133.0</ele><time>2026-04-22T04:09:27.878Z</time></trkpt><trkpt lat="45.4092232" lon="10.5394837"><ele>133.0</ele><time>2026-04-22T04:09:31.886Z</time></trkpt><trkpt lat="45.409143" lon="10.5395161"><ele>133.0</ele><time>2026-04-22T04:09:47.883Z</time></trkpt><trkpt lat="45.4090476" lon="10.5396039"><ele>133.0</ele><time>2026-04-22T04:10:49.874Z</time></trkpt><trkpt lat="45.4091125" lon="10.5396217"><ele>133.0</ele><time>2026-04-22T04:11:57.879Z</time></trkpt><trkpt lat="45.4092268" lon="10.5396133"><ele>133.0</ele><time>2026-04-22T04:12:38.878Z</time></trkpt><trkpt lat="45.4093349" lon="10.5395738"><ele>133.0</ele><time>2026-04-22T04:12:45.881Z</time></trkpt><trkpt lat="45.4094098" lon="10.539547"><ele>133.0</ele><time>2026-04-22T04:12:47.883Z</time></trkpt><trkpt lat="45.4093398" lon="10.5395408"><ele>133.0</ele><time>2026-04-22T04:13:05.883Z</time></trkpt><trkpt lat="45.4092513" lon="10.5395389"><ele>133.0</ele><time>2026-04-22T04:13:32.872Z</time></trkpt><trkpt lat="45.4093062" lon="10.5394933"><ele>133.0</ele><time>2026-04-22T04:13:47.875Z</time></trkpt><trkpt lat="45.4092381" lon="10.5394976"><ele>133.0</ele><time>2026-04-22T04:13:55.89Z</time></trkpt><trkpt lat="45.4091208" lon="10.539541"><ele>133.0</ele><time>2026-04-22T04:14:02.884Z</time></trkpt><trkpt lat="45.4090186" lon="10.539579"><ele>133.0</ele><time>2026-04-22T04:14:04.877Z</time></trkpt><trkpt lat="45.408926" lon="10.5396094"><ele>133.0</ele><time>2026-04-22T04:14:06.875Z</time></trkpt><trkpt lat="45.4088216" lon="10.5395929"><ele>133.0</ele><time>2026-04-22T04:14:11.887Z</time></trkpt><trkpt lat="45.4087592" lon="10.5395681"><ele>133.0</ele><time>2026-04-22T04:14:19.879Z</time></trkpt><trkpt lat="45.4086918" lon="10.5395824"><ele>133.0</ele><time>2026-04-22T04:14:21.876Z</time></trkpt><trkpt lat="45.4086338" lon="10.5396229"><ele>133.0</ele><time>2026-04-22T04:14:27.885Z</time></trkpt><trkpt lat="45.4087221" lon="10.5396789"><ele>132.20000000000002</ele><time>2026-04-22T04:15:41.877Z</time></trkpt><trkpt lat="45.4088211" lon="10.5396898"><ele>131.4</ele><time>2026-04-22T04:16:28.88Z</time></trkpt><trkpt lat="45.4088018" lon="10.5395461"><ele>130.60000000000002</ele><time>2026-04-22T04:16:50.883Z</time></trkpt><trkpt lat="45.4088641" lon="10.5395"><ele>129.8</ele><time>2026-04-22T04:17:23.882Z</time></trkpt><trkpt lat="45.4089343" lon="10.5394579"><ele>129.0</ele><time>2026-04-22T04:17:26.881Z</time></trkpt><trkpt lat="45.4089596" lon="10.5392902"><ele>129.0</ele><time>2026-04-22T04:17:33.881Z</time></trkpt><trkpt lat="45.4089733" lon="10.5393972"><ele>129.0</ele><time>2026-04-22T04:17:47.883Z</time></trkpt><trkpt lat="45.4090709" lon="10.5395253"><ele>129.0</ele><time>2026-04-22T04:18:00.877Z</time></trkpt><trkpt lat="45.4090251" lon="10.5396811"><ele>129.0</ele><time>2026-04-22T04:18:14.88Z</time></trkpt><trkpt lat="45.4090849" lon="10.5396404"><ele>129.0</ele><time>2026-04-22T04:18:24.875Z</time></trkpt><trkpt lat="45.4091713" lon="10.5395819"><ele>129.0</ele><time>2026-04-22T04:19:09.884Z</time></trkpt><trkpt lat="45.4092456" lon="10.5395494"><ele>129.0</ele><time>2026-04-22T04:19:47.877Z</time></trkpt><trkpt lat="45.4091704" lon="10.5396019"><ele>129.0</ele><time>2026-04-22T04:20:46.884Z</time></trkpt><trkpt lat="45.4090695" lon="10.5396438"><ele>129.0</ele><time>2026-04-22T04:22:13.877Z</time></trkpt><trkpt lat="45.4090062" lon="10.5398032"><ele>129.0</ele><time>2026-04-22T04:23:19.877Z</time></trkpt><trkpt lat="45.4090837" lon="10.5396396"><ele>129.0</ele><time>2026-04-22T04:23:45.882Z</time></trkpt><trkpt lat="45.4091352" lon="10.5395067"><ele>129.0</ele><time>2026-04-22T04:23:54.88Z</time></trkpt><trkpt lat="45.409144" lon="10.53941"><ele>129.0</ele><time>2026-04-22T04:24:18.881Z</time></trkpt><trkpt lat="45.4092236" lon="10.5394225"><ele>129.0</ele><time>2026-04-22T04:24:42.873Z</time></trkpt><trkpt lat="45.4092429" lon="10.5395108"><ele>129.0</ele><time>2026-04-22T04:24:53.877Z</time></trkpt><trkpt lat="45.4092536" lon="10.5396022"><ele>129.0</ele><time>2026-04-22T04:25:04.877Z</time></trkpt><trkpt lat="45.4092553" lon="10.5396999"><ele>131.0</ele><time>2026-04-22T04:25:15.876Z</time></trkpt><trkpt lat="45.4090271" lon="10.5399048"><ele>133.0</ele><time>2026-04-22T04:25:38.928Z</time></trkpt><trkpt lat="45.4087678" lon="10.5397417"><ele>133.0</ele><time>2026-04-22T04:25:48.881Z</time></trkpt><trkpt lat="45.4086459" lon="10.5397113"><ele>133.0</ele><time>2026-04-22T04:25:52.875Z</time></trkpt><trkpt lat="45.4087969" lon="10.5396485"><ele>133.0</ele><time>2026-04-22T04:25:59.885Z</time></trkpt><trkpt lat="45.4089741" lon="10.5396373"><ele>133.0</ele><time>2026-04-22T04:26:02.874Z</time></trkpt><trkpt lat="45.4090559" lon="10.5396217"><ele>133.0</ele><time>2026-04-22T04:26:03.877Z</time></trkpt><trkpt lat="45.4091186" lon="10.5395915"><ele>133.0</ele><time>2026-04-22T04:26:06.884Z</time></trkpt><trkpt lat="45.4091519" lon="10.5394889"><ele>133.0</ele><time>2026-04-22T04:26:40.876Z</time></trkpt><trkpt lat="45.4092463" lon="10.5394795"><ele>133.0</ele><time>2026-04-22T04:26:57.876Z</time></trkpt><trkpt lat="45.4092002" lon="10.5395775"><ele>133.0</ele><time>2026-04-22T04:27:07.873Z</time></trkpt><trkpt lat="45.4092507" lon="10.5395139"><ele>132.33333333333334</ele><time>2026-04-22T04:27:20.882Z</time></trkpt><trkpt lat="45.4093132" lon="10.5393979"><ele>131.66666666666669</ele><time>2026-04-22T04:27:22.875Z</time></trkpt><trkpt lat="45.4093861" lon="10.539283"><ele>131.0</ele><time>2026-04-22T04:27:24.883Z</time></trkpt><trkpt lat="45.4093261" lon="10.5393158"><ele>130.33333333333334</ele><time>2026-04-22T04:27:39.872Z</time></trkpt><trkpt lat="45.4092552" lon="10.5393895"><ele>129.66666666666666</ele><time>2026-04-22T04:27:49.877Z</time></trkpt><trkpt lat="45.4091742" lon="10.5394152"><ele>129.0</ele><time>2026-04-22T04:28:23.88Z</time></trkpt><trkpt lat="45.4092247" lon="10.5393537"><ele>129.0</ele><time>2026-04-22T04:28:27.873Z</time></trkpt><trkpt lat="45.409324" lon="10.5393258"><ele>129.0</ele><time>2026-04-22T04:28:56.882Z</time></trkpt><trkpt lat="45.4092421" lon="10.5394081"><ele>129.0</ele><time>2026-04-22T04:29:17.875Z</time></trkpt><trkpt lat="45.409035" lon="10.5395134"><ele>129.0</ele><time>2026-04-22T04:29:20.882Z</time></trkpt><trkpt lat="45.4089233" lon="10.5395813"><ele>129.0</ele><time>2026-04-22T04:30:56.881Z</time></trkpt><trkpt lat="45.4090037" lon="10.5394991"><ele>129.0</ele><time>2026-04-22T04:31:23.881Z</time></trkpt><trkpt lat="45.4089319" lon="10.5395207"><ele>129.0</ele><time>2026-04-22T04:32:12.882Z</time></trkpt><trkpt lat="45.4088705" lon="10.5395465"><ele>129.0</ele><time>2026-04-22T04:32:16.873Z</time></trkpt><trkpt lat="45.4089522" lon="10.5395925"><ele>129.0</ele><time>2026-04-22T04:33:02.882Z</time></trkpt><trkpt lat="45.4090147" lon="10.5396327"><ele>129.0</ele><time>2026-04-22T04:33:07.883Z</time></trkpt><trkpt lat="45.4090773" lon="10.5396593"><ele>129.66666666666666</ele><time>2026-04-22T04:33:10.885Z</time></trkpt><trkpt lat="45.4091497" lon="10.5396584"><ele>130.33333333333334</ele><time>2026-04-22T04:33:12.873Z</time></trkpt><trkpt lat="45.4091185" lon="10.5397876"><ele>131.0</ele><time>2026-04-22T04:33:23.886Z</time></trkpt><trkpt lat="45.4091985" lon="10.5398399"><ele>131.66666666666669</ele><time>2026-04-22T04:33:41.888Z</time></trkpt><trkpt lat="45.4091357" lon="10.5398744"><ele>132.33333333333334</ele><time>2026-04-22T04:34:10.876Z</time></trkpt><trkpt lat="45.4090547" lon="10.5398885"><ele>133.0</ele><time>2026-04-22T04:34:36.885Z</time></trkpt><trkpt lat="45.4089815" lon="10.5399376"><ele>133.0</ele><time>2026-04-22T04:35:25.887Z</time></trkpt><trkpt lat="45.4090459" lon="10.539878"><ele>133.0</ele><time>2026-04-22T04:35:41.884Z</time></trkpt><trkpt lat="45.4091279" lon="10.5398304"><ele>133.0</ele><time>2026-04-22T04:36:04.877Z</time></trkpt><trkpt lat="45.4092149" lon="10.5398642"><ele>133.0</ele><time>2026-04-22T04:37:00.872Z</time></trkpt><trkpt lat="45.4092545" lon="10.5399572"><ele>133.0</ele><time>2026-04-22T04:38:07.878Z</time></trkpt><trkpt lat="45.4091789" lon="10.5399875"><ele>133.0</ele><time>2026-04-22T04:38:20.874Z</time></trkpt><trkpt lat="45.4091064" lon="10.5399938"><ele>133.0</ele><time>2026-04-22T04:38:21.874Z</time></trkpt><trkpt lat="45.4090418" lon="10.5398865"><ele>133.0</ele><time>2026-04-22T04:38:47.879Z</time></trkpt><trkpt lat="45.4091215" lon="10.5397939"><ele>133.0</ele><time>2026-04-22T04:39:01.877Z</time></trkpt><trkpt lat="45.4092032" lon="10.5396515"><ele>133.0</ele><time>2026-04-22T04:39:33.877Z</time></trkpt><trkpt lat="45.4091546" lon="10.5397208"><ele>133.0</ele><time>2026-04-22T04:40:08.874Z</time></trkpt><trkpt lat="45.4091214" lon="10.5396253"><ele>133.0</ele><time>2026-04-22T04:42:07.88Z</time></trkpt><trkpt lat="45.4091253" lon="10.5395065"><ele>133.0</ele><time>2026-04-22T04:42:27.873Z</time></trkpt><trkpt lat="45.4091266" lon="10.5396675"><ele>133.0</ele><time>2026-04-22T04:43:34.879Z</time></trkpt><trkpt lat="45.4090874" lon="10.5397543"><ele>133.0</ele><time>2026-04-22T04:43:41.871Z</time></trkpt><trkpt lat="45.409148" lon="10.539716"><ele>133.0</ele><time>2026-04-22T04:44:05.88Z</time></trkpt><trkpt lat="45.4090276" lon="10.5399067"><ele>137.0</ele><time>2026-04-22T04:44:54.608Z</time></trkpt><trkpt lat="45.4098211" lon="10.5398868"><ele>137.0</ele><time>2026-04-22T04:45:51.871Z</time></trkpt><trkpt lat="45.4098083" lon="10.53999"><ele>137.0</ele><time>2026-04-22T04:46:05.872Z</time></trkpt><trkpt lat="45.4097365" lon="10.5400098"><ele>137.0</ele><time>2026-04-22T04:46:06.872Z</time></trkpt><trkpt lat="45.40967" lon="10.5400117"><ele>137.0</ele><time>2026-04-22T04:46:12.873Z</time></trkpt><trkpt lat="45.4094771" lon="10.5399053"><ele>137.0</ele><time>2026-04-22T04:46:21.873Z</time></trkpt><trkpt lat="45.4093387" lon="10.5398583"><ele>136.0</ele><time>2026-04-22T04:46:23.874Z</time></trkpt><trkpt lat="45.4094672" lon="10.5399625"><ele>135.0</ele><time>2026-04-22T04:46:44.879Z</time></trkpt><trkpt lat="45.4095772" lon="10.5399125"><ele>134.0</ele><time>2026-04-22T04:46:46.869Z</time></trkpt><trkpt lat="45.4094549" lon="10.5399482"><ele>133.0</ele><time>2026-04-22T04:47:27.871Z</time></trkpt><trkpt lat="45.4093864" lon="10.5399259"><ele>133.0</ele><time>2026-04-22T04:47:28.873Z</time></trkpt><trkpt lat="45.409311" lon="10.5398697"><ele>133.0</ele><time>2026-04-22T04:47:33.875Z</time></trkpt><trkpt lat="45.409237" lon="10.5398467"><ele>133.0</ele><time>2026-04-22T04:47:49.875Z</time></trkpt><trkpt lat="45.4091694" lon="10.5398414"><ele>133.0</ele><time>2026-04-22T04:47:51.872Z</time></trkpt><trkpt lat="45.4090663" lon="10.539821"><ele>133.0</ele><time>2026-04-22T04:47:54.879Z</time></trkpt><trkpt lat="45.4091796" lon="10.5397942"><ele>133.0</ele><time>2026-04-22T04:48:02.881Z</time></trkpt><trkpt lat="45.4092595" lon="10.5397427"><ele>133.0</ele><time>2026-04-22T04:48:04.88Z</time></trkpt><trkpt lat="45.409386" lon="10.5397254"><ele>133.0</ele><time>2026-04-22T04:48:18.873Z</time></trkpt><trkpt lat="45.4093111" lon="10.5397072"><ele>133.0</ele><time>2026-04-22T04:49:34.876Z</time></trkpt><trkpt lat="45.4092753" lon="10.5398001"><ele>133.0</ele><time>2026-04-22T04:51:10.878Z</time></trkpt><trkpt lat="45.4091977" lon="10.5397505"><ele>133.0</ele><time>2026-04-22T04:51:45.871Z</time></trkpt><trkpt lat="45.4090873" lon="10.5398127"><ele>133.0</ele><time>2026-04-22T04:54:20.879Z</time></trkpt><trkpt lat="45.4090252" lon="10.5398865"><ele>133.0</ele><time>2026-04-22T04:55:01.882Z</time></trkpt><trkpt lat="45.4090956" lon="10.5399036"><ele>133.0</ele><time>2026-04-22T04:55:05.883Z</time></trkpt><trkpt lat="45.4091592" lon="10.5399245"><ele>133.0</ele><time>2026-04-22T04:55:09.882Z</time></trkpt><trkpt lat="45.4092588" lon="10.5399573"><ele>133.0</ele><time>2026-04-22T04:55:16.875Z</time></trkpt><trkpt lat="45.4093123" lon="10.5400047"><ele>133.0</ele><time>2026-04-22T04:55:20.865Z</time></trkpt><trkpt lat="45.4094184" lon="10.5400166"><ele>133.0</ele><time>2026-04-22T04:55:24.867Z</time></trkpt><trkpt lat="45.4094835" lon="10.5400625"><ele>133.0</ele><time>2026-04-22T04:55:30.873Z</time></trkpt><trkpt lat="45.4094231" lon="10.5401343"><ele>133.0</ele><time>2026-04-22T04:55:44.872Z</time></trkpt><trkpt lat="45.4092979" lon="10.5401497"><ele>133.0</ele><time>2026-04-22T04:55:55.883Z</time></trkpt><trkpt lat="45.40921" lon="10.5401647"><ele>133.0</ele><time>2026-04-22T04:56:11.88Z</time></trkpt><trkpt lat="45.4091062" lon="10.5401664"><ele>133.0</ele><time>2026-04-22T04:56:17.873Z</time></trkpt><trkpt lat="45.409182" lon="10.5401011"><ele>133.0</ele><time>2026-04-22T04:56:40.872Z</time></trkpt><trkpt lat="45.4091622" lon="10.5401934"><ele>133.0</ele><time>2026-04-22T04:57:20.87Z</time></trkpt><trkpt lat="45.4090915" lon="10.5402311"><ele>133.0</ele><time>2026-04-22T04:57:31.869Z</time></trkpt><trkpt lat="45.409026" lon="10.5402143"><ele>133.0</ele><time>2026-04-22T04:57:37.868Z</time></trkpt><trkpt lat="45.4090022" lon="10.5400377"><ele>133.0</ele><time>2026-04-22T04:58:00.88Z</time></trkpt><trkpt lat="45.409023" lon="10.5399515"><ele>133.0</ele><time>2026-04-22T04:58:02.873Z</time></trkpt><trkpt lat="45.4090389" lon="10.5398184"><ele>133.0</ele><time>2026-04-22T04:58:13.88Z</time></trkpt><trkpt lat="45.4090199" lon="10.5397084"><ele>133.0</ele><time>2026-04-22T04:58:15.876Z</time></trkpt><trkpt lat="45.4090931" lon="10.5397277"><ele>133.0</ele><time>2026-04-22T04:58:25.873Z</time></trkpt><trkpt lat="45.4090822" lon="10.5398459"><ele>133.0</ele><time>2026-04-22T04:58:49.879Z</time></trkpt><trkpt lat="45.4090655" lon="10.5399344"><ele>133.0</ele><time>2026-04-22T04:59:57.87Z</time></trkpt><trkpt lat="45.4091606" lon="10.5399183"><ele>133.0</ele><time>2026-04-22T05:00:08.88Z</time></trkpt><trkpt lat="45.4092137" lon="10.5398087"><ele>133.0</ele><time>2026-04-22T05:00:29.873Z</time></trkpt><trkpt lat="45.4091291" lon="10.5398483"><ele>133.0</ele><time>2026-04-22T05:00:54.872Z</time></trkpt><trkpt lat="45.4090421" lon="10.5398819"><ele>133.0</ele><time>2026-04-22T05:01:45.88Z</time></trkpt><trkpt lat="45.4090968" lon="10.5399617"><ele>133.0</ele><time>2026-04-22T05:01:51.865Z</time></trkpt><trkpt lat="45.4091087" lon="10.5400535"><ele>133.0</ele><time>2026-04-22T05:01:56.867Z</time></trkpt><trkpt lat="45.4090458" lon="10.5400663"><ele>133.0</ele><time>2026-04-22T05:02:25.872Z</time></trkpt><trkpt lat="45.4090373" lon="10.5399704"><ele>133.0</ele><time>2026-04-22T05:02:34.876Z</time></trkpt><trkpt lat="45.4089834" lon="10.5398928"><ele>133.0</ele><time>2026-04-22T05:03:01.88Z</time></trkpt><trkpt lat="45.4089972" lon="10.539991"><ele>133.0</ele><time>2026-04-22T05:03:46.877Z</time></trkpt><trkpt lat="45.4090686" lon="10.5400128"><ele>133.0</ele><time>2026-04-22T05:03:49.883Z</time></trkpt><trkpt lat="45.4090348" lon="10.539886"><ele>133.0</ele><time>2026-04-22T05:04:02.66Z</time></trkpt><trkpt lat="45.408842" lon="10.5399428"><ele>133.0</ele><time>2026-04-22T05:04:15.878Z</time></trkpt><trkpt lat="45.4087422" lon="10.5399228"><ele>133.0</ele><time>2026-04-22T05:04:16.873Z</time></trkpt><trkpt lat="45.408677" lon="10.5399097"><ele>133.0</ele><time>2026-04-22T05:04:17.873Z</time></trkpt><trkpt lat="45.408614" lon="10.5398929"><ele>133.0</ele><time>2026-04-22T05:04:19.878Z</time></trkpt><trkpt lat="45.408703" lon="10.5398639"><ele>133.0</ele><time>2026-04-22T05:04:48.873Z</time></trkpt><trkpt lat="45.4088292" lon="10.539851"><ele>133.0</ele><time>2026-04-22T05:04:52.875Z</time></trkpt><trkpt lat="45.4088841" lon="10.5399237"><ele>133.0</ele><time>2026-04-22T05:05:06.877Z</time></trkpt><trkpt lat="45.408989" lon="10.539971"><ele>133.0</ele><time>2026-04-22T05:05:48.881Z</time></trkpt><trkpt lat="45.408934" lon="10.5400296"><ele>133.0</ele><time>2026-04-22T05:06:29.875Z</time></trkpt><trkpt lat="45.4088194" lon="10.5399786"><ele>133.0</ele><time>2026-04-22T05:06:58.872Z</time></trkpt><trkpt lat="45.4088807" lon="10.5399463"><ele>133.0</ele><time>2026-04-22T05:07:33.872Z</time></trkpt><trkpt lat="45.4089338" lon="10.5398812"><ele>133.0</ele><time>2026-04-22T05:07:34.879Z</time></trkpt><trkpt lat="45.4090676" lon="10.5398512"><ele>133.0</ele><time>2026-04-22T05:08:15.877Z</time></trkpt><trkpt lat="45.4089889" lon="10.5398447"><ele>133.0</ele><time>2026-04-22T05:08:20.874Z</time></trkpt><trkpt lat="45.4089071" lon="10.5398599"><ele>133.0</ele><time>2026-04-22T05:09:19.873Z</time></trkpt><trkpt lat="45.4089569" lon="10.539802"><ele>133.0</ele><time>2026-04-22T05:09:37.873Z</time></trkpt><trkpt lat="45.4089368" lon="10.5398896"><ele>133.0</ele><time>2026-04-22T05:09:56.876Z</time></trkpt><trkpt lat="45.4088867" lon="10.5399549"><ele>133.0</ele><time>2026-04-22T05:10:02.88Z</time></trkpt><trkpt lat="45.4088091" lon="10.5399186"><ele>133.0</ele><time>2026-04-22T05:10:36.885Z</time></trkpt><trkpt lat="45.4088615" lon="10.5398499"><ele>133.0</ele><time>2026-04-22T05:11:10.877Z</time></trkpt><trkpt lat="45.4090208" lon="10.5398923"><ele>133.0</ele><time>2026-04-22T05:12:13.881Z</time></trkpt><trkpt lat="45.4089389" lon="10.5399068"><ele>133.0</ele><time>2026-04-22T05:12:50.873Z</time></trkpt><trkpt lat="45.4090508" lon="10.5399357"><ele>133.0</ele><time>2026-04-22T05:13:42.878Z</time></trkpt><trkpt lat="45.4091372" lon="10.5399157"><ele>133.0</ele><time>2026-04-22T05:13:44.879Z</time></trkpt><trkpt lat="45.4092939" lon="10.5399013"><ele>133.0</ele><time>2026-04-22T05:13:49.885Z</time></trkpt><trkpt lat="45.4093724" lon="10.5399152"><ele>133.0</ele><time>2026-04-22T05:13:51.881Z</time></trkpt><trkpt lat="45.4095046" lon="10.5398969"><ele>133.0</ele><time>2026-04-22T05:14:07.88Z</time></trkpt><trkpt lat="45.4094299" lon="10.5398787"><ele>133.0</ele><time>2026-04-22T05:14:41.873Z</time></trkpt><trkpt lat="45.4093582" lon="10.5398458"><ele>133.0</ele><time>2026-04-22T05:14:58.883Z</time></trkpt><trkpt lat="45.4092846" lon="10.5398657"><ele>133.0</ele><time>2026-04-22T05:15:03.878Z</time></trkpt><trkpt lat="45.4092168" lon="10.5399183"><ele>133.0</ele><time>2026-04-22T05:15:07.875Z</time></trkpt><trkpt lat="45.4091564" lon="10.5399685"><ele>133.0</ele><time>2026-04-22T05:15:11.881Z</time></trkpt><trkpt lat="45.4090375" lon="10.5400152"><ele>133.0</ele><time>2026-04-22T05:15:35.877Z</time></trkpt><trkpt lat="45.4089374" lon="10.539991"><ele>133.0</ele><time>2026-04-22T05:16:04.874Z</time></trkpt><trkpt lat="45.4088656" lon="10.5398965"><ele>133.0</ele><time>2026-04-22T05:16:59.878Z</time></trkpt><trkpt lat="45.4089324" lon="10.5399755"><ele>133.0</ele><time>2026-04-22T05:18:10.873Z</time></trkpt><trkpt lat="45.4089631" lon="10.5398925"><ele>133.0</ele><time>2026-04-22T05:19:50.876Z</time></trkpt><trkpt lat="45.4090523" lon="10.5398567"><ele>133.0</ele><time>2026-04-22T05:20:20.882Z</time></trkpt><trkpt lat="45.4090097" lon="10.5397815"><ele>133.0</ele><time>2026-04-22T05:20:50.875Z</time></trkpt><trkpt lat="45.4089582" lon="10.5397296"><ele>133.0</ele><time>2026-04-22T05:20:54.871Z</time></trkpt><trkpt lat="45.4090284" lon="10.5397782"><ele>133.0</ele><time>2026-04-22T05:21:38.873Z</time></trkpt><trkpt lat="45.4090015" lon="10.5398593"><ele>133.0</ele><time>2026-04-22T05:23:28.879Z</time></trkpt><trkpt lat="45.4090157" lon="10.5399662"><ele>133.0</ele><time>2026-04-22T05:23:59.874Z</time></trkpt><trkpt lat="45.4090695" lon="10.5400221"><ele>133.0</ele><time>2026-04-22T05:24:03.875Z</time></trkpt><trkpt lat="45.4091212" lon="10.5401073"><ele>133.0</ele><time>2026-04-22T05:24:09.886Z</time></trkpt><trkpt lat="45.4090237" lon="10.5400014"><ele>133.0</ele><time>2026-04-22T05:24:37.875Z</time></trkpt><trkpt lat="45.4089631" lon="10.5399321"><ele>133.0</ele><time>2026-04-22T05:24:39.867Z</time></trkpt><trkpt lat="45.4090356" lon="10.5399176"><ele>133.0</ele><time>2026-04-22T05:25:04.879Z</time></trkpt><trkpt lat="45.4089091" lon="10.5398165"><ele>133.0</ele><time>2026-04-22T05:25:43.873Z</time></trkpt><trkpt lat="45.4088485" lon="10.5397887"><ele>133.0</ele><time>2026-04-22T05:25:54.87Z</time></trkpt><trkpt lat="45.4087924" lon="10.5396346"><ele>133.0</ele><time>2026-04-22T05:26:18.873Z</time></trkpt><trkpt lat="45.4088639" lon="10.5396697"><ele>133.0</ele><time>2026-04-22T05:26:30.87Z</time></trkpt><trkpt lat="45.4089187" lon="10.5397206"><ele>133.0</ele><time>2026-04-22T05:26:35.875Z</time></trkpt><trkpt lat="45.4089777" lon="10.5398057"><ele>133.0</ele><time>2026-04-22T05:28:41.871Z</time></trkpt><trkpt lat="45.4090432" lon="10.5398404"><ele>133.0</ele><time>2026-04-22T05:28:48.884Z</time></trkpt><trkpt lat="45.4090839" lon="10.5399092"><ele>133.0</ele><time>2026-04-22T05:29:40.876Z</time></trkpt><trkpt lat="45.4091917" lon="10.5399469"><ele>133.0</ele><time>2026-04-22T05:30:57.862Z</time></trkpt><trkpt lat="45.409306" lon="10.5399531"><ele>133.0</ele><time>2026-04-22T05:31:26.87Z</time></trkpt><trkpt lat="45.4092222" lon="10.5399054"><ele>133.0</ele><time>2026-04-22T05:31:37.879Z</time></trkpt><trkpt lat="45.4091358" lon="10.5398889"><ele>133.0</ele><time>2026-04-22T05:31:39.869Z</time></trkpt><trkpt lat="45.4089984" lon="10.5398405"><ele>133.0</ele><time>2026-04-22T05:31:45.877Z</time></trkpt><trkpt lat="45.408913" lon="10.5398684"><ele>133.0</ele><time>2026-04-22T05:32:12.871Z</time></trkpt><trkpt lat="45.4088301" lon="10.5397887"><ele>133.0</ele><time>2026-04-22T05:32:26.879Z</time></trkpt><trkpt lat="45.4089209" lon="10.5398753"><ele>133.0</ele><time>2026-04-22T05:33:10.872Z</time></trkpt><trkpt lat="45.4089937" lon="10.5399226"><ele>133.0</ele><time>2026-04-22T05:33:14.882Z</time></trkpt><trkpt lat="45.4090886" lon="10.5399413"><ele>133.0</ele><time>2026-04-22T05:33:43.875Z</time></trkpt><trkpt lat="45.4091613" lon="10.540019"><ele>133.0</ele><time>2026-04-22T05:35:53.882Z</time></trkpt><trkpt lat="45.409124" lon="10.5399248"><ele>133.0</ele><time>2026-04-22T05:36:28.878Z</time></trkpt><trkpt lat="45.4090871" lon="10.5398479"><ele>133.0</ele><time>2026-04-22T05:37:00.875Z</time></trkpt><trkpt lat="45.4090339" lon="10.5397819"><ele>133.0</ele><time>2026-04-22T05:37:03.875Z</time></trkpt><trkpt lat="45.4089206" lon="10.5396983"><ele>133.0</ele><time>2026-04-22T05:37:20.877Z</time></trkpt><trkpt lat="45.4087893" lon="10.5397206"><ele>133.0</ele><time>2026-04-22T05:37:34.877Z</time></trkpt><trkpt lat="45.408696" lon="10.5396965"><ele>133.0</ele><time>2026-04-22T05:37:37.874Z</time></trkpt><trkpt lat="45.4087991" lon="10.5398246"><ele>133.0</ele><time>2026-04-22T05:38:20.868Z</time></trkpt><trkpt lat="45.4088709" lon="10.539858"><ele>133.0</ele><time>2026-04-22T05:38:23.877Z</time></trkpt><trkpt lat="45.4090288" lon="10.539909"><ele>133.0</ele><time>2026-04-22T05:41:53.549Z</time></trkpt><trkpt lat="45.4091601" lon="10.5400218"><ele>133.0</ele><time>2026-04-22T05:41:55.872Z</time></trkpt><trkpt lat="45.4093197" lon="10.5401265"><ele>133.0</ele><time>2026-04-22T05:41:57.873Z</time></trkpt><trkpt lat="45.4093876" lon="10.5401814"><ele>133.0</ele><time>2026-04-22T05:42:00.872Z</time></trkpt><trkpt lat="45.4093262" lon="10.5401452"><ele>133.0</ele><time>2026-04-22T05:42:16.87Z</time></trkpt><trkpt lat="45.4092679" lon="10.5400771"><ele>133.0</ele><time>2026-04-22T05:42:21.879Z</time></trkpt><trkpt lat="45.409183" lon="10.5400361"><ele>133.0</ele><time>2026-04-22T05:42:30.875Z</time></trkpt><trkpt lat="45.4090845" lon="10.5399835"><ele>133.0</ele><time>2026-04-22T05:43:07.879Z</time></trkpt><trkpt lat="45.40901" lon="10.5399262"><ele>133.0</ele><time>2026-04-22T05:43:23.874Z</time></trkpt><trkpt lat="45.4091404" lon="10.54002"><ele>133.0</ele><time>2026-04-22T05:44:05.879Z</time></trkpt><trkpt lat="45.4092541" lon="10.5400423"><ele>133.0</ele><time>2026-04-22T05:44:08.87Z</time></trkpt><trkpt lat="45.4092215" lon="10.5399444"><ele>133.0</ele><time>2026-04-22T05:44:57.87Z</time></trkpt><trkpt lat="45.4090799" lon="10.5399314"><ele>133.0</ele><time>2026-04-22T05:45:15.871Z</time></trkpt><trkpt lat="45.4090443" lon="10.539844"><ele>133.0</ele><time>2026-04-22T05:45:19.875Z</time></trkpt><trkpt lat="45.4091077" lon="10.5397949"><ele>133.0</ele><time>2026-04-22T05:45:28.867Z</time></trkpt><trkpt lat="45.4092241" lon="10.5397889"><ele>133.0</ele><time>2026-04-22T05:45:51.878Z</time></trkpt><trkpt lat="45.4092818" lon="10.5396626"><ele>133.0</ele><time>2026-04-22T05:46:03.873Z</time></trkpt><trkpt lat="45.4092933" lon="10.5395302"><ele>133.0</ele><time>2026-04-22T05:46:05.873Z</time></trkpt><trkpt lat="45.4092353" lon="10.5393624"><ele>133.0</ele><time>2026-04-22T05:46:12.873Z</time></trkpt><trkpt lat="45.4091529" lon="10.539361"><ele>133.0</ele><time>2026-04-22T05:46:14.872Z</time></trkpt><trkpt lat="45.4090492" lon="10.5394656"><ele>133.0</ele><time>2026-04-22T05:46:19.871Z</time></trkpt><trkpt lat="45.4089895" lon="10.5395111"><ele>133.0</ele><time>2026-04-22T05:46:23.877Z</time></trkpt><trkpt lat="45.4089605" lon="10.5396206"><ele>133.0</ele><time>2026-04-22T05:46:27.869Z</time></trkpt><trkpt lat="45.4089485" lon="10.5397547"><ele>133.0</ele><time>2026-04-22T05:46:30.881Z</time></trkpt><trkpt lat="45.40895" lon="10.5398524"><ele>133.0</ele><time>2026-04-22T05:46:34.867Z</time></trkpt><trkpt lat="45.4089679" lon="10.5399486"><ele>133.0</ele><time>2026-04-22T05:46:38.879Z</time></trkpt><trkpt lat="45.4090154" lon="10.5400245"><ele>133.0</ele><time>2026-04-22T05:46:41.873Z</time></trkpt><trkpt lat="45.409037" lon="10.5401395"><ele>133.0</ele><time>2026-04-22T05:46:49.876Z</time></trkpt><trkpt lat="45.4090383" lon="10.5402374"><ele>133.0</ele><time>2026-04-22T05:46:52.868Z</time></trkpt><trkpt lat="45.4089689" lon="10.5402305"><ele>133.0</ele><time>2026-04-22T05:47:08.868Z</time></trkpt><trkpt lat="45.4090773" lon="10.5401389"><ele>133.0</ele><time>2026-04-22T05:47:15.87Z</time></trkpt><trkpt lat="45.4091309" lon="10.5400803"><ele>133.0</ele><time>2026-04-22T05:47:19.88Z</time></trkpt><trkpt lat="45.4091173" lon="10.5399781"><ele>133.0</ele><time>2026-04-22T05:47:28.876Z</time></trkpt><trkpt lat="45.40914" lon="10.5398883"><ele>133.0</ele><time>2026-04-22T05:47:48.867Z</time></trkpt><trkpt lat="45.4092147" lon="10.5398801"><ele>133.0</ele><time>2026-04-22T05:47:49.873Z</time></trkpt><trkpt lat="45.4091603" lon="10.5398318"><ele>133.0</ele><time>2026-04-22T05:48:18.874Z</time></trkpt><trkpt lat="45.4091676" lon="10.5399399"><ele>133.0</ele><time>2026-04-22T05:48:41.87Z</time></trkpt><trkpt lat="45.4091015" lon="10.5399534"><ele>133.0</ele><time>2026-04-22T05:48:48.873Z</time></trkpt><trkpt lat="45.4090323" lon="10.5398911"><ele>133.0</ele><time>2026-04-22T05:48:53.87Z</time></trkpt><trkpt lat="45.4091272" lon="10.5399151"><ele>133.0</ele><time>2026-04-22T05:49:13.878Z</time></trkpt><trkpt lat="45.4091469" lon="10.5397963"><ele>133.0</ele><time>2026-04-22T05:49:33.868Z</time></trkpt><trkpt lat="45.4090538" lon="10.5397518"><ele>133.0</ele><time>2026-04-22T05:49:51.867Z</time></trkpt><trkpt lat="45.4090772" lon="10.539858"><ele>133.0</ele><time>2026-04-22T05:50:18.877Z</time></trkpt><trkpt lat="45.4089764" lon="10.5397996"><ele>133.0</ele><time>2026-04-22T05:50:51.874Z</time></trkpt><trkpt lat="45.4090567" lon="10.5398385"><ele>133.0</ele><time>2026-04-22T05:51:13.87Z</time></trkpt><trkpt lat="45.4091648" lon="10.5399656"><ele>133.0</ele><time>2026-04-22T05:51:15.875Z</time></trkpt><trkpt lat="45.4092039" lon="10.5400367"><ele>133.0</ele><time>2026-04-22T05:51:16.876Z</time></trkpt><trkpt lat="45.4092551" lon="10.5401019"><ele>133.0</ele><time>2026-04-22T05:51:19.872Z</time></trkpt><trkpt lat="45.4093362" lon="10.5401414"><ele>133.0</ele><time>2026-04-22T05:51:23.877Z</time></trkpt><trkpt lat="45.4090327" lon="10.5398849"><ele>137.0</ele><time>2026-04-22T05:52:27.57Z</time></trkpt><trkpt lat="45.4100203" lon="10.5399582"><ele>137.0</ele><time>2026-04-22T05:53:07.875Z</time></trkpt><trkpt lat="45.410184" lon="10.5399776"><ele>137.0</ele><time>2026-04-22T05:53:09.868Z</time></trkpt><trkpt lat="45.4094743" lon="10.5398706"><ele>136.2</ele><time>2026-04-22T05:54:01.883Z</time></trkpt><trkpt lat="45.4094104" lon="10.539869"><ele>135.39999999999998</ele><time>2026-04-22T05:54:05.874Z</time></trkpt><trkpt lat="45.4093463" lon="10.5398682"><ele>134.60000000000002</ele><time>2026-04-22T05:54:08.878Z</time></trkpt><trkpt lat="45.4092728" lon="10.5398808"><ele>133.8</ele><time>2026-04-22T05:54:17.877Z</time></trkpt><trkpt lat="45.4090951" lon="10.5398864"><ele>133.0</ele><time>2026-04-22T05:54:22.875Z</time></trkpt><trkpt lat="45.4090085" lon="10.5398785"><ele>133.0</ele><time>2026-04-22T05:54:23.878Z</time></trkpt><trkpt lat="45.4089284" lon="10.5398737"><ele>133.0</ele><time>2026-04-22T05:54:24.876Z</time></trkpt><trkpt lat="45.4088501" lon="10.5398733"><ele>133.0</ele><time>2026-04-22T05:54:26.867Z</time></trkpt><trkpt lat="45.4087646" lon="10.5398674"><ele>133.0</ele><time>2026-04-22T05:54:27.873Z</time></trkpt><trkpt lat="45.4086651" lon="10.5398545"><ele>133.0</ele><time>2026-04-22T05:54:29.868Z</time></trkpt><trkpt lat="45.4087464" lon="10.5398216"><ele>133.0</ele><time>2026-04-22T05:54:48.872Z</time></trkpt><trkpt lat="45.4088405" lon="10.5398443"><ele>133.0</ele><time>2026-04-22T05:54:54.879Z</time></trkpt><trkpt lat="45.4089392" lon="10.5398653"><ele>133.0</ele><time>2026-04-22T05:54:55.88Z</time></trkpt><trkpt lat="45.4090322" lon="10.5398858"><ele>133.0</ele><time>2026-04-22T05:54:56.88Z</time></trkpt><trkpt lat="45.4091068" lon="10.5398983"><ele>133.0</ele><time>2026-04-22T05:54:57.875Z</time></trkpt><trkpt lat="45.4092075" lon="10.5399205"><ele>133.0</ele><time>2026-04-22T05:55:20.879Z</time></trkpt><trkpt lat="45.4092681" lon="10.5399469"><ele>133.0</ele><time>2026-04-22T05:55:22.873Z</time></trkpt><trkpt lat="45.4091993" lon="10.5399468"><ele>133.0</ele><time>2026-04-22T05:55:51.875Z</time></trkpt><trkpt lat="45.409188" lon="10.5400371"><ele>133.0</ele><time>2026-04-22T05:58:21.872Z</time></trkpt><trkpt lat="45.4093204" lon="10.5401419"><ele>133.0</ele><time>2026-04-22T05:58:37.869Z</time></trkpt><trkpt lat="45.4093904" lon="10.5401909"><ele>133.0</ele><time>2026-04-22T05:58:38.868Z</time></trkpt><trkpt lat="45.4094446" lon="10.5402392"><ele>133.0</ele><time>2026-04-22T05:58:39.869Z</time></trkpt><trkpt lat="45.4093611" lon="10.5401473"><ele>133.0</ele><time>2026-04-22T05:58:45.868Z</time></trkpt><trkpt lat="45.409312" lon="10.5400509"><ele>133.0</ele><time>2026-04-22T05:58:49.871Z</time></trkpt><trkpt lat="45.4091953" lon="10.5399675"><ele>133.0</ele><time>2026-04-22T05:58:53.879Z</time></trkpt><trkpt lat="45.409228" lon="10.5400607"><ele>133.0</ele><time>2026-04-22T05:58:58.877Z</time></trkpt><trkpt lat="45.4093122" lon="10.5401314"><ele>133.0</ele><time>2026-04-22T05:59:06.871Z</time></trkpt><trkpt lat="45.4093839" lon="10.5401957"><ele>133.0</ele><time>2026-04-22T05:59:08.874Z</time></trkpt><trkpt lat="45.4094958" lon="10.5403364"><ele>133.0</ele><time>2026-04-22T05:59:19.87Z</time></trkpt><trkpt lat="45.4094241" lon="10.5403739"><ele>133.0</ele><time>2026-04-22T05:59:40.879Z</time></trkpt><trkpt lat="45.4093359" lon="10.5403068"><ele>133.0</ele><time>2026-04-22T06:00:15.874Z</time></trkpt><trkpt lat="45.4092516" lon="10.5401745"><ele>133.0</ele><time>2026-04-22T06:00:27.875Z</time></trkpt><trkpt lat="45.4092359" lon="10.5400869"><ele>133.0</ele><time>2026-04-22T06:00:34.87Z</time></trkpt><trkpt lat="45.409171" lon="10.5400039"><ele>133.0</ele><time>2026-04-22T06:00:38.873Z</time></trkpt><trkpt lat="45.4092378" lon="10.5399981"><ele>133.0</ele><time>2026-04-22T06:00:48.872Z</time></trkpt><trkpt lat="45.409187" lon="10.540076"><ele>133.0</ele><time>2026-04-22T06:01:14.871Z</time></trkpt><trkpt lat="45.409088" lon="10.5401506"><ele>133.0</ele><time>2026-04-22T06:01:28.879Z</time></trkpt><trkpt lat="45.4090026" lon="10.540193"><ele>133.0</ele><time>2026-04-22T06:01:36.878Z</time></trkpt><trkpt lat="45.409113" lon="10.5402084"><ele>133.0</ele><time>2026-04-22T06:02:00.869Z</time></trkpt><trkpt lat="45.4092429" lon="10.5401604"><ele>133.0</ele><time>2026-04-22T06:02:23.876Z</time></trkpt><trkpt lat="45.4092945" lon="10.5402236"><ele>133.0</ele><time>2026-04-22T06:02:37.875Z</time></trkpt><trkpt lat="45.4093224" lon="10.5403485"><ele>133.0</ele><time>2026-04-22T06:02:39.872Z</time></trkpt><trkpt lat="45.409289" lon="10.5402084"><ele>133.0</ele><time>2026-04-22T06:03:36.874Z</time></trkpt><trkpt lat="45.4092414" lon="10.5401489"><ele>133.0</ele><time>2026-04-22T06:04:03.874Z</time></trkpt><trkpt lat="45.40914" lon="10.5401117"><ele>133.0</ele><time>2026-04-22T06:05:00.879Z</time></trkpt><trkpt lat="45.4089846" lon="10.5400547"><ele>133.0</ele><time>2026-04-22T06:05:09.869Z</time></trkpt><trkpt lat="45.4088718" lon="10.5399978"><ele>133.0</ele><time>2026-04-22T06:05:24.879Z</time></trkpt><trkpt lat="45.4087919" lon="10.5399202"><ele>133.0</ele><time>2026-04-22T06:05:42.87Z</time></trkpt><trkpt lat="45.4087056" lon="10.5398297"><ele>133.0</ele><time>2026-04-22T06:06:02.87Z</time></trkpt><trkpt lat="45.4086338" lon="10.5397617"><ele>133.0</ele><time>2026-04-22T06:06:04.878Z</time></trkpt><trkpt lat="45.4086919" lon="10.5398198"><ele>133.0</ele><time>2026-04-22T06:06:27.876Z</time></trkpt><trkpt lat="45.4087728" lon="10.539946"><ele>133.0</ele><time>2026-04-22T06:06:42.873Z</time></trkpt><trkpt lat="45.4088607" lon="10.5399255"><ele>133.0</ele><time>2026-04-22T06:07:15.879Z</time></trkpt><trkpt lat="45.4088258" lon="10.5398504"><ele>133.0</ele><time>2026-04-22T06:07:52.872Z</time></trkpt><trkpt lat="45.4088382" lon="10.5399517"><ele>133.0</ele><time>2026-04-22T06:08:07.882Z</time></trkpt><trkpt lat="45.4087466" lon="10.5399069"><ele>133.0</ele><time>2026-04-22T06:08:49.871Z</time></trkpt><trkpt lat="45.4086865" lon="10.5398687"><ele>133.0</ele><time>2026-04-22T06:08:59.873Z</time></trkpt><trkpt lat="45.4087696" lon="10.5398262"><ele>133.0</ele><time>2026-04-22T06:10:14.876Z</time></trkpt><trkpt lat="45.4088823" lon="10.5399357"><ele>133.0</ele><time>2026-04-22T06:10:30.88Z</time></trkpt><trkpt lat="45.4089539" lon="10.5399872"><ele>133.0</ele><time>2026-04-22T06:10:32.881Z</time></trkpt><trkpt lat="45.408889" lon="10.5399069"><ele>133.0</ele><time>2026-04-22T06:10:56.877Z</time></trkpt><trkpt lat="45.4089878" lon="10.5399333"><ele>133.0</ele><time>2026-04-22T06:11:49.876Z</time></trkpt><trkpt lat="45.4090885" lon="10.5399941"><ele>133.0</ele><time>2026-04-22T06:12:16.881Z</time></trkpt><trkpt lat="45.4090144" lon="10.5399513"><ele>133.0</ele><time>2026-04-22T06:12:37.875Z</time></trkpt><trkpt lat="45.4089527" lon="10.5399282"><ele>133.0</ele><time>2026-04-22T06:12:43.875Z</time></trkpt><trkpt lat="45.4088729" lon="10.5398655"><ele>133.0</ele><time>2026-04-22T06:12:46.872Z</time></trkpt><trkpt lat="45.4088183" lon="10.5398093"><ele>133.0</ele><time>2026-04-22T06:12:52.879Z</time></trkpt><trkpt lat="45.4089204" lon="10.5398329"><ele>133.0</ele><time>2026-04-22T06:13:15.871Z</time></trkpt><trkpt lat="45.4087999" lon="10.5398649"><ele>133.0</ele><time>2026-04-22T06:14:08.874Z</time></trkpt><trkpt lat="45.4088884" lon="10.5398862"><ele>133.0</ele><time>2026-04-22T06:15:08.874Z</time></trkpt><trkpt lat="45.4089762" lon="10.5399126"><ele>133.0</ele><time>2026-04-22T06:15:35.87Z</time></trkpt><trkpt lat="45.4089114" lon="10.5399253"><ele>133.0</ele><time>2026-04-22T06:16:03.873Z</time></trkpt><trkpt lat="45.4088352" lon="10.5399353"><ele>133.0</ele><time>2026-04-22T06:16:20.878Z</time></trkpt><trkpt lat="45.4089094" lon="10.5399391"><ele>133.0</ele><time>2026-04-22T06:17:35.878Z</time></trkpt><trkpt lat="45.4088518" lon="10.5398892"><ele>133.0</ele><time>2026-04-22T06:17:50.874Z</time></trkpt><trkpt lat="45.4089602" lon="10.5398476"><ele>133.0</ele><time>2026-04-22T06:18:25.881Z</time></trkpt><trkpt lat="45.4090267" lon="10.5398455"><ele>133.0</ele><time>2026-04-22T06:18:26.878Z</time></trkpt><trkpt lat="45.4089628" lon="10.5398134"><ele>133.0</ele><time>2026-04-22T06:19:04.88Z</time></trkpt><trkpt lat="45.4088629" lon="10.539828"><ele>133.0</ele><time>2026-04-22T06:19:16.874Z</time></trkpt><trkpt lat="45.4087373" lon="10.5397643"><ele>133.0</ele><time>2026-04-22T06:19:26.87Z</time></trkpt><trkpt lat="45.4087692" lon="10.5396478"><ele>133.0</ele><time>2026-04-22T06:20:11.875Z</time></trkpt><trkpt lat="45.4089216" lon="10.5396389"><ele>133.0</ele><time>2026-04-22T06:20:34.878Z</time></trkpt><trkpt lat="45.4089682" lon="10.5397004"><ele>133.0</ele><time>2026-04-22T06:20:37.871Z</time></trkpt><trkpt lat="45.4088855" lon="10.5397262"><ele>133.0</ele><time>2026-04-22T06:20:53.871Z</time></trkpt><trkpt lat="45.4088811" lon="10.5398187"><ele>133.0</ele><time>2026-04-22T06:21:24.874Z</time></trkpt><trkpt lat="45.4089349" lon="10.5397708"><ele>133.0</ele><time>2026-04-22T06:23:01.881Z</time></trkpt><trkpt lat="45.4088565" lon="10.5397275"><ele>133.0</ele><time>2026-04-22T06:23:22.872Z</time></trkpt><trkpt lat="45.4088761" lon="10.5398385"><ele>133.0</ele><time>2026-04-22T06:24:06.878Z</time></trkpt><trkpt lat="45.4088058" lon="10.539864"><ele>133.0</ele><time>2026-04-22T06:25:03.874Z</time></trkpt><trkpt lat="45.4088797" lon="10.5398975"><ele>133.0</ele><time>2026-04-22T06:25:52.877Z</time></trkpt><trkpt lat="45.4089642" lon="10.5399326"><ele>133.0</ele><time>2026-04-22T06:26:16.88Z</time></trkpt><trkpt lat="45.4089052" lon="10.5398694"><ele>133.0</ele><time>2026-04-22T06:26:46.873Z</time></trkpt><trkpt lat="45.4089709" lon="10.53993"><ele>133.0</ele><time>2026-04-22T06:27:05.88Z</time></trkpt><trkpt lat="45.4089282" lon="10.5398506"><ele>133.0</ele><time>2026-04-22T06:27:16.87Z</time></trkpt><trkpt lat="45.4088571" lon="10.5397638"><ele>133.0</ele><time>2026-04-22T06:27:18.871Z</time></trkpt><trkpt lat="45.4088029" lon="10.5397011"><ele>133.0</ele><time>2026-04-22T06:27:23.88Z</time></trkpt><trkpt lat="45.4087216" lon="10.5396287"><ele>133.0</ele><time>2026-04-22T06:27:35.877Z</time></trkpt><trkpt lat="45.4086455" lon="10.5395685"><ele>133.0</ele><time>2026-04-22T06:27:40.881Z</time></trkpt><trkpt lat="45.4085424" lon="10.5394727"><ele>133.0</ele><time>2026-04-22T06:27:49.876Z</time></trkpt><trkpt lat="45.4085992" lon="10.53952"><ele>133.0</ele><time>2026-04-22T06:27:54.871Z</time></trkpt><trkpt lat="45.4086807" lon="10.5396148"><ele>133.0</ele><time>2026-04-22T06:28:10.875Z</time></trkpt><trkpt lat="45.4087706" lon="10.5396932"><ele>133.0</ele><time>2026-04-22T06:28:17.874Z</time></trkpt><trkpt lat="45.4088467" lon="10.5397783"><ele>133.0</ele><time>2026-04-22T06:28:57.877Z</time></trkpt><trkpt lat="45.4089266" lon="10.5398555"><ele>133.0</ele><time>2026-04-22T06:29:11.874Z</time></trkpt><trkpt lat="45.4090109" lon="10.5399404"><ele>133.0</ele><time>2026-04-22T06:29:46.879Z</time></trkpt><trkpt lat="45.4089146" lon="10.5398452"><ele>133.0</ele><time>2026-04-22T06:30:07.87Z</time></trkpt><trkpt lat="45.4088445" lon="10.5398096"><ele>133.0</ele><time>2026-04-22T06:30:09.867Z</time></trkpt><trkpt lat="45.4088953" lon="10.539879"><ele>133.0</ele><time>2026-04-22T06:30:32.879Z</time></trkpt><trkpt lat="45.4089574" lon="10.5399178"><ele>133.0</ele><time>2026-04-22T06:30:34.872Z</time></trkpt><trkpt lat="45.4089574" lon="10.5398273"><ele>133.0</ele><time>2026-04-22T06:30:56.871Z</time></trkpt><trkpt lat="45.4088958" lon="10.5397707"><ele>133.0</ele><time>2026-04-22T06:30:59.875Z</time></trkpt><trkpt lat="45.4088124" lon="10.5397374"><ele>133.0</ele><time>2026-04-22T06:31:04.871Z</time></trkpt><trkpt lat="45.4088609" lon="10.5398056"><ele>133.0</ele><time>2026-04-22T06:31:20.876Z</time></trkpt><trkpt lat="45.4089206" lon="10.5398601"><ele>133.0</ele><time>2026-04-22T06:31:24.88Z</time></trkpt><trkpt lat="45.4088118" lon="10.5398071"><ele>133.0</ele><time>2026-04-22T06:31:37.872Z</time></trkpt><trkpt lat="45.4087135" lon="10.5397472"><ele>133.0</ele><time>2026-04-22T06:31:38.871Z</time></trkpt><trkpt lat="45.4086472" lon="10.5397193"><ele>133.0</ele><time>2026-04-22T06:31:41.874Z</time></trkpt><trkpt lat="45.408593" lon="10.5396182"><ele>133.0</ele><time>2026-04-22T06:31:43.878Z</time></trkpt><trkpt lat="45.4086796" lon="10.5396425"><ele>133.0</ele><time>2026-04-22T06:32:07.88Z</time></trkpt><trkpt lat="45.4087584" lon="10.539707"><ele>133.0</ele><time>2026-04-22T06:32:11.873Z</time></trkpt><trkpt lat="45.4088396" lon="10.5397892"><ele>133.0</ele><time>2026-04-22T06:32:13.881Z</time></trkpt><trkpt lat="45.408902" lon="10.5398351"><ele>133.0</ele><time>2026-04-22T06:32:14.879Z</time></trkpt><trkpt lat="45.408969" lon="10.5398948"><ele>133.0</ele><time>2026-04-22T06:32:15.878Z</time></trkpt><trkpt lat="45.4090492" lon="10.539977"><ele>133.0</ele><time>2026-04-22T06:32:17.874Z</time></trkpt><trkpt lat="45.409106" lon="10.5400462"><ele>133.0</ele><time>2026-04-22T06:32:21.873Z</time></trkpt><trkpt lat="45.4090629" lon="10.5399159"><ele>133.0</ele><time>2026-04-22T06:33:04.882Z</time></trkpt><trkpt lat="45.4091437" lon="10.5398939"><ele>133.0</ele><time>2026-04-22T06:33:28.872Z</time></trkpt><trkpt lat="45.4091924" lon="10.5399602"><ele>133.0</ele><time>2026-04-22T06:33:51.874Z</time></trkpt><trkpt lat="45.4090892" lon="10.539915"><ele>133.0</ele><time>2026-04-22T06:34:32.873Z</time></trkpt><trkpt lat="45.4090042" lon="10.539996"><ele>133.0</ele><time>2026-04-22T06:35:01.871Z</time></trkpt><trkpt lat="45.4089799" lon="10.5401145"><ele>133.0</ele><time>2026-04-22T06:35:04.879Z</time></trkpt><trkpt lat="45.409023" lon="10.5400188"><ele>133.0</ele><time>2026-04-22T06:35:32.876Z</time></trkpt><trkpt lat="45.4089627" lon="10.539932"><ele>133.0</ele><time>2026-04-22T06:36:30.872Z</time></trkpt><trkpt lat="45.4088123" lon="10.5398534"><ele>133.0</ele><time>2026-04-22T06:36:44.881Z</time></trkpt><trkpt lat="45.4088631" lon="10.5397794"><ele>133.0</ele><time>2026-04-22T06:37:10.88Z</time></trkpt><trkpt lat="45.4088221" lon="10.5396806"><ele>133.0</ele><time>2026-04-22T06:37:26.876Z</time></trkpt><trkpt lat="45.4087486" lon="10.5396769"><ele>133.0</ele><time>2026-04-22T06:38:03.876Z</time></trkpt><trkpt lat="45.408797" lon="10.5397736"><ele>133.0</ele><time>2026-04-22T06:38:19.879Z</time></trkpt><trkpt lat="45.4088357" lon="10.5398879"><ele>133.0</ele><time>2026-04-22T06:38:29.882Z</time></trkpt><trkpt lat="45.408887" lon="10.5399399"><ele>133.0</ele><time>2026-04-22T06:38:36.869Z</time></trkpt><trkpt lat="45.4089228" lon="10.5398243"><ele>133.0</ele><time>2026-04-22T06:39:14.871Z</time></trkpt><trkpt lat="45.4088456" lon="10.5397963"><ele>133.0</ele><time>2026-04-22T06:39:43.871Z</time></trkpt><trkpt lat="45.4087478" lon="10.5396979"><ele>133.0</ele><time>2026-04-22T06:40:01.878Z</time></trkpt><trkpt lat="45.4086993" lon="10.539759"><ele>133.0</ele><time>2026-04-22T06:40:43.869Z</time></trkpt><trkpt lat="45.408597" lon="10.5396533"><ele>133.0</ele><time>2026-04-22T06:40:53.874Z</time></trkpt><trkpt lat="45.4086899" lon="10.539689"><ele>133.0</ele><time>2026-04-22T06:41:01.873Z</time></trkpt><trkpt lat="45.40873" lon="10.5396033"><ele>133.0</ele><time>2026-04-22T06:41:34.872Z</time></trkpt><trkpt lat="45.408785" lon="10.5395084"><ele>133.0</ele><time>2026-04-22T06:41:36.879Z</time></trkpt><trkpt lat="45.4088544" lon="10.5395583"><ele>131.5</ele><time>2026-04-22T06:41:50.875Z</time></trkpt><trkpt lat="45.4088026" lon="10.5396975"><ele>130.0</ele><time>2026-04-22T06:42:05.873Z</time></trkpt><trkpt lat="45.4087331" lon="10.5396602"><ele>128.5</ele><time>2026-04-22T06:42:08.88Z</time></trkpt><trkpt lat="45.4087175" lon="10.5395637"><ele>127.0</ele><time>2026-04-22T06:42:14.873Z</time></trkpt><trkpt lat="45.4086694" lon="10.5394583"><ele>125.50000000000001</ele><time>2026-04-22T06:42:33.879Z</time></trkpt><trkpt lat="45.4087132" lon="10.5395275"><ele>124.0</ele><time>2026-04-22T06:43:02.872Z</time></trkpt><trkpt lat="45.408809" lon="10.5396477"><ele>125.50000000000001</ele><time>2026-04-22T06:43:18.874Z</time></trkpt><trkpt lat="45.4088384" lon="10.5397272"><ele>127.0</ele><time>2026-04-22T06:43:29.873Z</time></trkpt><trkpt lat="45.4089171" lon="10.5397741"><ele>128.5</ele><time>2026-04-22T06:44:15.873Z</time></trkpt><trkpt lat="45.4089695" lon="10.5398498"><ele>130.0</ele><time>2026-04-22T06:44:19.88Z</time></trkpt><trkpt lat="45.409034" lon="10.5398238"><ele>131.5</ele><time>2026-04-22T06:45:46.873Z</time></trkpt><trkpt lat="45.4089583" lon="10.5397521"><ele>133.0</ele><time>2026-04-22T06:46:10.872Z</time></trkpt><trkpt lat="45.4090129" lon="10.5398209"><ele>133.0</ele><time>2026-04-22T06:46:30.88Z</time></trkpt><trkpt lat="45.4090209" lon="10.5397122"><ele>133.0</ele><time>2026-04-22T06:46:57.873Z</time></trkpt><trkpt lat="45.4089816" lon="10.5398143"><ele>133.0</ele><time>2026-04-22T06:47:41.878Z</time></trkpt><trkpt lat="45.4088966" lon="10.5397908"><ele>133.0</ele><time>2026-04-22T06:47:59.872Z</time></trkpt><trkpt lat="45.4089606" lon="10.5398751"><ele>133.0</ele><time>2026-04-22T06:48:27.868Z</time></trkpt><trkpt lat="45.4089967" lon="10.539756"><ele>133.0</ele><time>2026-04-22T06:48:43.87Z</time></trkpt><trkpt lat="45.408937" lon="10.5396811"><ele>133.0</ele><time>2026-04-22T06:48:51.869Z</time></trkpt><trkpt lat="45.4089443" lon="10.5398084"><ele>133.0</ele><time>2026-04-22T06:49:35.874Z</time></trkpt><trkpt lat="45.4088788" lon="10.5398182"><ele>133.0</ele><time>2026-04-22T06:50:10.873Z</time></trkpt><trkpt lat="45.4088317" lon="10.5397485"><ele>133.0</ele><time>2026-04-22T06:50:25.882Z</time></trkpt><trkpt lat="45.4088908" lon="10.5397017"><ele>133.0</ele><time>2026-04-22T06:50:35.873Z</time></trkpt><trkpt lat="45.4090309" lon="10.5397032"><ele>133.0</ele><time>2026-04-22T06:50:45.882Z</time></trkpt><trkpt lat="45.4090939" lon="10.5397497"><ele>133.0</ele><time>2026-04-22T06:50:48.874Z</time></trkpt><trkpt lat="45.4090092" lon="10.5398665"><ele>133.0</ele><time>2026-04-22T06:51:02.869Z</time></trkpt><trkpt lat="45.4089235" lon="10.5398279"><ele>133.0</ele><time>2026-04-22T06:51:26.873Z</time></trkpt><trkpt lat="45.4089558" lon="10.53975"><ele>133.0</ele><time>2026-04-22T06:52:25.874Z</time></trkpt><trkpt lat="45.4088792" lon="10.5396956"><ele>133.0</ele><time>2026-04-22T06:54:02.872Z</time></trkpt><trkpt lat="45.4088247" lon="10.5395978"><ele>133.0</ele><time>2026-04-22T06:54:09.872Z</time></trkpt><trkpt lat="45.4088177" lon="10.5397006"><ele>133.0</ele><time>2026-04-22T06:54:34.872Z</time></trkpt><trkpt lat="45.4088208" lon="10.5398034"><ele>133.0</ele><time>2026-04-22T06:54:37.879Z</time></trkpt><trkpt lat="45.4088823" lon="10.539901"><ele>133.0</ele><time>2026-04-22T06:54:45.869Z</time></trkpt><trkpt lat="45.40894" lon="10.5398385"><ele>133.0</ele><time>2026-04-22T06:55:21.867Z</time></trkpt><trkpt lat="45.4089661" lon="10.5397451"><ele>133.0</ele><time>2026-04-22T06:55:25.879Z</time></trkpt><trkpt lat="45.4089899" lon="10.5396601"><ele>133.0</ele><time>2026-04-22T06:55:41.876Z</time></trkpt><trkpt lat="45.4089308" lon="10.5396073"><ele>133.0</ele><time>2026-04-22T06:55:47.869Z</time></trkpt><trkpt lat="45.4088919" lon="10.5397091"><ele>133.0</ele><time>2026-04-22T06:56:29.872Z</time></trkpt><trkpt lat="45.4088201" lon="10.5396866"><ele>133.0</ele><time>2026-04-22T06:56:41.879Z</time></trkpt><trkpt lat="45.4088566" lon="10.5397835"><ele>133.0</ele><time>2026-04-22T06:57:45.877Z</time></trkpt><trkpt lat="45.4089481" lon="10.5397994"><ele>133.0</ele><time>2026-04-22T06:58:54.872Z</time></trkpt><trkpt lat="45.4089871" lon="10.5398711"><ele>133.0</ele><time>2026-04-22T06:59:26.87Z</time></trkpt><trkpt lat="45.4089284" lon="10.5399366"><ele>133.0</ele><time>2026-04-22T06:59:52.87Z</time></trkpt><trkpt lat="45.409017" lon="10.5399427"><ele>133.0</ele><time>2026-04-22T07:00:17.873Z</time></trkpt><trkpt lat="45.4090856" lon="10.5398814"><ele>133.0</ele><time>2026-04-22T07:00:47.873Z</time></trkpt><trkpt lat="45.4090349" lon="10.5397894"><ele>133.0</ele><time>2026-04-22T07:01:47.871Z</time></trkpt><trkpt lat="45.4089255" lon="10.5396988"><ele>133.0</ele><time>2026-04-22T07:01:55.871Z</time></trkpt><trkpt lat="45.4088311" lon="10.5395874"><ele>133.0</ele><time>2026-04-22T07:02:13.883Z</time></trkpt><trkpt lat="45.4088825" lon="10.5396436"><ele>133.0</ele><time>2026-04-22T07:02:30.876Z</time></trkpt><trkpt lat="45.4088249" lon="10.5396015"><ele>133.0</ele><time>2026-04-22T07:03:09.871Z</time></trkpt><trkpt lat="45.4089148" lon="10.5396068"><ele>133.0</ele><time>2026-04-22T07:03:38.87Z</time></trkpt><trkpt lat="45.4089964" lon="10.5396448"><ele>133.0</ele><time>2026-04-22T07:03:55.876Z</time></trkpt><trkpt lat="45.4090615" lon="10.5397042"><ele>133.0</ele><time>2026-04-22T07:03:59.87Z</time></trkpt><trkpt lat="45.4089912" lon="10.5397318"><ele>133.0</ele><time>2026-04-22T07:05:01.873Z</time></trkpt><trkpt lat="45.4089276" lon="10.5397292"><ele>133.0</ele><time>2026-04-22T07:05:04.873Z</time></trkpt><trkpt lat="45.4088662" lon="10.5396564"><ele>133.0</ele><time>2026-04-22T07:05:40.872Z</time></trkpt><trkpt lat="45.4088383" lon="10.5397483"><ele>133.0</ele><time>2026-04-22T07:06:33.877Z</time></trkpt><trkpt lat="45.4088998" lon="10.5396869"><ele>133.0</ele><time>2026-04-22T07:07:09.875Z</time></trkpt><trkpt lat="45.4088283" lon="10.539732"><ele>133.0</ele><time>2026-04-22T07:07:29.905Z</time></trkpt><trkpt lat="45.4087979" lon="10.5396394"><ele>133.0</ele><time>2026-04-22T07:07:41.876Z</time></trkpt><trkpt lat="45.4089067" lon="10.53976"><ele>133.0</ele><time>2026-04-22T07:08:43.883Z</time></trkpt><trkpt lat="45.4088768" lon="10.5396081"><ele>133.0</ele><time>2026-04-22T07:08:55.876Z</time></trkpt><trkpt lat="45.4087952" lon="10.5395257"><ele>133.0</ele><time>2026-04-22T07:09:13.87Z</time></trkpt><trkpt lat="45.408738" lon="10.5396031"><ele>133.0</ele><time>2026-04-22T07:09:25.881Z</time></trkpt><trkpt lat="45.4086464" lon="10.5396173"><ele>133.0</ele><time>2026-04-22T07:09:42.867Z</time></trkpt><trkpt lat="45.4086594" lon="10.539729"><ele>131.5</ele><time>2026-04-22T07:09:47.868Z</time></trkpt><trkpt lat="45.4087552" lon="10.5398484"><ele>130.0</ele><time>2026-04-22T07:09:53.87Z</time></trkpt><trkpt lat="45.4088118" lon="10.5398883"><ele>128.5</ele><time>2026-04-22T07:09:54.87Z</time></trkpt><trkpt lat="45.4087895" lon="10.5397563"><ele>127.0</ele><time>2026-04-22T07:10:03.872Z</time></trkpt><trkpt lat="45.408746" lon="10.5396766"><ele>125.50000000000001</ele><time>2026-04-22T07:10:06.874Z</time></trkpt><trkpt lat="45.4086811" lon="10.5396138"><ele>124.0</ele><time>2026-04-22T07:10:08.874Z</time></trkpt><trkpt lat="45.4085562" lon="10.5395108"><ele>123.50000000000001</ele><time>2026-04-22T07:10:12.874Z</time></trkpt><trkpt lat="45.4084961" lon="10.5394608"><ele>123.0</ele><time>2026-04-22T07:10:20.866Z</time></trkpt><trkpt lat="45.4084444" lon="10.5394"><ele>122.5</ele><time>2026-04-22T07:10:22.878Z</time></trkpt><trkpt lat="45.4085478" lon="10.5394319"><ele>122.0</ele><time>2026-04-22T07:10:44.868Z</time></trkpt><trkpt lat="45.4084265" lon="10.539377"><ele>121.50000000000001</ele><time>2026-04-22T07:11:01.875Z</time></trkpt><trkpt lat="45.4084916" lon="10.5393851"><ele>121.0</ele><time>2026-04-22T07:11:11.875Z</time></trkpt><trkpt lat="45.4086337" lon="10.5394545"><ele>121.00000000000001</ele><time>2026-04-22T07:11:21.877Z</time></trkpt><trkpt lat="45.4085834" lon="10.5393816"><ele>121.0</ele><time>2026-04-22T07:11:35.877Z</time></trkpt><trkpt lat="45.4085201" lon="10.5393217"><ele>121.0</ele><time>2026-04-22T07:11:38.871Z</time></trkpt><trkpt lat="45.4086126" lon="10.5393564"><ele>121.0</ele><time>2026-04-22T07:12:03.869Z</time></trkpt><trkpt lat="45.4086862" lon="10.5394226"><ele>121.00000000000001</ele><time>2026-04-22T07:12:05.873Z</time></trkpt><trkpt lat="45.4087483" lon="10.5394739"><ele>121.0</ele><time>2026-04-22T07:12:07.876Z</time></trkpt><trkpt lat="45.4088335" lon="10.5395399"><ele>123.4</ele><time>2026-04-22T07:12:10.881Z</time></trkpt><trkpt lat="45.4088974" lon="10.539603"><ele>125.8</ele><time>2026-04-22T07:12:12.869Z</time></trkpt><trkpt lat="45.4088407" lon="10.539553"><ele>128.20000000000002</ele><time>2026-04-22T07:12:20.871Z</time></trkpt><trkpt lat="45.40892" lon="10.5396073"><ele>130.6</ele><time>2026-04-22T07:12:42.876Z</time></trkpt><trkpt lat="45.409014" lon="10.5397532"><ele>133.0</ele><time>2026-04-22T07:13:51.869Z</time></trkpt><trkpt lat="45.409115" lon="10.5398513"><ele>133.0</ele><time>2026-04-22T07:13:57.87Z</time></trkpt><trkpt lat="45.4090773" lon="10.5397675"><ele>133.0</ele><time>2026-04-22T07:14:19.883Z</time></trkpt><trkpt lat="45.4090384" lon="10.5396955"><ele>133.0</ele><time>2026-04-22T07:14:22.872Z</time></trkpt><trkpt lat="45.4089855" lon="10.5395967"><ele>133.0</ele><time>2026-04-22T07:14:37.92Z</time></trkpt><trkpt lat="45.4089239" lon="10.5396317"><ele>133.0</ele><time>2026-04-22T07:14:40.865Z</time></trkpt><trkpt lat="45.4088408" lon="10.5396164"><ele>133.0</ele><time>2026-04-22T07:15:22.883Z</time></trkpt><trkpt lat="45.4087759" lon="10.5394879"><ele>133.0</ele><time>2026-04-22T07:16:41.869Z</time></trkpt><trkpt lat="45.4088471" lon="10.5394996"><ele>133.0</ele><time>2026-04-22T07:17:17.883Z</time></trkpt><trkpt lat="45.4089178" lon="10.5395457"><ele>133.0</ele><time>2026-04-22T07:17:19.883Z</time></trkpt><trkpt lat="45.4090099" lon="10.5396303"><ele>133.0</ele><time>2026-04-22T07:17:24.878Z</time></trkpt><trkpt lat="45.4090677" lon="10.539668"><ele>133.0</ele><time>2026-04-22T07:17:25.879Z</time></trkpt><trkpt lat="45.4091977" lon="10.5397636"><ele>133.0</ele><time>2026-04-22T07:17:30.872Z</time></trkpt><trkpt lat="45.4091963" lon="10.5398813"><ele>133.0</ele><time>2026-04-22T07:17:47.874Z</time></trkpt><trkpt lat="45.4091365" lon="10.539848"><ele>133.0</ele><time>2026-04-22T07:17:51.879Z</time></trkpt><trkpt lat="45.4090679" lon="10.5398004"><ele>133.0</ele><time>2026-04-22T07:18:02.868Z</time></trkpt><trkpt lat="45.4091486" lon="10.5397951"><ele>133.0</ele><time>2026-04-22T07:18:31.876Z</time></trkpt><trkpt lat="45.4092379" lon="10.5398414"><ele>133.0</ele><time>2026-04-22T07:18:37.88Z</time></trkpt><trkpt lat="45.409296" lon="10.5397326"><ele>133.0</ele><time>2026-04-22T07:19:18.88Z</time></trkpt><trkpt lat="45.4092335" lon="10.5396672"><ele>133.0</ele><time>2026-04-22T07:19:36.878Z</time></trkpt><trkpt lat="45.4091506" lon="10.5397106"><ele>133.0</ele><time>2026-04-22T07:19:54.88Z</time></trkpt><trkpt lat="45.4090515" lon="10.5396512"><ele>133.0</ele><time>2026-04-22T07:19:55.874Z</time></trkpt><trkpt lat="45.4089549" lon="10.5397184"><ele>133.0</ele><time>2026-04-22T07:20:06.876Z</time></trkpt><trkpt lat="45.40893" lon="10.5396063"><ele>132.33333333333334</ele><time>2026-04-22T07:20:41.881Z</time></trkpt><trkpt lat="45.4089432" lon="10.5395003"><ele>131.66666666666669</ele><time>2026-04-22T07:20:44.869Z</time></trkpt><trkpt lat="45.4088571" lon="10.5394101"><ele>131.0</ele><time>2026-04-22T07:20:52.87Z</time></trkpt><trkpt lat="45.4087989" lon="10.5393234"><ele>130.33333333333334</ele><time>2026-04-22T07:20:55.884Z</time></trkpt><trkpt lat="45.4087589" lon="10.5392212"><ele>129.66666666666666</ele><time>2026-04-22T07:21:01.87Z</time></trkpt><trkpt lat="45.4088372" lon="10.5392657"><ele>129.0</ele><time>2026-04-22T07:21:15.878Z</time></trkpt><trkpt lat="45.4088756" lon="10.5393391"><ele>129.0</ele><time>2026-04-22T07:21:18.871Z</time></trkpt><trkpt lat="45.4089397" lon="10.5394141"><ele>129.0</ele><time>2026-04-22T07:21:29.879Z</time></trkpt><trkpt lat="45.4090403" lon="10.5394824"><ele>129.0</ele><time>2026-04-22T07:21:44.873Z</time></trkpt><trkpt lat="45.4090323" lon="10.5396435"><ele>129.0</ele><time>2026-04-22T07:22:01.883Z</time></trkpt><trkpt lat="45.4090245" lon="10.5397411"><ele>129.0</ele><time>2026-04-22T07:22:04.867Z</time></trkpt><trkpt lat="45.4089997" lon="10.5398595"><ele>129.66666666666666</ele><time>2026-04-22T07:22:11.874Z</time></trkpt><trkpt lat="45.4090565" lon="10.5399654"><ele>130.33333333333334</ele><time>2026-04-22T07:22:24.873Z</time></trkpt><trkpt lat="45.4090241" lon="10.5398852"><ele>131.0</ele><time>2026-04-22T07:22:57.871Z</time></trkpt><trkpt lat="45.4089469" lon="10.5398273"><ele>131.66666666666669</ele><time>2026-04-22T07:23:30.878Z</time></trkpt><trkpt lat="45.4089887" lon="10.5397316"><ele>132.33333333333334</ele><time>2026-04-22T07:24:44.867Z</time></trkpt><trkpt lat="45.4089601" lon="10.5398759"><ele>133.0</ele><time>2026-04-22T07:25:02.871Z</time></trkpt><trkpt lat="45.4090067" lon="10.5397713"><ele>133.0</ele><time>2026-04-22T07:25:16.87Z</time></trkpt><trkpt lat="45.4091108" lon="10.5397087"><ele>133.0</ele><time>2026-04-22T07:26:05.877Z</time></trkpt><trkpt lat="45.4090444" lon="10.5396886"><ele>133.0</ele><time>2026-04-22T07:27:04.877Z</time></trkpt><trkpt lat="45.4089338" lon="10.5396885"><ele>133.0</ele><time>2026-04-22T07:27:27.873Z</time></trkpt><trkpt lat="45.4088476" lon="10.5396495"><ele>133.0</ele><time>2026-04-22T07:27:32.868Z</time></trkpt><trkpt lat="45.4088319" lon="10.5397389"><ele>133.0</ele><time>2026-04-22T07:28:45.871Z</time></trkpt><trkpt lat="45.4088464" lon="10.5398721"><ele>131.20000000000002</ele><time>2026-04-22T07:28:58.874Z</time></trkpt><trkpt lat="45.4088056" lon="10.5399581"><ele>129.4</ele><time>2026-04-22T07:29:15.871Z</time></trkpt><trkpt lat="45.4087456" lon="10.5400387"><ele>127.60000000000001</ele><time>2026-04-22T07:29:17.87Z</time></trkpt><trkpt lat="45.4086841" lon="10.5401255"><ele>125.80000000000001</ele><time>2026-04-22T07:29:18.868Z</time></trkpt><trkpt lat="45.4087521" lon="10.5400104"><ele>124.0</ele><time>2026-04-22T07:29:24.87Z</time></trkpt><trkpt lat="45.4088253" lon="10.5398896"><ele>124.83333333333334</ele><time>2026-04-22T07:29:25.867Z</time></trkpt><trkpt lat="45.4089449" lon="10.539911"><ele>125.66666666666667</ele><time>2026-04-22T07:29:38.878Z</time></trkpt><trkpt lat="45.4090158" lon="10.539844"><ele>126.5</ele><time>2026-04-22T07:30:35.876Z</time></trkpt><trkpt lat="45.4089842" lon="10.5397505"><ele>127.33333333333334</ele><time>2026-04-22T07:32:26.874Z</time></trkpt><trkpt lat="45.4089957" lon="10.5396576"><ele>128.16666666666666</ele><time>2026-04-22T07:32:28.874Z</time></trkpt><trkpt lat="45.4090213" lon="10.539514"><ele>129.0</ele><time>2026-04-22T07:32:33.868Z</time></trkpt><trkpt lat="45.408971" lon="10.5393854"><ele>129.0</ele><time>2026-04-22T07:32:59.874Z</time></trkpt><trkpt lat="45.40897" lon="10.5395233"><ele>129.0</ele><time>2026-04-22T07:36:46.878Z</time></trkpt><trkpt lat="45.4090528" lon="10.5394879"><ele>129.0</ele><time>2026-04-22T07:37:21.873Z</time></trkpt><trkpt lat="45.4091243" lon="10.5393848"><ele>129.0</ele><time>2026-04-22T07:37:56.866Z</time></trkpt><trkpt lat="45.4091662" lon="10.5393175"><ele>129.0</ele><time>2026-04-22T07:38:01.883Z</time></trkpt><trkpt lat="45.4091866" lon="10.5392254"><ele>129.0</ele><time>2026-04-22T07:38:07.878Z</time></trkpt><trkpt lat="45.4091902" lon="10.5393164"><ele>129.0</ele><time>2026-04-22T07:38:29.867Z</time></trkpt><trkpt lat="45.4091411" lon="10.5394484"><ele>129.0</ele><time>2026-04-22T07:38:44.874Z</time></trkpt><trkpt lat="45.4090867" lon="10.5395982"><ele>129.0</ele><time>2026-04-22T07:39:10.866Z</time></trkpt><trkpt lat="45.4090435" lon="10.5396968"><ele>129.0</ele><time>2026-04-22T07:39:23.875Z</time></trkpt><trkpt lat="45.4090085" lon="10.5397714"><ele>129.0</ele><time>2026-04-22T07:39:26.868Z</time></trkpt><trkpt lat="45.4089055" lon="10.539984"><ele>129.66666666666666</ele><time>2026-04-22T07:39:35.866Z</time></trkpt><trkpt lat="45.4088576" lon="10.5401004"><ele>130.33333333333334</ele><time>2026-04-22T07:39:40.865Z</time></trkpt><trkpt lat="45.4088581" lon="10.5402022"><ele>131.0</ele><time>2026-04-22T07:39:49.878Z</time></trkpt><trkpt lat="45.4087917" lon="10.5402041"><ele>131.66666666666669</ele><time>2026-04-22T07:43:48.869Z</time></trkpt><trkpt lat="45.4088308" lon="10.5401101"><ele>132.33333333333334</ele><time>2026-04-22T07:43:58.874Z</time></trkpt><trkpt lat="45.4088939" lon="10.5400112"><ele>133.0</ele><time>2026-04-22T07:44:12.869Z</time></trkpt><trkpt lat="45.4088802" lon="10.5401288"><ele>133.0</ele><time>2026-04-22T07:45:53.877Z</time></trkpt><trkpt lat="45.4088226" lon="10.5402151"><ele>133.0</ele><time>2026-04-22T07:45:56.868Z</time></trkpt><trkpt lat="45.408872" lon="10.5401189"><ele>133.0</ele><time>2026-04-22T07:46:11.872Z</time></trkpt><trkpt lat="45.4089817" lon="10.5399857"><ele>133.0</ele><time>2026-04-22T07:46:17.872Z</time></trkpt><trkpt lat="45.4090414" lon="10.5399454"><ele>133.0</ele><time>2026-04-22T07:46:20.881Z</time></trkpt><trkpt lat="45.4090517" lon="10.5398381"><ele>133.0</ele><time>2026-04-22T07:46:41.869Z</time></trkpt><trkpt lat="45.4089712" lon="10.5398133"><ele>133.0</ele><time>2026-04-22T07:47:22.877Z</time></trkpt><trkpt lat="45.4088681" lon="10.5397693"><ele>133.0</ele><time>2026-04-22T07:48:02.881Z</time></trkpt><trkpt lat="45.40892" lon="10.5396713"><ele>133.0</ele><time>2026-04-22T07:48:25.872Z</time></trkpt><trkpt lat="45.4088842" lon="10.5397728"><ele>133.0</ele><time>2026-04-22T07:49:13.865Z</time></trkpt><trkpt lat="45.4089457" lon="10.5396822"><ele>133.0</ele><time>2026-04-22T07:49:23.876Z</time></trkpt><trkpt lat="45.4089034" lon="10.5397736"><ele>133.0</ele><time>2026-04-22T07:49:31.878Z</time></trkpt><trkpt lat="45.4088258" lon="10.539844"><ele>133.0</ele><time>2026-04-22T07:49:48.869Z</time></trkpt><trkpt lat="45.4088662" lon="10.5399414"><ele>133.0</ele><time>2026-04-22T07:50:23.877Z</time></trkpt><trkpt lat="45.4089166" lon="10.5398553"><ele>133.0</ele><time>2026-04-22T07:50:43.869Z</time></trkpt><trkpt lat="45.4089462" lon="10.5397275"><ele>133.0</ele><time>2026-04-22T07:51:03.876Z</time></trkpt><trkpt lat="45.4090528" lon="10.5396603"><ele>133.0</ele><time>2026-04-22T07:51:35.878Z</time></trkpt><trkpt lat="45.4090051" lon="10.5398034"><ele>133.0</ele><time>2026-04-22T07:51:38.866Z</time></trkpt><trkpt lat="45.4089787" lon="10.5399492"><ele>133.0</ele><time>2026-04-22T07:51:44.878Z</time></trkpt><trkpt lat="45.4090435" lon="10.5399864"><ele>133.0</ele><time>2026-04-22T07:52:04.868Z</time></trkpt><trkpt lat="45.409108" lon="10.5398368"><ele>133.0</ele><time>2026-04-22T07:52:12.87Z</time></trkpt><trkpt lat="45.4090567" lon="10.5397802"><ele>133.0</ele><time>2026-04-22T07:53:05.879Z</time></trkpt><trkpt lat="45.4089684" lon="10.5398629"><ele>133.0</ele><time>2026-04-22T07:53:24.871Z</time></trkpt><trkpt lat="45.4089562" lon="10.5399975"><ele>133.0</ele><time>2026-04-22T07:53:58.866Z</time></trkpt><trkpt lat="45.4089167" lon="10.5400915"><ele>133.0</ele><time>2026-04-22T07:54:00.873Z</time></trkpt><trkpt lat="45.4089538" lon="10.5400068"><ele>133.0</ele><time>2026-04-22T07:54:23.869Z</time></trkpt><trkpt lat="45.408914" lon="10.5401088"><ele>133.0</ele><time>2026-04-22T07:54:39.866Z</time></trkpt><trkpt lat="45.4089162" lon="10.540219"><ele>133.0</ele><time>2026-04-22T07:55:42.87Z</time></trkpt><trkpt lat="45.4089803" lon="10.5401017"><ele>133.0</ele><time>2026-04-22T07:56:05.876Z</time></trkpt><trkpt lat="45.4090506" lon="10.5401114"><ele>133.0</ele><time>2026-04-22T07:56:44.868Z</time></trkpt><trkpt lat="45.4090444" lon="10.5402258"><ele>133.0</ele><time>2026-04-22T07:56:59.87Z</time></trkpt><trkpt lat="45.4090612" lon="10.5401153"><ele>133.0</ele><time>2026-04-22T07:57:11.869Z</time></trkpt><trkpt lat="45.4090825" lon="10.5400263"><ele>133.0</ele><time>2026-04-22T07:57:14.864Z</time></trkpt><trkpt lat="45.4090186" lon="10.5400226"><ele>133.0</ele><time>2026-04-22T07:57:24.875Z</time></trkpt><trkpt lat="45.4090487" lon="10.5399171"><ele>133.0</ele><time>2026-04-22T07:57:34.876Z</time></trkpt><trkpt lat="45.4090428" lon="10.5398025"><ele>133.0</ele><time>2026-04-22T07:58:08.868Z</time></trkpt><trkpt lat="45.4089554" lon="10.539712"><ele>133.0</ele><time>2026-04-22T07:58:34.867Z</time></trkpt><trkpt lat="45.4090415" lon="10.5396448"><ele>133.0</ele><time>2026-04-22T07:58:48.872Z</time></trkpt><trkpt lat="45.409098" lon="10.5397084"><ele>133.0</ele><time>2026-04-22T07:58:53.873Z</time></trkpt><trkpt lat="45.4090861" lon="10.5398304"><ele>133.0</ele><time>2026-04-22T07:59:09.873Z</time></trkpt><trkpt lat="45.4089719" lon="10.5399131"><ele>133.0</ele><time>2026-04-22T07:59:29.874Z</time></trkpt><trkpt lat="45.4089183" lon="10.5398263"><ele>133.0</ele><time>2026-04-22T07:59:52.872Z</time></trkpt><trkpt lat="45.4089467" lon="10.5397135"><ele>133.0</ele><time>2026-04-22T08:00:19.868Z</time></trkpt><trkpt lat="45.4089793" lon="10.5396353"><ele>133.0</ele><time>2026-04-22T08:00:21.87Z</time></trkpt><trkpt lat="45.4090495" lon="10.5394551"><ele>133.0</ele><time>2026-04-22T08:00:24.867Z</time></trkpt><trkpt lat="45.4089829" lon="10.539485"><ele>133.0</ele><time>2026-04-22T08:00:50.87Z</time></trkpt><trkpt lat="45.4089327" lon="10.5395734"><ele>133.0</ele><time>2026-04-22T08:01:02.875Z</time></trkpt><trkpt lat="45.4089949" lon="10.5396016"><ele>133.0</ele><time>2026-04-22T08:01:14.874Z</time></trkpt><trkpt lat="45.4089825" lon="10.5397127"><ele>133.0</ele><time>2026-04-22T08:01:38.878Z</time></trkpt><trkpt lat="45.4089166" lon="10.5398619"><ele>133.0</ele><time>2026-04-22T08:02:37.868Z</time></trkpt><trkpt lat="45.4089017" lon="10.5399633"><ele>133.0</ele><time>2026-04-22T08:02:59.874Z</time></trkpt><trkpt lat="45.4088496" lon="10.540049"><ele>133.0</ele><time>2026-04-22T08:03:00.873Z</time></trkpt><trkpt lat="45.408921" lon="10.5400408"><ele>133.0</ele><time>2026-04-22T08:03:18.867Z</time></trkpt><trkpt lat="45.4089787" lon="10.5399573"><ele>133.0</ele><time>2026-04-22T08:03:53.869Z</time></trkpt><trkpt lat="45.4089752" lon="10.5400521"><ele>133.0</ele><time>2026-04-22T08:05:28.867Z</time></trkpt><trkpt lat="45.4089612" lon="10.5399546"><ele>133.0</ele><time>2026-04-22T08:07:51.873Z</time></trkpt><trkpt lat="45.4089568" lon="10.5397881"><ele>133.0</ele><time>2026-04-22T08:09:30.875Z</time></trkpt><trkpt lat="45.409034" lon="10.5397073"><ele>133.0</ele><time>2026-04-22T08:10:04.867Z</time></trkpt><trkpt lat="45.4091265" lon="10.5396395"><ele>133.0</ele><time>2026-04-22T08:10:24.871Z</time></trkpt><trkpt lat="45.4092421" lon="10.5396035"><ele>133.0</ele><time>2026-04-22T08:10:44.884Z</time></trkpt><trkpt lat="45.4093027" lon="10.5395758"><ele>133.0</ele><time>2026-04-22T08:11:04.875Z</time></trkpt><trkpt lat="45.4093945" lon="10.5395046"><ele>133.0</ele><time>2026-04-22T08:11:32.871Z</time></trkpt><trkpt lat="45.4093194" lon="10.5395137"><ele>133.0</ele><time>2026-04-22T08:12:12.874Z</time></trkpt><trkpt lat="45.4092278" lon="10.5395619"><ele>133.0</ele><time>2026-04-22T08:13:12.87Z</time></trkpt><trkpt lat="45.409165" lon="10.5396406"><ele>133.0</ele><time>2026-04-22T08:13:13.866Z</time></trkpt><trkpt lat="45.4090559" lon="10.5397664"><ele>133.0</ele><time>2026-04-22T08:13:15.872Z</time></trkpt><trkpt lat="45.4089687" lon="10.5398506"><ele>133.0</ele><time>2026-04-22T08:13:19.867Z</time></trkpt><trkpt lat="45.4090201" lon="10.5397869"><ele>133.0</ele><time>2026-04-22T08:13:34.872Z</time></trkpt><trkpt lat="45.4090996" lon="10.5396305"><ele>133.0</ele><time>2026-04-22T08:14:04.868Z</time></trkpt><trkpt lat="45.4090159" lon="10.5396509"><ele>133.0</ele><time>2026-04-22T08:14:46.876Z</time></trkpt><trkpt lat="45.4089708" lon="10.5397642"><ele>133.0</ele><time>2026-04-22T08:15:27.874Z</time></trkpt><trkpt lat="45.4090494" lon="10.5397275"><ele>133.0</ele><time>2026-04-22T08:16:18.945Z</time></trkpt><trkpt lat="45.4089924" lon="10.5397969"><ele>133.0</ele><time>2026-04-22T08:17:38.874Z</time></trkpt><trkpt lat="45.4089916" lon="10.5397056"><ele>133.0</ele><time>2026-04-22T08:19:29.875Z</time></trkpt><trkpt lat="45.4089956" lon="10.5398041"><ele>133.0</ele><time>2026-04-22T08:20:00.867Z</time></trkpt><trkpt lat="45.4089576" lon="10.539897"><ele>133.0</ele><time>2026-04-22T08:20:06.867Z</time></trkpt><trkpt lat="45.4089975" lon="10.5398072"><ele>133.0</ele><time>2026-04-22T08:20:29.868Z</time></trkpt><trkpt lat="45.4090495" lon="10.5397196"><ele>133.0</ele><time>2026-04-22T08:20:47.865Z</time></trkpt><trkpt lat="45.4091177" lon="10.539645"><ele>133.0</ele><time>2026-04-22T08:21:08.873Z</time></trkpt><trkpt lat="45.409085" lon="10.5397438"><ele>133.0</ele><time>2026-04-22T08:21:12.867Z</time></trkpt><trkpt lat="45.408982" lon="10.5397523"><ele>133.0</ele><time>2026-04-22T08:21:49.877Z</time></trkpt><trkpt lat="45.4090934" lon="10.539733"><ele>133.0</ele><time>2026-04-22T08:23:01.872Z</time></trkpt><trkpt lat="45.4090269" lon="10.5397704"><ele>133.0</ele><time>2026-04-22T08:23:12.872Z</time></trkpt><trkpt lat="45.4089668" lon="10.5397997"><ele>133.0</ele><time>2026-04-22T08:23:17.872Z</time></trkpt><trkpt lat="45.4089075" lon="10.5398627"><ele>133.0</ele><time>2026-04-22T08:23:40.866Z</time></trkpt><trkpt lat="45.4089697" lon="10.5398003"><ele>133.0</ele><time>2026-04-22T08:25:19.879Z</time></trkpt><trkpt lat="45.409068" lon="10.5397487"><ele>133.0</ele><time>2026-04-22T08:25:31.876Z</time></trkpt><trkpt lat="45.408999" lon="10.5398047"><ele>133.0</ele><time>2026-04-22T08:25:51.869Z</time></trkpt><trkpt lat="45.4090793" lon="10.5397365"><ele>133.0</ele><time>2026-04-22T08:26:57.876Z</time></trkpt><trkpt lat="45.4090396" lon="10.5398322"><ele>133.0</ele><time>2026-04-22T08:27:53.88Z</time></trkpt><trkpt lat="45.4089654" lon="10.5399696"><ele>133.0</ele><time>2026-04-22T08:28:18.87Z</time></trkpt><trkpt lat="45.4090503" lon="10.539891"><ele>133.0</ele><time>2026-04-22T08:28:20.877Z</time></trkpt><trkpt lat="45.4091512" lon="10.5398062"><ele>133.0</ele><time>2026-04-22T08:28:26.871Z</time></trkpt><trkpt lat="45.4092116" lon="10.5397562"><ele>133.0</ele><time>2026-04-22T08:28:29.868Z</time></trkpt><trkpt lat="45.4092698" lon="10.5396519"><ele>133.0</ele><time>2026-04-22T08:28:48.869Z</time></trkpt><trkpt lat="45.4092664" lon="10.539527"><ele>133.0</ele><time>2026-04-22T08:28:58.869Z</time></trkpt><trkpt lat="45.409169" lon="10.5396011"><ele>133.0</ele><time>2026-04-22T08:29:10.867Z</time></trkpt><trkpt lat="45.4091053" lon="10.5396315"><ele>133.0</ele><time>2026-04-22T08:29:40.872Z</time></trkpt><trkpt lat="45.4091877" lon="10.5394923"><ele>133.0</ele><time>2026-04-22T08:31:29.867Z</time></trkpt><trkpt lat="45.4091398" lon="10.5395629"><ele>133.0</ele><time>2026-04-22T08:31:58.875Z</time></trkpt><trkpt lat="45.4090705" lon="10.5396556"><ele>133.0</ele><time>2026-04-22T08:32:45.868Z</time></trkpt><trkpt lat="45.4089795" lon="10.5397586"><ele>133.0</ele><time>2026-04-22T08:33:03.868Z</time></trkpt><trkpt lat="45.4090102" lon="10.5396773"><ele>133.0</ele><time>2026-04-22T08:33:08.868Z</time></trkpt><trkpt lat="45.4089383" lon="10.53967"><ele>133.0</ele><time>2026-04-22T08:33:23.866Z</time></trkpt><trkpt lat="45.4090252" lon="10.5396226"><ele>133.0</ele><time>2026-04-22T08:33:54.873Z</time></trkpt><trkpt lat="45.4090728" lon="10.5395607"><ele>133.0</ele><time>2026-04-22T08:33:58.867Z</time></trkpt><trkpt lat="45.4091486" lon="10.5395446"><ele>133.0</ele><time>2026-04-22T08:34:02.873Z</time></trkpt><trkpt lat="45.4092217" lon="10.5395263"><ele>133.0</ele><time>2026-04-22T08:34:04.867Z</time></trkpt><trkpt lat="45.4091525" lon="10.5395071"><ele>133.0</ele><time>2026-04-22T08:34:14.869Z</time></trkpt><trkpt lat="45.4090767" lon="10.539575"><ele>133.0</ele><time>2026-04-22T08:34:21.867Z</time></trkpt><trkpt lat="45.4090079" lon="10.5396229"><ele>133.0</ele><time>2026-04-22T08:34:22.867Z</time></trkpt><trkpt lat="45.4090195" lon="10.53953"><ele>133.0</ele><time>2026-04-22T08:34:30.867Z</time></trkpt><trkpt lat="45.4091105" lon="10.5395297"><ele>133.0</ele><time>2026-04-22T08:34:51.867Z</time></trkpt><trkpt lat="45.409168" lon="10.5394845"><ele>133.0</ele><time>2026-04-22T08:34:53.868Z</time></trkpt><trkpt lat="45.4092204" lon="10.5394284"><ele>133.0</ele><time>2026-04-22T08:34:56.876Z</time></trkpt><trkpt lat="45.4091053" lon="10.5395603"><ele>133.0</ele><time>2026-04-22T08:35:25.876Z</time></trkpt><trkpt lat="45.4092033" lon="10.5395027"><ele>133.0</ele><time>2026-04-22T08:35:38.868Z</time></trkpt><trkpt lat="45.4092818" lon="10.5395871"><ele>133.0</ele><time>2026-04-22T08:36:47.866Z</time></trkpt><trkpt lat="45.4092315" lon="10.5396866"><ele>133.0</ele><time>2026-04-22T08:37:06.866Z</time></trkpt><trkpt lat="45.4091787" lon="10.539745"><ele>133.0</ele><time>2026-04-22T08:37:08.873Z</time></trkpt><trkpt lat="45.4091163" lon="10.5397825"><ele>133.0</ele><time>2026-04-22T08:37:56.876Z</time></trkpt><trkpt lat="45.4090505" lon="10.5397653"><ele>133.0</ele><time>2026-04-22T08:38:28.873Z</time></trkpt><trkpt lat="45.4091055" lon="10.5396538"><ele>133.0</ele><time>2026-04-22T08:38:41.865Z</time></trkpt><trkpt lat="45.4092286" lon="10.5396577"><ele>133.0</ele><time>2026-04-22T08:38:48.868Z</time></trkpt><trkpt lat="45.4092908" lon="10.5396969"><ele>133.0</ele><time>2026-04-22T08:38:49.866Z</time></trkpt><trkpt lat="45.409343" lon="10.539769"><ele>133.0</ele><time>2026-04-22T08:38:51.867Z</time></trkpt><trkpt lat="45.4093609" lon="10.5399018"><ele>133.0</ele><time>2026-04-22T08:39:03.868Z</time></trkpt><trkpt lat="45.4092877" lon="10.540058"><ele>133.0</ele><time>2026-04-22T08:39:18.87Z</time></trkpt><trkpt lat="45.4092227" lon="10.5399734"><ele>133.0</ele><time>2026-04-22T08:39:30.866Z</time></trkpt><trkpt lat="45.4091888" lon="10.5398795"><ele>133.0</ele><time>2026-04-22T08:39:45.866Z</time></trkpt><trkpt lat="45.409128" lon="10.5400065"><ele>133.0</ele><time>2026-04-22T08:39:55.867Z</time></trkpt><trkpt lat="45.4090903" lon="10.5399087"><ele>133.0</ele><time>2026-04-22T08:40:34.875Z</time></trkpt><trkpt lat="45.4090617" lon="10.5397567"><ele>133.0</ele><time>2026-04-22T08:41:36.872Z</time></trkpt><trkpt lat="45.4090084" lon="10.539668"><ele>133.0</ele><time>2026-04-22T08:41:37.865Z</time></trkpt><trkpt lat="45.4089409" lon="10.5396163"><ele>133.0</ele><time>2026-04-22T08:41:40.866Z</time></trkpt><trkpt lat="45.4088913" lon="10.5395598"><ele>133.0</ele><time>2026-04-22T08:41:44.875Z</time></trkpt><trkpt lat="45.4088793" lon="10.5394668"><ele>133.0</ele><time>2026-04-22T08:41:48.871Z</time></trkpt><trkpt lat="45.4089086" lon="10.5396156"><ele>133.0</ele><time>2026-04-22T08:42:02.857Z</time></trkpt><trkpt lat="45.4089331" lon="10.5397556"><ele>133.0</ele><time>2026-04-22T08:43:03.873Z</time></trkpt><trkpt lat="45.4090251" lon="10.5396958"><ele>133.0</ele><time>2026-04-22T08:43:10.871Z</time></trkpt><trkpt lat="45.4090713" lon="10.539631"><ele>133.0</ele><time>2026-04-22T08:43:13.873Z</time></trkpt><trkpt lat="45.4091268" lon="10.5395409"><ele>133.0</ele><time>2026-04-22T08:43:24.875Z</time></trkpt><trkpt lat="45.4091742" lon="10.5394764"><ele>133.0</ele><time>2026-04-22T08:43:26.867Z</time></trkpt><trkpt lat="45.4092259" lon="10.5393618"><ele>133.0</ele><time>2026-04-22T08:43:59.856Z</time></trkpt><trkpt lat="45.4091577" lon="10.5394768"><ele>133.0</ele><time>2026-04-22T08:45:40.873Z</time></trkpt><trkpt lat="45.4090762" lon="10.5396429"><ele>133.0</ele><time>2026-04-22T08:45:57.867Z</time></trkpt><trkpt lat="45.4090444" lon="10.5397342"><ele>133.0</ele><time>2026-04-22T08:46:49.871Z</time></trkpt><trkpt lat="45.4089829" lon="10.5397696"><ele>133.0</ele><time>2026-04-22T08:46:59.866Z</time></trkpt><trkpt lat="45.4089786" lon="10.5396441"><ele>133.0</ele><time>2026-04-22T08:47:25.875Z</time></trkpt><trkpt lat="45.409002" lon="10.5395148"><ele>133.0</ele><time>2026-04-22T08:47:29.869Z</time></trkpt><trkpt lat="45.4090949" lon="10.539403"><ele>133.0</ele><time>2026-04-22T08:47:34.874Z</time></trkpt><trkpt lat="45.409128" lon="10.5394837"><ele>133.0</ele><time>2026-04-22T08:47:40.868Z</time></trkpt><trkpt lat="45.4091574" lon="10.5395638"><ele>133.0</ele><time>2026-04-22T08:47:58.884Z</time></trkpt><trkpt lat="45.4091316" lon="10.5396808"><ele>133.0</ele><time>2026-04-22T08:48:01.871Z</time></trkpt><trkpt lat="45.4090723" lon="10.5396429"><ele>133.0</ele><time>2026-04-22T08:48:10.868Z</time></trkpt><trkpt lat="45.4090175" lon="10.5395946"><ele>133.0</ele><time>2026-04-22T08:48:26.87Z</time></trkpt><trkpt lat="45.4089709" lon="10.539722"><ele>133.0</ele><time>2026-04-22T08:48:31.873Z</time></trkpt><trkpt lat="45.4090261" lon="10.5399048"><ele>133.0</ele><time>2026-04-22T08:48:47.046Z</time></trkpt><trkpt lat="45.4091961" lon="10.5399181"><ele>133.0</ele><time>2026-04-22T08:49:49.867Z</time></trkpt><trkpt lat="45.4091322" lon="10.5398731"><ele>133.0</ele><time>2026-04-22T08:49:51.867Z</time></trkpt><trkpt lat="45.4090511" lon="10.5398605"><ele>133.0</ele><time>2026-04-22T08:49:53.868Z</time></trkpt><trkpt lat="45.4089824" lon="10.5397987"><ele>133.0</ele><time>2026-04-22T08:49:58.865Z</time></trkpt><trkpt lat="45.4088857" lon="10.5398063"><ele>133.0</ele><time>2026-04-22T08:50:04.873Z</time></trkpt><trkpt lat="45.4089218" lon="10.5397255"><ele>133.0</ele><time>2026-04-22T08:50:20.868Z</time></trkpt><trkpt lat="45.4089844" lon="10.5396514"><ele>133.0</ele><time>2026-04-22T08:50:38.866Z</time></trkpt><trkpt lat="45.4089859" lon="10.5394982"><ele>133.0</ele><time>2026-04-22T08:50:58.874Z</time></trkpt><trkpt lat="45.4089578" lon="10.5396067"><ele>133.0</ele><time>2026-04-22T08:51:20.869Z</time></trkpt><trkpt lat="45.4089294" lon="10.5397054"><ele>133.0</ele><time>2026-04-22T08:51:21.867Z</time></trkpt><trkpt lat="45.4088603" lon="10.5398406"><ele>133.0</ele><time>2026-04-22T08:51:30.877Z</time></trkpt><trkpt lat="45.4088085" lon="10.5398949"><ele>133.0</ele><time>2026-04-22T08:51:32.871Z</time></trkpt><trkpt lat="45.4087553" lon="10.5400693"><ele>133.0</ele><time>2026-04-22T08:51:47.867Z</time></trkpt><trkpt lat="45.4090278" lon="10.5399049"><ele>133.0</ele><time>2026-04-22T08:52:51.406Z</time></trkpt><trkpt lat="45.4089169" lon="10.5398418"><ele>133.0</ele><time>2026-04-22T08:53:16.86Z</time></trkpt><trkpt lat="45.4088471" lon="10.5399079"><ele>133.0</ele><time>2026-04-22T08:53:27.873Z</time></trkpt><trkpt lat="45.408921" lon="10.5398986"><ele>133.0</ele><time>2026-04-22T08:53:32.868Z</time></trkpt><trkpt lat="45.4089901" lon="10.5398427"><ele>133.0</ele><time>2026-04-22T08:53:44.872Z</time></trkpt><trkpt lat="45.4090781" lon="10.53974"><ele>133.0</ele><time>2026-04-22T08:53:46.867Z</time></trkpt><trkpt lat="45.409093" lon="10.5396499"><ele>133.0</ele><time>2026-04-22T08:54:58.866Z</time></trkpt><trkpt lat="45.4091016" lon="10.5397652"><ele>133.0</ele><time>2026-04-22T08:55:11.868Z</time></trkpt><trkpt lat="45.4090268" lon="10.5398277"><ele>133.0</ele><time>2026-04-22T08:55:15.865Z</time></trkpt><trkpt lat="45.4090769" lon="10.5397517"><ele>133.0</ele><time>2026-04-22T08:56:20.866Z</time></trkpt><trkpt lat="45.4090466" lon="10.5396529"><ele>133.0</ele><time>2026-04-22T08:56:43.874Z</time></trkpt><trkpt lat="45.4089746" lon="10.5396747"><ele>133.0</ele><time>2026-04-22T08:56:48.867Z</time></trkpt><trkpt lat="45.4089127" lon="10.5397566"><ele>133.0</ele><time>2026-04-22T08:56:58.864Z</time></trkpt><trkpt lat="45.4088645" lon="10.5399098"><ele>133.0</ele><time>2026-04-22T08:57:09.864Z</time></trkpt><trkpt lat="45.4088076" lon="10.5398499"><ele>133.0</ele><time>2026-04-22T08:59:36.867Z</time></trkpt><trkpt lat="45.4087222" lon="10.5399108"><ele>133.0</ele><time>2026-04-22T08:59:48.871Z</time></trkpt><trkpt lat="45.4086475" lon="10.5399804"><ele>131.5</ele><time>2026-04-22T08:59:54.968Z</time></trkpt><trkpt lat="45.4085431" lon="10.5399846"><ele>130.0</ele><time>2026-04-22T09:00:07.873Z</time></trkpt><trkpt lat="45.4085265" lon="10.5400832"><ele>128.5</ele><time>2026-04-22T09:00:14.875Z</time></trkpt><trkpt lat="45.4084288" lon="10.5400817"><ele>127.0</ele><time>2026-04-22T09:01:34.864Z</time></trkpt><trkpt lat="45.4084885" lon="10.5400195"><ele>125.50000000000001</ele><time>2026-04-22T09:02:46.868Z</time></trkpt><trkpt lat="45.4085726" lon="10.5399476"><ele>124.0</ele><time>2026-04-22T09:03:16.863Z</time></trkpt><trkpt lat="45.4086398" lon="10.5398972"><ele>124.0</ele><time>2026-04-22T09:03:19.878Z</time></trkpt><trkpt lat="45.4086896" lon="10.5398076"><ele>124.0</ele><time>2026-04-22T09:03:21.86Z</time></trkpt><trkpt lat="45.4087052" lon="10.5396986"><ele>124.0</ele><time>2026-04-22T09:03:26.869Z</time></trkpt><trkpt lat="45.4087746" lon="10.5396328"><ele>124.0</ele><time>2026-04-22T09:03:33.864Z</time></trkpt><trkpt lat="45.4089039" lon="10.5395473"><ele>124.0</ele><time>2026-04-22T09:03:49.863Z</time></trkpt><trkpt lat="45.4089901" lon="10.539419"><ele>125.0</ele><time>2026-04-22T09:04:11.873Z</time></trkpt><trkpt lat="45.4090977" lon="10.5394623"><ele>126.0</ele><time>2026-04-22T09:04:21.867Z</time></trkpt><trkpt lat="45.4091652" lon="10.5395924"><ele>127.0</ele><time>2026-04-22T09:04:44.864Z</time></trkpt><trkpt lat="45.4092789" lon="10.5395721"><ele>128.0</ele><time>2026-04-22T09:04:59.871Z</time></trkpt><trkpt lat="45.4092443" lon="10.5394845"><ele>129.0</ele><time>2026-04-22T09:05:45.872Z</time></trkpt><trkpt lat="45.4091874" lon="10.5395232"><ele>129.0</ele><time>2026-04-22T09:06:00.871Z</time></trkpt><trkpt lat="45.4091224" lon="10.5395738"><ele>129.0</ele><time>2026-04-22T09:06:14.874Z</time></trkpt><trkpt lat="45.4091244" lon="10.5394513"><ele>129.0</ele><time>2026-04-22T09:06:21.873Z</time></trkpt><trkpt lat="45.4091504" lon="10.539545"><ele>129.0</ele><time>2026-04-22T09:07:07.867Z</time></trkpt><trkpt lat="45.4091651" lon="10.5394473"><ele>129.0</ele><time>2026-04-22T09:07:42.868Z</time></trkpt><trkpt lat="45.4091663" lon="10.5395414"><ele>129.0</ele><time>2026-04-22T09:08:34.867Z</time></trkpt><trkpt lat="45.4090946" lon="10.5396443"><ele>130.0</ele><time>2026-04-22T09:08:46.882Z</time></trkpt><trkpt lat="45.4092038" lon="10.5396639"><ele>131.0</ele><time>2026-04-22T09:09:01.872Z</time></trkpt><trkpt lat="45.4092829" lon="10.5395965"><ele>132.0</ele><time>2026-04-22T09:09:03.86Z</time></trkpt><trkpt lat="45.4091768" lon="10.5397241"><ele>133.0</ele><time>2026-04-22T09:09:30.866Z</time></trkpt><trkpt lat="45.4090635" lon="10.5398471"><ele>133.0</ele><time>2026-04-22T09:09:42.866Z</time></trkpt><trkpt lat="45.4089702" lon="10.5399869"><ele>133.0</ele><time>2026-04-22T09:10:02.865Z</time></trkpt><trkpt lat="45.4089141" lon="10.5399333"><ele>133.0</ele><time>2026-04-22T09:10:14.875Z</time></trkpt><trkpt lat="45.4089659" lon="10.539852"><ele>133.0</ele><time>2026-04-22T09:11:42.869Z</time></trkpt><trkpt lat="45.4090455" lon="10.5397225"><ele>133.0</ele><time>2026-04-22T09:12:29.864Z</time></trkpt><trkpt lat="45.4090618" lon="10.539822"><ele>133.0</ele><time>2026-04-22T09:13:21.87Z</time></trkpt><trkpt lat="45.4091453" lon="10.5397835"><ele>133.0</ele><time>2026-04-22T09:15:40.872Z</time></trkpt><trkpt lat="45.4091831" lon="10.5396741"><ele>133.0</ele><time>2026-04-22T09:16:23.865Z</time></trkpt><trkpt lat="45.409116" lon="10.5396998"><ele>133.0</ele><time>2026-04-22T09:17:15.868Z</time></trkpt><trkpt lat="45.4091117" lon="10.5398125"><ele>133.0</ele><time>2026-04-22T09:20:10.874Z</time></trkpt><trkpt lat="45.4091615" lon="10.539746"><ele>133.0</ele><time>2026-04-22T09:21:16.862Z</time></trkpt><trkpt lat="45.4092334" lon="10.5396175"><ele>133.0</ele><time>2026-04-22T09:22:33.867Z</time></trkpt><trkpt lat="45.4091625" lon="10.5395983"><ele>133.0</ele><time>2026-04-22T09:23:29.864Z</time></trkpt><trkpt lat="45.4090651" lon="10.5397098"><ele>133.0</ele><time>2026-04-22T09:23:41.874Z</time></trkpt><trkpt lat="45.40894" lon="10.5398262"><ele>133.0</ele><time>2026-04-22T09:24:00.866Z</time></trkpt><trkpt lat="45.4090277" lon="10.539702"><ele>133.0</ele><time>2026-04-22T09:24:58.862Z</time></trkpt><trkpt lat="45.4091442" lon="10.5395961"><ele>133.0</ele><time>2026-04-22T09:25:32.87Z</time></trkpt><trkpt lat="45.4090723" lon="10.53968"><ele>133.0</ele><time>2026-04-22T09:25:53.866Z</time></trkpt><trkpt lat="45.4090132" lon="10.5397982"><ele>133.0</ele><time>2026-04-22T09:26:02.864Z</time></trkpt><trkpt lat="45.4089696" lon="10.5398689"><ele>133.0</ele><time>2026-04-22T09:26:03.863Z</time></trkpt><trkpt lat="45.4088845" lon="10.5399927"><ele>133.0</ele><time>2026-04-22T09:26:09.864Z</time></trkpt><trkpt lat="45.4089746" lon="10.5399218"><ele>133.0</ele><time>2026-04-22T09:26:37.869Z</time></trkpt><trkpt lat="45.4090877" lon="10.539834"><ele>133.0</ele><time>2026-04-22T09:26:52.864Z</time></trkpt><trkpt lat="45.4090211" lon="10.5398178"><ele>133.0</ele><time>2026-04-22T09:28:03.865Z</time></trkpt><trkpt lat="45.408942" lon="10.5397904"><ele>133.0</ele><time>2026-04-22T09:28:27.863Z</time></trkpt><trkpt lat="45.4088306" lon="10.5398788"><ele>131.20000000000002</ele><time>2026-04-22T09:28:36.864Z</time></trkpt><trkpt lat="45.4087478" lon="10.5400222"><ele>129.4</ele><time>2026-04-22T09:29:01.868Z</time></trkpt><trkpt lat="45.4088162" lon="10.5399762"><ele>127.60000000000001</ele><time>2026-04-22T09:29:55.875Z</time></trkpt><trkpt lat="45.4087784" lon="10.5400577"><ele>125.80000000000001</ele><time>2026-04-22T09:30:58.867Z</time></trkpt><trkpt lat="45.4086695" lon="10.5402167"><ele>124.0</ele><time>2026-04-22T09:31:03.863Z</time></trkpt><trkpt lat="45.4087129" lon="10.5401269"><ele>124.0</ele><time>2026-04-22T09:31:42.873Z</time></trkpt><trkpt lat="45.4087986" lon="10.5400158"><ele>124.0</ele><time>2026-04-22T09:32:00.867Z</time></trkpt><trkpt lat="45.408696" lon="10.5401087"><ele>124.0</ele><time>2026-04-22T09:32:16.864Z</time></trkpt><trkpt lat="45.4086208" lon="10.5402156"><ele>124.0</ele><time>2026-04-22T09:32:17.864Z</time></trkpt><trkpt lat="45.4087165" lon="10.5401791"><ele>124.0</ele><time>2026-04-22T09:32:38.871Z</time></trkpt><trkpt lat="45.4088233" lon="10.5400979"><ele>125.80000000000001</ele><time>2026-04-22T09:32:47.871Z</time></trkpt><trkpt lat="45.4088783" lon="10.5400298"><ele>127.60000000000001</ele><time>2026-04-22T09:32:49.866Z</time></trkpt><trkpt lat="45.4089543" lon="10.5399266"><ele>129.4</ele><time>2026-04-22T09:32:54.869Z</time></trkpt><trkpt lat="45.4088701" lon="10.5400891"><ele>131.20000000000002</ele><time>2026-04-22T09:33:43.874Z</time></trkpt><trkpt lat="45.408903" lon="10.5399711"><ele>133.0</ele><time>2026-04-22T09:34:09.865Z</time></trkpt><trkpt lat="45.4088285" lon="10.5399391"><ele>131.71428571428572</ele><time>2026-04-22T09:34:54.874Z</time></trkpt><trkpt lat="45.408763" lon="10.5399518"><ele>130.42857142857144</ele><time>2026-04-22T09:34:56.868Z</time></trkpt><trkpt lat="45.4087753" lon="10.5398539"><ele>129.14285714285714</ele><time>2026-04-22T09:35:28.87Z</time></trkpt><trkpt lat="45.4087159" lon="10.5399042"><ele>127.85714285714286</ele><time>2026-04-22T09:36:16.866Z</time></trkpt><trkpt lat="45.4086544" lon="10.539959"><ele>126.57142857142858</ele><time>2026-04-22T09:36:23.869Z</time></trkpt><trkpt lat="45.4086606" lon="10.5400673"><ele>125.28571428571429</ele><time>2026-04-22T09:36:53.864Z</time></trkpt><trkpt lat="45.4085937" lon="10.5401383"><ele>124.0</ele><time>2026-04-22T09:36:55.871Z</time></trkpt><trkpt lat="45.4086648" lon="10.5400913"><ele>124.00000000000001</ele><time>2026-04-22T09:37:04.872Z</time></trkpt><trkpt lat="45.4087154" lon="10.5400368"><ele>124.0</ele><time>2026-04-22T09:37:06.874Z</time></trkpt><trkpt lat="45.4087821" lon="10.539957"><ele>124.0</ele><time>2026-04-22T09:37:14.869Z</time></trkpt><trkpt lat="45.4088508" lon="10.5398677"><ele>124.0</ele><time>2026-04-22T09:37:17.867Z</time></trkpt><trkpt lat="45.4089028" lon="10.5398028"><ele>124.00000000000001</ele><time>2026-04-22T09:37:19.865Z</time></trkpt><trkpt lat="45.4090061" lon="10.5396879"><ele>124.0</ele><time>2026-04-22T09:37:38.869Z</time></trkpt><trkpt lat="45.4090148" lon="10.539576"><ele>125.50000000000001</ele><time>2026-04-22T09:38:34.873Z</time></trkpt><trkpt lat="45.4090456" lon="10.5396623"><ele>127.0</ele><time>2026-04-22T09:39:07.872Z</time></trkpt><trkpt lat="45.4091546" lon="10.5397363"><ele>128.5</ele><time>2026-04-22T09:39:19.869Z</time></trkpt><trkpt lat="45.4091979" lon="10.5398434"><ele>130.0</ele><time>2026-04-22T09:39:22.874Z</time></trkpt><trkpt lat="45.4092368" lon="10.5399528"><ele>131.5</ele><time>2026-04-22T09:39:25.87Z</time></trkpt><trkpt lat="45.4091795" lon="10.5400168"><ele>133.0</ele><time>2026-04-22T09:39:46.871Z</time></trkpt><trkpt lat="45.4091029" lon="10.5399264"><ele>133.0</ele><time>2026-04-22T09:40:02.871Z</time></trkpt><trkpt lat="45.4090243" lon="10.5398113"><ele>133.0</ele><time>2026-04-22T09:40:37.876Z</time></trkpt><trkpt lat="45.4089978" lon="10.5396918"><ele>133.0</ele><time>2026-04-22T09:41:15.867Z</time></trkpt><trkpt lat="45.4090993" lon="10.5396344"><ele>133.0</ele><time>2026-04-22T09:42:40.872Z</time></trkpt><trkpt lat="45.409078" lon="10.5397381"><ele>133.0</ele><time>2026-04-22T09:44:21.866Z</time></trkpt><trkpt lat="45.4090483" lon="10.539888"><ele>133.0</ele><time>2026-04-22T09:45:16.862Z</time></trkpt><trkpt lat="45.4090005" lon="10.5399609"><ele>133.0</ele><time>2026-04-22T09:45:28.873Z</time></trkpt><trkpt lat="45.408996" lon="10.5398489"><ele>133.0</ele><time>2026-04-22T09:45:44.868Z</time></trkpt><trkpt lat="45.4089265" lon="10.5398333"><ele>133.0</ele><time>2026-04-22T09:46:13.864Z</time></trkpt><trkpt lat="45.4088969" lon="10.5399775"><ele>133.0</ele><time>2026-04-22T09:46:36.867Z</time></trkpt><trkpt lat="45.4088569" lon="10.5401472"><ele>133.0</ele><time>2026-04-22T09:46:53.862Z</time></trkpt><trkpt lat="45.4089169" lon="10.5400679"><ele>133.0</ele><time>2026-04-22T09:47:15.873Z</time></trkpt><trkpt lat="45.4090105" lon="10.5399421"><ele>133.0</ele><time>2026-04-22T09:47:25.871Z</time></trkpt><trkpt lat="45.4090756" lon="10.5398051"><ele>133.0</ele><time>2026-04-22T09:47:56.875Z</time></trkpt><trkpt lat="45.4090991" lon="10.5396904"><ele>133.0</ele><time>2026-04-22T09:49:11.87Z</time></trkpt><trkpt lat="45.4090433" lon="10.539763"><ele>133.0</ele><time>2026-04-22T09:50:44.343Z</time></trkpt><trkpt lat="45.4090938" lon="10.5396722"><ele>133.0</ele><time>2026-04-22T09:51:53.874Z</time></trkpt><trkpt lat="45.4090814" lon="10.5397998"><ele>133.0</ele><time>2026-04-22T09:52:06.872Z</time></trkpt><trkpt lat="45.4090348" lon="10.5399427"><ele>133.0</ele><time>2026-04-22T09:52:19.864Z</time></trkpt><trkpt lat="45.4090867" lon="10.53989"><ele>133.0</ele><time>2026-04-22T09:52:48.872Z</time></trkpt><trkpt lat="45.4091268" lon="10.5397905"><ele>133.0</ele><time>2026-04-22T09:52:49.873Z</time></trkpt><trkpt lat="45.409191" lon="10.5396516"><ele>133.0</ele><time>2026-04-22T09:52:57.867Z</time></trkpt><trkpt lat="45.4092337" lon="10.5395827"><ele>133.0</ele><time>2026-04-22T09:53:00.865Z</time></trkpt><trkpt lat="45.4092953" lon="10.5394978"><ele>133.0</ele><time>2026-04-22T09:53:11.874Z</time></trkpt><trkpt lat="45.4092037" lon="10.5396223"><ele>133.0</ele><time>2026-04-22T09:53:18.867Z</time></trkpt><trkpt lat="45.4090834" lon="10.5397987"><ele>133.0</ele><time>2026-04-22T09:53:59.872Z</time></trkpt><trkpt lat="45.4090243" lon="10.5398756"><ele>133.0</ele><time>2026-04-22T09:54:00.869Z</time></trkpt><trkpt lat="45.4090836" lon="10.5398122"><ele>133.0</ele><time>2026-04-22T09:54:22.863Z</time></trkpt><trkpt lat="45.409145" lon="10.539725"><ele>133.0</ele><time>2026-04-22T09:54:43.866Z</time></trkpt><trkpt lat="45.4092055" lon="10.539659"><ele>133.0</ele><time>2026-04-22T09:54:44.863Z</time></trkpt><trkpt lat="45.4092677" lon="10.5395851"><ele>133.0</ele><time>2026-04-22T09:54:46.866Z</time></trkpt><trkpt lat="45.4093427" lon="10.5394747"><ele>133.0</ele><time>2026-04-22T09:54:58.875Z</time></trkpt><trkpt lat="45.4093021" lon="10.53955"><ele>133.0</ele><time>2026-04-22T09:55:24.872Z</time></trkpt><trkpt lat="45.4092349" lon="10.5396761"><ele>133.0</ele><time>2026-04-22T09:55:43.865Z</time></trkpt><trkpt lat="45.4092474" lon="10.5395875"><ele>133.0</ele><time>2026-04-22T09:56:17.854Z</time></trkpt><trkpt lat="45.4093294" lon="10.53954"><ele>133.0</ele><time>2026-04-22T09:56:52.877Z</time></trkpt><trkpt lat="45.4092619" lon="10.5395871"><ele>133.0</ele><time>2026-04-22T09:57:08.872Z</time></trkpt><trkpt lat="45.4093332" lon="10.5394741"><ele>133.0</ele><time>2026-04-22T09:57:40.863Z</time></trkpt><trkpt lat="45.4094356" lon="10.5393903"><ele>133.0</ele><time>2026-04-22T09:57:52.861Z</time></trkpt><trkpt lat="45.4095195" lon="10.5393321"><ele>133.0</ele><time>2026-04-22T09:57:59.874Z</time></trkpt><trkpt lat="45.4094453" lon="10.5394548"><ele>133.0</ele><time>2026-04-22T09:58:33.864Z</time></trkpt><trkpt lat="45.4093867" lon="10.5395156"><ele>133.0</ele><time>2026-04-22T09:58:35.859Z</time></trkpt><trkpt lat="45.4091979" lon="10.53966"><ele>133.0</ele><time>2026-04-22T09:58:40.871Z</time></trkpt><trkpt lat="45.4091357" lon="10.5397155"><ele>133.0</ele><time>2026-04-22T09:58:41.862Z</time></trkpt><trkpt lat="45.4092076" lon="10.5397061"><ele>133.0</ele><time>2026-04-22T09:58:50.865Z</time></trkpt><trkpt lat="45.4093204" lon="10.5396355"><ele>133.0</ele><time>2026-04-22T09:58:58.866Z</time></trkpt><trkpt lat="45.4092574" lon="10.5395959"><ele>133.0</ele><time>2026-04-22T09:59:12.877Z</time></trkpt><trkpt lat="45.4091194" lon="10.5396036"><ele>132.33333333333334</ele><time>2026-04-22T09:59:34.877Z</time></trkpt><trkpt lat="45.4090214" lon="10.5395242"><ele>131.66666666666669</ele><time>2026-04-22T10:00:01.873Z</time></trkpt><trkpt lat="45.4090867" lon="10.5394583"><ele>131.0</ele><time>2026-04-22T10:00:37.866Z</time></trkpt><trkpt lat="45.4091527" lon="10.5394222"><ele>130.33333333333334</ele><time>2026-04-22T10:00:38.867Z</time></trkpt><trkpt lat="45.4092412" lon="10.5393739"><ele>129.66666666666666</ele><time>2026-04-22T10:00:40.875Z</time></trkpt><trkpt lat="45.4093109" lon="10.5393372"><ele>129.0</ele><time>2026-04-22T10:00:46.865Z</time></trkpt><trkpt lat="45.4094136" lon="10.5394124"><ele>129.0</ele><time>2026-04-22T10:00:58.877Z</time></trkpt><trkpt lat="45.4093125" lon="10.5394822"><ele>129.0</ele><time>2026-04-22T10:01:06.868Z</time></trkpt><trkpt lat="45.4092434" lon="10.5395354"><ele>129.0</ele><time>2026-04-22T10:01:29.869Z</time></trkpt><trkpt lat="45.4091822" lon="10.5395772"><ele>129.0</ele><time>2026-04-22T10:01:31.875Z</time></trkpt><trkpt lat="45.4091117" lon="10.5396405"><ele>129.0</ele><time>2026-04-22T10:01:33.864Z</time></trkpt><trkpt lat="45.4090258" lon="10.53971"><ele>129.0</ele><time>2026-04-22T10:01:35.872Z</time></trkpt><trkpt lat="45.4089324" lon="10.5397641"><ele>129.0</ele><time>2026-04-22T10:01:37.868Z</time></trkpt><trkpt lat="45.4088463" lon="10.5398092"><ele>129.0</ele><time>2026-04-22T10:01:39.873Z</time></trkpt><trkpt lat="45.4088935" lon="10.5397373"><ele>129.0</ele><time>2026-04-22T10:01:50.865Z</time></trkpt><trkpt lat="45.4089477" lon="10.5396699"><ele>129.0</ele><time>2026-04-22T10:01:52.863Z</time></trkpt><trkpt lat="45.4089989" lon="10.5395655"><ele>129.0</ele><time>2026-04-22T10:01:59.863Z</time></trkpt><trkpt lat="45.4090675" lon="10.5393965"><ele>129.0</ele><time>2026-04-22T10:02:11.871Z</time></trkpt><trkpt lat="45.409115" lon="10.5394679"><ele>129.0</ele><time>2026-04-22T10:02:28.868Z</time></trkpt><trkpt lat="45.4090706" lon="10.5395812"><ele>129.0</ele><time>2026-04-22T10:02:38.874Z</time></trkpt><trkpt lat="45.4091346" lon="10.5394936"><ele>129.0</ele><time>2026-04-22T10:03:51.872Z</time></trkpt><trkpt lat="45.4090955" lon="10.5395809"><ele>129.0</ele><time>2026-04-22T10:04:23.874Z</time></trkpt><trkpt lat="45.4090253" lon="10.5396186"><ele>129.0</ele><time>2026-04-22T10:04:26.865Z</time></trkpt><trkpt lat="45.4089695" lon="10.5396985"><ele>129.66666666666666</ele><time>2026-04-22T10:04:38.875Z</time></trkpt><trkpt lat="45.4089531" lon="10.5398122"><ele>130.33333333333334</ele><time>2026-04-22T10:04:59.864Z</time></trkpt><trkpt lat="45.4088999" lon="10.5398634"><ele>131.0</ele><time>2026-04-22T10:05:01.874Z</time></trkpt><trkpt lat="45.4088255" lon="10.5399162"><ele>131.66666666666669</ele><time>2026-04-22T10:05:04.869Z</time></trkpt><trkpt lat="45.4088861" lon="10.5398839"><ele>132.33333333333334</ele><time>2026-04-22T10:05:38.866Z</time></trkpt><trkpt lat="45.4089677" lon="10.5398144"><ele>133.0</ele><time>2026-04-22T10:05:40.869Z</time></trkpt><trkpt lat="45.4090443" lon="10.5397452"><ele>133.0</ele><time>2026-04-22T10:05:42.874Z</time></trkpt><trkpt lat="45.4089869" lon="10.5396844"><ele>133.0</ele><time>2026-04-22T10:06:10.874Z</time></trkpt><trkpt lat="45.4088579" lon="10.5397547"><ele>133.0</ele><time>2026-04-22T10:06:21.863Z</time></trkpt><trkpt lat="45.4089385" lon="10.5397578"><ele>133.0</ele><time>2026-04-22T10:06:54.864Z</time></trkpt><trkpt lat="45.40889" lon="10.53982"><ele>133.0</ele><time>2026-04-22T10:08:03.873Z</time></trkpt><trkpt lat="45.4089604" lon="10.5397591"><ele>133.0</ele><time>2026-04-22T10:08:13.863Z</time></trkpt><trkpt lat="45.4090422" lon="10.5396876"><ele>133.0</ele><time>2026-04-22T10:08:15.864Z</time></trkpt><trkpt lat="45.4091457" lon="10.5396277"><ele>133.0</ele><time>2026-04-22T10:08:17.873Z</time></trkpt><trkpt lat="45.4092523" lon="10.5395662"><ele>133.0</ele><time>2026-04-22T10:08:19.873Z</time></trkpt><trkpt lat="45.4093468" lon="10.5394887"><ele>133.0</ele><time>2026-04-22T10:08:22.863Z</time></trkpt><trkpt lat="45.4092391" lon="10.5395168"><ele>133.0</ele><time>2026-04-22T10:09:06.875Z</time></trkpt><trkpt lat="45.4091741" lon="10.5396189"><ele>133.0</ele><time>2026-04-22T10:09:53.866Z</time></trkpt><trkpt lat="45.409107" lon="10.5396357"><ele>133.0</ele><time>2026-04-22T10:10:30.867Z</time></trkpt><trkpt lat="45.4089889" lon="10.5397602"><ele>133.0</ele><time>2026-04-22T10:10:35.873Z</time></trkpt><trkpt lat="45.409068" lon="10.5397763"><ele>133.0</ele><time>2026-04-22T10:11:26.867Z</time></trkpt><trkpt lat="45.4091655" lon="10.5397035"><ele>133.0</ele><time>2026-04-22T10:11:31.865Z</time></trkpt><trkpt lat="45.409234" lon="10.5396522"><ele>133.0</ele><time>2026-04-22T10:11:34.872Z</time></trkpt><trkpt lat="45.4091687" lon="10.5396558"><ele>133.0</ele><time>2026-04-22T10:11:44.876Z</time></trkpt><trkpt lat="45.4092615" lon="10.5396033"><ele>133.0</ele><time>2026-04-22T10:12:09.867Z</time></trkpt><trkpt lat="45.4093806" lon="10.5395217"><ele>133.0</ele><time>2026-04-22T10:12:42.871Z</time></trkpt><trkpt lat="45.4094809" lon="10.5394457"><ele>133.0</ele><time>2026-04-22T10:12:44.862Z</time></trkpt><trkpt lat="45.4095391" lon="10.5394004"><ele>133.0</ele><time>2026-04-22T10:12:45.862Z</time></trkpt><trkpt lat="45.4095967" lon="10.5393618"><ele>133.0</ele><time>2026-04-22T10:12:49.868Z</time></trkpt><trkpt lat="45.4096829" lon="10.5392891"><ele>133.0</ele><time>2026-04-22T10:12:56.869Z</time></trkpt><trkpt lat="45.4097583" lon="10.53925"><ele>133.0</ele><time>2026-04-22T10:13:01.865Z</time></trkpt><trkpt lat="45.4098773" lon="10.539172"><ele>133.0</ele><time>2026-04-22T10:13:02.859Z</time></trkpt><trkpt lat="45.4099687" lon="10.5391014"><ele>133.0</ele><time>2026-04-22T10:13:03.869Z</time></trkpt><trkpt lat="45.4100318" lon="10.5390539"><ele>133.0</ele><time>2026-04-22T10:13:04.866Z</time></trkpt><trkpt lat="45.4101102" lon="10.538982"><ele>133.0</ele><time>2026-04-22T10:13:07.864Z</time></trkpt><trkpt lat="45.4101668" lon="10.5389336"><ele>133.0</ele><time>2026-04-22T10:13:09.865Z</time></trkpt><trkpt lat="45.410221" lon="10.5388777"><ele>133.0</ele><time>2026-04-22T10:14:00.867Z</time></trkpt><trkpt lat="45.4101326" lon="10.5389176"><ele>133.0</ele><time>2026-04-22T10:14:12.863Z</time></trkpt><trkpt lat="45.4100483" lon="10.5389959"><ele>133.0</ele><time>2026-04-22T10:14:29.863Z</time></trkpt><trkpt lat="45.4099864" lon="10.5390512"><ele>133.0</ele><time>2026-04-22T10:15:27.866Z</time></trkpt><trkpt lat="45.4097383" lon="10.5392288"><ele>133.0</ele><time>2026-04-22T10:15:33.869Z</time></trkpt><trkpt lat="45.4096098" lon="10.5393267"><ele>133.0</ele><time>2026-04-22T10:15:34.863Z</time></trkpt><trkpt lat="45.4095226" lon="10.539394"><ele>133.0</ele><time>2026-04-22T10:15:35.863Z</time></trkpt><trkpt lat="45.4094587" lon="10.5394405"><ele>133.0</ele><time>2026-04-22T10:15:37.869Z</time></trkpt><trkpt lat="45.4093893" lon="10.5394888"><ele>133.0</ele><time>2026-04-22T10:15:43.873Z</time></trkpt><trkpt lat="45.4092836" lon="10.5395696"><ele>133.0</ele><time>2026-04-22T10:16:18.869Z</time></trkpt><trkpt lat="45.4092205" lon="10.5396142"><ele>133.0</ele><time>2026-04-22T10:16:21.863Z</time></trkpt><trkpt lat="45.4091349" lon="10.5396532"><ele>133.0</ele><time>2026-04-22T10:16:39.873Z</time></trkpt><trkpt lat="45.4092268" lon="10.5396358"><ele>133.0</ele><time>2026-04-22T10:17:19.867Z</time></trkpt><trkpt lat="45.4091342" lon="10.5396959"><ele>133.0</ele><time>2026-04-22T10:17:22.876Z</time></trkpt><trkpt lat="45.4090642" lon="10.5397191"><ele>133.0</ele><time>2026-04-22T10:17:30.874Z</time></trkpt><trkpt lat="45.409017" lon="10.5397887"><ele>133.0</ele><time>2026-04-22T10:19:35.864Z</time></trkpt><trkpt lat="45.4089375" lon="10.5398377"><ele>133.0</ele><time>2026-04-22T10:20:02.862Z</time></trkpt><trkpt lat="45.4088217" lon="10.5399005"><ele>133.0</ele><time>2026-04-22T10:20:32.864Z</time></trkpt><trkpt lat="45.4087567" lon="10.5399217"><ele>133.0</ele><time>2026-04-22T10:23:22.868Z</time></trkpt><trkpt lat="45.4086935" lon="10.5399369"><ele>133.0</ele><time>2026-04-22T10:23:25.866Z</time></trkpt><trkpt lat="45.408607" lon="10.5399466"><ele>133.0</ele><time>2026-04-22T10:23:51.867Z</time></trkpt><trkpt lat="45.4086915" lon="10.5399871"><ele>133.0</ele><time>2026-04-22T10:25:49.866Z</time></trkpt><trkpt lat="45.4088093" lon="10.5399908"><ele>133.0</ele><time>2026-04-22T10:25:54.87Z</time></trkpt><trkpt lat="45.4089087" lon="10.5399925"><ele>131.20000000000002</ele><time>2026-04-22T10:25:57.868Z</time></trkpt><trkpt lat="45.4088221" lon="10.5400345"><ele>129.4</ele><time>2026-04-22T10:26:23.863Z</time></trkpt><trkpt lat="45.4087311" lon="10.5400595"><ele>127.60000000000001</ele><time>2026-04-22T10:26:25.87Z</time></trkpt><trkpt lat="45.4086636" lon="10.5400588"><ele>125.80000000000001</ele><time>2026-04-22T10:26:29.871Z</time></trkpt><trkpt lat="45.4085775" lon="10.540008"><ele>124.0</ele><time>2026-04-22T10:27:11.86Z</time></trkpt><trkpt lat="45.408466" lon="10.5400668"><ele>124.0</ele><time>2026-04-22T10:27:25.872Z</time></trkpt><trkpt lat="45.4085553" lon="10.5400869"><ele>124.0</ele><time>2026-04-22T10:28:03.863Z</time></trkpt><trkpt lat="45.4086362" lon="10.540053"><ele>124.0</ele><time>2026-04-22T10:28:47.872Z</time></trkpt><trkpt lat="45.4087352" lon="10.5400082"><ele>124.0</ele><time>2026-04-22T10:28:49.863Z</time></trkpt><trkpt lat="45.4088728" lon="10.5400204"><ele>124.0</ele><time>2026-04-22T10:29:13.864Z</time></trkpt><trkpt lat="45.4089697" lon="10.5399648"><ele>125.80000000000001</ele><time>2026-04-22T10:29:20.868Z</time></trkpt><trkpt lat="45.409063" lon="10.5399248"><ele>127.60000000000001</ele><time>2026-04-22T10:29:33.873Z</time></trkpt><trkpt lat="45.4091739" lon="10.5399095"><ele>129.4</ele><time>2026-04-22T10:29:47.864Z</time></trkpt><trkpt lat="45.4092783" lon="10.539905"><ele>131.20000000000002</ele><time>2026-04-22T10:29:51.874Z</time></trkpt><trkpt lat="45.4093767" lon="10.5398716"><ele>133.0</ele><time>2026-04-22T10:29:58.868Z</time></trkpt><trkpt lat="45.4094621" lon="10.5398531"><ele>133.0</ele><time>2026-04-22T10:30:00.871Z</time></trkpt><trkpt lat="45.4095325" lon="10.5398476"><ele>133.0</ele><time>2026-04-22T10:30:04.871Z</time></trkpt><trkpt lat="45.4095996" lon="10.5397837"><ele>133.0</ele><time>2026-04-22T10:30:11.86Z</time></trkpt><trkpt lat="45.409525" lon="10.5397483"><ele>133.0</ele><time>2026-04-22T10:30:42.863Z</time></trkpt><trkpt lat="45.4094367" lon="10.5397552"><ele>133.0</ele><time>2026-04-22T10:30:43.863Z</time></trkpt><trkpt lat="45.409353" lon="10.5397683"><ele>133.0</ele><time>2026-04-22T10:30:45.865Z</time></trkpt><trkpt lat="45.4092458" lon="10.5398129"><ele>133.0</ele><time>2026-04-22T10:30:50.864Z</time></trkpt><trkpt lat="45.4091862" lon="10.539851"><ele>133.0</ele><time>2026-04-22T10:30:51.863Z</time></trkpt><trkpt lat="45.4090827" lon="10.5399138"><ele>133.0</ele><time>2026-04-22T10:30:53.864Z</time></trkpt><trkpt lat="45.4090225" lon="10.5399607"><ele>133.0</ele><time>2026-04-22T10:30:56.87Z</time></trkpt><trkpt lat="45.4090595" lon="10.5398879"><ele>133.0</ele><time>2026-04-22T10:31:43.866Z</time></trkpt><trkpt lat="45.4091264" lon="10.539814"><ele>133.0</ele><time>2026-04-22T10:31:59.869Z</time></trkpt><trkpt lat="45.4091991" lon="10.5397833"><ele>133.0</ele><time>2026-04-22T10:32:02.867Z</time></trkpt><trkpt lat="45.4092648" lon="10.5397563"><ele>133.0</ele><time>2026-04-22T10:33:41.859Z</time></trkpt><trkpt lat="45.4093508" lon="10.5398109"><ele>133.0</ele><time>2026-04-22T10:34:08.872Z</time></trkpt><trkpt lat="45.409432" lon="10.5397943"><ele>133.0</ele><time>2026-04-22T10:34:09.863Z</time></trkpt><trkpt lat="45.4093668" lon="10.5398212"><ele>133.0</ele><time>2026-04-22T10:34:19.867Z</time></trkpt><trkpt lat="45.4093998" lon="10.5397333"><ele>133.0</ele><time>2026-04-22T10:34:53.863Z</time></trkpt><trkpt lat="45.4093318" lon="10.5397766"><ele>133.0</ele><time>2026-04-22T10:35:06.871Z</time></trkpt><trkpt lat="45.4092266" lon="10.5398502"><ele>133.0</ele><time>2026-04-22T10:35:12.864Z</time></trkpt><trkpt lat="45.4091642" lon="10.5398831"><ele>133.0</ele><time>2026-04-22T10:35:13.866Z</time></trkpt><trkpt lat="45.4090927" lon="10.5399044"><ele>133.0</ele><time>2026-04-22T10:35:15.869Z</time></trkpt><trkpt lat="45.4090026" lon="10.5399264"><ele>133.0</ele><time>2026-04-22T10:35:19.861Z</time></trkpt><trkpt lat="45.4088648" lon="10.5399193"><ele>133.0</ele><time>2026-04-22T10:35:33.866Z</time></trkpt><trkpt lat="45.4087822" lon="10.539928"><ele>133.0</ele><time>2026-04-22T10:35:36.862Z</time></trkpt><trkpt lat="45.4088465" lon="10.5398766"><ele>133.0</ele><time>2026-04-22T10:35:52.865Z</time></trkpt><trkpt lat="45.4089259" lon="10.5398207"><ele>133.0</ele><time>2026-04-22T10:35:55.86Z</time></trkpt><trkpt lat="45.4088455" lon="10.5398442"><ele>133.0</ele><time>2026-04-22T10:36:05.868Z</time></trkpt><trkpt lat="45.4087794" lon="10.5397548"><ele>133.0</ele><time>2026-04-22T10:37:01.874Z</time></trkpt><trkpt lat="45.4089457" lon="10.539781"><ele>133.0</ele><time>2026-04-22T10:37:57.869Z</time></trkpt><trkpt lat="45.4090737" lon="10.5398172"><ele>133.0</ele><time>2026-04-22T10:38:14.876Z</time></trkpt><trkpt lat="45.4091691" lon="10.5397708"><ele>133.0</ele><time>2026-04-22T10:39:14.861Z</time></trkpt><trkpt lat="45.4091686" lon="10.5396345"><ele>133.0</ele><time>2026-04-22T10:39:38.862Z</time></trkpt><trkpt lat="45.4091458" lon="10.539735"><ele>133.0</ele><time>2026-04-22T10:39:47.862Z</time></trkpt><trkpt lat="45.4091702" lon="10.5398391"><ele>133.0</ele><time>2026-04-22T10:39:49.861Z</time></trkpt><trkpt lat="45.4091655" lon="10.5399632"><ele>133.0</ele><time>2026-04-22T10:40:16.869Z</time></trkpt><trkpt lat="45.4091798" lon="10.5398455"><ele>133.0</ele><time>2026-04-22T10:40:30.877Z</time></trkpt><trkpt lat="45.4091351" lon="10.5397017"><ele>133.0</ele><time>2026-04-22T10:40:46.862Z</time></trkpt><trkpt lat="45.4090308" lon="10.5395563"><ele>133.0</ele><time>2026-04-22T10:40:52.863Z</time></trkpt><trkpt lat="45.4089853" lon="10.5394827"><ele>133.0</ele><time>2026-04-22T10:40:55.871Z</time></trkpt><trkpt lat="45.4089325" lon="10.5395702"><ele>133.0</ele><time>2026-04-22T10:41:10.862Z</time></trkpt><trkpt lat="45.4088547" lon="10.5396146"><ele>133.0</ele><time>2026-04-22T10:41:19.869Z</time></trkpt><trkpt lat="45.4088717" lon="10.5397167"><ele>133.0</ele><time>2026-04-22T10:42:20.872Z</time></trkpt><trkpt lat="45.4087945" lon="10.5397448"><ele>133.0</ele><time>2026-04-22T10:42:21.863Z</time></trkpt><trkpt lat="45.4088602" lon="10.5397683"><ele>133.0</ele><time>2026-04-22T10:42:52.875Z</time></trkpt><trkpt lat="45.4089595" lon="10.5397401"><ele>133.0</ele><time>2026-04-22T10:46:29.869Z</time></trkpt><trkpt lat="45.4090805" lon="10.5397238"><ele>133.0</ele><time>2026-04-22T10:46:48.871Z</time></trkpt><trkpt lat="45.4091617" lon="10.5397326"><ele>133.0</ele><time>2026-04-22T10:47:42.862Z</time></trkpt><trkpt lat="45.4092678" lon="10.5397533"><ele>133.0</ele><time>2026-04-22T10:47:56.864Z</time></trkpt><trkpt lat="45.4093888" lon="10.5396806"><ele>133.0</ele><time>2026-04-22T10:48:15.871Z</time></trkpt><trkpt lat="45.4093233" lon="10.5396667"><ele>133.0</ele><time>2026-04-22T10:49:53.873Z</time></trkpt><trkpt lat="45.4092515" lon="10.5397089"><ele>133.0</ele><time>2026-04-22T10:49:54.874Z</time></trkpt><trkpt lat="45.409181" lon="10.5397036"><ele>133.0</ele><time>2026-04-22T10:51:14.867Z</time></trkpt><trkpt lat="45.4091155" lon="10.5397812"><ele>133.0</ele><time>2026-04-22T10:51:43.863Z</time></trkpt><trkpt lat="45.4089947" lon="10.5398091"><ele>133.0</ele><time>2026-04-22T10:52:02.865Z</time></trkpt><trkpt lat="45.4090524" lon="10.5398698"><ele>133.0</ele><time>2026-04-22T10:52:35.861Z</time></trkpt><trkpt lat="45.4091286" lon="10.5398438"><ele>133.0</ele><time>2026-04-22T10:52:58.863Z</time></trkpt><trkpt lat="45.4091774" lon="10.5399015"><ele>133.0</ele><time>2026-04-22T10:55:14.871Z</time></trkpt><trkpt lat="45.4090516" lon="10.5399391"><ele>133.0</ele><time>2026-04-22T10:55:43.871Z</time></trkpt><trkpt lat="45.4091229" lon="10.5399007"><ele>133.0</ele><time>2026-04-22T10:56:31.865Z</time></trkpt><trkpt lat="45.4092288" lon="10.5398638"><ele>133.0</ele><time>2026-04-22T10:56:42.865Z</time></trkpt><trkpt lat="45.4091977" lon="10.5397399"><ele>133.0</ele><time>2026-04-22T10:57:27.86Z</time></trkpt><trkpt lat="45.4091266" lon="10.5397975"><ele>133.0</ele><time>2026-04-22T10:58:26.871Z</time></trkpt><trkpt lat="45.409067" lon="10.5398373"><ele>133.0</ele><time>2026-04-22T10:58:29.869Z</time></trkpt><trkpt lat="45.4089875" lon="10.5398735"><ele>133.0</ele><time>2026-04-22T10:58:40.861Z</time></trkpt><trkpt lat="45.4089036" lon="10.5399156"><ele>133.0</ele><time>2026-04-22T10:58:43.874Z</time></trkpt><trkpt lat="45.4088283" lon="10.539953"><ele>133.0</ele><time>2026-04-22T10:58:48.859Z</time></trkpt><trkpt lat="45.4087471" lon="10.5399925"><ele>133.0</ele><time>2026-04-22T10:59:25.875Z</time></trkpt><trkpt lat="45.4088151" lon="10.539954"><ele>133.0</ele><time>2026-04-22T10:59:39.864Z</time></trkpt><trkpt lat="45.4089221" lon="10.5398662"><ele>133.0</ele><time>2026-04-22T10:59:49.871Z</time></trkpt><trkpt lat="45.4090401" lon="10.5397575"><ele>133.0</ele><time>2026-04-22T11:00:08.873Z</time></trkpt><trkpt lat="45.4091081" lon="10.5397456"><ele>133.0</ele><time>2026-04-22T11:02:56.864Z</time></trkpt><trkpt lat="45.4091724" lon="10.5396569"><ele>133.0</ele><time>2026-04-22T11:03:56.865Z</time></trkpt><trkpt lat="45.4092272" lon="10.5397264"><ele>133.0</ele><time>2026-04-22T11:05:40.869Z</time></trkpt><trkpt lat="45.4091725" lon="10.5398025"><ele>133.0</ele><time>2026-04-22T11:05:52.863Z</time></trkpt><trkpt lat="45.4090986" lon="10.5397829"><ele>133.0</ele><time>2026-04-22T11:07:05.864Z</time></trkpt><trkpt lat="45.4090295" lon="10.5398528"><ele>133.0</ele><time>2026-04-22T11:08:02.864Z</time></trkpt><trkpt lat="45.4091076" lon="10.5398022"><ele>133.0</ele><time>2026-04-22T11:08:58.863Z</time></trkpt><trkpt lat="45.4090055" lon="10.5398539"><ele>133.0</ele><time>2026-04-22T11:09:42.86Z</time></trkpt><trkpt lat="45.4090788" lon="10.5398711"><ele>133.0</ele><time>2026-04-22T11:09:55.864Z</time></trkpt><trkpt lat="45.4090259" lon="10.5397902"><ele>133.0</ele><time>2026-04-22T11:10:24.86Z</time></trkpt><trkpt lat="45.4089452" lon="10.5398249"><ele>133.0</ele><time>2026-04-22T11:10:44.86Z</time></trkpt><trkpt lat="45.4088433" lon="10.5398564"><ele>133.0</ele><time>2026-04-22T11:10:47.858Z</time></trkpt><trkpt lat="45.4087819" lon="10.5399019"><ele>133.0</ele><time>2026-04-22T11:10:49.871Z</time></trkpt><trkpt lat="45.4087384" lon="10.5399731"><ele>133.0</ele><time>2026-04-22T11:10:51.869Z</time></trkpt><trkpt lat="45.408854" lon="10.5399757"><ele>133.0</ele><time>2026-04-22T11:10:58.865Z</time></trkpt><trkpt lat="45.4089367" lon="10.5399615"><ele>133.0</ele><time>2026-04-22T11:11:20.86Z</time></trkpt><trkpt lat="45.4089886" lon="10.5398798"><ele>133.0</ele><time>2026-04-22T11:11:32.861Z</time></trkpt><trkpt lat="45.4089182" lon="10.5398424"><ele>133.0</ele><time>2026-04-22T11:11:52.862Z</time></trkpt><trkpt lat="45.4088522" lon="10.5398433"><ele>133.0</ele><time>2026-04-22T11:11:55.869Z</time></trkpt><trkpt lat="45.408772" lon="10.5398953"><ele>133.0</ele><time>2026-04-22T11:12:00.861Z</time></trkpt><trkpt lat="45.40888" lon="10.5398956"><ele>133.0</ele><time>2026-04-22T11:12:48.859Z</time></trkpt><trkpt lat="45.4089411" lon="10.539918"><ele>133.0</ele><time>2026-04-22T11:12:52.865Z</time></trkpt><trkpt lat="45.4090282" lon="10.5399392"><ele>133.0</ele><time>2026-04-22T11:13:00.863Z</time></trkpt><trkpt lat="45.4091344" lon="10.5399585"><ele>133.0</ele><time>2026-04-22T11:13:15.875Z</time></trkpt><trkpt lat="45.4091999" lon="10.5399975"><ele>133.0</ele><time>2026-04-22T11:13:19.869Z</time></trkpt><trkpt lat="45.4092803" lon="10.540029"><ele>133.0</ele><time>2026-04-22T11:13:32.863Z</time></trkpt><trkpt lat="45.4094009" lon="10.540071"><ele>133.0</ele><time>2026-04-22T11:13:41.868Z</time></trkpt><trkpt lat="45.4094643" lon="10.5400893"><ele>133.0</ele><time>2026-04-22T11:13:44.859Z</time></trkpt><trkpt lat="45.4095356" lon="10.5401065"><ele>133.0</ele><time>2026-04-22T11:13:45.858Z</time></trkpt><trkpt lat="45.4094432" lon="10.5400751"><ele>133.0</ele><time>2026-04-22T11:14:02.863Z</time></trkpt><trkpt lat="45.4093502" lon="10.5400378"><ele>133.0</ele><time>2026-04-22T11:14:08.867Z</time></trkpt><trkpt lat="45.4093971" lon="10.5399209"><ele>133.0</ele><time>2026-04-22T11:14:31.866Z</time></trkpt><trkpt lat="45.4094736" lon="10.5399054"><ele>133.0</ele><time>2026-04-22T11:14:33.863Z</time></trkpt><trkpt lat="45.4095537" lon="10.5398967"><ele>133.0</ele><time>2026-04-22T11:14:50.862Z</time></trkpt><trkpt lat="45.4093533" lon="10.5399156"><ele>133.0</ele><time>2026-04-22T11:14:55.87Z</time></trkpt><trkpt lat="45.4092154" lon="10.5399179"><ele>133.0</ele><time>2026-04-22T11:14:56.868Z</time></trkpt><trkpt lat="45.4091182" lon="10.5399127"><ele>133.0</ele><time>2026-04-22T11:14:58.863Z</time></trkpt><trkpt lat="45.4090404" lon="10.5398955"><ele>133.0</ele><time>2026-04-22T11:15:01.877Z</time></trkpt><trkpt lat="45.4089713" lon="10.5399116"><ele>133.0</ele><time>2026-04-22T11:15:05.86Z</time></trkpt><trkpt lat="45.4089029" lon="10.5398397"><ele>133.0</ele><time>2026-04-22T11:15:46.861Z</time></trkpt><trkpt lat="45.4090019" lon="10.539927"><ele>133.0</ele><time>2026-04-22T11:15:58.866Z</time></trkpt><trkpt lat="45.4090927" lon="10.5398179"><ele>133.0</ele><time>2026-04-22T11:16:26.864Z</time></trkpt><trkpt lat="45.4092253" lon="10.5397334"><ele>133.0</ele><time>2026-04-22T11:16:36.862Z</time></trkpt><trkpt lat="45.4093451" lon="10.5396748"><ele>133.0</ele><time>2026-04-22T11:16:49.866Z</time></trkpt><trkpt lat="45.4094071" lon="10.5395862"><ele>133.0</ele><time>2026-04-22T11:18:11.86Z</time></trkpt><trkpt lat="45.4094711" lon="10.5395444"><ele>133.0</ele><time>2026-04-22T11:18:18.866Z</time></trkpt><trkpt lat="45.4094134" lon="10.5395997"><ele>133.0</ele><time>2026-04-22T11:18:29.863Z</time></trkpt><trkpt lat="45.4093447" lon="10.5396041"><ele>133.0</ele><time>2026-04-22T11:18:45.862Z</time></trkpt><trkpt lat="45.4092545" lon="10.5397276"><ele>133.0</ele><time>2026-04-22T11:19:48.86Z</time></trkpt><trkpt lat="45.4093612" lon="10.5397395"><ele>133.0</ele><time>2026-04-22T11:20:18.866Z</time></trkpt><trkpt lat="45.4094109" lon="10.5396507"><ele>133.0</ele><time>2026-04-22T11:20:56.861Z</time></trkpt><trkpt lat="45.4092882" lon="10.5397246"><ele>133.0</ele><time>2026-04-22T11:21:39.867Z</time></trkpt><trkpt lat="45.4092117" lon="10.53982"><ele>133.0</ele><time>2026-04-22T11:21:59.86Z</time></trkpt><trkpt lat="45.409167" lon="10.5398909"><ele>133.0</ele><time>2026-04-22T11:22:02.859Z</time></trkpt><trkpt lat="45.4090982" lon="10.5399425"><ele>133.0</ele><time>2026-04-22T11:22:04.868Z</time></trkpt><trkpt lat="45.4089749" lon="10.5400135"><ele>133.0</ele><time>2026-04-22T11:22:08.858Z</time></trkpt><trkpt lat="45.4090768" lon="10.5399345"><ele>133.0</ele><time>2026-04-22T11:22:16.862Z</time></trkpt><trkpt lat="45.4091541" lon="10.5398971"><ele>133.0</ele><time>2026-04-22T11:22:18.86Z</time></trkpt><trkpt lat="45.4092766" lon="10.539825"><ele>133.0</ele><time>2026-04-22T11:22:27.857Z</time></trkpt><trkpt lat="45.4093377" lon="10.5397569"><ele>133.0</ele><time>2026-04-22T11:22:29.866Z</time></trkpt><trkpt lat="45.4093953" lon="10.5397108"><ele>133.0</ele><time>2026-04-22T11:22:31.866Z</time></trkpt><trkpt lat="45.4094478" lon="10.5396511"><ele>133.0</ele><time>2026-04-22T11:23:01.874Z</time></trkpt><trkpt lat="45.4093815" lon="10.5397039"><ele>133.0</ele><time>2026-04-22T11:23:18.869Z</time></trkpt><trkpt lat="45.4093342" lon="10.5397709"><ele>133.0</ele><time>2026-04-22T11:24:05.793Z</time></trkpt><trkpt lat="45.4092189" lon="10.5397598"><ele>133.0</ele><time>2026-04-22T11:24:16.87Z</time></trkpt><trkpt lat="45.40913" lon="10.539768"><ele>133.0</ele><time>2026-04-22T11:24:21.861Z</time></trkpt><trkpt lat="45.409034" lon="10.5398096"><ele>133.0</ele><time>2026-04-22T11:24:44.857Z</time></trkpt><trkpt lat="45.4091791" lon="10.5397528"><ele>133.0</ele><time>2026-04-22T11:26:34.866Z</time></trkpt><trkpt lat="45.4093155" lon="10.5396534"><ele>132.20000000000002</ele><time>2026-04-22T11:26:44.867Z</time></trkpt><trkpt lat="45.4094287" lon="10.5395471"><ele>131.4</ele><time>2026-04-22T11:26:59.871Z</time></trkpt><trkpt lat="45.4095267" lon="10.5394576"><ele>130.60000000000002</ele><time>2026-04-22T11:28:06.859Z</time></trkpt><trkpt lat="45.4095603" lon="10.5393439"><ele>129.8</ele><time>2026-04-22T11:28:17.864Z</time></trkpt><trkpt lat="45.4094826" lon="10.5393524"><ele>129.0</ele><time>2026-04-22T11:28:40.863Z</time></trkpt><trkpt lat="45.4094012" lon="10.539511"><ele>129.8</ele><time>2026-04-22T11:28:48.861Z</time></trkpt><trkpt lat="45.4094291" lon="10.5396114"><ele>130.60000000000002</ele><time>2026-04-22T11:28:59.866Z</time></trkpt><trkpt lat="45.4095231" lon="10.5396897"><ele>131.4</ele><time>2026-04-22T11:29:17.871Z</time></trkpt><trkpt lat="45.4094475" lon="10.5396827"><ele>132.20000000000002</ele><time>2026-04-22T11:31:28.871Z</time></trkpt><trkpt lat="45.4093344" lon="10.5397434"><ele>133.0</ele><time>2026-04-22T11:31:44.864Z</time></trkpt><trkpt lat="45.4092253" lon="10.5397981"><ele>133.0</ele><time>2026-04-22T11:32:01.872Z</time></trkpt><trkpt lat="45.4091206" lon="10.5398278"><ele>133.0</ele><time>2026-04-22T11:32:20.864Z</time></trkpt><trkpt lat="45.4090499" lon="10.5399751"><ele>133.0</ele><time>2026-04-22T11:36:33.871Z</time></trkpt><trkpt lat="45.4089399" lon="10.5399498"><ele>133.0</ele><time>2026-04-22T11:37:19.863Z</time></trkpt><trkpt lat="45.4090346" lon="10.539923"><ele>133.0</ele><time>2026-04-22T11:37:38.862Z</time></trkpt><trkpt lat="45.4089565" lon="10.5399217"><ele>133.0</ele><time>2026-04-22T11:37:50.863Z</time></trkpt><trkpt lat="45.4088921" lon="10.5399135"><ele>133.0</ele><time>2026-04-22T11:38:32.859Z</time></trkpt><trkpt lat="45.4087549" lon="10.5399068"><ele>133.0</ele><time>2026-04-22T11:38:47.871Z</time></trkpt><trkpt lat="45.4086899" lon="10.5399119"><ele>133.0</ele><time>2026-04-22T11:38:51.861Z</time></trkpt><trkpt lat="45.4087446" lon="10.539847"><ele>133.0</ele><time>2026-04-22T11:38:57.862Z</time></trkpt><trkpt lat="45.4088329" lon="10.5397894"><ele>133.0</ele><time>2026-04-22T11:39:18.866Z</time></trkpt><trkpt lat="45.4088988" lon="10.5397601"><ele>133.0</ele><time>2026-04-22T11:39:20.87Z</time></trkpt><trkpt lat="45.4090249" lon="10.5397077"><ele>133.0</ele><time>2026-04-22T11:39:37.876Z</time></trkpt><trkpt lat="45.4091299" lon="10.5397218"><ele>133.0</ele><time>2026-04-22T11:39:57.865Z</time></trkpt><trkpt lat="45.4092584" lon="10.5397266"><ele>133.0</ele><time>2026-04-22T11:40:21.868Z</time></trkpt><trkpt lat="45.4092197" lon="10.539799"><ele>133.0</ele><time>2026-04-22T11:40:53.862Z</time></trkpt><trkpt lat="45.4091008" lon="10.5398428"><ele>133.0</ele><time>2026-04-22T11:41:24.861Z</time></trkpt><trkpt lat="45.4090201" lon="10.5398574"><ele>133.0</ele><time>2026-04-22T11:41:26.858Z</time></trkpt><trkpt lat="45.4089571" lon="10.5398661"><ele>133.0</ele><time>2026-04-22T11:41:28.861Z</time></trkpt><trkpt lat="45.4088793" lon="10.5398822"><ele>133.0</ele><time>2026-04-22T11:41:32.861Z</time></trkpt><trkpt lat="45.4087991" lon="10.539924"><ele>133.0</ele><time>2026-04-22T11:42:39.862Z</time></trkpt><trkpt lat="45.4088721" lon="10.5399176"><ele>133.0</ele><time>2026-04-22T11:43:52.861Z</time></trkpt><trkpt lat="45.4089595" lon="10.5398661"><ele>133.0</ele><time>2026-04-22T11:44:30.862Z</time></trkpt><trkpt lat="45.4088881" lon="10.5398496"><ele>133.0</ele><time>2026-04-22T11:45:02.868Z</time></trkpt><trkpt lat="45.4088024" lon="10.5398456"><ele>133.0</ele><time>2026-04-22T11:45:04.864Z</time></trkpt><trkpt lat="45.4088711" lon="10.5398633"><ele>133.0</ele><time>2026-04-22T11:45:40.864Z</time></trkpt><trkpt lat="45.4089615" lon="10.5398275"><ele>133.0</ele><time>2026-04-22T11:48:16.871Z</time></trkpt><trkpt lat="45.4090892" lon="10.5398157"><ele>133.0</ele><time>2026-04-22T11:49:27.87Z</time></trkpt><trkpt lat="45.4091265" lon="10.5397396"><ele>133.0</ele><time>2026-04-22T11:51:26.865Z</time></trkpt><trkpt lat="45.4091338" lon="10.539636"><ele>133.0</ele><time>2026-04-22T11:54:28.871Z</time></trkpt><trkpt lat="45.4090992" lon="10.5397205"><ele>133.0</ele><time>2026-04-22T11:55:08.87Z</time></trkpt><trkpt lat="45.4090203" lon="10.5397801"><ele>133.0</ele><time>2026-04-22T11:55:24.864Z</time></trkpt><trkpt lat="45.4089074" lon="10.5397848"><ele>133.0</ele><time>2026-04-22T11:56:34.874Z</time></trkpt><trkpt lat="45.4089696" lon="10.5397591"><ele>133.0</ele><time>2026-04-22T11:57:06.864Z</time></trkpt><trkpt lat="45.408906" lon="10.5397056"><ele>133.0</ele><time>2026-04-22T11:59:58.864Z</time></trkpt><trkpt lat="45.4089102" lon="10.53981"><ele>133.0</ele><time>2026-04-22T12:02:04.869Z</time></trkpt><trkpt lat="45.4088262" lon="10.5397775"><ele>133.0</ele><time>2026-04-22T12:02:43.863Z</time></trkpt><trkpt lat="45.4089132" lon="10.5397911"><ele>133.0</ele><time>2026-04-22T12:03:40.868Z</time></trkpt><trkpt lat="45.4088809" lon="10.5398946"><ele>133.0</ele><time>2026-04-22T12:04:58.867Z</time></trkpt><trkpt lat="45.4089694" lon="10.5399137"><ele>133.0</ele><time>2026-04-22T12:05:48.862Z</time></trkpt><trkpt lat="45.4089117" lon="10.5399564"><ele>133.0</ele><time>2026-04-22T12:06:10.865Z</time></trkpt><trkpt lat="45.4087929" lon="10.5399504"><ele>133.0</ele><time>2026-04-22T12:06:22.863Z</time></trkpt><trkpt lat="45.4088602" lon="10.5398833"><ele>133.0</ele><time>2026-04-22T12:06:51.868Z</time></trkpt><trkpt lat="45.4089742" lon="10.5398815"><ele>133.0</ele><time>2026-04-22T12:07:10.865Z</time></trkpt><trkpt lat="45.4090565" lon="10.5398766"><ele>133.0</ele><time>2026-04-22T12:08:58.86Z</time></trkpt><trkpt lat="45.4091227" lon="10.539788"><ele>133.0</ele><time>2026-04-22T12:09:36.874Z</time></trkpt><trkpt lat="45.4090948" lon="10.539707"><ele>133.0</ele><time>2026-04-22T12:09:58.864Z</time></trkpt><trkpt lat="45.4090264" lon="10.5397195"><ele>133.0</ele><time>2026-04-22T12:10:50.863Z</time></trkpt><trkpt lat="45.4090043" lon="10.5398344"><ele>133.0</ele><time>2026-04-22T12:11:29.867Z</time></trkpt><trkpt lat="45.4089648" lon="10.5399711"><ele>133.0</ele><time>2026-04-22T12:12:10.866Z</time></trkpt><trkpt lat="45.4089618" lon="10.539879"><ele>133.0</ele><time>2026-04-22T12:13:42.859Z</time></trkpt><trkpt lat="45.4088834" lon="10.5399532"><ele>133.0</ele><time>2026-04-22T12:16:25.866Z</time></trkpt><trkpt lat="45.4088917" lon="10.5398381"><ele>133.0</ele><time>2026-04-22T12:21:59.86Z</time></trkpt><trkpt lat="45.408965" lon="10.5398634"><ele>133.0</ele><time>2026-04-22T12:23:01.867Z</time></trkpt><trkpt lat="45.4088913" lon="10.5398899"><ele>133.0</ele><time>2026-04-22T12:24:08.866Z</time></trkpt><trkpt lat="45.4089542" lon="10.5398323"><ele>133.0</ele><time>2026-04-22T12:26:30.86Z</time></trkpt><trkpt lat="45.4090859" lon="10.5397784"><ele>133.0</ele><time>2026-04-22T12:26:46.865Z</time></trkpt><trkpt lat="45.4090448" lon="10.5398614"><ele>133.0</ele><time>2026-04-22T12:27:28.863Z</time></trkpt><trkpt lat="45.4089229" lon="10.5399467"><ele>133.0</ele><time>2026-04-22T12:28:02.868Z</time></trkpt><trkpt lat="45.4089216" lon="10.5398529"><ele>133.0</ele><time>2026-04-22T12:31:09.866Z</time></trkpt><trkpt lat="45.4090137" lon="10.5398184"><ele>133.0</ele><time>2026-04-22T12:31:43.871Z</time></trkpt><trkpt lat="45.4089867" lon="10.53973"><ele>133.0</ele><time>2026-04-22T12:37:35.864Z</time></trkpt><trkpt lat="45.4089711" lon="10.5398394"><ele>133.0</ele><time>2026-04-22T12:37:36.865Z</time></trkpt><trkpt lat="45.4088943" lon="10.5398533"><ele>133.0</ele><time>2026-04-22T12:39:19.865Z</time></trkpt><trkpt lat="45.4088003" lon="10.5399293"><ele>133.0</ele><time>2026-04-22T12:40:49.853Z</time></trkpt><trkpt lat="45.408908" lon="10.5399443"><ele>133.0</ele><time>2026-04-22T12:43:30.86Z</time></trkpt><trkpt lat="45.4089561" lon="10.5398684"><ele>133.0</ele><time>2026-04-22T12:44:52.862Z</time></trkpt><trkpt lat="45.4089901" lon="10.5397882"><ele>133.0</ele><time>2026-04-22T12:44:54.86Z</time></trkpt><trkpt lat="45.4090105" lon="10.5396664"><ele>133.0</ele><time>2026-04-22T12:45:28.865Z</time></trkpt><trkpt lat="45.4090616" lon="10.5395827"><ele>133.0</ele><time>2026-04-22T12:46:18.867Z</time></trkpt><trkpt lat="45.4089917" lon="10.5396328"><ele>133.0</ele><time>2026-04-22T12:47:27.86Z</time></trkpt><trkpt lat="45.4090605" lon="10.539554"><ele>133.0</ele><time>2026-04-22T12:50:49.868Z</time></trkpt><trkpt lat="45.4090112" lon="10.5396531"><ele>133.0</ele><time>2026-04-22T12:51:49.857Z</time></trkpt><trkpt lat="45.4089522" lon="10.5397618"><ele>133.0</ele><time>2026-04-22T12:52:06.867Z</time></trkpt><trkpt lat="45.4089585" lon="10.5398957"><ele>133.0</ele><time>2026-04-22T12:52:32.861Z</time></trkpt><trkpt lat="45.4090004" lon="10.5398037"><ele>133.0</ele><time>2026-04-22T12:53:35.864Z</time></trkpt><trkpt lat="45.4090525" lon="10.5398845"><ele>133.0</ele><time>2026-04-22T12:54:22.86Z</time></trkpt><trkpt lat="45.4089748" lon="10.539854"><ele>133.0</ele><time>2026-04-22T12:59:48.86Z</time></trkpt><trkpt lat="45.4088632" lon="10.5398375"><ele>133.0</ele><time>2026-04-22T13:00:13.868Z</time></trkpt><trkpt lat="45.408971" lon="10.5398201"><ele>133.0</ele><time>2026-04-22T13:01:25.862Z</time></trkpt><trkpt lat="45.4090618" lon="10.5398204"><ele>133.0</ele><time>2026-04-22T13:02:32.864Z</time></trkpt><trkpt lat="45.4089964" lon="10.5398912"><ele>133.0</ele><time>2026-04-22T13:02:51.863Z</time></trkpt><trkpt lat="45.4089109" lon="10.5399435"><ele>133.0</ele><time>2026-04-22T13:03:16.865Z</time></trkpt><trkpt lat="45.4089898" lon="10.5399477"><ele>133.0</ele><time>2026-04-22T13:03:50.857Z</time></trkpt><trkpt lat="45.4090329" lon="10.5398545"><ele>133.0</ele><time>2026-04-22T13:04:47.859Z</time></trkpt><trkpt lat="45.4089683" lon="10.5398241"><ele>133.0</ele><time>2026-04-22T13:05:38.857Z</time></trkpt><trkpt lat="45.408891" lon="10.5398069"><ele>133.0</ele><time>2026-04-22T13:06:36.863Z</time></trkpt><trkpt lat="45.4089543" lon="10.539818"><ele>133.0</ele><time>2026-04-22T13:07:13.871Z</time></trkpt><trkpt lat="45.408847" lon="10.5398363"><ele>133.0</ele><time>2026-04-22T13:09:57.859Z</time></trkpt><trkpt lat="45.4089664" lon="10.5398508"><ele>133.0</ele><time>2026-04-22T13:11:41.87Z</time></trkpt><trkpt lat="45.4090475" lon="10.5399268"><ele>133.0</ele><time>2026-04-22T13:13:27.862Z</time></trkpt><trkpt lat="45.4090981" lon="10.5399806"><ele>133.0</ele><time>2026-04-22T13:13:48.856Z</time></trkpt><trkpt lat="45.4090244" lon="10.5400541"><ele>133.0</ele><time>2026-04-22T13:14:21.864Z</time></trkpt><trkpt lat="45.4089432" lon="10.5400206"><ele>133.0</ele><time>2026-04-22T13:14:37.868Z</time></trkpt><trkpt lat="45.4088872" lon="10.5399431"><ele>133.0</ele><time>2026-04-22T13:15:16.857Z</time></trkpt><trkpt lat="45.4088184" lon="10.5399024"><ele>133.0</ele><time>2026-04-22T13:15:18.861Z</time></trkpt><trkpt lat="45.4087729" lon="10.5398382"><ele>133.0</ele><time>2026-04-22T13:15:20.866Z</time></trkpt><trkpt lat="45.408726" lon="10.5397654"><ele>133.0</ele><time>2026-04-22T13:15:23.857Z</time></trkpt><trkpt lat="45.4087969" lon="10.5397431"><ele>133.0</ele><time>2026-04-22T13:15:39.857Z</time></trkpt><trkpt lat="45.4089025" lon="10.5397718"><ele>133.0</ele><time>2026-04-22T13:15:48.854Z</time></trkpt><trkpt lat="45.4088532" lon="10.5398308"><ele>133.0</ele><time>2026-04-22T13:16:21.857Z</time></trkpt><trkpt lat="45.4087768" lon="10.5397892"><ele>133.0</ele><time>2026-04-22T13:16:23.865Z</time></trkpt><trkpt lat="45.4088507" lon="10.5398042"><ele>133.0</ele><time>2026-04-22T13:16:40.864Z</time></trkpt><trkpt lat="45.4089926" lon="10.539832"><ele>133.0</ele><time>2026-04-22T13:16:56.865Z</time></trkpt><trkpt lat="45.4089108" lon="10.5398219"><ele>133.0</ele><time>2026-04-22T13:17:29.857Z</time></trkpt><trkpt lat="45.4088327" lon="10.5398074"><ele>133.0</ele><time>2026-04-22T13:17:38.862Z</time></trkpt><trkpt lat="45.40872" lon="10.5397725"><ele>133.0</ele><time>2026-04-22T13:17:44.861Z</time></trkpt><trkpt lat="45.4086365" lon="10.5397456"><ele>133.0</ele><time>2026-04-22T13:17:49.856Z</time></trkpt><trkpt lat="45.4087675" lon="10.5398045"><ele>133.0</ele><time>2026-04-22T13:18:00.859Z</time></trkpt><trkpt lat="45.4089289" lon="10.5399068"><ele>133.0</ele><time>2026-04-22T13:18:15.854Z</time></trkpt><trkpt lat="45.4090042" lon="10.5398132"><ele>133.0</ele><time>2026-04-22T13:19:21.859Z</time></trkpt><trkpt lat="45.4090913" lon="10.5398707"><ele>133.0</ele><time>2026-04-22T13:22:30.862Z</time></trkpt><trkpt lat="45.4090261" lon="10.5398356"><ele>133.0</ele><time>2026-04-22T13:23:49.859Z</time></trkpt><trkpt lat="45.4089439" lon="10.5398449"><ele>133.0</ele><time>2026-04-22T13:25:04.868Z</time></trkpt><trkpt lat="45.4090105" lon="10.5398578"><ele>133.0</ele><time>2026-04-22T13:25:18.858Z</time></trkpt><trkpt lat="45.4091038" lon="10.5398717"><ele>133.0</ele><time>2026-04-22T13:25:50.851Z</time></trkpt><trkpt lat="45.4089979" lon="10.5398289"><ele>133.0</ele><time>2026-04-22T13:26:56.846Z</time></trkpt><trkpt lat="45.4089096" lon="10.5397715"><ele>133.0</ele><time>2026-04-22T13:28:58.857Z</time></trkpt><trkpt lat="45.408999" lon="10.5398038"><ele>133.0</ele><time>2026-04-22T13:30:58.867Z</time></trkpt><trkpt lat="45.4090733" lon="10.53981"><ele>133.0</ele><time>2026-04-22T13:31:08.856Z</time></trkpt><trkpt lat="45.4089686" lon="10.5398257"><ele>133.0</ele><time>2026-04-22T13:31:34.858Z</time></trkpt><trkpt lat="45.4090771" lon="10.5398427"><ele>133.0</ele><time>2026-04-22T13:32:10.869Z</time></trkpt><trkpt lat="45.4091321" lon="10.5397954"><ele>133.0</ele><time>2026-04-22T13:32:58.865Z</time></trkpt><trkpt lat="45.4090574" lon="10.5398146"><ele>133.0</ele><time>2026-04-22T13:33:30.868Z</time></trkpt><trkpt lat="45.4089675" lon="10.5397465"><ele>133.0</ele><time>2026-04-22T13:34:29.862Z</time></trkpt><trkpt lat="45.4089057" lon="10.5397248"><ele>133.0</ele><time>2026-04-22T13:34:33.855Z</time></trkpt><trkpt lat="45.4088168" lon="10.5396685"><ele>133.0</ele><time>2026-04-22T13:34:46.866Z</time></trkpt><trkpt lat="45.4089357" lon="10.5397616"><ele>133.0</ele><time>2026-04-22T13:35:22.859Z</time></trkpt><trkpt lat="45.4089965" lon="10.5397941"><ele>133.0</ele><time>2026-04-22T13:35:25.871Z</time></trkpt><trkpt lat="45.4090709" lon="10.5398123"><ele>133.0</ele><time>2026-04-22T13:35:41.86Z</time></trkpt><trkpt lat="45.4089604" lon="10.5397786"><ele>133.0</ele><time>2026-04-22T13:36:05.863Z</time></trkpt><trkpt lat="45.4088797" lon="10.5397551"><ele>133.0</ele><time>2026-04-22T13:36:10.85Z</time></trkpt><trkpt lat="45.4089908" lon="10.5397705"><ele>133.0</ele><time>2026-04-22T13:37:31.866Z</time></trkpt><trkpt lat="45.4090466" lon="10.5398132"><ele>133.0</ele><time>2026-04-22T13:37:35.861Z</time></trkpt><trkpt lat="45.4091214" lon="10.5398526"><ele>133.0</ele><time>2026-04-22T13:38:05.86Z</time></trkpt><trkpt lat="45.4090733" lon="10.5397821"><ele>133.0</ele><time>2026-04-22T13:38:36.86Z</time></trkpt><trkpt lat="45.4089854" lon="10.53981"><ele>133.0</ele><time>2026-04-22T13:41:32.863Z</time></trkpt><trkpt lat="45.4089836" lon="10.5396939"><ele>133.0</ele><time>2026-04-22T13:42:07.864Z</time></trkpt><trkpt lat="45.408932" lon="10.5397468"><ele>133.0</ele><time>2026-04-22T13:43:14.857Z</time></trkpt><trkpt lat="45.4089771" lon="10.5398829"><ele>133.0</ele><time>2026-04-22T13:44:00.861Z</time></trkpt><trkpt lat="45.4089852" lon="10.5397846"><ele>133.0</ele><time>2026-04-22T13:45:05.866Z</time></trkpt><trkpt lat="45.4089566" lon="10.5398663"><ele>133.0</ele><time>2026-04-22T13:46:45.864Z</time></trkpt><trkpt lat="45.4090308" lon="10.539832"><ele>133.0</ele><time>2026-04-22T13:47:07.868Z</time></trkpt><trkpt lat="45.4089423" lon="10.5398046"><ele>133.0</ele><time>2026-04-22T13:47:20.859Z</time></trkpt><trkpt lat="45.4089332" lon="10.5398947"><ele>133.0</ele><time>2026-04-22T13:48:29.856Z</time></trkpt><trkpt lat="45.4089298" lon="10.5400004"><ele>133.0</ele><time>2026-04-22T13:49:48.864Z</time></trkpt><trkpt lat="45.4089362" lon="10.5398908"><ele>133.0</ele><time>2026-04-22T13:50:23.867Z</time></trkpt><trkpt lat="45.4089562" lon="10.5397705"><ele>133.0</ele><time>2026-04-22T13:57:29.856Z</time></trkpt><trkpt lat="45.4090213" lon="10.539802"><ele>133.0</ele><time>2026-04-22T13:58:41.868Z</time></trkpt><trkpt lat="45.4089789" lon="10.539734"><ele>133.0</ele><time>2026-04-22T14:00:11.865Z</time></trkpt><trkpt lat="45.4088994" lon="10.5397333"><ele>133.0</ele><time>2026-04-22T14:01:47.863Z</time></trkpt><trkpt lat="45.4088807" lon="10.5396311"><ele>133.0</ele><time>2026-04-22T14:02:19.862Z</time></trkpt><trkpt lat="45.408966" lon="10.5396904"><ele>133.0</ele><time>2026-04-22T14:02:43.854Z</time></trkpt><trkpt lat="45.4089012" lon="10.5397488"><ele>133.0</ele><time>2026-04-22T14:03:15.858Z</time></trkpt><trkpt lat="45.4088158" lon="10.5397519"><ele>133.0</ele><time>2026-04-22T14:03:25.866Z</time></trkpt><trkpt lat="45.4088846" lon="10.5397192"><ele>133.0</ele><time>2026-04-22T14:03:47.859Z</time></trkpt><trkpt lat="45.4089759" lon="10.5397159"><ele>133.0</ele><time>2026-04-22T14:04:07.867Z</time></trkpt><trkpt lat="45.4089348" lon="10.5397913"><ele>133.0</ele><time>2026-04-22T14:04:28.863Z</time></trkpt><trkpt lat="45.4090286" lon="10.5398511"><ele>133.0</ele><time>2026-04-22T14:04:41.855Z</time></trkpt><trkpt lat="45.4090345" lon="10.5397515"><ele>133.0</ele><time>2026-04-22T14:05:53.86Z</time></trkpt><trkpt lat="45.4090271" lon="10.5398752"><ele>133.0</ele><time>2026-04-22T14:09:57.864Z</time></trkpt><trkpt lat="45.409095" lon="10.539913"><ele>133.0</ele><time>2026-04-22T14:10:14.855Z</time></trkpt><trkpt lat="45.4090778" lon="10.5398226"><ele>133.0</ele><time>2026-04-22T14:13:00.866Z</time></trkpt><trkpt lat="45.4090888" lon="10.5397073"><ele>133.0</ele><time>2026-04-22T14:13:31.858Z</time></trkpt><trkpt lat="45.4089825" lon="10.5397655"><ele>133.0</ele><time>2026-04-22T14:15:02.862Z</time></trkpt><trkpt lat="45.4090803" lon="10.5398323"><ele>133.0</ele><time>2026-04-22T14:19:16.86Z</time></trkpt><trkpt lat="45.4090382" lon="10.5399046"><ele>133.0</ele><time>2026-04-22T14:24:28.854Z</time></trkpt><trkpt lat="45.4089582" lon="10.5399859"><ele>133.0</ele><time>2026-04-22T14:24:33.86Z</time></trkpt><trkpt lat="45.4090172" lon="10.5399102"><ele>133.0</ele><time>2026-04-22T14:24:57.856Z</time></trkpt><trkpt lat="45.4090141" lon="10.5397821"><ele>133.0</ele><time>2026-04-22T14:26:47.856Z</time></trkpt><trkpt lat="45.4090018" lon="10.5396811"><ele>133.0</ele><time>2026-04-22T14:27:41.862Z</time></trkpt><trkpt lat="45.4091134" lon="10.5397474"><ele>133.0</ele><time>2026-04-22T14:29:08.858Z</time></trkpt><trkpt lat="45.40908" lon="10.5398409"><ele>133.0</ele><time>2026-04-22T14:29:20.859Z</time></trkpt><trkpt lat="45.4089837" lon="10.5399005"><ele>133.0</ele><time>2026-04-22T14:29:30.856Z</time></trkpt><trkpt lat="45.4089122" lon="10.539812"><ele>133.0</ele><time>2026-04-22T14:30:21.86Z</time></trkpt><trkpt lat="45.4089627" lon="10.5397481"><ele>133.0</ele><time>2026-04-22T14:32:22.853Z</time></trkpt><trkpt lat="45.40903" lon="10.5397183"><ele>133.0</ele><time>2026-04-22T14:32:46.856Z</time></trkpt><trkpt lat="45.4091471" lon="10.5396992"><ele>133.0</ele><time>2026-04-22T14:32:48.864Z</time></trkpt><trkpt lat="45.4090633" lon="10.5396736"><ele>133.0</ele><time>2026-04-22T14:34:01.866Z</time></trkpt><trkpt lat="45.40902" lon="10.5397471"><ele>133.0</ele><time>2026-04-22T14:34:41.855Z</time></trkpt><trkpt lat="45.4089057" lon="10.5396907"><ele>133.0</ele><time>2026-04-22T14:37:09.863Z</time></trkpt><trkpt lat="45.40896" lon="10.5397738"><ele>133.0</ele><time>2026-04-22T14:37:46.855Z</time></trkpt><trkpt lat="45.4090699" lon="10.5398186"><ele>133.0</ele><time>2026-04-22T14:38:15.862Z</time></trkpt><trkpt lat="45.4090755" lon="10.539692"><ele>133.0</ele><time>2026-04-22T14:39:30.858Z</time></trkpt><trkpt lat="45.4090986" lon="10.5398131"><ele>133.0</ele><time>2026-04-22T14:39:50.857Z</time></trkpt><trkpt lat="45.4090993" lon="10.5396761"><ele>133.0</ele><time>2026-04-22T14:41:39.86Z</time></trkpt><trkpt lat="45.4090357" lon="10.5396652"><ele>133.0</ele><time>2026-04-22T14:41:50.852Z</time></trkpt><trkpt lat="45.4089265" lon="10.539716"><ele>133.0</ele><time>2026-04-22T14:41:56.863Z</time></trkpt><trkpt lat="45.4088788" lon="10.5396432"><ele>133.0</ele><time>2026-04-22T14:42:18.861Z</time></trkpt><trkpt lat="45.4089473" lon="10.5397179"><ele>133.0</ele><time>2026-04-22T14:42:42.861Z</time></trkpt><trkpt lat="45.4090533" lon="10.5396998"><ele>133.0</ele><time>2026-04-22T14:42:58.861Z</time></trkpt><trkpt lat="45.409122" lon="10.5397688"><ele>133.0</ele><time>2026-04-22T14:43:30.854Z</time></trkpt><trkpt lat="45.4091982" lon="10.5397148"><ele>133.0</ele><time>2026-04-22T14:43:42.864Z</time></trkpt><trkpt lat="45.4091866" lon="10.539592"><ele>133.0</ele><time>2026-04-22T14:45:03.859Z</time></trkpt><trkpt lat="45.4090861" lon="10.5395599"><ele>133.0</ele><time>2026-04-22T14:45:22.856Z</time></trkpt><trkpt lat="45.4090563" lon="10.5396804"><ele>133.0</ele><time>2026-04-22T14:46:06.867Z</time></trkpt><trkpt lat="45.4091533" lon="10.5396972"><ele>133.0</ele><time>2026-04-22T14:46:49.865Z</time></trkpt><trkpt lat="45.409104" lon="10.5395539"><ele>133.0</ele><time>2026-04-22T14:48:11.858Z</time></trkpt><trkpt lat="45.4089872" lon="10.5396026"><ele>133.0</ele><time>2026-04-22T14:48:57.863Z</time></trkpt><trkpt lat="45.4088986" lon="10.5395169"><ele>133.0</ele><time>2026-04-22T14:49:15.863Z</time></trkpt><trkpt lat="45.40896" lon="10.5396125"><ele>133.0</ele><time>2026-04-22T14:49:45.857Z</time></trkpt><trkpt lat="45.4089748" lon="10.5397936"><ele>133.0</ele><time>2026-04-22T14:50:15.853Z</time></trkpt><trkpt lat="45.4090802" lon="10.5397821"><ele>133.0</ele><time>2026-04-22T14:50:28.865Z</time></trkpt><trkpt lat="45.4091857" lon="10.5397366"><ele>133.0</ele><time>2026-04-22T14:51:00.858Z</time></trkpt><trkpt lat="45.4091175" lon="10.5396494"><ele>133.0</ele><time>2026-04-22T14:51:21.852Z</time></trkpt><trkpt lat="45.409035" lon="10.5397129"><ele>133.0</ele><time>2026-04-22T14:51:39.855Z</time></trkpt><trkpt lat="45.4090821" lon="10.5398075"><ele>133.0</ele><time>2026-04-22T14:52:07.863Z</time></trkpt><trkpt lat="45.4090616" lon="10.5397046"><ele>133.0</ele><time>2026-04-22T14:53:41.86Z</time></trkpt><trkpt lat="45.4090766" lon="10.5395792"><ele>133.0</ele><time>2026-04-22T14:54:10.853Z</time></trkpt><trkpt lat="45.4090403" lon="10.5396639"><ele>133.0</ele><time>2026-04-22T14:54:34.855Z</time></trkpt><trkpt lat="45.4090027" lon="10.5397956"><ele>133.0</ele><time>2026-04-22T14:55:24.854Z</time></trkpt><trkpt lat="45.4090674" lon="10.5397112"><ele>133.0</ele><time>2026-04-22T14:56:41.852Z</time></trkpt><trkpt lat="45.4090848" lon="10.5395904"><ele>133.0</ele><time>2026-04-22T14:56:58.862Z</time></trkpt><trkpt lat="45.4090289" lon="10.5396805"><ele>133.0</ele><time>2026-04-22T14:57:14.848Z</time></trkpt><trkpt lat="45.4090761" lon="10.5396134"><ele>133.0</ele><time>2026-04-22T14:57:22.859Z</time></trkpt><trkpt lat="45.4091462" lon="10.5395066"><ele>133.0</ele><time>2026-04-22T14:57:28.864Z</time></trkpt><trkpt lat="45.409187" lon="10.5395981"><ele>133.0</ele><time>2026-04-22T14:57:55.857Z</time></trkpt><trkpt lat="45.4091207" lon="10.5396732"><ele>133.0</ele><time>2026-04-22T14:58:27.855Z</time></trkpt><trkpt lat="45.4091264" lon="10.5395754"><ele>133.0</ele><time>2026-04-22T14:58:40.852Z</time></trkpt><trkpt lat="45.4090526" lon="10.5395525"><ele>133.0</ele><time>2026-04-22T15:00:16.86Z</time></trkpt><trkpt lat="45.4091413" lon="10.5395022"><ele>133.0</ele><time>2026-04-22T15:01:30.855Z</time></trkpt><trkpt lat="45.4091129" lon="10.5393721"><ele>133.0</ele><time>2026-04-22T15:01:44.862Z</time></trkpt><trkpt lat="45.4090297" lon="10.5394667"><ele>133.0</ele><time>2026-04-22T15:02:06.862Z</time></trkpt><trkpt lat="45.4090608" lon="10.5395866"><ele>133.0</ele><time>2026-04-22T15:02:26.855Z</time></trkpt><trkpt lat="45.4090925" lon="10.5397131"><ele>133.0</ele><time>2026-04-22T15:02:51.856Z</time></trkpt><trkpt lat="45.4090044" lon="10.5396788"><ele>133.0</ele><time>2026-04-22T15:03:51.86Z</time></trkpt><trkpt lat="45.409119" lon="10.5396842"><ele>133.0</ele><time>2026-04-22T15:05:17.854Z</time></trkpt><trkpt lat="45.4091836" lon="10.5397111"><ele>133.0</ele><time>2026-04-22T15:05:34.855Z</time></trkpt><trkpt lat="45.4091065" lon="10.5396394"><ele>133.0</ele><time>2026-04-22T15:05:41.853Z</time></trkpt><trkpt lat="45.4090027" lon="10.5395451"><ele>133.0</ele><time>2026-04-22T15:06:25.863Z</time></trkpt><trkpt lat="45.4089357" lon="10.5394891"><ele>133.0</ele><time>2026-04-22T15:06:26.852Z</time></trkpt><trkpt lat="45.4089745" lon="10.539609"><ele>133.0</ele><time>2026-04-22T15:06:51.859Z</time></trkpt><trkpt lat="45.4090447" lon="10.5396956"><ele>133.0</ele><time>2026-04-22T15:06:53.864Z</time></trkpt><trkpt lat="45.409116" lon="10.5396401"><ele>133.0</ele><time>2026-04-22T15:07:15.863Z</time></trkpt><trkpt lat="45.4090474" lon="10.5396815"><ele>133.0</ele><time>2026-04-22T15:08:41.864Z</time></trkpt><trkpt lat="45.4090508" lon="10.5398383"><ele>133.0</ele><time>2026-04-22T15:08:51.854Z</time></trkpt><trkpt lat="45.408957" lon="10.5398064"><ele>133.0</ele><time>2026-04-22T15:10:00.863Z</time></trkpt><trkpt lat="45.4089913" lon="10.5397104"><ele>133.0</ele><time>2026-04-22T15:10:19.853Z</time></trkpt><trkpt lat="45.4091134" lon="10.5396928"><ele>133.0</ele><time>2026-04-22T15:10:31.863Z</time></trkpt><trkpt lat="45.4092065" lon="10.5396101"><ele>133.0</ele><time>2026-04-22T15:10:47.848Z</time></trkpt><trkpt lat="45.4091633" lon="10.5397009"><ele>133.0</ele><time>2026-04-22T15:11:11.858Z</time></trkpt><trkpt lat="45.4092363" lon="10.5396774"><ele>133.0</ele><time>2026-04-22T15:11:37.858Z</time></trkpt><trkpt lat="45.4092838" lon="10.5396112"><ele>133.0</ele><time>2026-04-22T15:11:43.85Z</time></trkpt><trkpt lat="45.4093061" lon="10.5395044"><ele>133.0</ele><time>2026-04-22T15:11:54.861Z</time></trkpt><trkpt lat="45.4092573" lon="10.5395888"><ele>133.0</ele><time>2026-04-22T15:12:17.86Z</time></trkpt><trkpt lat="45.4092759" lon="10.5394219"><ele>133.0</ele><time>2026-04-22T15:12:50.855Z</time></trkpt><trkpt lat="45.4093113" lon="10.5393071"><ele>133.0</ele><time>2026-04-22T15:12:52.859Z</time></trkpt><trkpt lat="45.4092805" lon="10.5393977"><ele>133.0</ele><time>2026-04-22T15:13:12.856Z</time></trkpt><trkpt lat="45.4091899" lon="10.5395293"><ele>133.0</ele><time>2026-04-22T15:14:00.855Z</time></trkpt><trkpt lat="45.4090877" lon="10.5395497"><ele>133.0</ele><time>2026-04-22T15:15:08.865Z</time></trkpt><trkpt lat="45.4090056" lon="10.5396567"><ele>133.0</ele><time>2026-04-22T15:15:41.863Z</time></trkpt><trkpt lat="45.4090056" lon="10.5397705"><ele>133.0</ele><time>2026-04-22T15:16:25.857Z</time></trkpt><trkpt lat="45.4089234" lon="10.539904"><ele>133.0</ele><time>2026-04-22T15:17:06.856Z</time></trkpt><trkpt lat="45.4089835" lon="10.5398204"><ele>133.0</ele><time>2026-04-22T15:18:48.86Z</time></trkpt><trkpt lat="45.4090475" lon="10.5397086"><ele>133.0</ele><time>2026-04-22T15:18:59.863Z</time></trkpt><trkpt lat="45.4089947" lon="10.5395923"><ele>133.0</ele><time>2026-04-22T15:19:40.859Z</time></trkpt><trkpt lat="45.408975" lon="10.53973"><ele>133.0</ele><time>2026-04-22T15:20:05.857Z</time></trkpt><trkpt lat="45.4090509" lon="10.539763"><ele>133.0</ele><time>2026-04-22T15:20:16.862Z</time></trkpt><trkpt lat="45.4089863" lon="10.5398683"><ele>133.0</ele><time>2026-04-22T15:20:43.862Z</time></trkpt><trkpt lat="45.4089216" lon="10.5398278"><ele>133.0</ele><time>2026-04-22T15:21:13.859Z</time></trkpt><trkpt lat="45.4089333" lon="10.5397218"><ele>133.0</ele><time>2026-04-22T15:21:35.854Z</time></trkpt><trkpt lat="45.409007" lon="10.5396324"><ele>133.0</ele><time>2026-04-22T15:22:33.853Z</time></trkpt><trkpt lat="45.409084" lon="10.5396311"><ele>133.0</ele><time>2026-04-22T15:24:16.857Z</time></trkpt><trkpt lat="45.4091179" lon="10.5395404"><ele>133.0</ele><time>2026-04-22T15:24:24.864Z</time></trkpt><trkpt lat="45.4090635" lon="10.5395882"><ele>133.0</ele><time>2026-04-22T15:25:00.854Z</time></trkpt><trkpt lat="45.4091155" lon="10.5396712"><ele>133.0</ele><time>2026-04-22T15:25:43.862Z</time></trkpt><trkpt lat="45.4090382" lon="10.5396953"><ele>133.0</ele><time>2026-04-22T15:25:52.857Z</time></trkpt><trkpt lat="45.4089464" lon="10.5397231"><ele>133.0</ele><time>2026-04-22T15:26:45.852Z</time></trkpt><trkpt lat="45.4089776" lon="10.5396332"><ele>133.0</ele><time>2026-04-22T15:27:22.856Z</time></trkpt><trkpt lat="45.4089836" lon="10.5397395"><ele>133.0</ele><time>2026-04-22T15:27:48.863Z</time></trkpt><trkpt lat="45.4088712" lon="10.5398575"><ele>133.0</ele><time>2026-04-22T15:28:22.855Z</time></trkpt><trkpt lat="45.4088323" lon="10.5399613"><ele>133.0</ele><time>2026-04-22T15:28:24.853Z</time></trkpt><trkpt lat="45.4087853" lon="10.5400796"><ele>133.0</ele><time>2026-04-22T15:28:28.861Z</time></trkpt><trkpt lat="45.4087877" lon="10.5398846"><ele>133.0</ele><time>2026-04-22T15:29:20.853Z</time></trkpt><trkpt lat="45.408868" lon="10.5397307"><ele>133.0</ele><time>2026-04-22T15:29:31.857Z</time></trkpt><trkpt lat="45.4089255" lon="10.5396597"><ele>133.0</ele><time>2026-04-22T15:29:33.861Z</time></trkpt><trkpt lat="45.4089758" lon="10.5395953"><ele>133.0</ele><time>2026-04-22T15:29:34.864Z</time></trkpt><trkpt lat="45.4090468" lon="10.5395754"><ele>133.0</ele><time>2026-04-22T15:31:59.864Z</time></trkpt><trkpt lat="45.4091267" lon="10.5394825"><ele>133.0</ele><time>2026-04-22T15:32:07.863Z</time></trkpt><trkpt lat="45.4090573" lon="10.539526"><ele>133.0</ele><time>2026-04-22T15:32:29.86Z</time></trkpt><trkpt lat="45.409" lon="10.53961"><ele>133.0</ele><time>2026-04-22T15:32:34.856Z</time></trkpt><trkpt lat="45.4089246" lon="10.5396676"><ele>133.0</ele><time>2026-04-22T15:33:09.852Z</time></trkpt><trkpt lat="45.4088684" lon="10.5397189"><ele>133.0</ele><time>2026-04-22T15:33:10.862Z</time></trkpt><trkpt lat="45.4089199" lon="10.5396416"><ele>133.0</ele><time>2026-04-22T15:33:14.859Z</time></trkpt><trkpt lat="45.4091655" lon="10.539301"><ele>133.0</ele><time>2026-04-22T15:33:45.861Z</time></trkpt><trkpt lat="45.4091929" lon="10.5394129"><ele>133.0</ele><time>2026-04-22T15:33:56.852Z</time></trkpt><trkpt lat="45.4091384" lon="10.539539"><ele>133.0</ele><time>2026-04-22T15:34:04.859Z</time></trkpt><trkpt lat="45.4090777" lon="10.5396568"><ele>133.0</ele><time>2026-04-22T15:34:19.859Z</time></trkpt><trkpt lat="45.4089685" lon="10.5397377"><ele>133.0</ele><time>2026-04-22T15:34:31.859Z</time></trkpt><trkpt lat="45.4089091" lon="10.5398188"><ele>133.0</ele><time>2026-04-22T15:35:07.859Z</time></trkpt><trkpt lat="45.4088486" lon="10.5399269"><ele>133.0</ele><time>2026-04-22T15:35:15.849Z</time></trkpt><trkpt lat="45.4089285" lon="10.5397831"><ele>133.0</ele><time>2026-04-22T15:35:30.861Z</time></trkpt><trkpt lat="45.4089664" lon="10.5397047"><ele>133.0</ele><time>2026-04-22T15:35:31.864Z</time></trkpt><trkpt lat="45.4090068" lon="10.5395966"><ele>133.0</ele><time>2026-04-22T15:35:33.851Z</time></trkpt><trkpt lat="45.4090525" lon="10.5394503"><ele>133.0</ele><time>2026-04-22T15:35:40.857Z</time></trkpt><trkpt lat="45.4090087" lon="10.5395248"><ele>133.0</ele><time>2026-04-22T15:36:15.855Z</time></trkpt><trkpt lat="45.4090358" lon="10.5396369"><ele>133.0</ele><time>2026-04-22T15:36:26.857Z</time></trkpt><trkpt lat="45.4091101" lon="10.5396876"><ele>133.0</ele><time>2026-04-22T15:36:43.861Z</time></trkpt><trkpt lat="45.4090392" lon="10.5397399"><ele>133.0</ele><time>2026-04-22T15:37:07.861Z</time></trkpt><trkpt lat="45.4089747" lon="10.539631"><ele>133.0</ele><time>2026-04-22T15:37:44.85Z</time></trkpt><trkpt lat="45.4089276" lon="10.5395608"><ele>133.0</ele><time>2026-04-22T15:38:00.852Z</time></trkpt><trkpt lat="45.4089899" lon="10.5395856"><ele>133.0</ele><time>2026-04-22T15:41:09.854Z</time></trkpt><trkpt lat="45.40906" lon="10.5395661"><ele>133.0</ele><time>2026-04-22T15:41:34.851Z</time></trkpt><trkpt lat="45.4090201" lon="10.5396426"><ele>133.0</ele><time>2026-04-22T15:42:08.86Z</time></trkpt><trkpt lat="45.4090655" lon="10.539578"><ele>133.0</ele><time>2026-04-22T15:44:01.87Z</time></trkpt><trkpt lat="45.4090212" lon="10.53967"><ele>133.0</ele><time>2026-04-22T15:44:20.859Z</time></trkpt><trkpt lat="45.4090638" lon="10.5395799"><ele>133.0</ele><time>2026-04-22T15:44:30.861Z</time></trkpt><trkpt lat="45.4090874" lon="10.5394896"><ele>132.33333333333334</ele><time>2026-04-22T15:45:45.852Z</time></trkpt><trkpt lat="45.4090767" lon="10.5393995"><ele>131.66666666666669</ele><time>2026-04-22T15:46:33.857Z</time></trkpt><trkpt lat="45.4091317" lon="10.5393156"><ele>131.0</ele><time>2026-04-22T15:47:24.851Z</time></trkpt><trkpt lat="45.4090872" lon="10.5394196"><ele>130.33333333333334</ele><time>2026-04-22T15:47:59.858Z</time></trkpt><trkpt lat="45.4090716" lon="10.5395489"><ele>129.66666666666666</ele><time>2026-04-22T15:48:38.863Z</time></trkpt><trkpt lat="45.4090016" lon="10.5395184"><ele>129.0</ele><time>2026-04-22T15:49:38.85Z</time></trkpt><trkpt lat="45.4089349" lon="10.539428"><ele>129.0</ele><time>2026-04-22T15:50:22.855Z</time></trkpt><trkpt lat="45.4089961" lon="10.5394868"><ele>129.0</ele><time>2026-04-22T15:50:43.859Z</time></trkpt><trkpt lat="45.4089957" lon="10.5396294"><ele>129.0</ele><time>2026-04-22T15:51:02.852Z</time></trkpt><trkpt lat="45.4090627" lon="10.5395008"><ele>129.0</ele><time>2026-04-22T15:51:07.861Z</time></trkpt><trkpt lat="45.4091031" lon="10.5394306"><ele>129.0</ele><time>2026-04-22T15:51:09.855Z</time></trkpt><trkpt lat="45.4091292" lon="10.5395166"><ele>129.0</ele><time>2026-04-22T15:51:44.852Z</time></trkpt><trkpt lat="45.4091191" lon="10.5396392"><ele>129.0</ele><time>2026-04-22T15:52:04.862Z</time></trkpt><trkpt lat="45.4091944" lon="10.5394675"><ele>129.0</ele><time>2026-04-22T15:52:37.863Z</time></trkpt><trkpt lat="45.4092525" lon="10.5393303"><ele>129.0</ele><time>2026-04-22T15:53:03.852Z</time></trkpt><trkpt lat="45.4092093" lon="10.5394254"><ele>129.0</ele><time>2026-04-22T15:54:37.863Z</time></trkpt><trkpt lat="45.4091653" lon="10.5394961"><ele>129.0</ele><time>2026-04-22T15:54:39.86Z</time></trkpt><trkpt lat="45.409098" lon="10.5396079"><ele>129.8</ele><time>2026-04-22T15:54:45.849Z</time></trkpt><trkpt lat="45.4090142" lon="10.539758"><ele>130.60000000000002</ele><time>2026-04-22T15:55:05.861Z</time></trkpt><trkpt lat="45.4089567" lon="10.5399222"><ele>131.4</ele><time>2026-04-22T15:55:24.851Z</time></trkpt><trkpt lat="45.4089194" lon="10.5400122"><ele>132.20000000000002</ele><time>2026-04-22T15:55:27.857Z</time></trkpt><trkpt lat="45.4089912" lon="10.5399695"><ele>133.0</ele><time>2026-04-22T15:56:20.851Z</time></trkpt><trkpt lat="45.40902" lon="10.5398629"><ele>133.0</ele><time>2026-04-22T15:56:23.863Z</time></trkpt><trkpt lat="45.4090386" lon="10.539749"><ele>133.0</ele><time>2026-04-22T15:56:44.852Z</time></trkpt><trkpt lat="45.4090612" lon="10.5399158"><ele>133.0</ele><time>2026-04-22T15:57:52.863Z</time></trkpt><trkpt lat="45.4089832" lon="10.5399288"><ele>133.0</ele><time>2026-04-22T15:58:21.852Z</time></trkpt><trkpt lat="45.4089531" lon="10.5400244"><ele>133.0</ele><time>2026-04-22T15:59:45.858Z</time></trkpt><trkpt lat="45.4090197" lon="10.5399789"><ele>133.0</ele><time>2026-04-22T16:00:36.862Z</time></trkpt><trkpt lat="45.4090575" lon="10.539881"><ele>133.0</ele><time>2026-04-22T16:00:39.853Z</time></trkpt><trkpt lat="45.409047" lon="10.5397671"><ele>133.0</ele><time>2026-04-22T16:00:49.852Z</time></trkpt><trkpt lat="45.4090282" lon="10.5395909"><ele>133.0</ele><time>2026-04-22T16:01:06.851Z</time></trkpt><trkpt lat="45.4091161" lon="10.5395475"><ele>133.0</ele><time>2026-04-22T16:01:41.857Z</time></trkpt><trkpt lat="45.4090914" lon="10.5396534"><ele>133.0</ele><time>2026-04-22T16:02:01.855Z</time></trkpt><trkpt lat="45.4090467" lon="10.5397421"><ele>133.0</ele><time>2026-04-22T16:02:06.854Z</time></trkpt><trkpt lat="45.4090138" lon="10.5398403"><ele>133.0</ele><time>2026-04-22T16:02:09.857Z</time></trkpt><trkpt lat="45.4090717" lon="10.5399067"><ele>133.0</ele><time>2026-04-22T16:02:20.867Z</time></trkpt><trkpt lat="45.4090477" lon="10.5400152"><ele>133.0</ele><time>2026-04-22T16:02:30.861Z</time></trkpt><trkpt lat="45.4090901" lon="10.5399415"><ele>133.0</ele><time>2026-04-22T16:02:44.86Z</time></trkpt><trkpt lat="45.4091386" lon="10.5398748"><ele>133.0</ele><time>2026-04-22T16:02:48.864Z</time></trkpt><trkpt lat="45.4091729" lon="10.5397198"><ele>133.0</ele><time>2026-04-22T16:03:02.86Z</time></trkpt><trkpt lat="45.4091413" lon="10.5395999"><ele>133.0</ele><time>2026-04-22T16:03:49.856Z</time></trkpt><trkpt lat="45.4091957" lon="10.5397293"><ele>133.0</ele><time>2026-04-22T16:05:09.852Z</time></trkpt><trkpt lat="45.4092704" lon="10.5397693"><ele>133.0</ele><time>2026-04-22T16:05:24.85Z</time></trkpt><trkpt lat="45.4091887" lon="10.5396788"><ele>133.0</ele><time>2026-04-22T16:05:54.861Z</time></trkpt><trkpt lat="45.4091424" lon="10.5396007"><ele>132.20000000000002</ele><time>2026-04-22T16:05:56.852Z</time></trkpt><trkpt lat="45.4091135" lon="10.5394732"><ele>131.4</ele><time>2026-04-22T16:06:06.852Z</time></trkpt><trkpt lat="45.4090886" lon="10.5392822"><ele>130.60000000000002</ele><time>2026-04-22T16:06:14.852Z</time></trkpt><trkpt lat="45.409016" lon="10.5391296"><ele>129.8</ele><time>2026-04-22T16:06:28.859Z</time></trkpt><trkpt lat="45.4090315" lon="10.5392257"><ele>129.0</ele><time>2026-04-22T16:06:35.858Z</time></trkpt><trkpt lat="45.4090606" lon="10.5393466"><ele>129.0</ele><time>2026-04-22T16:06:48.862Z</time></trkpt><trkpt lat="45.4090704" lon="10.5394461"><ele>129.0</ele><time>2026-04-22T16:06:51.858Z</time></trkpt><trkpt lat="45.4090974" lon="10.5395713"><ele>129.0</ele><time>2026-04-22T16:06:54.852Z</time></trkpt><trkpt lat="45.4091288" lon="10.5396827"><ele>129.0</ele><time>2026-04-22T16:06:56.864Z</time></trkpt><trkpt lat="45.4092195" lon="10.5397796"><ele>129.0</ele><time>2026-04-22T16:07:02.849Z</time></trkpt><trkpt lat="45.4093016" lon="10.5398846"><ele>129.66666666666666</ele><time>2026-04-22T16:07:17.852Z</time></trkpt><trkpt lat="45.4093726" lon="10.5399292"><ele>130.33333333333334</ele><time>2026-04-22T16:07:55.859Z</time></trkpt><trkpt lat="45.4094367" lon="10.5400288"><ele>131.0</ele><time>2026-04-22T16:08:02.861Z</time></trkpt><trkpt lat="45.4093887" lon="10.5400959"><ele>131.66666666666669</ele><time>2026-04-22T16:08:21.854Z</time></trkpt><trkpt lat="45.4093241" lon="10.5400889"><ele>132.33333333333334</ele><time>2026-04-22T16:08:24.851Z</time></trkpt><trkpt lat="45.4092266" lon="10.5401535"><ele>133.0</ele><time>2026-04-22T16:08:31.851Z</time></trkpt><trkpt lat="45.4092548" lon="10.5402937"><ele>133.0</ele><time>2026-04-22T16:08:59.853Z</time></trkpt><trkpt lat="45.4092307" lon="10.5404198"><ele>133.0</ele><time>2026-04-22T16:09:21.851Z</time></trkpt><trkpt lat="45.4092518" lon="10.540334"><ele>133.0</ele><time>2026-04-22T16:09:48.861Z</time></trkpt><trkpt lat="45.4093217" lon="10.54018"><ele>133.0</ele><time>2026-04-22T16:09:57.857Z</time></trkpt><trkpt lat="45.4093711" lon="10.5401133"><ele>133.0</ele><time>2026-04-22T16:10:00.864Z</time></trkpt><trkpt lat="45.4093452" lon="10.5400018"><ele>133.0</ele><time>2026-04-22T16:10:23.858Z</time></trkpt><trkpt lat="45.4092867" lon="10.5398716"><ele>133.0</ele><time>2026-04-22T16:10:39.855Z</time></trkpt><trkpt lat="45.4092149" lon="10.5398487"><ele>133.0</ele><time>2026-04-22T16:11:27.858Z</time></trkpt><trkpt lat="45.4091112" lon="10.5398307"><ele>133.0</ele><time>2026-04-22T16:11:58.855Z</time></trkpt><trkpt lat="45.4090463" lon="10.5399886"><ele>133.0</ele><time>2026-04-22T16:12:13.854Z</time></trkpt><trkpt lat="45.4090952" lon="10.5398119"><ele>133.0</ele><time>2026-04-22T16:12:37.856Z</time></trkpt><trkpt lat="45.4091931" lon="10.5398309"><ele>133.0</ele><time>2026-04-22T16:13:01.854Z</time></trkpt><trkpt lat="45.4092806" lon="10.5399464"><ele>133.0</ele><time>2026-04-22T16:13:18.85Z</time></trkpt><trkpt lat="45.4093696" lon="10.5398386"><ele>133.0</ele><time>2026-04-22T16:13:26.852Z</time></trkpt><trkpt lat="45.4093204" lon="10.5398948"><ele>133.0</ele><time>2026-04-22T16:13:45.859Z</time></trkpt><trkpt lat="45.4092674" lon="10.5398269"><ele>133.0</ele><time>2026-04-22T16:14:14.854Z</time></trkpt><trkpt lat="45.4092518" lon="10.5397185"><ele>133.0</ele><time>2026-04-22T16:14:24.861Z</time></trkpt><trkpt lat="45.4091889" lon="10.5396081"><ele>133.0</ele><time>2026-04-22T16:14:53.864Z</time></trkpt><trkpt lat="45.4091383" lon="10.5396862"><ele>133.0</ele><time>2026-04-22T16:15:35.85Z</time></trkpt><trkpt lat="45.4090369" lon="10.5396514"><ele>133.0</ele><time>2026-04-22T16:17:37.855Z</time></trkpt><trkpt lat="45.4089738" lon="10.5396678"><ele>133.0</ele><time>2026-04-22T16:18:08.854Z</time></trkpt><trkpt lat="45.4089981" lon="10.5397976"><ele>133.0</ele><time>2026-04-22T16:18:26.849Z</time></trkpt><trkpt lat="45.4090618" lon="10.5397229"><ele>133.0</ele><time>2026-04-22T16:18:48.856Z</time></trkpt><trkpt lat="45.4089954" lon="10.5396899"><ele>133.0</ele><time>2026-04-22T16:19:21.86Z</time></trkpt><trkpt lat="45.4089667" lon="10.5395846"><ele>133.0</ele><time>2026-04-22T16:19:24.859Z</time></trkpt><trkpt lat="45.4089422" lon="10.5394854"><ele>133.0</ele><time>2026-04-22T16:19:26.862Z</time></trkpt><trkpt lat="45.4089216" lon="10.5393855"><ele>133.0</ele><time>2026-04-22T16:19:38.853Z</time></trkpt><trkpt lat="45.408827" lon="10.5393018"><ele>133.0</ele><time>2026-04-22T16:19:46.849Z</time></trkpt><trkpt lat="45.4087727" lon="10.5392385"><ele>133.0</ele><time>2026-04-22T16:19:50.854Z</time></trkpt><trkpt lat="45.4087266" lon="10.5391712"><ele>133.0</ele><time>2026-04-22T16:19:53.854Z</time></trkpt><trkpt lat="45.4086957" lon="10.5390895"><ele>133.0</ele><time>2026-04-22T16:19:56.851Z</time></trkpt><trkpt lat="45.4086858" lon="10.5391859"><ele>133.0</ele><time>2026-04-22T16:20:02.85Z</time></trkpt><trkpt lat="45.4087285" lon="10.5392597"><ele>133.0</ele><time>2026-04-22T16:20:13.853Z</time></trkpt><trkpt lat="45.4087627" lon="10.5393954"><ele>133.0</ele><time>2026-04-22T16:20:19.862Z</time></trkpt><trkpt lat="45.4088063" lon="10.5395308"><ele>133.0</ele><time>2026-04-22T16:20:26.86Z</time></trkpt><trkpt lat="45.4088347" lon="10.5396125"><ele>133.0</ele><time>2026-04-22T16:20:30.854Z</time></trkpt><trkpt lat="45.4088743" lon="10.5397091"><ele>133.0</ele><time>2026-04-22T16:20:34.858Z</time></trkpt><trkpt lat="45.4089167" lon="10.5398601"><ele>133.0</ele><time>2026-04-22T16:21:45.844Z</time></trkpt><trkpt lat="45.4088425" lon="10.5399319"><ele>133.0</ele><time>2026-04-22T16:24:36.859Z</time></trkpt><trkpt lat="45.4089075" lon="10.5399233"><ele>133.0</ele><time>2026-04-22T16:24:52.849Z</time></trkpt><trkpt lat="45.4089674" lon="10.5398925"><ele>133.0</ele><time>2026-04-22T16:25:18.862Z</time></trkpt><trkpt lat="45.408931" lon="10.5399669"><ele>133.0</ele><time>2026-04-22T16:25:54.851Z</time></trkpt><trkpt lat="45.4089726" lon="10.5400982"><ele>133.0</ele><time>2026-04-22T16:29:32.862Z</time></trkpt><trkpt lat="45.4090129" lon="10.5401705"><ele>133.0</ele><time>2026-04-22T16:29:34.848Z</time></trkpt><trkpt lat="45.4090992" lon="10.540273"><ele>133.0</ele><time>2026-04-22T16:29:38.857Z</time></trkpt><trkpt lat="45.4091643" lon="10.5401351"><ele>133.0</ele><time>2026-04-22T16:30:00.852Z</time></trkpt><trkpt lat="45.4090995" lon="10.5401853"><ele>133.0</ele><time>2026-04-22T16:30:17.853Z</time></trkpt><trkpt lat="45.4090791" lon="10.5400706"><ele>133.0</ele><time>2026-04-22T16:30:52.863Z</time></trkpt><trkpt lat="45.4091063" lon="10.5399373"><ele>133.0</ele><time>2026-04-22T16:31:24.86Z</time></trkpt><trkpt lat="45.4090512" lon="10.5398689"><ele>133.0</ele><time>2026-04-22T16:31:46.858Z</time></trkpt><trkpt lat="45.4089632" lon="10.5398858"><ele>133.0</ele><time>2026-04-22T16:31:51.856Z</time></trkpt><trkpt lat="45.4089151" lon="10.5398073"><ele>133.0</ele><time>2026-04-22T16:31:53.854Z</time></trkpt><trkpt lat="45.4088483" lon="10.5398183"><ele>133.0</ele><time>2026-04-22T16:32:47.845Z</time></trkpt><trkpt lat="45.4088455" lon="10.5399282"><ele>133.0</ele><time>2026-04-22T16:32:48.872Z</time></trkpt><trkpt lat="45.4088462" lon="10.5398219"><ele>133.0</ele><time>2026-04-22T16:33:07.851Z</time></trkpt><trkpt lat="45.4088577" lon="10.5399254"><ele>133.0</ele><time>2026-04-22T16:33:49.85Z</time></trkpt><trkpt lat="45.4089529" lon="10.53992"><ele>133.0</ele><time>2026-04-22T16:35:43.853Z</time></trkpt><trkpt lat="45.4088973" lon="10.5399977"><ele>133.0</ele><time>2026-04-22T16:36:12.862Z</time></trkpt><trkpt lat="45.408933" lon="10.539882"><ele>133.0</ele><time>2026-04-22T16:36:40.85Z</time></trkpt><trkpt lat="45.4090359" lon="10.5398524"><ele>133.0</ele><time>2026-04-22T16:37:17.853Z</time></trkpt><trkpt lat="45.4091181" lon="10.5399026"><ele>133.0</ele><time>2026-04-22T16:37:36.848Z</time></trkpt><trkpt lat="45.4091739" lon="10.5399623"><ele>133.0</ele><time>2026-04-22T16:37:39.853Z</time></trkpt><trkpt lat="45.409172" lon="10.5398569"><ele>133.0</ele><time>2026-04-22T16:37:57.855Z</time></trkpt><trkpt lat="45.4090953" lon="10.5397517"><ele>133.0</ele><time>2026-04-22T16:38:37.858Z</time></trkpt><trkpt lat="45.409117" lon="10.5398409"><ele>133.0</ele><time>2026-04-22T16:41:14.857Z</time></trkpt><trkpt lat="45.4090522" lon="10.5397937"><ele>133.0</ele><time>2026-04-22T16:42:12.851Z</time></trkpt><trkpt lat="45.4089895" lon="10.5398587"><ele>133.0</ele><time>2026-04-22T16:43:02.848Z</time></trkpt><trkpt lat="45.4090026" lon="10.5399636"><ele>133.0</ele><time>2026-04-22T16:43:06.86Z</time></trkpt><trkpt lat="45.4089742" lon="10.540081"><ele>133.0</ele><time>2026-04-22T16:43:46.855Z</time></trkpt><trkpt lat="45.4088887" lon="10.53997"><ele>133.0</ele><time>2026-04-22T16:45:01.862Z</time></trkpt><trkpt lat="45.4088234" lon="10.5400121"><ele>133.0</ele><time>2026-04-22T16:45:14.848Z</time></trkpt><trkpt lat="45.4088564" lon="10.539929"><ele>133.0</ele><time>2026-04-22T16:46:03.848Z</time></trkpt><trkpt lat="45.4087894" lon="10.5399839"><ele>133.0</ele><time>2026-04-22T16:46:13.848Z</time></trkpt><trkpt lat="45.4088273" lon="10.5399069"><ele>133.0</ele><time>2026-04-22T16:46:27.848Z</time></trkpt><trkpt lat="45.4089248" lon="10.5399055"><ele>133.0</ele><time>2026-04-22T16:46:55.856Z</time></trkpt><trkpt lat="45.4088795" lon="10.5400018"><ele>133.0</ele><time>2026-04-22T16:47:49.848Z</time></trkpt><trkpt lat="45.4088242" lon="10.5400649"><ele>133.0</ele><time>2026-04-22T16:47:51.851Z</time></trkpt><trkpt lat="45.4089002" lon="10.5401316"><ele>133.0</ele><time>2026-04-22T16:48:16.857Z</time></trkpt><trkpt lat="45.4088943" lon="10.5399908"><ele>133.0</ele><time>2026-04-22T16:48:24.855Z</time></trkpt><trkpt lat="45.4088809" lon="10.5398583"><ele>133.0</ele><time>2026-04-22T16:48:28.849Z</time></trkpt><trkpt lat="45.4088627" lon="10.5397316"><ele>133.0</ele><time>2026-04-22T16:48:31.853Z</time></trkpt><trkpt lat="45.4088229" lon="10.5395562"><ele>133.0</ele><time>2026-04-22T16:48:38.847Z</time></trkpt><trkpt lat="45.4088449" lon="10.5397113"><ele>133.0</ele><time>2026-04-22T16:49:43.853Z</time></trkpt><trkpt lat="45.4089336" lon="10.5397391"><ele>133.0</ele><time>2026-04-22T16:50:13.856Z</time></trkpt><trkpt lat="45.4088875" lon="10.539813"><ele>133.0</ele><time>2026-04-22T16:50:35.848Z</time></trkpt><trkpt lat="45.4089669" lon="10.5399336"><ele>133.0</ele><time>2026-04-22T16:50:46.859Z</time></trkpt><trkpt lat="45.4089405" lon="10.5400252"><ele>133.0</ele><time>2026-04-22T16:50:48.847Z</time></trkpt><trkpt lat="45.4090076" lon="10.5401045"><ele>133.0</ele><time>2026-04-22T16:51:15.853Z</time></trkpt><trkpt lat="45.4090141" lon="10.53998"><ele>133.0</ele><time>2026-04-22T16:51:32.851Z</time></trkpt><trkpt lat="45.4089412" lon="10.5398803"><ele>133.0</ele><time>2026-04-22T16:51:53.85Z</time></trkpt><trkpt lat="45.4088886" lon="10.5399631"><ele>133.0</ele><time>2026-04-22T16:51:56.858Z</time></trkpt><trkpt lat="45.4088594" lon="10.5400917"><ele>133.0</ele><time>2026-04-22T16:52:08.859Z</time></trkpt><trkpt lat="45.4089074" lon="10.5400278"><ele>133.0</ele><time>2026-04-22T16:52:29.859Z</time></trkpt><trkpt lat="45.4089524" lon="10.5399344"><ele>133.0</ele><time>2026-04-22T16:52:53.859Z</time></trkpt><trkpt lat="45.4090113" lon="10.5398013"><ele>133.0</ele><time>2026-04-22T16:53:43.854Z</time></trkpt><trkpt lat="45.4090705" lon="10.5398948"><ele>133.0</ele><time>2026-04-22T16:56:18.855Z</time></trkpt><trkpt lat="45.4091699" lon="10.5399641"><ele>133.0</ele><time>2026-04-22T16:56:24.853Z</time></trkpt><trkpt lat="45.4091132" lon="10.5399168"><ele>133.0</ele><time>2026-04-22T16:56:56.85Z</time></trkpt><trkpt lat="45.4091234" lon="10.5400492"><ele>133.0</ele><time>2026-04-22T16:57:18.857Z</time></trkpt><trkpt lat="45.409061" lon="10.5399654"><ele>133.0</ele><time>2026-04-22T16:57:46.838Z</time></trkpt><trkpt lat="45.4089974" lon="10.5399378"><ele>133.0</ele><time>2026-04-22T16:58:43.85Z</time></trkpt><trkpt lat="45.408944" lon="10.5398286"><ele>133.0</ele><time>2026-04-22T16:59:39.85Z</time></trkpt><trkpt lat="45.4089265" lon="10.5397106"><ele>133.0</ele><time>2026-04-22T17:00:06.856Z</time></trkpt><trkpt lat="45.4089505" lon="10.5398254"><ele>133.0</ele><time>2026-04-22T17:00:25.861Z</time></trkpt><trkpt lat="45.4089463" lon="10.5399792"><ele>133.0</ele><time>2026-04-22T17:00:46.852Z</time></trkpt><trkpt lat="45.4089956" lon="10.5399087"><ele>133.0</ele><time>2026-04-22T17:03:14.854Z</time></trkpt><trkpt lat="45.4090697" lon="10.539762"><ele>133.0</ele><time>2026-04-22T17:03:46.849Z</time></trkpt><trkpt lat="45.4090024" lon="10.5397886"><ele>133.0</ele><time>2026-04-22T17:04:06.851Z</time></trkpt><trkpt lat="45.4090669" lon="10.5397764"><ele>133.0</ele><time>2026-04-22T17:05:43.859Z</time></trkpt><trkpt lat="45.4091105" lon="10.5397055"><ele>133.0</ele><time>2026-04-22T17:05:47.851Z</time></trkpt><trkpt lat="45.4091706" lon="10.5396788"><ele>133.0</ele><time>2026-04-22T17:06:06.856Z</time></trkpt><trkpt lat="45.4092341" lon="10.5396323"><ele>133.0</ele><time>2026-04-22T17:06:08.857Z</time></trkpt><trkpt lat="45.4092968" lon="10.5395723"><ele>133.0</ele><time>2026-04-22T17:06:11.847Z</time></trkpt><trkpt lat="45.4093513" lon="10.5395077"><ele>133.0</ele><time>2026-04-22T17:06:14.858Z</time></trkpt><trkpt lat="45.4092889" lon="10.5395642"><ele>133.0</ele><time>2026-04-22T17:06:20.851Z</time></trkpt><trkpt lat="45.4091932" lon="10.5396295"><ele>133.0</ele><time>2026-04-22T17:06:32.859Z</time></trkpt><trkpt lat="45.4091282" lon="10.5397067"><ele>133.0</ele><time>2026-04-22T17:06:35.844Z</time></trkpt><trkpt lat="45.4090715" lon="10.5398008"><ele>133.0</ele><time>2026-04-22T17:06:45.852Z</time></trkpt><trkpt lat="45.4090205" lon="10.5398624"><ele>133.0</ele><time>2026-04-22T17:06:47.85Z</time></trkpt><trkpt lat="45.4090559" lon="10.5397875"><ele>133.0</ele><time>2026-04-22T17:07:15.854Z</time></trkpt><trkpt lat="45.409113" lon="10.5397059"><ele>133.0</ele><time>2026-04-22T17:07:18.85Z</time></trkpt><trkpt lat="45.4091036" lon="10.5395973"><ele>133.0</ele><time>2026-04-22T17:07:40.853Z</time></trkpt><trkpt lat="45.40909" lon="10.5397004"><ele>133.0</ele><time>2026-04-22T17:08:03.861Z</time></trkpt><trkpt lat="45.4090097" lon="10.5397991"><ele>133.0</ele><time>2026-04-22T17:08:08.85Z</time></trkpt><trkpt lat="45.4090592" lon="10.5397264"><ele>133.0</ele><time>2026-04-22T17:08:33.851Z</time></trkpt><trkpt lat="45.4091118" lon="10.53964"><ele>133.0</ele><time>2026-04-22T17:08:37.861Z</time></trkpt><trkpt lat="45.4090422" lon="10.5398104"><ele>133.0</ele><time>2026-04-22T17:09:45.85Z</time></trkpt><trkpt lat="45.409099" lon="10.5397523"><ele>133.0</ele><time>2026-04-22T17:11:48.851Z</time></trkpt><trkpt lat="45.4092042" lon="10.5397666"><ele>133.0</ele><time>2026-04-22T17:12:37.851Z</time></trkpt><trkpt lat="45.4092225" lon="10.5396288"><ele>133.0</ele><time>2026-04-22T17:13:26.849Z</time></trkpt><trkpt lat="45.4093047" lon="10.539508"><ele>133.0</ele><time>2026-04-22T17:14:14.854Z</time></trkpt><trkpt lat="45.4092263" lon="10.5395548"><ele>133.0</ele><time>2026-04-22T17:14:28.856Z</time></trkpt><trkpt lat="45.4091125" lon="10.5396245"><ele>133.0</ele><time>2026-04-22T17:14:50.852Z</time></trkpt><trkpt lat="45.4090963" lon="10.5395035"><ele>133.0</ele><time>2026-04-22T17:16:47.855Z</time></trkpt><trkpt lat="45.4091589" lon="10.5395323"><ele>133.0</ele><time>2026-04-22T17:17:39.85Z</time></trkpt><trkpt lat="45.40915" lon="10.5396326"><ele>133.0</ele><time>2026-04-22T17:17:42.857Z</time></trkpt><trkpt lat="45.4090549" lon="10.539583"><ele>133.0</ele><time>2026-04-22T17:18:08.857Z</time></trkpt><trkpt lat="45.409112" lon="10.5396827"><ele>133.0</ele><time>2026-04-22T17:18:33.854Z</time></trkpt><trkpt lat="45.4091549" lon="10.5397779"><ele>133.0</ele><time>2026-04-22T17:18:37.849Z</time></trkpt><trkpt lat="45.4091367" lon="10.5398922"><ele>133.0</ele><time>2026-04-22T17:19:12.856Z</time></trkpt><trkpt lat="45.409091" lon="10.5397931"><ele>133.0</ele><time>2026-04-22T17:19:25.849Z</time></trkpt><trkpt lat="45.4089904" lon="10.5395496"><ele>133.0</ele><time>2026-04-22T17:20:29.853Z</time></trkpt><trkpt lat="45.4089204" lon="10.5395149"><ele>132.20000000000002</ele><time>2026-04-22T17:20:39.845Z</time></trkpt><trkpt lat="45.4088321" lon="10.5394596"><ele>131.4</ele><time>2026-04-22T17:20:41.85Z</time></trkpt><trkpt lat="45.4087569" lon="10.5394291"><ele>130.60000000000002</ele><time>2026-04-22T17:20:54.849Z</time></trkpt><trkpt lat="45.408708" lon="10.5393527"><ele>129.8</ele><time>2026-04-22T17:20:57.861Z</time></trkpt><trkpt lat="45.4086595" lon="10.5392475"><ele>129.0</ele><time>2026-04-22T17:21:09.856Z</time></trkpt><trkpt lat="45.4088807" lon="10.5392594"><ele>131.0</ele><time>2026-04-22T17:22:08.842Z</time></trkpt><trkpt lat="45.4089319" lon="10.5397525"><ele>133.0</ele><time>2026-04-22T17:22:28.853Z</time></trkpt><trkpt lat="45.4089744" lon="10.5401011"><ele>133.0</ele><time>2026-04-22T17:22:30.853Z</time></trkpt><trkpt lat="45.4089863" lon="10.5402566"><ele>133.0</ele><time>2026-04-22T17:22:36.85Z</time></trkpt><trkpt lat="45.4089199" lon="10.5402296"><ele>133.0</ele><time>2026-04-22T17:22:41.846Z</time></trkpt><trkpt lat="45.4089254" lon="10.5400935"><ele>133.0</ele><time>2026-04-22T17:22:48.854Z</time></trkpt><trkpt lat="45.4088966" lon="10.5399588"><ele>133.0</ele><time>2026-04-22T17:23:00.856Z</time></trkpt><trkpt lat="45.4089083" lon="10.5398265"><ele>133.0</ele><time>2026-04-22T17:23:03.853Z</time></trkpt><trkpt lat="45.408954" lon="10.5397597"><ele>133.0</ele><time>2026-04-22T17:23:06.847Z</time></trkpt><trkpt lat="45.4089412" lon="10.5396418"><ele>133.0</ele><time>2026-04-22T17:24:43.852Z</time></trkpt><trkpt lat="45.4089303" lon="10.5395398"><ele>133.0</ele><time>2026-04-22T17:25:29.852Z</time></trkpt><trkpt lat="45.408899" lon="10.5394313"><ele>133.0</ele><time>2026-04-22T17:25:38.853Z</time></trkpt><trkpt lat="45.4088683" lon="10.5395533"><ele>133.0</ele><time>2026-04-22T17:25:54.849Z</time></trkpt><trkpt lat="45.4088907" lon="10.5397324"><ele>133.0</ele><time>2026-04-22T17:26:06.848Z</time></trkpt><trkpt lat="45.4089379" lon="10.5398419"><ele>133.0</ele><time>2026-04-22T17:26:10.856Z</time></trkpt><trkpt lat="45.4089612" lon="10.5397492"><ele>133.0</ele><time>2026-04-22T17:26:30.848Z</time></trkpt><trkpt lat="45.4089926" lon="10.5396282"><ele>133.0</ele><time>2026-04-22T17:27:03.848Z</time></trkpt><trkpt lat="45.409036" lon="10.5395587"><ele>133.0</ele><time>2026-04-22T17:32:15.849Z</time></trkpt><trkpt lat="45.4089759" lon="10.539613"><ele>133.0</ele><time>2026-04-22T17:33:11.848Z</time></trkpt><trkpt lat="45.4089475" lon="10.5397371"><ele>133.0</ele><time>2026-04-22T17:33:15.846Z</time></trkpt><trkpt lat="45.4090119" lon="10.5398354"><ele>133.0</ele><time>2026-04-22T17:34:09.848Z</time></trkpt><trkpt lat="45.4090259" lon="10.5396467"><ele>133.0</ele><time>2026-04-22T17:34:19.849Z</time></trkpt><trkpt lat="45.4090866" lon="10.539507"><ele>133.0</ele><time>2026-04-22T17:34:29.854Z</time></trkpt><trkpt lat="45.4090507" lon="10.5396129"><ele>133.0</ele><time>2026-04-22T17:34:42.846Z</time></trkpt><trkpt lat="45.409028" lon="10.5397898"><ele>133.0</ele><time>2026-04-22T17:35:05.856Z</time></trkpt><trkpt lat="45.4090515" lon="10.5397022"><ele>133.0</ele><time>2026-04-22T17:35:20.846Z</time></trkpt><trkpt lat="45.4090789" lon="10.5398272"><ele>133.0</ele><time>2026-04-22T17:35:55.849Z</time></trkpt><trkpt lat="45.4090379" lon="10.5399144"><ele>133.0</ele><time>2026-04-22T17:35:57.847Z</time></trkpt><trkpt lat="45.4089338" lon="10.5398556"><ele>133.0</ele><time>2026-04-22T17:36:27.849Z</time></trkpt><trkpt lat="45.4088715" lon="10.5398871"><ele>133.0</ele><time>2026-04-22T17:36:34.859Z</time></trkpt><trkpt lat="45.4089718" lon="10.5397779"><ele>133.0</ele><time>2026-04-22T17:37:44.849Z</time></trkpt><trkpt lat="45.4090753" lon="10.5396423"><ele>133.0</ele><time>2026-04-22T17:37:54.856Z</time></trkpt><trkpt lat="45.4091398" lon="10.5395783"><ele>133.0</ele><time>2026-04-22T17:37:56.853Z</time></trkpt><trkpt lat="45.4092287" lon="10.5394721"><ele>133.0</ele><time>2026-04-22T17:38:00.845Z</time></trkpt><trkpt lat="45.4091671" lon="10.5394431"><ele>133.0</ele><time>2026-04-22T17:38:31.854Z</time></trkpt><trkpt lat="45.409262" lon="10.5394966"><ele>132.33333333333334</ele><time>2026-04-22T17:39:17.851Z</time></trkpt><trkpt lat="45.4091986" lon="10.5395154"><ele>131.66666666666669</ele><time>2026-04-22T17:39:24.854Z</time></trkpt><trkpt lat="45.4092626" lon="10.5394494"><ele>131.0</ele><time>2026-04-22T17:39:46.849Z</time></trkpt><trkpt lat="45.4093423" lon="10.5394166"><ele>130.33333333333334</ele><time>2026-04-22T17:40:06.854Z</time></trkpt><trkpt lat="45.4094279" lon="10.5393636"><ele>129.66666666666666</ele><time>2026-04-22T17:40:27.847Z</time></trkpt><trkpt lat="45.4094499" lon="10.5392559"><ele>129.0</ele><time>2026-04-22T17:41:11.847Z</time></trkpt><trkpt lat="45.4093173" lon="10.5392326"><ele>129.0</ele><time>2026-04-22T17:42:03.855Z</time></trkpt><trkpt lat="45.4092143" lon="10.5392263"><ele>129.0</ele><time>2026-04-22T17:42:17.857Z</time></trkpt><trkpt lat="45.4090864" lon="10.5392328"><ele>129.0</ele><time>2026-04-22T17:42:35.855Z</time></trkpt><trkpt lat="45.4090288" lon="10.5399029"><ele>130.0</ele><time>2026-04-22T17:43:12.632Z</time></trkpt><trkpt lat="45.4092494" lon="10.5396923"><ele>131.0</ele><time>2026-04-22T17:43:20.846Z</time></trkpt><trkpt lat="45.4092072" lon="10.539765"><ele>132.0</ele><time>2026-04-22T17:43:29.849Z</time></trkpt><trkpt lat="45.4091095" lon="10.5398303"><ele>133.0</ele><time>2026-04-22T17:43:51.847Z</time></trkpt><trkpt lat="45.4091128" lon="10.5397277"><ele>133.0</ele><time>2026-04-22T17:44:11.853Z</time></trkpt><trkpt lat="45.4091528" lon="10.5396423"><ele>133.0</ele><time>2026-04-22T17:44:13.853Z</time></trkpt><trkpt lat="45.4092426" lon="10.5394693"><ele>133.0</ele><time>2026-04-22T17:44:17.846Z</time></trkpt><trkpt lat="45.4092884" lon="10.5393845"><ele>133.0</ele><time>2026-04-22T17:44:18.846Z</time></trkpt><trkpt lat="45.4093313" lon="10.5393176"><ele>133.0</ele><time>2026-04-22T17:44:21.85Z</time></trkpt><trkpt lat="45.4093898" lon="10.5392478"><ele>133.0</ele><time>2026-04-22T17:44:27.851Z</time></trkpt><trkpt lat="45.4093644" lon="10.5393483"><ele>133.0</ele><time>2026-04-22T17:44:43.853Z</time></trkpt><trkpt lat="45.4092784" lon="10.539495"><ele>133.0</ele><time>2026-04-22T17:45:03.848Z</time></trkpt><trkpt lat="45.4091771" lon="10.5396185"><ele>133.0</ele><time>2026-04-22T17:45:06.846Z</time></trkpt><trkpt lat="45.4091251" lon="10.5396907"><ele>133.0</ele><time>2026-04-22T17:45:08.848Z</time></trkpt><trkpt lat="45.409069" lon="10.5397826"><ele>133.0</ele><time>2026-04-22T17:45:34.855Z</time></trkpt><trkpt lat="45.4090013" lon="10.5398914"><ele>133.0</ele><time>2026-04-22T17:45:46.844Z</time></trkpt><trkpt lat="45.4089133" lon="10.5399953"><ele>133.0</ele><time>2026-04-22T17:45:59.849Z</time></trkpt><trkpt lat="45.408833" lon="10.5400541"><ele>133.0</ele><time>2026-04-22T17:46:15.845Z</time></trkpt><trkpt lat="45.4088775" lon="10.5399711"><ele>133.0</ele><time>2026-04-22T17:46:41.853Z</time></trkpt><trkpt lat="45.4089262" lon="10.5398821"><ele>133.0</ele><time>2026-04-22T17:46:51.846Z</time></trkpt><trkpt lat="45.408979" lon="10.5397802"><ele>133.0</ele><time>2026-04-22T17:47:04.854Z</time></trkpt><trkpt lat="45.4090218" lon="10.5396653"><ele>133.0</ele><time>2026-04-22T17:47:39.851Z</time></trkpt><trkpt lat="45.4089432" lon="10.539747"><ele>133.0</ele><time>2026-04-22T17:48:09.85Z</time></trkpt><trkpt lat="45.4089001" lon="10.5398169"><ele>133.0</ele><time>2026-04-22T17:48:11.851Z</time></trkpt><trkpt lat="45.4087849" lon="10.5399047"><ele>133.0</ele><time>2026-04-22T17:48:35.851Z</time></trkpt><trkpt lat="45.4086965" lon="10.5399611"><ele>133.0</ele><time>2026-04-22T17:48:38.846Z</time></trkpt><trkpt lat="45.4087694" lon="10.5400237"><ele>133.0</ele><time>2026-04-22T17:49:06.851Z</time></trkpt><trkpt lat="45.4088441" lon="10.5400101"><ele>133.0</ele><time>2026-04-22T17:49:09.845Z</time></trkpt><trkpt lat="45.4089284" lon="10.5399908"><ele>133.0</ele><time>2026-04-22T17:49:14.852Z</time></trkpt><trkpt lat="45.40887" lon="10.54003"><ele>133.0</ele><time>2026-04-22T17:50:07.846Z</time></trkpt><trkpt lat="45.4088546" lon="10.5399241"><ele>133.0</ele><time>2026-04-22T17:50:09.848Z</time></trkpt><trkpt lat="45.4087855" lon="10.5399662"><ele>133.0</ele><time>2026-04-22T17:50:11.85Z</time></trkpt><trkpt lat="45.4087389" lon="10.540041"><ele>133.0</ele><time>2026-04-22T17:50:43.853Z</time></trkpt><trkpt lat="45.4088681" lon="10.5399676"><ele>133.0</ele><time>2026-04-22T17:51:13.848Z</time></trkpt><trkpt lat="45.4090156" lon="10.5397568"><ele>133.0</ele><time>2026-04-22T17:51:15.854Z</time></trkpt><trkpt lat="45.4090558" lon="10.5396863"><ele>133.0</ele><time>2026-04-22T17:51:16.852Z</time></trkpt><trkpt lat="45.4090889" lon="10.5396049"><ele>133.0</ele><time>2026-04-22T17:51:17.856Z</time></trkpt><trkpt lat="45.4091274" lon="10.5395021"><ele>133.0</ele><time>2026-04-22T17:51:19.858Z</time></trkpt><trkpt lat="45.4090837" lon="10.5396064"><ele>133.0</ele><time>2026-04-22T17:51:28.856Z</time></trkpt><trkpt lat="45.4090119" lon="10.5397608"><ele>133.0</ele><time>2026-04-22T17:51:56.853Z</time></trkpt><trkpt lat="45.4090833" lon="10.539755"><ele>133.0</ele><time>2026-04-22T17:52:39.848Z</time></trkpt><trkpt lat="45.4090087" lon="10.5398219"><ele>133.0</ele><time>2026-04-22T17:53:58.852Z</time></trkpt><trkpt lat="45.4089554" lon="10.5398816"><ele>133.0</ele><time>2026-04-22T17:54:00.846Z</time></trkpt><trkpt lat="45.4088673" lon="10.5399573"><ele>131.5</ele><time>2026-04-22T17:54:13.863Z</time></trkpt><trkpt lat="45.4087845" lon="10.5399636"><ele>130.0</ele><time>2026-04-22T17:55:08.854Z</time></trkpt><trkpt lat="45.4086796" lon="10.5400452"><ele>128.5</ele><time>2026-04-22T17:55:12.848Z</time></trkpt><trkpt lat="45.4086237" lon="10.540088"><ele>127.0</ele><time>2026-04-22T17:55:14.847Z</time></trkpt><trkpt lat="45.4085559" lon="10.5401084"><ele>125.50000000000001</ele><time>2026-04-22T17:55:16.844Z</time></trkpt><trkpt lat="45.4084863" lon="10.5401136"><ele>124.0</ele><time>2026-04-22T17:55:19.856Z</time></trkpt><trkpt lat="45.4085782" lon="10.5401349"><ele>124.0</ele><time>2026-04-22T17:55:51.849Z</time></trkpt><trkpt lat="45.4086841" lon="10.5401117"><ele>124.0</ele><time>2026-04-22T17:55:56.847Z</time></trkpt><trkpt lat="45.4087914" lon="10.5400749"><ele>124.0</ele><time>2026-04-22T17:56:06.856Z</time></trkpt><trkpt lat="45.4088028" lon="10.5399552"><ele>124.0</ele><time>2026-04-22T17:57:01.852Z</time></trkpt><trkpt lat="45.4088464" lon="10.5398472"><ele>124.0</ele><time>2026-04-22T17:57:03.848Z</time></trkpt><trkpt lat="45.4088901" lon="10.5397804"><ele>125.80000000000001</ele><time>2026-04-22T17:57:04.849Z</time></trkpt><trkpt lat="45.4089442" lon="10.5397078"><ele>127.60000000000001</ele><time>2026-04-22T17:57:07.849Z</time></trkpt><trkpt lat="45.4089945" lon="10.5396299"><ele>129.4</ele><time>2026-04-22T17:57:09.845Z</time></trkpt><trkpt lat="45.4089505" lon="10.5397388"><ele>131.20000000000002</ele><time>2026-04-22T17:57:40.848Z</time></trkpt><trkpt lat="45.4088606" lon="10.5398814"><ele>133.0</ele><time>2026-04-22T17:57:50.848Z</time></trkpt><trkpt lat="45.4089114" lon="10.5397421"><ele>133.0</ele><time>2026-04-22T17:59:19.848Z</time></trkpt><trkpt lat="45.4089634" lon="10.5396728"><ele>133.0</ele><time>2026-04-22T17:59:55.853Z</time></trkpt><trkpt lat="45.4089071" lon="10.5397663"><ele>133.0</ele><time>2026-04-22T18:00:22.853Z</time></trkpt><trkpt lat="45.4088471" lon="10.5398006"><ele>133.0</ele><time>2026-04-22T18:00:26.855Z</time></trkpt><trkpt lat="45.4087997" lon="10.5399135"><ele>133.0</ele><time>2026-04-22T18:01:04.849Z</time></trkpt><trkpt lat="45.4087891" lon="10.5398107"><ele>133.0</ele><time>2026-04-22T18:01:30.851Z</time></trkpt><trkpt lat="45.4087786" lon="10.5399044"><ele>133.0</ele><time>2026-04-22T18:01:40.85Z</time></trkpt><trkpt lat="45.408737" lon="10.5399889"><ele>133.0</ele><time>2026-04-22T18:01:41.852Z</time></trkpt><trkpt lat="45.4087388" lon="10.5400991"><ele>133.0</ele><time>2026-04-22T18:02:39.85Z</time></trkpt><trkpt lat="45.4086716" lon="10.540118"><ele>133.0</ele><time>2026-04-22T18:03:29.853Z</time></trkpt><trkpt lat="45.40872" lon="10.5400151"><ele>133.0</ele><time>2026-04-22T18:04:21.845Z</time></trkpt><trkpt lat="45.4087646" lon="10.5399123"><ele>133.0</ele><time>2026-04-22T18:05:23.85Z</time></trkpt><trkpt lat="45.4088471" lon="10.539841"><ele>133.0</ele><time>2026-04-22T18:05:27.845Z</time></trkpt><trkpt lat="45.4089236" lon="10.539792"><ele>133.0</ele><time>2026-04-22T18:05:32.855Z</time></trkpt><trkpt lat="45.4088759" lon="10.5398564"><ele>133.0</ele><time>2026-04-22T18:05:40.853Z</time></trkpt><trkpt lat="45.4087771" lon="10.539953"><ele>133.0</ele><time>2026-04-22T18:05:50.848Z</time></trkpt><trkpt lat="45.4087004" lon="10.5399897"><ele>133.0</ele><time>2026-04-22T18:05:53.851Z</time></trkpt><trkpt lat="45.4088013" lon="10.5399359"><ele>133.0</ele><time>2026-04-22T18:06:03.851Z</time></trkpt><trkpt lat="45.4087108" lon="10.5399968"><ele>133.0</ele><time>2026-04-22T18:06:30.848Z</time></trkpt><trkpt lat="45.4086213" lon="10.5400395"><ele>133.0</ele><time>2026-04-22T18:06:33.846Z</time></trkpt><trkpt lat="45.4086873" lon="10.5400237"><ele>133.0</ele><time>2026-04-22T18:07:05.845Z</time></trkpt><trkpt lat="45.4087734" lon="10.5399949"><ele>133.0</ele><time>2026-04-22T18:07:13.847Z</time></trkpt><trkpt lat="45.4088794" lon="10.5399175"><ele>133.0</ele><time>2026-04-22T18:07:22.853Z</time></trkpt><trkpt lat="45.4089578" lon="10.5398857"><ele>133.0</ele><time>2026-04-22T18:07:24.857Z</time></trkpt><trkpt lat="45.4090729" lon="10.5398452"><ele>133.0</ele><time>2026-04-22T18:07:43.85Z</time></trkpt><trkpt lat="45.4089772" lon="10.5398579"><ele>133.0</ele><time>2026-04-22T18:08:13.853Z</time></trkpt><trkpt lat="45.4090226" lon="10.5396899"><ele>133.0</ele><time>2026-04-22T18:10:34.85Z</time></trkpt><trkpt lat="45.4089309" lon="10.5398444"><ele>133.0</ele><time>2026-04-22T18:12:17.86Z</time></trkpt><trkpt lat="45.4088263" lon="10.5398937"><ele>133.0</ele><time>2026-04-22T18:13:30.856Z</time></trkpt><trkpt lat="45.4089246" lon="10.5399101"><ele>133.0</ele><time>2026-04-22T18:14:11.853Z</time></trkpt><trkpt lat="45.408853" lon="10.5399161"><ele>133.0</ele><time>2026-04-22T18:14:44.855Z</time></trkpt><trkpt lat="45.4087607" lon="10.5399697"><ele>133.0</ele><time>2026-04-22T18:14:47.848Z</time></trkpt><trkpt lat="45.4086964" lon="10.5400432"><ele>133.0</ele><time>2026-04-22T18:14:50.849Z</time></trkpt><trkpt lat="45.408758" lon="10.5399818"><ele>133.0</ele><time>2026-04-22T18:15:16.856Z</time></trkpt><trkpt lat="45.4088112" lon="10.5399307"><ele>133.0</ele><time>2026-04-22T18:15:18.851Z</time></trkpt><trkpt lat="45.408907" lon="10.5399011"><ele>133.0</ele><time>2026-04-22T18:15:25.863Z</time></trkpt><trkpt lat="45.4090097" lon="10.539805"><ele>133.0</ele><time>2026-04-22T18:15:34.858Z</time></trkpt><trkpt lat="45.4089129" lon="10.5398525"><ele>133.0</ele><time>2026-04-22T18:22:54.863Z</time></trkpt><trkpt lat="45.4090455" lon="10.5398164"><ele>133.0</ele><time>2026-04-22T18:25:20.855Z</time></trkpt><trkpt lat="45.40897" lon="10.5398517"><ele>133.0</ele><time>2026-04-22T18:25:57.849Z</time></trkpt><trkpt lat="45.4090517" lon="10.5398867"><ele>133.0</ele><time>2026-04-22T18:27:44.849Z</time></trkpt><trkpt lat="45.4090488" lon="10.5399964"><ele>133.0</ele><time>2026-04-22T18:28:56.846Z</time></trkpt><trkpt lat="45.4089867" lon="10.5399417"><ele>133.0</ele><time>2026-04-22T18:31:05.844Z</time></trkpt><trkpt lat="45.4090401" lon="10.5398628"><ele>133.0</ele><time>2026-04-22T18:31:06.848Z</time></trkpt><trkpt lat="45.4089735" lon="10.539804"><ele>133.0</ele><time>2026-04-22T18:33:31.845Z</time></trkpt><trkpt lat="45.4090348" lon="10.5398361"><ele>133.0</ele><time>2026-04-22T18:33:49.846Z</time></trkpt><trkpt lat="45.4089714" lon="10.5397727"><ele>133.0</ele><time>2026-04-22T18:34:52.852Z</time></trkpt><trkpt lat="45.4090118" lon="10.5398576"><ele>133.0</ele><time>2026-04-22T18:35:05.853Z</time></trkpt><trkpt lat="45.4091246" lon="10.5398746"><ele>133.0</ele><time>2026-04-22T18:36:24.842Z</time></trkpt><trkpt lat="45.4092097" lon="10.5398208"><ele>133.0</ele><time>2026-04-22T18:38:59.845Z</time></trkpt><trkpt lat="45.4091542" lon="10.5397294"><ele>133.0</ele><time>2026-04-22T18:39:48.845Z</time></trkpt><trkpt lat="45.4090255" lon="10.5396784"><ele>133.0</ele><time>2026-04-22T18:40:14.848Z</time></trkpt><trkpt lat="45.4089631" lon="10.5396441"><ele>133.0</ele><time>2026-04-22T18:40:17.85Z</time></trkpt><trkpt lat="45.4088813" lon="10.5395998"><ele>133.0</ele><time>2026-04-22T18:40:24.852Z</time></trkpt><trkpt lat="45.4089442" lon="10.5396183"><ele>133.0</ele><time>2026-04-22T18:40:46.846Z</time></trkpt><trkpt lat="45.4090243" lon="10.5396855"><ele>133.0</ele><time>2026-04-22T18:41:03.841Z</time></trkpt><trkpt lat="45.4091011" lon="10.5396986"><ele>133.0</ele><time>2026-04-22T18:42:25.858Z</time></trkpt><trkpt lat="45.4090418" lon="10.539653"><ele>133.0</ele><time>2026-04-22T18:42:51.851Z</time></trkpt><trkpt lat="45.4091027" lon="10.5396939"><ele>133.0</ele><time>2026-04-22T18:43:30.859Z</time></trkpt><trkpt lat="45.4090356" lon="10.5396612"><ele>133.0</ele><time>2026-04-22T18:43:52.845Z</time></trkpt><trkpt lat="45.4089784" lon="10.5397491"><ele>133.0</ele><time>2026-04-22T18:48:24.843Z</time></trkpt><trkpt lat="45.4089091" lon="10.5396816"><ele>133.0</ele><time>2026-04-22T18:48:52.853Z</time></trkpt><trkpt lat="45.4089972" lon="10.5397714"><ele>133.0</ele><time>2026-04-22T18:53:21.855Z</time></trkpt><trkpt lat="45.4089348" lon="10.5397265"><ele>133.0</ele><time>2026-04-22T18:57:13.851Z</time></trkpt><trkpt lat="45.408796" lon="10.539672"><ele>133.0</ele><time>2026-04-22T18:57:42.844Z</time></trkpt><trkpt lat="45.4088337" lon="10.5397927"><ele>133.0</ele><time>2026-04-22T18:57:51.846Z</time></trkpt><trkpt lat="45.408904" lon="10.5398263"><ele>133.0</ele><time>2026-04-22T18:57:54.851Z</time></trkpt><trkpt lat="45.4089847" lon="10.539848"><ele>133.0</ele><time>2026-04-22T18:58:20.85Z</time></trkpt><trkpt lat="45.4089447" lon="10.539722"><ele>133.0</ele><time>2026-04-22T18:59:25.854Z</time></trkpt><trkpt lat="45.4090122" lon="10.539764"><ele>133.0</ele><time>2026-04-22T18:59:47.848Z</time></trkpt><trkpt lat="45.40908" lon="10.539745"><ele>133.0</ele><time>2026-04-22T19:01:18.843Z</time></trkpt><trkpt lat="45.4091555" lon="10.5397436"><ele>133.0</ele><time>2026-04-22T19:01:19.853Z</time></trkpt><trkpt lat="45.4090625" lon="10.539799"><ele>133.0</ele><time>2026-04-22T19:02:32.851Z</time></trkpt><trkpt lat="45.4091425" lon="10.5397716"><ele>133.0</ele><time>2026-04-22T19:03:40.849Z</time></trkpt><trkpt lat="45.409071" lon="10.5397221"><ele>133.0</ele><time>2026-04-22T19:03:58.852Z</time></trkpt><trkpt lat="45.4089778" lon="10.5396996"><ele>133.0</ele><time>2026-04-22T19:04:21.846Z</time></trkpt><trkpt lat="45.4090562" lon="10.5397232"><ele>133.0</ele><time>2026-04-22T19:04:44.852Z</time></trkpt><trkpt lat="45.4091689" lon="10.5397757"><ele>133.0</ele><time>2026-04-22T19:04:56.849Z</time></trkpt><trkpt lat="45.4091054" lon="10.5398134"><ele>133.0</ele><time>2026-04-22T19:05:48.846Z</time></trkpt><trkpt lat="45.4089999" lon="10.5397664"><ele>133.0</ele><time>2026-04-22T19:07:06.855Z</time></trkpt><trkpt lat="45.408899" lon="10.5397478"><ele>133.0</ele><time>2026-04-22T19:07:39.85Z</time></trkpt><trkpt lat="45.4089227" lon="10.5398534"><ele>133.0</ele><time>2026-04-22T19:08:26.847Z</time></trkpt><trkpt lat="45.409014" lon="10.5399408"><ele>133.0</ele><time>2026-04-22T19:08:39.843Z</time></trkpt><trkpt lat="45.4089311" lon="10.5399323"><ele>133.0</ele><time>2026-04-22T19:08:51.844Z</time></trkpt><trkpt lat="45.4088758" lon="10.539858"><ele>133.0</ele><time>2026-04-22T19:09:11.843Z</time></trkpt><trkpt lat="45.4088391" lon="10.5397068"><ele>133.0</ele><time>2026-04-22T19:09:28.843Z</time></trkpt><trkpt lat="45.4087814" lon="10.5395809"><ele>133.0</ele><time>2026-04-22T19:09:38.843Z</time></trkpt><trkpt lat="45.40884" lon="10.5396782"><ele>133.0</ele><time>2026-04-22T19:10:08.845Z</time></trkpt><trkpt lat="45.4089122" lon="10.5397538"><ele>133.0</ele><time>2026-04-22T19:10:10.845Z</time></trkpt><trkpt lat="45.4089949" lon="10.5398254"><ele>133.0</ele><time>2026-04-22T19:10:14.851Z</time></trkpt><trkpt lat="45.4091167" lon="10.5398016"><ele>133.0</ele><time>2026-04-22T19:10:22.854Z</time></trkpt><trkpt lat="45.4090259" lon="10.5396348"><ele>133.0</ele><time>2026-04-22T19:10:36.856Z</time></trkpt><trkpt lat="45.4089353" lon="10.5395594"><ele>133.0</ele><time>2026-04-22T19:10:57.837Z</time></trkpt><trkpt lat="45.4089865" lon="10.5396539"><ele>133.0</ele><time>2026-04-22T19:11:53.851Z</time></trkpt><trkpt lat="45.409062" lon="10.539738"><ele>133.0</ele><time>2026-04-22T19:12:03.844Z</time></trkpt><trkpt lat="45.4089257" lon="10.5397348"><ele>133.0</ele><time>2026-04-22T19:12:50.844Z</time></trkpt><trkpt lat="45.4090166" lon="10.5397297"><ele>133.0</ele><time>2026-04-22T19:13:14.851Z</time></trkpt><trkpt lat="45.4089479" lon="10.5397761"><ele>133.0</ele><time>2026-04-22T19:13:48.853Z</time></trkpt><trkpt lat="45.4088706" lon="10.5397541"><ele>133.0</ele><time>2026-04-22T19:14:08.845Z</time></trkpt><trkpt lat="45.4088941" lon="10.5396444"><ele>133.0</ele><time>2026-04-22T19:15:15.847Z</time></trkpt><trkpt lat="45.4089938" lon="10.5396129"><ele>133.0</ele><time>2026-04-22T19:15:31.853Z</time></trkpt><trkpt lat="45.4089226" lon="10.5397086"><ele>133.0</ele><time>2026-04-22T19:15:42.85Z</time></trkpt><trkpt lat="45.40884" lon="10.5397293"><ele>133.0</ele><time>2026-04-22T19:15:45.842Z</time></trkpt><trkpt lat="45.4089139" lon="10.5398226"><ele>133.0</ele><time>2026-04-22T19:15:52.847Z</time></trkpt><trkpt lat="45.4089833" lon="10.5397091"><ele>133.0</ele><time>2026-04-22T19:16:52.851Z</time></trkpt><trkpt lat="45.4090916" lon="10.5396118"><ele>133.0</ele><time>2026-04-22T19:18:23.851Z</time></trkpt><trkpt lat="45.4089999" lon="10.5396259"><ele>133.0</ele><time>2026-04-22T19:18:49.851Z</time></trkpt><trkpt lat="45.4090912" lon="10.5396262"><ele>133.0</ele><time>2026-04-22T19:20:50.853Z</time></trkpt><trkpt lat="45.4089827" lon="10.539637"><ele>133.0</ele><time>2026-04-22T19:21:18.848Z</time></trkpt><trkpt lat="45.409036" lon="10.539723"><ele>133.0</ele><time>2026-04-22T19:21:37.846Z</time></trkpt><trkpt lat="45.4089691" lon="10.5396731"><ele>133.0</ele><time>2026-04-22T19:22:17.843Z</time></trkpt><trkpt lat="45.4090331" lon="10.5397096"><ele>133.0</ele><time>2026-04-22T19:24:02.835Z</time></trkpt><trkpt lat="45.4091326" lon="10.5397627"><ele>133.0</ele><time>2026-04-22T19:24:19.843Z</time></trkpt><trkpt lat="45.4090725" lon="10.5396823"><ele>133.0</ele><time>2026-04-22T19:24:43.843Z</time></trkpt><trkpt lat="45.4090711" lon="10.5397827"><ele>133.0</ele><time>2026-04-22T19:25:38.854Z</time></trkpt><trkpt lat="45.409001" lon="10.5397287"><ele>133.0</ele><time>2026-04-22T19:26:05.842Z</time></trkpt><trkpt lat="45.4090689" lon="10.5395884"><ele>133.0</ele><time>2026-04-22T19:29:52.85Z</time></trkpt><trkpt lat="45.4091305" lon="10.53964"><ele>133.0</ele><time>2026-04-22T19:30:17.843Z</time></trkpt><trkpt lat="45.4090601" lon="10.5397307"><ele>133.0</ele><time>2026-04-22T19:30:33.85Z</time></trkpt><trkpt lat="45.4089914" lon="10.5396723"><ele>133.0</ele><time>2026-04-22T19:30:57.849Z</time></trkpt><trkpt lat="45.4089007" lon="10.5396562"><ele>133.0</ele><time>2026-04-22T19:33:06.853Z</time></trkpt><trkpt lat="45.4090031" lon="10.5395513"><ele>133.0</ele><time>2026-04-22T19:36:54.849Z</time></trkpt><trkpt lat="45.4090154" lon="10.5396558"><ele>133.0</ele><time>2026-04-22T19:37:44.848Z</time></trkpt><trkpt lat="45.4091041" lon="10.539665"><ele>133.0</ele><time>2026-04-22T19:38:21.841Z</time></trkpt><trkpt lat="45.4090419" lon="10.5396955"><ele>133.0</ele><time>2026-04-22T19:38:38.846Z</time></trkpt><trkpt lat="45.4089413" lon="10.5396876"><ele>133.0</ele><time>2026-04-22T19:38:45.842Z</time></trkpt><trkpt lat="45.4089647" lon="10.5397784"><ele>133.0</ele><time>2026-04-22T19:39:53.852Z</time></trkpt><trkpt lat="45.4089243" lon="10.5397095"><ele>133.0</ele><time>2026-04-22T19:40:42.848Z</time></trkpt><trkpt lat="45.4089932" lon="10.5396295"><ele>133.0</ele><time>2026-04-22T19:41:00.851Z</time></trkpt><trkpt lat="45.4090723" lon="10.5396374"><ele>133.0</ele><time>2026-04-22T19:41:02.843Z</time></trkpt><trkpt lat="45.4091318" lon="10.5397312"><ele>133.0</ele><time>2026-04-22T19:41:29.844Z</time></trkpt><trkpt lat="45.4090112" lon="10.5397999"><ele>133.0</ele><time>2026-04-22T19:41:53.843Z</time></trkpt><trkpt lat="45.4089318" lon="10.5398372"><ele>133.0</ele><time>2026-04-22T19:42:02.849Z</time></trkpt><trkpt lat="45.4088384" lon="10.5398437"><ele>133.0</ele><time>2026-04-22T19:42:12.854Z</time></trkpt><trkpt lat="45.4089761" lon="10.5399096"><ele>133.0</ele><time>2026-04-22T19:43:31.846Z</time></trkpt><trkpt lat="45.4089148" lon="10.5397931"><ele>133.0</ele><time>2026-04-22T19:43:58.85Z</time></trkpt><trkpt lat="45.4088075" lon="10.5397833"><ele>133.0</ele><time>2026-04-22T19:44:09.845Z</time></trkpt><trkpt lat="45.4088991" lon="10.5398058"><ele>133.0</ele><time>2026-04-22T19:44:41.845Z</time></trkpt><trkpt lat="45.4090073" lon="10.539722"><ele>133.0</ele><time>2026-04-22T19:45:35.846Z</time></trkpt><trkpt lat="45.4090209" lon="10.5398202"><ele>133.0</ele><time>2026-04-22T19:46:25.853Z</time></trkpt><trkpt lat="45.4089569" lon="10.5398202"><ele>133.0</ele><time>2026-04-22T19:48:32.842Z</time></trkpt><trkpt lat="45.4088422" lon="10.5397597"><ele>133.0</ele><time>2026-04-22T19:48:37.851Z</time></trkpt><trkpt lat="45.4087241" lon="10.5397225"><ele>133.0</ele><time>2026-04-22T19:49:29.841Z</time></trkpt><trkpt lat="45.4086534" lon="10.5397453"><ele>133.0</ele><time>2026-04-22T19:49:32.849Z</time></trkpt><trkpt lat="45.4087061" lon="10.5398451"><ele>133.0</ele><time>2026-04-22T19:49:52.979Z</time></trkpt><trkpt lat="45.4088263" lon="10.5398675"><ele>133.0</ele><time>2026-04-22T19:50:07.852Z</time></trkpt><trkpt lat="45.4089533" lon="10.5398401"><ele>133.0</ele><time>2026-04-22T19:50:21.847Z</time></trkpt><trkpt lat="45.4088847" lon="10.5397584"><ele>133.0</ele><time>2026-04-22T19:50:53.846Z</time></trkpt><trkpt lat="45.4087542" lon="10.5397424"><ele>133.0</ele><time>2026-04-22T19:51:14.845Z</time></trkpt><trkpt lat="45.4088032" lon="10.5398151"><ele>133.0</ele><time>2026-04-22T19:51:23.845Z</time></trkpt><trkpt lat="45.4089116" lon="10.5398806"><ele>133.0</ele><time>2026-04-22T19:52:22.841Z</time></trkpt><trkpt lat="45.4089097" lon="10.539787"><ele>133.0</ele><time>2026-04-22T19:54:41.75Z</time></trkpt><trkpt lat="45.408947" lon="10.5399617"><ele>133.0</ele><time>2026-04-22T19:55:39.848Z</time></trkpt><trkpt lat="45.409032" lon="10.53995"><ele>133.0</ele><time>2026-04-22T19:56:02.841Z</time></trkpt><trkpt lat="45.4089839" lon="10.5397911"><ele>133.0</ele><time>2026-04-22T19:56:20.852Z</time></trkpt><trkpt lat="45.409127" lon="10.5398468"><ele>133.0</ele><time>2026-04-22T19:56:46.851Z</time></trkpt><trkpt lat="45.4090633" lon="10.539865"><ele>133.0</ele><time>2026-04-22T19:57:18.854Z</time></trkpt><trkpt lat="45.4090295" lon="10.5397667"><ele>133.0</ele><time>2026-04-22T19:57:19.851Z</time></trkpt><trkpt lat="45.4089312" lon="10.5397736"><ele>133.0</ele><time>2026-04-22T19:57:34.846Z</time></trkpt><trkpt lat="45.4090211" lon="10.5397359"><ele>133.0</ele><time>2026-04-22T19:58:47.848Z</time></trkpt><trkpt lat="45.4091034" lon="10.5397843"><ele>133.0</ele><time>2026-04-22T19:59:10.842Z</time></trkpt><trkpt lat="45.4090675" lon="10.5398813"><ele>133.0</ele><time>2026-04-22T20:00:20.854Z</time></trkpt><trkpt lat="45.4091643" lon="10.5398548"><ele>133.0</ele><time>2026-04-22T20:04:39.844Z</time></trkpt><trkpt lat="45.4090535" lon="10.5398705"><ele>133.0</ele><time>2026-04-22T20:05:34.849Z</time></trkpt><trkpt lat="45.4089397" lon="10.5398961"><ele>133.0</ele><time>2026-04-22T20:05:41.842Z</time></trkpt><trkpt lat="45.4088271" lon="10.5399611"><ele>133.0</ele><time>2026-04-22T20:05:51.843Z</time></trkpt><trkpt lat="45.408954" lon="10.5399286"><ele>133.0</ele><time>2026-04-22T20:07:36.84Z</time></trkpt><trkpt lat="45.409049" lon="10.5399161"><ele>133.0</ele><time>2026-04-22T20:08:11.846Z</time></trkpt><trkpt lat="45.4091493" lon="10.5399187"><ele>133.0</ele><time>2026-04-22T20:08:21.893Z</time></trkpt><trkpt lat="45.4090249" lon="10.5399106"><ele>133.0</ele><time>2026-04-22T20:08:36.865Z</time></trkpt><trkpt lat="45.408948" lon="10.5398196"><ele>133.0</ele><time>2026-04-22T20:09:44.845Z</time></trkpt><trkpt lat="45.4088829" lon="10.5398758"><ele>133.0</ele><time>2026-04-22T20:13:22.847Z</time></trkpt><trkpt lat="45.4089529" lon="10.5398762"><ele>133.0</ele><time>2026-04-22T20:14:05.842Z</time></trkpt><trkpt lat="45.408885" lon="10.5398699"><ele>133.0</ele><time>2026-04-22T20:14:21.844Z</time></trkpt><trkpt lat="45.4088137" lon="10.5398686"><ele>133.0</ele><time>2026-04-22T20:14:28.841Z</time></trkpt><trkpt lat="45.4088817" lon="10.5398603"><ele>133.0</ele><time>2026-04-22T20:14:54.846Z</time></trkpt><trkpt lat="45.4089515" lon="10.5398532"><ele>133.0</ele><time>2026-04-22T20:14:57.849Z</time></trkpt><trkpt lat="45.4090477" lon="10.5398018"><ele>133.0</ele><time>2026-04-22T20:17:18.849Z</time></trkpt><trkpt lat="45.4090575" lon="10.5399073"><ele>133.0</ele><time>2026-04-22T20:21:50.84Z</time></trkpt><trkpt lat="45.4090195" lon="10.5398208"><ele>133.0</ele><time>2026-04-22T20:22:06.84Z</time></trkpt><trkpt lat="45.4089123" lon="10.5398279"><ele>133.0</ele><time>2026-04-22T20:22:32.841Z</time></trkpt><trkpt lat="45.4088041" lon="10.5398599"><ele>133.0</ele><time>2026-04-22T20:22:57.84Z</time></trkpt><trkpt lat="45.4087814" lon="10.5399872"><ele>133.0</ele><time>2026-04-22T20:23:11.838Z</time></trkpt><trkpt lat="45.4088612" lon="10.5399861"><ele>133.0</ele><time>2026-04-22T20:24:30.845Z</time></trkpt><trkpt lat="45.4089377" lon="10.5398873"><ele>133.0</ele><time>2026-04-22T20:24:48.849Z</time></trkpt><trkpt lat="45.4089765" lon="10.5397068"><ele>133.0</ele><time>2026-04-22T20:26:05.841Z</time></trkpt><trkpt lat="45.4089248" lon="10.5397616"><ele>133.0</ele><time>2026-04-22T20:27:05.849Z</time></trkpt><trkpt lat="45.4090412" lon="10.5397083"><ele>133.0</ele><time>2026-04-22T20:28:13.843Z</time></trkpt><trkpt lat="45.4090467" lon="10.539606"><ele>133.0</ele><time>2026-04-22T20:28:51.851Z</time></trkpt><trkpt lat="45.4089973" lon="10.5397089"><ele>133.0</ele><time>2026-04-22T20:28:58.855Z</time></trkpt><trkpt lat="45.4089333" lon="10.5396733"><ele>133.0</ele><time>2026-04-22T20:30:44.85Z</time></trkpt><trkpt lat="45.4089826" lon="10.5397889"><ele>133.0</ele><time>2026-04-22T20:30:46.839Z</time></trkpt><trkpt lat="45.4089138" lon="10.5398172"><ele>133.0</ele><time>2026-04-22T20:31:49.85Z</time></trkpt><trkpt lat="45.4089816" lon="10.5398122"><ele>133.0</ele><time>2026-04-22T20:32:41.848Z</time></trkpt><trkpt lat="45.4090433" lon="10.53986"><ele>133.0</ele><time>2026-04-22T20:40:35.836Z</time></trkpt><trkpt lat="45.4089621" lon="10.5399251"><ele>133.0</ele><time>2026-04-22T20:40:37.842Z</time></trkpt><trkpt lat="45.408837" lon="10.5399841"><ele>133.0</ele><time>2026-04-22T20:40:39.847Z</time></trkpt><trkpt lat="45.4087672" lon="10.540011"><ele>133.0</ele><time>2026-04-22T20:40:42.845Z</time></trkpt><trkpt lat="45.4088618" lon="10.5399642"><ele>131.71428571428572</ele><time>2026-04-22T20:40:52.844Z</time></trkpt><trkpt lat="45.4087802" lon="10.5399707"><ele>130.42857142857144</ele><time>2026-04-22T20:41:06.842Z</time></trkpt><trkpt lat="45.4086975" lon="10.5399792"><ele>129.14285714285714</ele><time>2026-04-22T20:41:19.854Z</time></trkpt><trkpt lat="45.4087545" lon="10.5399316"><ele>127.85714285714286</ele><time>2026-04-22T20:41:52.847Z</time></trkpt><trkpt lat="45.40881" lon="10.5398639"><ele>126.57142857142858</ele><time>2026-04-22T20:42:13.843Z</time></trkpt><trkpt lat="45.4087561" lon="10.5399296"><ele>125.28571428571429</ele><time>2026-04-22T20:44:43.851Z</time></trkpt><trkpt lat="45.4088147" lon="10.5398842"><ele>124.0</ele><time>2026-04-22T20:44:57.848Z</time></trkpt><trkpt lat="45.4087411" lon="10.5399255"><ele>124.0</ele><time>2026-04-22T20:45:14.848Z</time></trkpt><trkpt lat="45.4088266" lon="10.5399191"><ele>124.0</ele><time>2026-04-22T20:45:35.839Z</time></trkpt><trkpt lat="45.4086989" lon="10.5399097"><ele>124.0</ele><time>2026-04-22T20:46:36.848Z</time></trkpt><trkpt lat="45.4087539" lon="10.5398631"><ele>124.0</ele><time>2026-04-22T20:46:50.845Z</time></trkpt><trkpt lat="45.4088378" lon="10.5398404"><ele>124.0</ele><time>2026-04-22T20:46:53.845Z</time></trkpt><trkpt lat="45.4089544" lon="10.5397547"><ele>125.80000000000001</ele><time>2026-04-22T20:48:32.845Z</time></trkpt><trkpt lat="45.4088877" lon="10.5398832"><ele>127.60000000000001</ele><time>2026-04-22T20:49:33.841Z</time></trkpt><trkpt lat="45.4089964" lon="10.5398528"><ele>129.4</ele><time>2026-04-22T20:53:16.844Z</time></trkpt><trkpt lat="45.4091006" lon="10.5398069"><ele>131.20000000000002</ele><time>2026-04-22T20:54:30.846Z</time></trkpt><trkpt lat="45.4090223" lon="10.5397784"><ele>133.0</ele><time>2026-04-22T20:55:00.846Z</time></trkpt><trkpt lat="45.4088989" lon="10.5397867"><ele>133.0</ele><time>2026-04-22T20:55:21.841Z</time></trkpt><trkpt lat="45.4089597" lon="10.5397333"><ele>133.0</ele><time>2026-04-22T20:55:54.841Z</time></trkpt><trkpt lat="45.4090214" lon="10.5397957"><ele>133.0</ele><time>2026-04-22T20:57:08.837Z</time></trkpt><trkpt lat="45.4091103" lon="10.5397497"><ele>133.0</ele><time>2026-04-22T20:57:31.838Z</time></trkpt><trkpt lat="45.4092009" lon="10.5397433"><ele>133.0</ele><time>2026-04-22T20:57:46.844Z</time></trkpt><trkpt lat="45.4091232" lon="10.5396775"><ele>133.0</ele><time>2026-04-22T20:58:08.851Z</time></trkpt><trkpt lat="45.4090558" lon="10.5396468"><ele>133.0</ele><time>2026-04-22T20:58:10.851Z</time></trkpt><trkpt lat="45.4089751" lon="10.5396482"><ele>133.0</ele><time>2026-04-22T20:58:16.849Z</time></trkpt><trkpt lat="45.4088969" lon="10.5396537"><ele>133.0</ele><time>2026-04-22T20:58:19.852Z</time></trkpt><trkpt lat="45.4089802" lon="10.5397235"><ele>133.0</ele><time>2026-04-22T20:58:40.842Z</time></trkpt><trkpt lat="45.4090376" lon="10.5398027"><ele>133.0</ele><time>2026-04-22T20:58:44.847Z</time></trkpt><trkpt lat="45.4091568" lon="10.5397438"><ele>133.0</ele><time>2026-04-22T21:00:23.841Z</time></trkpt><trkpt lat="45.4090875" lon="10.5398496"><ele>133.0</ele><time>2026-04-22T21:01:03.844Z</time></trkpt><trkpt lat="45.4089738" lon="10.5398304"><ele>133.0</ele><time>2026-04-22T21:02:48.847Z</time></trkpt><trkpt lat="45.4088908" lon="10.5398434"><ele>133.0</ele><time>2026-04-22T21:03:07.842Z</time></trkpt><trkpt lat="45.408814" lon="10.5399062"><ele>133.0</ele><time>2026-04-22T21:06:07.845Z</time></trkpt><trkpt lat="45.4088802" lon="10.5398692"><ele>133.0</ele><time>2026-04-22T21:06:36.844Z</time></trkpt><trkpt lat="45.4089252" lon="10.5397895"><ele>133.0</ele><time>2026-04-22T21:06:49.852Z</time></trkpt><trkpt lat="45.4088686" lon="10.5397349"><ele>133.0</ele><time>2026-04-22T21:09:01.851Z</time></trkpt><trkpt lat="45.408812" lon="10.5398638"><ele>133.0</ele><time>2026-04-22T21:09:37.839Z</time></trkpt><trkpt lat="45.4088923" lon="10.5398452"><ele>133.0</ele><time>2026-04-22T21:09:55.839Z</time></trkpt><trkpt lat="45.4089718" lon="10.5397977"><ele>133.0</ele><time>2026-04-22T21:10:13.848Z</time></trkpt><trkpt lat="45.4090322" lon="10.5397625"><ele>133.0</ele><time>2026-04-22T21:11:28.847Z</time></trkpt><trkpt lat="45.4091261" lon="10.5396833"><ele>133.0</ele><time>2026-04-22T21:11:34.836Z</time></trkpt><trkpt lat="45.4090107" lon="10.5397647"><ele>133.0</ele><time>2026-04-22T21:11:38.849Z</time></trkpt><trkpt lat="45.4090675" lon="10.5397044"><ele>133.0</ele><time>2026-04-22T21:14:08.839Z</time></trkpt><trkpt lat="45.4091283" lon="10.5396711"><ele>133.0</ele><time>2026-04-22T21:14:10.845Z</time></trkpt><trkpt lat="45.4090741" lon="10.5397401"><ele>133.0</ele><time>2026-04-22T21:16:09.84Z</time></trkpt><trkpt lat="45.4089956" lon="10.539779"><ele>133.0</ele><time>2026-04-22T21:17:23.841Z</time></trkpt><trkpt lat="45.4089335" lon="10.5397965"><ele>133.0</ele><time>2026-04-22T21:17:25.843Z</time></trkpt><trkpt lat="45.4088361" lon="10.5398191"><ele>133.0</ele><time>2026-04-22T21:17:46.849Z</time></trkpt><trkpt lat="45.4087744" lon="10.5398556"><ele>133.0</ele><time>2026-04-22T21:17:50.843Z</time></trkpt><trkpt lat="45.4087581" lon="10.5399563"><ele>133.0</ele><time>2026-04-22T21:19:15.847Z</time></trkpt><trkpt lat="45.4088239" lon="10.5399465"><ele>133.0</ele><time>2026-04-22T21:20:06.836Z</time></trkpt><trkpt lat="45.4089203" lon="10.5398512"><ele>133.0</ele><time>2026-04-22T21:20:53.844Z</time></trkpt><trkpt lat="45.4090202" lon="10.5398248"><ele>133.0</ele><time>2026-04-22T21:22:20.847Z</time></trkpt><trkpt lat="45.4091179" lon="10.5399101"><ele>133.0</ele><time>2026-04-22T21:22:29.845Z</time></trkpt><trkpt lat="45.4090524" lon="10.5398085"><ele>133.0</ele><time>2026-04-22T21:23:01.848Z</time></trkpt><trkpt lat="45.408972" lon="10.5398622"><ele>133.0</ele><time>2026-04-22T21:25:30.848Z</time></trkpt><trkpt lat="45.4089593" lon="10.5397517"><ele>133.0</ele><time>2026-04-22T21:25:47.851Z</time></trkpt><trkpt lat="45.4090236" lon="10.5398201"><ele>133.0</ele><time>2026-04-22T21:26:07.842Z</time></trkpt><trkpt lat="45.4089153" lon="10.5398464"><ele>133.0</ele><time>2026-04-22T21:28:30.846Z</time></trkpt><trkpt lat="45.4089917" lon="10.5398633"><ele>133.0</ele><time>2026-04-22T21:28:56.838Z</time></trkpt><trkpt lat="45.4089733" lon="10.5399686"><ele>133.0</ele><time>2026-04-22T21:29:51.843Z</time></trkpt><trkpt lat="45.4090445" lon="10.5398875"><ele>133.0</ele><time>2026-04-22T21:35:34.85Z</time></trkpt><trkpt lat="45.4089688" lon="10.5398555"><ele>133.0</ele><time>2026-04-22T21:36:26.842Z</time></trkpt><trkpt lat="45.4090519" lon="10.5398964"><ele>133.0</ele><time>2026-04-22T21:42:38.843Z</time></trkpt><trkpt lat="45.4089981" lon="10.5398269"><ele>133.0</ele><time>2026-04-22T21:43:18.844Z</time></trkpt><trkpt lat="45.4088977" lon="10.5398054"><ele>133.0</ele><time>2026-04-22T21:44:28.838Z</time></trkpt><trkpt lat="45.4087659" lon="10.5397844"><ele>133.0</ele><time>2026-04-22T21:44:44.837Z</time></trkpt><trkpt lat="45.4088636" lon="10.5397851"><ele>133.0</ele><time>2026-04-22T21:45:17.838Z</time></trkpt><trkpt lat="45.4087953" lon="10.5397603"><ele>133.0</ele><time>2026-04-22T21:45:28.847Z</time></trkpt><trkpt lat="45.4088645" lon="10.5398297"><ele>133.0</ele><time>2026-04-22T21:46:03.842Z</time></trkpt><trkpt lat="45.4090122" lon="10.5398803"><ele>133.0</ele><time>2026-04-22T21:46:20.844Z</time></trkpt><trkpt lat="45.4090951" lon="10.5399152"><ele>133.0</ele><time>2026-04-22T21:46:21.842Z</time></trkpt><trkpt lat="45.4090349" lon="10.5398742"><ele>133.0</ele><time>2026-04-22T21:46:53.847Z</time></trkpt><trkpt lat="45.4089163" lon="10.5398863"><ele>133.0</ele><time>2026-04-22T21:47:45.838Z</time></trkpt><trkpt lat="45.4090318" lon="10.5398571"><ele>133.0</ele><time>2026-04-22T21:49:36.845Z</time></trkpt><trkpt lat="45.4089698" lon="10.5398852"><ele>133.0</ele><time>2026-04-22T21:50:10.848Z</time></trkpt><trkpt lat="45.4088835" lon="10.5397618"><ele>133.0</ele><time>2026-04-22T21:51:50.831Z</time></trkpt><trkpt lat="45.4089443" lon="10.5398035"><ele>133.0</ele><time>2026-04-22T21:52:15.839Z</time></trkpt><trkpt lat="45.4090374" lon="10.5398098"><ele>133.0</ele><time>2026-04-22T21:57:39.845Z</time></trkpt><trkpt lat="45.40904" lon="10.5399017"><ele>133.0</ele><time>2026-04-22T21:58:47.842Z</time></trkpt><trkpt lat="45.4091054" lon="10.5400438"><ele>133.0</ele><time>2026-04-22T21:59:00.835Z</time></trkpt><trkpt lat="45.4092259" lon="10.540111"><ele>133.0</ele><time>2026-04-22T21:59:26.837Z</time></trkpt><trkpt lat="45.4091615" lon="10.5400108"><ele>133.0</ele><time>2026-04-22T21:59:32.842Z</time></trkpt><trkpt lat="45.4091267" lon="10.5399354"><ele>133.0</ele><time>2026-04-22T21:59:36.839Z</time></trkpt><trkpt lat="45.4090449" lon="10.5398494"><ele>133.0</ele><time>2026-04-22T21:59:41.837Z</time></trkpt><trkpt lat="45.408991" lon="10.5399506"><ele>133.0</ele><time>2026-04-22T22:00:24.839Z</time></trkpt><trkpt lat="45.4090337" lon="10.5398835"><ele>133.0</ele><time>2026-04-22T22:00:33.836Z</time></trkpt><trkpt lat="45.4089844" lon="10.5399739"><ele>133.0</ele><time>2026-04-22T22:01:07.843Z</time></trkpt><trkpt lat="45.4089382" lon="10.5399012"><ele>133.0</ele><time>2026-04-22T22:01:29.837Z</time></trkpt><trkpt lat="45.4088726" lon="10.5398135"><ele>133.0</ele><time>2026-04-22T22:01:45.835Z</time></trkpt><trkpt lat="45.4088847" lon="10.5399172"><ele>133.0</ele><time>2026-04-22T22:02:32.83Z</time></trkpt><trkpt lat="45.4089834" lon="10.5399582"><ele>133.0</ele><time>2026-04-22T22:02:49.84Z</time></trkpt><trkpt lat="45.4089156" lon="10.53988"><ele>133.0</ele><time>2026-04-22T22:03:23.837Z</time></trkpt><trkpt lat="45.4089804" lon="10.5398508"><ele>133.0</ele><time>2026-04-22T22:05:58.837Z</time></trkpt><trkpt lat="45.408925" lon="10.5397669"><ele>133.0</ele><time>2026-04-22T22:06:38.837Z</time></trkpt><trkpt lat="45.4089799" lon="10.5398683"><ele>133.0</ele><time>2026-04-22T22:07:42.845Z</time></trkpt><trkpt lat="45.4089133" lon="10.5399052"><ele>133.0</ele><time>2026-04-22T22:11:26.846Z</time></trkpt><trkpt lat="45.4088544" lon="10.5398105"><ele>133.0</ele><time>2026-04-22T22:11:47.836Z</time></trkpt><trkpt lat="45.4089235" lon="10.5397289"><ele>133.0</ele><time>2026-04-22T22:12:25.846Z</time></trkpt><trkpt lat="45.4089533" lon="10.5395941"><ele>133.0</ele><time>2026-04-22T22:13:44.85Z</time></trkpt><trkpt lat="45.4090072" lon="10.5396685"><ele>133.0</ele><time>2026-04-22T22:14:09.846Z</time></trkpt><trkpt lat="45.4090501" lon="10.5397969"><ele>133.0</ele><time>2026-04-22T22:14:24.836Z</time></trkpt><trkpt lat="45.4090759" lon="10.5396933"><ele>133.0</ele><time>2026-04-22T22:14:35.841Z</time></trkpt><trkpt lat="45.4090057" lon="10.5397508"><ele>133.0</ele><time>2026-04-22T22:15:00.844Z</time></trkpt><trkpt lat="45.4089778" lon="10.5398891"><ele>133.0</ele><time>2026-04-22T22:15:23.846Z</time></trkpt><trkpt lat="45.408909" lon="10.5399061"><ele>133.0</ele><time>2026-04-22T22:16:33.836Z</time></trkpt><trkpt lat="45.4089238" lon="10.5397981"><ele>133.0</ele><time>2026-04-22T22:17:35.843Z</time></trkpt><trkpt lat="45.4089499" lon="10.539893"><ele>133.0</ele><time>2026-04-22T22:23:08.85Z</time></trkpt><trkpt lat="45.4089022" lon="10.5398182"><ele>133.0</ele><time>2026-04-22T22:24:27.836Z</time></trkpt><trkpt lat="45.4089502" lon="10.5399222"><ele>133.0</ele><time>2026-04-22T22:25:25.847Z</time></trkpt><trkpt lat="45.4090792" lon="10.5399497"><ele>133.0</ele><time>2026-04-22T22:25:57.846Z</time></trkpt><trkpt lat="45.409" lon="10.5399033"><ele>133.0</ele><time>2026-04-22T22:28:18.854Z</time></trkpt><trkpt lat="45.409063" lon="10.5398357"><ele>133.0</ele><time>2026-04-22T22:28:19.841Z</time></trkpt><trkpt lat="45.4089943" lon="10.5398193"><ele>133.0</ele><time>2026-04-22T22:28:46.835Z</time></trkpt><trkpt lat="45.4088754" lon="10.5398358"><ele>133.0</ele><time>2026-04-22T22:31:35.85Z</time></trkpt><trkpt lat="45.4088926" lon="10.5399269"><ele>133.0</ele><time>2026-04-22T22:31:50.839Z</time></trkpt><trkpt lat="45.4089939" lon="10.5400224"><ele>133.0</ele><time>2026-04-22T22:31:59.833Z</time></trkpt><trkpt lat="45.4089481" lon="10.5398686"><ele>133.0</ele><time>2026-04-22T22:33:39.837Z</time></trkpt><trkpt lat="45.4090454" lon="10.5398404"><ele>133.0</ele><time>2026-04-22T22:35:27.837Z</time></trkpt><trkpt lat="45.409087" lon="10.5399227"><ele>133.0</ele><time>2026-04-22T22:35:57.847Z</time></trkpt><trkpt lat="45.4090762" lon="10.5400419"><ele>133.0</ele><time>2026-04-22T22:36:17.834Z</time></trkpt><trkpt lat="45.4091632" lon="10.5400404"><ele>133.0</ele><time>2026-04-22T22:36:37.843Z</time></trkpt><trkpt lat="45.4090894" lon="10.5400779"><ele>133.0</ele><time>2026-04-22T22:37:05.836Z</time></trkpt><trkpt lat="45.4090119" lon="10.5400487"><ele>133.0</ele><time>2026-04-22T22:37:26.845Z</time></trkpt><trkpt lat="45.4090406" lon="10.5399504"><ele>133.0</ele><time>2026-04-22T22:37:46.836Z</time></trkpt><trkpt lat="45.4089681" lon="10.5399856"><ele>133.0</ele><time>2026-04-22T22:39:35.846Z</time></trkpt><trkpt lat="45.4088788" lon="10.539902"><ele>133.0</ele><time>2026-04-22T22:39:52.844Z</time></trkpt><trkpt lat="45.4087599" lon="10.5398531"><ele>133.0</ele><time>2026-04-22T22:40:10.849Z</time></trkpt><trkpt lat="45.408818" lon="10.5398911"><ele>133.0</ele><time>2026-04-22T22:40:53.838Z</time></trkpt><trkpt lat="45.4089556" lon="10.539922"><ele>133.0</ele><time>2026-04-22T22:41:11.836Z</time></trkpt><trkpt lat="45.4089438" lon="10.5398004"><ele>133.0</ele><time>2026-04-22T22:41:31.845Z</time></trkpt><trkpt lat="45.4090228" lon="10.5397762"><ele>133.0</ele><time>2026-04-22T22:42:11.844Z</time></trkpt><trkpt lat="45.4090309" lon="10.5396483"><ele>133.0</ele><time>2026-04-22T22:42:18.845Z</time></trkpt><trkpt lat="45.4089686" lon="10.5396892"><ele>133.0</ele><time>2026-04-22T22:42:34.847Z</time></trkpt><trkpt lat="45.4090677" lon="10.5397754"><ele>133.0</ele><time>2026-04-22T22:43:47.846Z</time></trkpt><trkpt lat="45.409021" lon="10.5398971"><ele>133.0</ele><time>2026-04-22T22:45:23.836Z</time></trkpt><trkpt lat="45.4089595" lon="10.5399839"><ele>133.0</ele><time>2026-04-22T22:45:49.849Z</time></trkpt><trkpt lat="45.4090372" lon="10.5398452"><ele>133.0</ele><time>2026-04-22T22:45:59.845Z</time></trkpt><trkpt lat="45.4091332" lon="10.5398442"><ele>133.0</ele><time>2026-04-22T22:46:26.836Z</time></trkpt><trkpt lat="45.4090692" lon="10.5397949"><ele>133.0</ele><time>2026-04-22T22:46:53.833Z</time></trkpt><trkpt lat="45.4090067" lon="10.5399226"><ele>133.0</ele><time>2026-04-22T22:47:13.847Z</time></trkpt><trkpt lat="45.4090589" lon="10.539811"><ele>133.0</ele><time>2026-04-22T22:47:18.846Z</time></trkpt><trkpt lat="45.4090254" lon="10.5399241"><ele>133.0</ele><time>2026-04-22T22:48:10.847Z</time></trkpt><trkpt lat="45.4089292" lon="10.5400002"><ele>133.0</ele><time>2026-04-22T22:51:17.846Z</time></trkpt><trkpt lat="45.4089743" lon="10.5398938"><ele>133.0</ele><time>2026-04-22T22:51:32.843Z</time></trkpt><trkpt lat="45.4090681" lon="10.5398654"><ele>133.0</ele><time>2026-04-22T22:51:47.848Z</time></trkpt><trkpt lat="45.4090133" lon="10.5399407"><ele>133.0</ele><time>2026-04-22T22:52:45.847Z</time></trkpt><trkpt lat="45.4089291" lon="10.540061"><ele>133.0</ele><time>2026-04-22T22:53:35.839Z</time></trkpt><trkpt lat="45.4089439" lon="10.5399331"><ele>133.0</ele><time>2026-04-22T22:54:31.849Z</time></trkpt><trkpt lat="45.4090188" lon="10.5398431"><ele>133.0</ele><time>2026-04-22T22:54:47.844Z</time></trkpt><trkpt lat="45.4090257" lon="10.5399471"><ele>133.0</ele><time>2026-04-22T22:56:56.837Z</time></trkpt><trkpt lat="45.4089196" lon="10.539993"><ele>133.0</ele><time>2026-04-22T23:00:15.841Z</time></trkpt><trkpt lat="45.4089664" lon="10.5399091"><ele>133.0</ele><time>2026-04-22T23:00:34.834Z</time></trkpt><trkpt lat="45.4090419" lon="10.5397831"><ele>133.0</ele><time>2026-04-22T23:00:46.843Z</time></trkpt><trkpt lat="45.4090836" lon="10.5396964"><ele>133.0</ele><time>2026-04-22T23:00:51.834Z</time></trkpt><trkpt lat="45.4091757" lon="10.5395522"><ele>133.0</ele><time>2026-04-22T23:01:13.845Z</time></trkpt><trkpt lat="45.4092" lon="10.5396375"><ele>133.0</ele><time>2026-04-22T23:02:05.833Z</time></trkpt><trkpt lat="45.4091255" lon="10.5397411"><ele>133.0</ele><time>2026-04-22T23:02:16.838Z</time></trkpt><trkpt lat="45.4090463" lon="10.5398688"><ele>133.0</ele><time>2026-04-22T23:02:47.843Z</time></trkpt><trkpt lat="45.4089824" lon="10.5398522"><ele>133.0</ele><time>2026-04-22T23:03:50.834Z</time></trkpt><trkpt lat="45.4089378" lon="10.5399988"><ele>133.0</ele><time>2026-04-22T23:04:07.837Z</time></trkpt><trkpt lat="45.4088683" lon="10.5400467"><ele>133.0</ele><time>2026-04-22T23:05:28.834Z</time></trkpt><trkpt lat="45.4088983" lon="10.5401446"><ele>133.0</ele><time>2026-04-22T23:05:29.836Z</time></trkpt><trkpt lat="45.4089518" lon="10.5402306"><ele>133.0</ele><time>2026-04-22T23:05:30.833Z</time></trkpt><trkpt lat="45.4089978" lon="10.5403037"><ele>133.0</ele><time>2026-04-22T23:05:31.846Z</time></trkpt><trkpt lat="45.4091235" lon="10.5403501"><ele>133.0</ele><time>2026-04-22T23:05:35.835Z</time></trkpt><trkpt lat="45.4091767" lon="10.5404295"><ele>133.0</ele><time>2026-04-22T23:05:37.837Z</time></trkpt><trkpt lat="45.4093117" lon="10.5404022"><ele>133.0</ele><time>2026-04-22T23:05:45.837Z</time></trkpt><trkpt lat="45.4092576" lon="10.540311"><ele>133.0</ele><time>2026-04-22T23:06:02.836Z</time></trkpt><trkpt lat="45.4091468" lon="10.5402195"><ele>133.0</ele><time>2026-04-22T23:06:15.845Z</time></trkpt><trkpt lat="45.4090736" lon="10.5401151"><ele>133.0</ele><time>2026-04-22T23:06:27.844Z</time></trkpt><trkpt lat="45.4091492" lon="10.5401304"><ele>133.0</ele><time>2026-04-22T23:07:08.843Z</time></trkpt><trkpt lat="45.4091912" lon="10.540263"><ele>133.0</ele><time>2026-04-22T23:07:22.832Z</time></trkpt><trkpt lat="45.40907" lon="10.5402393"><ele>133.0</ele><time>2026-04-22T23:07:33.836Z</time></trkpt><trkpt lat="45.4090491" lon="10.540088"><ele>133.0</ele><time>2026-04-22T23:07:53.845Z</time></trkpt><trkpt lat="45.409093" lon="10.5399976"><ele>133.0</ele><time>2026-04-22T23:07:58.842Z</time></trkpt><trkpt lat="45.4090451" lon="10.5400668"><ele>133.0</ele><time>2026-04-22T23:08:48.838Z</time></trkpt><trkpt lat="45.4089369" lon="10.5400714"><ele>133.0</ele><time>2026-04-22T23:08:58.841Z</time></trkpt><trkpt lat="45.4090531" lon="10.5401072"><ele>133.0</ele><time>2026-04-22T23:10:10.84Z</time></trkpt><trkpt lat="45.4090647" lon="10.5400034"><ele>133.0</ele><time>2026-04-22T23:10:46.834Z</time></trkpt><trkpt lat="45.4091415" lon="10.5399011"><ele>133.0</ele><time>2026-04-22T23:12:08.832Z</time></trkpt><trkpt lat="45.4091188" lon="10.5399908"><ele>133.0</ele><time>2026-04-22T23:12:19.839Z</time></trkpt><trkpt lat="45.4092207" lon="10.5400336"><ele>133.0</ele><time>2026-04-22T23:13:20.835Z</time></trkpt><trkpt lat="45.4092552" lon="10.5399045"><ele>133.0</ele><time>2026-04-22T23:13:29.833Z</time></trkpt><trkpt lat="45.4093007" lon="10.5397298"><ele>133.0</ele><time>2026-04-22T23:13:37.833Z</time></trkpt><trkpt lat="45.4093033" lon="10.5398342"><ele>133.0</ele><time>2026-04-22T23:13:57.835Z</time></trkpt><trkpt lat="45.4092596" lon="10.5399502"><ele>133.0</ele><time>2026-04-22T23:13:59.843Z</time></trkpt><trkpt lat="45.4091655" lon="10.5400438"><ele>133.0</ele><time>2026-04-22T23:14:09.835Z</time></trkpt><trkpt lat="45.4090854" lon="10.5399386"><ele>133.0</ele><time>2026-04-22T23:14:23.841Z</time></trkpt><trkpt lat="45.4090446" lon="10.5397839"><ele>133.0</ele><time>2026-04-22T23:14:42.832Z</time></trkpt><trkpt lat="45.4090282" lon="10.5396266"><ele>133.0</ele><time>2026-04-22T23:15:00.833Z</time></trkpt><trkpt lat="45.4090782" lon="10.5396836"><ele>133.0</ele><time>2026-04-22T23:15:28.838Z</time></trkpt><trkpt lat="45.4090465" lon="10.5397944"><ele>133.0</ele><time>2026-04-22T23:16:24.831Z</time></trkpt><trkpt lat="45.4090515" lon="10.53992"><ele>133.0</ele><time>2026-04-22T23:16:44.834Z</time></trkpt><trkpt lat="45.4089948" lon="10.5398699"><ele>133.0</ele><time>2026-04-22T23:17:42.833Z</time></trkpt><trkpt lat="45.4089314" lon="10.5399572"><ele>133.0</ele><time>2026-04-22T23:18:00.83Z</time></trkpt><trkpt lat="45.4089837" lon="10.5399032"><ele>133.0</ele><time>2026-04-22T23:18:19.844Z</time></trkpt><trkpt lat="45.4090329" lon="10.5398183"><ele>133.0</ele><time>2026-04-22T23:18:21.832Z</time></trkpt><trkpt lat="45.4090997" lon="10.539701"><ele>133.0</ele><time>2026-04-22T23:18:24.837Z</time></trkpt><trkpt lat="45.4090366" lon="10.5397322"><ele>133.0</ele><time>2026-04-22T23:18:59.839Z</time></trkpt><trkpt lat="45.4090722" lon="10.5396395"><ele>133.0</ele><time>2026-04-22T23:19:09.84Z</time></trkpt><trkpt lat="45.4091133" lon="10.5397149"><ele>133.0</ele><time>2026-04-22T23:19:28.832Z</time></trkpt><trkpt lat="45.4090798" lon="10.5398092"><ele>133.0</ele><time>2026-04-22T23:19:30.843Z</time></trkpt><trkpt lat="45.4090508" lon="10.5399623"><ele>133.0</ele><time>2026-04-22T23:20:19.835Z</time></trkpt><trkpt lat="45.4090111" lon="10.5398588"><ele>133.0</ele><time>2026-04-22T23:21:53.833Z</time></trkpt><trkpt lat="45.409075" lon="10.5397225"><ele>133.0</ele><time>2026-04-22T23:22:07.839Z</time></trkpt><trkpt lat="45.4090454" lon="10.5398144"><ele>133.0</ele><time>2026-04-22T23:23:38.836Z</time></trkpt><trkpt lat="45.4091083" lon="10.5398597"><ele>133.0</ele><time>2026-04-22T23:24:30.831Z</time></trkpt><trkpt lat="45.4090852" lon="10.5399586"><ele>133.0</ele><time>2026-04-22T23:25:18.835Z</time></trkpt><trkpt lat="45.4091551" lon="10.5399519"><ele>133.0</ele><time>2026-04-22T23:25:46.843Z</time></trkpt><trkpt lat="45.4091469" lon="10.5400453"><ele>133.0</ele><time>2026-04-22T23:26:11.837Z</time></trkpt><trkpt lat="45.4090502" lon="10.5400855"><ele>133.0</ele><time>2026-04-22T23:26:51.835Z</time></trkpt><trkpt lat="45.4090352" lon="10.5398881"><ele>133.0</ele><time>2026-04-22T23:27:22.076Z</time></trkpt><trkpt lat="45.4090607" lon="10.5400737"><ele>133.0</ele><time>2026-04-22T23:27:31.847Z</time></trkpt><trkpt lat="45.4090303" lon="10.5399948"><ele>133.0</ele><time>2026-04-22T23:29:03.839Z</time></trkpt><trkpt lat="45.408953" lon="10.539949"><ele>133.0</ele><time>2026-04-22T23:29:13.836Z</time></trkpt><trkpt lat="45.4089339" lon="10.5398259"><ele>133.0</ele><time>2026-04-22T23:29:21.83Z</time></trkpt><trkpt lat="45.408923" lon="10.5397291"><ele>133.0</ele><time>2026-04-22T23:29:43.839Z</time></trkpt><trkpt lat="45.4088636" lon="10.5396734"><ele>133.0</ele><time>2026-04-22T23:29:45.833Z</time></trkpt><trkpt lat="45.408776" lon="10.53962"><ele>133.0</ele><time>2026-04-22T23:29:55.836Z</time></trkpt><trkpt lat="45.4088613" lon="10.5396376"><ele>133.0</ele><time>2026-04-22T23:30:09.835Z</time></trkpt><trkpt lat="45.4089995" lon="10.5398078"><ele>133.0</ele><time>2026-04-22T23:30:13.844Z</time></trkpt><trkpt lat="45.409067" lon="10.5399115"><ele>133.0</ele><time>2026-04-22T23:30:14.844Z</time></trkpt><trkpt lat="45.4090929" lon="10.5399969"><ele>133.0</ele><time>2026-04-22T23:30:16.834Z</time></trkpt><trkpt lat="45.4091186" lon="10.5401049"><ele>133.0</ele><time>2026-04-22T23:30:20.835Z</time></trkpt><trkpt lat="45.409281" lon="10.5401848"><ele>133.0</ele><time>2026-04-22T23:30:33.84Z</time></trkpt><trkpt lat="45.4092367" lon="10.5400449"><ele>133.0</ele><time>2026-04-22T23:30:40.834Z</time></trkpt><trkpt lat="45.4092323" lon="10.5399505"><ele>133.0</ele><time>2026-04-22T23:30:43.835Z</time></trkpt><trkpt lat="45.4092001" lon="10.5398423"><ele>133.0</ele><time>2026-04-22T23:30:53.835Z</time></trkpt><trkpt lat="45.4091206" lon="10.5397195"><ele>133.0</ele><time>2026-04-22T23:31:07.834Z</time></trkpt><trkpt lat="45.4091948" lon="10.5398648"><ele>133.0</ele><time>2026-04-22T23:31:25.834Z</time></trkpt><trkpt lat="45.4092067" lon="10.5399533"><ele>133.0</ele><time>2026-04-22T23:31:59.836Z</time></trkpt><trkpt lat="45.4091408" lon="10.5399877"><ele>133.0</ele><time>2026-04-22T23:32:00.842Z</time></trkpt><trkpt lat="45.4090502" lon="10.5400608"><ele>133.0</ele><time>2026-04-22T23:32:12.834Z</time></trkpt><trkpt lat="45.4090732" lon="10.5399757"><ele>133.0</ele><time>2026-04-22T23:32:27.836Z</time></trkpt><trkpt lat="45.4091292" lon="10.5398665"><ele>133.0</ele><time>2026-04-22T23:32:47.84Z</time></trkpt><trkpt lat="45.4090608" lon="10.5398572"><ele>133.0</ele><time>2026-04-22T23:33:15.838Z</time></trkpt><trkpt lat="45.4089472" lon="10.539906"><ele>133.0</ele><time>2026-04-22T23:33:51.829Z</time></trkpt><trkpt lat="45.4088602" lon="10.5401449"><ele>133.0</ele><time>2026-04-22T23:34:00.832Z</time></trkpt><trkpt lat="45.4088146" lon="10.5402878"><ele>133.0</ele><time>2026-04-22T23:34:02.839Z</time></trkpt><trkpt lat="45.4088768" lon="10.5402247"><ele>133.0</ele><time>2026-04-22T23:34:18.837Z</time></trkpt><trkpt lat="45.4089697" lon="10.540127"><ele>133.0</ele><time>2026-04-22T23:34:27.843Z</time></trkpt><trkpt lat="45.4090719" lon="10.5400035"><ele>133.0</ele><time>2026-04-22T23:34:40.832Z</time></trkpt><trkpt lat="45.4090453" lon="10.5399145"><ele>133.0</ele><time>2026-04-22T23:36:19.842Z</time></trkpt><trkpt lat="45.4089638" lon="10.5400487"><ele>133.0</ele><time>2026-04-22T23:36:29.833Z</time></trkpt><trkpt lat="45.4089352" lon="10.5399252"><ele>133.0</ele><time>2026-04-22T23:38:01.843Z</time></trkpt><trkpt lat="45.4089661" lon="10.5397974"><ele>133.0</ele><time>2026-04-22T23:38:30.844Z</time></trkpt><trkpt lat="45.4089198" lon="10.5398845"><ele>133.0</ele><time>2026-04-22T23:39:40.834Z</time></trkpt><trkpt lat="45.4089964" lon="10.5398906"><ele>133.0</ele><time>2026-04-22T23:40:04.833Z</time></trkpt><trkpt lat="45.4089317" lon="10.5399294"><ele>133.0</ele><time>2026-04-22T23:40:19.843Z</time></trkpt><trkpt lat="45.4088848" lon="10.5400183"><ele>133.0</ele><time>2026-04-22T23:41:07.841Z</time></trkpt><trkpt lat="45.4089419" lon="10.539959"><ele>133.0</ele><time>2026-04-22T23:41:19.835Z</time></trkpt><trkpt lat="45.4090136" lon="10.5398432"><ele>133.0</ele><time>2026-04-22T23:41:35.837Z</time></trkpt><trkpt lat="45.4089486" lon="10.539865"><ele>133.0</ele><time>2026-04-22T23:42:08.837Z</time></trkpt><trkpt lat="45.4089836" lon="10.5399777"><ele>133.0</ele><time>2026-04-22T23:43:05.834Z</time></trkpt><trkpt lat="45.4089524" lon="10.5398759"><ele>133.0</ele><time>2026-04-22T23:43:37.838Z</time></trkpt><trkpt lat="45.4088912" lon="10.5399398"><ele>133.0</ele><time>2026-04-22T23:43:57.843Z</time></trkpt><trkpt lat="45.4089803" lon="10.5399658"><ele>133.0</ele><time>2026-04-22T23:44:40.838Z</time></trkpt><trkpt lat="45.4089301" lon="10.5400233"><ele>133.0</ele><time>2026-04-22T23:45:49.841Z</time></trkpt><trkpt lat="45.4088474" lon="10.5400379"><ele>133.0</ele><time>2026-04-22T23:46:09.839Z</time></trkpt><trkpt lat="45.4088386" lon="10.5399398"><ele>133.0</ele><time>2026-04-22T23:46:33.832Z</time></trkpt><trkpt lat="45.4089418" lon="10.5398487"><ele>133.0</ele><time>2026-04-22T23:47:09.833Z</time></trkpt><trkpt lat="45.4089793" lon="10.5397007"><ele>133.0</ele><time>2026-04-22T23:47:58.833Z</time></trkpt><trkpt lat="45.4089043" lon="10.5397294"><ele>133.0</ele><time>2026-04-22T23:48:14.833Z</time></trkpt><trkpt lat="45.4088125" lon="10.5397574"><ele>133.0</ele><time>2026-04-22T23:48:22.836Z</time></trkpt><trkpt lat="45.4087396" lon="10.5399261"><ele>133.0</ele><time>2026-04-22T23:48:50.84Z</time></trkpt><trkpt lat="45.4088039" lon="10.5398645"><ele>133.0</ele><time>2026-04-22T23:49:25.851Z</time></trkpt><trkpt lat="45.4088893" lon="10.5397425"><ele>133.0</ele><time>2026-04-22T23:50:44.835Z</time></trkpt><trkpt lat="45.4090078" lon="10.5394959"><ele>133.0</ele><time>2026-04-22T23:51:03.834Z</time></trkpt><trkpt lat="45.4089659" lon="10.5395651"><ele>133.0</ele><time>2026-04-22T23:51:06.833Z</time></trkpt><trkpt lat="45.4089263" lon="10.5396606"><ele>133.0</ele><time>2026-04-22T23:51:10.842Z</time></trkpt><trkpt lat="45.4088482" lon="10.5398032"><ele>133.0</ele><time>2026-04-22T23:51:22.831Z</time></trkpt><trkpt lat="45.4088871" lon="10.5397163"><ele>133.0</ele><time>2026-04-22T23:51:32.84Z</time></trkpt><trkpt lat="45.4089998" lon="10.5396869"><ele>133.0</ele><time>2026-04-22T23:51:55.834Z</time></trkpt><trkpt lat="45.4089683" lon="10.5398178"><ele>133.0</ele><time>2026-04-22T23:52:07.842Z</time></trkpt><trkpt lat="45.4089263" lon="10.5399712"><ele>133.0</ele><time>2026-04-22T23:52:22.839Z</time></trkpt><trkpt lat="45.4089781" lon="10.5400622"><ele>133.0</ele><time>2026-04-22T23:52:53.834Z</time></trkpt><trkpt lat="45.4089275" lon="10.5400068"><ele>133.0</ele><time>2026-04-22T23:53:13.842Z</time></trkpt><trkpt lat="45.4088458" lon="10.5400253"><ele>133.0</ele><time>2026-04-22T23:53:44.837Z</time></trkpt><trkpt lat="45.408745" lon="10.5400574"><ele>133.0</ele><time>2026-04-22T23:53:59.84Z</time></trkpt><trkpt lat="45.4088257" lon="10.5400501"><ele>133.0</ele><time>2026-04-22T23:54:33.839Z</time></trkpt><trkpt lat="45.4089003" lon="10.5400064"><ele>133.0</ele><time>2026-04-22T23:55:21.84Z</time></trkpt><trkpt lat="45.4090081" lon="10.5399164"><ele>133.0</ele><time>2026-04-22T23:55:36.831Z</time></trkpt><trkpt lat="45.4089301" lon="10.5400402"><ele>133.0</ele><time>2026-04-22T23:56:21.834Z</time></trkpt><trkpt lat="45.4089665" lon="10.5399283"><ele>133.0</ele><time>2026-04-22T23:57:20.831Z</time></trkpt><trkpt lat="45.4090488" lon="10.5398206"><ele>133.0</ele><time>2026-04-22T23:57:34.84Z</time></trkpt><trkpt lat="45.409123" lon="10.5398737"><ele>133.0</ele><time>2026-04-22T23:57:52.833Z</time></trkpt><trkpt lat="45.4090869" lon="10.5399547"><ele>133.0</ele><time>2026-04-22T23:58:32.833Z</time></trkpt><trkpt lat="45.4090258" lon="10.5400563"><ele>133.0</ele><time>2026-04-22T23:58:59.842Z</time></trkpt><trkpt lat="45.4090484" lon="10.5401495"><ele>133.0</ele><time>2026-04-23T00:00:12.841Z</time></trkpt><trkpt lat="45.4089749" lon="10.5401218"><ele>133.0</ele><time>2026-04-23T00:00:30.843Z</time></trkpt><trkpt lat="45.4090141" lon="10.5399552"><ele>133.0</ele><time>2026-04-23T00:01:15.835Z</time></trkpt><trkpt lat="45.4090671" lon="10.53987"><ele>133.0</ele><time>2026-04-23T00:01:18.837Z</time></trkpt><trkpt lat="45.4091248" lon="10.5397677"><ele>133.0</ele><time>2026-04-23T00:01:21.844Z</time></trkpt><trkpt lat="45.4091929" lon="10.5396528"><ele>133.0</ele><time>2026-04-23T00:01:23.834Z</time></trkpt><trkpt lat="45.40914" lon="10.5397298"><ele>133.0</ele><time>2026-04-23T00:01:35.842Z</time></trkpt><trkpt lat="45.4090423" lon="10.5398097"><ele>133.0</ele><time>2026-04-23T00:02:24.837Z</time></trkpt><trkpt lat="45.4089507" lon="10.5399461"><ele>133.0</ele><time>2026-04-23T00:02:48.831Z</time></trkpt><trkpt lat="45.4088685" lon="10.5399105"><ele>133.0</ele><time>2026-04-23T00:03:24.832Z</time></trkpt><trkpt lat="45.4089379" lon="10.5398496"><ele>133.0</ele><time>2026-04-23T00:03:41.833Z</time></trkpt><trkpt lat="45.408864" lon="10.5398538"><ele>133.0</ele><time>2026-04-23T00:04:08.839Z</time></trkpt><trkpt lat="45.4089204" lon="10.5399691"><ele>133.0</ele><time>2026-04-23T00:04:13.831Z</time></trkpt><trkpt lat="45.4089569" lon="10.5400463"><ele>133.0</ele><time>2026-04-23T00:04:15.833Z</time></trkpt><trkpt lat="45.4089231" lon="10.539967"><ele>133.0</ele><time>2026-04-23T00:04:47.831Z</time></trkpt><trkpt lat="45.4088703" lon="10.5401148"><ele>133.0</ele><time>2026-04-23T00:08:40.829Z</time></trkpt><trkpt lat="45.4089362" lon="10.5399775"><ele>133.0</ele><time>2026-04-23T00:09:38.835Z</time></trkpt><trkpt lat="45.4089041" lon="10.5400557"><ele>133.0</ele><time>2026-04-23T00:11:16.84Z</time></trkpt><trkpt lat="45.4089674" lon="10.5399694"><ele>133.0</ele><time>2026-04-23T00:13:22.831Z</time></trkpt><trkpt lat="45.4089979" lon="10.5398863"><ele>133.0</ele><time>2026-04-23T00:13:25.844Z</time></trkpt><trkpt lat="45.4090298" lon="10.539789"><ele>133.0</ele><time>2026-04-23T00:13:32.839Z</time></trkpt><trkpt lat="45.4089696" lon="10.5397386"><ele>133.0</ele><time>2026-04-23T00:15:24.834Z</time></trkpt><trkpt lat="45.4088943" lon="10.539708"><ele>133.0</ele><time>2026-04-23T00:15:46.831Z</time></trkpt><trkpt lat="45.4088353" lon="10.5398387"><ele>133.0</ele><time>2026-04-23T00:16:12.831Z</time></trkpt><trkpt lat="45.4089032" lon="10.5398228"><ele>133.0</ele><time>2026-04-23T00:17:31.837Z</time></trkpt><trkpt lat="45.4089985" lon="10.5397498"><ele>133.0</ele><time>2026-04-23T00:19:57.836Z</time></trkpt><trkpt lat="45.4089639" lon="10.5398328"><ele>133.0</ele><time>2026-04-23T00:22:15.835Z</time></trkpt><trkpt lat="45.4088985" lon="10.5399594"><ele>133.0</ele><time>2026-04-23T00:22:57.834Z</time></trkpt><trkpt lat="45.4088582" lon="10.5400596"><ele>133.0</ele><time>2026-04-23T00:22:59.835Z</time></trkpt><trkpt lat="45.4087788" lon="10.5400411"><ele>133.0</ele><time>2026-04-23T00:23:27.833Z</time></trkpt><trkpt lat="45.4088319" lon="10.5399872"><ele>133.0</ele><time>2026-04-23T00:24:00.841Z</time></trkpt><trkpt lat="45.4088793" lon="10.5399028"><ele>133.0</ele><time>2026-04-23T00:24:13.837Z</time></trkpt><trkpt lat="45.4089589" lon="10.5398831"><ele>133.0</ele><time>2026-04-23T00:24:39.837Z</time></trkpt><trkpt lat="45.4090447" lon="10.5398446"><ele>133.0</ele><time>2026-04-23T00:24:40.837Z</time></trkpt><trkpt lat="45.4090742" lon="10.5397627"><ele>133.0</ele><time>2026-04-23T00:25:33.83Z</time></trkpt><trkpt lat="45.4090015" lon="10.5397768"><ele>133.0</ele><time>2026-04-23T00:25:45.844Z</time></trkpt><trkpt lat="45.4089867" lon="10.539885"><ele>133.0</ele><time>2026-04-23T00:26:28.829Z</time></trkpt><trkpt lat="45.4089585" lon="10.5397797"><ele>133.0</ele><time>2026-04-23T00:26:29.832Z</time></trkpt><trkpt lat="45.4090016" lon="10.5398695"><ele>133.0</ele><time>2026-04-23T00:31:09.832Z</time></trkpt><trkpt lat="45.4089335" lon="10.539832"><ele>133.0</ele><time>2026-04-23T00:33:05.833Z</time></trkpt><trkpt lat="45.4090049" lon="10.5397426"><ele>133.0</ele><time>2026-04-23T00:33:24.834Z</time></trkpt><trkpt lat="45.4090581" lon="10.5398632"><ele>133.0</ele><time>2026-04-23T00:33:32.829Z</time></trkpt><trkpt lat="45.4089812" lon="10.5399464"><ele>133.0</ele><time>2026-04-23T00:33:57.832Z</time></trkpt><trkpt lat="45.4089652" lon="10.5398423"><ele>133.0</ele><time>2026-04-23T00:34:35.839Z</time></trkpt><trkpt lat="45.4089343" lon="10.5399541"><ele>133.0</ele><time>2026-04-23T00:35:01.826Z</time></trkpt><trkpt lat="45.4089513" lon="10.5400472"><ele>133.0</ele><time>2026-04-23T00:35:06.838Z</time></trkpt><trkpt lat="45.408973" lon="10.5399554"><ele>133.0</ele><time>2026-04-23T00:35:17.842Z</time></trkpt><trkpt lat="45.4089767" lon="10.539862"><ele>133.0</ele><time>2026-04-23T00:35:54.829Z</time></trkpt><trkpt lat="45.409023" lon="10.5397657"><ele>133.0</ele><time>2026-04-23T00:36:01.836Z</time></trkpt><trkpt lat="45.4089449" lon="10.5397738"><ele>133.0</ele><time>2026-04-23T00:36:19.84Z</time></trkpt><trkpt lat="45.4090148" lon="10.5397424"><ele>133.0</ele><time>2026-04-23T00:38:40.834Z</time></trkpt><trkpt lat="45.4090235" lon="10.5396198"><ele>133.0</ele><time>2026-04-23T00:39:15.831Z</time></trkpt><trkpt lat="45.408951" lon="10.5396478"><ele>133.0</ele><time>2026-04-23T00:40:28.825Z</time></trkpt><trkpt lat="45.4088793" lon="10.539637"><ele>133.0</ele><time>2026-04-23T00:41:12.832Z</time></trkpt><trkpt lat="45.4088124" lon="10.5397788"><ele>133.0</ele><time>2026-04-23T00:41:45.834Z</time></trkpt><trkpt lat="45.408919" lon="10.5397161"><ele>133.0</ele><time>2026-04-23T00:43:01.844Z</time></trkpt><trkpt lat="45.4089952" lon="10.5396507"><ele>133.0</ele><time>2026-04-23T00:43:19.847Z</time></trkpt><trkpt lat="45.4090779" lon="10.5397017"><ele>133.0</ele><time>2026-04-23T00:43:40.835Z</time></trkpt><trkpt lat="45.4090343" lon="10.5397762"><ele>133.0</ele><time>2026-04-23T00:44:01.833Z</time></trkpt><trkpt lat="45.4089771" lon="10.5398592"><ele>133.0</ele><time>2026-04-23T00:44:03.834Z</time></trkpt><trkpt lat="45.4090319" lon="10.5397297"><ele>133.0</ele><time>2026-04-23T00:44:12.837Z</time></trkpt><trkpt lat="45.4089478" lon="10.5396658"><ele>133.0</ele><time>2026-04-23T00:44:24.838Z</time></trkpt><trkpt lat="45.408921" lon="10.5395657"><ele>133.0</ele><time>2026-04-23T00:50:16.823Z</time></trkpt><trkpt lat="45.4089355" lon="10.5394776"><ele>133.0</ele><time>2026-04-23T00:50:25.834Z</time></trkpt><trkpt lat="45.4088652" lon="10.5395044"><ele>133.0</ele><time>2026-04-23T00:51:52.833Z</time></trkpt><trkpt lat="45.4088752" lon="10.5396143"><ele>133.0</ele><time>2026-04-23T00:52:52.837Z</time></trkpt><trkpt lat="45.4089362" lon="10.5396536"><ele>133.0</ele><time>2026-04-23T00:53:15.829Z</time></trkpt><trkpt lat="45.4089878" lon="10.5395872"><ele>133.0</ele><time>2026-04-23T00:53:38.837Z</time></trkpt><trkpt lat="45.4089503" lon="10.5396673"><ele>133.0</ele><time>2026-04-23T00:54:28.837Z</time></trkpt><trkpt lat="45.4090465" lon="10.5396547"><ele>133.0</ele><time>2026-04-23T00:55:17.836Z</time></trkpt><trkpt lat="45.4091112" lon="10.5395917"><ele>133.0</ele><time>2026-04-23T00:55:43.839Z</time></trkpt><trkpt lat="45.4090586" lon="10.5396892"><ele>133.0</ele><time>2026-04-23T00:56:32.834Z</time></trkpt><trkpt lat="45.4090837" lon="10.5395858"><ele>133.0</ele><time>2026-04-23T00:56:45.833Z</time></trkpt><trkpt lat="45.4090911" lon="10.5396998"><ele>133.0</ele><time>2026-04-23T00:57:26.839Z</time></trkpt><trkpt lat="45.4089908" lon="10.539761"><ele>133.0</ele><time>2026-04-23T00:58:16.837Z</time></trkpt><trkpt lat="45.4089889" lon="10.5396561"><ele>133.0</ele><time>2026-04-23T00:58:43.843Z</time></trkpt><trkpt lat="45.408939" lon="10.5397159"><ele>133.0</ele><time>2026-04-23T01:00:00.831Z</time></trkpt><trkpt lat="45.4090464" lon="10.539674"><ele>133.0</ele><time>2026-04-23T01:01:41.834Z</time></trkpt><trkpt lat="45.4090005" lon="10.5398278"><ele>133.0</ele><time>2026-04-23T01:04:41.84Z</time></trkpt><trkpt lat="45.4090471" lon="10.539985"><ele>133.0</ele><time>2026-04-23T01:06:30.832Z</time></trkpt><trkpt lat="45.4089877" lon="10.5398264"><ele>133.0</ele><time>2026-04-23T01:07:26.831Z</time></trkpt><trkpt lat="45.4089928" lon="10.5399386"><ele>133.0</ele><time>2026-04-23T01:08:08.832Z</time></trkpt><trkpt lat="45.4089898" lon="10.5398278"><ele>133.0</ele><time>2026-04-23T01:08:37.838Z</time></trkpt><trkpt lat="45.4090404" lon="10.5397375"><ele>133.0</ele><time>2026-04-23T01:08:39.842Z</time></trkpt><trkpt lat="45.4090294" lon="10.53986"><ele>133.0</ele><time>2026-04-23T01:09:31.834Z</time></trkpt><trkpt lat="45.4089669" lon="10.539936"><ele>133.0</ele><time>2026-04-23T01:09:34.834Z</time></trkpt><trkpt lat="45.408915" lon="10.5400385"><ele>133.0</ele><time>2026-04-23T01:09:43.83Z</time></trkpt><trkpt lat="45.4089943" lon="10.540056"><ele>133.0</ele><time>2026-04-23T01:10:59.831Z</time></trkpt><trkpt lat="45.4089214" lon="10.5400267"><ele>133.0</ele><time>2026-04-23T01:11:05.834Z</time></trkpt><trkpt lat="45.4088859" lon="10.5399231"><ele>133.0</ele><time>2026-04-23T01:11:16.831Z</time></trkpt><trkpt lat="45.4089675" lon="10.5398431"><ele>133.0</ele><time>2026-04-23T01:11:53.833Z</time></trkpt><trkpt lat="45.4089378" lon="10.5396991"><ele>133.0</ele><time>2026-04-23T01:12:01.839Z</time></trkpt><trkpt lat="45.4089111" lon="10.5396165"><ele>133.0</ele><time>2026-04-23T01:12:11.833Z</time></trkpt><trkpt lat="45.4089566" lon="10.5397548"><ele>133.0</ele><time>2026-04-23T01:14:13.844Z</time></trkpt><trkpt lat="45.4090317" lon="10.5397135"><ele>133.0</ele><time>2026-04-23T01:15:17.838Z</time></trkpt><trkpt lat="45.4090738" lon="10.539537"><ele>133.0</ele><time>2026-04-23T01:15:29.83Z</time></trkpt><trkpt lat="45.4090913" lon="10.5393632"><ele>133.0</ele><time>2026-04-23T01:16:00.833Z</time></trkpt><trkpt lat="45.4090708" lon="10.5394529"><ele>133.0</ele><time>2026-04-23T01:16:41.832Z</time></trkpt><trkpt lat="45.4090636" lon="10.5395649"><ele>133.0</ele><time>2026-04-23T01:17:13.833Z</time></trkpt><trkpt lat="45.4090462" lon="10.5397029"><ele>133.0</ele><time>2026-04-23T01:18:35.829Z</time></trkpt><trkpt lat="45.4091075" lon="10.5396547"><ele>133.0</ele><time>2026-04-23T01:20:13.834Z</time></trkpt><trkpt lat="45.4091708" lon="10.5396384"><ele>133.0</ele><time>2026-04-23T01:20:18.833Z</time></trkpt><trkpt lat="45.4091046" lon="10.5396936"><ele>133.0</ele><time>2026-04-23T01:20:25.84Z</time></trkpt><trkpt lat="45.4091313" lon="10.53978"><ele>133.0</ele><time>2026-04-23T01:21:46.834Z</time></trkpt><trkpt lat="45.409103" lon="10.539909"><ele>133.0</ele><time>2026-04-23T01:22:12.843Z</time></trkpt><trkpt lat="45.4090329" lon="10.5398399"><ele>133.0</ele><time>2026-04-23T01:25:03.839Z</time></trkpt><trkpt lat="45.4090194" lon="10.5397091"><ele>133.0</ele><time>2026-04-23T01:25:26.838Z</time></trkpt><trkpt lat="45.4091122" lon="10.5396327"><ele>133.0</ele><time>2026-04-23T01:25:38.828Z</time></trkpt><trkpt lat="45.409133" lon="10.5394181"><ele>133.0</ele><time>2026-04-23T01:26:57.836Z</time></trkpt><trkpt lat="45.4091077" lon="10.5395459"><ele>133.0</ele><time>2026-04-23T01:27:37.843Z</time></trkpt><trkpt lat="45.4091196" lon="10.5397029"><ele>133.0</ele><time>2026-04-23T01:27:47.839Z</time></trkpt><trkpt lat="45.4090689" lon="10.5398786"><ele>133.0</ele><time>2026-04-23T01:28:01.845Z</time></trkpt><trkpt lat="45.4089736" lon="10.5399177"><ele>133.0</ele><time>2026-04-23T01:28:09.835Z</time></trkpt><trkpt lat="45.409029" lon="10.5398716"><ele>133.0</ele><time>2026-04-23T01:28:36.833Z</time></trkpt><trkpt lat="45.4090001" lon="10.5399618"><ele>133.0</ele><time>2026-04-23T01:29:13.832Z</time></trkpt><trkpt lat="45.4090459" lon="10.5398913"><ele>133.0</ele><time>2026-04-23T01:29:44.833Z</time></trkpt><trkpt lat="45.4091413" lon="10.5397963"><ele>133.0</ele><time>2026-04-23T01:29:53.83Z</time></trkpt><trkpt lat="45.4090833" lon="10.5399138"><ele>133.0</ele><time>2026-04-23T01:31:18.838Z</time></trkpt><trkpt lat="45.4090135" lon="10.5399494"><ele>133.0</ele><time>2026-04-23T01:31:33.832Z</time></trkpt><trkpt lat="45.4090701" lon="10.5398677"><ele>133.0</ele><time>2026-04-23T01:31:54.829Z</time></trkpt><trkpt lat="45.4090064" lon="10.5398622"><ele>133.0</ele><time>2026-04-23T01:32:19.832Z</time></trkpt><trkpt lat="45.4090055" lon="10.5397363"><ele>133.0</ele><time>2026-04-23T01:32:38.834Z</time></trkpt><trkpt lat="45.409086" lon="10.5395348"><ele>133.0</ele><time>2026-04-23T01:32:51.829Z</time></trkpt><trkpt lat="45.4091264" lon="10.5394121"><ele>133.0</ele><time>2026-04-23T01:32:53.834Z</time></trkpt><trkpt lat="45.4091316" lon="10.5393088"><ele>133.0</ele><time>2026-04-23T01:32:58.837Z</time></trkpt><trkpt lat="45.4090516" lon="10.5394453"><ele>133.0</ele><time>2026-04-23T01:33:17.829Z</time></trkpt><trkpt lat="45.4089971" lon="10.5396619"><ele>133.0</ele><time>2026-04-23T01:33:24.831Z</time></trkpt><trkpt lat="45.4089806" lon="10.5397518"><ele>133.0</ele><time>2026-04-23T01:33:27.839Z</time></trkpt><trkpt lat="45.4089298" lon="10.539834"><ele>133.0</ele><time>2026-04-23T01:33:42.829Z</time></trkpt><trkpt lat="45.409" lon="10.53981"><ele>133.0</ele><time>2026-04-23T01:35:41.828Z</time></trkpt><trkpt lat="45.4090056" lon="10.5396943"><ele>133.0</ele><time>2026-04-23T01:35:42.828Z</time></trkpt><trkpt lat="45.4090565" lon="10.539612"><ele>133.0</ele><time>2026-04-23T01:36:48.833Z</time></trkpt><trkpt lat="45.4091401" lon="10.5395322"><ele>133.0</ele><time>2026-04-23T01:37:05.831Z</time></trkpt><trkpt lat="45.4090535" lon="10.5396372"><ele>133.0</ele><time>2026-04-23T01:37:43.845Z</time></trkpt><trkpt lat="45.4090411" lon="10.5397472"><ele>133.0</ele><time>2026-04-23T01:37:57.84Z</time></trkpt><trkpt lat="45.4090898" lon="10.5398153"><ele>133.0</ele><time>2026-04-23T01:38:01.832Z</time></trkpt><trkpt lat="45.4090367" lon="10.5398887"><ele>133.0</ele><time>2026-04-23T01:38:46.835Z</time></trkpt><trkpt lat="45.4091243" lon="10.5397621"><ele>133.0</ele><time>2026-04-23T01:39:16.829Z</time></trkpt><trkpt lat="45.4090676" lon="10.539847"><ele>133.0</ele><time>2026-04-23T01:39:27.839Z</time></trkpt><trkpt lat="45.4090097" lon="10.5399298"><ele>133.0</ele><time>2026-04-23T01:40:19.842Z</time></trkpt><trkpt lat="45.4089969" lon="10.5400212"><ele>133.0</ele><time>2026-04-23T01:40:33.831Z</time></trkpt><trkpt lat="45.4089443" lon="10.5400998"><ele>133.0</ele><time>2026-04-23T01:40:47.828Z</time></trkpt><trkpt lat="45.4089027" lon="10.5401712"><ele>133.0</ele><time>2026-04-23T01:40:50.837Z</time></trkpt><trkpt lat="45.408884" lon="10.540354"><ele>133.0</ele><time>2026-04-23T01:41:17.83Z</time></trkpt><trkpt lat="45.4089382" lon="10.5402698"><ele>133.0</ele><time>2026-04-23T01:41:37.834Z</time></trkpt><trkpt lat="45.4089913" lon="10.5400913"><ele>133.0</ele><time>2026-04-23T01:42:00.828Z</time></trkpt><trkpt lat="45.4090151" lon="10.5400064"><ele>133.0</ele><time>2026-04-23T01:42:01.832Z</time></trkpt><trkpt lat="45.4090594" lon="10.5398664"><ele>133.0</ele><time>2026-04-23T01:42:03.835Z</time></trkpt><trkpt lat="45.4089897" lon="10.53992"><ele>133.0</ele><time>2026-04-23T01:42:55.831Z</time></trkpt><trkpt lat="45.4090018" lon="10.5398044"><ele>133.0</ele><time>2026-04-23T01:45:01.834Z</time></trkpt><trkpt lat="45.4089325" lon="10.5398341"><ele>133.0</ele><time>2026-04-23T01:45:18.83Z</time></trkpt><trkpt lat="45.4089251" lon="10.5397383"><ele>133.0</ele><time>2026-04-23T01:45:35.843Z</time></trkpt><trkpt lat="45.4089667" lon="10.5396321"><ele>133.0</ele><time>2026-04-23T01:45:58.83Z</time></trkpt><trkpt lat="45.4090633" lon="10.5396299"><ele>133.0</ele><time>2026-04-23T01:46:33.839Z</time></trkpt><trkpt lat="45.409053" lon="10.5397221"><ele>133.0</ele><time>2026-04-23T01:46:55.843Z</time></trkpt><trkpt lat="45.409183" lon="10.5397228"><ele>133.0</ele><time>2026-04-23T01:48:04.842Z</time></trkpt><trkpt lat="45.4092582" lon="10.5396744"><ele>133.0</ele><time>2026-04-23T01:48:30.83Z</time></trkpt><trkpt lat="45.4091943" lon="10.5397071"><ele>133.0</ele><time>2026-04-23T01:48:56.827Z</time></trkpt><trkpt lat="45.4091277" lon="10.5397861"><ele>133.0</ele><time>2026-04-23T01:49:06.831Z</time></trkpt><trkpt lat="45.4090567" lon="10.5398472"><ele>133.0</ele><time>2026-04-23T01:49:54.837Z</time></trkpt><trkpt lat="45.4091308" lon="10.539792"><ele>133.0</ele><time>2026-04-23T01:50:39.828Z</time></trkpt><trkpt lat="45.4091572" lon="10.5397056"><ele>133.0</ele><time>2026-04-23T01:51:06.83Z</time></trkpt><trkpt lat="45.4090851" lon="10.5397134"><ele>133.0</ele><time>2026-04-23T01:51:18.835Z</time></trkpt><trkpt lat="45.4089958" lon="10.5396732"><ele>133.0</ele><time>2026-04-23T01:51:21.829Z</time></trkpt><trkpt lat="45.4089245" lon="10.539625"><ele>133.0</ele><time>2026-04-23T01:51:26.833Z</time></trkpt><trkpt lat="45.4089819" lon="10.5395588"><ele>133.0</ele><time>2026-04-23T01:51:44.832Z</time></trkpt><trkpt lat="45.4090527" lon="10.5394837"><ele>133.0</ele><time>2026-04-23T01:51:46.832Z</time></trkpt><trkpt lat="45.4091318" lon="10.5394355"><ele>133.0</ele><time>2026-04-23T01:51:59.84Z</time></trkpt><trkpt lat="45.4091098" lon="10.539521"><ele>133.0</ele><time>2026-04-23T01:52:33.833Z</time></trkpt><trkpt lat="45.4092096" lon="10.5396251"><ele>133.0</ele><time>2026-04-23T01:53:56.84Z</time></trkpt><trkpt lat="45.4091901" lon="10.539756"><ele>133.0</ele><time>2026-04-23T01:54:19.839Z</time></trkpt><trkpt lat="45.4092113" lon="10.5396501"><ele>133.0</ele><time>2026-04-23T01:54:46.83Z</time></trkpt><trkpt lat="45.4091477" lon="10.5396045"><ele>133.0</ele><time>2026-04-23T01:55:37.83Z</time></trkpt><trkpt lat="45.4090443" lon="10.539643"><ele>133.0</ele><time>2026-04-23T01:56:07.838Z</time></trkpt><trkpt lat="45.4090795" lon="10.5397739"><ele>133.0</ele><time>2026-04-23T01:56:55.836Z</time></trkpt><trkpt lat="45.4090799" lon="10.5396675"><ele>133.0</ele><time>2026-04-23T01:57:32.831Z</time></trkpt><trkpt lat="45.4090877" lon="10.5397711"><ele>133.0</ele><time>2026-04-23T01:57:53.837Z</time></trkpt><trkpt lat="45.4090335" lon="10.5399066"><ele>133.0</ele><time>2026-04-23T01:58:06.836Z</time></trkpt><trkpt lat="45.4089777" lon="10.540006"><ele>133.0</ele><time>2026-04-23T01:58:14.832Z</time></trkpt><trkpt lat="45.4089402" lon="10.5401552"><ele>133.0</ele><time>2026-04-23T01:58:21.83Z</time></trkpt><trkpt lat="45.4089939" lon="10.5400136"><ele>133.0</ele><time>2026-04-23T01:59:01.831Z</time></trkpt><trkpt lat="45.4090146" lon="10.5397946"><ele>133.0</ele><time>2026-04-23T01:59:10.833Z</time></trkpt><trkpt lat="45.4090023" lon="10.5397053"><ele>133.0</ele><time>2026-04-23T01:59:12.837Z</time></trkpt><trkpt lat="45.4090092" lon="10.5395779"><ele>133.0</ele><time>2026-04-23T01:59:20.832Z</time></trkpt><trkpt lat="45.409058" lon="10.5396477"><ele>133.0</ele><time>2026-04-23T01:59:42.828Z</time></trkpt><trkpt lat="45.4090305" lon="10.5397702"><ele>133.0</ele><time>2026-04-23T01:59:55.839Z</time></trkpt><trkpt lat="45.4089538" lon="10.5398644"><ele>133.0</ele><time>2026-04-23T02:00:25.835Z</time></trkpt><trkpt lat="45.4088479" lon="10.5399248"><ele>133.0</ele><time>2026-04-23T02:00:44.839Z</time></trkpt><trkpt lat="45.4089464" lon="10.5399691"><ele>133.0</ele><time>2026-04-23T02:01:55.844Z</time></trkpt><trkpt lat="45.4088991" lon="10.5400342"><ele>133.0</ele><time>2026-04-23T02:02:11.842Z</time></trkpt><trkpt lat="45.4090366" lon="10.539968"><ele>133.0</ele><time>2026-04-23T02:02:42.828Z</time></trkpt><trkpt lat="45.4091707" lon="10.5399121"><ele>133.0</ele><time>2026-04-23T02:02:52.837Z</time></trkpt><trkpt lat="45.4090952" lon="10.5399868"><ele>133.0</ele><time>2026-04-23T02:03:09.834Z</time></trkpt><trkpt lat="45.4089636" lon="10.5400476"><ele>133.0</ele><time>2026-04-23T02:03:43.833Z</time></trkpt><trkpt lat="45.4090106" lon="10.5399719"><ele>133.0</ele><time>2026-04-23T02:04:01.833Z</time></trkpt><trkpt lat="45.4089428" lon="10.5400526"><ele>133.0</ele><time>2026-04-23T02:04:57.839Z</time></trkpt><trkpt lat="45.4088365" lon="10.5401636"><ele>133.0</ele><time>2026-04-23T02:05:21.833Z</time></trkpt><trkpt lat="45.408767" lon="10.5402796"><ele>133.0</ele><time>2026-04-23T02:06:10.835Z</time></trkpt><trkpt lat="45.4086756" lon="10.540385"><ele>133.0</ele><time>2026-04-23T02:06:55.836Z</time></trkpt><trkpt lat="45.4088191" lon="10.540337"><ele>133.0</ele><time>2026-04-23T02:07:25.833Z</time></trkpt><trkpt lat="45.4089655" lon="10.5402586"><ele>133.0</ele><time>2026-04-23T02:07:33.827Z</time></trkpt><trkpt lat="45.4090318" lon="10.5401966"><ele>133.0</ele><time>2026-04-23T02:07:36.835Z</time></trkpt><trkpt lat="45.4090993" lon="10.5401362"><ele>133.0</ele><time>2026-04-23T02:07:42.83Z</time></trkpt><trkpt lat="45.4091614" lon="10.5400913"><ele>133.0</ele><time>2026-04-23T02:07:47.837Z</time></trkpt><trkpt lat="45.4092238" lon="10.5400438"><ele>133.0</ele><time>2026-04-23T02:07:50.829Z</time></trkpt><trkpt lat="45.4092802" lon="10.5399961"><ele>133.0</ele><time>2026-04-23T02:07:53.84Z</time></trkpt><trkpt lat="45.4092165" lon="10.5400321"><ele>133.0</ele><time>2026-04-23T02:08:07.827Z</time></trkpt><trkpt lat="45.4090543" lon="10.540131"><ele>133.0</ele><time>2026-04-23T02:08:12.839Z</time></trkpt><trkpt lat="45.4089859" lon="10.5401722"><ele>133.0</ele><time>2026-04-23T02:08:13.829Z</time></trkpt><trkpt lat="45.4088567" lon="10.5402363"><ele>133.0</ele><time>2026-04-23T02:08:19.832Z</time></trkpt><trkpt lat="45.4087575" lon="10.540296"><ele>133.0</ele><time>2026-04-23T02:08:26.832Z</time></trkpt><trkpt lat="45.4086878" lon="10.5403437"><ele>133.0</ele><time>2026-04-23T02:08:28.837Z</time></trkpt><trkpt lat="45.4085995" lon="10.5404047"><ele>133.0</ele><time>2026-04-23T02:08:30.826Z</time></trkpt><trkpt lat="45.4086729" lon="10.5403872"><ele>133.0</ele><time>2026-04-23T02:10:38.838Z</time></trkpt><trkpt lat="45.4087385" lon="10.5403403"><ele>133.0</ele><time>2026-04-23T02:10:41.83Z</time></trkpt><trkpt lat="45.4088305" lon="10.5402864"><ele>133.0</ele><time>2026-04-23T02:10:46.835Z</time></trkpt><trkpt lat="45.4089107" lon="10.5402455"><ele>133.0</ele><time>2026-04-23T02:10:49.831Z</time></trkpt><trkpt lat="45.4090222" lon="10.5401746"><ele>133.0</ele><time>2026-04-23T02:10:54.838Z</time></trkpt><trkpt lat="45.4090823" lon="10.5401273"><ele>133.0</ele><time>2026-04-23T02:10:56.822Z</time></trkpt><trkpt lat="45.4092056" lon="10.540098"><ele>133.0</ele><time>2026-04-23T02:11:05.831Z</time></trkpt><trkpt lat="45.4091362" lon="10.5401107"><ele>133.0</ele><time>2026-04-23T02:11:32.834Z</time></trkpt><trkpt lat="45.4090668" lon="10.5401441"><ele>133.0</ele><time>2026-04-23T02:11:37.827Z</time></trkpt><trkpt lat="45.4091425" lon="10.5400429"><ele>133.0</ele><time>2026-04-23T02:12:23.838Z</time></trkpt><trkpt lat="45.409226" lon="10.5399774"><ele>133.0</ele><time>2026-04-23T02:12:26.833Z</time></trkpt><trkpt lat="45.4093121" lon="10.5399073"><ele>133.0</ele><time>2026-04-23T02:12:31.842Z</time></trkpt><trkpt lat="45.4093711" lon="10.5398638"><ele>133.0</ele><time>2026-04-23T02:12:35.828Z</time></trkpt><trkpt lat="45.4094577" lon="10.5398254"><ele>133.0</ele><time>2026-04-23T02:12:39.835Z</time></trkpt><trkpt lat="45.4095386" lon="10.5397954"><ele>133.0</ele><time>2026-04-23T02:12:56.839Z</time></trkpt><trkpt lat="45.4096552" lon="10.5397334"><ele>133.0</ele><time>2026-04-23T02:13:06.83Z</time></trkpt><trkpt lat="45.409717" lon="10.5397011"><ele>133.0</ele><time>2026-04-23T02:13:07.83Z</time></trkpt><trkpt lat="45.4098165" lon="10.5396514"><ele>133.0</ele><time>2026-04-23T02:13:17.83Z</time></trkpt><trkpt lat="45.4097116" lon="10.5397254"><ele>133.0</ele><time>2026-04-23T02:13:27.828Z</time></trkpt><trkpt lat="45.4096446" lon="10.539749"><ele>133.0</ele><time>2026-04-23T02:13:30.828Z</time></trkpt><trkpt lat="45.4095473" lon="10.5398005"><ele>133.0</ele><time>2026-04-23T02:13:35.828Z</time></trkpt><trkpt lat="45.4096302" lon="10.5398108"><ele>133.0</ele><time>2026-04-23T02:13:52.835Z</time></trkpt><trkpt lat="45.4095281" lon="10.5398963"><ele>133.0</ele><time>2026-04-23T02:14:27.832Z</time></trkpt><trkpt lat="45.4095952" lon="10.5398149"><ele>133.0</ele><time>2026-04-23T02:14:38.83Z</time></trkpt><trkpt lat="45.4096847" lon="10.5397837"><ele>133.0</ele><time>2026-04-23T02:14:40.836Z</time></trkpt><trkpt lat="45.4096435" lon="10.539876"><ele>133.0</ele><time>2026-04-23T02:15:13.833Z</time></trkpt><trkpt lat="45.4095776" lon="10.5399328"><ele>133.0</ele><time>2026-04-23T02:15:15.838Z</time></trkpt><trkpt lat="45.4094802" lon="10.5399481"><ele>133.0</ele><time>2026-04-23T02:15:19.828Z</time></trkpt><trkpt lat="45.4093355" lon="10.5400236"><ele>133.0</ele><time>2026-04-23T02:15:38.835Z</time></trkpt><trkpt lat="45.4092269" lon="10.5400659"><ele>133.0</ele><time>2026-04-23T02:15:43.824Z</time></trkpt><trkpt lat="45.4092317" lon="10.5399739"><ele>133.0</ele><time>2026-04-23T02:16:02.831Z</time></trkpt><trkpt lat="45.4090682" lon="10.5400178"><ele>133.0</ele><time>2026-04-23T02:16:17.827Z</time></trkpt><trkpt lat="45.4089684" lon="10.5400796"><ele>133.0</ele><time>2026-04-23T02:16:19.837Z</time></trkpt><trkpt lat="45.4088562" lon="10.5401312"><ele>133.0</ele><time>2026-04-23T02:16:24.83Z</time></trkpt><trkpt lat="45.408927" lon="10.5400645"><ele>133.0</ele><time>2026-04-23T02:16:43.837Z</time></trkpt><trkpt lat="45.4089958" lon="10.5400303"><ele>133.0</ele><time>2026-04-23T02:16:45.831Z</time></trkpt><trkpt lat="45.4090597" lon="10.5399759"><ele>133.0</ele><time>2026-04-23T02:17:05.838Z</time></trkpt><trkpt lat="45.4091779" lon="10.5399801"><ele>133.0</ele><time>2026-04-23T02:17:55.831Z</time></trkpt><trkpt lat="45.4091132" lon="10.5400175"><ele>133.0</ele><time>2026-04-23T02:18:19.832Z</time></trkpt><trkpt lat="45.4089777" lon="10.5400731"><ele>133.0</ele><time>2026-04-23T02:19:25.839Z</time></trkpt><trkpt lat="45.408922" lon="10.5401154"><ele>133.0</ele><time>2026-04-23T02:19:26.833Z</time></trkpt><trkpt lat="45.4090012" lon="10.5400142"><ele>133.0</ele><time>2026-04-23T02:20:07.82Z</time></trkpt><trkpt lat="45.4090978" lon="10.5399572"><ele>133.0</ele><time>2026-04-23T02:20:17.831Z</time></trkpt><trkpt lat="45.4090406" lon="10.5400021"><ele>133.0</ele><time>2026-04-23T02:21:13.84Z</time></trkpt><trkpt lat="45.4090357" lon="10.5399118"><ele>133.0</ele><time>2026-04-23T02:21:28.833Z</time></trkpt><trkpt lat="45.408963" lon="10.5399584"><ele>133.0</ele><time>2026-04-23T02:22:05.831Z</time></trkpt><trkpt lat="45.4089" lon="10.5399753"><ele>133.0</ele><time>2026-04-23T02:23:11.828Z</time></trkpt><trkpt lat="45.4088182" lon="10.5399968"><ele>133.0</ele><time>2026-04-23T02:23:15.838Z</time></trkpt><trkpt lat="45.4088847" lon="10.5399344"><ele>133.0</ele><time>2026-04-23T02:23:32.837Z</time></trkpt><trkpt lat="45.4089525" lon="10.539909"><ele>133.0</ele><time>2026-04-23T02:23:36.835Z</time></trkpt><trkpt lat="45.4090196" lon="10.5398908"><ele>133.0</ele><time>2026-04-23T02:23:41.832Z</time></trkpt><trkpt lat="45.4090977" lon="10.539849"><ele>133.0</ele><time>2026-04-23T02:24:01.836Z</time></trkpt><trkpt lat="45.4089873" lon="10.5399142"><ele>133.0</ele><time>2026-04-23T02:24:27.835Z</time></trkpt><trkpt lat="45.4090535" lon="10.5398571"><ele>133.0</ele><time>2026-04-23T02:24:50.829Z</time></trkpt><trkpt lat="45.408924" lon="10.539921"><ele>133.0</ele><time>2026-04-23T02:24:57.829Z</time></trkpt><trkpt lat="45.408821" lon="10.5399546"><ele>133.0</ele><time>2026-04-23T02:24:59.833Z</time></trkpt><trkpt lat="45.4089003" lon="10.5398915"><ele>133.0</ele><time>2026-04-23T02:25:29.828Z</time></trkpt><trkpt lat="45.4089831" lon="10.539812"><ele>133.0</ele><time>2026-04-23T02:26:09.831Z</time></trkpt><trkpt lat="45.40904" lon="10.53991"><ele>133.0</ele><time>2026-04-23T02:26:54.838Z</time></trkpt><trkpt lat="45.4089719" lon="10.539933"><ele>133.0</ele><time>2026-04-23T02:26:55.843Z</time></trkpt><trkpt lat="45.4090543" lon="10.5399379"><ele>133.0</ele><time>2026-04-23T02:27:04.836Z</time></trkpt><trkpt lat="45.4091293" lon="10.5399097"><ele>133.0</ele><time>2026-04-23T02:27:05.828Z</time></trkpt><trkpt lat="45.4092345" lon="10.5398721"><ele>133.0</ele><time>2026-04-23T02:27:06.829Z</time></trkpt><trkpt lat="45.4092987" lon="10.5398497"><ele>133.0</ele><time>2026-04-23T02:27:07.828Z</time></trkpt><trkpt lat="45.4092326" lon="10.5398962"><ele>133.0</ele><time>2026-04-23T02:27:25.842Z</time></trkpt><trkpt lat="45.4091351" lon="10.5399462"><ele>133.0</ele><time>2026-04-23T02:27:29.827Z</time></trkpt><trkpt lat="45.4090626" lon="10.5399306"><ele>133.0</ele><time>2026-04-23T02:28:52.83Z</time></trkpt><trkpt lat="45.4089539" lon="10.539984"><ele>133.0</ele><time>2026-04-23T02:29:21.839Z</time></trkpt><trkpt lat="45.4088833" lon="10.53995"><ele>133.0</ele><time>2026-04-23T02:33:11.829Z</time></trkpt><trkpt lat="45.408929" lon="10.5398845"><ele>133.0</ele><time>2026-04-23T02:33:13.833Z</time></trkpt><trkpt lat="45.4088364" lon="10.5398876"><ele>133.0</ele><time>2026-04-23T02:34:15.834Z</time></trkpt><trkpt lat="45.408783" lon="10.5399703"><ele>133.0</ele><time>2026-04-23T02:35:03.832Z</time></trkpt><trkpt lat="45.4086991" lon="10.5400202"><ele>133.0</ele><time>2026-04-23T02:35:04.832Z</time></trkpt><trkpt lat="45.4087868" lon="10.5399981"><ele>133.0</ele><time>2026-04-23T02:35:15.828Z</time></trkpt><trkpt lat="45.4087173" lon="10.5399984"><ele>133.0</ele><time>2026-04-23T02:35:32.83Z</time></trkpt><trkpt lat="45.4087755" lon="10.5399332"><ele>133.0</ele><time>2026-04-23T02:36:05.829Z</time></trkpt><trkpt lat="45.4089023" lon="10.5398825"><ele>133.0</ele><time>2026-04-23T02:36:36.825Z</time></trkpt><trkpt lat="45.4089844" lon="10.5399057"><ele>133.0</ele><time>2026-04-23T02:37:46.832Z</time></trkpt><trkpt lat="45.4089676" lon="10.5398015"><ele>133.0</ele><time>2026-04-23T02:38:55.831Z</time></trkpt><trkpt lat="45.4090048" lon="10.5399189"><ele>133.0</ele><time>2026-04-23T02:41:51.837Z</time></trkpt><trkpt lat="45.4089406" lon="10.539997"><ele>133.0</ele><time>2026-04-23T02:43:26.836Z</time></trkpt><trkpt lat="45.4089749" lon="10.5399084"><ele>133.0</ele><time>2026-04-23T02:43:50.83Z</time></trkpt><trkpt lat="45.408906" lon="10.5399467"><ele>133.0</ele><time>2026-04-23T02:44:29.828Z</time></trkpt><trkpt lat="45.4090085" lon="10.540054"><ele>133.0</ele><time>2026-04-23T02:48:50.828Z</time></trkpt><trkpt lat="45.4089733" lon="10.5399595"><ele>133.0</ele><time>2026-04-23T02:50:07.838Z</time></trkpt><trkpt lat="45.4088625" lon="10.5399195"><ele>133.0</ele><time>2026-04-23T02:50:20.826Z</time></trkpt><trkpt lat="45.4089383" lon="10.5399251"><ele>133.0</ele><time>2026-04-23T02:50:34.832Z</time></trkpt><trkpt lat="45.4090021" lon="10.5399194"><ele>133.0</ele><time>2026-04-23T02:51:49.831Z</time></trkpt><trkpt lat="45.4090514" lon="10.5398466"><ele>133.0</ele><time>2026-04-23T02:53:26.829Z</time></trkpt><trkpt lat="45.4089756" lon="10.5398292"><ele>133.0</ele><time>2026-04-23T02:53:57.838Z</time></trkpt><trkpt lat="45.4089239" lon="10.5399391"><ele>133.0</ele><time>2026-04-23T02:55:05.829Z</time></trkpt><trkpt lat="45.4089855" lon="10.5398456"><ele>133.0</ele><time>2026-04-23T02:56:46.838Z</time></trkpt><trkpt lat="45.4089298" lon="10.5398995"><ele>133.0</ele><time>2026-04-23T02:59:50.827Z</time></trkpt><trkpt lat="45.4088136" lon="10.5400206"><ele>133.0</ele><time>2026-04-23T03:00:00.833Z</time></trkpt><trkpt lat="45.408762" lon="10.5400748"><ele>133.0</ele><time>2026-04-23T03:00:01.839Z</time></trkpt><trkpt lat="45.4088324" lon="10.5399995"><ele>133.0</ele><time>2026-04-23T03:00:15.826Z</time></trkpt><trkpt lat="45.4087612" lon="10.540015"><ele>133.0</ele><time>2026-04-23T03:00:35.833Z</time></trkpt><trkpt lat="45.4088271" lon="10.5399633"><ele>133.0</ele><time>2026-04-23T03:00:45.834Z</time></trkpt><trkpt lat="45.408884" lon="10.5399117"><ele>133.0</ele><time>2026-04-23T03:00:47.83Z</time></trkpt><trkpt lat="45.4089841" lon="10.5398286"><ele>133.0</ele><time>2026-04-23T03:00:55.82Z</time></trkpt><trkpt lat="45.4090989" lon="10.5398112"><ele>133.0</ele><time>2026-04-23T03:04:07.836Z</time></trkpt><trkpt lat="45.4090255" lon="10.5398464"><ele>133.0</ele><time>2026-04-23T03:04:46.815Z</time></trkpt><trkpt lat="45.4089605" lon="10.5398884"><ele>133.0</ele><time>2026-04-23T03:04:51.827Z</time></trkpt><trkpt lat="45.4088929" lon="10.5399324"><ele>133.0</ele><time>2026-04-23T03:04:56.842Z</time></trkpt><trkpt lat="45.4089561" lon="10.5398942"><ele>133.0</ele><time>2026-04-23T03:05:32.826Z</time></trkpt><trkpt lat="45.4089594" lon="10.5398035"><ele>133.0</ele><time>2026-04-23T03:05:57.829Z</time></trkpt><trkpt lat="45.4088811" lon="10.5398377"><ele>133.0</ele><time>2026-04-23T03:06:15.836Z</time></trkpt><trkpt lat="45.4089345" lon="10.5399002"><ele>133.0</ele><time>2026-04-23T03:06:55.829Z</time></trkpt><trkpt lat="45.4090581" lon="10.5399164"><ele>133.0</ele><time>2026-04-23T03:07:54.832Z</time></trkpt><trkpt lat="45.4091621" lon="10.5398616"><ele>133.0</ele><time>2026-04-23T03:08:52.836Z</time></trkpt><trkpt lat="45.409064" lon="10.5398528"><ele>133.0</ele><time>2026-04-23T03:09:39.837Z</time></trkpt><trkpt lat="45.4089292" lon="10.5398501"><ele>133.0</ele><time>2026-04-23T03:10:05.83Z</time></trkpt><trkpt lat="45.4088572" lon="10.5398535"><ele>133.0</ele><time>2026-04-23T03:10:09.823Z</time></trkpt><trkpt lat="45.4089265" lon="10.5398483"><ele>133.0</ele><time>2026-04-23T03:11:24.822Z</time></trkpt><trkpt lat="45.4089912" lon="10.5398217"><ele>133.0</ele><time>2026-04-23T03:11:39.826Z</time></trkpt><trkpt lat="45.4090505" lon="10.5397837"><ele>133.0</ele><time>2026-04-23T03:12:21.827Z</time></trkpt><trkpt lat="45.409118" lon="10.5397768"><ele>133.0</ele><time>2026-04-23T03:12:27.827Z</time></trkpt><trkpt lat="45.4091817" lon="10.5397607"><ele>133.0</ele><time>2026-04-23T03:12:39.838Z</time></trkpt><trkpt lat="45.4091173" lon="10.5397896"><ele>133.0</ele><time>2026-04-23T03:13:13.839Z</time></trkpt><trkpt lat="45.40905" lon="10.5398023"><ele>133.0</ele><time>2026-04-23T03:13:18.831Z</time></trkpt><trkpt lat="45.4091602" lon="10.5398473"><ele>133.0</ele><time>2026-04-23T03:14:10.826Z</time></trkpt><trkpt lat="45.4093038" lon="10.539821"><ele>133.0</ele><time>2026-04-23T03:14:13.826Z</time></trkpt><trkpt lat="45.4093825" lon="10.5398014"><ele>133.0</ele><time>2026-04-23T03:14:15.83Z</time></trkpt><trkpt lat="45.4094613" lon="10.5397743"><ele>133.0</ele><time>2026-04-23T03:14:18.836Z</time></trkpt><trkpt lat="45.4093987" lon="10.53973"><ele>133.0</ele><time>2026-04-23T03:14:47.824Z</time></trkpt><trkpt lat="45.4094674" lon="10.5397273"><ele>133.0</ele><time>2026-04-23T03:15:04.83Z</time></trkpt><trkpt lat="45.4095917" lon="10.5396841"><ele>133.0</ele><time>2026-04-23T03:15:08.836Z</time></trkpt><trkpt lat="45.4094455" lon="10.5397125"><ele>133.0</ele><time>2026-04-23T03:15:10.83Z</time></trkpt><trkpt lat="45.4093447" lon="10.5397455"><ele>133.0</ele><time>2026-04-23T03:15:11.827Z</time></trkpt><trkpt lat="45.4092645" lon="10.539785"><ele>133.0</ele><time>2026-04-23T03:15:13.837Z</time></trkpt><trkpt lat="45.4092136" lon="10.5398384"><ele>133.0</ele><time>2026-04-23T03:15:17.845Z</time></trkpt><trkpt lat="45.4091286" lon="10.5399499"><ele>133.0</ele><time>2026-04-23T03:15:24.84Z</time></trkpt><trkpt lat="45.4090465" lon="10.540009"><ele>132.0</ele><time>2026-04-23T03:15:27.828Z</time></trkpt><trkpt lat="45.408213" lon="10.5405811"><ele>132.0</ele><time>2026-04-23T03:16:56.826Z</time></trkpt><trkpt lat="45.4083248" lon="10.540436"><ele>132.0</ele><time>2026-04-23T03:16:57.829Z</time></trkpt><trkpt lat="45.4090219" lon="10.5396456"><ele>132.16666666666666</ele><time>2026-04-23T03:17:18.836Z</time></trkpt><trkpt lat="45.4091086" lon="10.5395536"><ele>132.33333333333334</ele><time>2026-04-23T03:17:29.827Z</time></trkpt><trkpt lat="45.4091394" lon="10.5396487"><ele>132.5</ele><time>2026-04-23T03:17:46.826Z</time></trkpt><trkpt lat="45.4090731" lon="10.5397065"><ele>132.66666666666669</ele><time>2026-04-23T03:17:51.836Z</time></trkpt><trkpt lat="45.4090757" lon="10.5398131"><ele>132.83333333333334</ele><time>2026-04-23T03:18:21.829Z</time></trkpt><trkpt lat="45.409062" lon="10.5399033"><ele>133.0</ele><time>2026-04-23T03:18:56.837Z</time></trkpt><trkpt lat="45.4089945" lon="10.5398746"><ele>133.0</ele><time>2026-04-23T03:19:05.834Z</time></trkpt><trkpt lat="45.4089249" lon="10.5398747"><ele>133.0</ele><time>2026-04-23T03:19:10.829Z</time></trkpt><trkpt lat="45.4088497" lon="10.5398868"><ele>133.0</ele><time>2026-04-23T03:19:18.838Z</time></trkpt><trkpt lat="45.4089312" lon="10.539848"><ele>133.0</ele><time>2026-04-23T03:19:21.838Z</time></trkpt><trkpt lat="45.4089969" lon="10.5398566"><ele>133.0</ele><time>2026-04-23T03:19:53.835Z</time></trkpt><trkpt lat="45.4089452" lon="10.5399205"><ele>133.0</ele><time>2026-04-23T03:20:00.835Z</time></trkpt><trkpt lat="45.4088661" lon="10.5399925"><ele>133.0</ele><time>2026-04-23T03:20:10.833Z</time></trkpt><trkpt lat="45.4089696" lon="10.5398965"><ele>133.0</ele><time>2026-04-23T03:20:33.829Z</time></trkpt><trkpt lat="45.4090528" lon="10.5398825"><ele>133.0</ele><time>2026-04-23T03:20:34.833Z</time></trkpt><trkpt lat="45.4091171" lon="10.5398582"><ele>133.0</ele><time>2026-04-23T03:20:36.827Z</time></trkpt><trkpt lat="45.4091891" lon="10.5398497"><ele>133.0</ele><time>2026-04-23T03:20:39.835Z</time></trkpt><trkpt lat="45.4091232" lon="10.5398533"><ele>133.0</ele><time>2026-04-23T03:20:50.836Z</time></trkpt><trkpt lat="45.4092015" lon="10.5398533"><ele>133.0</ele><time>2026-04-23T03:22:07.837Z</time></trkpt><trkpt lat="45.409282" lon="10.5398354"><ele>133.0</ele><time>2026-04-23T03:22:10.84Z</time></trkpt><trkpt lat="45.4093335" lon="10.5398965"><ele>133.0</ele><time>2026-04-23T03:22:15.828Z</time></trkpt><trkpt lat="45.4094079" lon="10.5399444"><ele>133.0</ele><time>2026-04-23T03:22:21.831Z</time></trkpt><trkpt lat="45.4094598" lon="10.5399958"><ele>133.0</ele><time>2026-04-23T03:22:24.835Z</time></trkpt><trkpt lat="45.4093468" lon="10.5399848"><ele>133.0</ele><time>2026-04-23T03:22:27.83Z</time></trkpt><trkpt lat="45.4092662" lon="10.5399652"><ele>133.0</ele><time>2026-04-23T03:22:28.835Z</time></trkpt><trkpt lat="45.4091909" lon="10.5399529"><ele>133.0</ele><time>2026-04-23T03:22:29.833Z</time></trkpt><trkpt lat="45.4091273" lon="10.5399388"><ele>133.0</ele><time>2026-04-23T03:22:31.836Z</time></trkpt><trkpt lat="45.4090518" lon="10.5399107"><ele>133.0</ele><time>2026-04-23T03:22:35.829Z</time></trkpt><trkpt lat="45.408982" lon="10.539923"><ele>133.0</ele><time>2026-04-23T03:22:39.828Z</time></trkpt><trkpt lat="45.409017" lon="10.5399997"><ele>133.0</ele><time>2026-04-23T03:22:51.835Z</time></trkpt><trkpt lat="45.4090531" lon="10.5399202"><ele>133.0</ele><time>2026-04-23T03:23:07.829Z</time></trkpt><trkpt lat="45.4091519" lon="10.5399045"><ele>133.0</ele><time>2026-04-23T03:23:46.832Z</time></trkpt><trkpt lat="45.4090899" lon="10.5398881"><ele>133.0</ele><time>2026-04-23T03:24:05.826Z</time></trkpt><trkpt lat="45.4091466" lon="10.5398255"><ele>133.0</ele><time>2026-04-23T03:24:35.827Z</time></trkpt><trkpt lat="45.4091201" lon="10.5397132"><ele>133.0</ele><time>2026-04-23T03:24:44.828Z</time></trkpt><trkpt lat="45.4090716" lon="10.5396523"><ele>133.0</ele><time>2026-04-23T03:24:54.826Z</time></trkpt><trkpt lat="45.4090081" lon="10.5396632"><ele>133.0</ele><time>2026-04-23T03:24:59.828Z</time></trkpt><trkpt lat="45.4089598" lon="10.5397333"><ele>133.0</ele><time>2026-04-23T03:25:06.837Z</time></trkpt><trkpt lat="45.4089635" lon="10.5398297"><ele>133.0</ele><time>2026-04-23T03:25:10.829Z</time></trkpt><trkpt lat="45.4089396" lon="10.5397423"><ele>133.0</ele><time>2026-04-23T03:25:19.826Z</time></trkpt><trkpt lat="45.4089737" lon="10.539657"><ele>133.0</ele><time>2026-04-23T03:25:25.835Z</time></trkpt><trkpt lat="45.4090827" lon="10.539594"><ele>133.0</ele><time>2026-04-23T03:25:47.837Z</time></trkpt><trkpt lat="45.409047" lon="10.5397095"><ele>133.0</ele><time>2026-04-23T03:25:55.827Z</time></trkpt><trkpt lat="45.408995" lon="10.5398125"><ele>133.0</ele><time>2026-04-23T03:25:57.83Z</time></trkpt><trkpt lat="45.4091347" lon="10.5397814"><ele>133.0</ele><time>2026-04-23T03:26:03.834Z</time></trkpt><trkpt lat="45.4090666" lon="10.5398851"><ele>133.0</ele><time>2026-04-23T03:26:27.83Z</time></trkpt><trkpt lat="45.4090919" lon="10.5397604"><ele>133.0</ele><time>2026-04-23T03:26:29.831Z</time></trkpt><trkpt lat="45.4090265" lon="10.5397719"><ele>133.0</ele><time>2026-04-23T03:26:39.83Z</time></trkpt><trkpt lat="45.4091041" lon="10.5397632"><ele>133.0</ele><time>2026-04-23T03:26:55.841Z</time></trkpt><trkpt lat="45.409152" lon="10.5398465"><ele>133.0</ele><time>2026-04-23T03:27:01.833Z</time></trkpt><trkpt lat="45.4091757" lon="10.5399489"><ele>133.0</ele><time>2026-04-23T03:27:12.838Z</time></trkpt><trkpt lat="45.4090626" lon="10.5399431"><ele>133.0</ele><time>2026-04-23T03:27:35.839Z</time></trkpt><trkpt lat="45.4091211" lon="10.5398277"><ele>133.0</ele><time>2026-04-23T03:27:53.828Z</time></trkpt><trkpt lat="45.4092369" lon="10.5397146"><ele>133.0</ele><time>2026-04-23T03:27:55.827Z</time></trkpt><trkpt lat="45.4093019" lon="10.5396807"><ele>133.0</ele><time>2026-04-23T03:28:02.826Z</time></trkpt><trkpt lat="45.4093689" lon="10.539634"><ele>133.0</ele><time>2026-04-23T03:28:06.837Z</time></trkpt><trkpt lat="45.4092761" lon="10.5396557"><ele>133.0</ele><time>2026-04-23T03:28:17.829Z</time></trkpt><trkpt lat="45.4092074" lon="10.5396986"><ele>133.0</ele><time>2026-04-23T03:28:19.835Z</time></trkpt><trkpt lat="45.4091579" lon="10.5397543"><ele>133.0</ele><time>2026-04-23T03:28:24.828Z</time></trkpt><trkpt lat="45.4090876" lon="10.5398156"><ele>133.0</ele><time>2026-04-23T03:28:27.835Z</time></trkpt><trkpt lat="45.4089726" lon="10.5399327"><ele>133.0</ele><time>2026-04-23T03:28:31.837Z</time></trkpt><trkpt lat="45.4088738" lon="10.5400377"><ele>133.0</ele><time>2026-04-23T03:28:32.833Z</time></trkpt><trkpt lat="45.4087618" lon="10.5401565"><ele>133.0</ele><time>2026-04-23T03:28:33.837Z</time></trkpt><trkpt lat="45.4086967" lon="10.5402232"><ele>133.0</ele><time>2026-04-23T03:28:34.835Z</time></trkpt><trkpt lat="45.4086206" lon="10.5402847"><ele>133.0</ele><time>2026-04-23T03:28:35.834Z</time></trkpt><trkpt lat="45.408555" lon="10.5403502"><ele>132.66666666666669</ele><time>2026-04-23T03:28:38.834Z</time></trkpt><trkpt lat="45.4084763" lon="10.5404351"><ele>132.33333333333334</ele><time>2026-04-23T03:28:41.836Z</time></trkpt><trkpt lat="45.408335" lon="10.5405732"><ele>132.0</ele><time>2026-04-23T03:28:49.012Z</time></trkpt><trkpt lat="45.408808" lon="10.5400521"><ele>132.16666666666666</ele><time>2026-04-23T03:28:56.829Z</time></trkpt><trkpt lat="45.4088781" lon="10.5399804"><ele>132.33333333333334</ele><time>2026-04-23T03:28:57.837Z</time></trkpt><trkpt lat="45.4089449" lon="10.5399093"><ele>132.5</ele><time>2026-04-23T03:28:58.834Z</time></trkpt><trkpt lat="45.4090218" lon="10.5398256"><ele>132.66666666666669</ele><time>2026-04-23T03:29:00.836Z</time></trkpt><trkpt lat="45.4090832" lon="10.5397573"><ele>132.83333333333334</ele><time>2026-04-23T03:29:01.833Z</time></trkpt><trkpt lat="45.4091346" lon="10.5396956"><ele>133.0</ele><time>2026-04-23T03:29:03.828Z</time></trkpt><trkpt lat="45.4091929" lon="10.5396385"><ele>133.0</ele><time>2026-04-23T03:29:05.836Z</time></trkpt><trkpt lat="45.4091101" lon="10.5397619"><ele>133.0</ele><time>2026-04-23T03:29:08.835Z</time></trkpt><trkpt lat="45.4090181" lon="10.5398716"><ele>133.0</ele><time>2026-04-23T03:29:09.838Z</time></trkpt><trkpt lat="45.4090817" lon="10.539824"><ele>133.0</ele><time>2026-04-23T03:29:15.837Z</time></trkpt><trkpt lat="45.409145" lon="10.539704"><ele>133.0</ele><time>2026-04-23T03:29:20.826Z</time></trkpt><trkpt lat="45.4092377" lon="10.539564"><ele>133.0</ele><time>2026-04-23T03:29:24.832Z</time></trkpt><trkpt lat="45.4092003" lon="10.5396542"><ele>133.0</ele><time>2026-04-23T03:29:31.84Z</time></trkpt><trkpt lat="45.4091803" lon="10.5397448"><ele>133.0</ele><time>2026-04-23T03:29:42.828Z</time></trkpt><trkpt lat="45.4091149" lon="10.539778"><ele>133.0</ele><time>2026-04-23T03:29:46.833Z</time></trkpt><trkpt lat="45.4090456" lon="10.5397748"><ele>133.0</ele><time>2026-04-23T03:29:53.837Z</time></trkpt><trkpt lat="45.409002" lon="10.5398459"><ele>133.0</ele><time>2026-04-23T03:30:05.826Z</time></trkpt><trkpt lat="45.408951" lon="10.5399002"><ele>133.0</ele><time>2026-04-23T03:30:06.829Z</time></trkpt><trkpt lat="45.4090167" lon="10.5398683"><ele>133.0</ele><time>2026-04-23T03:30:20.835Z</time></trkpt><trkpt lat="45.4091286" lon="10.5398205"><ele>133.0</ele><time>2026-04-23T03:33:32.834Z</time></trkpt><trkpt lat="45.4090653" lon="10.53983"><ele>133.0</ele><time>2026-04-23T03:34:02.832Z</time></trkpt><trkpt lat="45.4089962" lon="10.5398185"><ele>133.0</ele><time>2026-04-23T03:34:06.838Z</time></trkpt><trkpt lat="45.4090827" lon="10.5398162"><ele>133.0</ele><time>2026-04-23T03:34:53.835Z</time></trkpt><trkpt lat="45.4091239" lon="10.5397307"><ele>133.0</ele><time>2026-04-23T03:35:21.835Z</time></trkpt><trkpt lat="45.4090659" lon="10.5397714"><ele>133.0</ele><time>2026-04-23T03:35:33.837Z</time></trkpt><trkpt lat="45.4089915" lon="10.5398009"><ele>133.0</ele><time>2026-04-23T03:35:40.826Z</time></trkpt><trkpt lat="45.4089262" lon="10.5397858"><ele>133.0</ele><time>2026-04-23T03:35:48.825Z</time></trkpt><trkpt lat="45.4088826" lon="10.5398536"><ele>133.0</ele><time>2026-04-23T03:35:56.828Z</time></trkpt><trkpt lat="45.4088856" lon="10.5399481"><ele>133.0</ele><time>2026-04-23T03:36:21.827Z</time></trkpt><trkpt lat="45.408929" lon="10.5398728"><ele>133.0</ele><time>2026-04-23T03:37:00.827Z</time></trkpt><trkpt lat="45.4089652" lon="10.5397894"><ele>133.0</ele><time>2026-04-23T03:37:21.834Z</time></trkpt><trkpt lat="45.4091245" lon="10.5397876"><ele>133.0</ele><time>2026-04-23T03:40:20.831Z</time></trkpt><trkpt lat="45.409183" lon="10.5397451"><ele>133.0</ele><time>2026-04-23T03:40:49.822Z</time></trkpt><trkpt lat="45.4091233" lon="10.5397825"><ele>133.0</ele><time>2026-04-23T03:41:05.823Z</time></trkpt><trkpt lat="45.4090599" lon="10.5397457"><ele>133.0</ele><time>2026-04-23T03:42:47.831Z</time></trkpt><trkpt lat="45.4089922" lon="10.5397166"><ele>133.0</ele><time>2026-04-23T03:43:13.834Z</time></trkpt><trkpt lat="45.4089301" lon="10.5395685"><ele>133.0</ele><time>2026-04-23T03:43:38.836Z</time></trkpt><trkpt lat="45.4089434" lon="10.5396669"><ele>133.0</ele><time>2026-04-23T03:43:51.829Z</time></trkpt><trkpt lat="45.4089044" lon="10.5395912"><ele>133.0</ele><time>2026-04-23T03:43:58.82Z</time></trkpt><trkpt lat="45.4088572" lon="10.5395261"><ele>133.0</ele><time>2026-04-23T03:44:01.826Z</time></trkpt><trkpt lat="45.4087846" lon="10.5394626"><ele>133.0</ele><time>2026-04-23T03:44:14.826Z</time></trkpt><trkpt lat="45.408713" lon="10.5393475"><ele>133.0</ele><time>2026-04-23T03:44:17.836Z</time></trkpt><trkpt lat="45.4087482" lon="10.5394306"><ele>133.0</ele><time>2026-04-23T03:44:55.889Z</time></trkpt><trkpt lat="45.4087991" lon="10.5394884"><ele>133.0</ele><time>2026-04-23T03:45:46.833Z</time></trkpt><trkpt lat="45.4088503" lon="10.5395422"><ele>133.0</ele><time>2026-04-23T03:46:52.831Z</time></trkpt><trkpt lat="45.4089074" lon="10.5395828"><ele>133.0</ele><time>2026-04-23T03:46:54.83Z</time></trkpt><trkpt lat="45.40899" lon="10.5396636"><ele>133.0</ele><time>2026-04-23T03:46:56.823Z</time></trkpt><trkpt lat="45.408991" lon="10.5397646"><ele>133.0</ele><time>2026-04-23T03:47:15.822Z</time></trkpt><trkpt lat="45.409046" lon="10.5398739"><ele>133.0</ele><time>2026-04-23T03:47:38.828Z</time></trkpt><trkpt lat="45.4091095" lon="10.5398686"><ele>133.0</ele><time>2026-04-23T03:47:54.824Z</time></trkpt><trkpt lat="45.409206" lon="10.5397997"><ele>133.0</ele><time>2026-04-23T03:48:01.823Z</time></trkpt><trkpt lat="45.4091464" lon="10.5397637"><ele>133.0</ele><time>2026-04-23T03:48:47.826Z</time></trkpt><trkpt lat="45.4092073" lon="10.5397365"><ele>133.0</ele><time>2026-04-23T03:49:04.833Z</time></trkpt><trkpt lat="45.4093316" lon="10.5396738"><ele>133.0</ele><time>2026-04-23T03:49:15.823Z</time></trkpt><trkpt lat="45.4094006" lon="10.5396438"><ele>133.0</ele><time>2026-04-23T03:49:20.834Z</time></trkpt><trkpt lat="45.4093035" lon="10.539673"><ele>133.0</ele><time>2026-04-23T03:49:28.83Z</time></trkpt><trkpt lat="45.4092353" lon="10.5396609"><ele>133.0</ele><time>2026-04-23T03:49:42.834Z</time></trkpt><trkpt lat="45.4091582" lon="10.539692"><ele>133.0</ele><time>2026-04-23T03:49:46.823Z</time></trkpt><trkpt lat="45.4090808" lon="10.5396906"><ele>133.0</ele><time>2026-04-23T03:50:01.834Z</time></trkpt><trkpt lat="45.4090033" lon="10.5397593"><ele>133.0</ele><time>2026-04-23T03:50:22.836Z</time></trkpt><trkpt lat="45.4089142" lon="10.5398209"><ele>133.0</ele><time>2026-04-23T03:50:31.833Z</time></trkpt><trkpt lat="45.4089921" lon="10.5397637"><ele>133.0</ele><time>2026-04-23T03:50:34.826Z</time></trkpt><trkpt lat="45.4089411" lon="10.5398223"><ele>133.0</ele><time>2026-04-23T03:50:45.825Z</time></trkpt><trkpt lat="45.4090448" lon="10.5397731"><ele>133.0</ele><time>2026-04-23T03:50:49.831Z</time></trkpt><trkpt lat="45.4089692" lon="10.5397936"><ele>133.0</ele><time>2026-04-23T03:50:56.832Z</time></trkpt><trkpt lat="45.4088887" lon="10.5398079"><ele>133.0</ele><time>2026-04-23T03:51:02.834Z</time></trkpt><trkpt lat="45.408954" lon="10.5397482"><ele>133.0</ele><time>2026-04-23T03:51:21.829Z</time></trkpt><trkpt lat="45.4090139" lon="10.5397107"><ele>133.0</ele><time>2026-04-23T03:51:28.835Z</time></trkpt><trkpt lat="45.4090827" lon="10.5396948"><ele>133.0</ele><time>2026-04-23T03:51:33.826Z</time></trkpt><trkpt lat="45.4091548" lon="10.5396778"><ele>133.0</ele><time>2026-04-23T03:51:39.834Z</time></trkpt><trkpt lat="45.4092218" lon="10.5396374"><ele>133.0</ele><time>2026-04-23T03:51:43.834Z</time></trkpt><trkpt lat="45.4091676" lon="10.5397099"><ele>133.0</ele><time>2026-04-23T03:52:07.833Z</time></trkpt><trkpt lat="45.4091048" lon="10.5397349"><ele>133.0</ele><time>2026-04-23T03:52:11.834Z</time></trkpt><trkpt lat="45.4090198" lon="10.5397857"><ele>133.0</ele><time>2026-04-23T03:52:17.828Z</time></trkpt><trkpt lat="45.4089332" lon="10.5398481"><ele>133.0</ele><time>2026-04-23T03:52:49.827Z</time></trkpt><trkpt lat="45.4088761" lon="10.5399005"><ele>133.0</ele><time>2026-04-23T03:55:20.826Z</time></trkpt><trkpt lat="45.4089443" lon="10.5398319"><ele>133.0</ele><time>2026-04-23T03:55:37.823Z</time></trkpt><trkpt lat="45.4090142" lon="10.5398683"><ele>133.0</ele><time>2026-04-23T03:56:23.833Z</time></trkpt><trkpt lat="45.4089347" lon="10.5399538"><ele>133.0</ele><time>2026-04-23T03:56:37.826Z</time></trkpt><trkpt lat="45.4089539" lon="10.5398637"><ele>133.0</ele><time>2026-04-23T03:58:18.829Z</time></trkpt><trkpt lat="45.4090171" lon="10.5398114"><ele>133.0</ele><time>2026-04-23T03:59:03.833Z</time></trkpt><trkpt lat="45.4089351" lon="10.5397736"><ele>133.0</ele><time>2026-04-23T03:59:08.827Z</time></trkpt><trkpt lat="45.4088716" lon="10.5397523"><ele>133.0</ele><time>2026-04-23T03:59:09.824Z</time></trkpt><trkpt lat="45.4087924" lon="10.5397413"><ele>133.0</ele><time>2026-04-23T03:59:12.829Z</time></trkpt><trkpt lat="45.4088875" lon="10.5397784"><ele>133.0</ele><time>2026-04-23T03:59:41.822Z</time></trkpt><trkpt lat="45.4089486" lon="10.5398036"><ele>133.0</ele><time>2026-04-23T03:59:55.825Z</time></trkpt><trkpt lat="45.4090626" lon="10.5398176"><ele>133.0</ele><time>2026-04-23T04:01:23.833Z</time></trkpt><trkpt lat="45.4091118" lon="10.5397292"><ele>133.0</ele><time>2026-04-23T04:02:19.833Z</time></trkpt><trkpt lat="45.4091528" lon="10.5395855"><ele>133.0</ele><time>2026-04-23T04:03:29.827Z</time></trkpt><trkpt lat="45.4090753" lon="10.539616"><ele>133.0</ele><time>2026-04-23T04:03:36.825Z</time></trkpt><trkpt lat="45.4090019" lon="10.5396167"><ele>133.0</ele><time>2026-04-23T04:03:43.836Z</time></trkpt><trkpt lat="45.4089985" lon="10.5397105"><ele>133.0</ele><time>2026-04-23T04:04:44.825Z</time></trkpt><trkpt lat="45.4089361" lon="10.539735"><ele>133.0</ele><time>2026-04-23T04:05:30.828Z</time></trkpt><trkpt lat="45.4089816" lon="10.5398001"><ele>133.0</ele><time>2026-04-23T04:06:14.824Z</time></trkpt><trkpt lat="45.4089363" lon="10.5397334"><ele>133.0</ele><time>2026-04-23T04:09:42.825Z</time></trkpt><trkpt lat="45.4088876" lon="10.5398084"><ele>133.0</ele><time>2026-04-23T04:10:44.832Z</time></trkpt><trkpt lat="45.4089923" lon="10.5398888"><ele>133.0</ele><time>2026-04-23T04:11:04.834Z</time></trkpt><trkpt lat="45.4089395" lon="10.5398262"><ele>133.0</ele><time>2026-04-23T04:11:22.826Z</time></trkpt><trkpt lat="45.4088771" lon="10.5397701"><ele>133.0</ele><time>2026-04-23T04:11:47.824Z</time></trkpt><trkpt lat="45.4089393" lon="10.5397992"><ele>133.0</ele><time>2026-04-23T04:12:21.826Z</time></trkpt><trkpt lat="45.4089851" lon="10.5398775"><ele>133.0</ele><time>2026-04-23T04:15:05.834Z</time></trkpt><trkpt lat="45.4089259" lon="10.5399128"><ele>133.0</ele><time>2026-04-23T04:15:34.826Z</time></trkpt><trkpt lat="45.4088344" lon="10.5399278"><ele>133.0</ele><time>2026-04-23T04:15:38.835Z</time></trkpt><trkpt lat="45.4089053" lon="10.5398571"><ele>133.0</ele><time>2026-04-23T04:16:02.824Z</time></trkpt><trkpt lat="45.4089672" lon="10.5398384"><ele>133.0</ele><time>2026-04-23T04:16:07.824Z</time></trkpt><trkpt lat="45.4090326" lon="10.5398044"><ele>133.0</ele><time>2026-04-23T04:16:17.817Z</time></trkpt><trkpt lat="45.4090999" lon="10.5397912"><ele>133.0</ele><time>2026-04-23T04:16:20.83Z</time></trkpt><trkpt lat="45.4091942" lon="10.5397964"><ele>133.0</ele><time>2026-04-23T04:16:43.828Z</time></trkpt><trkpt lat="45.4092589" lon="10.5397774"><ele>133.0</ele><time>2026-04-23T04:16:46.827Z</time></trkpt><trkpt lat="45.4091759" lon="10.5397859"><ele>133.0</ele><time>2026-04-23T04:16:59.833Z</time></trkpt><trkpt lat="45.4090967" lon="10.5397988"><ele>133.0</ele><time>2026-04-23T04:17:08.826Z</time></trkpt><trkpt lat="45.4090253" lon="10.5398146"><ele>133.0</ele><time>2026-04-23T04:17:11.822Z</time></trkpt><trkpt lat="45.4089309" lon="10.539803"><ele>133.0</ele><time>2026-04-23T04:17:23.833Z</time></trkpt><trkpt lat="45.408859" lon="10.5398701"><ele>133.0</ele><time>2026-04-23T04:17:55.827Z</time></trkpt><trkpt lat="45.4089311" lon="10.5399278"><ele>133.0</ele><time>2026-04-23T04:18:22.835Z</time></trkpt><trkpt lat="45.4089263" lon="10.5398325"><ele>133.0</ele><time>2026-04-23T04:19:03.827Z</time></trkpt><trkpt lat="45.4088599" lon="10.5398611"><ele>133.0</ele><time>2026-04-23T04:19:37.832Z</time></trkpt><trkpt lat="45.4089413" lon="10.5398173"><ele>133.0</ele><time>2026-04-23T04:19:59.833Z</time></trkpt><trkpt lat="45.4089939" lon="10.5398732"><ele>133.0</ele><time>2026-04-23T04:21:17.827Z</time></trkpt><trkpt lat="45.4089296" lon="10.5398336"><ele>133.0</ele><time>2026-04-23T04:21:34.825Z</time></trkpt><trkpt lat="45.4089898" lon="10.5398763"><ele>133.0</ele><time>2026-04-23T04:21:47.831Z</time></trkpt><trkpt lat="45.4089214" lon="10.5398823"><ele>133.0</ele><time>2026-04-23T04:22:41.825Z</time></trkpt><trkpt lat="45.4089811" lon="10.5398353"><ele>133.0</ele><time>2026-04-23T04:23:02.828Z</time></trkpt><trkpt lat="45.4089163" lon="10.5398564"><ele>133.0</ele><time>2026-04-23T04:24:01.824Z</time></trkpt><trkpt lat="45.4090058" lon="10.5398662"><ele>133.0</ele><time>2026-04-23T04:28:02.825Z</time></trkpt><trkpt lat="45.4089318" lon="10.5398142"><ele>133.0</ele><time>2026-04-23T04:29:00.827Z</time></trkpt><trkpt lat="45.4090016" lon="10.5398197"><ele>133.0</ele><time>2026-04-23T04:30:43.823Z</time></trkpt><trkpt lat="45.4089481" lon="10.5398742"><ele>133.0</ele><time>2026-04-23T04:31:11.834Z</time></trkpt><trkpt lat="45.4088882" lon="10.5398266"><ele>133.0</ele><time>2026-04-23T04:31:48.825Z</time></trkpt><trkpt lat="45.4089517" lon="10.5398438"><ele>133.0</ele><time>2026-04-23T04:33:10.831Z</time></trkpt><trkpt lat="45.4090244" lon="10.5398652"><ele>133.0</ele><time>2026-04-23T04:33:22.829Z</time></trkpt><trkpt lat="45.4090368" lon="10.5397742"><ele>133.0</ele><time>2026-04-23T04:34:05.815Z</time></trkpt><trkpt lat="45.4089656" lon="10.539752"><ele>133.0</ele><time>2026-04-23T04:34:19.831Z</time></trkpt><trkpt lat="45.4089446" lon="10.5398406"><ele>133.0</ele><time>2026-04-23T04:35:06.828Z</time></trkpt><trkpt lat="45.4088651" lon="10.5398445"><ele>133.0</ele><time>2026-04-23T04:35:55.831Z</time></trkpt><trkpt lat="45.4089531" lon="10.539856"><ele>133.0</ele><time>2026-04-23T04:36:46.836Z</time></trkpt><trkpt lat="45.4090234" lon="10.5398754"><ele>133.0</ele><time>2026-04-23T04:36:54.831Z</time></trkpt><trkpt lat="45.4089723" lon="10.539791"><ele>133.0</ele><time>2026-04-23T04:37:41.831Z</time></trkpt><trkpt lat="45.4089075" lon="10.5397758"><ele>133.0</ele><time>2026-04-23T04:37:48.829Z</time></trkpt><trkpt lat="45.408933" lon="10.5398668"><ele>133.0</ele><time>2026-04-23T04:38:38.827Z</time></trkpt><trkpt lat="45.4088689" lon="10.5398424"><ele>133.0</ele><time>2026-04-23T04:40:49.832Z</time></trkpt><trkpt lat="45.4089335" lon="10.539855"><ele>133.0</ele><time>2026-04-23T04:42:08.837Z</time></trkpt><trkpt lat="45.4090036" lon="10.539847"><ele>133.0</ele><time>2026-04-23T04:43:04.828Z</time></trkpt><trkpt lat="45.4089588" lon="10.5397411"><ele>133.0</ele><time>2026-04-23T04:45:39.822Z</time></trkpt><trkpt lat="45.4090342" lon="10.5397772"><ele>133.0</ele><time>2026-04-23T04:45:56.829Z</time></trkpt><trkpt lat="45.4090211" lon="10.5398663"><ele>133.0</ele><time>2026-04-23T04:46:02.828Z</time></trkpt><trkpt lat="45.4089498" lon="10.5398439"><ele>133.0</ele><time>2026-04-23T04:46:21.825Z</time></trkpt><trkpt lat="45.4090175" lon="10.5398246"><ele>133.0</ele><time>2026-04-23T04:46:30.828Z</time></trkpt><trkpt lat="45.4089263" lon="10.5398154"><ele>133.0</ele><time>2026-04-23T04:46:54.834Z</time></trkpt><trkpt lat="45.4089893" lon="10.5398328"><ele>133.0</ele><time>2026-04-23T04:48:00.836Z</time></trkpt><trkpt lat="45.4090519" lon="10.5398494"><ele>133.0</ele><time>2026-04-23T04:48:11.823Z</time></trkpt><trkpt lat="45.4089767" lon="10.5398252"><ele>133.0</ele><time>2026-04-23T04:48:37.825Z</time></trkpt><trkpt lat="45.4090838" lon="10.5397907"><ele>133.0</ele><time>2026-04-23T04:49:02.822Z</time></trkpt><trkpt lat="45.4091432" lon="10.5397526"><ele>133.0</ele><time>2026-04-23T04:49:04.83Z</time></trkpt><trkpt lat="45.4092356" lon="10.539718"><ele>133.0</ele><time>2026-04-23T04:49:07.829Z</time></trkpt><trkpt lat="45.4093084" lon="10.5396937"><ele>133.0</ele><time>2026-04-23T04:49:09.821Z</time></trkpt><trkpt lat="45.4092502" lon="10.5397342"><ele>133.0</ele><time>2026-04-23T04:49:21.83Z</time></trkpt><trkpt lat="45.4091682" lon="10.5397402"><ele>133.0</ele><time>2026-04-23T04:49:24.832Z</time></trkpt><trkpt lat="45.4091016" lon="10.5397641"><ele>133.0</ele><time>2026-04-23T04:49:27.821Z</time></trkpt><trkpt lat="45.4090372" lon="10.539768"><ele>133.0</ele><time>2026-04-23T04:49:29.834Z</time></trkpt><trkpt lat="45.4089757" lon="10.5397949"><ele>133.0</ele><time>2026-04-23T04:49:34.824Z</time></trkpt><trkpt lat="45.4089172" lon="10.5398357"><ele>133.0</ele><time>2026-04-23T04:50:02.832Z</time></trkpt><trkpt lat="45.4089808" lon="10.5398204"><ele>133.0</ele><time>2026-04-23T04:50:41.832Z</time></trkpt><trkpt lat="45.4089162" lon="10.5397824"><ele>133.0</ele><time>2026-04-23T04:51:06.83Z</time></trkpt><trkpt lat="45.4088593" lon="10.5397392"><ele>133.0</ele><time>2026-04-23T04:51:08.83Z</time></trkpt><trkpt lat="45.4087843" lon="10.5397353"><ele>133.0</ele><time>2026-04-23T04:51:16.827Z</time></trkpt><trkpt lat="45.4087098" lon="10.5397657"><ele>133.0</ele><time>2026-04-23T04:51:22.827Z</time></trkpt><trkpt lat="45.4087671" lon="10.5398164"><ele>133.0</ele><time>2026-04-23T04:51:38.833Z</time></trkpt><trkpt lat="45.4089065" lon="10.5398524"><ele>133.0</ele><time>2026-04-23T04:51:53.828Z</time></trkpt><trkpt lat="45.4089696" lon="10.5398273"><ele>133.0</ele><time>2026-04-23T04:52:31.824Z</time></trkpt><trkpt lat="45.4089015" lon="10.5398291"><ele>133.0</ele><time>2026-04-23T04:52:54.825Z</time></trkpt><trkpt lat="45.4089754" lon="10.53985"><ele>133.0</ele><time>2026-04-23T04:53:09.827Z</time></trkpt><trkpt lat="45.4089139" lon="10.5397809"><ele>133.0</ele><time>2026-04-23T04:54:21.827Z</time></trkpt><trkpt lat="45.4089889" lon="10.539788"><ele>133.0</ele><time>2026-04-23T04:55:11.828Z</time></trkpt><trkpt lat="45.4089181" lon="10.5397829"><ele>133.0</ele><time>2026-04-23T04:55:32.826Z</time></trkpt><trkpt lat="45.4090034" lon="10.5398199"><ele>133.0</ele><time>2026-04-23T04:56:28.83Z</time></trkpt><trkpt lat="45.4089292" lon="10.5398324"><ele>133.0</ele><time>2026-04-23T04:57:13.824Z</time></trkpt><trkpt lat="45.4088652" lon="10.5398247"><ele>133.0</ele><time>2026-04-23T04:57:14.825Z</time></trkpt><trkpt lat="45.4087854" lon="10.5398157"><ele>133.0</ele><time>2026-04-23T04:57:16.824Z</time></trkpt><trkpt lat="45.4088677" lon="10.5398057"><ele>133.0</ele><time>2026-04-23T04:57:48.82Z</time></trkpt><trkpt lat="45.4087987" lon="10.5397883"><ele>133.0</ele><time>2026-04-23T04:58:01.829Z</time></trkpt><trkpt lat="45.4088817" lon="10.5397622"><ele>133.0</ele><time>2026-04-23T04:58:14.834Z</time></trkpt><trkpt lat="45.4089364" lon="10.539822"><ele>133.0</ele><time>2026-04-23T04:58:56.827Z</time></trkpt><trkpt lat="45.4088795" lon="10.5398606"><ele>133.0</ele><time>2026-04-23T04:59:08.828Z</time></trkpt><trkpt lat="45.4089552" lon="10.5398678"><ele>133.0</ele><time>2026-04-23T05:01:16.829Z</time></trkpt><trkpt lat="45.4088841" lon="10.5398509"><ele>133.0</ele><time>2026-04-23T05:01:47.829Z</time></trkpt><trkpt lat="45.4089426" lon="10.5398845"><ele>133.0</ele><time>2026-04-23T05:07:55.829Z</time></trkpt><trkpt lat="45.40887" lon="10.5399036"><ele>133.0</ele><time>2026-04-23T05:08:02.828Z</time></trkpt><trkpt lat="45.4089466" lon="10.5398848"><ele>133.0</ele><time>2026-04-23T05:08:16.82Z</time></trkpt><trkpt lat="45.4090149" lon="10.5398542"><ele>133.0</ele><time>2026-04-23T05:08:34.822Z</time></trkpt><trkpt lat="45.4090841" lon="10.5398443"><ele>133.0</ele><time>2026-04-23T05:09:19.825Z</time></trkpt><trkpt lat="45.4091637" lon="10.5398462"><ele>133.0</ele><time>2026-04-23T05:09:26.817Z</time></trkpt><trkpt lat="45.4092268" lon="10.5398222"><ele>133.0</ele><time>2026-04-23T05:09:43.819Z</time></trkpt><trkpt lat="45.4091608" lon="10.5398374"><ele>133.0</ele><time>2026-04-23T05:09:45.824Z</time></trkpt><trkpt lat="45.4090977" lon="10.5398562"><ele>133.0</ele><time>2026-04-23T05:10:05.831Z</time></trkpt><trkpt lat="45.4090285" lon="10.5398627"><ele>133.0</ele><time>2026-04-23T05:10:32.824Z</time></trkpt><trkpt lat="45.4089652" lon="10.5398391"><ele>133.0</ele><time>2026-04-23T05:10:35.824Z</time></trkpt><trkpt lat="45.4088786" lon="10.539814"><ele>133.0</ele><time>2026-04-23T05:10:49.826Z</time></trkpt><trkpt lat="45.4089595" lon="10.5398453"><ele>133.0</ele><time>2026-04-23T05:11:51.831Z</time></trkpt><trkpt lat="45.4088946" lon="10.5398315"><ele>133.0</ele><time>2026-04-23T05:12:18.829Z</time></trkpt><trkpt lat="45.4089586" lon="10.5398499"><ele>133.0</ele><time>2026-04-23T05:12:29.83Z</time></trkpt><trkpt lat="45.4089003" lon="10.5398111"><ele>133.0</ele><time>2026-04-23T05:15:34.823Z</time></trkpt><trkpt lat="45.4089773" lon="10.5398104"><ele>133.0</ele><time>2026-04-23T05:18:04.823Z</time></trkpt><trkpt lat="45.4089109" lon="10.539859"><ele>133.0</ele><time>2026-04-23T05:18:51.828Z</time></trkpt><trkpt lat="45.4089771" lon="10.5398445"><ele>133.0</ele><time>2026-04-23T05:19:09.834Z</time></trkpt><trkpt lat="45.4090468" lon="10.5398244"><ele>133.0</ele><time>2026-04-23T05:20:13.83Z</time></trkpt><trkpt lat="45.4091892" lon="10.5398054"><ele>133.0</ele><time>2026-04-23T05:20:21.827Z</time></trkpt><trkpt lat="45.4091217" lon="10.5398141"><ele>133.0</ele><time>2026-04-23T05:20:34.824Z</time></trkpt><trkpt lat="45.4090563" lon="10.5398747"><ele>133.0</ele><time>2026-04-23T05:20:38.828Z</time></trkpt><trkpt lat="45.4089956" lon="10.5398491"><ele>133.0</ele><time>2026-04-23T05:21:03.829Z</time></trkpt><trkpt lat="45.4088845" lon="10.5397648"><ele>133.0</ele><time>2026-04-23T05:27:07.829Z</time></trkpt><trkpt lat="45.4089188" lon="10.53984"><ele>133.0</ele><time>2026-04-23T05:27:51.83Z</time></trkpt><trkpt lat="45.4089846" lon="10.5397808"><ele>133.0</ele><time>2026-04-23T05:28:28.824Z</time></trkpt><trkpt lat="45.4090552" lon="10.5398382"><ele>133.0</ele><time>2026-04-23T05:31:16.83Z</time></trkpt><trkpt lat="45.4090147" lon="10.5399097"><ele>133.0</ele><time>2026-04-23T05:31:32.826Z</time></trkpt><trkpt lat="45.4089621" lon="10.5398602"><ele>133.0</ele><time>2026-04-23T05:33:37.824Z</time></trkpt><trkpt lat="45.4089017" lon="10.539821"><ele>133.0</ele><time>2026-04-23T05:33:51.832Z</time></trkpt><trkpt lat="45.4089698" lon="10.5398517"><ele>133.0</ele><time>2026-04-23T05:34:52.822Z</time></trkpt><trkpt lat="45.4089293" lon="10.5399241"><ele>133.0</ele><time>2026-04-23T05:38:56.824Z</time></trkpt><trkpt lat="45.4089464" lon="10.5398343"><ele>133.0</ele><time>2026-04-23T05:40:13.837Z</time></trkpt><trkpt lat="45.4090109" lon="10.5397892"><ele>133.0</ele><time>2026-04-23T05:40:19.828Z</time></trkpt><trkpt lat="45.4089671" lon="10.5398564"><ele>133.0</ele><time>2026-04-23T05:47:25.832Z</time></trkpt><trkpt lat="45.4089223" lon="10.5397782"><ele>133.0</ele><time>2026-04-23T05:49:58.832Z</time></trkpt><trkpt lat="45.4088904" lon="10.5398567"><ele>133.0</ele><time>2026-04-23T05:50:51.823Z</time></trkpt><trkpt lat="45.4089613" lon="10.5398669"><ele>133.0</ele><time>2026-04-23T05:53:37.831Z</time></trkpt><trkpt lat="45.409043" lon="10.5398725"><ele>133.0</ele><time>2026-04-23T05:57:00.824Z</time></trkpt><trkpt lat="45.4089725" lon="10.5399104"><ele>133.0</ele><time>2026-04-23T05:57:42.824Z</time></trkpt><trkpt lat="45.4089107" lon="10.5398727"><ele>133.0</ele><time>2026-04-23T05:59:34.822Z</time></trkpt><trkpt lat="45.4089395" lon="10.5397904"><ele>133.0</ele><time>2026-04-23T05:59:47.832Z</time></trkpt><trkpt lat="45.4089861" lon="10.5398626"><ele>133.0</ele><time>2026-04-23T06:00:18.829Z</time></trkpt><trkpt lat="45.4089334" lon="10.5399142"><ele>133.0</ele><time>2026-04-23T06:00:38.823Z</time></trkpt><trkpt lat="45.4089501" lon="10.5398184"><ele>133.0</ele><time>2026-04-23T06:02:12.831Z</time></trkpt><trkpt lat="45.40893" lon="10.5399086"><ele>133.0</ele><time>2026-04-23T06:03:07.83Z</time></trkpt><trkpt lat="45.4089773" lon="10.5398385"><ele>133.0</ele><time>2026-04-23T06:03:44.833Z</time></trkpt><trkpt lat="45.4088939" lon="10.5398425"><ele>133.0</ele><time>2026-04-23T06:05:29.828Z</time></trkpt><trkpt lat="45.4088272" lon="10.5398713"><ele>133.0</ele><time>2026-04-23T06:05:51.823Z</time></trkpt><trkpt lat="45.4088944" lon="10.5398986"><ele>133.0</ele><time>2026-04-23T06:06:25.834Z</time></trkpt><trkpt lat="45.4089567" lon="10.5398274"><ele>133.0</ele><time>2026-04-23T06:06:31.834Z</time></trkpt><trkpt lat="45.4090212" lon="10.5397915"><ele>133.0</ele><time>2026-04-23T06:06:40.824Z</time></trkpt><trkpt lat="45.40915" lon="10.5396893"><ele>133.0</ele><time>2026-04-23T06:06:59.833Z</time></trkpt><trkpt lat="45.409088" lon="10.5397344"><ele>133.0</ele><time>2026-04-23T06:07:14.834Z</time></trkpt><trkpt lat="45.4090676" lon="10.5398272"><ele>133.0</ele><time>2026-04-23T06:07:31.83Z</time></trkpt><trkpt lat="45.4090166" lon="10.5399118"><ele>133.0</ele><time>2026-04-23T06:07:45.83Z</time></trkpt><trkpt lat="45.4089528" lon="10.5399242"><ele>133.0</ele><time>2026-04-23T06:07:53.827Z</time></trkpt><trkpt lat="45.4090287" lon="10.5399446"><ele>133.0</ele><time>2026-04-23T06:08:29.832Z</time></trkpt><trkpt lat="45.4090826" lon="10.539887"><ele>133.0</ele><time>2026-04-23T06:08:33.827Z</time></trkpt><trkpt lat="45.4091829" lon="10.5398472"><ele>133.0</ele><time>2026-04-23T06:08:45.827Z</time></trkpt><trkpt lat="45.4091242" lon="10.5398063"><ele>133.0</ele><time>2026-04-23T06:08:55.826Z</time></trkpt><trkpt lat="45.4090375" lon="10.5398138"><ele>133.0</ele><time>2026-04-23T06:09:36.823Z</time></trkpt><trkpt lat="45.4089778" lon="10.5398539"><ele>133.0</ele><time>2026-04-23T06:09:41.833Z</time></trkpt><trkpt lat="45.4089151" lon="10.53991"><ele>133.0</ele><time>2026-04-23T06:09:47.834Z</time></trkpt><trkpt lat="45.4088581" lon="10.5399664"><ele>133.0</ele><time>2026-04-23T06:10:01.827Z</time></trkpt><trkpt lat="45.4088137" lon="10.5400311"><ele>133.0</ele><time>2026-04-23T06:10:09.823Z</time></trkpt><trkpt lat="45.4087962" lon="10.5399425"><ele>133.0</ele><time>2026-04-23T06:10:21.83Z</time></trkpt><trkpt lat="45.4087978" lon="10.5398415"><ele>133.0</ele><time>2026-04-23T06:10:38.831Z</time></trkpt><trkpt lat="45.4087283" lon="10.5397833"><ele>133.0</ele><time>2026-04-23T06:10:54.825Z</time></trkpt><trkpt lat="45.4088106" lon="10.5398339"><ele>133.0</ele><time>2026-04-23T06:11:08.938Z</time></trkpt><trkpt lat="45.4088721" lon="10.5398661"><ele>133.0</ele><time>2026-04-23T06:11:36.826Z</time></trkpt><trkpt lat="45.4089358" lon="10.5398736"><ele>133.0</ele><time>2026-04-23T06:12:21.832Z</time></trkpt><trkpt lat="45.4088817" lon="10.5397981"><ele>133.0</ele><time>2026-04-23T06:12:28.825Z</time></trkpt><trkpt lat="45.4089593" lon="10.539855"><ele>133.0</ele><time>2026-04-23T06:13:21.826Z</time></trkpt><trkpt lat="45.408897" lon="10.5398935"><ele>133.0</ele><time>2026-04-23T06:16:17.825Z</time></trkpt><trkpt lat="45.4089355" lon="10.5398163"><ele>133.0</ele><time>2026-04-23T06:17:25.835Z</time></trkpt><trkpt lat="45.4088709" lon="10.5397889"><ele>133.0</ele><time>2026-04-23T06:18:25.823Z</time></trkpt><trkpt lat="45.4089008" lon="10.5398922"><ele>133.0</ele><time>2026-04-23T06:20:00.823Z</time></trkpt><trkpt lat="45.4090075" lon="10.5398729"><ele>133.0</ele><time>2026-04-23T06:21:27.829Z</time></trkpt><trkpt lat="45.4089466" lon="10.5398469"><ele>133.0</ele><time>2026-04-23T06:21:56.823Z</time></trkpt><trkpt lat="45.4090134" lon="10.5398504"><ele>133.0</ele><time>2026-04-23T06:22:38.827Z</time></trkpt><trkpt lat="45.409097" lon="10.5398672"><ele>133.0</ele><time>2026-04-23T06:24:43.822Z</time></trkpt><trkpt lat="45.4091129" lon="10.5397707"><ele>133.0</ele><time>2026-04-23T06:25:20.824Z</time></trkpt><trkpt lat="45.4090354" lon="10.5398149"><ele>133.0</ele><time>2026-04-23T06:25:41.831Z</time></trkpt><trkpt lat="45.4089666" lon="10.5398038"><ele>133.0</ele><time>2026-04-23T06:27:31.825Z</time></trkpt><trkpt lat="45.4089171" lon="10.5398603"><ele>133.0</ele><time>2026-04-23T06:29:29.831Z</time></trkpt><trkpt lat="45.4089943" lon="10.5398736"><ele>133.0</ele><time>2026-04-23T06:29:40.821Z</time></trkpt><trkpt lat="45.4089194" lon="10.5398676"><ele>133.0</ele><time>2026-04-23T06:31:36.825Z</time></trkpt><trkpt lat="45.40899" lon="10.5398633"><ele>133.0</ele><time>2026-04-23T06:32:37.827Z</time></trkpt><trkpt lat="45.4090816" lon="10.5398104"><ele>133.0</ele><time>2026-04-23T06:33:33.833Z</time></trkpt><trkpt lat="45.4090259" lon="10.5398615"><ele>133.0</ele><time>2026-04-23T06:34:46.831Z</time></trkpt><trkpt lat="45.4089601" lon="10.539891"><ele>133.0</ele><time>2026-04-23T06:34:57.832Z</time></trkpt><trkpt lat="45.4088961" lon="10.5398883"><ele>133.0</ele><time>2026-04-23T06:35:01.832Z</time></trkpt><trkpt lat="45.4089748" lon="10.5398535"><ele>133.0</ele><time>2026-04-23T06:35:54.829Z</time></trkpt><trkpt lat="45.4090361" lon="10.5398117"><ele>133.0</ele><time>2026-04-23T06:37:43.826Z</time></trkpt><trkpt lat="45.4089809" lon="10.5397263"><ele>133.0</ele><time>2026-04-23T06:37:50.825Z</time></trkpt><trkpt lat="45.4090299" lon="10.5398032"><ele>133.0</ele><time>2026-04-23T06:38:33.825Z</time></trkpt><trkpt lat="45.4089712" lon="10.5398392"><ele>133.0</ele><time>2026-04-23T06:39:38.829Z</time></trkpt><trkpt lat="45.4089182" lon="10.5397891"><ele>133.0</ele><time>2026-04-23T06:40:04.827Z</time></trkpt><trkpt lat="45.4088512" lon="10.539801"><ele>133.0</ele><time>2026-04-23T06:40:13.832Z</time></trkpt><trkpt lat="45.4089251" lon="10.5398164"><ele>133.0</ele><time>2026-04-23T06:40:43.828Z</time></trkpt><trkpt lat="45.408853" lon="10.5397767"><ele>133.0</ele><time>2026-04-23T06:42:03.822Z</time></trkpt><trkpt lat="45.4089031" lon="10.539838"><ele>133.0</ele><time>2026-04-23T06:42:13.832Z</time></trkpt><trkpt lat="45.4089695" lon="10.539855"><ele>133.0</ele><time>2026-04-23T06:44:39.828Z</time></trkpt><trkpt lat="45.4090321" lon="10.5398648"><ele>133.0</ele><time>2026-04-23T06:44:46.823Z</time></trkpt><trkpt lat="45.4089578" lon="10.5399079"><ele>133.0</ele><time>2026-04-23T06:45:01.825Z</time></trkpt><trkpt lat="45.4088889" lon="10.5398667"><ele>133.0</ele><time>2026-04-23T06:45:08.824Z</time></trkpt><trkpt lat="45.4089396" lon="10.53992"><ele>133.0</ele><time>2026-04-23T06:46:39.823Z</time></trkpt><trkpt lat="45.408966" lon="10.5398241"><ele>133.0</ele><time>2026-04-23T06:47:58.833Z</time></trkpt><trkpt lat="45.4089168" lon="10.5397583"><ele>133.0</ele><time>2026-04-23T06:50:09.826Z</time></trkpt><trkpt lat="45.4089921" lon="10.5398505"><ele>133.0</ele><time>2026-04-23T06:50:31.824Z</time></trkpt><trkpt lat="45.4090631" lon="10.5398491"><ele>133.0</ele><time>2026-04-23T06:50:44.815Z</time></trkpt><trkpt lat="45.4090283" lon="10.5399435"><ele>133.0</ele><time>2026-04-23T06:51:33.821Z</time></trkpt><trkpt lat="45.4089892" lon="10.5398681"><ele>133.0</ele><time>2026-04-23T06:51:37.832Z</time></trkpt><trkpt lat="45.4089479" lon="10.5397854"><ele>133.0</ele><time>2026-04-23T06:51:40.829Z</time></trkpt><trkpt lat="45.4089129" lon="10.53971"><ele>133.0</ele><time>2026-04-23T06:51:45.83Z</time></trkpt><trkpt lat="45.4088415" lon="10.5397045"><ele>133.0</ele><time>2026-04-23T06:52:04.822Z</time></trkpt><trkpt lat="45.408874" lon="10.5397912"><ele>133.0</ele><time>2026-04-23T06:52:26.833Z</time></trkpt><trkpt lat="45.4089621" lon="10.5398287"><ele>133.0</ele><time>2026-04-23T06:52:32.824Z</time></trkpt><trkpt lat="45.4088881" lon="10.5397529"><ele>133.0</ele><time>2026-04-23T06:53:17.819Z</time></trkpt><trkpt lat="45.4090032" lon="10.539834"><ele>133.0</ele><time>2026-04-23T06:53:33.831Z</time></trkpt><trkpt lat="45.4089602" lon="10.5397594"><ele>133.0</ele><time>2026-04-23T06:53:42.822Z</time></trkpt><trkpt lat="45.4089843" lon="10.5398435"><ele>133.0</ele><time>2026-04-23T06:55:22.825Z</time></trkpt><trkpt lat="45.4090489" lon="10.5398843"><ele>133.0</ele><time>2026-04-23T06:55:28.825Z</time></trkpt><trkpt lat="45.409004" lon="10.5398182"><ele>133.0</ele><time>2026-04-23T06:56:23.828Z</time></trkpt><trkpt lat="45.4089384" lon="10.5398635"><ele>133.0</ele><time>2026-04-23T06:56:49.824Z</time></trkpt><trkpt lat="45.4089127" lon="10.5397709"><ele>133.0</ele><time>2026-04-23T06:57:18.833Z</time></trkpt><trkpt lat="45.4088435" lon="10.5397058"><ele>133.0</ele><time>2026-04-23T06:57:27.83Z</time></trkpt><trkpt lat="45.4089029" lon="10.5396744"><ele>133.0</ele><time>2026-04-23T06:58:03.82Z</time></trkpt><trkpt lat="45.4088878" lon="10.5397907"><ele>133.0</ele><time>2026-04-23T06:58:19.825Z</time></trkpt><trkpt lat="45.4089749" lon="10.5397915"><ele>133.0</ele><time>2026-04-23T06:58:26.826Z</time></trkpt><trkpt lat="45.4090374" lon="10.5398096"><ele>133.0</ele><time>2026-04-23T06:58:54.821Z</time></trkpt><trkpt lat="45.4090589" lon="10.5398941"><ele>133.0</ele><time>2026-04-23T06:59:18.823Z</time></trkpt><trkpt lat="45.4089832" lon="10.539906"><ele>133.0</ele><time>2026-04-23T06:59:38.827Z</time></trkpt><trkpt lat="45.4089977" lon="10.5398134"><ele>133.0</ele><time>2026-04-23T07:00:02.829Z</time></trkpt><trkpt lat="45.4090832" lon="10.5398558"><ele>133.0</ele><time>2026-04-23T07:01:09.826Z</time></trkpt><trkpt lat="45.4089963" lon="10.5398659"><ele>133.0</ele><time>2026-04-23T07:01:33.833Z</time></trkpt><trkpt lat="45.4089203" lon="10.5398776"><ele>133.0</ele><time>2026-04-23T07:01:36.822Z</time></trkpt><trkpt lat="45.4088479" lon="10.5399124"><ele>133.0</ele><time>2026-04-23T07:01:43.824Z</time></trkpt><trkpt lat="45.4088967" lon="10.5398152"><ele>133.0</ele><time>2026-04-23T07:01:53.827Z</time></trkpt><trkpt lat="45.4089605" lon="10.5398301"><ele>133.0</ele><time>2026-04-23T07:02:15.822Z</time></trkpt><trkpt lat="45.4089647" lon="10.5397266"><ele>133.0</ele><time>2026-04-23T07:02:20.834Z</time></trkpt><trkpt lat="45.4089904" lon="10.5396246"><ele>133.0</ele><time>2026-04-23T07:02:24.821Z</time></trkpt><trkpt lat="45.4089228" lon="10.5396278"><ele>133.0</ele><time>2026-04-23T07:02:32.822Z</time></trkpt><trkpt lat="45.4089063" lon="10.5397153"><ele>133.0</ele><time>2026-04-23T07:03:10.83Z</time></trkpt><trkpt lat="45.4089679" lon="10.5397411"><ele>133.0</ele><time>2026-04-23T07:03:13.822Z</time></trkpt><trkpt lat="45.4089759" lon="10.5398359"><ele>133.0</ele><time>2026-04-23T07:03:26.83Z</time></trkpt><trkpt lat="45.4090627" lon="10.5398568"><ele>133.0</ele><time>2026-04-23T07:03:36.821Z</time></trkpt><trkpt lat="45.4091301" lon="10.5398102"><ele>133.0</ele><time>2026-04-23T07:03:43.822Z</time></trkpt><trkpt lat="45.4091909" lon="10.5397836"><ele>133.0</ele><time>2026-04-23T07:03:47.823Z</time></trkpt><trkpt lat="45.4091259" lon="10.5398128"><ele>133.0</ele><time>2026-04-23T07:03:50.83Z</time></trkpt><trkpt lat="45.4090732" lon="10.5398802"><ele>133.0</ele><time>2026-04-23T07:03:54.821Z</time></trkpt><trkpt lat="45.4090154" lon="10.5399548"><ele>133.0</ele><time>2026-04-23T07:03:55.823Z</time></trkpt><trkpt lat="45.4090848" lon="10.5399592"><ele>133.0</ele><time>2026-04-23T07:04:09.819Z</time></trkpt><trkpt lat="45.4091496" lon="10.5399771"><ele>133.0</ele><time>2026-04-23T07:04:23.83Z</time></trkpt><trkpt lat="45.4091978" lon="10.54004"><ele>133.0</ele><time>2026-04-23T07:04:30.826Z</time></trkpt><trkpt lat="45.4091122" lon="10.5400015"><ele>133.0</ele><time>2026-04-23T07:04:53.826Z</time></trkpt><trkpt lat="45.4089891" lon="10.5399066"><ele>133.0</ele><time>2026-04-23T07:04:54.828Z</time></trkpt><trkpt lat="45.4089177" lon="10.5399295"><ele>133.0</ele><time>2026-04-23T07:04:56.819Z</time></trkpt><trkpt lat="45.4088408" lon="10.539899"><ele>133.0</ele><time>2026-04-23T07:04:57.827Z</time></trkpt><trkpt lat="45.4087378" lon="10.5399022"><ele>133.0</ele><time>2026-04-23T07:05:01.836Z</time></trkpt><trkpt lat="45.4087965" lon="10.5398365"><ele>133.0</ele><time>2026-04-23T07:05:38.82Z</time></trkpt><trkpt lat="45.4088833" lon="10.5398663"><ele>133.0</ele><time>2026-04-23T07:05:43.834Z</time></trkpt><trkpt lat="45.408838" lon="10.5397969"><ele>133.0</ele><time>2026-04-23T07:05:50.826Z</time></trkpt><trkpt lat="45.4087726" lon="10.5397482"><ele>133.0</ele><time>2026-04-23T07:06:11.821Z</time></trkpt><trkpt lat="45.408856" lon="10.5397717"><ele>133.0</ele><time>2026-04-23T07:06:15.824Z</time></trkpt><trkpt lat="45.40895" lon="10.5398322"><ele>133.0</ele><time>2026-04-23T07:06:17.83Z</time></trkpt><trkpt lat="45.4088896" lon="10.5397645"><ele>133.0</ele><time>2026-04-23T07:06:27.826Z</time></trkpt><trkpt lat="45.4089544" lon="10.5398347"><ele>133.0</ele><time>2026-04-23T07:06:33.829Z</time></trkpt><trkpt lat="45.4090078" lon="10.5398831"><ele>133.0</ele><time>2026-04-23T07:07:59.821Z</time></trkpt><trkpt lat="45.4090832" lon="10.5399317"><ele>133.0</ele><time>2026-04-23T07:08:16.829Z</time></trkpt><trkpt lat="45.4091504" lon="10.5399213"><ele>133.0</ele><time>2026-04-23T07:08:28.829Z</time></trkpt><trkpt lat="45.4090106" lon="10.5398832"><ele>133.0</ele><time>2026-04-23T07:08:40.823Z</time></trkpt><trkpt lat="45.4089469" lon="10.5398922"><ele>133.0</ele><time>2026-04-23T07:08:50.824Z</time></trkpt><trkpt lat="45.4088748" lon="10.5398865"><ele>133.0</ele><time>2026-04-23T07:08:58.823Z</time></trkpt><trkpt lat="45.408889" lon="10.5397988"><ele>133.0</ele><time>2026-04-23T07:09:15.822Z</time></trkpt><trkpt lat="45.4089552" lon="10.5397795"><ele>133.0</ele><time>2026-04-23T07:09:44.824Z</time></trkpt><trkpt lat="45.4090178" lon="10.539818"><ele>133.0</ele><time>2026-04-23T07:09:48.831Z</time></trkpt><trkpt lat="45.409075" lon="10.5398685"><ele>133.0</ele><time>2026-04-23T07:09:53.823Z</time></trkpt><trkpt lat="45.4089998" lon="10.5398632"><ele>133.0</ele><time>2026-04-23T07:10:10.823Z</time></trkpt><trkpt lat="45.4090914" lon="10.5398669"><ele>133.0</ele><time>2026-04-23T07:10:13.827Z</time></trkpt><trkpt lat="45.409203" lon="10.539932"><ele>133.0</ele><time>2026-04-23T07:10:28.821Z</time></trkpt><trkpt lat="45.4092803" lon="10.540021"><ele>133.0</ele><time>2026-04-23T07:10:40.833Z</time></trkpt><trkpt lat="45.4093306" lon="10.5400825"><ele>133.0</ele><time>2026-04-23T07:10:43.824Z</time></trkpt><trkpt lat="45.4093156" lon="10.5399848"><ele>133.0</ele><time>2026-04-23T07:11:10.815Z</time></trkpt><trkpt lat="45.4092492" lon="10.5399595"><ele>133.0</ele><time>2026-04-23T07:11:13.833Z</time></trkpt><trkpt lat="45.4091411" lon="10.5399302"><ele>133.0</ele><time>2026-04-23T07:11:15.823Z</time></trkpt><trkpt lat="45.4090495" lon="10.5399066"><ele>133.0</ele><time>2026-04-23T07:11:19.833Z</time></trkpt><trkpt lat="45.4089796" lon="10.5398681"><ele>133.0</ele><time>2026-04-23T07:11:21.827Z</time></trkpt><trkpt lat="45.4089133" lon="10.5398237"><ele>133.0</ele><time>2026-04-23T07:11:23.824Z</time></trkpt><trkpt lat="45.4088533" lon="10.5397948"><ele>133.0</ele><time>2026-04-23T07:11:27.834Z</time></trkpt><trkpt lat="45.4087229" lon="10.5397096"><ele>133.0</ele><time>2026-04-23T07:11:29.832Z</time></trkpt><trkpt lat="45.4086159" lon="10.5396324"><ele>130.0</ele><time>2026-04-23T07:11:30.83Z</time></trkpt><trkpt lat="45.4084745" lon="10.5395383"><ele>127.0</ele><time>2026-04-23T07:11:32.821Z</time></trkpt><trkpt lat="45.4083652" lon="10.5395169"><ele>124.0</ele><time>2026-04-23T07:11:37.833Z</time></trkpt><trkpt lat="45.4082768" lon="10.5395085"><ele>121.0</ele><time>2026-04-23T07:11:39.82Z</time></trkpt><trkpt lat="45.4081816" lon="10.5395074"><ele>121.00000000000001</ele><time>2026-04-23T07:11:42.823Z</time></trkpt><trkpt lat="45.4082673" lon="10.5395423"><ele>121.0</ele><time>2026-04-23T07:11:59.824Z</time></trkpt><trkpt lat="45.4083457" lon="10.539562"><ele>121.0</ele><time>2026-04-23T07:12:07.834Z</time></trkpt><trkpt lat="45.4084201" lon="10.5395936"><ele>121.0</ele><time>2026-04-23T07:12:09.833Z</time></trkpt><trkpt lat="45.4084888" lon="10.5396195"><ele>121.00000000000001</ele><time>2026-04-23T07:12:12.824Z</time></trkpt><trkpt lat="45.4085589" lon="10.5396415"><ele>121.0</ele><time>2026-04-23T07:12:15.825Z</time></trkpt><trkpt lat="45.4086463" lon="10.5396822"><ele>121.50000000000001</ele><time>2026-04-23T07:12:22.825Z</time></trkpt><trkpt lat="45.4087303" lon="10.5397002"><ele>122.0</ele><time>2026-04-23T07:12:52.821Z</time></trkpt><trkpt lat="45.4087873" lon="10.5397553"><ele>122.5</ele><time>2026-04-23T07:13:04.83Z</time></trkpt><trkpt lat="45.4088498" lon="10.5397907"><ele>123.0</ele><time>2026-04-23T07:13:43.825Z</time></trkpt><trkpt lat="45.4089262" lon="10.5398348"><ele>123.50000000000001</ele><time>2026-04-23T07:13:45.819Z</time></trkpt><trkpt lat="45.4089693" lon="10.5399071"><ele>124.0</ele><time>2026-04-23T07:16:30.828Z</time></trkpt><trkpt lat="45.4090449" lon="10.5398696"><ele>125.28571428571429</ele><time>2026-04-23T07:18:02.821Z</time></trkpt><trkpt lat="45.4089736" lon="10.5398865"><ele>126.57142857142858</ele><time>2026-04-23T07:18:26.823Z</time></trkpt><trkpt lat="45.4089618" lon="10.5397958"><ele>127.85714285714286</ele><time>2026-04-23T07:18:53.827Z</time></trkpt><trkpt lat="45.4089808" lon="10.5397069"><ele>129.14285714285714</ele><time>2026-04-23T07:21:31.836Z</time></trkpt><trkpt lat="45.408932" lon="10.5397676"><ele>130.42857142857144</ele><time>2026-04-23T07:21:51.822Z</time></trkpt><trkpt lat="45.4088701" lon="10.5397938"><ele>131.71428571428572</ele><time>2026-04-23T07:22:45.825Z</time></trkpt><trkpt lat="45.4089399" lon="10.5397888"><ele>133.0</ele><time>2026-04-23T07:23:25.837Z</time></trkpt><trkpt lat="45.4088838" lon="10.5398605"><ele>133.0</ele><time>2026-04-23T07:23:31.834Z</time></trkpt><trkpt lat="45.4089459" lon="10.5397975"><ele>133.0</ele><time>2026-04-23T07:24:03.831Z</time></trkpt><trkpt lat="45.4089897" lon="10.539887"><ele>133.0</ele><time>2026-04-23T07:27:19.835Z</time></trkpt><trkpt lat="45.4091065" lon="10.5399469"><ele>133.0</ele><time>2026-04-23T07:28:43.829Z</time></trkpt><trkpt lat="45.4090598" lon="10.5398753"><ele>133.0</ele><time>2026-04-23T07:30:52.826Z</time></trkpt><trkpt lat="45.4089947" lon="10.5398414"><ele>133.0</ele><time>2026-04-23T07:31:11.824Z</time></trkpt><trkpt lat="45.4089675" lon="10.5397469"><ele>133.0</ele><time>2026-04-23T07:32:02.824Z</time></trkpt><trkpt lat="45.4090152" lon="10.5398111"><ele>133.0</ele><time>2026-04-23T07:34:04.823Z</time></trkpt><trkpt lat="45.4089467" lon="10.5398411"><ele>133.0</ele><time>2026-04-23T07:34:26.822Z</time></trkpt><trkpt lat="45.4090148" lon="10.5398488"><ele>133.0</ele><time>2026-04-23T07:35:11.832Z</time></trkpt><trkpt lat="45.4089504" lon="10.5398504"><ele>133.0</ele><time>2026-04-23T07:35:39.829Z</time></trkpt><trkpt lat="45.4089951" lon="10.5399224"><ele>133.0</ele><time>2026-04-23T07:36:10.821Z</time></trkpt><trkpt lat="45.4089246" lon="10.5398956"><ele>133.0</ele><time>2026-04-23T07:36:58.828Z</time></trkpt><trkpt lat="45.4088736" lon="10.5398421"><ele>133.0</ele><time>2026-04-23T07:37:38.828Z</time></trkpt><trkpt lat="45.4087911" lon="10.5397381"><ele>133.0</ele><time>2026-04-23T07:37:47.83Z</time></trkpt><trkpt lat="45.408887" lon="10.5397177"><ele>133.0</ele><time>2026-04-23T07:38:29.823Z</time></trkpt><trkpt lat="45.408944" lon="10.5398169"><ele>133.0</ele><time>2026-04-23T07:38:31.825Z</time></trkpt><trkpt lat="45.4089745" lon="10.5397328"><ele>133.0</ele><time>2026-04-23T07:39:30.869Z</time></trkpt><trkpt lat="45.4090157" lon="10.5398141"><ele>133.0</ele><time>2026-04-23T07:39:46.821Z</time></trkpt><trkpt lat="45.4089333" lon="10.53983"><ele>133.0</ele><time>2026-04-23T07:40:03.826Z</time></trkpt><trkpt lat="45.4088649" lon="10.5398227"><ele>133.0</ele><time>2026-04-23T07:40:10.824Z</time></trkpt><trkpt lat="45.4087958" lon="10.5397965"><ele>133.0</ele><time>2026-04-23T07:40:17.822Z</time></trkpt><trkpt lat="45.4088654" lon="10.5397564"><ele>133.0</ele><time>2026-04-23T07:40:50.824Z</time></trkpt><trkpt lat="45.4089189" lon="10.5398404"><ele>133.0</ele><time>2026-04-23T07:41:20.832Z</time></trkpt><trkpt lat="45.4089852" lon="10.5398884"><ele>133.0</ele><time>2026-04-23T07:42:53.825Z</time></trkpt><trkpt lat="45.4090616" lon="10.5399212"><ele>133.0</ele><time>2026-04-23T07:43:06.824Z</time></trkpt><trkpt lat="45.409014" lon="10.5398188"><ele>133.0</ele><time>2026-04-23T07:43:12.833Z</time></trkpt><trkpt lat="45.4089794" lon="10.539908"><ele>133.0</ele><time>2026-04-23T07:44:47.826Z</time></trkpt><trkpt lat="45.4089373" lon="10.5398099"><ele>133.0</ele><time>2026-04-23T07:45:01.823Z</time></trkpt><trkpt lat="45.4088656" lon="10.5398069"><ele>133.0</ele><time>2026-04-23T07:45:11.825Z</time></trkpt><trkpt lat="45.408796" lon="10.5398286"><ele>133.0</ele><time>2026-04-23T07:45:16.827Z</time></trkpt><trkpt lat="45.4089117" lon="10.5398284"><ele>133.0</ele><time>2026-04-23T07:46:19.836Z</time></trkpt><trkpt lat="45.4089887" lon="10.5398212"><ele>133.0</ele><time>2026-04-23T07:47:24.826Z</time></trkpt><trkpt lat="45.4090586" lon="10.5398114"><ele>133.0</ele><time>2026-04-23T07:47:35.832Z</time></trkpt><trkpt lat="45.4089903" lon="10.5398282"><ele>133.0</ele><time>2026-04-23T07:47:42.83Z</time></trkpt><trkpt lat="45.408967" lon="10.5399208"><ele>133.0</ele><time>2026-04-23T07:48:09.821Z</time></trkpt><trkpt lat="45.4089307" lon="10.5398432"><ele>133.0</ele><time>2026-04-23T07:48:24.825Z</time></trkpt><trkpt lat="45.4088624" lon="10.539855"><ele>133.0</ele><time>2026-04-23T07:49:06.816Z</time></trkpt><trkpt lat="45.4088346" lon="10.5399529"><ele>133.0</ele><time>2026-04-23T07:49:22.821Z</time></trkpt><trkpt lat="45.4089033" lon="10.539982"><ele>133.0</ele><time>2026-04-23T07:49:33.831Z</time></trkpt><trkpt lat="45.4089802" lon="10.539867"><ele>133.0</ele><time>2026-04-23T07:50:20.825Z</time></trkpt><trkpt lat="45.4089151" lon="10.5398621"><ele>133.0</ele><time>2026-04-23T07:50:30.83Z</time></trkpt><trkpt lat="45.4089991" lon="10.5398425"><ele>133.0</ele><time>2026-04-23T07:51:12.829Z</time></trkpt><trkpt lat="45.4090802" lon="10.5398615"><ele>133.0</ele><time>2026-04-23T07:51:15.829Z</time></trkpt><trkpt lat="45.4091386" lon="10.5398966"><ele>133.0</ele><time>2026-04-23T07:51:21.831Z</time></trkpt><trkpt lat="45.4090506" lon="10.5399378"><ele>133.0</ele><time>2026-04-23T07:51:31.833Z</time></trkpt><trkpt lat="45.4089837" lon="10.5399295"><ele>133.0</ele><time>2026-04-23T07:51:37.823Z</time></trkpt><trkpt lat="45.4090526" lon="10.5398925"><ele>133.0</ele><time>2026-04-23T07:51:52.821Z</time></trkpt><trkpt lat="45.4090191" lon="10.539816"><ele>133.0</ele><time>2026-04-23T07:51:58.826Z</time></trkpt><trkpt lat="45.408932" lon="10.5398499"><ele>133.0</ele><time>2026-04-23T07:52:25.825Z</time></trkpt><trkpt lat="45.4088933" lon="10.5399219"><ele>133.0</ele><time>2026-04-23T07:52:43.826Z</time></trkpt><trkpt lat="45.4089588" lon="10.5399379"><ele>133.0</ele><time>2026-04-23T07:52:52.831Z</time></trkpt><trkpt lat="45.4090236" lon="10.5399204"><ele>133.0</ele><time>2026-04-23T07:52:58.82Z</time></trkpt><trkpt lat="45.4090844" lon="10.5398849"><ele>133.0</ele><time>2026-04-23T07:53:10.826Z</time></trkpt><trkpt lat="45.409162" lon="10.5398783"><ele>133.0</ele><time>2026-04-23T07:53:17.824Z</time></trkpt><trkpt lat="45.4091209" lon="10.5399469"><ele>133.0</ele><time>2026-04-23T07:53:33.829Z</time></trkpt><trkpt lat="45.4090385" lon="10.5399399"><ele>133.0</ele><time>2026-04-23T07:53:36.834Z</time></trkpt><trkpt lat="45.408959" lon="10.5399304"><ele>133.0</ele><time>2026-04-23T07:53:44.826Z</time></trkpt><trkpt lat="45.4090198" lon="10.539971"><ele>133.0</ele><time>2026-04-23T07:54:40.827Z</time></trkpt><trkpt lat="45.4090161" lon="10.5398735"><ele>133.0</ele><time>2026-04-23T07:54:49.831Z</time></trkpt><trkpt lat="45.4090923" lon="10.5398576"><ele>133.0</ele><time>2026-04-23T07:55:39.821Z</time></trkpt><trkpt lat="45.4090268" lon="10.5398143"><ele>133.0</ele><time>2026-04-23T07:56:01.827Z</time></trkpt><trkpt lat="45.408953" lon="10.5398187"><ele>133.0</ele><time>2026-04-23T07:56:49.836Z</time></trkpt><trkpt lat="45.4089941" lon="10.5398899"><ele>133.0</ele><time>2026-04-23T07:59:38.82Z</time></trkpt><trkpt lat="45.4090756" lon="10.5398144"><ele>133.0</ele><time>2026-04-23T07:59:58.828Z</time></trkpt><trkpt lat="45.4089722" lon="10.5397961"><ele>133.0</ele><time>2026-04-23T08:00:38.828Z</time></trkpt><trkpt lat="45.409037" lon="10.539815"><ele>133.0</ele><time>2026-04-23T08:02:03.818Z</time></trkpt><trkpt lat="45.4089731" lon="10.539823"><ele>133.0</ele><time>2026-04-23T08:03:06.828Z</time></trkpt><trkpt lat="45.4089579" lon="10.5397296"><ele>133.0</ele><time>2026-04-23T08:05:51.818Z</time></trkpt><trkpt lat="45.4089008" lon="10.5397833"><ele>133.0</ele><time>2026-04-23T08:06:49.817Z</time></trkpt><trkpt lat="45.408973" lon="10.5398048"><ele>133.0</ele><time>2026-04-23T08:09:16.824Z</time></trkpt><trkpt lat="45.4089058" lon="10.5398146"><ele>133.0</ele><time>2026-04-23T08:09:27.827Z</time></trkpt><trkpt lat="45.4089724" lon="10.5397972"><ele>133.0</ele><time>2026-04-23T08:11:12.828Z</time></trkpt><trkpt lat="45.4089075" lon="10.5397823"><ele>133.0</ele><time>2026-04-23T08:11:49.821Z</time></trkpt><trkpt lat="45.4089821" lon="10.5398036"><ele>133.0</ele><time>2026-04-23T08:12:17.824Z</time></trkpt><trkpt lat="45.4089148" lon="10.5398121"><ele>133.0</ele><time>2026-04-23T08:14:07.821Z</time></trkpt><trkpt lat="45.4089858" lon="10.5398525"><ele>133.0</ele><time>2026-04-23T08:20:04.823Z</time></trkpt><trkpt lat="45.4088765" lon="10.5398844"><ele>133.0</ele><time>2026-04-23T08:22:15.82Z</time></trkpt><trkpt lat="45.4089313" lon="10.5398368"><ele>133.0</ele><time>2026-04-23T08:25:57.813Z</time></trkpt><trkpt lat="45.409001" lon="10.5397834"><ele>133.0</ele><time>2026-04-23T08:26:11.821Z</time></trkpt><trkpt lat="45.4089209" lon="10.5398214"><ele>133.0</ele><time>2026-04-23T08:26:22.827Z</time></trkpt><trkpt lat="45.4088389" lon="10.5398289"><ele>133.0</ele><time>2026-04-23T08:26:53.822Z</time></trkpt><trkpt lat="45.4089027" lon="10.5398188"><ele>133.0</ele><time>2026-04-23T08:27:17.818Z</time></trkpt><trkpt lat="45.4088504" lon="10.5398861"><ele>133.0</ele><time>2026-04-23T08:27:34.821Z</time></trkpt><trkpt lat="45.4089495" lon="10.5398354"><ele>133.0</ele><time>2026-04-23T08:27:42.82Z</time></trkpt><trkpt lat="45.4088868" lon="10.5398247"><ele>133.0</ele><time>2026-04-23T08:27:57.819Z</time></trkpt><trkpt lat="45.4090068" lon="10.5398549"><ele>133.0</ele><time>2026-04-23T08:30:08.825Z</time></trkpt><trkpt lat="45.4089803" lon="10.5397708"><ele>133.0</ele><time>2026-04-23T08:30:51.829Z</time></trkpt><trkpt lat="45.4089405" lon="10.5398429"><ele>133.0</ele><time>2026-04-23T08:31:00.823Z</time></trkpt><trkpt lat="45.4090041" lon="10.5398384"><ele>133.0</ele><time>2026-04-23T08:35:47.833Z</time></trkpt><trkpt lat="45.4089362" lon="10.5398321"><ele>133.0</ele><time>2026-04-23T08:36:23.826Z</time></trkpt><trkpt lat="45.4088592" lon="10.5398092"><ele>133.0</ele><time>2026-04-23T08:36:45.821Z</time></trkpt><trkpt lat="45.4089052" lon="10.5398838"><ele>133.0</ele><time>2026-04-23T08:36:48.822Z</time></trkpt><trkpt lat="45.4089015" lon="10.5397923"><ele>133.0</ele><time>2026-04-23T08:37:16.822Z</time></trkpt><trkpt lat="45.4089192" lon="10.5397048"><ele>133.0</ele><time>2026-04-23T08:37:26.822Z</time></trkpt><trkpt lat="45.4089836" lon="10.539732"><ele>133.0</ele><time>2026-04-23T08:38:23.823Z</time></trkpt><trkpt lat="45.4089206" lon="10.5397544"><ele>133.0</ele><time>2026-04-23T08:38:52.825Z</time></trkpt><trkpt lat="45.4089704" lon="10.5396861"><ele>133.0</ele><time>2026-04-23T08:41:32.822Z</time></trkpt><trkpt lat="45.4089508" lon="10.5397735"><ele>133.0</ele><time>2026-04-23T08:41:45.827Z</time></trkpt><trkpt lat="45.4088802" lon="10.5398006"><ele>133.0</ele><time>2026-04-23T08:41:56.824Z</time></trkpt><trkpt lat="45.4088141" lon="10.5398132"><ele>133.0</ele><time>2026-04-23T08:42:08.819Z</time></trkpt><trkpt lat="45.4087497" lon="10.539793"><ele>133.0</ele><time>2026-04-23T08:42:25.834Z</time></trkpt><trkpt lat="45.4086843" lon="10.5397476"><ele>133.0</ele><time>2026-04-23T08:43:00.82Z</time></trkpt><trkpt lat="45.408753" lon="10.539742"><ele>133.0</ele><time>2026-04-23T08:43:14.832Z</time></trkpt><trkpt lat="45.4086579" lon="10.5398705"><ele>131.20000000000002</ele><time>2026-04-23T08:43:29.833Z</time></trkpt><trkpt lat="45.4086014" lon="10.5399612"><ele>129.4</ele><time>2026-04-23T08:43:37.833Z</time></trkpt><trkpt lat="45.4085233" lon="10.5400064"><ele>127.60000000000001</ele><time>2026-04-23T08:43:47.831Z</time></trkpt><trkpt lat="45.4085674" lon="10.5398911"><ele>125.80000000000001</ele><time>2026-04-23T08:43:54.828Z</time></trkpt><trkpt lat="45.4086561" lon="10.5398499"><ele>124.0</ele><time>2026-04-23T08:44:04.822Z</time></trkpt><trkpt lat="45.4087682" lon="10.5398426"><ele>124.0</ele><time>2026-04-23T08:44:10.829Z</time></trkpt><trkpt lat="45.4088359" lon="10.5398566"><ele>124.0</ele><time>2026-04-23T08:44:11.829Z</time></trkpt><trkpt lat="45.4090293" lon="10.5399096"><ele>124.0</ele><time>2026-04-23T08:44:48.028Z</time></trkpt><trkpt lat="45.4084225" lon="10.5397098"><ele>124.00000000000001</ele><time>2026-04-23T08:46:02.829Z</time></trkpt><trkpt lat="45.4084774" lon="10.5396465"><ele>124.0</ele><time>2026-04-23T08:46:05.828Z</time></trkpt><trkpt lat="45.4085999" lon="10.5396417"><ele>124.0</ele><time>2026-04-23T08:46:22.826Z</time></trkpt><trkpt lat="45.4086917" lon="10.5396449"><ele>124.0</ele><time>2026-04-23T08:46:40.82Z</time></trkpt><trkpt lat="45.4087645" lon="10.5396404"><ele>124.00000000000001</ele><time>2026-04-23T08:46:50.824Z</time></trkpt><trkpt lat="45.4088386" lon="10.5396159"><ele>124.0</ele><time>2026-04-23T08:46:54.825Z</time></trkpt><trkpt lat="45.408905" lon="10.5395926"><ele>125.28571428571429</ele><time>2026-04-23T08:46:58.823Z</time></trkpt><trkpt lat="45.4089702" lon="10.5396525"><ele>126.57142857142858</ele><time>2026-04-23T08:47:10.823Z</time></trkpt><trkpt lat="45.4089265" lon="10.5397174"><ele>127.85714285714286</ele><time>2026-04-23T08:47:26.818Z</time></trkpt><trkpt lat="45.408952" lon="10.5397995"><ele>129.14285714285714</ele><time>2026-04-23T08:47:56.825Z</time></trkpt><trkpt lat="45.4089557" lon="10.5396908"><ele>130.42857142857144</ele><time>2026-04-23T08:48:47.828Z</time></trkpt><trkpt lat="45.408895" lon="10.5397187"><ele>131.71428571428572</ele><time>2026-04-23T08:48:54.823Z</time></trkpt><trkpt lat="45.4089261" lon="10.5396357"><ele>133.0</ele><time>2026-04-23T08:49:35.829Z</time></trkpt><trkpt lat="45.4088841" lon="10.5397124"><ele>133.0</ele><time>2026-04-23T08:49:41.826Z</time></trkpt><trkpt lat="45.4087926" lon="10.5398149"><ele>133.0</ele><time>2026-04-23T08:52:17.833Z</time></trkpt><trkpt lat="45.4088677" lon="10.5397495"><ele>133.0</ele><time>2026-04-23T08:54:03.826Z</time></trkpt><trkpt lat="45.40894" lon="10.5397418"><ele>133.0</ele><time>2026-04-23T08:54:22.823Z</time></trkpt><trkpt lat="45.4089624" lon="10.5398273"><ele>133.0</ele><time>2026-04-23T08:54:52.817Z</time></trkpt><trkpt lat="45.409042" lon="10.5397974"><ele>133.0</ele><time>2026-04-23T08:57:14.82Z</time></trkpt><trkpt lat="45.4089733" lon="10.5397775"><ele>133.0</ele><time>2026-04-23T08:58:00.824Z</time></trkpt><trkpt lat="45.4089145" lon="10.5398275"><ele>133.0</ele><time>2026-04-23T08:58:32.827Z</time></trkpt><trkpt lat="45.4090196" lon="10.5398569"><ele>133.0</ele><time>2026-04-23T08:59:24.82Z</time></trkpt><trkpt lat="45.4089484" lon="10.5399032"><ele>133.0</ele><time>2026-04-23T09:00:15.819Z</time></trkpt><trkpt lat="45.4089988" lon="10.5398467"><ele>133.0</ele><time>2026-04-23T09:00:37.825Z</time></trkpt><trkpt lat="45.4090644" lon="10.5398046"><ele>133.0</ele><time>2026-04-23T09:03:18.827Z</time></trkpt><trkpt lat="45.4091678" lon="10.5397905"><ele>133.0</ele><time>2026-04-23T09:03:29.82Z</time></trkpt><trkpt lat="45.4092702" lon="10.5398434"><ele>133.0</ele><time>2026-04-23T09:03:40.812Z</time></trkpt><trkpt lat="45.409353" lon="10.5398219"><ele>133.0</ele><time>2026-04-23T09:03:47.818Z</time></trkpt><trkpt lat="45.4092934" lon="10.5398866"><ele>133.0</ele><time>2026-04-23T09:03:57.82Z</time></trkpt><trkpt lat="45.4093527" lon="10.5398314"><ele>133.0</ele><time>2026-04-23T09:04:01.822Z</time></trkpt><trkpt lat="45.409436" lon="10.5397706"><ele>133.0</ele><time>2026-04-23T09:04:04.823Z</time></trkpt><trkpt lat="45.4093413" lon="10.5397967"><ele>133.0</ele><time>2026-04-23T09:04:06.829Z</time></trkpt><trkpt lat="45.4092794" lon="10.5397703"><ele>133.0</ele><time>2026-04-23T09:04:20.826Z</time></trkpt><trkpt lat="45.4091665" lon="10.5398823"><ele>133.0</ele><time>2026-04-23T09:04:36.818Z</time></trkpt><trkpt lat="45.4092336" lon="10.5398065"><ele>133.0</ele><time>2026-04-23T09:05:09.821Z</time></trkpt><trkpt lat="45.4091564" lon="10.5398027"><ele>133.0</ele><time>2026-04-23T09:05:23.823Z</time></trkpt><trkpt lat="45.4091037" lon="10.5397156"><ele>133.0</ele><time>2026-04-23T09:05:38.818Z</time></trkpt><trkpt lat="45.4090395" lon="10.5396654"><ele>133.0</ele><time>2026-04-23T09:05:43.831Z</time></trkpt><trkpt lat="45.4089766" lon="10.5396515"><ele>133.0</ele><time>2026-04-23T09:05:46.826Z</time></trkpt><trkpt lat="45.4090349" lon="10.5397192"><ele>133.0</ele><time>2026-04-23T09:06:23.822Z</time></trkpt><trkpt lat="45.4089709" lon="10.5397639"><ele>133.0</ele><time>2026-04-23T09:08:22.819Z</time></trkpt><trkpt lat="45.4090118" lon="10.5396854"><ele>133.0</ele><time>2026-04-23T09:08:33.828Z</time></trkpt><trkpt lat="45.4090777" lon="10.5397031"><ele>133.0</ele><time>2026-04-23T09:08:47.821Z</time></trkpt><trkpt lat="45.4091425" lon="10.5397234"><ele>133.0</ele><time>2026-04-23T09:09:11.82Z</time></trkpt><trkpt lat="45.4092905" lon="10.5397614"><ele>133.0</ele><time>2026-04-23T09:09:34.83Z</time></trkpt><trkpt lat="45.4092168" lon="10.5398223"><ele>133.0</ele><time>2026-04-23T09:09:53.822Z</time></trkpt><trkpt lat="45.4091468" lon="10.5398455"><ele>133.0</ele><time>2026-04-23T09:09:59.823Z</time></trkpt><trkpt lat="45.409079" lon="10.5398747"><ele>133.0</ele><time>2026-04-23T09:10:04.83Z</time></trkpt><trkpt lat="45.4091344" lon="10.5398312"><ele>133.0</ele><time>2026-04-23T09:10:16.822Z</time></trkpt><trkpt lat="45.4090642" lon="10.5397955"><ele>133.0</ele><time>2026-04-23T09:10:23.817Z</time></trkpt><trkpt lat="45.4091043" lon="10.5397128"><ele>133.0</ele><time>2026-04-23T09:10:42.822Z</time></trkpt><trkpt lat="45.4090447" lon="10.5396708"><ele>133.0</ele><time>2026-04-23T09:11:08.888Z</time></trkpt><trkpt lat="45.4089878" lon="10.5397145"><ele>133.0</ele><time>2026-04-23T09:11:14.821Z</time></trkpt><trkpt lat="45.4089445" lon="10.5398138"><ele>133.0</ele><time>2026-04-23T09:11:40.824Z</time></trkpt><trkpt lat="45.4088742" lon="10.5398138"><ele>133.0</ele><time>2026-04-23T09:12:18.818Z</time></trkpt><trkpt lat="45.4089388" lon="10.5397822"><ele>133.0</ele><time>2026-04-23T09:12:57.828Z</time></trkpt><trkpt lat="45.4090589" lon="10.539804"><ele>133.0</ele><time>2026-04-23T09:13:14.82Z</time></trkpt><trkpt lat="45.4091806" lon="10.5398376"><ele>133.0</ele><time>2026-04-23T09:13:26.825Z</time></trkpt><trkpt lat="45.4092798" lon="10.5398384"><ele>133.0</ele><time>2026-04-23T09:13:29.826Z</time></trkpt><trkpt lat="45.4092168" lon="10.5398347"><ele>133.0</ele><time>2026-04-23T09:14:02.824Z</time></trkpt><trkpt lat="45.4091548" lon="10.5398568"><ele>133.0</ele><time>2026-04-23T09:14:05.822Z</time></trkpt><trkpt lat="45.4090717" lon="10.5398924"><ele>133.0</ele><time>2026-04-23T09:14:07.808Z</time></trkpt><trkpt lat="45.4090016" lon="10.5399355"><ele>133.0</ele><time>2026-04-23T09:14:11.824Z</time></trkpt><trkpt lat="45.4089484" lon="10.5399987"><ele>133.0</ele><time>2026-04-23T09:14:16.826Z</time></trkpt><trkpt lat="45.409009" lon="10.5399605"><ele>133.0</ele><time>2026-04-23T09:14:21.82Z</time></trkpt><trkpt lat="45.4090568" lon="10.5398995"><ele>133.0</ele><time>2026-04-23T09:15:10.822Z</time></trkpt><trkpt lat="45.409112" lon="10.5398479"><ele>133.0</ele><time>2026-04-23T09:15:49.822Z</time></trkpt><trkpt lat="45.409239" lon="10.5397802"><ele>133.0</ele><time>2026-04-23T09:16:03.828Z</time></trkpt><trkpt lat="45.4091444" lon="10.5398469"><ele>133.0</ele><time>2026-04-23T09:16:29.819Z</time></trkpt><trkpt lat="45.4090773" lon="10.5398418"><ele>133.0</ele><time>2026-04-23T09:16:31.821Z</time></trkpt><trkpt lat="45.4090092" lon="10.5398221"><ele>133.0</ele><time>2026-04-23T09:16:38.821Z</time></trkpt><trkpt lat="45.4088949" lon="10.5397811"><ele>133.0</ele><time>2026-04-23T09:17:03.821Z</time></trkpt><trkpt lat="45.40884" lon="10.539845"><ele>133.0</ele><time>2026-04-23T09:18:13.824Z</time></trkpt><trkpt lat="45.4087752" lon="10.5398501"><ele>133.0</ele><time>2026-04-23T09:19:17.824Z</time></trkpt><trkpt lat="45.4087092" lon="10.5398481"><ele>133.0</ele><time>2026-04-23T09:19:25.834Z</time></trkpt><trkpt lat="45.4088008" lon="10.5398063"><ele>133.0</ele><time>2026-04-23T09:20:01.818Z</time></trkpt><trkpt lat="45.4089368" lon="10.5398225"><ele>133.0</ele><time>2026-04-23T09:21:33.821Z</time></trkpt><trkpt lat="45.4090395" lon="10.5398012"><ele>133.0</ele><time>2026-04-23T09:21:55.822Z</time></trkpt><trkpt lat="45.409119" lon="10.539743"><ele>133.0</ele><time>2026-04-23T09:22:08.825Z</time></trkpt><trkpt lat="45.4090654" lon="10.5398013"><ele>133.0</ele><time>2026-04-23T09:22:55.827Z</time></trkpt><trkpt lat="45.4090286" lon="10.5397276"><ele>133.0</ele><time>2026-04-23T09:24:03.827Z</time></trkpt><trkpt lat="45.4089283" lon="10.5397446"><ele>133.0</ele><time>2026-04-23T09:24:10.828Z</time></trkpt><trkpt lat="45.4088511" lon="10.5398445"><ele>133.0</ele><time>2026-04-23T09:24:49.83Z</time></trkpt><trkpt lat="45.4088117" lon="10.5399148"><ele>133.0</ele><time>2026-04-23T09:24:50.828Z</time></trkpt><trkpt lat="45.4087491" lon="10.5400111"><ele>133.0</ele><time>2026-04-23T09:24:52.828Z</time></trkpt><trkpt lat="45.4086737" lon="10.5400728"><ele>133.0</ele><time>2026-04-23T09:24:56.82Z</time></trkpt><trkpt lat="45.4086114" lon="10.5401148"><ele>133.0</ele><time>2026-04-23T09:25:00.827Z</time></trkpt><trkpt lat="45.4086628" lon="10.5400607"><ele>133.0</ele><time>2026-04-23T09:25:05.821Z</time></trkpt><trkpt lat="45.40877" lon="10.5399715"><ele>133.0</ele><time>2026-04-23T09:25:09.822Z</time></trkpt><trkpt lat="45.4088276" lon="10.5399258"><ele>133.0</ele><time>2026-04-23T09:25:10.824Z</time></trkpt><trkpt lat="45.4088897" lon="10.5398821"><ele>133.0</ele><time>2026-04-23T09:25:14.829Z</time></trkpt><trkpt lat="45.4089518" lon="10.5398074"><ele>133.0</ele><time>2026-04-23T09:25:31.828Z</time></trkpt><trkpt lat="45.4089613" lon="10.5397143"><ele>133.0</ele><time>2026-04-23T09:25:49.821Z</time></trkpt><trkpt lat="45.4089392" lon="10.5398072"><ele>133.0</ele><time>2026-04-23T09:25:55.83Z</time></trkpt><trkpt lat="45.4090466" lon="10.5396224"><ele>133.0</ele><time>2026-04-23T09:26:15.819Z</time></trkpt><trkpt lat="45.4090159" lon="10.5397251"><ele>133.0</ele><time>2026-04-23T09:26:31.821Z</time></trkpt><trkpt lat="45.4089639" lon="10.5397778"><ele>133.0</ele><time>2026-04-23T09:26:34.827Z</time></trkpt><trkpt lat="45.4089094" lon="10.5398342"><ele>133.0</ele><time>2026-04-23T09:27:05.82Z</time></trkpt><trkpt lat="45.4088416" lon="10.5398762"><ele>133.0</ele><time>2026-04-23T09:27:13.819Z</time></trkpt><trkpt lat="45.4089379" lon="10.5398547"><ele>133.0</ele><time>2026-04-23T09:27:41.825Z</time></trkpt><trkpt lat="45.4090345" lon="10.5397963"><ele>133.0</ele><time>2026-04-23T09:28:21.824Z</time></trkpt><trkpt lat="45.4089874" lon="10.5398952"><ele>133.0</ele><time>2026-04-23T09:29:34.824Z</time></trkpt><trkpt lat="45.4089306" lon="10.539973"><ele>133.0</ele><time>2026-04-23T09:29:41.828Z</time></trkpt><trkpt lat="45.4089732" lon="10.5398771"><ele>133.0</ele><time>2026-04-23T09:30:16.82Z</time></trkpt><trkpt lat="45.4087847" lon="10.5399958"><ele>133.0</ele><time>2026-04-23T09:30:27.817Z</time></trkpt><trkpt lat="45.4087091" lon="10.5400417"><ele>133.0</ele><time>2026-04-23T09:30:28.82Z</time></trkpt><trkpt lat="45.4087304" lon="10.5399477"><ele>133.0</ele><time>2026-04-23T09:30:33.818Z</time></trkpt><trkpt lat="45.4087993" lon="10.5398854"><ele>133.0</ele><time>2026-04-23T09:30:50.825Z</time></trkpt><trkpt lat="45.4088101" lon="10.5397814"><ele>133.0</ele><time>2026-04-23T09:31:01.821Z</time></trkpt><trkpt lat="45.4088604" lon="10.5396986"><ele>133.0</ele><time>2026-04-23T09:31:04.823Z</time></trkpt><trkpt lat="45.408913" lon="10.5397494"><ele>133.0</ele><time>2026-04-23T09:31:14.826Z</time></trkpt><trkpt lat="45.4089648" lon="10.5396965"><ele>133.0</ele><time>2026-04-23T09:31:48.821Z</time></trkpt><trkpt lat="45.4089245" lon="10.5397656"><ele>133.0</ele><time>2026-04-23T09:31:54.829Z</time></trkpt><trkpt lat="45.4088547" lon="10.5397178"><ele>133.0</ele><time>2026-04-23T09:32:43.827Z</time></trkpt><trkpt lat="45.4088246" lon="10.5397996"><ele>133.0</ele><time>2026-04-23T09:32:49.829Z</time></trkpt><trkpt lat="45.4088667" lon="10.5397274"><ele>133.0</ele><time>2026-04-23T09:34:26.822Z</time></trkpt><trkpt lat="45.4088456" lon="10.5398138"><ele>133.0</ele><time>2026-04-23T09:35:07.825Z</time></trkpt><trkpt lat="45.4089113" lon="10.5398412"><ele>133.0</ele><time>2026-04-23T09:36:05.826Z</time></trkpt><trkpt lat="45.4089506" lon="10.5397671"><ele>133.0</ele><time>2026-04-23T09:36:22.824Z</time></trkpt><trkpt lat="45.408881" lon="10.5398514"><ele>133.0</ele><time>2026-04-23T09:37:32.819Z</time></trkpt><trkpt lat="45.4089429" lon="10.5398282"><ele>133.0</ele><time>2026-04-23T09:38:22.822Z</time></trkpt><trkpt lat="45.4088988" lon="10.5399073"><ele>133.0</ele><time>2026-04-23T09:40:44.829Z</time></trkpt><trkpt lat="45.4088377" lon="10.5399299"><ele>133.0</ele><time>2026-04-23T09:40:52.818Z</time></trkpt><trkpt lat="45.4087785" lon="10.5398918"><ele>133.0</ele><time>2026-04-23T09:41:01.82Z</time></trkpt><trkpt lat="45.4088153" lon="10.5398083"><ele>133.0</ele><time>2026-04-23T09:41:08.817Z</time></trkpt><trkpt lat="45.408787" lon="10.5398971"><ele>133.0</ele><time>2026-04-23T09:41:24.824Z</time></trkpt><trkpt lat="45.4088598" lon="10.5398603"><ele>133.0</ele><time>2026-04-23T09:41:40.823Z</time></trkpt><trkpt lat="45.4089045" lon="10.539794"><ele>133.0</ele><time>2026-04-23T09:42:24.819Z</time></trkpt><trkpt lat="45.4090012" lon="10.5397444"><ele>133.0</ele><time>2026-04-23T09:42:40.819Z</time></trkpt><trkpt lat="45.4090531" lon="10.5396751"><ele>133.0</ele><time>2026-04-23T09:42:45.821Z</time></trkpt><trkpt lat="45.4091159" lon="10.5396397"><ele>133.0</ele><time>2026-04-23T09:42:56.818Z</time></trkpt><trkpt lat="45.409152" lon="10.5395639"><ele>133.0</ele><time>2026-04-23T09:43:31.822Z</time></trkpt><trkpt lat="45.4091054" lon="10.539626"><ele>133.0</ele><time>2026-04-23T09:44:17.825Z</time></trkpt><trkpt lat="45.4090458" lon="10.5397052"><ele>133.0</ele><time>2026-04-23T09:44:32.822Z</time></trkpt><trkpt lat="45.4090198" lon="10.5398343"><ele>133.0</ele><time>2026-04-23T09:46:09.826Z</time></trkpt><trkpt lat="45.4089465" lon="10.5398347"><ele>133.0</ele><time>2026-04-23T09:47:37.827Z</time></trkpt><trkpt lat="45.4088658" lon="10.5399097"><ele>133.0</ele><time>2026-04-23T09:47:39.825Z</time></trkpt><trkpt lat="45.4088037" lon="10.5399565"><ele>133.0</ele><time>2026-04-23T09:47:41.818Z</time></trkpt><trkpt lat="45.4089019" lon="10.5398502"><ele>133.0</ele><time>2026-04-23T09:48:18.827Z</time></trkpt><trkpt lat="45.4089611" lon="10.539783"><ele>133.0</ele><time>2026-04-23T09:49:09.826Z</time></trkpt><trkpt lat="45.4088923" lon="10.539813"><ele>133.0</ele><time>2026-04-23T09:49:44.82Z</time></trkpt><trkpt lat="45.408957" lon="10.5397982"><ele>133.0</ele><time>2026-04-23T09:50:58.817Z</time></trkpt><trkpt lat="45.4090065" lon="10.5397367"><ele>133.0</ele><time>2026-04-23T09:51:28.824Z</time></trkpt><trkpt lat="45.4088829" lon="10.5398739"><ele>133.0</ele><time>2026-04-23T09:52:26.822Z</time></trkpt><trkpt lat="45.4089391" lon="10.5397541"><ele>133.0</ele><time>2026-04-23T09:53:01.822Z</time></trkpt><trkpt lat="45.4089262" lon="10.5398482"><ele>133.0</ele><time>2026-04-23T09:53:45.828Z</time></trkpt><trkpt lat="45.4088442" lon="10.5398617"><ele>133.0</ele><time>2026-04-23T09:55:41.824Z</time></trkpt><trkpt lat="45.4087759" lon="10.5398579"><ele>133.0</ele><time>2026-04-23T09:55:47.828Z</time></trkpt><trkpt lat="45.4088414" lon="10.539845"><ele>133.0</ele><time>2026-04-23T09:56:39.821Z</time></trkpt><trkpt lat="45.4088028" lon="10.5397643"><ele>133.0</ele><time>2026-04-23T09:57:39.819Z</time></trkpt><trkpt lat="45.4089074" lon="10.5398527"><ele>133.0</ele><time>2026-04-23T09:57:45.82Z</time></trkpt><trkpt lat="45.4089563" lon="10.5399154"><ele>133.0</ele><time>2026-04-23T09:57:46.82Z</time></trkpt><trkpt lat="45.4090283" lon="10.5398624"><ele>133.0</ele><time>2026-04-23T09:57:54.819Z</time></trkpt><trkpt lat="45.4089207" lon="10.5399627"><ele>133.0</ele><time>2026-04-23T09:58:06.829Z</time></trkpt><trkpt lat="45.4088934" lon="10.5398707"><ele>133.0</ele><time>2026-04-23T09:58:17.818Z</time></trkpt><trkpt lat="45.4089759" lon="10.5398184"><ele>133.0</ele><time>2026-04-23T09:58:32.819Z</time></trkpt><trkpt lat="45.409065" lon="10.5398132"><ele>133.0</ele><time>2026-04-23T10:01:18.818Z</time></trkpt><trkpt lat="45.4091479" lon="10.5398225"><ele>133.0</ele><time>2026-04-23T10:01:33.82Z</time></trkpt><trkpt lat="45.4090813" lon="10.5398016"><ele>133.0</ele><time>2026-04-23T10:01:57.819Z</time></trkpt><trkpt lat="45.4090316" lon="10.5398626"><ele>133.0</ele><time>2026-04-23T10:02:21.823Z</time></trkpt><trkpt lat="45.4089714" lon="10.539755"><ele>133.0</ele><time>2026-04-23T10:03:09.826Z</time></trkpt><trkpt lat="45.4088918" lon="10.5398165"><ele>133.0</ele><time>2026-04-23T10:03:12.819Z</time></trkpt><trkpt lat="45.4088421" lon="10.5398843"><ele>133.0</ele><time>2026-04-23T10:03:33.823Z</time></trkpt><trkpt lat="45.4087911" lon="10.5399811"><ele>133.0</ele><time>2026-04-23T10:03:38.824Z</time></trkpt><trkpt lat="45.4087246" lon="10.5399996"><ele>133.0</ele><time>2026-04-23T10:03:43.816Z</time></trkpt><trkpt lat="45.4086467" lon="10.5400381"><ele>133.0</ele><time>2026-04-23T10:03:49.821Z</time></trkpt><trkpt lat="45.4087141" lon="10.5400154"><ele>133.0</ele><time>2026-04-23T10:04:01.821Z</time></trkpt><trkpt lat="45.4087714" lon="10.5399647"><ele>133.0</ele><time>2026-04-23T10:04:14.824Z</time></trkpt><trkpt lat="45.4088277" lon="10.5399185"><ele>133.0</ele><time>2026-04-23T10:04:18.822Z</time></trkpt><trkpt lat="45.4088783" lon="10.539863"><ele>133.0</ele><time>2026-04-23T10:04:24.82Z</time></trkpt><trkpt lat="45.4089358" lon="10.5398187"><ele>133.0</ele><time>2026-04-23T10:04:34.82Z</time></trkpt><trkpt lat="45.40899" lon="10.5398833"><ele>133.0</ele><time>2026-04-23T10:07:56.818Z</time></trkpt><trkpt lat="45.4089409" lon="10.539949"><ele>133.0</ele><time>2026-04-23T10:08:22.817Z</time></trkpt><trkpt lat="45.4088898" lon="10.5400177"><ele>133.0</ele><time>2026-04-23T10:09:01.82Z</time></trkpt><trkpt lat="45.4087777" lon="10.5400639"><ele>133.0</ele><time>2026-04-23T10:09:04.815Z</time></trkpt><trkpt lat="45.4087033" lon="10.5401098"><ele>133.0</ele><time>2026-04-23T10:09:05.824Z</time></trkpt><trkpt lat="45.4086451" lon="10.5401508"><ele>133.0</ele><time>2026-04-23T10:09:10.819Z</time></trkpt><trkpt lat="45.4087141" lon="10.5401502"><ele>133.0</ele><time>2026-04-23T10:09:24.83Z</time></trkpt><trkpt lat="45.4087545" lon="10.5400783"><ele>133.0</ele><time>2026-04-23T10:09:31.83Z</time></trkpt><trkpt lat="45.4088093" lon="10.5400301"><ele>133.0</ele><time>2026-04-23T10:09:38.827Z</time></trkpt><trkpt lat="45.4088711" lon="10.539978"><ele>133.0</ele><time>2026-04-23T10:09:53.828Z</time></trkpt><trkpt lat="45.408956" lon="10.5398907"><ele>133.0</ele><time>2026-04-23T10:09:56.827Z</time></trkpt><trkpt lat="45.4090326" lon="10.5398062"><ele>133.0</ele><time>2026-04-23T10:11:23.82Z</time></trkpt><trkpt lat="45.4089618" lon="10.5398024"><ele>133.0</ele><time>2026-04-23T10:11:42.82Z</time></trkpt><trkpt lat="45.4088978" lon="10.5398197"><ele>133.0</ele><time>2026-04-23T10:15:03.825Z</time></trkpt><trkpt lat="45.4089668" lon="10.5398148"><ele>133.0</ele><time>2026-04-23T10:15:44.828Z</time></trkpt><trkpt lat="45.4090143" lon="10.5398738"><ele>133.0</ele><time>2026-04-23T10:16:11.826Z</time></trkpt><trkpt lat="45.4089332" lon="10.5399117"><ele>133.0</ele><time>2026-04-23T10:17:06.825Z</time></trkpt><trkpt lat="45.4089912" lon="10.5398742"><ele>133.0</ele><time>2026-04-23T10:17:56.825Z</time></trkpt><trkpt lat="45.4089352" lon="10.5398214"><ele>133.0</ele><time>2026-04-23T10:18:51.821Z</time></trkpt><trkpt lat="45.4089057" lon="10.5399052"><ele>133.0</ele><time>2026-04-23T10:20:19.819Z</time></trkpt><trkpt lat="45.4089949" lon="10.5398893"><ele>133.0</ele><time>2026-04-23T10:21:04.827Z</time></trkpt><trkpt lat="45.4089324" lon="10.5398784"><ele>133.0</ele><time>2026-04-23T10:22:46.819Z</time></trkpt><trkpt lat="45.4089763" lon="10.5399526"><ele>133.0</ele><time>2026-04-23T10:23:35.819Z</time></trkpt><trkpt lat="45.4088653" lon="10.5399171"><ele>133.0</ele><time>2026-04-23T10:24:29.823Z</time></trkpt><trkpt lat="45.4088717" lon="10.539815"><ele>133.0</ele><time>2026-04-23T10:26:26.817Z</time></trkpt><trkpt lat="45.4089257" lon="10.5397598"><ele>133.0</ele><time>2026-04-23T10:26:46.821Z</time></trkpt><trkpt lat="45.408989" lon="10.5396841"><ele>133.0</ele><time>2026-04-23T10:27:36.826Z</time></trkpt><trkpt lat="45.4090252" lon="10.5395977"><ele>133.0</ele><time>2026-04-23T10:27:44.826Z</time></trkpt><trkpt lat="45.4089774" lon="10.5396585"><ele>133.0</ele><time>2026-04-23T10:28:26.824Z</time></trkpt><trkpt lat="45.4089636" lon="10.5397516"><ele>133.0</ele><time>2026-04-23T10:29:13.821Z</time></trkpt><trkpt lat="45.4089496" lon="10.5398597"><ele>133.0</ele><time>2026-04-23T10:29:38.825Z</time></trkpt><trkpt lat="45.4089634" lon="10.5397644"><ele>133.0</ele><time>2026-04-23T10:30:41.827Z</time></trkpt><trkpt lat="45.4088779" lon="10.5398111"><ele>133.0</ele><time>2026-04-23T10:31:25.831Z</time></trkpt><trkpt lat="45.4089454" lon="10.5398064"><ele>133.0</ele><time>2026-04-23T10:32:22.825Z</time></trkpt><trkpt lat="45.4088915" lon="10.5399028"><ele>133.0</ele><time>2026-04-23T10:35:23.819Z</time></trkpt><trkpt lat="45.4088931" lon="10.539803"><ele>133.0</ele><time>2026-04-23T10:42:59.822Z</time></trkpt><trkpt lat="45.408948" lon="10.5398703"><ele>133.0</ele><time>2026-04-23T10:43:45.823Z</time></trkpt><trkpt lat="45.4088999" lon="10.5397989"><ele>133.0</ele><time>2026-04-23T10:44:56.819Z</time></trkpt><trkpt lat="45.4089764" lon="10.5398386"><ele>133.0</ele><time>2026-04-23T10:45:34.826Z</time></trkpt><trkpt lat="45.4089009" lon="10.5398448"><ele>133.0</ele><time>2026-04-23T10:46:06.823Z</time></trkpt><trkpt lat="45.4089639" lon="10.5398499"><ele>133.0</ele><time>2026-04-23T10:47:05.82Z</time></trkpt><trkpt lat="45.4089219" lon="10.5399168"><ele>133.0</ele><time>2026-04-23T10:50:20.825Z</time></trkpt><trkpt lat="45.4088512" lon="10.5398696"><ele>133.0</ele><time>2026-04-23T10:50:56.822Z</time></trkpt><trkpt lat="45.4089162" lon="10.5398668"><ele>133.0</ele><time>2026-04-23T10:51:38.826Z</time></trkpt><trkpt lat="45.4089017" lon="10.5399698"><ele>133.0</ele><time>2026-04-23T10:51:53.827Z</time></trkpt><trkpt lat="45.4088468" lon="10.5399155"><ele>133.0</ele><time>2026-04-23T10:53:19.828Z</time></trkpt><trkpt lat="45.4089147" lon="10.5399521"><ele>133.0</ele><time>2026-04-23T10:59:57.822Z</time></trkpt><trkpt lat="45.4089446" lon="10.540034"><ele>133.0</ele><time>2026-04-23T11:00:12.829Z</time></trkpt><trkpt lat="45.4089552" lon="10.539939"><ele>133.0</ele><time>2026-04-23T11:00:38.824Z</time></trkpt><trkpt lat="45.4088918" lon="10.5399742"><ele>133.0</ele><time>2026-04-23T11:00:42.818Z</time></trkpt><trkpt lat="45.4089306" lon="10.5398328"><ele>133.0</ele><time>2026-04-23T11:01:43.825Z</time></trkpt><trkpt lat="45.4088646" lon="10.5398612"><ele>133.0</ele><time>2026-04-23T11:03:27.822Z</time></trkpt><trkpt lat="45.4087503" lon="10.539874"><ele>133.0</ele><time>2026-04-23T11:03:51.825Z</time></trkpt><trkpt lat="45.4088305" lon="10.5398797"><ele>133.0</ele><time>2026-04-23T11:05:15.826Z</time></trkpt><trkpt lat="45.4089254" lon="10.5398722"><ele>133.0</ele><time>2026-04-23T11:05:26.821Z</time></trkpt><trkpt lat="45.4089691" lon="10.5399551"><ele>133.0</ele><time>2026-04-23T11:07:11.82Z</time></trkpt><trkpt lat="45.4090271" lon="10.5398899"><ele>133.0</ele><time>2026-04-23T11:09:23.813Z</time></trkpt><trkpt lat="45.4089574" lon="10.5398568"><ele>133.0</ele><time>2026-04-23T11:10:43.818Z</time></trkpt><trkpt lat="45.4090128" lon="10.539937"><ele>133.0</ele><time>2026-04-23T11:10:49.83Z</time></trkpt><trkpt lat="45.4089217" lon="10.5399322"><ele>133.0</ele><time>2026-04-23T11:11:18.824Z</time></trkpt><trkpt lat="45.4089221" lon="10.5398387"><ele>133.0</ele><time>2026-04-23T11:11:49.821Z</time></trkpt><trkpt lat="45.4089844" lon="10.5398147"><ele>133.0</ele><time>2026-04-23T11:12:27.825Z</time></trkpt><trkpt lat="45.4089966" lon="10.5397125"><ele>133.0</ele><time>2026-04-23T11:13:01.822Z</time></trkpt><trkpt lat="45.4089904" lon="10.5398054"><ele>133.0</ele><time>2026-04-23T11:13:17.821Z</time></trkpt><trkpt lat="45.4090662" lon="10.5397752"><ele>133.0</ele><time>2026-04-23T11:13:23.825Z</time></trkpt><trkpt lat="45.4090407" lon="10.5396918"><ele>133.0</ele><time>2026-04-23T11:13:52.82Z</time></trkpt><trkpt lat="45.4089696" lon="10.5396798"><ele>133.0</ele><time>2026-04-23T11:14:00.821Z</time></trkpt><trkpt lat="45.409042" lon="10.5397383"><ele>133.0</ele><time>2026-04-23T11:14:41.822Z</time></trkpt><trkpt lat="45.4089731" lon="10.5397966"><ele>133.0</ele><time>2026-04-23T11:14:54.822Z</time></trkpt><trkpt lat="45.4089259" lon="10.5398628"><ele>133.0</ele><time>2026-04-23T11:19:27.825Z</time></trkpt><trkpt lat="45.4089741" lon="10.5399315"><ele>133.0</ele><time>2026-04-23T11:19:40.82Z</time></trkpt><trkpt lat="45.4088918" lon="10.5399097"><ele>133.0</ele><time>2026-04-23T11:20:00.824Z</time></trkpt><trkpt lat="45.408988" lon="10.5398318"><ele>133.0</ele><time>2026-04-23T11:23:32.823Z</time></trkpt><trkpt lat="45.4089312" lon="10.5399101"><ele>133.0</ele><time>2026-04-23T11:25:51.822Z</time></trkpt><trkpt lat="45.4089825" lon="10.5398431"><ele>133.0</ele><time>2026-04-23T11:26:11.821Z</time></trkpt><trkpt lat="45.4090881" lon="10.5397678"><ele>133.0</ele><time>2026-04-23T11:26:22.828Z</time></trkpt><trkpt lat="45.4091247" lon="10.5396819"><ele>133.0</ele><time>2026-04-23T11:27:12.823Z</time></trkpt><trkpt lat="45.4090812" lon="10.5397521"><ele>133.0</ele><time>2026-04-23T11:27:39.821Z</time></trkpt><trkpt lat="45.4090174" lon="10.5397619"><ele>133.0</ele><time>2026-04-23T11:28:23.816Z</time></trkpt><trkpt lat="45.4089969" lon="10.5398484"><ele>133.0</ele><time>2026-04-23T11:28:44.826Z</time></trkpt><trkpt lat="45.4089492" lon="10.5399082"><ele>133.0</ele><time>2026-04-23T11:28:53.817Z</time></trkpt><trkpt lat="45.4088873" lon="10.5398808"><ele>133.0</ele><time>2026-04-23T11:28:59.828Z</time></trkpt><trkpt lat="45.408955" lon="10.5398117"><ele>133.0</ele><time>2026-04-23T11:29:34.819Z</time></trkpt><trkpt lat="45.4090139" lon="10.5398482"><ele>133.0</ele><time>2026-04-23T11:31:20.821Z</time></trkpt><trkpt lat="45.4091044" lon="10.5398143"><ele>133.0</ele><time>2026-04-23T11:31:54.821Z</time></trkpt><trkpt lat="45.4090403" lon="10.5398883"><ele>133.0</ele><time>2026-04-23T11:32:16.82Z</time></trkpt><trkpt lat="45.4090003" lon="10.5398041"><ele>133.0</ele><time>2026-04-23T11:33:20.825Z</time></trkpt><trkpt lat="45.4089446" lon="10.5397556"><ele>133.0</ele><time>2026-04-23T11:33:35.825Z</time></trkpt><trkpt lat="45.4088617" lon="10.5397438"><ele>133.0</ele><time>2026-04-23T11:33:48.819Z</time></trkpt><trkpt lat="45.4089275" lon="10.5397918"><ele>133.0</ele><time>2026-04-23T11:34:16.823Z</time></trkpt><trkpt lat="45.4088423" lon="10.5398189"><ele>133.0</ele><time>2026-04-23T11:34:26.828Z</time></trkpt><trkpt lat="45.4087778" lon="10.5398279"><ele>133.0</ele><time>2026-04-23T11:34:28.817Z</time></trkpt><trkpt lat="45.4088437" lon="10.5398331"><ele>133.0</ele><time>2026-04-23T11:35:29.828Z</time></trkpt><trkpt lat="45.4088946" lon="10.5398945"><ele>133.0</ele><time>2026-04-23T11:36:11.824Z</time></trkpt><trkpt lat="45.4088426" lon="10.5399497"><ele>133.0</ele><time>2026-04-23T11:37:09.821Z</time></trkpt><trkpt lat="45.4089285" lon="10.5399555"><ele>133.0</ele><time>2026-04-23T11:37:56.812Z</time></trkpt><trkpt lat="45.4088726" lon="10.5398897"><ele>133.0</ele><time>2026-04-23T11:38:35.83Z</time></trkpt><trkpt lat="45.4089332" lon="10.5398309"><ele>133.0</ele><time>2026-04-23T11:40:01.818Z</time></trkpt><trkpt lat="45.4088655" lon="10.5398363"><ele>133.0</ele><time>2026-04-23T11:40:24.828Z</time></trkpt><trkpt lat="45.4088026" lon="10.5398103"><ele>133.0</ele><time>2026-04-23T11:40:27.817Z</time></trkpt><trkpt lat="45.4088895" lon="10.539827"><ele>133.0</ele><time>2026-04-23T11:40:55.822Z</time></trkpt><trkpt lat="45.4089567" lon="10.5398783"><ele>133.0</ele><time>2026-04-23T11:42:36.82Z</time></trkpt><trkpt lat="45.4089005" lon="10.5399421"><ele>133.0</ele><time>2026-04-23T11:44:01.829Z</time></trkpt><trkpt lat="45.4089795" lon="10.539958"><ele>133.0</ele><time>2026-04-23T11:44:33.821Z</time></trkpt><trkpt lat="45.4090041" lon="10.5398742"><ele>133.0</ele><time>2026-04-23T11:47:29.816Z</time></trkpt><trkpt lat="45.4089384" lon="10.539856"><ele>133.0</ele><time>2026-04-23T11:47:42.826Z</time></trkpt><trkpt lat="45.4089297" lon="10.5399484"><ele>133.0</ele><time>2026-04-23T11:48:20.821Z</time></trkpt><trkpt lat="45.4088633" lon="10.5399435"><ele>133.0</ele><time>2026-04-23T11:49:36.823Z</time></trkpt><trkpt lat="45.4089429" lon="10.5399468"><ele>133.0</ele><time>2026-04-23T11:50:50.835Z</time></trkpt><trkpt lat="45.4088509" lon="10.5399798"><ele>133.0</ele><time>2026-04-23T11:51:06.824Z</time></trkpt><trkpt lat="45.4088245" lon="10.5400739"><ele>133.0</ele><time>2026-04-23T11:51:15.825Z</time></trkpt><trkpt lat="45.4087476" lon="10.5400717"><ele>133.0</ele><time>2026-04-23T11:51:20.822Z</time></trkpt><trkpt lat="45.4086717" lon="10.5400792"><ele>133.0</ele><time>2026-04-23T11:51:26.817Z</time></trkpt><trkpt lat="45.4087304" lon="10.540027"><ele>133.0</ele><time>2026-04-23T11:51:39.821Z</time></trkpt><trkpt lat="45.4087921" lon="10.5399882"><ele>133.0</ele><time>2026-04-23T11:51:57.834Z</time></trkpt><trkpt lat="45.4088484" lon="10.5399243"><ele>133.0</ele><time>2026-04-23T11:53:58.822Z</time></trkpt><trkpt lat="45.4088826" lon="10.5398443"><ele>133.0</ele><time>2026-04-23T11:54:06.826Z</time></trkpt><trkpt lat="45.4089121" lon="10.539933"><ele>133.0</ele><time>2026-04-23T11:56:12.817Z</time></trkpt><trkpt lat="45.4090144" lon="10.5398701"><ele>133.0</ele><time>2026-04-23T11:56:30.826Z</time></trkpt><trkpt lat="45.4089547" lon="10.5397856"><ele>133.0</ele><time>2026-04-23T11:56:54.817Z</time></trkpt><trkpt lat="45.4088926" lon="10.5397331"><ele>133.0</ele><time>2026-04-23T11:56:57.822Z</time></trkpt><trkpt lat="45.4089103" lon="10.5398272"><ele>133.0</ele><time>2026-04-23T11:57:28.826Z</time></trkpt><trkpt lat="45.4089509" lon="10.5399044"><ele>133.0</ele><time>2026-04-23T11:59:40.825Z</time></trkpt><trkpt lat="45.408886" lon="10.5398838"><ele>133.0</ele><time>2026-04-23T11:59:52.822Z</time></trkpt><trkpt lat="45.408817" lon="10.539869"><ele>133.0</ele><time>2026-04-23T12:00:09.818Z</time></trkpt><trkpt lat="45.4088861" lon="10.5398251"><ele>133.0</ele><time>2026-04-23T12:01:19.831Z</time></trkpt><trkpt lat="45.4088123" lon="10.5398406"><ele>133.0</ele><time>2026-04-23T12:01:45.82Z</time></trkpt><trkpt lat="45.4088482" lon="10.5397611"><ele>133.0</ele><time>2026-04-23T12:02:04.816Z</time></trkpt><trkpt lat="45.4088063" lon="10.5398378"><ele>133.0</ele><time>2026-04-23T12:03:11.829Z</time></trkpt><trkpt lat="45.4088954" lon="10.5398704"><ele>133.0</ele><time>2026-04-23T12:03:57.817Z</time></trkpt><trkpt lat="45.4089824" lon="10.5398317"><ele>133.0</ele><time>2026-04-23T12:06:36.826Z</time></trkpt><trkpt lat="45.4089231" lon="10.5397997"><ele>133.0</ele><time>2026-04-23T12:07:28.82Z</time></trkpt><trkpt lat="45.4088464" lon="10.5398079"><ele>133.0</ele><time>2026-04-23T12:07:44.819Z</time></trkpt><trkpt lat="45.4089216" lon="10.5398237"><ele>133.0</ele><time>2026-04-23T12:08:50.816Z</time></trkpt><trkpt lat="45.4088594" lon="10.5397783"><ele>133.0</ele><time>2026-04-23T12:11:02.725Z</time></trkpt><trkpt lat="45.4089255" lon="10.5397886"><ele>133.0</ele><time>2026-04-23T12:12:17.823Z</time></trkpt><trkpt lat="45.4089799" lon="10.5398571"><ele>133.0</ele><time>2026-04-23T12:13:06.824Z</time></trkpt><trkpt lat="45.4088796" lon="10.5398978"><ele>133.0</ele><time>2026-04-23T12:13:26.816Z</time></trkpt><trkpt lat="45.4088142" lon="10.5399333"><ele>133.0</ele><time>2026-04-23T12:14:01.827Z</time></trkpt><trkpt lat="45.4088722" lon="10.5398776"><ele>133.0</ele><time>2026-04-23T12:15:41.831Z</time></trkpt><trkpt lat="45.4089442" lon="10.5398109"><ele>133.0</ele><time>2026-04-23T12:22:59.822Z</time></trkpt><trkpt lat="45.4090145" lon="10.5397967"><ele>133.0</ele><time>2026-04-23T12:26:07.826Z</time></trkpt><trkpt lat="45.4089516" lon="10.5398354"><ele>133.0</ele><time>2026-04-23T12:28:03.824Z</time></trkpt><trkpt lat="45.4089995" lon="10.5397642"><ele>133.0</ele><time>2026-04-23T12:28:46.817Z</time></trkpt><trkpt lat="45.4090651" lon="10.5398267"><ele>133.0</ele><time>2026-04-23T12:39:19.827Z</time></trkpt><trkpt lat="45.4090022" lon="10.5398214"><ele>133.0</ele><time>2026-04-23T12:39:46.816Z</time></trkpt><trkpt lat="45.409074" lon="10.5398"><ele>133.0</ele><time>2026-04-23T12:40:01.826Z</time></trkpt><trkpt lat="45.409012" lon="10.5398617"><ele>133.0</ele><time>2026-04-23T12:41:01.825Z</time></trkpt><trkpt lat="45.4089421" lon="10.5398874"><ele>133.0</ele><time>2026-04-23T12:41:08.825Z</time></trkpt><trkpt lat="45.408995" lon="10.5398384"><ele>133.0</ele><time>2026-04-23T12:41:29.818Z</time></trkpt><trkpt lat="45.4089489" lon="10.5397323"><ele>133.0</ele><time>2026-04-23T12:42:08.817Z</time></trkpt><trkpt lat="45.4089283" lon="10.5398185"><ele>133.0</ele><time>2026-04-23T12:42:23.824Z</time></trkpt><trkpt lat="45.4088673" lon="10.5397536"><ele>133.0</ele><time>2026-04-23T12:43:38.814Z</time></trkpt><trkpt lat="45.4089394" lon="10.5397481"><ele>133.0</ele><time>2026-04-23T12:45:22.823Z</time></trkpt><trkpt lat="45.4089062" lon="10.5398253"><ele>133.0</ele><time>2026-04-23T12:47:09.823Z</time></trkpt><trkpt lat="45.4089774" lon="10.539839"><ele>133.0</ele><time>2026-04-23T12:47:17.822Z</time></trkpt><trkpt lat="45.4090338" lon="10.5397789"><ele>133.0</ele><time>2026-04-23T12:48:00.817Z</time></trkpt><trkpt lat="45.4089716" lon="10.5397613"><ele>133.0</ele><time>2026-04-23T12:48:34.814Z</time></trkpt><trkpt lat="45.4090316" lon="10.5396654"><ele>133.0</ele><time>2026-04-23T12:48:43.821Z</time></trkpt><trkpt lat="45.4089139" lon="10.5396333"><ele>133.0</ele><time>2026-04-23T12:48:54.827Z</time></trkpt><trkpt lat="45.4088545" lon="10.5396638"><ele>133.0</ele><time>2026-04-23T12:48:57.815Z</time></trkpt><trkpt lat="45.4088862" lon="10.5395804"><ele>133.0</ele><time>2026-04-23T12:49:02.825Z</time></trkpt><trkpt lat="45.4089698" lon="10.5395191"><ele>133.0</ele><time>2026-04-23T12:49:09.825Z</time></trkpt><trkpt lat="45.4090219" lon="10.5395723"><ele>133.0</ele><time>2026-04-23T12:49:28.826Z</time></trkpt><trkpt lat="45.4090209" lon="10.5396854"><ele>133.0</ele><time>2026-04-23T12:49:34.823Z</time></trkpt><trkpt lat="45.4089826" lon="10.5397697"><ele>133.0</ele><time>2026-04-23T12:49:41.822Z</time></trkpt><trkpt lat="45.4089627" lon="10.5398575"><ele>133.0</ele><time>2026-04-23T12:49:51.818Z</time></trkpt><trkpt lat="45.4088993" lon="10.5398434"><ele>133.0</ele><time>2026-04-23T12:49:55.818Z</time></trkpt><trkpt lat="45.408948" lon="10.5397698"><ele>133.0</ele><time>2026-04-23T12:50:35.815Z</time></trkpt><trkpt lat="45.4090517" lon="10.539783"><ele>133.0</ele><time>2026-04-23T12:51:05.817Z</time></trkpt><trkpt lat="45.4089917" lon="10.53982"><ele>133.0</ele><time>2026-04-23T12:51:59.819Z</time></trkpt><trkpt lat="45.4090641" lon="10.5398115"><ele>133.0</ele><time>2026-04-23T12:53:30.82Z</time></trkpt><trkpt lat="45.4090067" lon="10.5398513"><ele>133.0</ele><time>2026-04-23T12:54:07.826Z</time></trkpt><trkpt lat="45.408918" lon="10.5398805"><ele>133.0</ele><time>2026-04-23T12:55:22.817Z</time></trkpt><trkpt lat="45.4089418" lon="10.5397963"><ele>133.0</ele><time>2026-04-23T12:55:48.819Z</time></trkpt><trkpt lat="45.4090084" lon="10.5397942"><ele>133.0</ele><time>2026-04-23T12:56:43.825Z</time></trkpt><trkpt lat="45.4090685" lon="10.5397559"><ele>133.0</ele><time>2026-04-23T12:58:06.816Z</time></trkpt><trkpt lat="45.4090214" lon="10.5398258"><ele>133.0</ele><time>2026-04-23T13:00:41.823Z</time></trkpt><trkpt lat="45.4090933" lon="10.5398082"><ele>133.0</ele><time>2026-04-23T13:00:56.826Z</time></trkpt><trkpt lat="45.4090284" lon="10.5397727"><ele>133.0</ele><time>2026-04-23T13:02:36.819Z</time></trkpt><trkpt lat="45.4089768" lon="10.5398328"><ele>133.0</ele><time>2026-04-23T13:02:50.825Z</time></trkpt><trkpt lat="45.4090302" lon="10.5398833"><ele>133.0</ele><time>2026-04-23T13:03:19.819Z</time></trkpt><trkpt lat="45.409085" lon="10.5398018"><ele>133.0</ele><time>2026-04-23T13:03:58.815Z</time></trkpt><trkpt lat="45.4090167" lon="10.5398189"><ele>133.0</ele><time>2026-04-23T13:04:20.825Z</time></trkpt><trkpt lat="45.4090817" lon="10.5397722"><ele>133.0</ele><time>2026-04-23T13:05:31.827Z</time></trkpt><trkpt lat="45.4090091" lon="10.5398096"><ele>133.0</ele><time>2026-04-23T13:06:00.817Z</time></trkpt><trkpt lat="45.4090622" lon="10.5397402"><ele>133.0</ele><time>2026-04-23T13:06:49.82Z</time></trkpt><trkpt lat="45.4090144" lon="10.5398027"><ele>133.0</ele><time>2026-04-23T13:07:52.818Z</time></trkpt><trkpt lat="45.4090862" lon="10.5398111"><ele>133.0</ele><time>2026-04-23T13:10:21.816Z</time></trkpt><trkpt lat="45.4090333" lon="10.5397607"><ele>133.0</ele><time>2026-04-23T13:12:12.822Z</time></trkpt><trkpt lat="45.4090813" lon="10.5397018"><ele>133.0</ele><time>2026-04-23T13:12:20.824Z</time></trkpt><trkpt lat="45.4091481" lon="10.5397592"><ele>133.0</ele><time>2026-04-23T13:13:14.818Z</time></trkpt><trkpt lat="45.4090905" lon="10.5397188"><ele>133.0</ele><time>2026-04-23T13:13:36.818Z</time></trkpt><trkpt lat="45.409043" lon="10.5397809"><ele>133.0</ele><time>2026-04-23T13:13:49.825Z</time></trkpt><trkpt lat="45.4090979" lon="10.539838"><ele>133.0</ele><time>2026-04-23T13:15:12.822Z</time></trkpt><trkpt lat="45.4090888" lon="10.5397357"><ele>133.0</ele><time>2026-04-23T13:15:53.823Z</time></trkpt><trkpt lat="45.4090204" lon="10.5397216"><ele>133.0</ele><time>2026-04-23T13:16:09.822Z</time></trkpt><trkpt lat="45.409001" lon="10.5398092"><ele>133.0</ele><time>2026-04-23T13:16:42.825Z</time></trkpt><trkpt lat="45.4090347" lon="10.5398892"><ele>133.0</ele><time>2026-04-23T13:16:58.826Z</time></trkpt><trkpt lat="45.4089868" lon="10.5398203"><ele>133.0</ele><time>2026-04-23T13:17:35.818Z</time></trkpt><trkpt lat="45.4089951" lon="10.5397312"><ele>133.0</ele><time>2026-04-23T13:17:39.822Z</time></trkpt><trkpt lat="45.4090425" lon="10.5396702"><ele>133.0</ele><time>2026-04-23T13:17:52.819Z</time></trkpt><trkpt lat="45.4091003" lon="10.5396151"><ele>133.0</ele><time>2026-04-23T13:18:15.818Z</time></trkpt><trkpt lat="45.4090233" lon="10.5396103"><ele>133.0</ele><time>2026-04-23T13:20:05.827Z</time></trkpt><trkpt lat="45.4090399" lon="10.5397051"><ele>133.0</ele><time>2026-04-23T13:20:43.82Z</time></trkpt><trkpt lat="45.4089738" lon="10.5397453"><ele>133.0</ele><time>2026-04-23T13:21:04.827Z</time></trkpt><trkpt lat="45.4089118" lon="10.5397918"><ele>133.0</ele><time>2026-04-23T13:21:10.821Z</time></trkpt><trkpt lat="45.4088779" lon="10.539712"><ele>133.0</ele><time>2026-04-23T13:21:51.824Z</time></trkpt><trkpt lat="45.4090177" lon="10.5396475"><ele>133.0</ele><time>2026-04-23T13:22:13.816Z</time></trkpt><trkpt lat="45.4091149" lon="10.5396619"><ele>133.0</ele><time>2026-04-23T13:23:21.823Z</time></trkpt><trkpt lat="45.4090389" lon="10.539697"><ele>133.0</ele><time>2026-04-23T13:23:40.814Z</time></trkpt><trkpt lat="45.4091096" lon="10.5396767"><ele>133.0</ele><time>2026-04-23T13:23:50.816Z</time></trkpt><trkpt lat="45.4090442" lon="10.5397316"><ele>133.0</ele><time>2026-04-23T13:25:22.83Z</time></trkpt><trkpt lat="45.4089689" lon="10.5397384"><ele>133.0</ele><time>2026-04-23T13:25:55.827Z</time></trkpt><trkpt lat="45.4090372" lon="10.5398039"><ele>133.0</ele><time>2026-04-23T13:27:47.816Z</time></trkpt><trkpt lat="45.4091282" lon="10.5397666"><ele>133.0</ele><time>2026-04-23T13:29:08.815Z</time></trkpt><trkpt lat="45.4092403" lon="10.5397832"><ele>133.0</ele><time>2026-04-23T13:30:41.826Z</time></trkpt><trkpt lat="45.4092174" lon="10.5396971"><ele>133.0</ele><time>2026-04-23T13:31:17.822Z</time></trkpt><trkpt lat="45.4091553" lon="10.5397872"><ele>133.0</ele><time>2026-04-23T13:31:40.82Z</time></trkpt><trkpt lat="45.4090984" lon="10.5397091"><ele>133.0</ele><time>2026-04-23T13:32:22.819Z</time></trkpt><trkpt lat="45.4090267" lon="10.5396917"><ele>133.0</ele><time>2026-04-23T13:33:10.826Z</time></trkpt><trkpt lat="45.4089735" lon="10.539761"><ele>133.0</ele><time>2026-04-23T13:34:45.826Z</time></trkpt><trkpt lat="45.4090444" lon="10.5397833"><ele>133.0</ele><time>2026-04-23T13:35:31.818Z</time></trkpt><trkpt lat="45.4091192" lon="10.5397657"><ele>133.0</ele><time>2026-04-23T13:36:56.821Z</time></trkpt><trkpt lat="45.4090332" lon="10.5397636"><ele>133.0</ele><time>2026-04-23T13:38:20.816Z</time></trkpt><trkpt lat="45.4091017" lon="10.539735"><ele>133.0</ele><time>2026-04-23T13:40:38.824Z</time></trkpt><trkpt lat="45.4090652" lon="10.5396588"><ele>133.0</ele><time>2026-04-23T13:41:36.816Z</time></trkpt><trkpt lat="45.4089932" lon="10.5396915"><ele>133.0</ele><time>2026-04-23T13:42:38.823Z</time></trkpt><trkpt lat="45.4089233" lon="10.539765"><ele>133.0</ele><time>2026-04-23T13:45:06.821Z</time></trkpt><trkpt lat="45.4090067" lon="10.5397717"><ele>133.0</ele><time>2026-04-23T13:46:47.816Z</time></trkpt><trkpt lat="45.4089295" lon="10.5398344"><ele>133.0</ele><time>2026-04-23T13:50:49.82Z</time></trkpt><trkpt lat="45.4089261" lon="10.5397415"><ele>133.0</ele><time>2026-04-23T13:52:28.817Z</time></trkpt><trkpt lat="45.4087963" lon="10.5397696"><ele>133.0</ele><time>2026-04-23T13:52:59.824Z</time></trkpt><trkpt lat="45.4087294" lon="10.5397968"><ele>133.0</ele><time>2026-04-23T13:53:17.824Z</time></trkpt><trkpt lat="45.4087908" lon="10.5398228"><ele>133.0</ele><time>2026-04-23T13:53:29.819Z</time></trkpt><trkpt lat="45.4088545" lon="10.5398377"><ele>133.0</ele><time>2026-04-23T13:53:36.818Z</time></trkpt><trkpt lat="45.4089416" lon="10.5398406"><ele>133.0</ele><time>2026-04-23T13:53:47.821Z</time></trkpt><trkpt lat="45.4090084" lon="10.5398463"><ele>133.0</ele><time>2026-04-23T13:53:55.824Z</time></trkpt><trkpt lat="45.4089558" lon="10.5397927"><ele>133.0</ele><time>2026-04-23T13:54:01.815Z</time></trkpt><trkpt lat="45.4088912" lon="10.5397621"><ele>133.0</ele><time>2026-04-23T13:54:30.826Z</time></trkpt><trkpt lat="45.409035" lon="10.53978"><ele>133.0</ele><time>2026-04-23T13:56:14.817Z</time></trkpt><trkpt lat="45.4089567" lon="10.5397613"><ele>133.0</ele><time>2026-04-23T13:56:31.824Z</time></trkpt><trkpt lat="45.4088793" lon="10.5398094"><ele>133.0</ele><time>2026-04-23T13:56:45.824Z</time></trkpt><trkpt lat="45.408983" lon="10.5397885"><ele>133.0</ele><time>2026-04-23T13:57:34.822Z</time></trkpt><trkpt lat="45.4090823" lon="10.5398122"><ele>133.0</ele><time>2026-04-23T14:00:32.819Z</time></trkpt><trkpt lat="45.4090247" lon="10.5397659"><ele>133.0</ele><time>2026-04-23T14:01:45.817Z</time></trkpt><trkpt lat="45.4089733" lon="10.5398483"><ele>133.0</ele><time>2026-04-23T14:07:26.817Z</time></trkpt><trkpt lat="45.4090789" lon="10.5397971"><ele>133.0</ele><time>2026-04-23T14:13:22.819Z</time></trkpt><trkpt lat="45.409038" lon="10.5398664"><ele>133.0</ele><time>2026-04-23T14:13:43.817Z</time></trkpt><trkpt lat="45.4089622" lon="10.5398584"><ele>133.0</ele><time>2026-04-23T14:14:02.824Z</time></trkpt><trkpt lat="45.4089258" lon="10.5397631"><ele>133.0</ele><time>2026-04-23T14:16:51.817Z</time></trkpt><trkpt lat="45.4088729" lon="10.5396944"><ele>133.0</ele><time>2026-04-23T14:17:12.817Z</time></trkpt><trkpt lat="45.4090105" lon="10.5397867"><ele>133.0</ele><time>2026-04-23T14:17:23.818Z</time></trkpt><trkpt lat="45.4090823" lon="10.5398113"><ele>133.0</ele><time>2026-04-23T14:17:24.82Z</time></trkpt><trkpt lat="45.4090281" lon="10.5397461"><ele>133.0</ele><time>2026-04-23T14:17:32.817Z</time></trkpt><trkpt lat="45.4089649" lon="10.5397929"><ele>133.0</ele><time>2026-04-23T14:20:56.812Z</time></trkpt><trkpt lat="45.4090487" lon="10.5398203"><ele>133.0</ele><time>2026-04-23T14:20:59.815Z</time></trkpt><trkpt lat="45.4089834" lon="10.5397901"><ele>133.0</ele><time>2026-04-23T14:21:14.822Z</time></trkpt><trkpt lat="45.4089117" lon="10.5397301"><ele>133.0</ele><time>2026-04-23T14:21:23.828Z</time></trkpt><trkpt lat="45.4089062" lon="10.5396406"><ele>133.0</ele><time>2026-04-23T14:21:28.811Z</time></trkpt><trkpt lat="45.4089836" lon="10.5397025"><ele>133.0</ele><time>2026-04-23T14:22:01.826Z</time></trkpt><trkpt lat="45.4090969" lon="10.5397655"><ele>133.0</ele><time>2026-04-23T14:23:28.816Z</time></trkpt><trkpt lat="45.4090362" lon="10.5397937"><ele>133.0</ele><time>2026-04-23T14:24:03.816Z</time></trkpt><trkpt lat="45.4089784" lon="10.5397261"><ele>133.0</ele><time>2026-04-23T14:24:57.817Z</time></trkpt><trkpt lat="45.4090233" lon="10.5397959"><ele>133.0</ele><time>2026-04-23T14:27:19.824Z</time></trkpt><trkpt lat="45.4089858" lon="10.539873"><ele>133.0</ele><time>2026-04-23T14:30:08.815Z</time></trkpt><trkpt lat="45.409061" lon="10.5397971"><ele>133.0</ele><time>2026-04-23T14:31:37.82Z</time></trkpt><trkpt lat="45.4091215" lon="10.5397269"><ele>133.0</ele><time>2026-04-23T14:31:45.818Z</time></trkpt><trkpt lat="45.409047" lon="10.5397247"><ele>133.0</ele><time>2026-04-23T14:31:58.824Z</time></trkpt><trkpt lat="45.4089846" lon="10.5397619"><ele>133.0</ele><time>2026-04-23T14:32:02.817Z</time></trkpt><trkpt lat="45.4089659" lon="10.5396744"><ele>133.0</ele><time>2026-04-23T14:32:26.817Z</time></trkpt><trkpt lat="45.409066" lon="10.5396417"><ele>133.0</ele><time>2026-04-23T14:32:35.818Z</time></trkpt><trkpt lat="45.4090167" lon="10.5397081"><ele>133.0</ele><time>2026-04-23T14:32:53.82Z</time></trkpt><trkpt lat="45.4089025" lon="10.539807"><ele>133.0</ele><time>2026-04-23T14:33:10.823Z</time></trkpt><trkpt lat="45.4089526" lon="10.5397331"><ele>133.0</ele><time>2026-04-23T14:33:32.817Z</time></trkpt><trkpt lat="45.4090236" lon="10.5397085"><ele>133.0</ele><time>2026-04-23T14:33:48.819Z</time></trkpt><trkpt lat="45.409087" lon="10.5396441"><ele>133.0</ele><time>2026-04-23T14:34:19.816Z</time></trkpt><trkpt lat="45.4090341" lon="10.5397122"><ele>133.0</ele><time>2026-04-23T14:34:29.818Z</time></trkpt><trkpt lat="45.409098" lon="10.5396865"><ele>133.0</ele><time>2026-04-23T14:34:49.826Z</time></trkpt><trkpt lat="45.4091389" lon="10.5395926"><ele>133.0</ele><time>2026-04-23T14:34:56.817Z</time></trkpt><trkpt lat="45.4090573" lon="10.539678"><ele>133.0</ele><time>2026-04-23T14:35:45.826Z</time></trkpt><trkpt lat="45.4089926" lon="10.5397444"><ele>133.0</ele><time>2026-04-23T14:35:47.816Z</time></trkpt><trkpt lat="45.4089438" lon="10.5398039"><ele>133.0</ele><time>2026-04-23T14:35:56.823Z</time></trkpt><trkpt lat="45.4089121" lon="10.5399007"><ele>133.0</ele><time>2026-04-23T14:36:04.821Z</time></trkpt><trkpt lat="45.408992" lon="10.5398978"><ele>133.0</ele><time>2026-04-23T14:36:20.818Z</time></trkpt><trkpt lat="45.4089495" lon="10.5398107"><ele>133.0</ele><time>2026-04-23T14:36:53.817Z</time></trkpt><trkpt lat="45.4088818" lon="10.5397973"><ele>133.0</ele><time>2026-04-23T14:37:17.821Z</time></trkpt><trkpt lat="45.4089479" lon="10.5398293"><ele>133.0</ele><time>2026-04-23T14:37:30.817Z</time></trkpt><trkpt lat="45.4090874" lon="10.5398406"><ele>133.0</ele><time>2026-04-23T14:39:13.824Z</time></trkpt><trkpt lat="45.4090223" lon="10.5398436"><ele>133.0</ele><time>2026-04-23T14:39:36.814Z</time></trkpt><trkpt lat="45.4089587" lon="10.5398429"><ele>133.0</ele><time>2026-04-23T14:39:38.825Z</time></trkpt><trkpt lat="45.4088938" lon="10.539857"><ele>133.0</ele><time>2026-04-23T14:39:42.817Z</time></trkpt><trkpt lat="45.4089328" lon="10.53977"><ele>133.0</ele><time>2026-04-23T14:40:22.824Z</time></trkpt><trkpt lat="45.4088927" lon="10.5396972"><ele>133.0</ele><time>2026-04-23T14:41:02.824Z</time></trkpt><trkpt lat="45.4088377" lon="10.5397431"><ele>133.0</ele><time>2026-04-23T14:41:12.818Z</time></trkpt><trkpt lat="45.4089076" lon="10.5397343"><ele>133.0</ele><time>2026-04-23T14:41:25.812Z</time></trkpt><trkpt lat="45.4089263" lon="10.5398475"><ele>133.0</ele><time>2026-04-23T14:41:44.819Z</time></trkpt><trkpt lat="45.4088345" lon="10.5399367"><ele>133.0</ele><time>2026-04-23T14:41:48.821Z</time></trkpt><trkpt lat="45.4087733" lon="10.5399071"><ele>133.0</ele><time>2026-04-23T14:41:53.816Z</time></trkpt><trkpt lat="45.4089094" lon="10.5397282"><ele>133.0</ele><time>2026-04-23T14:41:58.827Z</time></trkpt><trkpt lat="45.4090046" lon="10.5397215"><ele>133.0</ele><time>2026-04-23T14:42:09.818Z</time></trkpt><trkpt lat="45.409054" lon="10.5397958"><ele>133.0</ele><time>2026-04-23T14:42:32.825Z</time></trkpt><trkpt lat="45.4090317" lon="10.5398941"><ele>133.0</ele><time>2026-04-23T14:42:40.824Z</time></trkpt><trkpt lat="45.4089804" lon="10.5398316"><ele>133.0</ele><time>2026-04-23T14:42:55.828Z</time></trkpt><trkpt lat="45.4090463" lon="10.5398009"><ele>133.0</ele><time>2026-04-23T14:44:49.821Z</time></trkpt><trkpt lat="45.4089768" lon="10.5398222"><ele>133.0</ele><time>2026-04-23T14:45:12.824Z</time></trkpt><trkpt lat="45.4090458" lon="10.5398014"><ele>133.0</ele><time>2026-04-23T14:45:47.82Z</time></trkpt><trkpt lat="45.4091406" lon="10.5398226"><ele>133.0</ele><time>2026-04-23T14:45:56.814Z</time></trkpt><trkpt lat="45.4090832" lon="10.5398651"><ele>133.0</ele><time>2026-04-23T14:46:15.811Z</time></trkpt><trkpt lat="45.4090199" lon="10.5398875"><ele>133.0</ele><time>2026-04-23T14:46:21.817Z</time></trkpt><trkpt lat="45.408959" lon="10.5398549"><ele>133.0</ele><time>2026-04-23T14:46:29.817Z</time></trkpt><trkpt lat="45.4088828" lon="10.5397773"><ele>133.0</ele><time>2026-04-23T14:47:24.818Z</time></trkpt><trkpt lat="45.4088409" lon="10.5397017"><ele>133.0</ele><time>2026-04-23T14:47:29.824Z</time></trkpt><trkpt lat="45.4089103" lon="10.5396974"><ele>133.0</ele><time>2026-04-23T14:47:49.827Z</time></trkpt><trkpt lat="45.4090141" lon="10.5397009"><ele>133.0</ele><time>2026-04-23T14:48:31.819Z</time></trkpt><trkpt lat="45.408927" lon="10.5397076"><ele>133.0</ele><time>2026-04-23T14:49:24.819Z</time></trkpt><trkpt lat="45.4089785" lon="10.5397673"><ele>133.0</ele><time>2026-04-23T14:50:01.818Z</time></trkpt><trkpt lat="45.4090354" lon="10.5398414"><ele>133.0</ele><time>2026-04-23T14:50:04.82Z</time></trkpt><trkpt lat="45.4089628" lon="10.5397547"><ele>133.0</ele><time>2026-04-23T14:50:26.816Z</time></trkpt><trkpt lat="45.4090048" lon="10.5398333"><ele>133.0</ele><time>2026-04-23T14:51:10.819Z</time></trkpt><trkpt lat="45.4090828" lon="10.5397812"><ele>133.0</ele><time>2026-04-23T14:51:15.816Z</time></trkpt><trkpt lat="45.4090978" lon="10.5398779"><ele>133.0</ele><time>2026-04-23T14:51:54.82Z</time></trkpt><trkpt lat="45.4090398" lon="10.5398316"><ele>133.0</ele><time>2026-04-23T14:52:17.822Z</time></trkpt><trkpt lat="45.4089752" lon="10.5398234"><ele>133.0</ele><time>2026-04-23T14:52:39.823Z</time></trkpt><trkpt lat="45.4089092" lon="10.5398174"><ele>133.0</ele><time>2026-04-23T14:55:21.819Z</time></trkpt><trkpt lat="45.408992" lon="10.5398352"><ele>133.0</ele><time>2026-04-23T14:55:51.815Z</time></trkpt><trkpt lat="45.4090477" lon="10.5398815"><ele>133.0</ele><time>2026-04-23T14:56:13.827Z</time></trkpt><trkpt lat="45.4090798" lon="10.5397991"><ele>133.0</ele><time>2026-04-23T14:56:26.824Z</time></trkpt><trkpt lat="45.4090317" lon="10.5397382"><ele>133.0</ele><time>2026-04-23T14:56:33.815Z</time></trkpt><trkpt lat="45.40896" lon="10.5397592"><ele>133.0</ele><time>2026-04-23T14:56:49.815Z</time></trkpt><trkpt lat="45.408889" lon="10.5397598"><ele>133.0</ele><time>2026-04-23T14:57:24.825Z</time></trkpt><trkpt lat="45.4090076" lon="10.5397632"><ele>133.0</ele><time>2026-04-23T14:59:25.819Z</time></trkpt><trkpt lat="45.408944" lon="10.5397705"><ele>133.0</ele><time>2026-04-23T15:00:27.816Z</time></trkpt><trkpt lat="45.409013" lon="10.5397693"><ele>133.0</ele><time>2026-04-23T15:01:04.822Z</time></trkpt><trkpt lat="45.4089641" lon="10.5398397"><ele>133.0</ele><time>2026-04-23T15:01:40.819Z</time></trkpt><trkpt lat="45.4090139" lon="10.5397568"><ele>133.0</ele><time>2026-04-23T15:03:36.815Z</time></trkpt><trkpt lat="45.4089894" lon="10.5396463"><ele>133.0</ele><time>2026-04-23T15:03:58.826Z</time></trkpt><trkpt lat="45.4089244" lon="10.5396213"><ele>133.0</ele><time>2026-04-23T15:04:04.823Z</time></trkpt><trkpt lat="45.4088624" lon="10.5396493"><ele>133.0</ele><time>2026-04-23T15:04:09.818Z</time></trkpt><trkpt lat="45.4089176" lon="10.5397095"><ele>133.0</ele><time>2026-04-23T15:04:14.825Z</time></trkpt><trkpt lat="45.4089633" lon="10.5398269"><ele>133.0</ele><time>2026-04-23T15:04:19.825Z</time></trkpt><trkpt lat="45.4090236" lon="10.5397698"><ele>133.0</ele><time>2026-04-23T15:04:56.868Z</time></trkpt><trkpt lat="45.409101" lon="10.5397868"><ele>133.0</ele><time>2026-04-23T15:05:03.824Z</time></trkpt><trkpt lat="45.409036" lon="10.539817"><ele>133.0</ele><time>2026-04-23T15:05:11.82Z</time></trkpt><trkpt lat="45.4089672" lon="10.539812"><ele>133.0</ele><time>2026-04-23T15:05:14.817Z</time></trkpt><trkpt lat="45.4090102" lon="10.5397377"><ele>133.0</ele><time>2026-04-23T15:05:47.822Z</time></trkpt><trkpt lat="45.4089641" lon="10.5396564"><ele>133.0</ele><time>2026-04-23T15:05:52.823Z</time></trkpt><trkpt lat="45.408921" lon="10.5397284"><ele>133.0</ele><time>2026-04-23T15:05:59.824Z</time></trkpt><trkpt lat="45.4088804" lon="10.5396154"><ele>133.0</ele><time>2026-04-23T15:06:01.822Z</time></trkpt><trkpt lat="45.4089011" lon="10.5397923"><ele>133.0</ele><time>2026-04-23T15:06:05.821Z</time></trkpt><trkpt lat="45.4088966" lon="10.5398875"><ele>133.0</ele><time>2026-04-23T15:06:07.827Z</time></trkpt><trkpt lat="45.4089581" lon="10.5399139"><ele>133.0</ele><time>2026-04-23T15:06:27.818Z</time></trkpt><trkpt lat="45.4089656" lon="10.5397962"><ele>133.0</ele><time>2026-04-23T15:06:40.822Z</time></trkpt><trkpt lat="45.4088901" lon="10.5398216"><ele>133.0</ele><time>2026-04-23T15:07:10.824Z</time></trkpt><trkpt lat="45.4089755" lon="10.5398359"><ele>133.0</ele><time>2026-04-23T15:08:24.822Z</time></trkpt><trkpt lat="45.409058" lon="10.5398701"><ele>133.0</ele><time>2026-04-23T15:08:30.815Z</time></trkpt><trkpt lat="45.4089795" lon="10.5398204"><ele>133.0</ele><time>2026-04-23T15:09:16.811Z</time></trkpt><trkpt lat="45.4090308" lon="10.5397539"><ele>133.0</ele><time>2026-04-23T15:13:04.808Z</time></trkpt><trkpt lat="45.4089761" lon="10.5398185"><ele>133.0</ele><time>2026-04-23T15:13:12.809Z</time></trkpt><trkpt lat="45.4090585" lon="10.5397981"><ele>133.0</ele><time>2026-04-23T15:14:05.825Z</time></trkpt><trkpt lat="45.4089893" lon="10.5398872"><ele>133.0</ele><time>2026-04-23T15:14:18.813Z</time></trkpt><trkpt lat="45.4090199" lon="10.5397891"><ele>133.0</ele><time>2026-04-23T15:14:23.818Z</time></trkpt><trkpt lat="45.4089446" lon="10.5397586"><ele>133.0</ele><time>2026-04-23T15:14:37.822Z</time></trkpt><trkpt lat="45.4089116" lon="10.5398533"><ele>133.0</ele><time>2026-04-23T15:14:46.82Z</time></trkpt><trkpt lat="45.4089141" lon="10.5397478"><ele>133.0</ele><time>2026-04-23T15:15:03.815Z</time></trkpt><trkpt lat="45.408979" lon="10.5396545"><ele>133.0</ele><time>2026-04-23T15:15:05.819Z</time></trkpt><trkpt lat="45.4089098" lon="10.5396478"><ele>133.0</ele><time>2026-04-23T15:15:25.819Z</time></trkpt><trkpt lat="45.4088586" lon="10.5397018"><ele>133.0</ele><time>2026-04-23T15:15:33.818Z</time></trkpt><trkpt lat="45.4088508" lon="10.5395992"><ele>133.0</ele><time>2026-04-23T15:15:57.813Z</time></trkpt><trkpt lat="45.4088493" lon="10.5397008"><ele>133.0</ele><time>2026-04-23T15:16:33.817Z</time></trkpt><trkpt lat="45.4088963" lon="10.5396387"><ele>133.0</ele><time>2026-04-23T15:17:20.818Z</time></trkpt><trkpt lat="45.4089448" lon="10.539723"><ele>133.0</ele><time>2026-04-23T15:18:41.814Z</time></trkpt><trkpt lat="45.4090011" lon="10.5396461"><ele>133.0</ele><time>2026-04-23T15:19:00.825Z</time></trkpt><trkpt lat="45.4089278" lon="10.5396759"><ele>133.0</ele><time>2026-04-23T15:19:50.819Z</time></trkpt><trkpt lat="45.4088581" lon="10.5397195"><ele>133.0</ele><time>2026-04-23T15:19:54.813Z</time></trkpt><trkpt lat="45.4087909" lon="10.5396638"><ele>133.0</ele><time>2026-04-23T15:20:01.816Z</time></trkpt><trkpt lat="45.4087758" lon="10.5395748"><ele>133.0</ele><time>2026-04-23T15:20:08.813Z</time></trkpt><trkpt lat="45.408837" lon="10.5396837"><ele>133.0</ele><time>2026-04-23T15:20:42.812Z</time></trkpt><trkpt lat="45.4088942" lon="10.5397299"><ele>133.0</ele><time>2026-04-23T15:20:43.814Z</time></trkpt><trkpt lat="45.4089576" lon="10.539761"><ele>133.0</ele><time>2026-04-23T15:20:58.816Z</time></trkpt><trkpt lat="45.408929" lon="10.5396745"><ele>133.0</ele><time>2026-04-23T15:21:22.815Z</time></trkpt><trkpt lat="45.4089654" lon="10.5396009"><ele>133.0</ele><time>2026-04-23T15:23:22.82Z</time></trkpt><trkpt lat="45.4089005" lon="10.5396116"><ele>133.0</ele><time>2026-04-23T15:23:27.82Z</time></trkpt><trkpt lat="45.4088202" lon="10.5395644"><ele>133.0</ele><time>2026-04-23T15:25:28.813Z</time></trkpt><trkpt lat="45.408898" lon="10.53954"><ele>133.0</ele><time>2026-04-23T15:25:31.817Z</time></trkpt><trkpt lat="45.4090318" lon="10.5399111"><ele>128.5</ele><time>2026-04-23T15:26:24.708Z</time></trkpt><trkpt lat="45.4087595" lon="10.539485"><ele>124.0</ele><time>2026-04-23T15:27:59.6Z</time></trkpt><trkpt lat="45.4087683" lon="10.5396103"><ele>124.0</ele><time>2026-04-23T15:28:02.807Z</time></trkpt><trkpt lat="45.4087638" lon="10.539709"><ele>124.0</ele><time>2026-04-23T15:28:10.815Z</time></trkpt><trkpt lat="45.408902" lon="10.5397463"><ele>124.0</ele><time>2026-04-23T15:28:32.806Z</time></trkpt><trkpt lat="45.4088568" lon="10.5398283"><ele>124.0</ele><time>2026-04-23T15:28:42.806Z</time></trkpt><trkpt lat="45.4090222" lon="10.5398347"><ele>124.0</ele><time>2026-04-23T15:29:02.814Z</time></trkpt><trkpt lat="45.4089418" lon="10.5399466"><ele>124.0</ele><time>2026-04-23T15:29:07.808Z</time></trkpt><trkpt lat="45.4090328" lon="10.5399171"><ele>124.0</ele><time>2026-04-23T15:29:23.197Z</time></trkpt><trkpt lat="45.4091764" lon="10.5399017"><ele>124.0</ele><time>2026-04-23T15:30:03.811Z</time></trkpt><trkpt lat="45.409089" lon="10.5399576"><ele>124.0</ele><time>2026-04-23T15:30:04.801Z</time></trkpt><trkpt lat="45.4090379" lon="10.5399044"><ele>124.0</ele><time>2026-04-23T15:30:05.818Z</time></trkpt><trkpt lat="45.4087505" lon="10.5397686"><ele>128.5</ele><time>2026-04-23T15:30:08.82Z</time></trkpt><trkpt lat="45.4090374" lon="10.5398867"><ele>133.0</ele><time>2026-04-23T15:30:36.954Z</time></trkpt><trkpt lat="45.4088423" lon="10.5398668"><ele>133.0</ele><time>2026-04-23T15:31:08.811Z</time></trkpt><trkpt lat="45.4089097" lon="10.5399819"><ele>133.0</ele><time>2026-04-23T15:31:11.82Z</time></trkpt><trkpt lat="45.408998" lon="10.5399782"><ele>133.0</ele><time>2026-04-23T15:32:10.813Z</time></trkpt><trkpt lat="45.4087361" lon="10.5397489"><ele>133.0</ele><time>2026-04-23T15:32:37.817Z</time></trkpt><trkpt lat="45.4090099" lon="10.5398438"><ele>133.0</ele><time>2026-04-23T15:32:48.811Z</time></trkpt><trkpt lat="45.4092478" lon="10.5399109"><ele>133.0</ele><time>2026-04-23T15:32:51.812Z</time></trkpt><trkpt lat="45.4090874" lon="10.5398577"><ele>133.0</ele><time>2026-04-23T15:32:52.801Z</time></trkpt><trkpt lat="45.4089169" lon="10.5398104"><ele>133.0</ele><time>2026-04-23T15:32:56.816Z</time></trkpt><trkpt lat="45.4090417" lon="10.53986"><ele>133.0</ele><time>2026-04-23T15:33:09.814Z</time></trkpt><trkpt lat="45.4089155" lon="10.5398193"><ele>133.0</ele><time>2026-04-23T15:33:24.822Z</time></trkpt><trkpt lat="45.4088628" lon="10.5397302"><ele>133.0</ele><time>2026-04-23T15:33:30.815Z</time></trkpt><trkpt lat="45.4088166" lon="10.5397984"><ele>133.0</ele><time>2026-04-23T15:33:50.813Z</time></trkpt><trkpt lat="45.4088687" lon="10.5398667"><ele>133.0</ele><time>2026-04-23T15:34:17.827Z</time></trkpt><trkpt lat="45.4087956" lon="10.5398479"><ele>133.0</ele><time>2026-04-23T15:34:44.818Z</time></trkpt><trkpt lat="45.4089203" lon="10.5398681"><ele>133.0</ele><time>2026-04-23T15:35:15.82Z</time></trkpt><trkpt lat="45.4089597" lon="10.5397917"><ele>133.0</ele><time>2026-04-23T15:36:06.818Z</time></trkpt><trkpt lat="45.4089134" lon="10.5398684"><ele>133.0</ele><time>2026-04-23T15:36:45.815Z</time></trkpt><trkpt lat="45.408911" lon="10.5397674"><ele>133.0</ele><time>2026-04-23T15:37:08.815Z</time></trkpt><trkpt lat="45.4089081" lon="10.5398607"><ele>133.0</ele><time>2026-04-23T15:38:16.82Z</time></trkpt><trkpt lat="45.4089412" lon="10.5397805"><ele>133.0</ele><time>2026-04-23T15:38:38.812Z</time></trkpt><trkpt lat="45.4090143" lon="10.5397158"><ele>133.0</ele><time>2026-04-23T15:39:00.809Z</time></trkpt><trkpt lat="45.4090738" lon="10.5396757"><ele>133.0</ele><time>2026-04-23T15:39:42.818Z</time></trkpt><trkpt lat="45.4090499" lon="10.539789"><ele>133.0</ele><time>2026-04-23T15:39:59.821Z</time></trkpt><trkpt lat="45.4090078" lon="10.5398848"><ele>133.0</ele><time>2026-04-23T15:40:03.817Z</time></trkpt><trkpt lat="45.4089388" lon="10.5398794"><ele>133.0</ele><time>2026-04-23T15:40:21.81Z</time></trkpt><trkpt lat="45.4090109" lon="10.5398754"><ele>133.0</ele><time>2026-04-23T15:44:02.812Z</time></trkpt><trkpt lat="45.4089877" lon="10.5399687"><ele>133.0</ele><time>2026-04-23T15:44:27.815Z</time></trkpt><trkpt lat="45.408985" lon="10.5398709"><ele>133.0</ele><time>2026-04-23T15:44:41.812Z</time></trkpt><trkpt lat="45.4089495" lon="10.5397911"><ele>133.0</ele><time>2026-04-23T15:44:52.817Z</time></trkpt><trkpt lat="45.4088963" lon="10.5399326"><ele>133.0</ele><time>2026-04-23T15:47:05.812Z</time></trkpt><trkpt lat="45.4089219" lon="10.5398459"><ele>133.0</ele><time>2026-04-23T15:47:26.809Z</time></trkpt><trkpt lat="45.4090022" lon="10.5398153"><ele>133.0</ele><time>2026-04-23T15:47:38.817Z</time></trkpt><trkpt lat="45.4089699" lon="10.5399058"><ele>133.0</ele><time>2026-04-23T15:47:58.811Z</time></trkpt><trkpt lat="45.408989" lon="10.5398059"><ele>133.0</ele><time>2026-04-23T15:49:02.801Z</time></trkpt><trkpt lat="45.4090139" lon="10.5397122"><ele>133.0</ele><time>2026-04-23T15:49:12.819Z</time></trkpt><trkpt lat="45.4090655" lon="10.5396291"><ele>133.0</ele><time>2026-04-23T15:50:06.812Z</time></trkpt><trkpt lat="45.4089934" lon="10.5396941"><ele>133.0</ele><time>2026-04-23T15:50:13.823Z</time></trkpt><trkpt lat="45.4090195" lon="10.5395949"><ele>133.0</ele><time>2026-04-23T15:50:24.804Z</time></trkpt><trkpt lat="45.4089701" lon="10.5396883"><ele>133.0</ele><time>2026-04-23T15:50:31.812Z</time></trkpt><trkpt lat="45.4089297" lon="10.5397622"><ele>133.0</ele><time>2026-04-23T15:50:32.812Z</time></trkpt><trkpt lat="45.4088833" lon="10.5398296"><ele>133.0</ele><time>2026-04-23T15:50:50.818Z</time></trkpt><trkpt lat="45.4089239" lon="10.5399513"><ele>133.0</ele><time>2026-04-23T15:51:38.816Z</time></trkpt><trkpt lat="45.4089428" lon="10.5398466"><ele>133.0</ele><time>2026-04-23T15:52:00.812Z</time></trkpt><trkpt lat="45.4088851" lon="10.5397576"><ele>133.0</ele><time>2026-04-23T15:52:14.82Z</time></trkpt><trkpt lat="45.4088856" lon="10.5398535"><ele>133.0</ele><time>2026-04-23T15:52:33.811Z</time></trkpt><trkpt lat="45.4089315" lon="10.5399196"><ele>133.0</ele><time>2026-04-23T15:53:05.816Z</time></trkpt><trkpt lat="45.4089915" lon="10.5398607"><ele>133.0</ele><time>2026-04-23T15:53:19.821Z</time></trkpt><trkpt lat="45.4090151" lon="10.539749"><ele>133.0</ele><time>2026-04-23T15:53:21.82Z</time></trkpt><trkpt lat="45.4090345" lon="10.5398382"><ele>133.0</ele><time>2026-04-23T15:54:07.812Z</time></trkpt><trkpt lat="45.4090094" lon="10.5397472"><ele>133.0</ele><time>2026-04-23T15:54:43.811Z</time></trkpt><trkpt lat="45.4089823" lon="10.5398346"><ele>133.0</ele><time>2026-04-23T15:55:06.816Z</time></trkpt><trkpt lat="45.4089285" lon="10.5399094"><ele>133.0</ele><time>2026-04-23T15:55:15.82Z</time></trkpt><trkpt lat="45.408882" lon="10.5400111"><ele>133.0</ele><time>2026-04-23T15:56:40.816Z</time></trkpt><trkpt lat="45.408815" lon="10.5400898"><ele>133.0</ele><time>2026-04-23T15:56:45.814Z</time></trkpt><trkpt lat="45.4088647" lon="10.5399176"><ele>133.0</ele><time>2026-04-23T15:56:57.819Z</time></trkpt><trkpt lat="45.408913" lon="10.5398397"><ele>133.0</ele><time>2026-04-23T15:57:00.822Z</time></trkpt><trkpt lat="45.4088689" lon="10.5399647"><ele>133.0</ele><time>2026-04-23T15:57:07.812Z</time></trkpt><trkpt lat="45.4089091" lon="10.5398561"><ele>133.0</ele><time>2026-04-23T15:57:16.81Z</time></trkpt><trkpt lat="45.4089503" lon="10.5397807"><ele>133.0</ele><time>2026-04-23T15:57:23.819Z</time></trkpt><trkpt lat="45.4088861" lon="10.5399044"><ele>133.0</ele><time>2026-04-23T15:57:41.815Z</time></trkpt><trkpt lat="45.4088292" lon="10.5400296"><ele>133.0</ele><time>2026-04-23T15:57:49.818Z</time></trkpt><trkpt lat="45.4087583" lon="10.540104"><ele>133.0</ele><time>2026-04-23T15:57:51.816Z</time></trkpt><trkpt lat="45.4086865" lon="10.5401176"><ele>133.0</ele><time>2026-04-23T15:58:05.816Z</time></trkpt><trkpt lat="45.4087483" lon="10.540083"><ele>133.0</ele><time>2026-04-23T15:58:08.819Z</time></trkpt><trkpt lat="45.4088241" lon="10.5400568"><ele>133.0</ele><time>2026-04-23T15:58:17.82Z</time></trkpt><trkpt lat="45.4088758" lon="10.5400056"><ele>133.0</ele><time>2026-04-23T15:58:37.813Z</time></trkpt><trkpt lat="45.4089177" lon="10.5400866"><ele>133.0</ele><time>2026-04-23T15:59:34.812Z</time></trkpt><trkpt lat="45.4089078" lon="10.5402176"><ele>133.0</ele><time>2026-04-23T15:59:36.812Z</time></trkpt><trkpt lat="45.4089662" lon="10.5401643"><ele>133.0</ele><time>2026-04-23T15:59:44.816Z</time></trkpt><trkpt lat="45.4089488" lon="10.5400405"><ele>133.0</ele><time>2026-04-23T15:59:59.813Z</time></trkpt><trkpt lat="45.4089661" lon="10.5399266"><ele>133.0</ele><time>2026-04-23T16:00:05.813Z</time></trkpt><trkpt lat="45.4089787" lon="10.5398108"><ele>133.0</ele><time>2026-04-23T16:00:48.815Z</time></trkpt><trkpt lat="45.4089561" lon="10.5398946"><ele>133.0</ele><time>2026-04-23T16:02:39.819Z</time></trkpt><trkpt lat="45.4088827" lon="10.5398893"><ele>133.0</ele><time>2026-04-23T16:03:05.815Z</time></trkpt><trkpt lat="45.4089344" lon="10.5398188"><ele>133.0</ele><time>2026-04-23T16:03:26.82Z</time></trkpt><trkpt lat="45.4089604" lon="10.5399261"><ele>133.0</ele><time>2026-04-23T16:04:20.814Z</time></trkpt><trkpt lat="45.4089272" lon="10.5398491"><ele>133.0</ele><time>2026-04-23T16:05:12.818Z</time></trkpt><trkpt lat="45.4088932" lon="10.5399319"><ele>133.0</ele><time>2026-04-23T16:05:47.812Z</time></trkpt><trkpt lat="45.4089492" lon="10.5398834"><ele>133.0</ele><time>2026-04-23T16:06:35.813Z</time></trkpt><trkpt lat="45.408991" lon="10.5398124"><ele>133.0</ele><time>2026-04-23T16:06:48.828Z</time></trkpt><trkpt lat="45.4089383" lon="10.5397624"><ele>133.0</ele><time>2026-04-23T16:06:56.822Z</time></trkpt><trkpt lat="45.408862" lon="10.5397667"><ele>133.0</ele><time>2026-04-23T16:07:00.81Z</time></trkpt><trkpt lat="45.4088533" lon="10.5398599"><ele>133.0</ele><time>2026-04-23T16:07:04.812Z</time></trkpt><trkpt lat="45.4088244" lon="10.5397799"><ele>133.0</ele><time>2026-04-23T16:07:33.81Z</time></trkpt><trkpt lat="45.4087967" lon="10.5396747"><ele>133.0</ele><time>2026-04-23T16:07:57.811Z</time></trkpt><trkpt lat="45.4088873" lon="10.5396714"><ele>133.0</ele><time>2026-04-23T16:08:32.813Z</time></trkpt><trkpt lat="45.408926" lon="10.5397427"><ele>133.0</ele><time>2026-04-23T16:08:40.809Z</time></trkpt><trkpt lat="45.4089572" lon="10.5398227"><ele>133.0</ele><time>2026-04-23T16:10:49.814Z</time></trkpt><trkpt lat="45.4088885" lon="10.5397409"><ele>133.0</ele><time>2026-04-23T16:11:26.814Z</time></trkpt><trkpt lat="45.4088164" lon="10.5397059"><ele>133.0</ele><time>2026-04-23T16:11:30.814Z</time></trkpt><trkpt lat="45.4088527" lon="10.5397838"><ele>133.0</ele><time>2026-04-23T16:11:41.819Z</time></trkpt><trkpt lat="45.4089276" lon="10.5398148"><ele>133.0</ele><time>2026-04-23T16:12:40.822Z</time></trkpt><trkpt lat="45.4089546" lon="10.5397014"><ele>133.0</ele><time>2026-04-23T16:13:08.81Z</time></trkpt><trkpt lat="45.4089449" lon="10.5397927"><ele>133.0</ele><time>2026-04-23T16:14:00.816Z</time></trkpt><trkpt lat="45.4090129" lon="10.539784"><ele>133.0</ele><time>2026-04-23T16:14:43.824Z</time></trkpt><trkpt lat="45.4089506" lon="10.5398261"><ele>133.0</ele><time>2026-04-23T16:16:19.818Z</time></trkpt><trkpt lat="45.4089311" lon="10.539915"><ele>133.0</ele><time>2026-04-23T16:19:36.824Z</time></trkpt><trkpt lat="45.4089802" lon="10.5398504"><ele>133.0</ele><time>2026-04-23T16:19:48.81Z</time></trkpt><trkpt lat="45.4089136" lon="10.5398229"><ele>133.0</ele><time>2026-04-23T16:20:24.81Z</time></trkpt><trkpt lat="45.4088797" lon="10.5399161"><ele>133.0</ele><time>2026-04-23T16:21:48.814Z</time></trkpt><trkpt lat="45.4089322" lon="10.5398661"><ele>133.0</ele><time>2026-04-23T16:22:07.811Z</time></trkpt><trkpt lat="45.4089917" lon="10.5398217"><ele>133.0</ele><time>2026-04-23T16:22:37.819Z</time></trkpt><trkpt lat="45.4089173" lon="10.5398332"><ele>133.0</ele><time>2026-04-23T16:29:27.813Z</time></trkpt><trkpt lat="45.4088853" lon="10.5397244"><ele>133.0</ele><time>2026-04-23T16:29:38.813Z</time></trkpt><trkpt lat="45.4089751" lon="10.5397402"><ele>133.0</ele><time>2026-04-23T16:30:01.81Z</time></trkpt><trkpt lat="45.409013" lon="10.5398317"><ele>133.0</ele><time>2026-04-23T16:30:06.82Z</time></trkpt><trkpt lat="45.409016" lon="10.5397285"><ele>133.0</ele><time>2026-04-23T16:30:18.81Z</time></trkpt><trkpt lat="45.4089545" lon="10.5397527"><ele>133.0</ele><time>2026-04-23T16:30:47.813Z</time></trkpt><trkpt lat="45.4089825" lon="10.5398379"><ele>133.0</ele><time>2026-04-23T16:31:21.818Z</time></trkpt><trkpt lat="45.4089167" lon="10.5397875"><ele>133.0</ele><time>2026-04-23T16:31:30.815Z</time></trkpt><trkpt lat="45.4088357" lon="10.5397083"><ele>133.0</ele><time>2026-04-23T16:31:32.815Z</time></trkpt><trkpt lat="45.408774" lon="10.5396726"><ele>133.0</ele><time>2026-04-23T16:31:35.823Z</time></trkpt><trkpt lat="45.4088316" lon="10.539723"><ele>133.0</ele><time>2026-04-23T16:31:43.825Z</time></trkpt><trkpt lat="45.4088973" lon="10.5397056"><ele>133.0</ele><time>2026-04-23T16:33:01.803Z</time></trkpt><trkpt lat="45.4089293" lon="10.5397874"><ele>133.0</ele><time>2026-04-23T16:34:57.811Z</time></trkpt><trkpt lat="45.4089097" lon="10.5398809"><ele>133.0</ele><time>2026-04-23T16:35:03.82Z</time></trkpt><trkpt lat="45.4089643" lon="10.5398187"><ele>133.0</ele><time>2026-04-23T16:35:29.812Z</time></trkpt><trkpt lat="45.4089782" lon="10.5397238"><ele>133.0</ele><time>2026-04-23T16:35:49.818Z</time></trkpt><trkpt lat="45.4090678" lon="10.5396557"><ele>133.0</ele><time>2026-04-23T16:37:17.822Z</time></trkpt><trkpt lat="45.4090389" lon="10.5397451"><ele>133.0</ele><time>2026-04-23T16:38:19.818Z</time></trkpt><trkpt lat="45.4089815" lon="10.5397879"><ele>133.0</ele><time>2026-04-23T16:38:36.811Z</time></trkpt><trkpt lat="45.4089382" lon="10.5398642"><ele>133.0</ele><time>2026-04-23T16:38:55.814Z</time></trkpt><trkpt lat="45.4090074" lon="10.5398171"><ele>133.0</ele><time>2026-04-23T16:43:31.815Z</time></trkpt><trkpt lat="45.4089982" lon="10.5397276"><ele>133.0</ele><time>2026-04-23T16:43:48.809Z</time></trkpt><trkpt lat="45.4089382" lon="10.5397673"><ele>133.0</ele><time>2026-04-23T16:45:00.808Z</time></trkpt><trkpt lat="45.4088743" lon="10.5398017"><ele>133.0</ele><time>2026-04-23T16:45:37.819Z</time></trkpt><trkpt lat="45.4089509" lon="10.5398306"><ele>133.0</ele><time>2026-04-23T16:46:27.816Z</time></trkpt><trkpt lat="45.4089701" lon="10.5399224"><ele>133.0</ele><time>2026-04-23T16:47:48.819Z</time></trkpt><trkpt lat="45.4090748" lon="10.5399816"><ele>133.0</ele><time>2026-04-23T16:48:46.807Z</time></trkpt><trkpt lat="45.4090172" lon="10.5399176"><ele>133.0</ele><time>2026-04-23T16:49:32.808Z</time></trkpt><trkpt lat="45.4089483" lon="10.5399846"><ele>133.0</ele><time>2026-04-23T16:49:50.805Z</time></trkpt><trkpt lat="45.4089624" lon="10.5398956"><ele>133.0</ele><time>2026-04-23T16:50:18.817Z</time></trkpt><trkpt lat="45.4089812" lon="10.5398089"><ele>133.0</ele><time>2026-04-23T16:50:38.807Z</time></trkpt><trkpt lat="45.408905" lon="10.5397717"><ele>133.0</ele><time>2026-04-23T16:51:00.811Z</time></trkpt><trkpt lat="45.4089761" lon="10.539818"><ele>133.0</ele><time>2026-04-23T16:52:47.812Z</time></trkpt><trkpt lat="45.4089324" lon="10.5398949"><ele>133.0</ele><time>2026-04-23T16:53:16.819Z</time></trkpt><trkpt lat="45.4089903" lon="10.5398268"><ele>133.0</ele><time>2026-04-23T16:53:42.813Z</time></trkpt><trkpt lat="45.4089725" lon="10.5397382"><ele>133.0</ele><time>2026-04-23T16:54:04.817Z</time></trkpt><trkpt lat="45.4089101" lon="10.5397813"><ele>133.0</ele><time>2026-04-23T16:54:11.818Z</time></trkpt><trkpt lat="45.4089648" lon="10.5397048"><ele>133.0</ele><time>2026-04-23T16:55:02.807Z</time></trkpt><trkpt lat="45.4089917" lon="10.5398008"><ele>133.0</ele><time>2026-04-23T16:55:31.812Z</time></trkpt><trkpt lat="45.409041" lon="10.5396929"><ele>133.0</ele><time>2026-04-23T16:56:47.817Z</time></trkpt><trkpt lat="45.4090242" lon="10.5397949"><ele>133.0</ele><time>2026-04-23T16:57:22.812Z</time></trkpt><trkpt lat="45.4089606" lon="10.5398014"><ele>133.0</ele><time>2026-04-23T16:58:28.81Z</time></trkpt><trkpt lat="45.4089843" lon="10.5397174"><ele>133.0</ele><time>2026-04-23T16:58:42.814Z</time></trkpt><trkpt lat="45.409039" lon="10.5396703"><ele>133.0</ele><time>2026-04-23T16:58:52.817Z</time></trkpt><trkpt lat="45.4089862" lon="10.539727"><ele>133.0</ele><time>2026-04-23T17:01:38.813Z</time></trkpt><trkpt lat="45.4090319" lon="10.5396611"><ele>133.0</ele><time>2026-04-23T17:03:17.815Z</time></trkpt><trkpt lat="45.4089663" lon="10.5396892"><ele>133.0</ele><time>2026-04-23T17:04:12.812Z</time></trkpt><trkpt lat="45.409013" lon="10.539757"><ele>133.0</ele><time>2026-04-23T17:04:49.818Z</time></trkpt><trkpt lat="45.4089715" lon="10.5398351"><ele>133.0</ele><time>2026-04-23T17:06:04.815Z</time></trkpt><trkpt lat="45.4089317" lon="10.5397599"><ele>133.0</ele><time>2026-04-23T17:06:41.811Z</time></trkpt><trkpt lat="45.4088738" lon="10.5398063"><ele>133.0</ele><time>2026-04-23T17:07:02.812Z</time></trkpt><trkpt lat="45.4089167" lon="10.5398721"><ele>133.0</ele><time>2026-04-23T17:07:17.818Z</time></trkpt><trkpt lat="45.4089312" lon="10.5397804"><ele>133.0</ele><time>2026-04-23T17:07:54.812Z</time></trkpt><trkpt lat="45.4088639" lon="10.5398203"><ele>133.0</ele><time>2026-04-23T17:08:09.811Z</time></trkpt><trkpt lat="45.4088369" lon="10.5399262"><ele>133.0</ele><time>2026-04-23T17:08:58.81Z</time></trkpt><trkpt lat="45.4088933" lon="10.5400014"><ele>133.0</ele><time>2026-04-23T17:09:07.813Z</time></trkpt><trkpt lat="45.4089544" lon="10.5399038"><ele>133.0</ele><time>2026-04-23T17:09:25.818Z</time></trkpt><trkpt lat="45.4089887" lon="10.5398201"><ele>133.0</ele><time>2026-04-23T17:09:39.812Z</time></trkpt><trkpt lat="45.4089128" lon="10.5398098"><ele>133.0</ele><time>2026-04-23T17:09:56.811Z</time></trkpt><trkpt lat="45.4089237" lon="10.5399104"><ele>133.0</ele><time>2026-04-23T17:10:17.814Z</time></trkpt><trkpt lat="45.4088545" lon="10.5399266"><ele>133.0</ele><time>2026-04-23T17:10:23.816Z</time></trkpt><trkpt lat="45.4089194" lon="10.5398686"><ele>133.0</ele><time>2026-04-23T17:10:30.811Z</time></trkpt><trkpt lat="45.4088557" lon="10.5399052"><ele>133.0</ele><time>2026-04-23T17:10:51.81Z</time></trkpt><trkpt lat="45.4088155" lon="10.540002"><ele>133.0</ele><time>2026-04-23T17:11:00.816Z</time></trkpt><trkpt lat="45.4088823" lon="10.5399569"><ele>133.0</ele><time>2026-04-23T17:11:18.811Z</time></trkpt><trkpt lat="45.4089875" lon="10.5399489"><ele>133.0</ele><time>2026-04-23T17:11:26.809Z</time></trkpt><trkpt lat="45.4090141" lon="10.5398486"><ele>133.0</ele><time>2026-04-23T17:11:37.818Z</time></trkpt><trkpt lat="45.4089981" lon="10.5397369"><ele>133.0</ele><time>2026-04-23T17:11:42.81Z</time></trkpt><trkpt lat="45.4090346" lon="10.5396379"><ele>133.0</ele><time>2026-04-23T17:11:46.813Z</time></trkpt><trkpt lat="45.409067" lon="10.5395456"><ele>133.0</ele><time>2026-04-23T17:11:48.812Z</time></trkpt><trkpt lat="45.4090929" lon="10.53945"><ele>133.0</ele><time>2026-04-23T17:11:57.815Z</time></trkpt><trkpt lat="45.4090401" lon="10.5395093"><ele>133.0</ele><time>2026-04-23T17:12:32.812Z</time></trkpt><trkpt lat="45.4090263" lon="10.5396084"><ele>133.0</ele><time>2026-04-23T17:12:37.818Z</time></trkpt><trkpt lat="45.4090057" lon="10.539698"><ele>133.0</ele><time>2026-04-23T17:12:41.81Z</time></trkpt><trkpt lat="45.40894" lon="10.5396734"><ele>133.0</ele><time>2026-04-23T17:12:44.821Z</time></trkpt><trkpt lat="45.4090086" lon="10.5396726"><ele>133.0</ele><time>2026-04-23T17:13:12.807Z</time></trkpt><trkpt lat="45.4090192" lon="10.5397613"><ele>133.0</ele><time>2026-04-23T17:13:36.81Z</time></trkpt><trkpt lat="45.4091013" lon="10.5398237"><ele>133.0</ele><time>2026-04-23T17:13:58.817Z</time></trkpt><trkpt lat="45.409119" lon="10.539918"><ele>133.0</ele><time>2026-04-23T17:14:14.818Z</time></trkpt><trkpt lat="45.4090488" lon="10.5399142"><ele>133.0</ele><time>2026-04-23T17:14:29.817Z</time></trkpt><trkpt lat="45.4090081" lon="10.5398241"><ele>133.0</ele><time>2026-04-23T17:14:37.815Z</time></trkpt><trkpt lat="45.4089549" lon="10.5397725"><ele>133.0</ele><time>2026-04-23T17:15:01.818Z</time></trkpt><trkpt lat="45.4089296" lon="10.5398636"><ele>133.0</ele><time>2026-04-23T17:15:12.814Z</time></trkpt><trkpt lat="45.4089128" lon="10.5397656"><ele>133.0</ele><time>2026-04-23T17:15:26.818Z</time></trkpt><trkpt lat="45.4088613" lon="10.5397111"><ele>133.0</ele><time>2026-04-23T17:15:32.809Z</time></trkpt><trkpt lat="45.408799" lon="10.5397674"><ele>133.0</ele><time>2026-04-23T17:15:40.808Z</time></trkpt><trkpt lat="45.4088626" lon="10.5398051"><ele>133.0</ele><time>2026-04-23T17:15:57.808Z</time></trkpt><trkpt lat="45.4089238" lon="10.5398776"><ele>133.0</ele><time>2026-04-23T17:16:03.815Z</time></trkpt><trkpt lat="45.4088612" lon="10.5399612"><ele>133.0</ele><time>2026-04-23T17:16:11.815Z</time></trkpt><trkpt lat="45.4088084" lon="10.5401373"><ele>133.0</ele><time>2026-04-23T17:16:30.809Z</time></trkpt><trkpt lat="45.4088836" lon="10.5400756"><ele>133.0</ele><time>2026-04-23T17:16:44.808Z</time></trkpt><trkpt lat="45.4089341" lon="10.54"><ele>133.0</ele><time>2026-04-23T17:16:46.815Z</time></trkpt><trkpt lat="45.4089813" lon="10.5399361"><ele>133.0</ele><time>2026-04-23T17:16:52.801Z</time></trkpt><trkpt lat="45.4090515" lon="10.5398607"><ele>133.0</ele><time>2026-04-23T17:17:11.816Z</time></trkpt><trkpt lat="45.4090992" lon="10.5397751"><ele>133.0</ele><time>2026-04-23T17:17:24.81Z</time></trkpt><trkpt lat="45.409013" lon="10.5398189"><ele>133.0</ele><time>2026-04-23T17:17:28.807Z</time></trkpt><trkpt lat="45.4090506" lon="10.5397126"><ele>133.0</ele><time>2026-04-23T17:17:44.815Z</time></trkpt><trkpt lat="45.4090003" lon="10.5397739"><ele>133.0</ele><time>2026-04-23T17:17:58.809Z</time></trkpt><trkpt lat="45.408913" lon="10.5397199"><ele>133.0</ele><time>2026-04-23T17:18:36.814Z</time></trkpt><trkpt lat="45.408919" lon="10.5398481"><ele>133.0</ele><time>2026-04-23T17:19:02.806Z</time></trkpt><trkpt lat="45.4089828" lon="10.5398651"><ele>133.0</ele><time>2026-04-23T17:19:55.819Z</time></trkpt><trkpt lat="45.4089061" lon="10.5398648"><ele>133.0</ele><time>2026-04-23T17:20:54.812Z</time></trkpt><trkpt lat="45.4089213" lon="10.5397618"><ele>133.0</ele><time>2026-04-23T17:21:00.816Z</time></trkpt><trkpt lat="45.4089906" lon="10.539833"><ele>133.0</ele><time>2026-04-23T17:24:19.808Z</time></trkpt><trkpt lat="45.4089702" lon="10.5397399"><ele>133.0</ele><time>2026-04-23T17:26:01.817Z</time></trkpt><trkpt lat="45.4089506" lon="10.5398375"><ele>133.0</ele><time>2026-04-23T17:26:17.814Z</time></trkpt><trkpt lat="45.4088945" lon="10.5399086"><ele>133.0</ele><time>2026-04-23T17:26:29.809Z</time></trkpt><trkpt lat="45.4089257" lon="10.5398296"><ele>133.0</ele><time>2026-04-23T17:27:09.808Z</time></trkpt><trkpt lat="45.4090272" lon="10.5398519"><ele>133.0</ele><time>2026-04-23T17:27:39.812Z</time></trkpt><trkpt lat="45.4090768" lon="10.5397956"><ele>133.0</ele><time>2026-04-23T17:27:59.809Z</time></trkpt><trkpt lat="45.4090866" lon="10.5397028"><ele>133.0</ele><time>2026-04-23T17:28:04.811Z</time></trkpt><trkpt lat="45.4090053" lon="10.5397164"><ele>133.0</ele><time>2026-04-23T17:28:11.813Z</time></trkpt><trkpt lat="45.4089707" lon="10.5396374"><ele>133.0</ele><time>2026-04-23T17:28:20.815Z</time></trkpt><trkpt lat="45.4089616" lon="10.5397276"><ele>133.0</ele><time>2026-04-23T17:28:40.81Z</time></trkpt><trkpt lat="45.4089581" lon="10.5398209"><ele>133.0</ele><time>2026-04-23T17:32:25.818Z</time></trkpt><trkpt lat="45.4088918" lon="10.5398215"><ele>133.0</ele><time>2026-04-23T17:33:44.807Z</time></trkpt><trkpt lat="45.4088308" lon="10.5398721"><ele>133.0</ele><time>2026-04-23T17:35:04.806Z</time></trkpt><trkpt lat="45.408798" lon="10.5399523"><ele>133.0</ele><time>2026-04-23T17:35:19.812Z</time></trkpt><trkpt lat="45.4088576" lon="10.5399162"><ele>133.0</ele><time>2026-04-23T17:35:34.814Z</time></trkpt><trkpt lat="45.4089634" lon="10.5398402"><ele>133.0</ele><time>2026-04-23T17:36:50.814Z</time></trkpt><trkpt lat="45.408882" lon="10.5398251"><ele>133.0</ele><time>2026-04-23T17:37:13.815Z</time></trkpt><trkpt lat="45.4090074" lon="10.5398036"><ele>133.0</ele><time>2026-04-23T17:37:47.807Z</time></trkpt><trkpt lat="45.4090783" lon="10.5397778"><ele>133.0</ele><time>2026-04-23T17:37:48.807Z</time></trkpt><trkpt lat="45.4090207" lon="10.539833"><ele>133.0</ele><time>2026-04-23T17:37:52.813Z</time></trkpt><trkpt lat="45.4090823" lon="10.5397889"><ele>133.0</ele><time>2026-04-23T17:38:08.807Z</time></trkpt><trkpt lat="45.4090184" lon="10.5397887"><ele>133.0</ele><time>2026-04-23T17:38:16.808Z</time></trkpt><trkpt lat="45.4089419" lon="10.5398057"><ele>133.0</ele><time>2026-04-23T17:38:19.812Z</time></trkpt><trkpt lat="45.4088795" lon="10.5398307"><ele>133.0</ele><time>2026-04-23T17:38:21.806Z</time></trkpt><trkpt lat="45.4089421" lon="10.5397827"><ele>133.0</ele><time>2026-04-23T17:38:24.807Z</time></trkpt><trkpt lat="45.4088818" lon="10.5397492"><ele>133.0</ele><time>2026-04-23T17:38:41.809Z</time></trkpt><trkpt lat="45.4088253" lon="10.539792"><ele>133.0</ele><time>2026-04-23T17:38:42.814Z</time></trkpt><trkpt lat="45.4087627" lon="10.5398155"><ele>133.0</ele><time>2026-04-23T17:38:44.8Z</time></trkpt><trkpt lat="45.4088415" lon="10.5398371"><ele>133.0</ele><time>2026-04-23T17:38:58.806Z</time></trkpt><trkpt lat="45.4089715" lon="10.539748"><ele>133.0</ele><time>2026-04-23T17:39:00.806Z</time></trkpt><trkpt lat="45.4089556" lon="10.5398428"><ele>133.0</ele><time>2026-04-23T17:39:29.81Z</time></trkpt><trkpt lat="45.4090242" lon="10.5399132"><ele>133.0</ele><time>2026-04-23T17:39:44.808Z</time></trkpt><trkpt lat="45.4089277" lon="10.5399692"><ele>133.0</ele><time>2026-04-23T17:39:56.809Z</time></trkpt><trkpt lat="45.4088132" lon="10.5399747"><ele>133.0</ele><time>2026-04-23T17:39:58.81Z</time></trkpt><trkpt lat="45.4088716" lon="10.5400182"><ele>133.0</ele><time>2026-04-23T17:40:08.81Z</time></trkpt><trkpt lat="45.4089633" lon="10.5400415"><ele>133.0</ele><time>2026-04-23T17:40:15.808Z</time></trkpt><trkpt lat="45.4090272" lon="10.5400239"><ele>133.0</ele><time>2026-04-23T17:40:21.805Z</time></trkpt><trkpt lat="45.409089" lon="10.5399999"><ele>133.0</ele><time>2026-04-23T17:40:31.817Z</time></trkpt><trkpt lat="45.4090818" lon="10.5398795"><ele>133.0</ele><time>2026-04-23T17:40:36.81Z</time></trkpt><trkpt lat="45.4090385" lon="10.5397969"><ele>133.0</ele><time>2026-04-23T17:40:56.815Z</time></trkpt><trkpt lat="45.4089754" lon="10.5398483"><ele>133.0</ele><time>2026-04-23T17:41:25.812Z</time></trkpt><trkpt lat="45.409046" lon="10.5398593"><ele>133.0</ele><time>2026-04-23T17:42:04.801Z</time></trkpt><trkpt lat="45.4089811" lon="10.5399235"><ele>133.0</ele><time>2026-04-23T17:42:48.807Z</time></trkpt><trkpt lat="45.4090669" lon="10.5399072"><ele>133.0</ele><time>2026-04-23T17:43:00.818Z</time></trkpt><trkpt lat="45.40912" lon="10.5398455"><ele>133.0</ele><time>2026-04-23T17:43:10.809Z</time></trkpt><trkpt lat="45.4091873" lon="10.5397786"><ele>133.0</ele><time>2026-04-23T17:43:19.808Z</time></trkpt><trkpt lat="45.409123" lon="10.5397622"><ele>133.0</ele><time>2026-04-23T17:43:34.811Z</time></trkpt><trkpt lat="45.4090576" lon="10.5398156"><ele>133.0</ele><time>2026-04-23T17:44:09.807Z</time></trkpt><trkpt lat="45.4091247" lon="10.5398049"><ele>133.0</ele><time>2026-04-23T17:45:05.807Z</time></trkpt><trkpt lat="45.4090595" lon="10.5397621"><ele>133.0</ele><time>2026-04-23T17:45:17.813Z</time></trkpt><trkpt lat="45.4091281" lon="10.5397114"><ele>133.0</ele><time>2026-04-23T17:45:27.813Z</time></trkpt><trkpt lat="45.4091038" lon="10.5397964"><ele>133.0</ele><time>2026-04-23T17:46:17.812Z</time></trkpt><trkpt lat="45.4090218" lon="10.5398357"><ele>133.0</ele><time>2026-04-23T17:46:28.807Z</time></trkpt><trkpt lat="45.4090807" lon="10.5397975"><ele>133.0</ele><time>2026-04-23T17:46:53.808Z</time></trkpt><trkpt lat="45.4091479" lon="10.5397686"><ele>133.0</ele><time>2026-04-23T17:47:35.822Z</time></trkpt><trkpt lat="45.4091481" lon="10.5396675"><ele>133.0</ele><time>2026-04-23T17:48:09.809Z</time></trkpt><trkpt lat="45.4091226" lon="10.5397539"><ele>133.0</ele><time>2026-04-23T17:48:50.802Z</time></trkpt><trkpt lat="45.4090613" lon="10.5397931"><ele>133.0</ele><time>2026-04-23T17:49:09.812Z</time></trkpt><trkpt lat="45.4090294" lon="10.5398743"><ele>133.0</ele><time>2026-04-23T17:49:39.807Z</time></trkpt><trkpt lat="45.4089658" lon="10.5398402"><ele>133.0</ele><time>2026-04-23T17:50:06.809Z</time></trkpt><trkpt lat="45.4088783" lon="10.5398722"><ele>133.0</ele><time>2026-04-23T17:50:34.806Z</time></trkpt><trkpt lat="45.4089348" lon="10.5398308"><ele>133.0</ele><time>2026-04-23T17:50:54.82Z</time></trkpt><trkpt lat="45.4088745" lon="10.5397679"><ele>133.0</ele><time>2026-04-23T17:51:20.808Z</time></trkpt><trkpt lat="45.4089548" lon="10.5397783"><ele>133.0</ele><time>2026-04-23T17:51:49.817Z</time></trkpt><trkpt lat="45.4090475" lon="10.539762"><ele>133.0</ele><time>2026-04-23T17:52:05.811Z</time></trkpt><trkpt lat="45.4090793" lon="10.5396523"><ele>133.0</ele><time>2026-04-23T17:52:11.804Z</time></trkpt><trkpt lat="45.4089829" lon="10.5397388"><ele>133.0</ele><time>2026-04-23T17:52:31.815Z</time></trkpt><trkpt lat="45.4089215" lon="10.5398586"><ele>133.0</ele><time>2026-04-23T17:52:41.809Z</time></trkpt><trkpt lat="45.4089802" lon="10.5398952"><ele>133.0</ele><time>2026-04-23T17:52:49.815Z</time></trkpt><trkpt lat="45.4089193" lon="10.5398541"><ele>133.0</ele><time>2026-04-23T17:53:08.809Z</time></trkpt><trkpt lat="45.4088586" lon="10.5398054"><ele>133.0</ele><time>2026-04-23T17:53:30.811Z</time></trkpt><trkpt lat="45.4087745" lon="10.539803"><ele>133.0</ele><time>2026-04-23T17:53:43.819Z</time></trkpt><trkpt lat="45.4088311" lon="10.5399145"><ele>133.0</ele><time>2026-04-23T17:53:59.811Z</time></trkpt><trkpt lat="45.4088975" lon="10.5398977"><ele>133.0</ele><time>2026-04-23T17:54:13.81Z</time></trkpt><trkpt lat="45.4089681" lon="10.5398909"><ele>133.0</ele><time>2026-04-23T17:54:17.811Z</time></trkpt><trkpt lat="45.4090234" lon="10.5398383"><ele>133.0</ele><time>2026-04-23T17:54:23.815Z</time></trkpt><trkpt lat="45.4089983" lon="10.5397454"><ele>133.0</ele><time>2026-04-23T17:54:43.81Z</time></trkpt><trkpt lat="45.4089299" lon="10.5398187"><ele>133.0</ele><time>2026-04-23T17:54:59.82Z</time></trkpt><trkpt lat="45.4088428" lon="10.5398471"><ele>133.0</ele><time>2026-04-23T17:55:01.811Z</time></trkpt><trkpt lat="45.4087692" lon="10.5398664"><ele>133.0</ele><time>2026-04-23T17:55:02.81Z</time></trkpt><trkpt lat="45.4088626" lon="10.5398917"><ele>133.0</ele><time>2026-04-23T17:55:38.816Z</time></trkpt><trkpt lat="45.408793" lon="10.5399048"><ele>133.0</ele><time>2026-04-23T17:55:56.815Z</time></trkpt><trkpt lat="45.4088879" lon="10.5398334"><ele>133.0</ele><time>2026-04-23T17:56:41.806Z</time></trkpt><trkpt lat="45.4087653" lon="10.5399089"><ele>133.0</ele><time>2026-04-23T17:57:03.806Z</time></trkpt><trkpt lat="45.4086807" lon="10.5399729"><ele>133.0</ele><time>2026-04-23T17:57:06.804Z</time></trkpt><trkpt lat="45.408723" lon="10.539905"><ele>133.0</ele><time>2026-04-23T17:57:16.813Z</time></trkpt><trkpt lat="45.4087906" lon="10.5398986"><ele>133.0</ele><time>2026-04-23T17:57:56.817Z</time></trkpt><trkpt lat="45.4088599" lon="10.5398193"><ele>133.0</ele><time>2026-04-23T17:58:11.812Z</time></trkpt><trkpt lat="45.4089431" lon="10.539767"><ele>133.0</ele><time>2026-04-23T17:58:26.807Z</time></trkpt><trkpt lat="45.4088879" lon="10.5398235"><ele>133.0</ele><time>2026-04-23T17:58:36.808Z</time></trkpt><trkpt lat="45.4089631" lon="10.539741"><ele>133.0</ele><time>2026-04-23T17:58:50.809Z</time></trkpt><trkpt lat="45.4089995" lon="10.5398439"><ele>133.0</ele><time>2026-04-23T17:59:13.805Z</time></trkpt><trkpt lat="45.4089361" lon="10.5398682"><ele>133.0</ele><time>2026-04-23T17:59:18.809Z</time></trkpt><trkpt lat="45.4088865" lon="10.5399265"><ele>133.0</ele><time>2026-04-23T17:59:32.808Z</time></trkpt><trkpt lat="45.4087724" lon="10.5399058"><ele>133.0</ele><time>2026-04-23T17:59:56.806Z</time></trkpt><trkpt lat="45.4087115" lon="10.5399383"><ele>133.0</ele><time>2026-04-23T17:59:58.814Z</time></trkpt><trkpt lat="45.4086487" lon="10.5399446"><ele>133.0</ele><time>2026-04-23T18:00:01.808Z</time></trkpt><trkpt lat="45.408731" lon="10.5399158"><ele>133.0</ele><time>2026-04-23T18:01:03.813Z</time></trkpt><trkpt lat="45.4088248" lon="10.5398678"><ele>133.0</ele><time>2026-04-23T18:01:13.81Z</time></trkpt><trkpt lat="45.4089096" lon="10.5398465"><ele>133.0</ele><time>2026-04-23T18:02:18.813Z</time></trkpt><trkpt lat="45.4090081" lon="10.5397452"><ele>133.0</ele><time>2026-04-23T18:04:24.807Z</time></trkpt><trkpt lat="45.4089779" lon="10.5398272"><ele>133.0</ele><time>2026-04-23T18:05:20.805Z</time></trkpt><trkpt lat="45.40892" lon="10.5397874"><ele>133.0</ele><time>2026-04-23T18:06:07.814Z</time></trkpt><trkpt lat="45.4089807" lon="10.5397597"><ele>133.0</ele><time>2026-04-23T18:06:53.808Z</time></trkpt><trkpt lat="45.4089442" lon="10.5398525"><ele>133.0</ele><time>2026-04-23T18:07:42.816Z</time></trkpt><trkpt lat="45.4088722" lon="10.5398355"><ele>133.0</ele><time>2026-04-23T18:07:58.811Z</time></trkpt><trkpt lat="45.4089319" lon="10.5397918"><ele>133.0</ele><time>2026-04-23T18:08:02.816Z</time></trkpt><trkpt lat="45.4089977" lon="10.5397787"><ele>133.0</ele><time>2026-04-23T18:08:15.812Z</time></trkpt><trkpt lat="45.4089128" lon="10.5398093"><ele>133.0</ele><time>2026-04-23T18:08:22.81Z</time></trkpt><trkpt lat="45.4088444" lon="10.5399018"><ele>133.0</ele><time>2026-04-23T18:08:32.816Z</time></trkpt><trkpt lat="45.4087889" lon="10.5399961"><ele>133.0</ele><time>2026-04-23T18:08:35.812Z</time></trkpt><trkpt lat="45.408852" lon="10.5399715"><ele>133.0</ele><time>2026-04-23T18:08:47.892Z</time></trkpt><trkpt lat="45.4089309" lon="10.5399195"><ele>133.0</ele><time>2026-04-23T18:09:01.808Z</time></trkpt><trkpt lat="45.4088791" lon="10.5399753"><ele>133.0</ele><time>2026-04-23T18:09:12.815Z</time></trkpt><trkpt lat="45.4089643" lon="10.5399231"><ele>133.0</ele><time>2026-04-23T18:09:43.806Z</time></trkpt><trkpt lat="45.409043" lon="10.5398808"><ele>133.0</ele><time>2026-04-23T18:09:52.807Z</time></trkpt><trkpt lat="45.4090732" lon="10.5397881"><ele>133.0</ele><time>2026-04-23T18:09:58.806Z</time></trkpt><trkpt lat="45.4090253" lon="10.5397102"><ele>133.0</ele><time>2026-04-23T18:11:29.81Z</time></trkpt><trkpt lat="45.4089522" lon="10.5397737"><ele>133.0</ele><time>2026-04-23T18:11:32.81Z</time></trkpt><trkpt lat="45.4088494" lon="10.5398478"><ele>133.0</ele><time>2026-04-23T18:11:41.805Z</time></trkpt><trkpt lat="45.4089186" lon="10.5397807"><ele>133.0</ele><time>2026-04-23T18:11:54.809Z</time></trkpt><trkpt lat="45.4089994" lon="10.5397238"><ele>133.0</ele><time>2026-04-23T18:11:57.814Z</time></trkpt><trkpt lat="45.4090032" lon="10.5398217"><ele>133.0</ele><time>2026-04-23T18:12:59.804Z</time></trkpt><trkpt lat="45.4089527" lon="10.5399054"><ele>133.0</ele><time>2026-04-23T18:13:07.809Z</time></trkpt><trkpt lat="45.409004" lon="10.5398502"><ele>133.0</ele><time>2026-04-23T18:13:25.806Z</time></trkpt><trkpt lat="45.4090526" lon="10.5397734"><ele>133.0</ele><time>2026-04-23T18:13:35.81Z</time></trkpt><trkpt lat="45.4089814" lon="10.5398381"><ele>133.0</ele><time>2026-04-23T18:13:56.807Z</time></trkpt><trkpt lat="45.408905" lon="10.5398956"><ele>133.0</ele><time>2026-04-23T18:14:00.805Z</time></trkpt><trkpt lat="45.4088263" lon="10.5398694"><ele>133.0</ele><time>2026-04-23T18:14:23.818Z</time></trkpt><trkpt lat="45.4089004" lon="10.5398374"><ele>133.0</ele><time>2026-04-23T18:14:38.813Z</time></trkpt><trkpt lat="45.4089683" lon="10.5398749"><ele>133.0</ele><time>2026-04-23T18:14:40.817Z</time></trkpt><trkpt lat="45.4090665" lon="10.5398239"><ele>133.0</ele><time>2026-04-23T18:15:49.808Z</time></trkpt><trkpt lat="45.4090641" lon="10.53972"><ele>133.0</ele><time>2026-04-23T18:16:03.815Z</time></trkpt><trkpt lat="45.4090163" lon="10.5398189"><ele>133.0</ele><time>2026-04-23T18:16:41.815Z</time></trkpt><trkpt lat="45.4090279" lon="10.5399092"><ele>133.0</ele><time>2026-04-23T18:17:18.809Z</time></trkpt><trkpt lat="45.4089702" lon="10.539957"><ele>133.0</ele><time>2026-04-23T18:17:29.814Z</time></trkpt><trkpt lat="45.4090137" lon="10.5398827"><ele>133.0</ele><time>2026-04-23T18:17:48.81Z</time></trkpt><trkpt lat="45.408952" lon="10.5399023"><ele>133.0</ele><time>2026-04-23T18:18:18.816Z</time></trkpt><trkpt lat="45.4089096" lon="10.5399696"><ele>133.0</ele><time>2026-04-23T18:18:28.81Z</time></trkpt><trkpt lat="45.4089128" lon="10.5398552"><ele>133.0</ele><time>2026-04-23T18:19:14.809Z</time></trkpt><trkpt lat="45.4089959" lon="10.539812"><ele>133.0</ele><time>2026-04-23T18:20:25.808Z</time></trkpt><trkpt lat="45.4089344" lon="10.5398471"><ele>133.0</ele><time>2026-04-23T18:21:31.807Z</time></trkpt><trkpt lat="45.4090127" lon="10.5398266"><ele>133.0</ele><time>2026-04-23T18:21:54.812Z</time></trkpt><trkpt lat="45.4089417" lon="10.5398023"><ele>133.0</ele><time>2026-04-23T18:22:24.804Z</time></trkpt><trkpt lat="45.4088618" lon="10.5398155"><ele>133.0</ele><time>2026-04-23T18:25:18.805Z</time></trkpt><trkpt lat="45.4088025" lon="10.5397639"><ele>133.0</ele><time>2026-04-23T18:25:25.817Z</time></trkpt><trkpt lat="45.4088463" lon="10.5398287"><ele>133.0</ele><time>2026-04-23T18:25:43.81Z</time></trkpt><trkpt lat="45.4089108" lon="10.5398364"><ele>133.0</ele><time>2026-04-23T18:25:51.803Z</time></trkpt><trkpt lat="45.4089718" lon="10.5397677"><ele>133.0</ele><time>2026-04-23T18:27:43.814Z</time></trkpt><trkpt lat="45.4090358" lon="10.5397594"><ele>133.0</ele><time>2026-04-23T18:27:54.812Z</time></trkpt><trkpt lat="45.4090974" lon="10.5397941"><ele>133.0</ele><time>2026-04-23T18:28:10.807Z</time></trkpt><trkpt lat="45.4090325" lon="10.5397154"><ele>133.0</ele><time>2026-04-23T18:28:34.805Z</time></trkpt><trkpt lat="45.4091331" lon="10.5397808"><ele>133.0</ele><time>2026-04-23T18:28:36.809Z</time></trkpt><trkpt lat="45.4090096" lon="10.5397445"><ele>133.0</ele><time>2026-04-23T18:29:17.806Z</time></trkpt><trkpt lat="45.4089035" lon="10.5397314"><ele>133.0</ele><time>2026-04-23T18:29:56.806Z</time></trkpt><trkpt lat="45.4088181" lon="10.5396286"><ele>133.0</ele><time>2026-04-23T18:29:58.804Z</time></trkpt><trkpt lat="45.4087617" lon="10.5395862"><ele>133.0</ele><time>2026-04-23T18:30:05.808Z</time></trkpt><trkpt lat="45.4088285" lon="10.5396673"><ele>133.0</ele><time>2026-04-23T18:30:10.81Z</time></trkpt><trkpt lat="45.4088949" lon="10.5397319"><ele>133.0</ele><time>2026-04-23T18:30:28.812Z</time></trkpt><trkpt lat="45.4089231" lon="10.5398159"><ele>133.0</ele><time>2026-04-23T18:30:38.809Z</time></trkpt><trkpt lat="45.4089952" lon="10.5398599"><ele>133.0</ele><time>2026-04-23T18:30:47.803Z</time></trkpt><trkpt lat="45.409057" lon="10.539814"><ele>133.0</ele><time>2026-04-23T18:31:54.816Z</time></trkpt><trkpt lat="45.4090002" lon="10.539767"><ele>133.0</ele><time>2026-04-23T18:33:05.806Z</time></trkpt><trkpt lat="45.4090836" lon="10.5398028"><ele>133.0</ele><time>2026-04-23T18:33:13.81Z</time></trkpt><trkpt lat="45.4090741" lon="10.539712"><ele>133.0</ele><time>2026-04-23T18:33:30.808Z</time></trkpt><trkpt lat="45.4090698" lon="10.5398023"><ele>133.0</ele><time>2026-04-23T18:33:57.812Z</time></trkpt><trkpt lat="45.4090139" lon="10.5398738"><ele>133.0</ele><time>2026-04-23T18:34:02.807Z</time></trkpt><trkpt lat="45.4090798" lon="10.539846"><ele>133.0</ele><time>2026-04-23T18:34:42.808Z</time></trkpt><trkpt lat="45.4090147" lon="10.5398253"><ele>133.0</ele><time>2026-04-23T18:34:53.809Z</time></trkpt><trkpt lat="45.4089499" lon="10.5397564"><ele>133.0</ele><time>2026-04-23T18:35:57.81Z</time></trkpt><trkpt lat="45.4088994" lon="10.5396695"><ele>133.0</ele><time>2026-04-23T18:36:13.812Z</time></trkpt><trkpt lat="45.40894" lon="10.5397452"><ele>133.0</ele><time>2026-04-23T18:36:56.814Z</time></trkpt><trkpt lat="45.408992" lon="10.5397962"><ele>133.0</ele><time>2026-04-23T18:37:01.807Z</time></trkpt><trkpt lat="45.4089244" lon="10.5397514"><ele>133.0</ele><time>2026-04-23T18:37:19.818Z</time></trkpt><trkpt lat="45.4088334" lon="10.5397286"><ele>133.0</ele><time>2026-04-23T18:37:28.811Z</time></trkpt><trkpt lat="45.4088599" lon="10.5398152"><ele>133.0</ele><time>2026-04-23T18:38:06.805Z</time></trkpt><trkpt lat="45.408939" lon="10.5397862"><ele>133.0</ele><time>2026-04-23T18:38:45.81Z</time></trkpt><trkpt lat="45.4088733" lon="10.5398129"><ele>133.0</ele><time>2026-04-23T18:39:09.805Z</time></trkpt><trkpt lat="45.4088861" lon="10.5399087"><ele>133.0</ele><time>2026-04-23T18:39:57.813Z</time></trkpt><trkpt lat="45.4089237" lon="10.5398202"><ele>133.0</ele><time>2026-04-23T18:40:39.8Z</time></trkpt><trkpt lat="45.408879" lon="10.539715"><ele>133.0</ele><time>2026-04-23T18:42:55.816Z</time></trkpt><trkpt lat="45.4088011" lon="10.539746"><ele>133.0</ele><time>2026-04-23T18:42:59.805Z</time></trkpt><trkpt lat="45.4087952" lon="10.539838"><ele>133.0</ele><time>2026-04-23T18:43:16.808Z</time></trkpt><trkpt lat="45.4087486" lon="10.5397638"><ele>133.0</ele><time>2026-04-23T18:43:22.796Z</time></trkpt><trkpt lat="45.4086943" lon="10.5397153"><ele>133.0</ele><time>2026-04-23T18:43:24.806Z</time></trkpt><trkpt lat="45.4087579" lon="10.5397526"><ele>133.0</ele><time>2026-04-23T18:43:45.813Z</time></trkpt><trkpt lat="45.4088072" lon="10.539815"><ele>133.0</ele><time>2026-04-23T18:44:01.811Z</time></trkpt><trkpt lat="45.4087589" lon="10.5397439"><ele>133.0</ele><time>2026-04-23T18:44:13.805Z</time></trkpt><trkpt lat="45.4088368" lon="10.5396566"><ele>133.0</ele><time>2026-04-23T18:45:33.805Z</time></trkpt><trkpt lat="45.4089597" lon="10.5396844"><ele>133.0</ele><time>2026-04-23T18:46:30.81Z</time></trkpt><trkpt lat="45.4090045" lon="10.5397586"><ele>133.0</ele><time>2026-04-23T18:46:37.807Z</time></trkpt><trkpt lat="45.4089691" lon="10.5398374"><ele>133.0</ele><time>2026-04-23T18:47:19.811Z</time></trkpt><trkpt lat="45.4089456" lon="10.5397531"><ele>133.0</ele><time>2026-04-23T18:49:34.811Z</time></trkpt><trkpt lat="45.4090566" lon="10.539685"><ele>133.0</ele><time>2026-04-23T18:49:58.815Z</time></trkpt><trkpt lat="45.4090079" lon="10.5397422"><ele>133.0</ele><time>2026-04-23T18:50:16.809Z</time></trkpt><trkpt lat="45.4089376" lon="10.53975"><ele>133.0</ele><time>2026-04-23T18:50:53.808Z</time></trkpt><trkpt lat="45.4088927" lon="10.5398215"><ele>133.0</ele><time>2026-04-23T18:51:01.808Z</time></trkpt><trkpt lat="45.4089637" lon="10.5397802"><ele>133.0</ele><time>2026-04-23T18:51:09.807Z</time></trkpt><trkpt lat="45.4088993" lon="10.5398155"><ele>133.0</ele><time>2026-04-23T18:51:29.818Z</time></trkpt><trkpt lat="45.408948" lon="10.5397497"><ele>133.0</ele><time>2026-04-23T18:51:45.812Z</time></trkpt><trkpt lat="45.4090447" lon="10.539697"><ele>133.0</ele><time>2026-04-23T18:53:19.805Z</time></trkpt><trkpt lat="45.4091516" lon="10.5396504"><ele>133.0</ele><time>2026-04-23T18:53:46.817Z</time></trkpt><trkpt lat="45.4091607" lon="10.5397424"><ele>133.0</ele><time>2026-04-23T18:54:08.807Z</time></trkpt><trkpt lat="45.4091035" lon="10.5398014"><ele>133.0</ele><time>2026-04-23T18:54:12.806Z</time></trkpt><trkpt lat="45.4090401" lon="10.5398482"><ele>133.0</ele><time>2026-04-23T18:54:16.808Z</time></trkpt><trkpt lat="45.4089505" lon="10.5399273"><ele>133.0</ele><time>2026-04-23T18:54:22.806Z</time></trkpt><trkpt lat="45.408951" lon="10.5400213"><ele>133.0</ele><time>2026-04-23T18:54:37.815Z</time></trkpt><trkpt lat="45.4090363" lon="10.5399642"><ele>133.0</ele><time>2026-04-23T18:54:45.805Z</time></trkpt><trkpt lat="45.4091014" lon="10.5399091"><ele>133.0</ele><time>2026-04-23T18:54:51.808Z</time></trkpt><trkpt lat="45.409108" lon="10.5398129"><ele>133.0</ele><time>2026-04-23T18:54:54.814Z</time></trkpt><trkpt lat="45.4088873" lon="10.539875"><ele>133.0</ele><time>2026-04-23T18:54:57.807Z</time></trkpt><trkpt lat="45.4087899" lon="10.5399324"><ele>133.0</ele><time>2026-04-23T18:54:58.805Z</time></trkpt><trkpt lat="45.4088284" lon="10.5398421"><ele>133.0</ele><time>2026-04-23T18:55:14.807Z</time></trkpt><trkpt lat="45.4089043" lon="10.5398554"><ele>133.0</ele><time>2026-04-23T18:55:17.812Z</time></trkpt><trkpt lat="45.4088713" lon="10.5399369"><ele>133.0</ele><time>2026-04-23T18:55:47.803Z</time></trkpt><trkpt lat="45.4088442" lon="10.5400577"><ele>133.0</ele><time>2026-04-23T18:55:52.808Z</time></trkpt><trkpt lat="45.4089129" lon="10.5399948"><ele>133.0</ele><time>2026-04-23T18:56:30.813Z</time></trkpt><trkpt lat="45.4089339" lon="10.5398858"><ele>133.0</ele><time>2026-04-23T18:56:36.805Z</time></trkpt><trkpt lat="45.4088959" lon="10.5397957"><ele>133.0</ele><time>2026-04-23T18:56:40.809Z</time></trkpt><trkpt lat="45.4088829" lon="10.5396923"><ele>133.0</ele><time>2026-04-23T18:56:44.813Z</time></trkpt><trkpt lat="45.40882" lon="10.5396575"><ele>133.0</ele><time>2026-04-23T18:56:48.812Z</time></trkpt><trkpt lat="45.4089067" lon="10.5398141"><ele>133.0</ele><time>2026-04-23T18:56:52.81Z</time></trkpt><trkpt lat="45.4089483" lon="10.5398904"><ele>133.0</ele><time>2026-04-23T18:56:54.804Z</time></trkpt><trkpt lat="45.4090214" lon="10.5398895"><ele>133.0</ele><time>2026-04-23T18:57:02.807Z</time></trkpt><trkpt lat="45.4090866" lon="10.5399029"><ele>133.0</ele><time>2026-04-23T18:57:07.816Z</time></trkpt><trkpt lat="45.4090507" lon="10.5398255"><ele>133.0</ele><time>2026-04-23T18:57:10.805Z</time></trkpt><trkpt lat="45.4090591" lon="10.5397238"><ele>133.0</ele><time>2026-04-23T18:57:15.812Z</time></trkpt><trkpt lat="45.408997" lon="10.5397704"><ele>133.0</ele><time>2026-04-23T18:57:21.814Z</time></trkpt><trkpt lat="45.4090401" lon="10.5398549"><ele>133.0</ele><time>2026-04-23T18:57:22.818Z</time></trkpt><trkpt lat="45.4090418" lon="10.5400328"><ele>133.0</ele><time>2026-04-23T18:57:25.813Z</time></trkpt><trkpt lat="45.4090077" lon="10.5401251"><ele>133.0</ele><time>2026-04-23T18:57:31.819Z</time></trkpt><trkpt lat="45.4089785" lon="10.5402235"><ele>133.0</ele><time>2026-04-23T18:57:36.807Z</time></trkpt><trkpt lat="45.4090156" lon="10.5401334"><ele>133.0</ele><time>2026-04-23T18:57:41.811Z</time></trkpt><trkpt lat="45.4091023" lon="10.5401418"><ele>133.0</ele><time>2026-04-23T18:57:44.806Z</time></trkpt><trkpt lat="45.4090292" lon="10.5399075"><ele>133.0</ele><time>2026-04-23T18:58:01.447Z</time></trkpt><trkpt lat="45.4088156" lon="10.5400393"><ele>133.0</ele><time>2026-04-23T18:58:10.811Z</time></trkpt><trkpt lat="45.4087221" lon="10.5400714"><ele>133.0</ele><time>2026-04-23T18:58:11.812Z</time></trkpt><trkpt lat="45.4086535" lon="10.5400925"><ele>133.0</ele><time>2026-04-23T18:58:12.819Z</time></trkpt><trkpt lat="45.4087344" lon="10.5400109"><ele>133.0</ele><time>2026-04-23T18:58:20.812Z</time></trkpt><trkpt lat="45.4088086" lon="10.5399577"><ele>133.0</ele><time>2026-04-23T18:58:22.812Z</time></trkpt><trkpt lat="45.4088797" lon="10.5399377"><ele>133.0</ele><time>2026-04-23T18:58:25.807Z</time></trkpt><trkpt lat="45.4090304" lon="10.539913"><ele>133.0</ele><time>2026-04-23T18:58:43.156Z</time></trkpt><trkpt lat="45.409261" lon="10.5398259"><ele>133.0</ele><time>2026-04-23T18:59:02.808Z</time></trkpt><trkpt lat="45.409181" lon="10.539767"><ele>133.0</ele><time>2026-04-23T18:59:08.81Z</time></trkpt><trkpt lat="45.409111" lon="10.5397604"><ele>133.0</ele><time>2026-04-23T18:59:12.806Z</time></trkpt><trkpt lat="45.40905" lon="10.5397873"><ele>133.0</ele><time>2026-04-23T18:59:16.811Z</time></trkpt><trkpt lat="45.4089648" lon="10.5399059"><ele>133.0</ele><time>2026-04-23T18:59:23.804Z</time></trkpt><trkpt lat="45.4089072" lon="10.5399856"><ele>133.0</ele><time>2026-04-23T18:59:25.808Z</time></trkpt><trkpt lat="45.4088562" lon="10.5400794"><ele>133.0</ele><time>2026-04-23T18:59:27.811Z</time></trkpt><trkpt lat="45.4088383" lon="10.5401706"><ele>133.0</ele><time>2026-04-23T18:59:33.812Z</time></trkpt><trkpt lat="45.4088061" lon="10.5402828"><ele>133.0</ele><time>2026-04-23T18:59:38.812Z</time></trkpt><trkpt lat="45.4088768" lon="10.5402889"><ele>132.66666666666669</ele><time>2026-04-23T18:59:49.065Z</time></trkpt><trkpt lat="45.4087559" lon="10.5406145"><ele>132.33333333333334</ele><time>2026-04-23T19:00:21.808Z</time></trkpt><trkpt lat="45.4087163" lon="10.5407949"><ele>132.0</ele><time>2026-04-23T19:00:28.806Z</time></trkpt><trkpt lat="45.4086789" lon="10.5408681"><ele>132.0</ele><time>2026-04-23T19:00:29.808Z</time></trkpt><trkpt lat="45.4086559" lon="10.5407608"><ele>132.0</ele><time>2026-04-23T19:00:37.814Z</time></trkpt><trkpt lat="45.4086771" lon="10.5406561"><ele>132.0</ele><time>2026-04-23T19:00:41.81Z</time></trkpt><trkpt lat="45.4086961" lon="10.5405549"><ele>132.0</ele><time>2026-04-23T19:00:42.809Z</time></trkpt><trkpt lat="45.4087078" lon="10.5404546"><ele>132.0</ele><time>2026-04-23T19:00:44.807Z</time></trkpt><trkpt lat="45.4087524" lon="10.5403582"><ele>132.0</ele><time>2026-04-23T19:00:46.813Z</time></trkpt><trkpt lat="45.4087795" lon="10.5402624"><ele>132.2</ele><time>2026-04-23T19:00:49.815Z</time></trkpt><trkpt lat="45.4087961" lon="10.5401637"><ele>132.39999999999998</ele><time>2026-04-23T19:00:51.805Z</time></trkpt><trkpt lat="45.4088127" lon="10.5400502"><ele>132.60000000000002</ele><time>2026-04-23T19:00:52.806Z</time></trkpt><trkpt lat="45.4088451" lon="10.5399347"><ele>132.8</ele><time>2026-04-23T19:00:55.813Z</time></trkpt><trkpt lat="45.4087662" lon="10.5399527"><ele>133.0</ele><time>2026-04-23T19:01:10.813Z</time></trkpt><trkpt lat="45.4088892" lon="10.5398836"><ele>133.0</ele><time>2026-04-23T19:01:34.806Z</time></trkpt><trkpt lat="45.408969" lon="10.5398155"><ele>133.0</ele><time>2026-04-23T19:01:51.808Z</time></trkpt><trkpt lat="45.4090402" lon="10.5397881"><ele>133.0</ele><time>2026-04-23T19:01:54.814Z</time></trkpt><trkpt lat="45.4091033" lon="10.5397437"><ele>133.0</ele><time>2026-04-23T19:01:55.818Z</time></trkpt><trkpt lat="45.409011" lon="10.5398695"><ele>133.0</ele><time>2026-04-23T19:02:16.812Z</time></trkpt><trkpt lat="45.409061" lon="10.5398148"><ele>133.0</ele><time>2026-04-23T19:02:24.813Z</time></trkpt><trkpt lat="45.4089961" lon="10.5398677"><ele>133.0</ele><time>2026-04-23T19:02:33.81Z</time></trkpt><trkpt lat="45.4089357" lon="10.5399569"><ele>133.0</ele><time>2026-04-23T19:02:40.807Z</time></trkpt><trkpt lat="45.4088974" lon="10.5400282"><ele>133.0</ele><time>2026-04-23T19:02:57.814Z</time></trkpt><trkpt lat="45.4087882" lon="10.5400369"><ele>133.0</ele><time>2026-04-23T19:03:22.814Z</time></trkpt><trkpt lat="45.4088096" lon="10.5399452"><ele>133.0</ele><time>2026-04-23T19:03:27.808Z</time></trkpt><trkpt lat="45.4089082" lon="10.5398758"><ele>133.0</ele><time>2026-04-23T19:03:47.818Z</time></trkpt><trkpt lat="45.4089036" lon="10.5397404"><ele>133.0</ele><time>2026-04-23T19:04:26.803Z</time></trkpt><trkpt lat="45.4089784" lon="10.5397273"><ele>133.0</ele><time>2026-04-23T19:06:20.814Z</time></trkpt><trkpt lat="45.4090742" lon="10.5396683"><ele>133.0</ele><time>2026-04-23T19:06:34.806Z</time></trkpt><trkpt lat="45.4090246" lon="10.5397696"><ele>133.0</ele><time>2026-04-23T19:07:58.812Z</time></trkpt><trkpt lat="45.4089586" lon="10.5398099"><ele>133.0</ele><time>2026-04-23T19:08:12.809Z</time></trkpt><trkpt lat="45.4089044" lon="10.53976"><ele>133.0</ele><time>2026-04-23T19:08:29.808Z</time></trkpt><trkpt lat="45.4089877" lon="10.5397554"><ele>133.0</ele><time>2026-04-23T19:08:59.82Z</time></trkpt><trkpt lat="45.4090523" lon="10.5397547"><ele>133.0</ele><time>2026-04-23T19:09:09.807Z</time></trkpt><trkpt lat="45.4089924" lon="10.5397208"><ele>133.0</ele><time>2026-04-23T19:09:33.806Z</time></trkpt><trkpt lat="45.4089069" lon="10.5397019"><ele>133.0</ele><time>2026-04-23T19:09:43.807Z</time></trkpt><trkpt lat="45.4088554" lon="10.5396426"><ele>133.0</ele><time>2026-04-23T19:10:31.807Z</time></trkpt><trkpt lat="45.4089466" lon="10.5396593"><ele>133.0</ele><time>2026-04-23T19:11:16.811Z</time></trkpt><trkpt lat="45.4090177" lon="10.5396838"><ele>133.0</ele><time>2026-04-23T19:11:29.808Z</time></trkpt><trkpt lat="45.4091216" lon="10.539683"><ele>133.0</ele><time>2026-04-23T19:11:59.807Z</time></trkpt><trkpt lat="45.4091371" lon="10.5395922"><ele>133.0</ele><time>2026-04-23T19:12:24.807Z</time></trkpt><trkpt lat="45.4090684" lon="10.5396103"><ele>133.0</ele><time>2026-04-23T19:12:47.814Z</time></trkpt><trkpt lat="45.409014" lon="10.5396767"><ele>133.0</ele><time>2026-04-23T19:12:51.809Z</time></trkpt><trkpt lat="45.4089989" lon="10.5397702"><ele>133.0</ele><time>2026-04-23T19:12:57.806Z</time></trkpt><trkpt lat="45.4089256" lon="10.5398739"><ele>133.0</ele><time>2026-04-23T19:13:06.805Z</time></trkpt><trkpt lat="45.408979" lon="10.5398173"><ele>133.0</ele><time>2026-04-23T19:13:45.805Z</time></trkpt><trkpt lat="45.4089499" lon="10.5398984"><ele>133.0</ele><time>2026-04-23T19:14:05.807Z</time></trkpt><trkpt lat="45.4088855" lon="10.539868"><ele>133.0</ele><time>2026-04-23T19:14:15.814Z</time></trkpt><trkpt lat="45.4089521" lon="10.5398562"><ele>133.0</ele><time>2026-04-23T19:15:06.811Z</time></trkpt><trkpt lat="45.4090145" lon="10.5397846"><ele>133.0</ele><time>2026-04-23T19:15:11.811Z</time></trkpt><trkpt lat="45.409089" lon="10.5397912"><ele>133.0</ele><time>2026-04-23T19:19:37.807Z</time></trkpt><trkpt lat="45.409023" lon="10.5397865"><ele>133.0</ele><time>2026-04-23T19:20:44.81Z</time></trkpt><trkpt lat="45.4090537" lon="10.5398665"><ele>133.0</ele><time>2026-04-23T19:21:01.808Z</time></trkpt><trkpt lat="45.4089882" lon="10.5398374"><ele>133.0</ele><time>2026-04-23T19:21:37.814Z</time></trkpt><trkpt lat="45.4089201" lon="10.5398395"><ele>133.0</ele><time>2026-04-23T19:23:31.818Z</time></trkpt><trkpt lat="45.408944" lon="10.5397437"><ele>133.0</ele><time>2026-04-23T19:24:28.807Z</time></trkpt><trkpt lat="45.4090297" lon="10.5397029"><ele>133.0</ele><time>2026-04-23T19:24:34.806Z</time></trkpt><trkpt lat="45.4089286" lon="10.5397322"><ele>133.0</ele><time>2026-04-23T19:24:36.81Z</time></trkpt><trkpt lat="45.4088479" lon="10.5397514"><ele>133.0</ele><time>2026-04-23T19:24:37.816Z</time></trkpt><trkpt lat="45.4089109" lon="10.5398013"><ele>133.0</ele><time>2026-04-23T19:24:53.813Z</time></trkpt><trkpt lat="45.4089892" lon="10.5397874"><ele>133.0</ele><time>2026-04-23T19:27:04.808Z</time></trkpt><trkpt lat="45.4089355" lon="10.5398552"><ele>133.0</ele><time>2026-04-23T19:27:17.807Z</time></trkpt><trkpt lat="45.4088783" lon="10.5399168"><ele>133.0</ele><time>2026-04-23T19:27:25.809Z</time></trkpt><trkpt lat="45.4089279" lon="10.5398419"><ele>133.0</ele><time>2026-04-23T19:27:30.813Z</time></trkpt><trkpt lat="45.4090022" lon="10.5397656"><ele>133.0</ele><time>2026-04-23T19:27:42.807Z</time></trkpt><trkpt lat="45.4089355" lon="10.5397509"><ele>133.0</ele><time>2026-04-23T19:27:52.809Z</time></trkpt><trkpt lat="45.4088882" lon="10.5396729"><ele>133.0</ele><time>2026-04-23T19:27:55.821Z</time></trkpt><trkpt lat="45.408925" lon="10.5397516"><ele>133.0</ele><time>2026-04-23T19:28:29.806Z</time></trkpt><trkpt lat="45.4089759" lon="10.5398125"><ele>133.0</ele><time>2026-04-23T19:29:02.806Z</time></trkpt><trkpt lat="45.4089363" lon="10.5397369"><ele>133.0</ele><time>2026-04-23T19:31:34.814Z</time></trkpt><trkpt lat="45.4089768" lon="10.5398212"><ele>133.0</ele><time>2026-04-23T19:31:47.808Z</time></trkpt><trkpt lat="45.4089716" lon="10.5397239"><ele>133.0</ele><time>2026-04-23T19:32:34.804Z</time></trkpt><trkpt lat="45.4089614" lon="10.539821"><ele>133.0</ele><time>2026-04-23T19:34:11.805Z</time></trkpt><trkpt lat="45.4090275" lon="10.539802"><ele>133.0</ele><time>2026-04-23T19:35:09.814Z</time></trkpt><trkpt lat="45.4089635" lon="10.5398668"><ele>133.0</ele><time>2026-04-23T19:36:02.812Z</time></trkpt><trkpt lat="45.4089057" lon="10.5399044"><ele>133.0</ele><time>2026-04-23T19:36:23.808Z</time></trkpt><trkpt lat="45.4089501" lon="10.5398407"><ele>133.0</ele><time>2026-04-23T19:37:37.809Z</time></trkpt><trkpt lat="45.409007" lon="10.5397865"><ele>133.0</ele><time>2026-04-23T19:37:41.813Z</time></trkpt><trkpt lat="45.4089558" lon="10.539843"><ele>133.0</ele><time>2026-04-23T19:38:05.804Z</time></trkpt><trkpt lat="45.4089983" lon="10.53976"><ele>133.0</ele><time>2026-04-23T19:39:45.805Z</time></trkpt><trkpt lat="45.4089371" lon="10.5398044"><ele>133.0</ele><time>2026-04-23T19:40:12.813Z</time></trkpt><trkpt lat="45.4090061" lon="10.5398144"><ele>133.0</ele><time>2026-04-23T19:41:21.806Z</time></trkpt><trkpt lat="45.4089356" lon="10.5398355"><ele>133.0</ele><time>2026-04-23T19:41:49.803Z</time></trkpt><trkpt lat="45.4090273" lon="10.5398554"><ele>133.0</ele><time>2026-04-23T19:42:10.806Z</time></trkpt><trkpt lat="45.4089714" lon="10.5397903"><ele>133.0</ele><time>2026-04-23T19:42:19.815Z</time></trkpt><trkpt lat="45.4090423" lon="10.5398067"><ele>133.0</ele><time>2026-04-23T19:42:50.803Z</time></trkpt><trkpt lat="45.4089761" lon="10.5398105"><ele>133.0</ele><time>2026-04-23T19:43:36.812Z</time></trkpt><trkpt lat="45.4089349" lon="10.5399043"><ele>133.0</ele><time>2026-04-23T19:44:19.806Z</time></trkpt><trkpt lat="45.4090174" lon="10.5399047"><ele>133.0</ele><time>2026-04-23T19:44:33.81Z</time></trkpt><trkpt lat="45.409051" lon="10.5398196"><ele>133.0</ele><time>2026-04-23T19:45:20.814Z</time></trkpt><trkpt lat="45.4090828" lon="10.5397415"><ele>133.0</ele><time>2026-04-23T19:45:25.8Z</time></trkpt><trkpt lat="45.4091462" lon="10.5397553"><ele>133.0</ele><time>2026-04-23T19:45:34.804Z</time></trkpt><trkpt lat="45.4090432" lon="10.5396821"><ele>133.0</ele><time>2026-04-23T19:45:54.808Z</time></trkpt><trkpt lat="45.4089262" lon="10.5397036"><ele>133.0</ele><time>2026-04-23T19:45:59.806Z</time></trkpt><trkpt lat="45.4088334" lon="10.5397111"><ele>133.0</ele><time>2026-04-23T19:46:01.814Z</time></trkpt><trkpt lat="45.4087487" lon="10.5397412"><ele>133.0</ele><time>2026-04-23T19:46:06.806Z</time></trkpt><trkpt lat="45.4088224" lon="10.5397982"><ele>133.0</ele><time>2026-04-23T19:46:11.815Z</time></trkpt><trkpt lat="45.4088783" lon="10.5397513"><ele>133.0</ele><time>2026-04-23T19:46:22.811Z</time></trkpt><trkpt lat="45.4089551" lon="10.5397784"><ele>133.0</ele><time>2026-04-23T19:46:28.83Z</time></trkpt><trkpt lat="45.409052" lon="10.539789"><ele>133.0</ele><time>2026-04-23T19:46:38.807Z</time></trkpt><trkpt lat="45.4089802" lon="10.5398412"><ele>133.0</ele><time>2026-04-23T19:46:46.804Z</time></trkpt><trkpt lat="45.4089015" lon="10.5398185"><ele>133.0</ele><time>2026-04-23T19:46:47.81Z</time></trkpt><trkpt lat="45.4088141" lon="10.5398159"><ele>133.0</ele><time>2026-04-23T19:46:49.811Z</time></trkpt><trkpt lat="45.4087202" lon="10.5397623"><ele>133.0</ele><time>2026-04-23T19:46:55.81Z</time></trkpt><trkpt lat="45.4086016" lon="10.5397202"><ele>131.20000000000002</ele><time>2026-04-23T19:46:57.811Z</time></trkpt><trkpt lat="45.4085279" lon="10.5397373"><ele>129.4</ele><time>2026-04-23T19:47:00.813Z</time></trkpt><trkpt lat="45.4085109" lon="10.5398442"><ele>127.60000000000001</ele><time>2026-04-23T19:47:03.809Z</time></trkpt><trkpt lat="45.4084179" lon="10.5398424"><ele>125.80000000000001</ele><time>2026-04-23T19:47:09.804Z</time></trkpt><trkpt lat="45.4084998" lon="10.5398486"><ele>124.0</ele><time>2026-04-23T19:47:12.813Z</time></trkpt><trkpt lat="45.4086461" lon="10.539854"><ele>124.00000000000001</ele><time>2026-04-23T19:47:13.814Z</time></trkpt><trkpt lat="45.4087183" lon="10.539862"><ele>124.0</ele><time>2026-04-23T19:47:14.812Z</time></trkpt><trkpt lat="45.4088012" lon="10.5398779"><ele>124.0</ele><time>2026-04-23T19:47:17.813Z</time></trkpt><trkpt lat="45.4088634" lon="10.5398527"><ele>124.0</ele><time>2026-04-23T19:47:21.808Z</time></trkpt><trkpt lat="45.4089385" lon="10.5398559"><ele>124.00000000000001</ele><time>2026-04-23T19:47:24.812Z</time></trkpt><trkpt lat="45.4090506" lon="10.5398778"><ele>124.0</ele><time>2026-04-23T19:47:25.815Z</time></trkpt><trkpt lat="45.4091168" lon="10.5398929"><ele>125.50000000000001</ele><time>2026-04-23T19:47:27.807Z</time></trkpt><trkpt lat="45.4090334" lon="10.5398766"><ele>127.0</ele><time>2026-04-23T19:47:28.809Z</time></trkpt><trkpt lat="45.4090288" lon="10.5397729"><ele>128.5</ele><time>2026-04-23T19:48:05.804Z</time></trkpt><trkpt lat="45.4090219" lon="10.5396573"><ele>130.0</ele><time>2026-04-23T19:48:11.812Z</time></trkpt><trkpt lat="45.4089566" lon="10.539603"><ele>131.5</ele><time>2026-04-23T19:48:14.804Z</time></trkpt><trkpt lat="45.4089523" lon="10.5397452"><ele>133.0</ele><time>2026-04-23T19:48:21.814Z</time></trkpt><trkpt lat="45.4089915" lon="10.5398372"><ele>133.0</ele><time>2026-04-23T19:48:26.803Z</time></trkpt><trkpt lat="45.4088994" lon="10.5398373"><ele>133.0</ele><time>2026-04-23T19:48:47.797Z</time></trkpt><trkpt lat="45.4088095" lon="10.5398056"><ele>133.0</ele><time>2026-04-23T19:48:51.813Z</time></trkpt><trkpt lat="45.4088768" lon="10.5397694"><ele>133.0</ele><time>2026-04-23T19:49:30.813Z</time></trkpt><trkpt lat="45.4088132" lon="10.5397945"><ele>133.0</ele><time>2026-04-23T19:50:01.808Z</time></trkpt><trkpt lat="45.4088802" lon="10.5397927"><ele>133.0</ele><time>2026-04-23T19:50:18.806Z</time></trkpt><trkpt lat="45.4089586" lon="10.5398077"><ele>133.0</ele><time>2026-04-23T19:50:41.806Z</time></trkpt><trkpt lat="45.4089403" lon="10.5399202"><ele>133.0</ele><time>2026-04-23T19:51:12.814Z</time></trkpt><trkpt lat="45.4089753" lon="10.5398412"><ele>133.0</ele><time>2026-04-23T19:52:59.815Z</time></trkpt><trkpt lat="45.4089773" lon="10.5397463"><ele>133.0</ele><time>2026-04-23T19:53:25.806Z</time></trkpt><trkpt lat="45.4090665" lon="10.539685"><ele>133.0</ele><time>2026-04-23T19:53:44.813Z</time></trkpt><trkpt lat="45.4090649" lon="10.5397812"><ele>133.0</ele><time>2026-04-23T19:55:13.809Z</time></trkpt><trkpt lat="45.4090301" lon="10.5398571"><ele>133.0</ele><time>2026-04-23T19:55:25.816Z</time></trkpt><trkpt lat="45.4089629" lon="10.5398752"><ele>133.0</ele><time>2026-04-23T19:56:36.812Z</time></trkpt><trkpt lat="45.4089008" lon="10.5399038"><ele>133.0</ele><time>2026-04-23T19:56:39.809Z</time></trkpt><trkpt lat="45.408962" lon="10.5397927"><ele>133.0</ele><time>2026-04-23T19:57:35.814Z</time></trkpt><trkpt lat="45.4090416" lon="10.5397687"><ele>133.0</ele><time>2026-04-23T19:57:58.806Z</time></trkpt><trkpt lat="45.4089758" lon="10.5397843"><ele>133.0</ele><time>2026-04-23T19:58:20.806Z</time></trkpt><trkpt lat="45.4089028" lon="10.5397524"><ele>133.0</ele><time>2026-04-23T19:59:18.806Z</time></trkpt><trkpt lat="45.408952" lon="10.5398123"><ele>133.0</ele><time>2026-04-23T20:00:16.804Z</time></trkpt><trkpt lat="45.4088731" lon="10.5398273"><ele>133.0</ele><time>2026-04-23T20:02:06.811Z</time></trkpt><trkpt lat="45.4089561" lon="10.5398163"><ele>133.0</ele><time>2026-04-23T20:02:39.812Z</time></trkpt><trkpt lat="45.4089122" lon="10.5398852"><ele>133.0</ele><time>2026-04-23T20:07:19.808Z</time></trkpt><trkpt lat="45.4089966" lon="10.5397888"><ele>133.0</ele><time>2026-04-23T20:08:56.812Z</time></trkpt><trkpt lat="45.4089774" lon="10.5398796"><ele>133.0</ele><time>2026-04-23T20:10:43.814Z</time></trkpt><trkpt lat="45.4089134" lon="10.5398281"><ele>133.0</ele><time>2026-04-23T20:14:06.813Z</time></trkpt><trkpt lat="45.4088487" lon="10.5397935"><ele>133.0</ele><time>2026-04-23T20:22:41.807Z</time></trkpt><trkpt lat="45.4089769" lon="10.5398054"><ele>133.0</ele><time>2026-04-23T20:23:18.805Z</time></trkpt><trkpt lat="45.4089152" lon="10.5397607"><ele>133.0</ele><time>2026-04-23T20:23:40.811Z</time></trkpt><trkpt lat="45.4089909" lon="10.5397737"><ele>133.0</ele><time>2026-04-23T20:24:24.796Z</time></trkpt><trkpt lat="45.4090335" lon="10.5398517"><ele>133.0</ele><time>2026-04-23T20:26:25.809Z</time></trkpt><trkpt lat="45.4089493" lon="10.5398644"><ele>133.0</ele><time>2026-04-23T20:28:09.809Z</time></trkpt><trkpt lat="45.4090126" lon="10.5398243"><ele>133.0</ele><time>2026-04-23T20:30:50.808Z</time></trkpt><trkpt lat="45.4089433" lon="10.5398045"><ele>133.0</ele><time>2026-04-23T20:31:08.801Z</time></trkpt><trkpt lat="45.4090065" lon="10.539807"><ele>133.0</ele><time>2026-04-23T20:32:40.805Z</time></trkpt><trkpt lat="45.4089463" lon="10.539747"><ele>133.0</ele><time>2026-04-23T20:34:53.804Z</time></trkpt><trkpt lat="45.4089957" lon="10.5398144"><ele>133.0</ele><time>2026-04-23T20:35:35.81Z</time></trkpt><trkpt lat="45.4090678" lon="10.5398252"><ele>133.0</ele><time>2026-04-23T20:37:03.803Z</time></trkpt><trkpt lat="45.4090034" lon="10.5398116"><ele>133.0</ele><time>2026-04-23T20:37:12.803Z</time></trkpt><trkpt lat="45.4090646" lon="10.5397867"><ele>133.0</ele><time>2026-04-23T20:37:53.803Z</time></trkpt><trkpt lat="45.4090045" lon="10.5398296"><ele>133.0</ele><time>2026-04-23T20:38:00.802Z</time></trkpt><trkpt lat="45.4089272" lon="10.5398578"><ele>133.0</ele><time>2026-04-23T20:38:07.804Z</time></trkpt><trkpt lat="45.4089926" lon="10.5398078"><ele>133.0</ele><time>2026-04-23T20:38:46.812Z</time></trkpt><trkpt lat="45.4089188" lon="10.5397747"><ele>133.0</ele><time>2026-04-23T20:39:38.801Z</time></trkpt><trkpt lat="45.4090065" lon="10.5397037"><ele>133.0</ele><time>2026-04-23T20:40:11.802Z</time></trkpt><trkpt lat="45.4089537" lon="10.5397534"><ele>133.0</ele><time>2026-04-23T20:40:29.804Z</time></trkpt><trkpt lat="45.4088634" lon="10.5398732"><ele>133.0</ele><time>2026-04-23T20:41:09.807Z</time></trkpt><trkpt lat="45.4089195" lon="10.5398235"><ele>133.0</ele><time>2026-04-23T20:41:25.809Z</time></trkpt><trkpt lat="45.4089768" lon="10.5397836"><ele>133.0</ele><time>2026-04-23T20:41:38.808Z</time></trkpt><trkpt lat="45.4088891" lon="10.5398133"><ele>133.0</ele><time>2026-04-23T20:42:02.807Z</time></trkpt><trkpt lat="45.4088253" lon="10.5398405"><ele>133.0</ele><time>2026-04-23T20:42:37.808Z</time></trkpt><trkpt lat="45.4088932" lon="10.5398326"><ele>133.0</ele><time>2026-04-23T20:43:15.812Z</time></trkpt><trkpt lat="45.4088343" lon="10.5398646"><ele>133.0</ele><time>2026-04-23T20:45:46.812Z</time></trkpt><trkpt lat="45.4089197" lon="10.5398609"><ele>133.0</ele><time>2026-04-23T20:47:50.806Z</time></trkpt><trkpt lat="45.4089792" lon="10.5399093"><ele>133.0</ele><time>2026-04-23T20:47:55.803Z</time></trkpt><trkpt lat="45.4090645" lon="10.539908"><ele>133.0</ele><time>2026-04-23T20:48:42.802Z</time></trkpt><trkpt lat="45.4090045" lon="10.5399371"><ele>133.0</ele><time>2026-04-23T20:48:57.805Z</time></trkpt><trkpt lat="45.4090477" lon="10.5398667"><ele>133.0</ele><time>2026-04-23T20:49:39.801Z</time></trkpt><trkpt lat="45.4090267" lon="10.5397755"><ele>133.0</ele><time>2026-04-23T20:49:51.805Z</time></trkpt><trkpt lat="45.4089766" lon="10.5398303"><ele>133.0</ele><time>2026-04-23T20:52:17.812Z</time></trkpt><trkpt lat="45.4089377" lon="10.539914"><ele>133.0</ele><time>2026-04-23T20:52:40.805Z</time></trkpt><trkpt lat="45.4088799" lon="10.5398548"><ele>133.0</ele><time>2026-04-23T20:52:51.808Z</time></trkpt><trkpt lat="45.4089523" lon="10.5398292"><ele>133.0</ele><time>2026-04-23T20:53:17.806Z</time></trkpt><trkpt lat="45.4088888" lon="10.5398326"><ele>133.0</ele><time>2026-04-23T20:54:01.803Z</time></trkpt><trkpt lat="45.4089528" lon="10.5398263"><ele>133.0</ele><time>2026-04-23T20:55:28.81Z</time></trkpt><trkpt lat="45.4088863" lon="10.5398208"><ele>133.0</ele><time>2026-04-23T20:55:46.799Z</time></trkpt><trkpt lat="45.4089594" lon="10.5398416"><ele>133.0</ele><time>2026-04-23T20:57:20.81Z</time></trkpt><trkpt lat="45.4088933" lon="10.5398076"><ele>133.0</ele><time>2026-04-23T20:59:41.807Z</time></trkpt><trkpt lat="45.4089397" lon="10.5397069"><ele>133.0</ele><time>2026-04-23T21:02:07.81Z</time></trkpt><trkpt lat="45.4090333" lon="10.5396632"><ele>133.0</ele><time>2026-04-23T21:02:21.807Z</time></trkpt><trkpt lat="45.4090242" lon="10.5397541"><ele>133.0</ele><time>2026-04-23T21:02:50.801Z</time></trkpt><trkpt lat="45.4089687" lon="10.539816"><ele>133.0</ele><time>2026-04-23T21:03:17.802Z</time></trkpt><trkpt lat="45.4089064" lon="10.5398008"><ele>133.0</ele><time>2026-04-23T21:04:11.81Z</time></trkpt><trkpt lat="45.4089617" lon="10.5397022"><ele>133.0</ele><time>2026-04-23T21:04:19.81Z</time></trkpt><trkpt lat="45.4089024" lon="10.5397331"><ele>133.0</ele><time>2026-04-23T21:04:39.807Z</time></trkpt><trkpt lat="45.40891" lon="10.5398508"><ele>133.0</ele><time>2026-04-23T21:04:48.804Z</time></trkpt><trkpt lat="45.4089746" lon="10.5398029"><ele>133.0</ele><time>2026-04-23T21:05:08.811Z</time></trkpt><trkpt lat="45.4090502" lon="10.5398185"><ele>133.0</ele><time>2026-04-23T21:05:25.803Z</time></trkpt><trkpt lat="45.4089985" lon="10.5398744"><ele>133.0</ele><time>2026-04-23T21:05:40.812Z</time></trkpt><trkpt lat="45.4090108" lon="10.539963"><ele>133.0</ele><time>2026-04-23T21:05:44.803Z</time></trkpt><trkpt lat="45.4089403" lon="10.5399178"><ele>133.0</ele><time>2026-04-23T21:06:14.802Z</time></trkpt><trkpt lat="45.4089824" lon="10.5398405"><ele>133.0</ele><time>2026-04-23T21:06:48.801Z</time></trkpt><trkpt lat="45.4090319" lon="10.5397633"><ele>133.0</ele><time>2026-04-23T21:10:50.805Z</time></trkpt><trkpt lat="45.4089673" lon="10.5397522"><ele>133.0</ele><time>2026-04-23T21:11:31.811Z</time></trkpt><trkpt lat="45.4090404" lon="10.5397558"><ele>133.0</ele><time>2026-04-23T21:12:42.806Z</time></trkpt><trkpt lat="45.4089963" lon="10.5398371"><ele>133.0</ele><time>2026-04-23T21:13:39.809Z</time></trkpt><trkpt lat="45.4090607" lon="10.5398291"><ele>133.0</ele><time>2026-04-23T21:15:31.809Z</time></trkpt><trkpt lat="45.4089967" lon="10.5398183"><ele>133.0</ele><time>2026-04-23T21:17:18.81Z</time></trkpt><trkpt lat="45.409026" lon="10.5397035"><ele>133.0</ele><time>2026-04-23T21:17:20.808Z</time></trkpt><trkpt lat="45.4090489" lon="10.5397872"><ele>133.0</ele><time>2026-04-23T21:18:13.801Z</time></trkpt><trkpt lat="45.4089977" lon="10.5398673"><ele>133.0</ele><time>2026-04-23T21:18:26.804Z</time></trkpt><trkpt lat="45.4089152" lon="10.5398587"><ele>133.0</ele><time>2026-04-23T21:18:29.803Z</time></trkpt><trkpt lat="45.408987" lon="10.539787"><ele>133.0</ele><time>2026-04-23T21:18:48.81Z</time></trkpt><trkpt lat="45.4089167" lon="10.5397922"><ele>133.0</ele><time>2026-04-23T21:19:04.808Z</time></trkpt><trkpt lat="45.4089812" lon="10.5397835"><ele>133.0</ele><time>2026-04-23T21:19:48.817Z</time></trkpt><trkpt lat="45.4090594" lon="10.5398351"><ele>133.0</ele><time>2026-04-23T21:20:41.805Z</time></trkpt><trkpt lat="45.4090646" lon="10.53993"><ele>133.0</ele><time>2026-04-23T21:20:54.793Z</time></trkpt><trkpt lat="45.409" lon="10.5398912"><ele>133.0</ele><time>2026-04-23T21:21:05.809Z</time></trkpt><trkpt lat="45.4090225" lon="10.5399833"><ele>133.0</ele><time>2026-04-23T21:21:11.802Z</time></trkpt><trkpt lat="45.4090547" lon="10.5401621"><ele>133.0</ele><time>2026-04-23T21:21:26.798Z</time></trkpt><trkpt lat="45.4089906" lon="10.5401497"><ele>133.0</ele><time>2026-04-23T21:21:30.811Z</time></trkpt><trkpt lat="45.4089733" lon="10.5400631"><ele>133.0</ele><time>2026-04-23T21:21:35.804Z</time></trkpt><trkpt lat="45.408943" lon="10.5399567"><ele>133.0</ele><time>2026-04-23T21:21:46.807Z</time></trkpt><trkpt lat="45.4089521" lon="10.5400491"><ele>133.0</ele><time>2026-04-23T21:22:00.804Z</time></trkpt><trkpt lat="45.4089328" lon="10.539958"><ele>133.0</ele><time>2026-04-23T21:22:12.804Z</time></trkpt><trkpt lat="45.4088993" lon="10.5398501"><ele>133.0</ele><time>2026-04-23T21:22:21.809Z</time></trkpt><trkpt lat="45.4089403" lon="10.5397208"><ele>133.0</ele><time>2026-04-23T21:22:45.801Z</time></trkpt><trkpt lat="45.4088523" lon="10.539667"><ele>133.0</ele><time>2026-04-23T21:22:48.802Z</time></trkpt><trkpt lat="45.408921" lon="10.5397389"><ele>133.0</ele><time>2026-04-23T21:22:54.803Z</time></trkpt><trkpt lat="45.408956" lon="10.5398153"><ele>133.0</ele><time>2026-04-23T21:22:59.802Z</time></trkpt><trkpt lat="45.4089863" lon="10.5398966"><ele>133.0</ele><time>2026-04-23T21:23:02.797Z</time></trkpt><trkpt lat="45.4089287" lon="10.5397821"><ele>133.0</ele><time>2026-04-23T21:23:10.808Z</time></trkpt><trkpt lat="45.4089724" lon="10.5398617"><ele>133.0</ele><time>2026-04-23T21:23:17.802Z</time></trkpt><trkpt lat="45.4089508" lon="10.5397634"><ele>133.0</ele><time>2026-04-23T21:25:40.803Z</time></trkpt><trkpt lat="45.4089152" lon="10.5398384"><ele>133.0</ele><time>2026-04-23T21:26:59.807Z</time></trkpt><trkpt lat="45.4089571" lon="10.5397566"><ele>133.0</ele><time>2026-04-23T21:28:04.81Z</time></trkpt><trkpt lat="45.4090233" lon="10.5397822"><ele>133.0</ele><time>2026-04-23T21:29:10.804Z</time></trkpt><trkpt lat="45.4089568" lon="10.5397793"><ele>133.0</ele><time>2026-04-23T21:30:41.804Z</time></trkpt><trkpt lat="45.408994" lon="10.5398586"><ele>133.0</ele><time>2026-04-23T21:31:06.801Z</time></trkpt><trkpt lat="45.4089618" lon="10.53977"><ele>133.0</ele><time>2026-04-23T21:31:23.8Z</time></trkpt><trkpt lat="45.4090446" lon="10.5398194"><ele>133.0</ele><time>2026-04-23T21:33:12.808Z</time></trkpt><trkpt lat="45.4090973" lon="10.5398836"><ele>133.0</ele><time>2026-04-23T21:33:31.801Z</time></trkpt><trkpt lat="45.4090151" lon="10.5398419"><ele>133.0</ele><time>2026-04-23T21:34:07.808Z</time></trkpt><trkpt lat="45.409129" lon="10.5399626"><ele>133.0</ele><time>2026-04-23T21:34:52.801Z</time></trkpt><trkpt lat="45.4091537" lon="10.5398747"><ele>133.0</ele><time>2026-04-23T21:35:07.809Z</time></trkpt><trkpt lat="45.4090837" lon="10.5398327"><ele>133.0</ele><time>2026-04-23T21:35:14.804Z</time></trkpt><trkpt lat="45.4090142" lon="10.5399033"><ele>133.0</ele><time>2026-04-23T21:37:09.809Z</time></trkpt><trkpt lat="45.4089784" lon="10.5398237"><ele>133.0</ele><time>2026-04-23T21:37:18.804Z</time></trkpt><trkpt lat="45.4089118" lon="10.5398313"><ele>133.0</ele><time>2026-04-23T21:37:23.803Z</time></trkpt><trkpt lat="45.4088473" lon="10.5398"><ele>133.0</ele><time>2026-04-23T21:37:34.806Z</time></trkpt><trkpt lat="45.4088015" lon="10.5397381"><ele>133.0</ele><time>2026-04-23T21:37:36.8Z</time></trkpt><trkpt lat="45.4087782" lon="10.5396531"><ele>133.0</ele><time>2026-04-23T21:37:40.811Z</time></trkpt><trkpt lat="45.4087706" lon="10.5397457"><ele>133.0</ele><time>2026-04-23T21:37:53.799Z</time></trkpt><trkpt lat="45.4088437" lon="10.5397262"><ele>133.0</ele><time>2026-04-23T21:38:01.802Z</time></trkpt><trkpt lat="45.4088934" lon="10.5396616"><ele>133.0</ele><time>2026-04-23T21:38:05.806Z</time></trkpt><trkpt lat="45.4089469" lon="10.5397288"><ele>133.0</ele><time>2026-04-23T21:38:12.809Z</time></trkpt><trkpt lat="45.4089481" lon="10.5398537"><ele>133.0</ele><time>2026-04-23T21:38:26.803Z</time></trkpt><trkpt lat="45.4089879" lon="10.5399812"><ele>133.0</ele><time>2026-04-23T21:38:44.81Z</time></trkpt><trkpt lat="45.4089827" lon="10.5400926"><ele>133.0</ele><time>2026-04-23T21:38:47.804Z</time></trkpt><trkpt lat="45.4090154" lon="10.53996"><ele>133.0</ele><time>2026-04-23T21:38:48.801Z</time></trkpt><trkpt lat="45.4089907" lon="10.5398757"><ele>133.0</ele><time>2026-04-23T21:38:59.799Z</time></trkpt><trkpt lat="45.4090618" lon="10.5398405"><ele>133.0</ele><time>2026-04-23T21:39:58.809Z</time></trkpt><trkpt lat="45.4090193" lon="10.5399549"><ele>133.0</ele><time>2026-04-23T21:40:38.803Z</time></trkpt><trkpt lat="45.4090231" lon="10.5398651"><ele>133.0</ele><time>2026-04-23T21:40:41.808Z</time></trkpt><trkpt lat="45.4089801" lon="10.5397782"><ele>133.0</ele><time>2026-04-23T21:40:45.804Z</time></trkpt><trkpt lat="45.4090183" lon="10.5397013"><ele>133.0</ele><time>2026-04-23T21:42:31.8Z</time></trkpt><trkpt lat="45.4090891" lon="10.539779"><ele>133.0</ele><time>2026-04-23T21:43:09.802Z</time></trkpt><trkpt lat="45.4090919" lon="10.5398888"><ele>133.0</ele><time>2026-04-23T21:43:18.799Z</time></trkpt><trkpt lat="45.4090474" lon="10.5397805"><ele>133.0</ele><time>2026-04-23T21:43:22.808Z</time></trkpt><trkpt lat="45.4090055" lon="10.5397004"><ele>133.0</ele><time>2026-04-23T21:43:27.798Z</time></trkpt><trkpt lat="45.4089619" lon="10.5396165"><ele>133.0</ele><time>2026-04-23T21:43:30.809Z</time></trkpt><trkpt lat="45.4089701" lon="10.5397212"><ele>133.0</ele><time>2026-04-23T21:44:05.803Z</time></trkpt><trkpt lat="45.4089051" lon="10.5397298"><ele>133.0</ele><time>2026-04-23T21:44:29.802Z</time></trkpt><trkpt lat="45.4089229" lon="10.5396394"><ele>133.0</ele><time>2026-04-23T21:45:27.803Z</time></trkpt><trkpt lat="45.4090099" lon="10.5396247"><ele>133.0</ele><time>2026-04-23T21:45:43.81Z</time></trkpt><trkpt lat="45.4089313" lon="10.5396731"><ele>133.0</ele><time>2026-04-23T21:45:48.798Z</time></trkpt><trkpt lat="45.4089298" lon="10.5397913"><ele>133.0</ele><time>2026-04-23T21:45:54.81Z</time></trkpt><trkpt lat="45.4089419" lon="10.5398955"><ele>133.0</ele><time>2026-04-23T21:45:59.809Z</time></trkpt><trkpt lat="45.4089994" lon="10.5399525"><ele>133.0</ele><time>2026-04-23T21:46:07.8Z</time></trkpt><trkpt lat="45.40907" lon="10.5399092"><ele>133.0</ele><time>2026-04-23T21:46:11.809Z</time></trkpt><trkpt lat="45.4091355" lon="10.5399148"><ele>133.0</ele><time>2026-04-23T21:46:17.802Z</time></trkpt><trkpt lat="45.4091881" lon="10.5398634"><ele>133.0</ele><time>2026-04-23T21:46:24.809Z</time></trkpt><trkpt lat="45.4091673" lon="10.5397708"><ele>133.0</ele><time>2026-04-23T21:46:31.8Z</time></trkpt><trkpt lat="45.409133" lon="10.5396818"><ele>133.0</ele><time>2026-04-23T21:46:34.804Z</time></trkpt><trkpt lat="45.4090695" lon="10.5395993"><ele>133.0</ele><time>2026-04-23T21:46:44.807Z</time></trkpt><trkpt lat="45.4091431" lon="10.5396746"><ele>133.0</ele><time>2026-04-23T21:47:11.802Z</time></trkpt><trkpt lat="45.4091352" lon="10.5398258"><ele>133.0</ele><time>2026-04-23T21:47:14.81Z</time></trkpt><trkpt lat="45.4090676" lon="10.5398428"><ele>133.0</ele><time>2026-04-23T21:47:18.802Z</time></trkpt><trkpt lat="45.4089829" lon="10.5397632"><ele>133.0</ele><time>2026-04-23T21:47:20.803Z</time></trkpt><trkpt lat="45.4089259" lon="10.5398193"><ele>133.0</ele><time>2026-04-23T21:47:35.805Z</time></trkpt><trkpt lat="45.4088985" lon="10.5399146"><ele>133.0</ele><time>2026-04-23T21:47:41.805Z</time></trkpt><trkpt lat="45.4088484" lon="10.5398485"><ele>133.0</ele><time>2026-04-23T21:47:52.8Z</time></trkpt><trkpt lat="45.4088053" lon="10.5397702"><ele>133.0</ele><time>2026-04-23T21:47:54.804Z</time></trkpt><trkpt lat="45.4087557" lon="10.5398361"><ele>133.0</ele><time>2026-04-23T21:48:01.916Z</time></trkpt><trkpt lat="45.4087077" lon="10.5399572"><ele>133.0</ele><time>2026-04-23T21:48:03.808Z</time></trkpt><trkpt lat="45.4087644" lon="10.5400099"><ele>133.0</ele><time>2026-04-23T21:48:11.805Z</time></trkpt><trkpt lat="45.4088256" lon="10.5399294"><ele>133.0</ele><time>2026-04-23T21:48:14.805Z</time></trkpt><trkpt lat="45.4088767" lon="10.539829"><ele>133.0</ele><time>2026-04-23T21:48:18.802Z</time></trkpt><trkpt lat="45.4089393" lon="10.5397744"><ele>133.0</ele><time>2026-04-23T21:48:20.808Z</time></trkpt><trkpt lat="45.4090007" lon="10.5397359"><ele>133.0</ele><time>2026-04-23T21:48:22.807Z</time></trkpt><trkpt lat="45.4090576" lon="10.5396068"><ele>133.0</ele><time>2026-04-23T21:48:27.802Z</time></trkpt><trkpt lat="45.4090901" lon="10.5394771"><ele>132.20000000000002</ele><time>2026-04-23T21:48:30.805Z</time></trkpt><trkpt lat="45.4091033" lon="10.539381"><ele>131.4</ele><time>2026-04-23T21:48:31.805Z</time></trkpt><trkpt lat="45.4091078" lon="10.539253"><ele>130.60000000000002</ele><time>2026-04-23T21:48:32.804Z</time></trkpt><trkpt lat="45.4091459" lon="10.5390537"><ele>129.8</ele><time>2026-04-23T21:48:33.8Z</time></trkpt><trkpt lat="45.4091229" lon="10.5391716"><ele>129.0</ele><time>2026-04-23T21:48:38.803Z</time></trkpt><trkpt lat="45.409149" lon="10.5392838"><ele>129.0</ele><time>2026-04-23T21:48:40.805Z</time></trkpt><trkpt lat="45.4091508" lon="10.5394368"><ele>129.0</ele><time>2026-04-23T21:48:42.809Z</time></trkpt><trkpt lat="45.4091143" lon="10.5395107"><ele>129.0</ele><time>2026-04-23T21:48:44.806Z</time></trkpt><trkpt lat="45.4090484" lon="10.5397468"><ele>129.0</ele><time>2026-04-23T21:48:45.803Z</time></trkpt><trkpt lat="45.4090052" lon="10.5398749"><ele>129.0</ele><time>2026-04-23T21:48:46.803Z</time></trkpt><trkpt lat="45.4089748" lon="10.5397655"><ele>129.66666666666666</ele><time>2026-04-23T21:49:06.799Z</time></trkpt><trkpt lat="45.4089202" lon="10.5396868"><ele>130.33333333333334</ele><time>2026-04-23T21:49:08.808Z</time></trkpt><trkpt lat="45.4088252" lon="10.5396566"><ele>131.0</ele><time>2026-04-23T21:49:10.804Z</time></trkpt><trkpt lat="45.4087471" lon="10.5396444"><ele>131.66666666666669</ele><time>2026-04-23T21:49:11.81Z</time></trkpt><trkpt lat="45.408821" lon="10.5396953"><ele>132.33333333333334</ele><time>2026-04-23T21:49:28.806Z</time></trkpt><trkpt lat="45.4089077" lon="10.5396528"><ele>133.0</ele><time>2026-04-23T21:49:32.906Z</time></trkpt><trkpt lat="45.4089781" lon="10.5396876"><ele>133.0</ele><time>2026-04-23T21:49:38.797Z</time></trkpt><trkpt lat="45.4089574" lon="10.5398025"><ele>133.0</ele><time>2026-04-23T21:49:46.8Z</time></trkpt><trkpt lat="45.4089744" lon="10.5398922"><ele>133.0</ele><time>2026-04-23T21:49:52.807Z</time></trkpt><trkpt lat="45.4089115" lon="10.5399306"><ele>133.0</ele><time>2026-04-23T21:49:59.81Z</time></trkpt><trkpt lat="45.4088522" lon="10.5398683"><ele>133.0</ele><time>2026-04-23T21:50:04.802Z</time></trkpt><trkpt lat="45.4088269" lon="10.539715"><ele>133.0</ele><time>2026-04-23T21:50:06.803Z</time></trkpt><trkpt lat="45.4088851" lon="10.5397801"><ele>133.0</ele><time>2026-04-23T21:50:14.807Z</time></trkpt><trkpt lat="45.4089784" lon="10.5398608"><ele>133.0</ele><time>2026-04-23T21:50:22.809Z</time></trkpt><trkpt lat="45.4090251" lon="10.5399263"><ele>133.0</ele><time>2026-04-23T21:50:32.804Z</time></trkpt><trkpt lat="45.4089733" lon="10.5400246"><ele>133.0</ele><time>2026-04-23T21:50:46.811Z</time></trkpt><trkpt lat="45.4088968" lon="10.5399773"><ele>133.0</ele><time>2026-04-23T21:50:51.803Z</time></trkpt><trkpt lat="45.4089682" lon="10.5400515"><ele>133.0</ele><time>2026-04-23T21:51:00.801Z</time></trkpt><trkpt lat="45.4090173" lon="10.5399365"><ele>133.0</ele><time>2026-04-23T21:51:08.799Z</time></trkpt><trkpt lat="45.4091338" lon="10.5398419"><ele>133.0</ele><time>2026-04-23T21:51:24.8Z</time></trkpt><trkpt lat="45.4090741" lon="10.5398837"><ele>133.0</ele><time>2026-04-23T21:51:51.801Z</time></trkpt><trkpt lat="45.4090166" lon="10.5398267"><ele>133.0</ele><time>2026-04-23T21:51:59.809Z</time></trkpt><trkpt lat="45.4089704" lon="10.5397632"><ele>133.0</ele><time>2026-04-23T21:52:08.809Z</time></trkpt><trkpt lat="45.4090008" lon="10.5396572"><ele>133.0</ele><time>2026-04-23T21:53:32.811Z</time></trkpt><trkpt lat="45.4089595" lon="10.5397299"><ele>133.0</ele><time>2026-04-23T21:53:49.808Z</time></trkpt><trkpt lat="45.4089454" lon="10.5398206"><ele>133.0</ele><time>2026-04-23T21:54:37.809Z</time></trkpt><trkpt lat="45.4090162" lon="10.5398377"><ele>133.0</ele><time>2026-04-23T21:54:55.799Z</time></trkpt><trkpt lat="45.4090655" lon="10.5399044"><ele>133.0</ele><time>2026-04-23T21:55:59.803Z</time></trkpt><trkpt lat="45.4090353" lon="10.539807"><ele>133.0</ele><time>2026-04-23T21:56:35.805Z</time></trkpt><trkpt lat="45.4090763" lon="10.539878"><ele>133.0</ele><time>2026-04-23T21:57:19.811Z</time></trkpt><trkpt lat="45.4091324" lon="10.5399418"><ele>133.0</ele><time>2026-04-23T21:57:22.801Z</time></trkpt><trkpt lat="45.4091111" lon="10.5398557"><ele>133.0</ele><time>2026-04-23T21:57:40.801Z</time></trkpt><trkpt lat="45.4090065" lon="10.5398908"><ele>133.0</ele><time>2026-04-23T21:57:52.809Z</time></trkpt><trkpt lat="45.4090092" lon="10.5399916"><ele>133.0</ele><time>2026-04-23T21:58:09.808Z</time></trkpt><trkpt lat="45.4089722" lon="10.5398949"><ele>133.0</ele><time>2026-04-23T21:58:16.815Z</time></trkpt><trkpt lat="45.4089803" lon="10.5397965"><ele>133.0</ele><time>2026-04-23T21:58:20.799Z</time></trkpt><trkpt lat="45.4090138" lon="10.5398812"><ele>133.0</ele><time>2026-04-23T21:58:26.808Z</time></trkpt><trkpt lat="45.4090719" lon="10.5398358"><ele>133.0</ele><time>2026-04-23T21:58:33.804Z</time></trkpt><trkpt lat="45.4091299" lon="10.5398831"><ele>133.0</ele><time>2026-04-23T21:58:38.808Z</time></trkpt><trkpt lat="45.4090681" lon="10.5399116"><ele>133.0</ele><time>2026-04-23T21:59:16.801Z</time></trkpt><trkpt lat="45.4090131" lon="10.5397989"><ele>133.0</ele><time>2026-04-23T21:59:31.812Z</time></trkpt><trkpt lat="45.4090569" lon="10.5397194"><ele>133.0</ele><time>2026-04-23T21:59:42.804Z</time></trkpt><trkpt lat="45.4089985" lon="10.5396534"><ele>133.0</ele><time>2026-04-23T21:59:48.807Z</time></trkpt><trkpt lat="45.4089539" lon="10.5397349"><ele>133.0</ele><time>2026-04-23T21:59:54.803Z</time></trkpt><trkpt lat="45.4088979" lon="10.539809"><ele>133.0</ele><time>2026-04-23T21:59:59.799Z</time></trkpt><trkpt lat="45.4088558" lon="10.5399109"><ele>133.0</ele><time>2026-04-23T22:00:10.807Z</time></trkpt><trkpt lat="45.4088925" lon="10.5398371"><ele>133.0</ele><time>2026-04-23T22:00:30.801Z</time></trkpt><trkpt lat="45.4089614" lon="10.5398258"><ele>133.0</ele><time>2026-04-23T22:00:36.803Z</time></trkpt><trkpt lat="45.4090242" lon="10.5398473"><ele>133.0</ele><time>2026-04-23T22:00:42.804Z</time></trkpt><trkpt lat="45.4089633" lon="10.5398178"><ele>133.0</ele><time>2026-04-23T22:00:57.796Z</time></trkpt><trkpt lat="45.4090533" lon="10.53984"><ele>133.0</ele><time>2026-04-23T22:01:01.811Z</time></trkpt><trkpt lat="45.4091188" lon="10.5398614"><ele>133.0</ele><time>2026-04-23T22:01:03.8Z</time></trkpt><trkpt lat="45.4091961" lon="10.5398831"><ele>133.0</ele><time>2026-04-23T22:01:08.801Z</time></trkpt><trkpt lat="45.4093588" lon="10.5398716"><ele>133.0</ele><time>2026-04-23T22:01:24.809Z</time></trkpt><trkpt lat="45.4092937" lon="10.5398668"><ele>133.0</ele><time>2026-04-23T22:01:26.804Z</time></trkpt><trkpt lat="45.4092255" lon="10.5398451"><ele>133.0</ele><time>2026-04-23T22:01:32.809Z</time></trkpt><trkpt lat="45.4091646" lon="10.539787"><ele>133.0</ele><time>2026-04-23T22:01:52.804Z</time></trkpt><trkpt lat="45.4090881" lon="10.5397984"><ele>133.0</ele><time>2026-04-23T22:02:02.796Z</time></trkpt><trkpt lat="45.409038" lon="10.5398535"><ele>133.0</ele><time>2026-04-23T22:02:36.802Z</time></trkpt><trkpt lat="45.4089682" lon="10.5399247"><ele>133.0</ele><time>2026-04-23T22:02:42.794Z</time></trkpt><trkpt lat="45.4088962" lon="10.5398656"><ele>133.0</ele><time>2026-04-23T22:03:16.81Z</time></trkpt><trkpt lat="45.4089444" lon="10.5397916"><ele>133.0</ele><time>2026-04-23T22:04:02.802Z</time></trkpt><trkpt lat="45.4090194" lon="10.5398363"><ele>133.0</ele><time>2026-04-23T22:04:26.81Z</time></trkpt><trkpt lat="45.4090118" lon="10.5397322"><ele>133.0</ele><time>2026-04-23T22:04:35.797Z</time></trkpt><trkpt lat="45.4089669" lon="10.5398076"><ele>133.0</ele><time>2026-04-23T22:05:07.948Z</time></trkpt><trkpt lat="45.4089165" lon="10.539894"><ele>133.0</ele><time>2026-04-23T22:05:11.803Z</time></trkpt><trkpt lat="45.408853" lon="10.5398812"><ele>133.0</ele><time>2026-04-23T22:05:23.805Z</time></trkpt><trkpt lat="45.4088942" lon="10.5397599"><ele>133.0</ele><time>2026-04-23T22:05:39.804Z</time></trkpt><trkpt lat="45.408955" lon="10.5397855"><ele>133.0</ele><time>2026-04-23T22:05:44.799Z</time></trkpt><trkpt lat="45.4090451" lon="10.5398105"><ele>133.0</ele><time>2026-04-23T22:05:50.8Z</time></trkpt><trkpt lat="45.4089915" lon="10.5398994"><ele>133.0</ele><time>2026-04-23T22:06:08.804Z</time></trkpt><trkpt lat="45.4089249" lon="10.5398774"><ele>133.0</ele><time>2026-04-23T22:06:37.809Z</time></trkpt><trkpt lat="45.408969" lon="10.5398116"><ele>133.0</ele><time>2026-04-23T22:07:16.808Z</time></trkpt><trkpt lat="45.4089522" lon="10.5399033"><ele>133.0</ele><time>2026-04-23T22:07:29.801Z</time></trkpt><trkpt lat="45.4089118" lon="10.5398302"><ele>133.0</ele><time>2026-04-23T22:07:47.801Z</time></trkpt><trkpt lat="45.4089361" lon="10.5397335"><ele>133.0</ele><time>2026-04-23T22:08:04.805Z</time></trkpt><trkpt lat="45.4089939" lon="10.539785"><ele>133.0</ele><time>2026-04-23T22:08:44.804Z</time></trkpt><trkpt lat="45.4089222" lon="10.5397918"><ele>133.0</ele><time>2026-04-23T22:09:45.801Z</time></trkpt><trkpt lat="45.4089849" lon="10.5398057"><ele>133.0</ele><time>2026-04-23T22:11:26.801Z</time></trkpt><trkpt lat="45.4090446" lon="10.5398609"><ele>133.0</ele><time>2026-04-23T22:11:36.804Z</time></trkpt><trkpt lat="45.4090216" lon="10.5399473"><ele>133.0</ele><time>2026-04-23T22:12:30.802Z</time></trkpt><trkpt lat="45.4089687" lon="10.5398936"><ele>133.0</ele><time>2026-04-23T22:12:40.807Z</time></trkpt><trkpt lat="45.4088721" lon="10.539852"><ele>133.0</ele><time>2026-04-23T22:12:49.805Z</time></trkpt><trkpt lat="45.408985" lon="10.5398393"><ele>133.0</ele><time>2026-04-23T22:13:19.795Z</time></trkpt><trkpt lat="45.408921" lon="10.5398107"><ele>133.0</ele><time>2026-04-23T22:13:27.792Z</time></trkpt><trkpt lat="45.4089908" lon="10.5397963"><ele>133.0</ele><time>2026-04-23T22:13:43.801Z</time></trkpt><trkpt lat="45.4089299" lon="10.5398432"><ele>133.0</ele><time>2026-04-23T22:14:05.803Z</time></trkpt><trkpt lat="45.4089955" lon="10.5398214"><ele>133.0</ele><time>2026-04-23T22:14:48.801Z</time></trkpt><trkpt lat="45.4090836" lon="10.53983"><ele>133.0</ele><time>2026-04-23T22:14:53.81Z</time></trkpt><trkpt lat="45.4090718" lon="10.5399287"><ele>133.0</ele><time>2026-04-23T22:14:59.805Z</time></trkpt><trkpt lat="45.4090393" lon="10.5398492"><ele>133.0</ele><time>2026-04-23T22:15:36.807Z</time></trkpt><trkpt lat="45.4089976" lon="10.5397163"><ele>133.0</ele><time>2026-04-23T22:15:58.803Z</time></trkpt><trkpt lat="45.4089723" lon="10.5397993"><ele>133.0</ele><time>2026-04-23T22:16:06.803Z</time></trkpt><trkpt lat="45.4089689" lon="10.5398996"><ele>133.0</ele><time>2026-04-23T22:16:19.798Z</time></trkpt><trkpt lat="45.408893" lon="10.5398195"><ele>133.0</ele><time>2026-04-23T22:16:36.801Z</time></trkpt><trkpt lat="45.4089663" lon="10.5398088"><ele>133.0</ele><time>2026-04-23T22:17:15.802Z</time></trkpt><trkpt lat="45.4089047" lon="10.5397869"><ele>133.0</ele><time>2026-04-23T22:17:43.803Z</time></trkpt><trkpt lat="45.4089755" lon="10.5397288"><ele>133.0</ele><time>2026-04-23T22:18:02.808Z</time></trkpt><trkpt lat="45.4089183" lon="10.5396567"><ele>133.0</ele><time>2026-04-23T22:18:07.798Z</time></trkpt><trkpt lat="45.4088525" lon="10.5397119"><ele>133.0</ele><time>2026-04-23T22:18:12.797Z</time></trkpt><trkpt lat="45.4089169" lon="10.5397043"><ele>133.0</ele><time>2026-04-23T22:18:33.804Z</time></trkpt><trkpt lat="45.4089222" lon="10.539805"><ele>133.0</ele><time>2026-04-23T22:18:43.808Z</time></trkpt><trkpt lat="45.408909" lon="10.5399167"><ele>133.0</ele><time>2026-04-23T22:18:52.807Z</time></trkpt><trkpt lat="45.4089552" lon="10.539855"><ele>133.0</ele><time>2026-04-23T22:19:11.8Z</time></trkpt><trkpt lat="45.4090261" lon="10.5398261"><ele>133.0</ele><time>2026-04-23T22:19:20.802Z</time></trkpt><trkpt lat="45.4089487" lon="10.5397928"><ele>133.0</ele><time>2026-04-23T22:19:26.8Z</time></trkpt><trkpt lat="45.4088575" lon="10.5397864"><ele>133.0</ele><time>2026-04-23T22:19:39.807Z</time></trkpt><trkpt lat="45.4088575" lon="10.5396882"><ele>133.0</ele><time>2026-04-23T22:19:49.801Z</time></trkpt><trkpt lat="45.4088637" lon="10.5395982"><ele>133.0</ele><time>2026-04-23T22:19:53.807Z</time></trkpt><trkpt lat="45.4087927" lon="10.5395786"><ele>133.0</ele><time>2026-04-23T22:19:55.811Z</time></trkpt><trkpt lat="45.4088521" lon="10.5396106"><ele>133.0</ele><time>2026-04-23T22:19:59.799Z</time></trkpt><trkpt lat="45.4089033" lon="10.5397088"><ele>133.0</ele><time>2026-04-23T22:20:09.799Z</time></trkpt><trkpt lat="45.4088149" lon="10.5396797"><ele>133.0</ele><time>2026-04-23T22:20:17.8Z</time></trkpt><trkpt lat="45.4088728" lon="10.539632"><ele>133.0</ele><time>2026-04-23T22:20:52.807Z</time></trkpt><trkpt lat="45.4089002" lon="10.5395129"><ele>133.0</ele><time>2026-04-23T22:20:54.803Z</time></trkpt><trkpt lat="45.4089384" lon="10.5394242"><ele>133.0</ele><time>2026-04-23T22:20:57.799Z</time></trkpt><trkpt lat="45.4090267" lon="10.5398911"><ele>133.0</ele><time>2026-04-23T22:21:40.146Z</time></trkpt><trkpt lat="45.4091264" lon="10.5398104"><ele>133.0</ele><time>2026-04-23T22:24:05.801Z</time></trkpt><trkpt lat="45.4092673" lon="10.539854"><ele>133.0</ele><time>2026-04-23T22:24:06.797Z</time></trkpt><trkpt lat="45.4092124" lon="10.5397886"><ele>133.0</ele><time>2026-04-23T22:24:17.804Z</time></trkpt><trkpt lat="45.4090541" lon="10.5397827"><ele>133.0</ele><time>2026-04-23T22:24:22.8Z</time></trkpt><trkpt lat="45.4089737" lon="10.5397726"><ele>133.0</ele><time>2026-04-23T22:24:23.799Z</time></trkpt><trkpt lat="45.4090432" lon="10.5397936"><ele>133.0</ele><time>2026-04-23T22:24:30.799Z</time></trkpt><trkpt lat="45.409119" lon="10.5398144"><ele>133.0</ele><time>2026-04-23T22:24:35.808Z</time></trkpt><trkpt lat="45.4091999" lon="10.5398521"><ele>133.0</ele><time>2026-04-23T22:24:36.808Z</time></trkpt><trkpt lat="45.4092528" lon="10.5399076"><ele>133.0</ele><time>2026-04-23T22:24:42.807Z</time></trkpt><trkpt lat="45.4091863" lon="10.5399004"><ele>133.0</ele><time>2026-04-23T22:24:54.802Z</time></trkpt><trkpt lat="45.4090837" lon="10.5398846"><ele>133.0</ele><time>2026-04-23T22:24:56.802Z</time></trkpt><trkpt lat="45.4090232" lon="10.5398298"><ele>133.0</ele><time>2026-04-23T22:25:27.801Z</time></trkpt><trkpt lat="45.4089403" lon="10.5398135"><ele>133.0</ele><time>2026-04-23T22:25:28.802Z</time></trkpt><trkpt lat="45.4088678" lon="10.5397996"><ele>133.0</ele><time>2026-04-23T22:25:29.798Z</time></trkpt><trkpt lat="45.408785" lon="10.5397939"><ele>133.0</ele><time>2026-04-23T22:25:31.811Z</time></trkpt><trkpt lat="45.4088864" lon="10.5398132"><ele>133.0</ele><time>2026-04-23T22:25:34.81Z</time></trkpt><trkpt lat="45.4087985" lon="10.5398597"><ele>131.5</ele><time>2026-04-23T22:27:00.805Z</time></trkpt><trkpt lat="45.4087264" lon="10.5398431"><ele>130.0</ele><time>2026-04-23T22:27:01.8Z</time></trkpt><trkpt lat="45.4086631" lon="10.5398251"><ele>128.5</ele><time>2026-04-23T22:27:02.809Z</time></trkpt><trkpt lat="45.4085395" lon="10.5398008"><ele>127.0</ele><time>2026-04-23T22:27:04.803Z</time></trkpt><trkpt lat="45.4086035" lon="10.5398176"><ele>125.50000000000001</ele><time>2026-04-23T22:27:18.805Z</time></trkpt><trkpt lat="45.4086894" lon="10.5398165"><ele>124.0</ele><time>2026-04-23T22:27:22.799Z</time></trkpt><trkpt lat="45.4087869" lon="10.5398278"><ele>124.0</ele><time>2026-04-23T22:27:37.798Z</time></trkpt><trkpt lat="45.4087483" lon="10.5397419"><ele>124.0</ele><time>2026-04-23T22:27:45.801Z</time></trkpt><trkpt lat="45.4087371" lon="10.5396462"><ele>124.0</ele><time>2026-04-23T22:27:54.801Z</time></trkpt><trkpt lat="45.4088021" lon="10.5396989"><ele>124.0</ele><time>2026-04-23T22:28:54.803Z</time></trkpt><trkpt lat="45.4088995" lon="10.539736"><ele>124.0</ele><time>2026-04-23T22:29:30.81Z</time></trkpt><trkpt lat="45.409041" lon="10.5398065"><ele>125.0</ele><time>2026-04-23T22:30:06.798Z</time></trkpt><trkpt lat="45.4089371" lon="10.5398037"><ele>126.0</ele><time>2026-04-23T22:30:15.802Z</time></trkpt><trkpt lat="45.4090086" lon="10.5398254"><ele>127.0</ele><time>2026-04-23T22:31:34.803Z</time></trkpt><trkpt lat="45.4089982" lon="10.5396785"><ele>128.0</ele><time>2026-04-23T22:32:11.806Z</time></trkpt><trkpt lat="45.4089854" lon="10.5395268"><ele>129.0</ele><time>2026-04-23T22:32:18.811Z</time></trkpt><trkpt lat="45.4089669" lon="10.539634"><ele>129.66666666666666</ele><time>2026-04-23T22:32:43.808Z</time></trkpt><trkpt lat="45.4090129" lon="10.5397382"><ele>130.33333333333334</ele><time>2026-04-23T22:32:49.796Z</time></trkpt><trkpt lat="45.4090149" lon="10.5398484"><ele>131.0</ele><time>2026-04-23T22:33:21.798Z</time></trkpt><trkpt lat="45.4089631" lon="10.5397221"><ele>131.66666666666669</ele><time>2026-04-23T22:33:42.804Z</time></trkpt><trkpt lat="45.4089316" lon="10.5398015"><ele>132.33333333333334</ele><time>2026-04-23T22:33:47.799Z</time></trkpt><trkpt lat="45.4088582" lon="10.5397992"><ele>133.0</ele><time>2026-04-23T22:35:19.803Z</time></trkpt><trkpt lat="45.40898" lon="10.539892"><ele>133.0</ele><time>2026-04-23T22:35:46.806Z</time></trkpt><trkpt lat="45.4090669" lon="10.5398726"><ele>133.0</ele><time>2026-04-23T22:36:29.802Z</time></trkpt><trkpt lat="45.4090038" lon="10.5398424"><ele>133.0</ele><time>2026-04-23T22:37:24.808Z</time></trkpt><trkpt lat="45.4089346" lon="10.5398185"><ele>133.0</ele><time>2026-04-23T22:37:52.797Z</time></trkpt><trkpt lat="45.4088504" lon="10.5398261"><ele>133.0</ele><time>2026-04-23T22:38:09.799Z</time></trkpt><trkpt lat="45.4088941" lon="10.5399414"><ele>133.0</ele><time>2026-04-23T22:39:02.808Z</time></trkpt><trkpt lat="45.4088338" lon="10.5398995"><ele>133.0</ele><time>2026-04-23T22:39:15.801Z</time></trkpt><trkpt lat="45.4089039" lon="10.5399236"><ele>133.0</ele><time>2026-04-23T22:39:32.807Z</time></trkpt><trkpt lat="45.408968" lon="10.5399335"><ele>133.0</ele><time>2026-04-23T22:39:44.802Z</time></trkpt><trkpt lat="45.4089875" lon="10.5398304"><ele>133.0</ele><time>2026-04-23T22:39:56.808Z</time></trkpt><trkpt lat="45.4090498" lon="10.5398924"><ele>133.0</ele><time>2026-04-23T22:40:05.801Z</time></trkpt><trkpt lat="45.4090877" lon="10.539811"><ele>133.0</ele><time>2026-04-23T22:40:16.809Z</time></trkpt><trkpt lat="45.4090044" lon="10.539818"><ele>133.0</ele><time>2026-04-23T22:40:23.806Z</time></trkpt><trkpt lat="45.4089411" lon="10.5398107"><ele>133.0</ele><time>2026-04-23T22:45:42.808Z</time></trkpt><trkpt lat="45.4089972" lon="10.5398941"><ele>133.0</ele><time>2026-04-23T22:45:55.797Z</time></trkpt><trkpt lat="45.4089439" lon="10.5399432"><ele>133.0</ele><time>2026-04-23T22:46:08.81Z</time></trkpt><trkpt lat="45.408985" lon="10.5400241"><ele>133.0</ele><time>2026-04-23T22:46:14.8Z</time></trkpt><trkpt lat="45.4089933" lon="10.5399285"><ele>133.0</ele><time>2026-04-23T22:46:39.802Z</time></trkpt><trkpt lat="45.4089856" lon="10.5398377"><ele>133.0</ele><time>2026-04-23T22:47:26.798Z</time></trkpt><trkpt lat="45.4090469" lon="10.5398837"><ele>133.0</ele><time>2026-04-23T22:50:01.809Z</time></trkpt><trkpt lat="45.4089855" lon="10.5399119"><ele>133.0</ele><time>2026-04-23T22:50:13.8Z</time></trkpt><trkpt lat="45.4089211" lon="10.5398476"><ele>133.0</ele><time>2026-04-23T22:50:15.798Z</time></trkpt><trkpt lat="45.4088705" lon="10.5399046"><ele>133.0</ele><time>2026-04-23T22:50:24.876Z</time></trkpt><trkpt lat="45.4088932" lon="10.5398192"><ele>133.0</ele><time>2026-04-23T22:50:45.806Z</time></trkpt><trkpt lat="45.4089619" lon="10.5398069"><ele>133.0</ele><time>2026-04-23T22:53:16.801Z</time></trkpt><trkpt lat="45.4088964" lon="10.5398041"><ele>133.0</ele><time>2026-04-23T22:54:00.804Z</time></trkpt><trkpt lat="45.4089713" lon="10.5397351"><ele>133.0</ele><time>2026-04-23T22:55:08.799Z</time></trkpt><trkpt lat="45.4089031" lon="10.5397382"><ele>133.0</ele><time>2026-04-23T22:55:19.812Z</time></trkpt><trkpt lat="45.4088272" lon="10.5397405"><ele>133.0</ele><time>2026-04-23T22:55:24.797Z</time></trkpt><trkpt lat="45.4088862" lon="10.5397733"><ele>133.0</ele><time>2026-04-23T22:55:32.801Z</time></trkpt><trkpt lat="45.4089777" lon="10.5398266"><ele>133.0</ele><time>2026-04-23T22:56:01.807Z</time></trkpt><trkpt lat="45.4089506" lon="10.5397404"><ele>133.0</ele><time>2026-04-23T22:56:28.797Z</time></trkpt><trkpt lat="45.4089949" lon="10.5398347"><ele>133.0</ele><time>2026-04-23T22:57:15.803Z</time></trkpt><trkpt lat="45.4090447" lon="10.5399666"><ele>133.0</ele><time>2026-04-23T22:57:30.796Z</time></trkpt><trkpt lat="45.408989" lon="10.5399129"><ele>133.0</ele><time>2026-04-23T22:57:50.801Z</time></trkpt><trkpt lat="45.4089771" lon="10.5398246"><ele>133.0</ele><time>2026-04-23T22:58:19.805Z</time></trkpt><trkpt lat="45.4088852" lon="10.5398104"><ele>133.0</ele><time>2026-04-23T22:58:26.8Z</time></trkpt><trkpt lat="45.408922" lon="10.5398948"><ele>133.0</ele><time>2026-04-23T22:59:09.802Z</time></trkpt><trkpt lat="45.4088433" lon="10.5398369"><ele>133.0</ele><time>2026-04-23T22:59:58.804Z</time></trkpt><trkpt lat="45.4089027" lon="10.5397855"><ele>133.0</ele><time>2026-04-23T23:00:58.799Z</time></trkpt><trkpt lat="45.4090105" lon="10.5397645"><ele>133.0</ele><time>2026-04-23T23:01:59.811Z</time></trkpt><trkpt lat="45.4089338" lon="10.5397703"><ele>133.0</ele><time>2026-04-23T23:02:30.808Z</time></trkpt><trkpt lat="45.4088513" lon="10.5398039"><ele>133.0</ele><time>2026-04-23T23:03:46.804Z</time></trkpt><trkpt lat="45.4089378" lon="10.5398474"><ele>133.0</ele><time>2026-04-23T23:04:36.795Z</time></trkpt><trkpt lat="45.4090222" lon="10.5398306"><ele>133.0</ele><time>2026-04-23T23:05:25.803Z</time></trkpt><trkpt lat="45.4089865" lon="10.5397221"><ele>133.0</ele><time>2026-04-23T23:06:21.806Z</time></trkpt><trkpt lat="45.4089076" lon="10.5397664"><ele>133.0</ele><time>2026-04-23T23:07:16.804Z</time></trkpt><trkpt lat="45.408995" lon="10.5397418"><ele>133.0</ele><time>2026-04-23T23:07:46.8Z</time></trkpt><trkpt lat="45.4089317" lon="10.539775"><ele>133.0</ele><time>2026-04-23T23:08:44.8Z</time></trkpt><trkpt lat="45.4089284" lon="10.5396851"><ele>133.0</ele><time>2026-04-23T23:08:49.803Z</time></trkpt><trkpt lat="45.4088439" lon="10.5396559"><ele>133.0</ele><time>2026-04-23T23:09:07.798Z</time></trkpt><trkpt lat="45.4088328" lon="10.5397472"><ele>133.0</ele><time>2026-04-23T23:09:30.798Z</time></trkpt><trkpt lat="45.4089037" lon="10.5397894"><ele>133.0</ele><time>2026-04-23T23:09:46.798Z</time></trkpt><trkpt lat="45.4089639" lon="10.5398334"><ele>133.0</ele><time>2026-04-23T23:09:52.804Z</time></trkpt><trkpt lat="45.4089355" lon="10.5397362"><ele>133.0</ele><time>2026-04-23T23:11:43.798Z</time></trkpt><trkpt lat="45.4089087" lon="10.5396345"><ele>133.0</ele><time>2026-04-23T23:13:24.803Z</time></trkpt><trkpt lat="45.4089579" lon="10.5396915"><ele>133.0</ele><time>2026-04-23T23:15:31.804Z</time></trkpt><trkpt lat="45.4088494" lon="10.5397677"><ele>133.0</ele><time>2026-04-23T23:16:20.804Z</time></trkpt><trkpt lat="45.4089228" lon="10.5397222"><ele>133.0</ele><time>2026-04-23T23:17:06.798Z</time></trkpt><trkpt lat="45.4090255" lon="10.5396977"><ele>133.0</ele><time>2026-04-23T23:18:48.802Z</time></trkpt><trkpt lat="45.4089662" lon="10.5396452"><ele>133.0</ele><time>2026-04-23T23:19:03.799Z</time></trkpt><trkpt lat="45.4090182" lon="10.539718"><ele>133.0</ele><time>2026-04-23T23:19:46.804Z</time></trkpt><trkpt lat="45.409013" lon="10.539625"><ele>133.0</ele><time>2026-04-23T23:20:40.805Z</time></trkpt><trkpt lat="45.4089638" lon="10.5396816"><ele>133.0</ele><time>2026-04-23T23:21:33.801Z</time></trkpt><trkpt lat="45.4089971" lon="10.5395984"><ele>133.0</ele><time>2026-04-23T23:22:21.805Z</time></trkpt><trkpt lat="45.4089367" lon="10.5396789"><ele>133.0</ele><time>2026-04-23T23:22:40.796Z</time></trkpt><trkpt lat="45.4088887" lon="10.5397514"><ele>133.0</ele><time>2026-04-23T23:22:44.799Z</time></trkpt><trkpt lat="45.4088619" lon="10.5396515"><ele>133.0</ele><time>2026-04-23T23:23:13.798Z</time></trkpt><trkpt lat="45.4089259" lon="10.5396465"><ele>133.0</ele><time>2026-04-23T23:23:21.8Z</time></trkpt><trkpt lat="45.4089855" lon="10.5397004"><ele>133.0</ele><time>2026-04-23T23:23:29.796Z</time></trkpt><trkpt lat="45.4089463" lon="10.5397987"><ele>133.0</ele><time>2026-04-23T23:23:34.799Z</time></trkpt><trkpt lat="45.409017" lon="10.5397574"><ele>133.0</ele><time>2026-04-23T23:23:52.79Z</time></trkpt><trkpt lat="45.4090901" lon="10.5397429"><ele>133.0</ele><time>2026-04-23T23:23:57.797Z</time></trkpt><trkpt lat="45.409026" lon="10.5397447"><ele>133.0</ele><time>2026-04-23T23:24:11.797Z</time></trkpt><trkpt lat="45.4089932" lon="10.5396449"><ele>133.0</ele><time>2026-04-23T23:24:42.797Z</time></trkpt><trkpt lat="45.408934" lon="10.5396993"><ele>133.0</ele><time>2026-04-23T23:25:01.798Z</time></trkpt><trkpt lat="45.4090056" lon="10.5396355"><ele>133.0</ele><time>2026-04-23T23:27:26.798Z</time></trkpt><trkpt lat="45.4089409" lon="10.539607"><ele>133.0</ele><time>2026-04-23T23:27:35.796Z</time></trkpt><trkpt lat="45.4089556" lon="10.5396946"><ele>133.0</ele><time>2026-04-23T23:28:40.797Z</time></trkpt><trkpt lat="45.4089963" lon="10.5395942"><ele>133.0</ele><time>2026-04-23T23:29:03.794Z</time></trkpt><trkpt lat="45.4090612" lon="10.5395565"><ele>133.0</ele><time>2026-04-23T23:29:21.805Z</time></trkpt><trkpt lat="45.4090184" lon="10.5396284"><ele>133.0</ele><time>2026-04-23T23:29:47.8Z</time></trkpt><trkpt lat="45.4089473" lon="10.5396255"><ele>133.0</ele><time>2026-04-23T23:29:52.792Z</time></trkpt><trkpt lat="45.408871" lon="10.5397671"><ele>133.0</ele><time>2026-04-23T23:30:10.801Z</time></trkpt><trkpt lat="45.4089179" lon="10.5398543"><ele>133.0</ele><time>2026-04-23T23:30:49.796Z</time></trkpt><trkpt lat="45.4087408" lon="10.5399407"><ele>133.0</ele><time>2026-04-23T23:30:59.804Z</time></trkpt><trkpt lat="45.4087238" lon="10.5398381"><ele>133.0</ele><time>2026-04-23T23:31:11.799Z</time></trkpt><trkpt lat="45.4087676" lon="10.5397678"><ele>133.0</ele><time>2026-04-23T23:31:13.798Z</time></trkpt><trkpt lat="45.4087961" lon="10.5396842"><ele>133.0</ele><time>2026-04-23T23:31:15.794Z</time></trkpt><trkpt lat="45.4088333" lon="10.5396104"><ele>133.0</ele><time>2026-04-23T23:31:18.802Z</time></trkpt><trkpt lat="45.4089607" lon="10.539613"><ele>133.0</ele><time>2026-04-23T23:32:01.798Z</time></trkpt><trkpt lat="45.409009" lon="10.5396816"><ele>133.0</ele><time>2026-04-23T23:32:32.804Z</time></trkpt><trkpt lat="45.4089314" lon="10.5397628"><ele>133.0</ele><time>2026-04-23T23:34:16.798Z</time></trkpt><trkpt lat="45.4089425" lon="10.5396176"><ele>133.0</ele><time>2026-04-23T23:34:25.807Z</time></trkpt><trkpt lat="45.4088777" lon="10.5396138"><ele>133.0</ele><time>2026-04-23T23:34:30.798Z</time></trkpt><trkpt lat="45.4089392" lon="10.5395829"><ele>133.0</ele><time>2026-04-23T23:35:17.798Z</time></trkpt><trkpt lat="45.4088759" lon="10.5395789"><ele>133.0</ele><time>2026-04-23T23:35:47.796Z</time></trkpt><trkpt lat="45.4088791" lon="10.5394512"><ele>133.0</ele><time>2026-04-23T23:35:54.801Z</time></trkpt><trkpt lat="45.4089166" lon="10.5393667"><ele>133.0</ele><time>2026-04-23T23:36:23.794Z</time></trkpt><trkpt lat="45.408979" lon="10.539387"><ele>133.0</ele><time>2026-04-23T23:36:33.797Z</time></trkpt><trkpt lat="45.4089934" lon="10.5395035"><ele>133.0</ele><time>2026-04-23T23:36:37.809Z</time></trkpt><trkpt lat="45.408934" lon="10.5395371"><ele>133.0</ele><time>2026-04-23T23:37:44.794Z</time></trkpt><trkpt lat="45.408869" lon="10.5395835"><ele>133.0</ele><time>2026-04-23T23:38:02.803Z</time></trkpt><trkpt lat="45.408806" lon="10.5395969"><ele>133.0</ele><time>2026-04-23T23:38:26.798Z</time></trkpt><trkpt lat="45.4088831" lon="10.5396051"><ele>133.0</ele><time>2026-04-23T23:38:42.791Z</time></trkpt><trkpt lat="45.4089915" lon="10.5395755"><ele>133.0</ele><time>2026-04-23T23:38:56.798Z</time></trkpt><trkpt lat="45.4089303" lon="10.5395249"><ele>133.0</ele><time>2026-04-23T23:39:01.803Z</time></trkpt><trkpt lat="45.4088731" lon="10.5394816"><ele>133.0</ele><time>2026-04-23T23:39:25.804Z</time></trkpt><trkpt lat="45.4088392" lon="10.5395614"><ele>133.0</ele><time>2026-04-23T23:39:29.798Z</time></trkpt><trkpt lat="45.4088103" lon="10.5396494"><ele>133.0</ele><time>2026-04-23T23:39:38.798Z</time></trkpt><trkpt lat="45.4087993" lon="10.5397437"><ele>133.0</ele><time>2026-04-23T23:39:52.8Z</time></trkpt><trkpt lat="45.4087837" lon="10.539851"><ele>133.0</ele><time>2026-04-23T23:39:58.806Z</time></trkpt><trkpt lat="45.4086915" lon="10.5397923"><ele>133.0</ele><time>2026-04-23T23:40:03.796Z</time></trkpt><trkpt lat="45.4087455" lon="10.5397355"><ele>133.0</ele><time>2026-04-23T23:40:19.799Z</time></trkpt><trkpt lat="45.4088613" lon="10.5396983"><ele>133.0</ele><time>2026-04-23T23:40:30.801Z</time></trkpt><trkpt lat="45.4089179" lon="10.5396521"><ele>133.0</ele><time>2026-04-23T23:40:38.8Z</time></trkpt><trkpt lat="45.4090384" lon="10.539604"><ele>133.0</ele><time>2026-04-23T23:41:21.802Z</time></trkpt><trkpt lat="45.4089965" lon="10.5396717"><ele>133.0</ele><time>2026-04-23T23:41:46.804Z</time></trkpt><trkpt lat="45.40899" lon="10.5395499"><ele>133.0</ele><time>2026-04-23T23:42:10.803Z</time></trkpt><trkpt lat="45.4089383" lon="10.5396037"><ele>133.0</ele><time>2026-04-23T23:44:05.804Z</time></trkpt><trkpt lat="45.4089345" lon="10.5397068"><ele>133.0</ele><time>2026-04-23T23:44:16.794Z</time></trkpt><trkpt lat="45.4088958" lon="10.5398225"><ele>133.0</ele><time>2026-04-23T23:44:28.799Z</time></trkpt><trkpt lat="45.4089608" lon="10.539811"><ele>133.0</ele><time>2026-04-23T23:45:23.804Z</time></trkpt><trkpt lat="45.4089906" lon="10.5397233"><ele>133.0</ele><time>2026-04-23T23:45:26.806Z</time></trkpt><trkpt lat="45.4089169" lon="10.5397805"><ele>133.0</ele><time>2026-04-23T23:46:17.792Z</time></trkpt><trkpt lat="45.4088311" lon="10.5397902"><ele>133.0</ele><time>2026-04-23T23:47:07.79Z</time></trkpt><trkpt lat="45.4088894" lon="10.5397484"><ele>133.0</ele><time>2026-04-23T23:48:01.81Z</time></trkpt><trkpt lat="45.4088428" lon="10.5398138"><ele>133.0</ele><time>2026-04-23T23:48:34.796Z</time></trkpt><trkpt lat="45.408835" lon="10.5399403"><ele>133.0</ele><time>2026-04-23T23:48:38.797Z</time></trkpt><trkpt lat="45.4088268" lon="10.5400345"><ele>133.0</ele><time>2026-04-23T23:48:41.808Z</time></trkpt><trkpt lat="45.4088796" lon="10.539929"><ele>133.0</ele><time>2026-04-23T23:48:50.805Z</time></trkpt><trkpt lat="45.4089118" lon="10.5398372"><ele>133.0</ele><time>2026-04-23T23:49:01.798Z</time></trkpt><trkpt lat="45.4089152" lon="10.5397474"><ele>133.0</ele><time>2026-04-23T23:49:12.799Z</time></trkpt><trkpt lat="45.4089718" lon="10.5396651"><ele>133.0</ele><time>2026-04-23T23:49:25.798Z</time></trkpt><trkpt lat="45.4090261" lon="10.5396022"><ele>133.0</ele><time>2026-04-23T23:49:27.804Z</time></trkpt><trkpt lat="45.4089896" lon="10.5396796"><ele>133.0</ele><time>2026-04-23T23:49:31.805Z</time></trkpt><trkpt lat="45.4089353" lon="10.5397486"><ele>133.0</ele><time>2026-04-23T23:49:43.805Z</time></trkpt><trkpt lat="45.4088886" lon="10.5398123"><ele>133.0</ele><time>2026-04-23T23:49:48.799Z</time></trkpt><trkpt lat="45.4088378" lon="10.5398839"><ele>133.0</ele><time>2026-04-23T23:49:52.801Z</time></trkpt><trkpt lat="45.40888" lon="10.5397998"><ele>133.0</ele><time>2026-04-23T23:50:00.805Z</time></trkpt><trkpt lat="45.4088169" lon="10.5397662"><ele>133.0</ele><time>2026-04-23T23:50:32.806Z</time></trkpt><trkpt lat="45.4088658" lon="10.539703"><ele>133.0</ele><time>2026-04-23T23:51:06.8Z</time></trkpt><trkpt lat="45.4088004" lon="10.5396743"><ele>133.0</ele><time>2026-04-23T23:51:25.803Z</time></trkpt><trkpt lat="45.4088571" lon="10.5395688"><ele>133.0</ele><time>2026-04-23T23:51:34.797Z</time></trkpt><trkpt lat="45.4089406" lon="10.5395296"><ele>133.0</ele><time>2026-04-23T23:52:13.806Z</time></trkpt><trkpt lat="45.4088788" lon="10.5396074"><ele>133.0</ele><time>2026-04-23T23:52:20.807Z</time></trkpt><trkpt lat="45.408973" lon="10.539591"><ele>133.0</ele><time>2026-04-23T23:52:53.809Z</time></trkpt><trkpt lat="45.4089076" lon="10.5396462"><ele>133.0</ele><time>2026-04-23T23:53:04.795Z</time></trkpt><trkpt lat="45.408938" lon="10.5395676"><ele>133.0</ele><time>2026-04-23T23:53:13.797Z</time></trkpt><trkpt lat="45.4089202" lon="10.5396559"><ele>133.0</ele><time>2026-04-23T23:53:50.796Z</time></trkpt><trkpt lat="45.40897" lon="10.5395847"><ele>133.0</ele><time>2026-04-23T23:53:57.804Z</time></trkpt><trkpt lat="45.4088321" lon="10.5396157"><ele>132.33333333333334</ele><time>2026-04-23T23:53:59.803Z</time></trkpt><trkpt lat="45.408761" lon="10.5396092"><ele>131.66666666666669</ele><time>2026-04-23T23:54:02.796Z</time></trkpt><trkpt lat="45.4087679" lon="10.5395173"><ele>131.0</ele><time>2026-04-23T23:54:19.795Z</time></trkpt><trkpt lat="45.4088353" lon="10.5394439"><ele>130.33333333333334</ele><time>2026-04-23T23:54:30.806Z</time></trkpt><trkpt lat="45.4089051" lon="10.5393944"><ele>129.66666666666666</ele><time>2026-04-23T23:54:33.792Z</time></trkpt><trkpt lat="45.4087955" lon="10.5393985"><ele>129.0</ele><time>2026-04-23T23:54:53.799Z</time></trkpt><trkpt lat="45.4087142" lon="10.5393895"><ele>128.99999999999997</ele><time>2026-04-23T23:54:59.797Z</time></trkpt><trkpt lat="45.4088061" lon="10.5393801"><ele>129.0</ele><time>2026-04-23T23:55:21.797Z</time></trkpt><trkpt lat="45.4088705" lon="10.5394051"><ele>129.0</ele><time>2026-04-23T23:55:32.795Z</time></trkpt><trkpt lat="45.4088438" lon="10.5394946"><ele>129.0</ele><time>2026-04-23T23:55:42.796Z</time></trkpt><trkpt lat="45.4087938" lon="10.5395512"><ele>129.0</ele><time>2026-04-23T23:56:16.804Z</time></trkpt><trkpt lat="45.40877" lon="10.5394592"><ele>128.99999999999997</ele><time>2026-04-23T23:56:38.796Z</time></trkpt><trkpt lat="45.4088335" lon="10.5394685"><ele>129.0</ele><time>2026-04-23T23:57:02.798Z</time></trkpt><trkpt lat="45.4088018" lon="10.5393693"><ele>128.99999999999997</ele><time>2026-04-23T23:57:24.794Z</time></trkpt><trkpt lat="45.4087589" lon="10.5392916"><ele>129.0</ele><time>2026-04-23T23:57:30.801Z</time></trkpt><trkpt lat="45.4088185" lon="10.5393447"><ele>129.0</ele><time>2026-04-23T23:58:05.797Z</time></trkpt><trkpt lat="45.4088687" lon="10.5393994"><ele>129.0</ele><time>2026-04-23T23:58:09.803Z</time></trkpt><trkpt lat="45.4088995" lon="10.5394796"><ele>129.0</ele><time>2026-04-23T23:58:21.786Z</time></trkpt><trkpt lat="45.408861" lon="10.5395603"><ele>128.99999999999997</ele><time>2026-04-23T23:59:43.797Z</time></trkpt><trkpt lat="45.4087533" lon="10.5395857"><ele>129.0</ele><time>2026-04-24T00:00:16.799Z</time></trkpt><trkpt lat="45.4087562" lon="10.539681"><ele>129.57142857142856</ele><time>2026-04-24T00:00:21.796Z</time></trkpt><trkpt lat="45.4088013" lon="10.5397453"><ele>130.14285714285714</ele><time>2026-04-24T00:00:38.859Z</time></trkpt><trkpt lat="45.4088515" lon="10.5398017"><ele>130.71428571428572</ele><time>2026-04-24T00:01:14.797Z</time></trkpt><trkpt lat="45.4089441" lon="10.539824"><ele>131.28571428571428</ele><time>2026-04-24T00:02:27.796Z</time></trkpt><trkpt lat="45.4089001" lon="10.5398911"><ele>131.85714285714286</ele><time>2026-04-24T00:02:48.801Z</time></trkpt><trkpt lat="45.4089619" lon="10.5398495"><ele>132.42857142857142</ele><time>2026-04-24T00:03:37.799Z</time></trkpt><trkpt lat="45.4088937" lon="10.5398281"><ele>133.0</ele><time>2026-04-24T00:04:19.797Z</time></trkpt><trkpt lat="45.4088206" lon="10.5397713"><ele>133.0</ele><time>2026-04-24T00:04:46.803Z</time></trkpt><trkpt lat="45.4087791" lon="10.5398494"><ele>133.0</ele><time>2026-04-24T00:04:57.803Z</time></trkpt><trkpt lat="45.4087007" lon="10.5399094"><ele>133.0</ele><time>2026-04-24T00:05:01.801Z</time></trkpt><trkpt lat="45.4087777" lon="10.5399196"><ele>133.0</ele><time>2026-04-24T00:05:17.794Z</time></trkpt><trkpt lat="45.4088493" lon="10.5398914"><ele>133.0</ele><time>2026-04-24T00:05:23.802Z</time></trkpt><trkpt lat="45.4089284" lon="10.5398838"><ele>133.0</ele><time>2026-04-24T00:05:30.802Z</time></trkpt><trkpt lat="45.4089747" lon="10.5399501"><ele>133.0</ele><time>2026-04-24T00:05:32.793Z</time></trkpt><trkpt lat="45.4090149" lon="10.5400314"><ele>133.0</ele><time>2026-04-24T00:05:36.799Z</time></trkpt><trkpt lat="45.40899" lon="10.5399409"><ele>133.0</ele><time>2026-04-24T00:05:49.795Z</time></trkpt><trkpt lat="45.4090468" lon="10.5398809"><ele>133.0</ele><time>2026-04-24T00:06:14.796Z</time></trkpt><trkpt lat="45.4091277" lon="10.5398711"><ele>133.0</ele><time>2026-04-24T00:06:17.804Z</time></trkpt><trkpt lat="45.4090687" lon="10.5399654"><ele>133.0</ele><time>2026-04-24T00:06:43.797Z</time></trkpt><trkpt lat="45.4090079" lon="10.539923"><ele>133.0</ele><time>2026-04-24T00:06:46.795Z</time></trkpt><trkpt lat="45.4089823" lon="10.5398364"><ele>133.0</ele><time>2026-04-24T00:07:34.794Z</time></trkpt><trkpt lat="45.4089406" lon="10.5397641"><ele>133.0</ele><time>2026-04-24T00:09:36.795Z</time></trkpt><trkpt lat="45.4088425" lon="10.5397905"><ele>133.0</ele><time>2026-04-24T00:09:51.798Z</time></trkpt><trkpt lat="45.4087451" lon="10.5398157"><ele>133.0</ele><time>2026-04-24T00:09:53.797Z</time></trkpt><trkpt lat="45.4088122" lon="10.5398229"><ele>133.0</ele><time>2026-04-24T00:10:35.796Z</time></trkpt><trkpt lat="45.4088944" lon="10.5398415"><ele>133.0</ele><time>2026-04-24T00:10:43.797Z</time></trkpt><trkpt lat="45.4089821" lon="10.539932"><ele>133.0</ele><time>2026-04-24T00:10:51.797Z</time></trkpt><trkpt lat="45.409045" lon="10.5399616"><ele>133.0</ele><time>2026-04-24T00:10:53.803Z</time></trkpt><trkpt lat="45.4091128" lon="10.5399805"><ele>133.0</ele><time>2026-04-24T00:11:00.796Z</time></trkpt><trkpt lat="45.4090487" lon="10.5399313"><ele>133.0</ele><time>2026-04-24T00:11:07.799Z</time></trkpt><trkpt lat="45.4089854" lon="10.5399158"><ele>133.0</ele><time>2026-04-24T00:11:11.796Z</time></trkpt><trkpt lat="45.4089219" lon="10.5399207"><ele>133.0</ele><time>2026-04-24T00:11:16.794Z</time></trkpt><trkpt lat="45.4089472" lon="10.5398227"><ele>133.0</ele><time>2026-04-24T00:11:54.8Z</time></trkpt><trkpt lat="45.4089919" lon="10.5398863"><ele>133.0</ele><time>2026-04-24T00:12:05.796Z</time></trkpt><trkpt lat="45.408995" lon="10.5397859"><ele>133.0</ele><time>2026-04-24T00:12:29.796Z</time></trkpt><trkpt lat="45.4090151" lon="10.5398837"><ele>133.0</ele><time>2026-04-24T00:12:35.803Z</time></trkpt><trkpt lat="45.4089513" lon="10.5399444"><ele>133.0</ele><time>2026-04-24T00:12:43.805Z</time></trkpt><trkpt lat="45.4089888" lon="10.5398469"><ele>133.0</ele><time>2026-04-24T00:12:53.795Z</time></trkpt><trkpt lat="45.4089212" lon="10.5397975"><ele>133.0</ele><time>2026-04-24T00:12:56.799Z</time></trkpt><trkpt lat="45.4089907" lon="10.5397764"><ele>133.0</ele><time>2026-04-24T00:13:08.798Z</time></trkpt><trkpt lat="45.4090585" lon="10.5397779"><ele>133.0</ele><time>2026-04-24T00:13:15.802Z</time></trkpt><trkpt lat="45.4091112" lon="10.539878"><ele>133.0</ele><time>2026-04-24T00:13:20.799Z</time></trkpt><trkpt lat="45.4090324" lon="10.539916"><ele>133.0</ele><time>2026-04-24T00:13:26.796Z</time></trkpt><trkpt lat="45.4089742" lon="10.5398792"><ele>133.0</ele><time>2026-04-24T00:13:53.8Z</time></trkpt><trkpt lat="45.4090159" lon="10.5397851"><ele>133.0</ele><time>2026-04-24T00:14:03.797Z</time></trkpt><trkpt lat="45.4090239" lon="10.5398826"><ele>133.0</ele><time>2026-04-24T00:14:42.806Z</time></trkpt><trkpt lat="45.4089611" lon="10.5398692"><ele>133.0</ele><time>2026-04-24T00:15:02.796Z</time></trkpt><trkpt lat="45.4088736" lon="10.5399228"><ele>133.0</ele><time>2026-04-24T00:15:19.798Z</time></trkpt><trkpt lat="45.4089652" lon="10.5398244"><ele>133.0</ele><time>2026-04-24T00:15:51.797Z</time></trkpt><trkpt lat="45.4089003" lon="10.5398027"><ele>133.0</ele><time>2026-04-24T00:16:15.794Z</time></trkpt><trkpt lat="45.4089868" lon="10.5398431"><ele>133.0</ele><time>2026-04-24T00:16:44.8Z</time></trkpt><trkpt lat="45.4089451" lon="10.5399203"><ele>133.0</ele><time>2026-04-24T00:17:06.794Z</time></trkpt><trkpt lat="45.4089096" lon="10.539846"><ele>133.0</ele><time>2026-04-24T00:17:42.786Z</time></trkpt><trkpt lat="45.4089398" lon="10.5397662"><ele>133.0</ele><time>2026-04-24T00:17:51.799Z</time></trkpt><trkpt lat="45.4090314" lon="10.5397533"><ele>133.0</ele><time>2026-04-24T00:18:16.797Z</time></trkpt><trkpt lat="45.4090891" lon="10.5397951"><ele>133.0</ele><time>2026-04-24T00:18:36.798Z</time></trkpt><trkpt lat="45.4090225" lon="10.5397695"><ele>133.0</ele><time>2026-04-24T00:18:58.797Z</time></trkpt><trkpt lat="45.4089387" lon="10.5399085"><ele>133.0</ele><time>2026-04-24T00:19:27.799Z</time></trkpt><trkpt lat="45.4089171" lon="10.5398159"><ele>133.0</ele><time>2026-04-24T00:19:38.801Z</time></trkpt><trkpt lat="45.4089552" lon="10.5399163"><ele>133.0</ele><time>2026-04-24T00:19:56.798Z</time></trkpt><trkpt lat="45.4089619" lon="10.5398214"><ele>133.0</ele><time>2026-04-24T00:20:00.805Z</time></trkpt><trkpt lat="45.4088865" lon="10.5397826"><ele>133.0</ele><time>2026-04-24T00:20:48.807Z</time></trkpt><trkpt lat="45.4089721" lon="10.5397194"><ele>133.0</ele><time>2026-04-24T00:21:00.795Z</time></trkpt><trkpt lat="45.4090456" lon="10.5396046"><ele>133.0</ele><time>2026-04-24T00:21:14.798Z</time></trkpt><trkpt lat="45.409051" lon="10.5397031"><ele>133.0</ele><time>2026-04-24T00:21:25.797Z</time></trkpt><trkpt lat="45.4090853" lon="10.5396252"><ele>133.0</ele><time>2026-04-24T00:22:07.798Z</time></trkpt><trkpt lat="45.4090421" lon="10.5396932"><ele>133.0</ele><time>2026-04-24T00:22:21.802Z</time></trkpt><trkpt lat="45.4089682" lon="10.5397219"><ele>133.0</ele><time>2026-04-24T00:22:29.807Z</time></trkpt><trkpt lat="45.4088769" lon="10.5397023"><ele>133.0</ele><time>2026-04-24T00:23:08.796Z</time></trkpt><trkpt lat="45.4088943" lon="10.5398007"><ele>133.0</ele><time>2026-04-24T00:23:14.801Z</time></trkpt><trkpt lat="45.4089053" lon="10.539702"><ele>133.0</ele><time>2026-04-24T00:25:11.798Z</time></trkpt><trkpt lat="45.4088321" lon="10.5397052"><ele>133.0</ele><time>2026-04-24T00:25:58.805Z</time></trkpt><trkpt lat="45.4087847" lon="10.539773"><ele>133.0</ele><time>2026-04-24T00:26:21.798Z</time></trkpt><trkpt lat="45.4088385" lon="10.5398234"><ele>133.0</ele><time>2026-04-24T00:26:37.789Z</time></trkpt><trkpt lat="45.4089284" lon="10.5399004"><ele>133.0</ele><time>2026-04-24T00:27:00.796Z</time></trkpt><trkpt lat="45.4089837" lon="10.5398222"><ele>133.0</ele><time>2026-04-24T00:27:17.803Z</time></trkpt><trkpt lat="45.4090213" lon="10.5397486"><ele>133.0</ele><time>2026-04-24T00:27:25.797Z</time></trkpt><trkpt lat="45.4090899" lon="10.5397463"><ele>133.0</ele><time>2026-04-24T00:27:31.792Z</time></trkpt><trkpt lat="45.4090754" lon="10.5396411"><ele>133.0</ele><time>2026-04-24T00:27:49.796Z</time></trkpt><trkpt lat="45.4090365" lon="10.5397128"><ele>133.0</ele><time>2026-04-24T00:27:54.799Z</time></trkpt><trkpt lat="45.4089719" lon="10.5397007"><ele>133.0</ele><time>2026-04-24T00:28:26.799Z</time></trkpt><trkpt lat="45.4090304" lon="10.53979"><ele>133.0</ele><time>2026-04-24T00:28:58.803Z</time></trkpt><trkpt lat="45.4089995" lon="10.5398859"><ele>133.0</ele><time>2026-04-24T00:29:04.801Z</time></trkpt><trkpt lat="45.4089188" lon="10.5398542"><ele>133.0</ele><time>2026-04-24T00:29:35.799Z</time></trkpt><trkpt lat="45.4088478" lon="10.5397656"><ele>133.0</ele><time>2026-04-24T00:30:03.799Z</time></trkpt><trkpt lat="45.4088704" lon="10.5396673"><ele>133.0</ele><time>2026-04-24T00:30:09.795Z</time></trkpt><trkpt lat="45.4089759" lon="10.5396424"><ele>133.0</ele><time>2026-04-24T00:30:19.802Z</time></trkpt><trkpt lat="45.4090545" lon="10.5396048"><ele>133.0</ele><time>2026-04-24T00:30:27.799Z</time></trkpt><trkpt lat="45.4091063" lon="10.5396912"><ele>133.0</ele><time>2026-04-24T00:30:37.802Z</time></trkpt><trkpt lat="45.4091804" lon="10.5398359"><ele>133.0</ele><time>2026-04-24T00:30:41.795Z</time></trkpt><trkpt lat="45.4091146" lon="10.5398488"><ele>133.0</ele><time>2026-04-24T00:30:46.802Z</time></trkpt><trkpt lat="45.4090529" lon="10.5397919"><ele>133.0</ele><time>2026-04-24T00:30:49.799Z</time></trkpt><trkpt lat="45.408998" lon="10.5397285"><ele>133.0</ele><time>2026-04-24T00:30:58.803Z</time></trkpt><trkpt lat="45.4089476" lon="10.5396671"><ele>133.0</ele><time>2026-04-24T00:31:00.801Z</time></trkpt><trkpt lat="45.4089016" lon="10.5395974"><ele>133.0</ele><time>2026-04-24T00:31:03.795Z</time></trkpt><trkpt lat="45.4089301" lon="10.5397382"><ele>133.0</ele><time>2026-04-24T00:31:29.795Z</time></trkpt><trkpt lat="45.4089512" lon="10.5398518"><ele>133.0</ele><time>2026-04-24T00:32:02.798Z</time></trkpt><trkpt lat="45.4090162" lon="10.539804"><ele>133.0</ele><time>2026-04-24T00:32:11.79Z</time></trkpt><trkpt lat="45.4089331" lon="10.539822"><ele>133.0</ele><time>2026-04-24T00:32:31.806Z</time></trkpt><trkpt lat="45.4088474" lon="10.5398514"><ele>133.0</ele><time>2026-04-24T00:32:37.804Z</time></trkpt><trkpt lat="45.4087767" lon="10.5399042"><ele>133.0</ele><time>2026-04-24T00:33:11.803Z</time></trkpt><trkpt lat="45.4088405" lon="10.5398993"><ele>133.0</ele><time>2026-04-24T00:33:17.803Z</time></trkpt><trkpt lat="45.4089842" lon="10.5398112"><ele>133.0</ele><time>2026-04-24T00:33:23.793Z</time></trkpt><trkpt lat="45.4090631" lon="10.5397773"><ele>133.0</ele><time>2026-04-24T00:33:35.797Z</time></trkpt><trkpt lat="45.4090047" lon="10.5397323"><ele>133.0</ele><time>2026-04-24T00:33:44.793Z</time></trkpt><trkpt lat="45.4089536" lon="10.5398067"><ele>133.0</ele><time>2026-04-24T00:34:12.796Z</time></trkpt><trkpt lat="45.4089726" lon="10.5397069"><ele>133.0</ele><time>2026-04-24T00:35:04.795Z</time></trkpt><trkpt lat="45.4090647" lon="10.5396699"><ele>133.0</ele><time>2026-04-24T00:35:19.8Z</time></trkpt><trkpt lat="45.4090557" lon="10.5397607"><ele>133.0</ele><time>2026-04-24T00:35:43.806Z</time></trkpt><trkpt lat="45.4090232" lon="10.5398479"><ele>133.0</ele><time>2026-04-24T00:35:48.794Z</time></trkpt><trkpt lat="45.4089595" lon="10.539887"><ele>133.0</ele><time>2026-04-24T00:36:57.801Z</time></trkpt><trkpt lat="45.4089515" lon="10.5397977"><ele>133.0</ele><time>2026-04-24T00:37:30.798Z</time></trkpt><trkpt lat="45.4090169" lon="10.5397969"><ele>133.0</ele><time>2026-04-24T00:37:39.805Z</time></trkpt><trkpt lat="45.4090239" lon="10.539887"><ele>133.0</ele><time>2026-04-24T00:37:50.796Z</time></trkpt><trkpt lat="45.4089541" lon="10.5398919"><ele>133.0</ele><time>2026-04-24T00:38:30.798Z</time></trkpt><trkpt lat="45.4089458" lon="10.5397836"><ele>133.0</ele><time>2026-04-24T00:38:52.803Z</time></trkpt><trkpt lat="45.4089404" lon="10.539674"><ele>133.0</ele><time>2026-04-24T00:39:05.794Z</time></trkpt><trkpt lat="45.4089034" lon="10.5397474"><ele>133.0</ele><time>2026-04-24T00:39:27.808Z</time></trkpt><trkpt lat="45.4088929" lon="10.5396256"><ele>133.0</ele><time>2026-04-24T00:39:30.796Z</time></trkpt><trkpt lat="45.4088304" lon="10.539642"><ele>133.0</ele><time>2026-04-24T00:39:53.799Z</time></trkpt><trkpt lat="45.4087603" lon="10.5396497"><ele>133.0</ele><time>2026-04-24T00:39:57.806Z</time></trkpt><trkpt lat="45.4088449" lon="10.5397087"><ele>133.0</ele><time>2026-04-24T00:40:25.799Z</time></trkpt><trkpt lat="45.4088882" lon="10.5397769"><ele>133.0</ele><time>2026-04-24T00:40:33.789Z</time></trkpt><trkpt lat="45.4089716" lon="10.539793"><ele>133.0</ele><time>2026-04-24T00:40:59.796Z</time></trkpt><trkpt lat="45.4090842" lon="10.5397571"><ele>133.0</ele><time>2026-04-24T00:42:43.808Z</time></trkpt><trkpt lat="45.4090156" lon="10.539717"><ele>133.0</ele><time>2026-04-24T00:42:56.803Z</time></trkpt><trkpt lat="45.4090824" lon="10.5398023"><ele>133.0</ele><time>2026-04-24T00:43:25.797Z</time></trkpt><trkpt lat="45.4090772" lon="10.5398959"><ele>133.0</ele><time>2026-04-24T00:43:48.804Z</time></trkpt><trkpt lat="45.4089913" lon="10.539857"><ele>133.0</ele><time>2026-04-24T00:43:54.798Z</time></trkpt><trkpt lat="45.4089278" lon="10.5398482"><ele>133.0</ele><time>2026-04-24T00:45:07.803Z</time></trkpt><trkpt lat="45.4088635" lon="10.5399741"><ele>133.0</ele><time>2026-04-24T00:45:11.795Z</time></trkpt><trkpt lat="45.4088195" lon="10.5400513"><ele>133.0</ele><time>2026-04-24T00:45:13.802Z</time></trkpt><trkpt lat="45.4088843" lon="10.5400297"><ele>133.0</ele><time>2026-04-24T00:45:24.794Z</time></trkpt><trkpt lat="45.4089178" lon="10.5399286"><ele>133.0</ele><time>2026-04-24T00:46:02.8Z</time></trkpt><trkpt lat="45.4089652" lon="10.5398615"><ele>133.0</ele><time>2026-04-24T00:46:11.798Z</time></trkpt><trkpt lat="45.4090201" lon="10.5398118"><ele>133.0</ele><time>2026-04-24T00:46:16.795Z</time></trkpt><trkpt lat="45.4089391" lon="10.5398421"><ele>133.0</ele><time>2026-04-24T00:46:21.802Z</time></trkpt><trkpt lat="45.4088796" lon="10.5399115"><ele>133.0</ele><time>2026-04-24T00:46:50.793Z</time></trkpt><trkpt lat="45.4088046" lon="10.539956"><ele>133.0</ele><time>2026-04-24T00:47:05.795Z</time></trkpt><trkpt lat="45.4088316" lon="10.5398574"><ele>133.0</ele><time>2026-04-24T00:47:18.802Z</time></trkpt><trkpt lat="45.4088965" lon="10.5397977"><ele>133.0</ele><time>2026-04-24T00:47:21.795Z</time></trkpt><trkpt lat="45.4089691" lon="10.5397859"><ele>133.0</ele><time>2026-04-24T00:47:29.797Z</time></trkpt><trkpt lat="45.408912" lon="10.539866"><ele>133.0</ele><time>2026-04-24T00:47:31.799Z</time></trkpt><trkpt lat="45.4088957" lon="10.5399625"><ele>133.0</ele><time>2026-04-24T00:47:54.795Z</time></trkpt><trkpt lat="45.40894" lon="10.5398952"><ele>133.0</ele><time>2026-04-24T00:48:06.8Z</time></trkpt><trkpt lat="45.4089801" lon="10.539818"><ele>133.0</ele><time>2026-04-24T00:48:25.794Z</time></trkpt><trkpt lat="45.4090501" lon="10.5397446"><ele>133.0</ele><time>2026-04-24T00:48:28.79Z</time></trkpt><trkpt lat="45.4089939" lon="10.539839"><ele>133.0</ele><time>2026-04-24T00:48:37.799Z</time></trkpt><trkpt lat="45.4089475" lon="10.5399244"><ele>133.0</ele><time>2026-04-24T00:48:38.799Z</time></trkpt><trkpt lat="45.408882" lon="10.5399352"><ele>133.0</ele><time>2026-04-24T00:49:04.798Z</time></trkpt><trkpt lat="45.4089574" lon="10.5398374"><ele>133.0</ele><time>2026-04-24T00:49:12.798Z</time></trkpt><trkpt lat="45.4090195" lon="10.5397591"><ele>133.0</ele><time>2026-04-24T00:49:22.795Z</time></trkpt><trkpt lat="45.4090669" lon="10.5396968"><ele>133.0</ele><time>2026-04-24T00:49:29.81Z</time></trkpt><trkpt lat="45.4090485" lon="10.5397843"><ele>133.0</ele><time>2026-04-24T00:49:35.808Z</time></trkpt><trkpt lat="45.408989" lon="10.5398621"><ele>133.0</ele><time>2026-04-24T00:49:59.802Z</time></trkpt><trkpt lat="45.4089425" lon="10.5399546"><ele>133.0</ele><time>2026-04-24T00:50:08.808Z</time></trkpt><trkpt lat="45.4090486" lon="10.5398137"><ele>133.0</ele><time>2026-04-24T00:50:16.797Z</time></trkpt><trkpt lat="45.4091066" lon="10.5397164"><ele>133.0</ele><time>2026-04-24T00:50:17.81Z</time></trkpt><trkpt lat="45.4091448" lon="10.5396156"><ele>133.0</ele><time>2026-04-24T00:50:19.804Z</time></trkpt><trkpt lat="45.4091789" lon="10.539514"><ele>133.0</ele><time>2026-04-24T00:50:21.799Z</time></trkpt><trkpt lat="45.4092416" lon="10.5394942"><ele>133.0</ele><time>2026-04-24T00:50:27.807Z</time></trkpt><trkpt lat="45.4092013" lon="10.5396001"><ele>133.0</ele><time>2026-04-24T00:50:30.807Z</time></trkpt><trkpt lat="45.4091471" lon="10.5397184"><ele>133.0</ele><time>2026-04-24T00:50:34.805Z</time></trkpt><trkpt lat="45.4091012" lon="10.5397996"><ele>133.0</ele><time>2026-04-24T00:50:36.805Z</time></trkpt><trkpt lat="45.4090791" lon="10.5398925"><ele>133.0</ele><time>2026-04-24T00:50:49.8Z</time></trkpt><trkpt lat="45.4090246" lon="10.5400187"><ele>133.0</ele><time>2026-04-24T00:51:04.799Z</time></trkpt><trkpt lat="45.4090795" lon="10.5399324"><ele>133.0</ele><time>2026-04-24T00:51:11.806Z</time></trkpt><trkpt lat="45.4091109" lon="10.5398384"><ele>133.0</ele><time>2026-04-24T00:51:14.796Z</time></trkpt><trkpt lat="45.4091603" lon="10.5397584"><ele>133.0</ele><time>2026-04-24T00:51:17.8Z</time></trkpt><trkpt lat="45.4091865" lon="10.5396571"><ele>133.0</ele><time>2026-04-24T00:51:28.023Z</time></trkpt><trkpt lat="45.4091242" lon="10.5397598"><ele>133.0</ele><time>2026-04-24T00:51:33.796Z</time></trkpt><trkpt lat="45.4091811" lon="10.539693"><ele>133.0</ele><time>2026-04-24T00:51:39.803Z</time></trkpt><trkpt lat="45.4091117" lon="10.5398047"><ele>133.0</ele><time>2026-04-24T00:51:40.79Z</time></trkpt><trkpt lat="45.4090571" lon="10.5398876"><ele>133.0</ele><time>2026-04-24T00:51:42.799Z</time></trkpt><trkpt lat="45.4090055" lon="10.539969"><ele>133.0</ele><time>2026-04-24T00:51:50.801Z</time></trkpt><trkpt lat="45.4090443" lon="10.5398776"><ele>133.0</ele><time>2026-04-24T00:51:54.799Z</time></trkpt><trkpt lat="45.4091057" lon="10.5397822"><ele>133.0</ele><time>2026-04-24T00:51:55.804Z</time></trkpt><trkpt lat="45.4091643" lon="10.5397045"><ele>133.0</ele><time>2026-04-24T00:52:04.804Z</time></trkpt><trkpt lat="45.409097" lon="10.5397497"><ele>133.0</ele><time>2026-04-24T00:52:07.789Z</time></trkpt><trkpt lat="45.4090441" lon="10.5398455"><ele>133.0</ele><time>2026-04-24T00:52:10.787Z</time></trkpt><trkpt lat="45.4089925" lon="10.5399255"><ele>133.0</ele><time>2026-04-24T00:52:12.794Z</time></trkpt><trkpt lat="45.4089439" lon="10.5399858"><ele>133.0</ele><time>2026-04-24T00:52:14.785Z</time></trkpt><trkpt lat="45.4088968" lon="10.5400471"><ele>133.0</ele><time>2026-04-24T00:52:17.806Z</time></trkpt><trkpt lat="45.4088463" lon="10.540142"><ele>133.0</ele><time>2026-04-24T00:52:21.805Z</time></trkpt><trkpt lat="45.4087827" lon="10.5401943"><ele>133.0</ele><time>2026-04-24T00:52:23.813Z</time></trkpt><trkpt lat="45.4087956" lon="10.5401019"><ele>133.0</ele><time>2026-04-24T00:52:34.801Z</time></trkpt><trkpt lat="45.4088372" lon="10.5400056"><ele>133.0</ele><time>2026-04-24T00:52:39.804Z</time></trkpt><trkpt lat="45.409037" lon="10.539887"><ele>133.0</ele><time>2026-04-24T00:52:56.24Z</time></trkpt><trkpt lat="45.4086302" lon="10.5398371"><ele>131.71428571428572</ele><time>2026-04-24T00:53:59.796Z</time></trkpt><trkpt lat="45.4085736" lon="10.5398859"><ele>130.42857142857144</ele><time>2026-04-24T00:54:01.803Z</time></trkpt><trkpt lat="45.4085007" lon="10.539854"><ele>129.14285714285714</ele><time>2026-04-24T00:54:06.811Z</time></trkpt><trkpt lat="45.4084317" lon="10.5399044"><ele>127.85714285714286</ele><time>2026-04-24T00:54:07.799Z</time></trkpt><trkpt lat="45.4083688" lon="10.5399452"><ele>126.57142857142858</ele><time>2026-04-24T00:54:09.804Z</time></trkpt><trkpt lat="45.4083001" lon="10.5399559"><ele>125.28571428571429</ele><time>2026-04-24T00:54:14.804Z</time></trkpt><trkpt lat="45.4082341" lon="10.5400133"><ele>124.0</ele><time>2026-04-24T00:54:16.794Z</time></trkpt><trkpt lat="45.4081783" lon="10.5400927"><ele>124.0</ele><time>2026-04-24T00:54:19.807Z</time></trkpt><trkpt lat="45.4081407" lon="10.5401655"><ele>124.0</ele><time>2026-04-24T00:54:25.797Z</time></trkpt><trkpt lat="45.4080813" lon="10.5402244"><ele>124.0</ele><time>2026-04-24T00:54:27.803Z</time></trkpt><trkpt lat="45.4080479" lon="10.540318"><ele>124.0</ele><time>2026-04-24T00:54:31.801Z</time></trkpt><trkpt lat="45.4084336" lon="10.5397585"><ele>124.0</ele><time>2026-04-24T00:54:38.8Z</time></trkpt><trkpt lat="45.4085586" lon="10.5395709"><ele>124.0</ele><time>2026-04-24T00:54:39.799Z</time></trkpt><trkpt lat="45.4086466" lon="10.5394707"><ele>124.0</ele><time>2026-04-24T00:54:42.799Z</time></trkpt><trkpt lat="45.4086988" lon="10.5394199"><ele>124.0</ele><time>2026-04-24T00:54:44.794Z</time></trkpt><trkpt lat="45.4087808" lon="10.5393525"><ele>124.83333333333334</ele><time>2026-04-24T00:54:47.793Z</time></trkpt><trkpt lat="45.4088513" lon="10.5392939"><ele>125.66666666666667</ele><time>2026-04-24T00:54:49.804Z</time></trkpt><trkpt lat="45.4089229" lon="10.5393009"><ele>126.5</ele><time>2026-04-24T00:54:56.794Z</time></trkpt><trkpt lat="45.4090047" lon="10.5393245"><ele>127.33333333333334</ele><time>2026-04-24T00:55:05.793Z</time></trkpt><trkpt lat="45.4090807" lon="10.539285"><ele>128.16666666666666</ele><time>2026-04-24T00:55:08.795Z</time></trkpt><trkpt lat="45.4091456" lon="10.539231"><ele>129.0</ele><time>2026-04-24T00:55:13.796Z</time></trkpt><trkpt lat="45.4091713" lon="10.5391472"><ele>129.0</ele><time>2026-04-24T00:55:17.793Z</time></trkpt><trkpt lat="45.4092292" lon="10.5390691"><ele>129.0</ele><time>2026-04-24T00:55:29.797Z</time></trkpt><trkpt lat="45.4092496" lon="10.5391643"><ele>129.0</ele><time>2026-04-24T00:56:01.794Z</time></trkpt><trkpt lat="45.4092273" lon="10.5392577"><ele>129.0</ele><time>2026-04-24T00:56:07.79Z</time></trkpt><trkpt lat="45.4091649" lon="10.5393423"><ele>129.0</ele><time>2026-04-24T00:56:13.796Z</time></trkpt><trkpt lat="45.409116" lon="10.5394457"><ele>129.0</ele><time>2026-04-24T00:56:15.795Z</time></trkpt><trkpt lat="45.4090913" lon="10.5395405"><ele>129.66666666666666</ele><time>2026-04-24T00:56:19.801Z</time></trkpt><trkpt lat="45.4090546" lon="10.5396184"><ele>130.33333333333334</ele><time>2026-04-24T00:56:33.805Z</time></trkpt><trkpt lat="45.4091253" lon="10.5395652"><ele>131.0</ele><time>2026-04-24T00:56:40.794Z</time></trkpt><trkpt lat="45.4091019" lon="10.5396577"><ele>131.66666666666669</ele><time>2026-04-24T00:56:58.8Z</time></trkpt><trkpt lat="45.4090454" lon="10.539713"><ele>132.33333333333334</ele><time>2026-04-24T00:57:05.792Z</time></trkpt><trkpt lat="45.408944" lon="10.5397706"><ele>133.0</ele><time>2026-04-24T00:57:09.801Z</time></trkpt><trkpt lat="45.4088906" lon="10.5398401"><ele>133.0</ele><time>2026-04-24T00:57:23.798Z</time></trkpt><trkpt lat="45.4089807" lon="10.5398378"><ele>133.0</ele><time>2026-04-24T00:57:45.793Z</time></trkpt><trkpt lat="45.4090437" lon="10.5397983"><ele>133.0</ele><time>2026-04-24T00:57:54.793Z</time></trkpt><trkpt lat="45.4090341" lon="10.5399001"><ele>133.0</ele><time>2026-04-24T00:58:19.806Z</time></trkpt><trkpt lat="45.4089834" lon="10.5398457"><ele>133.0</ele><time>2026-04-24T00:58:50.793Z</time></trkpt><trkpt lat="45.4089667" lon="10.5399348"><ele>133.0</ele><time>2026-04-24T00:59:00.804Z</time></trkpt><trkpt lat="45.4090528" lon="10.5398418"><ele>133.0</ele><time>2026-04-24T00:59:12.802Z</time></trkpt><trkpt lat="45.4089839" lon="10.53983"><ele>133.0</ele><time>2026-04-24T00:59:24.801Z</time></trkpt><trkpt lat="45.4089253" lon="10.5398653"><ele>133.0</ele><time>2026-04-24T00:59:30.791Z</time></trkpt><trkpt lat="45.4089685" lon="10.5397655"><ele>133.0</ele><time>2026-04-24T00:59:39.793Z</time></trkpt><trkpt lat="45.4089134" lon="10.5398587"><ele>133.0</ele><time>2026-04-24T01:00:07.795Z</time></trkpt><trkpt lat="45.40894" lon="10.5397761"><ele>133.0</ele><time>2026-04-24T01:00:20.788Z</time></trkpt><trkpt lat="45.4089937" lon="10.5396749"><ele>133.0</ele><time>2026-04-24T01:00:50.797Z</time></trkpt><trkpt lat="45.4090637" lon="10.5396644"><ele>133.0</ele><time>2026-04-24T01:01:15.791Z</time></trkpt><trkpt lat="45.4090136" lon="10.5397232"><ele>133.0</ele><time>2026-04-24T01:01:41.794Z</time></trkpt><trkpt lat="45.408972" lon="10.5398486"><ele>133.0</ele><time>2026-04-24T01:02:31.794Z</time></trkpt><trkpt lat="45.4090455" lon="10.5398596"><ele>133.0</ele><time>2026-04-24T01:02:34.794Z</time></trkpt><trkpt lat="45.4091622" lon="10.5398623"><ele>133.0</ele><time>2026-04-24T01:02:39.795Z</time></trkpt><trkpt lat="45.409082" lon="10.5398803"><ele>133.0</ele><time>2026-04-24T01:02:45.796Z</time></trkpt><trkpt lat="45.4090128" lon="10.5398628"><ele>133.0</ele><time>2026-04-24T01:02:59.803Z</time></trkpt><trkpt lat="45.4089082" lon="10.5398711"><ele>133.0</ele><time>2026-04-24T01:03:07.798Z</time></trkpt><trkpt lat="45.4090368" lon="10.5398951"><ele>133.0</ele><time>2026-04-24T01:03:25.796Z</time></trkpt><trkpt lat="45.4091419" lon="10.5398894"><ele>133.0</ele><time>2026-04-24T01:03:28.794Z</time></trkpt><trkpt lat="45.4090794" lon="10.5399368"><ele>133.0</ele><time>2026-04-24T01:03:34.796Z</time></trkpt><trkpt lat="45.409091" lon="10.5398458"><ele>133.0</ele><time>2026-04-24T01:03:53.801Z</time></trkpt><trkpt lat="45.409013" lon="10.5398394"><ele>133.0</ele><time>2026-04-24T01:04:00.793Z</time></trkpt><trkpt lat="45.4089477" lon="10.5398415"><ele>133.0</ele><time>2026-04-24T01:04:34.796Z</time></trkpt><trkpt lat="45.4088825" lon="10.539853"><ele>133.0</ele><time>2026-04-24T01:04:45.804Z</time></trkpt><trkpt lat="45.4089607" lon="10.5398623"><ele>133.0</ele><time>2026-04-24T01:05:26.801Z</time></trkpt><trkpt lat="45.4090073" lon="10.5397742"><ele>133.0</ele><time>2026-04-24T01:05:53.793Z</time></trkpt><trkpt lat="45.4089486" lon="10.5398217"><ele>133.0</ele><time>2026-04-24T01:06:20.802Z</time></trkpt><trkpt lat="45.4088734" lon="10.5398105"><ele>133.0</ele><time>2026-04-24T01:06:36.787Z</time></trkpt><trkpt lat="45.4088936" lon="10.5398966"><ele>133.0</ele><time>2026-04-24T01:06:54.804Z</time></trkpt><trkpt lat="45.4089126" lon="10.5400037"><ele>133.0</ele><time>2026-04-24T01:07:03.8Z</time></trkpt><trkpt lat="45.4089992" lon="10.5400087"><ele>133.0</ele><time>2026-04-24T01:07:23.794Z</time></trkpt><trkpt lat="45.4090505" lon="10.5399519"><ele>133.0</ele><time>2026-04-24T01:08:36.792Z</time></trkpt><trkpt lat="45.4091888" lon="10.5399549"><ele>133.0</ele><time>2026-04-24T01:09:42.796Z</time></trkpt><trkpt lat="45.4091545" lon="10.539878"><ele>133.0</ele><time>2026-04-24T01:10:26.801Z</time></trkpt><trkpt lat="45.4090923" lon="10.5398461"><ele>133.0</ele><time>2026-04-24T01:10:30.793Z</time></trkpt><trkpt lat="45.4090414" lon="10.5397838"><ele>133.0</ele><time>2026-04-24T01:10:37.795Z</time></trkpt><trkpt lat="45.4090458" lon="10.539875"><ele>133.0</ele><time>2026-04-24T01:11:21.803Z</time></trkpt><trkpt lat="45.409106" lon="10.5399519"><ele>133.0</ele><time>2026-04-24T01:11:28.792Z</time></trkpt><trkpt lat="45.4091889" lon="10.5399797"><ele>133.0</ele><time>2026-04-24T01:11:40.789Z</time></trkpt><trkpt lat="45.4091513" lon="10.5398983"><ele>133.0</ele><time>2026-04-24T01:12:03.795Z</time></trkpt><trkpt lat="45.4091242" lon="10.5400426"><ele>133.0</ele><time>2026-04-24T01:13:02.801Z</time></trkpt><trkpt lat="45.4091466" lon="10.5399585"><ele>133.0</ele><time>2026-04-24T01:13:26.799Z</time></trkpt><trkpt lat="45.4090751" lon="10.5399594"><ele>133.0</ele><time>2026-04-24T01:14:07.799Z</time></trkpt><trkpt lat="45.4090184" lon="10.5400042"><ele>133.0</ele><time>2026-04-24T01:14:16.801Z</time></trkpt><trkpt lat="45.4091453" lon="10.539972"><ele>133.0</ele><time>2026-04-24T01:15:08.792Z</time></trkpt><trkpt lat="45.4092442" lon="10.5398485"><ele>133.0</ele><time>2026-04-24T01:15:12.792Z</time></trkpt><trkpt lat="45.4093179" lon="10.5398129"><ele>133.0</ele><time>2026-04-24T01:15:21.798Z</time></trkpt><trkpt lat="45.4092677" lon="10.5398857"><ele>133.0</ele><time>2026-04-24T01:15:25.799Z</time></trkpt><trkpt lat="45.4092057" lon="10.5399018"><ele>133.0</ele><time>2026-04-24T01:15:32.789Z</time></trkpt><trkpt lat="45.4091348" lon="10.5399722"><ele>133.0</ele><time>2026-04-24T01:15:50.8Z</time></trkpt><trkpt lat="45.4090822" lon="10.5399116"><ele>133.0</ele><time>2026-04-24T01:15:59.796Z</time></trkpt><trkpt lat="45.4090062" lon="10.539926"><ele>133.0</ele><time>2026-04-24T01:16:13.793Z</time></trkpt><trkpt lat="45.408931" lon="10.5399484"><ele>133.0</ele><time>2026-04-24T01:16:27.793Z</time></trkpt><trkpt lat="45.408922" lon="10.5400377"><ele>133.0</ele><time>2026-04-24T01:16:34.801Z</time></trkpt><trkpt lat="45.4089842" lon="10.5399665"><ele>133.0</ele><time>2026-04-24T01:16:45.802Z</time></trkpt><trkpt lat="45.4089836" lon="10.5400804"><ele>133.0</ele><time>2026-04-24T01:17:34.797Z</time></trkpt><trkpt lat="45.4089178" lon="10.5401684"><ele>133.0</ele><time>2026-04-24T01:17:45.801Z</time></trkpt><trkpt lat="45.4090314" lon="10.5401499"><ele>133.0</ele><time>2026-04-24T01:17:49.795Z</time></trkpt><trkpt lat="45.4091378" lon="10.540135"><ele>133.0</ele><time>2026-04-24T01:17:54.8Z</time></trkpt><trkpt lat="45.4092722" lon="10.5400882"><ele>133.0</ele><time>2026-04-24T01:17:59.789Z</time></trkpt><trkpt lat="45.4092117" lon="10.5401226"><ele>133.0</ele><time>2026-04-24T01:18:04.799Z</time></trkpt><trkpt lat="45.409243" lon="10.5399927"><ele>133.0</ele><time>2026-04-24T01:18:42.802Z</time></trkpt><trkpt lat="45.4092338" lon="10.539861"><ele>133.0</ele><time>2026-04-24T01:19:13.803Z</time></trkpt><trkpt lat="45.4092871" lon="10.5398118"><ele>133.0</ele><time>2026-04-24T01:19:39.799Z</time></trkpt><trkpt lat="45.4092833" lon="10.5399256"><ele>133.0</ele><time>2026-04-24T01:19:54.802Z</time></trkpt><trkpt lat="45.4092226" lon="10.5398621"><ele>133.0</ele><time>2026-04-24T01:20:16.793Z</time></trkpt><trkpt lat="45.409163" lon="10.5398092"><ele>133.0</ele><time>2026-04-24T01:20:27.795Z</time></trkpt><trkpt lat="45.4090916" lon="10.5397907"><ele>133.0</ele><time>2026-04-24T01:22:14.795Z</time></trkpt><trkpt lat="45.4090468" lon="10.5398674"><ele>133.0</ele><time>2026-04-24T01:22:20.793Z</time></trkpt><trkpt lat="45.4089569" lon="10.5399267"><ele>133.0</ele><time>2026-04-24T01:22:30.796Z</time></trkpt><trkpt lat="45.408937" lon="10.539814"><ele>133.0</ele><time>2026-04-24T01:23:07.793Z</time></trkpt><trkpt lat="45.4088634" lon="10.539769"><ele>133.0</ele><time>2026-04-24T01:23:09.793Z</time></trkpt><trkpt lat="45.4089275" lon="10.539805"><ele>133.0</ele><time>2026-04-24T01:23:22.797Z</time></trkpt><trkpt lat="45.409002" lon="10.5398391"><ele>133.0</ele><time>2026-04-24T01:23:33.79Z</time></trkpt><trkpt lat="45.4089288" lon="10.5398632"><ele>133.0</ele><time>2026-04-24T01:25:03.79Z</time></trkpt><trkpt lat="45.4088708" lon="10.5398208"><ele>133.0</ele><time>2026-04-24T01:25:08.799Z</time></trkpt><trkpt lat="45.4088021" lon="10.5398283"><ele>133.0</ele><time>2026-04-24T01:25:42.799Z</time></trkpt><trkpt lat="45.4088906" lon="10.5397877"><ele>133.0</ele><time>2026-04-24T01:25:47.803Z</time></trkpt><trkpt lat="45.4089875" lon="10.539783"><ele>133.0</ele><time>2026-04-24T01:25:52.789Z</time></trkpt><trkpt lat="45.4089863" lon="10.5398824"><ele>133.0</ele><time>2026-04-24T01:25:59.79Z</time></trkpt><trkpt lat="45.4089163" lon="10.5399367"><ele>133.0</ele><time>2026-04-24T01:26:02.797Z</time></trkpt><trkpt lat="45.408849" lon="10.5399552"><ele>133.0</ele><time>2026-04-24T01:26:04.799Z</time></trkpt><trkpt lat="45.4087999" lon="10.5400167"><ele>133.0</ele><time>2026-04-24T01:26:13.801Z</time></trkpt><trkpt lat="45.4088622" lon="10.5400742"><ele>133.0</ele><time>2026-04-24T01:26:19.798Z</time></trkpt><trkpt lat="45.4089334" lon="10.5400532"><ele>133.0</ele><time>2026-04-24T01:26:35.8Z</time></trkpt><trkpt lat="45.4089308" lon="10.5399397"><ele>133.0</ele><time>2026-04-24T01:27:45.796Z</time></trkpt><trkpt lat="45.4090253" lon="10.5399318"><ele>133.0</ele><time>2026-04-24T01:27:49.806Z</time></trkpt><trkpt lat="45.4090509" lon="10.5398435"><ele>133.0</ele><time>2026-04-24T01:27:53.797Z</time></trkpt><trkpt lat="45.4089686" lon="10.5398219"><ele>133.0</ele><time>2026-04-24T01:28:18.794Z</time></trkpt><trkpt lat="45.4090183" lon="10.5397409"><ele>133.0</ele><time>2026-04-24T01:28:40.79Z</time></trkpt><trkpt lat="45.4089932" lon="10.5398434"><ele>133.0</ele><time>2026-04-24T01:29:11.801Z</time></trkpt><trkpt lat="45.409011" lon="10.5399563"><ele>133.0</ele><time>2026-04-24T01:29:29.793Z</time></trkpt><trkpt lat="45.4089192" lon="10.53996"><ele>133.0</ele><time>2026-04-24T01:29:40.801Z</time></trkpt><trkpt lat="45.4088553" lon="10.5399991"><ele>133.0</ele><time>2026-04-24T01:29:42.802Z</time></trkpt><trkpt lat="45.4088927" lon="10.5400788"><ele>133.0</ele><time>2026-04-24T01:29:57.795Z</time></trkpt><trkpt lat="45.4089892" lon="10.5400465"><ele>133.0</ele><time>2026-04-24T01:30:00.796Z</time></trkpt><trkpt lat="45.4090627" lon="10.5400072"><ele>133.0</ele><time>2026-04-24T01:30:03.792Z</time></trkpt><trkpt lat="45.4091257" lon="10.5400416"><ele>133.0</ele><time>2026-04-24T01:30:06.801Z</time></trkpt><trkpt lat="45.4091752" lon="10.5399697"><ele>133.0</ele><time>2026-04-24T01:30:17.801Z</time></trkpt><trkpt lat="45.4091141" lon="10.540073"><ele>133.0</ele><time>2026-04-24T01:30:21.799Z</time></trkpt><trkpt lat="45.4090452" lon="10.5401535"><ele>133.0</ele><time>2026-04-24T01:30:23.794Z</time></trkpt><trkpt lat="45.4089654" lon="10.540244"><ele>133.0</ele><time>2026-04-24T01:30:24.802Z</time></trkpt><trkpt lat="45.4089083" lon="10.5403106"><ele>133.0</ele><time>2026-04-24T01:30:26.791Z</time></trkpt><trkpt lat="45.4088493" lon="10.5402721"><ele>133.0</ele><time>2026-04-24T01:30:33.801Z</time></trkpt><trkpt lat="45.4089135" lon="10.5401854"><ele>133.0</ele><time>2026-04-24T01:30:40.792Z</time></trkpt><trkpt lat="45.4088462" lon="10.5402641"><ele>133.0</ele><time>2026-04-24T01:30:42.796Z</time></trkpt><trkpt lat="45.4087832" lon="10.5403795"><ele>133.0</ele><time>2026-04-24T01:30:45.8Z</time></trkpt><trkpt lat="45.4087905" lon="10.540263"><ele>133.0</ele><time>2026-04-24T01:30:56.792Z</time></trkpt><trkpt lat="45.4088731" lon="10.5402002"><ele>133.0</ele><time>2026-04-24T01:31:08.8Z</time></trkpt><trkpt lat="45.4089362" lon="10.5401345"><ele>133.0</ele><time>2026-04-24T01:31:13.792Z</time></trkpt><trkpt lat="45.4088467" lon="10.540089"><ele>133.0</ele><time>2026-04-24T01:31:16.797Z</time></trkpt><trkpt lat="45.4087738" lon="10.5401374"><ele>133.0</ele><time>2026-04-24T01:31:17.804Z</time></trkpt><trkpt lat="45.4088196" lon="10.5400692"><ele>133.0</ele><time>2026-04-24T01:31:21.791Z</time></trkpt><trkpt lat="45.4088506" lon="10.5399767"><ele>133.0</ele><time>2026-04-24T01:31:28.802Z</time></trkpt><trkpt lat="45.4088982" lon="10.5398913"><ele>133.0</ele><time>2026-04-24T01:31:31.791Z</time></trkpt><trkpt lat="45.4089205" lon="10.5397855"><ele>133.0</ele><time>2026-04-24T01:31:45.793Z</time></trkpt><trkpt lat="45.4089865" lon="10.5397676"><ele>133.0</ele><time>2026-04-24T01:32:00.803Z</time></trkpt><trkpt lat="45.4091066" lon="10.5397257"><ele>133.0</ele><time>2026-04-24T01:32:04.797Z</time></trkpt><trkpt lat="45.4091797" lon="10.5397041"><ele>133.0</ele><time>2026-04-24T01:32:08.796Z</time></trkpt><trkpt lat="45.4091411" lon="10.5397775"><ele>133.0</ele><time>2026-04-24T01:32:18.791Z</time></trkpt><trkpt lat="45.4090694" lon="10.5397444"><ele>133.0</ele><time>2026-04-24T01:32:46.798Z</time></trkpt><trkpt lat="45.4090152" lon="10.5398315"><ele>133.0</ele><time>2026-04-24T01:33:06.8Z</time></trkpt><trkpt lat="45.4089621" lon="10.5399427"><ele>133.0</ele><time>2026-04-24T01:33:07.791Z</time></trkpt><trkpt lat="45.4089309" lon="10.5400313"><ele>133.0</ele><time>2026-04-24T01:33:08.794Z</time></trkpt><trkpt lat="45.4088737" lon="10.5401839"><ele>133.0</ele><time>2026-04-24T01:33:10.799Z</time></trkpt><trkpt lat="45.4088537" lon="10.5403476"><ele>133.0</ele><time>2026-04-24T01:33:13.798Z</time></trkpt><trkpt lat="45.4088332" lon="10.5404465"><ele>133.0</ele><time>2026-04-24T01:33:15.803Z</time></trkpt><trkpt lat="45.4088723" lon="10.5405239"><ele>133.0</ele><time>2026-04-24T01:33:21.793Z</time></trkpt><trkpt lat="45.4088886" lon="10.5403837"><ele>133.0</ele><time>2026-04-24T01:33:23.8Z</time></trkpt><trkpt lat="45.4088849" lon="10.5402581"><ele>133.0</ele><time>2026-04-24T01:33:25.799Z</time></trkpt><trkpt lat="45.4088752" lon="10.5401121"><ele>133.0</ele><time>2026-04-24T01:33:27.799Z</time></trkpt><trkpt lat="45.4088673" lon="10.5399245"><ele>133.0</ele><time>2026-04-24T01:33:29.794Z</time></trkpt><trkpt lat="45.4088993" lon="10.539826"><ele>133.0</ele><time>2026-04-24T01:33:31.793Z</time></trkpt><trkpt lat="45.4089178" lon="10.5399327"><ele>133.0</ele><time>2026-04-24T01:33:33.795Z</time></trkpt><trkpt lat="45.4090017" lon="10.5399241"><ele>133.0</ele><time>2026-04-24T01:33:35.789Z</time></trkpt><trkpt lat="45.4089699" lon="10.5400268"><ele>133.0</ele><time>2026-04-24T01:33:44.798Z</time></trkpt><trkpt lat="45.4088912" lon="10.5399972"><ele>133.0</ele><time>2026-04-24T01:34:04.792Z</time></trkpt><trkpt lat="45.4089203" lon="10.5398688"><ele>133.0</ele><time>2026-04-24T01:34:38.79Z</time></trkpt><trkpt lat="45.4088594" lon="10.5399217"><ele>133.0</ele><time>2026-04-24T01:34:56.793Z</time></trkpt><trkpt lat="45.40896" lon="10.5398456"><ele>133.0</ele><time>2026-04-24T01:35:18.792Z</time></trkpt><trkpt lat="45.4089776" lon="10.5397286"><ele>133.0</ele><time>2026-04-24T01:37:32.795Z</time></trkpt><trkpt lat="45.4090253" lon="10.539662"><ele>133.0</ele><time>2026-04-24T01:37:36.79Z</time></trkpt><trkpt lat="45.4089824" lon="10.5397963"><ele>133.0</ele><time>2026-04-24T01:38:22.8Z</time></trkpt><trkpt lat="45.4088808" lon="10.5397702"><ele>133.0</ele><time>2026-04-24T01:38:30.793Z</time></trkpt><trkpt lat="45.4089611" lon="10.5397404"><ele>133.0</ele><time>2026-04-24T01:39:12.802Z</time></trkpt><trkpt lat="45.4090238" lon="10.5397794"><ele>133.0</ele><time>2026-04-24T01:39:23.794Z</time></trkpt><trkpt lat="45.4091012" lon="10.5397171"><ele>133.0</ele><time>2026-04-24T01:39:31.798Z</time></trkpt><trkpt lat="45.4090457" lon="10.5397628"><ele>133.0</ele><time>2026-04-24T01:39:52.8Z</time></trkpt><trkpt lat="45.4089918" lon="10.5398336"><ele>133.0</ele><time>2026-04-24T01:40:16.797Z</time></trkpt><trkpt lat="45.4089391" lon="10.5398838"><ele>133.0</ele><time>2026-04-24T01:41:03.802Z</time></trkpt><trkpt lat="45.4089906" lon="10.5398314"><ele>133.0</ele><time>2026-04-24T01:41:35.802Z</time></trkpt><trkpt lat="45.4089268" lon="10.5397791"><ele>133.0</ele><time>2026-04-24T01:42:04.792Z</time></trkpt><trkpt lat="45.4089594" lon="10.5398718"><ele>133.0</ele><time>2026-04-24T01:42:29.789Z</time></trkpt><trkpt lat="45.4090046" lon="10.5399349"><ele>133.0</ele><time>2026-04-24T01:43:53.789Z</time></trkpt><trkpt lat="45.40907" lon="10.539987"><ele>133.0</ele><time>2026-04-24T01:44:12.8Z</time></trkpt><trkpt lat="45.4090105" lon="10.5399348"><ele>133.0</ele><time>2026-04-24T01:44:51.796Z</time></trkpt><trkpt lat="45.4090748" lon="10.5398627"><ele>133.0</ele><time>2026-04-24T01:46:04.795Z</time></trkpt><trkpt lat="45.4090089" lon="10.5398642"><ele>133.0</ele><time>2026-04-24T01:47:16.791Z</time></trkpt><trkpt lat="45.4089399" lon="10.539878"><ele>133.0</ele><time>2026-04-24T01:47:40.789Z</time></trkpt><trkpt lat="45.4090054" lon="10.5398968"><ele>133.0</ele><time>2026-04-24T01:48:48.799Z</time></trkpt><trkpt lat="45.4089351" lon="10.5398456"><ele>133.0</ele><time>2026-04-24T01:50:02.795Z</time></trkpt><trkpt lat="45.4089993" lon="10.5398344"><ele>133.0</ele><time>2026-04-24T01:50:33.791Z</time></trkpt><trkpt lat="45.4089302" lon="10.5397834"><ele>133.0</ele><time>2026-04-24T01:50:40.796Z</time></trkpt><trkpt lat="45.4089327" lon="10.5396861"><ele>133.0</ele><time>2026-04-24T01:51:11.791Z</time></trkpt><trkpt lat="45.4089602" lon="10.5395741"><ele>133.0</ele><time>2026-04-24T01:51:15.793Z</time></trkpt><trkpt lat="45.408993" lon="10.5394609"><ele>133.0</ele><time>2026-04-24T01:51:19.795Z</time></trkpt><trkpt lat="45.4090037" lon="10.5393636"><ele>133.0</ele><time>2026-04-24T01:51:25.802Z</time></trkpt><trkpt lat="45.4090723" lon="10.5392842"><ele>133.0</ele><time>2026-04-24T01:51:30.795Z</time></trkpt><trkpt lat="45.4090916" lon="10.5393781"><ele>133.0</ele><time>2026-04-24T01:51:35.796Z</time></trkpt><trkpt lat="45.4090566" lon="10.539526"><ele>133.0</ele><time>2026-04-24T01:51:39.791Z</time></trkpt><trkpt lat="45.4090177" lon="10.5396101"><ele>133.0</ele><time>2026-04-24T01:51:41.788Z</time></trkpt><trkpt lat="45.4090002" lon="10.5397074"><ele>133.0</ele><time>2026-04-24T01:51:44.794Z</time></trkpt><trkpt lat="45.4089495" lon="10.5398282"><ele>133.0</ele><time>2026-04-24T01:51:47.791Z</time></trkpt><trkpt lat="45.4089217" lon="10.5399484"><ele>133.0</ele><time>2026-04-24T01:51:48.79Z</time></trkpt><trkpt lat="45.4088892" lon="10.5400751"><ele>133.0</ele><time>2026-04-24T01:51:53.797Z</time></trkpt><trkpt lat="45.4089154" lon="10.53984"><ele>133.0</ele><time>2026-04-24T01:51:56.788Z</time></trkpt><trkpt lat="45.4089539" lon="10.5394543"><ele>133.0</ele><time>2026-04-24T01:51:57.792Z</time></trkpt><trkpt lat="45.4089618" lon="10.5393588"><ele>133.0</ele><time>2026-04-24T01:51:58.795Z</time></trkpt><trkpt lat="45.40903" lon="10.5393716"><ele>133.0</ele><time>2026-04-24T01:52:04.79Z</time></trkpt><trkpt lat="45.4090337" lon="10.5394803"><ele>133.0</ele><time>2026-04-24T01:52:07.8Z</time></trkpt><trkpt lat="45.4090359" lon="10.5395921"><ele>133.0</ele><time>2026-04-24T01:52:11.788Z</time></trkpt><trkpt lat="45.4090146" lon="10.5396906"><ele>133.0</ele><time>2026-04-24T01:52:14.796Z</time></trkpt><trkpt lat="45.4090016" lon="10.5398011"><ele>133.0</ele><time>2026-04-24T01:52:21.793Z</time></trkpt><trkpt lat="45.4089327" lon="10.5398226"><ele>133.0</ele><time>2026-04-24T01:52:28.791Z</time></trkpt><trkpt lat="45.4090311" lon="10.5397893"><ele>133.0</ele><time>2026-04-24T01:52:37.802Z</time></trkpt><trkpt lat="45.4089639" lon="10.5397559"><ele>133.0</ele><time>2026-04-24T01:52:41.799Z</time></trkpt><trkpt lat="45.4089315" lon="10.5398484"><ele>133.0</ele><time>2026-04-24T01:52:56.792Z</time></trkpt><trkpt lat="45.4088744" lon="10.5398021"><ele>133.0</ele><time>2026-04-24T01:53:33.791Z</time></trkpt><trkpt lat="45.4089323" lon="10.5398672"><ele>133.0</ele><time>2026-04-24T01:54:16.792Z</time></trkpt><trkpt lat="45.4090091" lon="10.5399093"><ele>133.0</ele><time>2026-04-24T01:54:33.796Z</time></trkpt><trkpt lat="45.408941" lon="10.5398616"><ele>133.0</ele><time>2026-04-24T01:55:09.789Z</time></trkpt><trkpt lat="45.4089651" lon="10.5397559"><ele>133.0</ele><time>2026-04-24T01:55:26.792Z</time></trkpt><trkpt lat="45.4090441" lon="10.5398939"><ele>133.0</ele><time>2026-04-24T01:55:30.801Z</time></trkpt><trkpt lat="45.4091488" lon="10.5400569"><ele>133.0</ele><time>2026-04-24T01:55:32.796Z</time></trkpt><trkpt lat="45.409233" lon="10.5401451"><ele>133.0</ele><time>2026-04-24T01:55:34.791Z</time></trkpt><trkpt lat="45.4091794" lon="10.5400588"><ele>133.0</ele><time>2026-04-24T01:55:40.794Z</time></trkpt><trkpt lat="45.4091208" lon="10.5400196"><ele>133.0</ele><time>2026-04-24T01:55:47.798Z</time></trkpt><trkpt lat="45.4090743" lon="10.5399493"><ele>133.0</ele><time>2026-04-24T01:55:55.799Z</time></trkpt><trkpt lat="45.4090214" lon="10.5398969"><ele>133.0</ele><time>2026-04-24T01:56:01.789Z</time></trkpt><trkpt lat="45.4089532" lon="10.5398788"><ele>133.0</ele><time>2026-04-24T01:56:07.799Z</time></trkpt><trkpt lat="45.4088919" lon="10.5398476"><ele>133.0</ele><time>2026-04-24T01:56:13.8Z</time></trkpt><trkpt lat="45.4089521" lon="10.5399048"><ele>133.0</ele><time>2026-04-24T01:56:41.791Z</time></trkpt><trkpt lat="45.4088875" lon="10.5399374"><ele>133.0</ele><time>2026-04-24T01:57:22.795Z</time></trkpt><trkpt lat="45.4088632" lon="10.5400479"><ele>133.0</ele><time>2026-04-24T01:57:36.797Z</time></trkpt><trkpt lat="45.4089287" lon="10.5398408"><ele>133.0</ele><time>2026-04-24T01:57:50.799Z</time></trkpt><trkpt lat="45.409008" lon="10.5397033"><ele>133.0</ele><time>2026-04-24T01:58:15.791Z</time></trkpt><trkpt lat="45.4089127" lon="10.5397406"><ele>133.0</ele><time>2026-04-24T01:58:48.794Z</time></trkpt><trkpt lat="45.4088642" lon="10.5398129"><ele>133.0</ele><time>2026-04-24T01:58:51.796Z</time></trkpt><trkpt lat="45.4088055" lon="10.539881"><ele>133.0</ele><time>2026-04-24T01:59:03.791Z</time></trkpt><trkpt lat="45.4087759" lon="10.5399636"><ele>133.0</ele><time>2026-04-24T01:59:08.792Z</time></trkpt><trkpt lat="45.4088509" lon="10.5399041"><ele>133.0</ele><time>2026-04-24T01:59:32.793Z</time></trkpt><trkpt lat="45.408912" lon="10.5398251"><ele>133.0</ele><time>2026-04-24T01:59:36.791Z</time></trkpt><trkpt lat="45.4089991" lon="10.5397744"><ele>133.0</ele><time>2026-04-24T01:59:59.789Z</time></trkpt><trkpt lat="45.4089468" lon="10.5398299"><ele>133.0</ele><time>2026-04-24T02:00:10.791Z</time></trkpt><trkpt lat="45.4090244" lon="10.5398049"><ele>133.0</ele><time>2026-04-24T02:00:25.791Z</time></trkpt><trkpt lat="45.4090839" lon="10.5397682"><ele>133.0</ele><time>2026-04-24T02:00:29.797Z</time></trkpt><trkpt lat="45.4090183" lon="10.5398423"><ele>133.0</ele><time>2026-04-24T02:01:00.793Z</time></trkpt><trkpt lat="45.40895" lon="10.539882"><ele>133.0</ele><time>2026-04-24T02:01:05.788Z</time></trkpt><trkpt lat="45.4089022" lon="10.5399502"><ele>133.0</ele><time>2026-04-24T02:01:10.795Z</time></trkpt><trkpt lat="45.4088471" lon="10.5400521"><ele>131.5</ele><time>2026-04-24T02:01:13.904Z</time></trkpt><trkpt lat="45.4087918" lon="10.5401202"><ele>130.0</ele><time>2026-04-24T02:01:15.79Z</time></trkpt><trkpt lat="45.4087257" lon="10.5401589"><ele>128.5</ele><time>2026-04-24T02:01:17.795Z</time></trkpt><trkpt lat="45.4086736" lon="10.540217"><ele>127.0</ele><time>2026-04-24T02:01:20.789Z</time></trkpt><trkpt lat="45.4087392" lon="10.5401817"><ele>125.50000000000001</ele><time>2026-04-24T02:01:28.795Z</time></trkpt><trkpt lat="45.4086579" lon="10.5402328"><ele>124.0</ele><time>2026-04-24T02:01:33.789Z</time></trkpt><trkpt lat="45.4085325" lon="10.5403374"><ele>126.66666666666667</ele><time>2026-04-24T02:01:36.795Z</time></trkpt><trkpt lat="45.4084707" lon="10.5403945"><ele>129.33333333333334</ele><time>2026-04-24T02:01:37.787Z</time></trkpt><trkpt lat="45.408381" lon="10.5404667"><ele>132.0</ele><time>2026-04-24T02:01:40.788Z</time></trkpt><trkpt lat="45.408927" lon="10.5399584"><ele>132.2</ele><time>2026-04-24T02:01:59.795Z</time></trkpt><trkpt lat="45.408995" lon="10.5398978"><ele>132.39999999999998</ele><time>2026-04-24T02:02:00.797Z</time></trkpt><trkpt lat="45.4090386" lon="10.5398247"><ele>132.60000000000002</ele><time>2026-04-24T02:02:04.787Z</time></trkpt><trkpt lat="45.4091382" lon="10.5396299"><ele>132.8</ele><time>2026-04-24T02:02:26.797Z</time></trkpt><trkpt lat="45.4092323" lon="10.5395426"><ele>133.0</ele><time>2026-04-24T02:02:28.798Z</time></trkpt><trkpt lat="45.4093329" lon="10.5394886"><ele>133.0</ele><time>2026-04-24T02:02:30.798Z</time></trkpt><trkpt lat="45.4094216" lon="10.5394104"><ele>133.0</ele><time>2026-04-24T02:02:32.796Z</time></trkpt><trkpt lat="45.4094806" lon="10.5393729"><ele>133.0</ele><time>2026-04-24T02:02:35.793Z</time></trkpt><trkpt lat="45.4095738" lon="10.5392897"><ele>133.0</ele><time>2026-04-24T02:02:38.794Z</time></trkpt><trkpt lat="45.4095719" lon="10.5394014"><ele>133.0</ele><time>2026-04-24T02:02:45.788Z</time></trkpt><trkpt lat="45.4089925" lon="10.5399956"><ele>133.0</ele><time>2026-04-24T02:02:58.795Z</time></trkpt><trkpt lat="45.4089347" lon="10.5400668"><ele>133.0</ele><time>2026-04-24T02:02:59.795Z</time></trkpt><trkpt lat="45.4088856" lon="10.5401494"><ele>133.0</ele><time>2026-04-24T02:03:02.784Z</time></trkpt><trkpt lat="45.4088256" lon="10.5401993"><ele>133.0</ele><time>2026-04-24T02:03:06.798Z</time></trkpt><trkpt lat="45.4087147" lon="10.5402061"><ele>133.0</ele><time>2026-04-24T02:03:12.795Z</time></trkpt><trkpt lat="45.4090291" lon="10.5399095"><ele>124.0</ele><time>2026-04-24T02:03:48.502Z</time></trkpt><trkpt lat="45.4083813" lon="10.5402277"><ele>124.0</ele><time>2026-04-24T02:04:12.79Z</time></trkpt><trkpt lat="45.4082715" lon="10.5402949"><ele>124.0</ele><time>2026-04-24T02:04:13.794Z</time></trkpt><trkpt lat="45.4083654" lon="10.5403419"><ele>124.0</ele><time>2026-04-24T02:04:15.795Z</time></trkpt><trkpt lat="45.4084287" lon="10.5403844"><ele>124.0</ele><time>2026-04-24T02:04:17.79Z</time></trkpt><trkpt lat="45.4085356" lon="10.5403445"><ele>124.0</ele><time>2026-04-24T02:04:21.793Z</time></trkpt><trkpt lat="45.408601" lon="10.5402734"><ele>124.0</ele><time>2026-04-24T02:04:22.799Z</time></trkpt><trkpt lat="45.4086603" lon="10.540206"><ele>124.0</ele><time>2026-04-24T02:04:27.793Z</time></trkpt><trkpt lat="45.4086193" lon="10.5402964"><ele>124.0</ele><time>2026-04-24T02:04:32.792Z</time></trkpt><trkpt lat="45.4085617" lon="10.540372"><ele>124.0</ele><time>2026-04-24T02:04:33.791Z</time></trkpt><trkpt lat="45.4084107" lon="10.5405968"><ele>124.0</ele><time>2026-04-24T02:04:35.791Z</time></trkpt><trkpt lat="45.4082211" lon="10.5408755"><ele>126.0</ele><time>2026-04-24T02:04:36.796Z</time></trkpt><trkpt lat="45.4081343" lon="10.5409901"><ele>128.0</ele><time>2026-04-24T02:04:37.79Z</time></trkpt><trkpt lat="45.4080746" lon="10.5410634"><ele>130.0</ele><time>2026-04-24T02:04:40.794Z</time></trkpt><trkpt lat="45.4080039" lon="10.5411561"><ele>132.0</ele><time>2026-04-24T02:04:43.796Z</time></trkpt><trkpt lat="45.408329" lon="10.5406617"><ele>132.0</ele><time>2026-04-24T02:04:49.787Z</time></trkpt><trkpt lat="45.4084518" lon="10.5404674"><ele>132.0</ele><time>2026-04-24T02:04:50.798Z</time></trkpt><trkpt lat="45.4085007" lon="10.5404038"><ele>132.0</ele><time>2026-04-24T02:04:54.799Z</time></trkpt><trkpt lat="45.4085558" lon="10.5403172"><ele>132.0</ele><time>2026-04-24T02:04:56.793Z</time></trkpt><trkpt lat="45.408613" lon="10.5402639"><ele>132.0</ele><time>2026-04-24T02:04:57.794Z</time></trkpt><trkpt lat="45.4087233" lon="10.5401457"><ele>132.0</ele><time>2026-04-24T02:04:58.797Z</time></trkpt><trkpt lat="45.4087823" lon="10.540101"><ele>132.0</ele><time>2026-04-24T02:04:59.792Z</time></trkpt><trkpt lat="45.4087247" lon="10.5402417"><ele>132.0</ele><time>2026-04-24T02:05:04.797Z</time></trkpt><trkpt lat="45.4086786" lon="10.5403039"><ele>132.0</ele><time>2026-04-24T02:05:05.799Z</time></trkpt><trkpt lat="45.4085997" lon="10.5404284"><ele>132.0</ele><time>2026-04-24T02:05:07.797Z</time></trkpt><trkpt lat="45.4082865" lon="10.540796"><ele>132.0</ele><time>2026-04-24T02:05:11.798Z</time></trkpt><trkpt lat="45.4080669" lon="10.541009"><ele>132.0</ele><time>2026-04-24T02:05:12.792Z</time></trkpt><trkpt lat="45.407979" lon="10.5410956"><ele>132.0</ele><time>2026-04-24T02:05:13.796Z</time></trkpt><trkpt lat="45.4078308" lon="10.5412508"><ele>132.5</ele><time>2026-04-24T02:05:15.8Z</time></trkpt><trkpt lat="45.4077778" lon="10.5413069"><ele>133.0</ele><time>2026-04-24T02:05:16.797Z</time></trkpt><trkpt lat="45.4077196" lon="10.5413581"><ele>133.5</ele><time>2026-04-24T02:05:18.797Z</time></trkpt><trkpt lat="45.4077674" lon="10.5412229"><ele>134.0</ele><time>2026-04-24T02:05:26.799Z</time></trkpt><trkpt lat="45.4078603" lon="10.5411131"><ele>134.5</ele><time>2026-04-24T02:05:28.797Z</time></trkpt><trkpt lat="45.4079217" lon="10.541076"><ele>135.0</ele><time>2026-04-24T02:05:31.804Z</time></trkpt><trkpt lat="45.407963" lon="10.5409978"><ele>134.5</ele><time>2026-04-24T02:05:36.788Z</time></trkpt><trkpt lat="45.4080036" lon="10.5409162"><ele>134.0</ele><time>2026-04-24T02:05:39.797Z</time></trkpt><trkpt lat="45.4080587" lon="10.5408165"><ele>133.5</ele><time>2026-04-24T02:05:44.791Z</time></trkpt><trkpt lat="45.408109" lon="10.5407239"><ele>133.0</ele><time>2026-04-24T02:05:48.798Z</time></trkpt><trkpt lat="45.4081658" lon="10.5406359"><ele>132.5</ele><time>2026-04-24T02:05:50.794Z</time></trkpt><trkpt lat="45.4082364" lon="10.540565"><ele>132.0</ele><time>2026-04-24T02:05:52.793Z</time></trkpt><trkpt lat="45.4083647" lon="10.5404393"><ele>130.4</ele><time>2026-04-24T02:05:54.797Z</time></trkpt><trkpt lat="45.4084607" lon="10.5403505"><ele>128.79999999999998</ele><time>2026-04-24T02:05:55.798Z</time></trkpt><trkpt lat="45.4085698" lon="10.5402405"><ele>127.2</ele><time>2026-04-24T02:05:56.796Z</time></trkpt><trkpt lat="45.4086371" lon="10.5401648"><ele>125.6</ele><time>2026-04-24T02:05:57.8Z</time></trkpt><trkpt lat="45.4086842" lon="10.5401053"><ele>124.0</ele><time>2026-04-24T02:05:58.798Z</time></trkpt><trkpt lat="45.4087628" lon="10.54002"><ele>124.0</ele><time>2026-04-24T02:06:00.789Z</time></trkpt><trkpt lat="45.4088154" lon="10.5399601"><ele>124.00000000000001</ele><time>2026-04-24T02:06:07.789Z</time></trkpt><trkpt lat="45.4088934" lon="10.5399408"><ele>124.0</ele><time>2026-04-24T02:06:23.791Z</time></trkpt><trkpt lat="45.4088258" lon="10.5399043"><ele>124.0</ele><time>2026-04-24T02:08:15.799Z</time></trkpt><trkpt lat="45.4088832" lon="10.5399514"><ele>124.00000000000001</ele><time>2026-04-24T02:08:25.907Z</time></trkpt><trkpt lat="45.4089339" lon="10.5400085"><ele>124.0</ele><time>2026-04-24T02:08:31.802Z</time></trkpt><trkpt lat="45.4089572" lon="10.5399235"><ele>124.0</ele><time>2026-04-24T02:09:29.801Z</time></trkpt><trkpt lat="45.4090296" lon="10.539917"><ele>125.50000000000001</ele><time>2026-04-24T02:09:39.787Z</time></trkpt><trkpt lat="45.4089755" lon="10.5398135"><ele>127.0</ele><time>2026-04-24T02:10:18.795Z</time></trkpt><trkpt lat="45.4088874" lon="10.5398537"><ele>128.5</ele><time>2026-04-24T02:10:24.8Z</time></trkpt><trkpt lat="45.4089864" lon="10.5398466"><ele>130.0</ele><time>2026-04-24T02:10:31.793Z</time></trkpt><trkpt lat="45.4090507" lon="10.5398075"><ele>131.5</ele><time>2026-04-24T02:10:40.789Z</time></trkpt><trkpt lat="45.4089833" lon="10.5398281"><ele>133.0</ele><time>2026-04-24T02:11:10.79Z</time></trkpt><trkpt lat="45.4089274" lon="10.5398839"><ele>133.0</ele><time>2026-04-24T02:11:27.79Z</time></trkpt><trkpt lat="45.408989" lon="10.5397957"><ele>133.0</ele><time>2026-04-24T02:12:35.799Z</time></trkpt><trkpt lat="45.4090571" lon="10.5396658"><ele>133.0</ele><time>2026-04-24T02:12:44.801Z</time></trkpt><trkpt lat="45.4089884" lon="10.5397639"><ele>133.0</ele><time>2026-04-24T02:12:51.789Z</time></trkpt><trkpt lat="45.4089124" lon="10.5397818"><ele>133.0</ele><time>2026-04-24T02:13:19.791Z</time></trkpt><trkpt lat="45.4088353" lon="10.5398395"><ele>133.0</ele><time>2026-04-24T02:13:24.791Z</time></trkpt><trkpt lat="45.4089518" lon="10.5398127"><ele>133.0</ele><time>2026-04-24T02:14:22.79Z</time></trkpt><trkpt lat="45.4090326" lon="10.5397752"><ele>133.0</ele><time>2026-04-24T02:14:24.781Z</time></trkpt><trkpt lat="45.4091027" lon="10.5397552"><ele>133.0</ele><time>2026-04-24T02:14:29.787Z</time></trkpt><trkpt lat="45.4090901" lon="10.5396555"><ele>133.0</ele><time>2026-04-24T02:14:53.797Z</time></trkpt><trkpt lat="45.4091329" lon="10.5397376"><ele>133.0</ele><time>2026-04-24T02:15:01.798Z</time></trkpt><trkpt lat="45.4091639" lon="10.5398331"><ele>133.0</ele><time>2026-04-24T02:15:03.8Z</time></trkpt><trkpt lat="45.409196" lon="10.5399216"><ele>133.0</ele><time>2026-04-24T02:15:08.791Z</time></trkpt><trkpt lat="45.4091332" lon="10.5399382"><ele>133.0</ele><time>2026-04-24T02:15:13.794Z</time></trkpt><trkpt lat="45.4090633" lon="10.5398789"><ele>133.0</ele><time>2026-04-24T02:15:43.787Z</time></trkpt><trkpt lat="45.4089928" lon="10.5397698"><ele>133.0</ele><time>2026-04-24T02:15:46.79Z</time></trkpt><trkpt lat="45.4089015" lon="10.5397071"><ele>133.0</ele><time>2026-04-24T02:15:55.798Z</time></trkpt><trkpt lat="45.4087783" lon="10.539626"><ele>133.0</ele><time>2026-04-24T02:16:01.789Z</time></trkpt><trkpt lat="45.4088331" lon="10.5396937"><ele>133.0</ele><time>2026-04-24T02:16:08.797Z</time></trkpt><trkpt lat="45.4087849" lon="10.5396239"><ele>133.0</ele><time>2026-04-24T02:16:11.788Z</time></trkpt><trkpt lat="45.4088022" lon="10.5397534"><ele>133.0</ele><time>2026-04-24T02:16:18.788Z</time></trkpt><trkpt lat="45.4088482" lon="10.5398476"><ele>133.0</ele><time>2026-04-24T02:16:29.792Z</time></trkpt><trkpt lat="45.4089002" lon="10.5397688"><ele>133.0</ele><time>2026-04-24T02:16:39.797Z</time></trkpt><trkpt lat="45.4089643" lon="10.5397231"><ele>133.0</ele><time>2026-04-24T02:16:48.793Z</time></trkpt><trkpt lat="45.409037" lon="10.5397617"><ele>133.0</ele><time>2026-04-24T02:17:08.789Z</time></trkpt><trkpt lat="45.4089564" lon="10.5397883"><ele>133.0</ele><time>2026-04-24T02:17:09.79Z</time></trkpt><trkpt lat="45.4090413" lon="10.5397972"><ele>133.0</ele><time>2026-04-24T02:17:39.794Z</time></trkpt><trkpt lat="45.4089682" lon="10.5397562"><ele>133.0</ele><time>2026-04-24T02:18:42.788Z</time></trkpt><trkpt lat="45.4089019" lon="10.5397631"><ele>133.0</ele><time>2026-04-24T02:18:44.792Z</time></trkpt><trkpt lat="45.4088208" lon="10.5397822"><ele>133.0</ele><time>2026-04-24T02:18:55.793Z</time></trkpt><trkpt lat="45.4089071" lon="10.5397903"><ele>133.0</ele><time>2026-04-24T02:19:01.796Z</time></trkpt><trkpt lat="45.4089948" lon="10.5398068"><ele>133.0</ele><time>2026-04-24T02:19:13.789Z</time></trkpt><trkpt lat="45.408852" lon="10.5397639"><ele>133.0</ele><time>2026-04-24T02:19:24.796Z</time></trkpt><trkpt lat="45.4087551" lon="10.5397694"><ele>133.0</ele><time>2026-04-24T02:19:26.787Z</time></trkpt><trkpt lat="45.4086598" lon="10.5397789"><ele>133.0</ele><time>2026-04-24T02:19:29.792Z</time></trkpt><trkpt lat="45.4087648" lon="10.5397808"><ele>133.0</ele><time>2026-04-24T02:19:41.797Z</time></trkpt><trkpt lat="45.4088763" lon="10.5397791"><ele>133.0</ele><time>2026-04-24T02:19:46.793Z</time></trkpt><trkpt lat="45.4087982" lon="10.5397812"><ele>133.0</ele><time>2026-04-24T02:19:48.796Z</time></trkpt><trkpt lat="45.4088455" lon="10.5398475"><ele>133.0</ele><time>2026-04-24T02:19:54.793Z</time></trkpt><trkpt lat="45.4089682" lon="10.5398909"><ele>133.0</ele><time>2026-04-24T02:20:08.789Z</time></trkpt><trkpt lat="45.4090607" lon="10.5398769"><ele>133.0</ele><time>2026-04-24T02:20:23.79Z</time></trkpt><trkpt lat="45.4089988" lon="10.5398224"><ele>133.0</ele><time>2026-04-24T02:20:28.799Z</time></trkpt><trkpt lat="45.4089161" lon="10.5398021"><ele>133.0</ele><time>2026-04-24T02:20:30.796Z</time></trkpt><trkpt lat="45.4089804" lon="10.5398276"><ele>133.0</ele><time>2026-04-24T02:20:39.784Z</time></trkpt><trkpt lat="45.4090793" lon="10.5398229"><ele>133.0</ele><time>2026-04-24T02:20:58.791Z</time></trkpt><trkpt lat="45.4089996" lon="10.5398154"><ele>133.0</ele><time>2026-04-24T02:21:08.791Z</time></trkpt><trkpt lat="45.4089361" lon="10.5398309"><ele>133.0</ele><time>2026-04-24T02:21:16.792Z</time></trkpt><trkpt lat="45.4088194" lon="10.5398608"><ele>133.0</ele><time>2026-04-24T02:22:01.79Z</time></trkpt><trkpt lat="45.4089072" lon="10.5398302"><ele>133.0</ele><time>2026-04-24T02:22:10.789Z</time></trkpt><trkpt lat="45.4088351" lon="10.5397705"><ele>133.0</ele><time>2026-04-24T02:22:29.789Z</time></trkpt><trkpt lat="45.4088914" lon="10.5398281"><ele>133.0</ele><time>2026-04-24T02:22:47.789Z</time></trkpt><trkpt lat="45.4090078" lon="10.5398428"><ele>133.0</ele><time>2026-04-24T02:23:00.789Z</time></trkpt><trkpt lat="45.4089581" lon="10.5399022"><ele>133.0</ele><time>2026-04-24T02:23:13.791Z</time></trkpt><trkpt lat="45.4088915" lon="10.5399225"><ele>133.0</ele><time>2026-04-24T02:23:33.789Z</time></trkpt><trkpt lat="45.4089174" lon="10.5398309"><ele>133.0</ele><time>2026-04-24T02:23:53.8Z</time></trkpt><trkpt lat="45.4090027" lon="10.5398269"><ele>133.0</ele><time>2026-04-24T02:24:01.791Z</time></trkpt><trkpt lat="45.4089402" lon="10.5398755"><ele>133.0</ele><time>2026-04-24T02:24:10.797Z</time></trkpt><trkpt lat="45.4089281" lon="10.5397672"><ele>133.0</ele><time>2026-04-24T02:24:18.795Z</time></trkpt><trkpt lat="45.40898" lon="10.539825"><ele>133.0</ele><time>2026-04-24T02:25:41.79Z</time></trkpt><trkpt lat="45.4089038" lon="10.5398071"><ele>133.0</ele><time>2026-04-24T02:26:07.79Z</time></trkpt><trkpt lat="45.4089816" lon="10.5397741"><ele>133.0</ele><time>2026-04-24T02:26:10.794Z</time></trkpt><trkpt lat="45.4089348" lon="10.5398403"><ele>133.0</ele><time>2026-04-24T02:27:18.792Z</time></trkpt><trkpt lat="45.4090063" lon="10.5398308"><ele>133.0</ele><time>2026-04-24T02:28:13.801Z</time></trkpt><trkpt lat="45.4089359" lon="10.53978"><ele>133.0</ele><time>2026-04-24T02:28:18.79Z</time></trkpt><trkpt lat="45.4090008" lon="10.5397624"><ele>133.0</ele><time>2026-04-24T02:28:40.788Z</time></trkpt><trkpt lat="45.4089318" lon="10.5397823"><ele>133.0</ele><time>2026-04-24T02:28:48.792Z</time></trkpt><trkpt lat="45.4088518" lon="10.5398482"><ele>133.0</ele><time>2026-04-24T02:28:56.792Z</time></trkpt><trkpt lat="45.4089197" lon="10.5398545"><ele>133.0</ele><time>2026-04-24T02:31:03.797Z</time></trkpt><trkpt lat="45.4089934" lon="10.5398465"><ele>133.0</ele><time>2026-04-24T02:31:11.8Z</time></trkpt><trkpt lat="45.4090912" lon="10.5398604"><ele>133.0</ele><time>2026-04-24T02:31:27.79Z</time></trkpt><trkpt lat="45.4090215" lon="10.5398307"><ele>133.0</ele><time>2026-04-24T02:31:36.794Z</time></trkpt><trkpt lat="45.4090803" lon="10.5398865"><ele>133.0</ele><time>2026-04-24T02:32:27.793Z</time></trkpt><trkpt lat="45.4090149" lon="10.5398743"><ele>133.0</ele><time>2026-04-24T02:32:55.794Z</time></trkpt><trkpt lat="45.4089441" lon="10.539866"><ele>133.0</ele><time>2026-04-24T02:33:00.793Z</time></trkpt><trkpt lat="45.4088696" lon="10.5398669"><ele>133.0</ele><time>2026-04-24T02:33:02.789Z</time></trkpt><trkpt lat="45.4088044" lon="10.5399012"><ele>133.0</ele><time>2026-04-24T02:33:04.792Z</time></trkpt><trkpt lat="45.4088873" lon="10.5398679"><ele>133.0</ele><time>2026-04-24T02:33:30.797Z</time></trkpt><trkpt lat="45.4089468" lon="10.5398133"><ele>133.0</ele><time>2026-04-24T02:33:35.787Z</time></trkpt><trkpt lat="45.4088745" lon="10.5397139"><ele>133.0</ele><time>2026-04-24T02:33:55.801Z</time></trkpt><trkpt lat="45.4088074" lon="10.5397022"><ele>133.0</ele><time>2026-04-24T02:33:56.795Z</time></trkpt><trkpt lat="45.4088651" lon="10.5397451"><ele>133.0</ele><time>2026-04-24T02:34:16.79Z</time></trkpt><trkpt lat="45.4089213" lon="10.5398795"><ele>133.0</ele><time>2026-04-24T02:34:29.797Z</time></trkpt><trkpt lat="45.4090089" lon="10.5398829"><ele>133.0</ele><time>2026-04-24T02:34:36.796Z</time></trkpt><trkpt lat="45.4089521" lon="10.5398358"><ele>133.0</ele><time>2026-04-24T02:34:40.788Z</time></trkpt><trkpt lat="45.4088517" lon="10.5398524"><ele>131.5</ele><time>2026-04-24T02:34:44.788Z</time></trkpt><trkpt lat="45.4087883" lon="10.5398757"><ele>130.0</ele><time>2026-04-24T02:34:45.793Z</time></trkpt><trkpt lat="45.4087522" lon="10.5399902"><ele>128.5</ele><time>2026-04-24T02:35:02.794Z</time></trkpt><trkpt lat="45.4088174" lon="10.5399709"><ele>127.0</ele><time>2026-04-24T02:35:24.795Z</time></trkpt><trkpt lat="45.4087707" lon="10.5400494"><ele>125.50000000000001</ele><time>2026-04-24T02:35:38.788Z</time></trkpt><trkpt lat="45.4086954" lon="10.5399644"><ele>124.0</ele><time>2026-04-24T02:35:40.788Z</time></trkpt><trkpt lat="45.4087594" lon="10.5399468"><ele>124.00000000000001</ele><time>2026-04-24T02:36:06.796Z</time></trkpt><trkpt lat="45.4088213" lon="10.5399078"><ele>124.0</ele><time>2026-04-24T02:36:08.793Z</time></trkpt><trkpt lat="45.4088634" lon="10.5397975"><ele>124.0</ele><time>2026-04-24T02:36:12.791Z</time></trkpt><trkpt lat="45.4089154" lon="10.5397249"><ele>124.0</ele><time>2026-04-24T02:36:13.802Z</time></trkpt><trkpt lat="45.4089585" lon="10.5396555"><ele>124.00000000000001</ele><time>2026-04-24T02:36:15.792Z</time></trkpt><trkpt lat="45.4090306" lon="10.5396223"><ele>124.0</ele><time>2026-04-24T02:36:30.797Z</time></trkpt><trkpt lat="45.4091508" lon="10.5395522"><ele>125.0</ele><time>2026-04-24T02:36:57.79Z</time></trkpt><trkpt lat="45.4092192" lon="10.5394968"><ele>126.0</ele><time>2026-04-24T02:36:58.789Z</time></trkpt><trkpt lat="45.4091536" lon="10.5396016"><ele>127.0</ele><time>2026-04-24T02:37:16.786Z</time></trkpt><trkpt lat="45.4090954" lon="10.5396736"><ele>128.0</ele><time>2026-04-24T02:37:18.793Z</time></trkpt><trkpt lat="45.4089969" lon="10.5397831"><ele>129.0</ele><time>2026-04-24T02:37:27.794Z</time></trkpt><trkpt lat="45.4088807" lon="10.5398386"><ele>129.66666666666666</ele><time>2026-04-24T02:37:56.791Z</time></trkpt><trkpt lat="45.4089368" lon="10.5397586"><ele>130.33333333333334</ele><time>2026-04-24T02:40:24.794Z</time></trkpt><trkpt lat="45.4088623" lon="10.5397647"><ele>131.0</ele><time>2026-04-24T02:40:43.795Z</time></trkpt><trkpt lat="45.4089283" lon="10.5398133"><ele>131.66666666666669</ele><time>2026-04-24T02:41:03.79Z</time></trkpt><trkpt lat="45.4089968" lon="10.539946"><ele>132.33333333333334</ele><time>2026-04-24T02:41:50.789Z</time></trkpt><trkpt lat="45.4089906" lon="10.5398509"><ele>133.0</ele><time>2026-04-24T02:42:32.789Z</time></trkpt><trkpt lat="45.4090059" lon="10.5397168"><ele>133.0</ele><time>2026-04-24T02:42:38.795Z</time></trkpt><trkpt lat="45.4090364" lon="10.5396376"><ele>133.0</ele><time>2026-04-24T02:43:21.786Z</time></trkpt><trkpt lat="45.4090861" lon="10.5395751"><ele>133.0</ele><time>2026-04-24T02:43:29.789Z</time></trkpt><trkpt lat="45.4091278" lon="10.5395073"><ele>133.0</ele><time>2026-04-24T02:43:33.791Z</time></trkpt><trkpt lat="45.4091691" lon="10.5394299"><ele>133.0</ele><time>2026-04-24T02:43:37.788Z</time></trkpt><trkpt lat="45.409225" lon="10.5393596"><ele>133.0</ele><time>2026-04-24T02:43:45.787Z</time></trkpt><trkpt lat="45.4091939" lon="10.5394839"><ele>133.0</ele><time>2026-04-24T02:44:26.788Z</time></trkpt><trkpt lat="45.4091452" lon="10.5396044"><ele>133.0</ele><time>2026-04-24T02:44:28.793Z</time></trkpt><trkpt lat="45.4091109" lon="10.5396926"><ele>133.0</ele><time>2026-04-24T02:44:29.794Z</time></trkpt><trkpt lat="45.4090645" lon="10.5398148"><ele>133.0</ele><time>2026-04-24T02:44:31.794Z</time></trkpt><trkpt lat="45.4090227" lon="10.5399109"><ele>133.0</ele><time>2026-04-24T02:44:33.789Z</time></trkpt><trkpt lat="45.4089615" lon="10.5400369"><ele>133.0</ele><time>2026-04-24T02:44:42.792Z</time></trkpt><trkpt lat="45.4089308" lon="10.5399354"><ele>133.0</ele><time>2026-04-24T02:45:08.786Z</time></trkpt><trkpt lat="45.4088501" lon="10.5398548"><ele>133.0</ele><time>2026-04-24T02:45:22.786Z</time></trkpt><trkpt lat="45.4089265" lon="10.5398156"><ele>133.0</ele><time>2026-04-24T02:45:59.797Z</time></trkpt><trkpt lat="45.4088234" lon="10.5398422"><ele>133.0</ele><time>2026-04-24T02:46:56.792Z</time></trkpt><trkpt lat="45.4089525" lon="10.5398102"><ele>133.0</ele><time>2026-04-24T02:50:17.79Z</time></trkpt><trkpt lat="45.4088524" lon="10.5397889"><ele>133.0</ele><time>2026-04-24T02:52:13.79Z</time></trkpt><trkpt lat="45.4089497" lon="10.5397449"><ele>133.0</ele><time>2026-04-24T02:53:03.789Z</time></trkpt><trkpt lat="45.408881" lon="10.5397609"><ele>133.0</ele><time>2026-04-24T02:53:43.795Z</time></trkpt><trkpt lat="45.4089676" lon="10.5398116"><ele>133.0</ele><time>2026-04-24T02:56:29.787Z</time></trkpt><trkpt lat="45.4090295" lon="10.5398607"><ele>133.0</ele><time>2026-04-24T02:57:17.786Z</time></trkpt><trkpt lat="45.4089357" lon="10.5399569"><ele>133.0</ele><time>2026-04-24T02:57:29.786Z</time></trkpt><trkpt lat="45.4088695" lon="10.5398624"><ele>133.0</ele><time>2026-04-24T02:58:35.789Z</time></trkpt><trkpt lat="45.4089916" lon="10.5398387"><ele>133.0</ele><time>2026-04-24T03:01:00.787Z</time></trkpt><trkpt lat="45.409065" lon="10.5398"><ele>133.0</ele><time>2026-04-24T03:01:39.787Z</time></trkpt><trkpt lat="45.4089776" lon="10.5397768"><ele>133.0</ele><time>2026-04-24T03:03:16.795Z</time></trkpt><trkpt lat="45.4090359" lon="10.539841"><ele>133.0</ele><time>2026-04-24T03:04:11.797Z</time></trkpt><trkpt lat="45.408965" lon="10.5398992"><ele>133.0</ele><time>2026-04-24T03:04:26.795Z</time></trkpt><trkpt lat="45.4088527" lon="10.5398764"><ele>133.0</ele><time>2026-04-24T03:04:39.788Z</time></trkpt><trkpt lat="45.408946" lon="10.5399513"><ele>133.0</ele><time>2026-04-24T03:07:02.796Z</time></trkpt><trkpt lat="45.4089112" lon="10.5400528"><ele>133.0</ele><time>2026-04-24T03:07:37.786Z</time></trkpt><trkpt lat="45.4088664" lon="10.5399476"><ele>133.0</ele><time>2026-04-24T03:07:50.792Z</time></trkpt><trkpt lat="45.4088533" lon="10.540045"><ele>133.0</ele><time>2026-04-24T03:08:11.785Z</time></trkpt><trkpt lat="45.4088697" lon="10.540172"><ele>133.0</ele><time>2026-04-24T03:08:26.779Z</time></trkpt><trkpt lat="45.4089335" lon="10.5400496"><ele>133.0</ele><time>2026-04-24T03:08:54.793Z</time></trkpt><trkpt lat="45.4089535" lon="10.539869"><ele>133.0</ele><time>2026-04-24T03:09:05.795Z</time></trkpt><trkpt lat="45.4088603" lon="10.5398369"><ele>133.0</ele><time>2026-04-24T03:09:34.782Z</time></trkpt><trkpt lat="45.4089937" lon="10.5398573"><ele>133.0</ele><time>2026-04-24T03:11:06.789Z</time></trkpt><trkpt lat="45.4090706" lon="10.5399277"><ele>133.0</ele><time>2026-04-24T03:11:31.795Z</time></trkpt><trkpt lat="45.4090826" lon="10.5398216"><ele>133.0</ele><time>2026-04-24T03:12:15.786Z</time></trkpt><trkpt lat="45.4091644" lon="10.5396796"><ele>133.0</ele><time>2026-04-24T03:12:52.797Z</time></trkpt><trkpt lat="45.4090315" lon="10.5396836"><ele>133.0</ele><time>2026-04-24T03:13:58.789Z</time></trkpt><trkpt lat="45.4089098" lon="10.5397777"><ele>133.0</ele><time>2026-04-24T03:14:28.793Z</time></trkpt><trkpt lat="45.4087589" lon="10.5397875"><ele>133.0</ele><time>2026-04-24T03:15:10.79Z</time></trkpt><trkpt lat="45.4089101" lon="10.5397825"><ele>133.0</ele><time>2026-04-24T03:15:49.79Z</time></trkpt><trkpt lat="45.4088877" lon="10.5398814"><ele>133.0</ele><time>2026-04-24T03:16:48.793Z</time></trkpt><trkpt lat="45.4088028" lon="10.5398651"><ele>133.0</ele><time>2026-04-24T03:17:14.796Z</time></trkpt><trkpt lat="45.4087965" lon="10.5397555"><ele>133.0</ele><time>2026-04-24T03:18:01.794Z</time></trkpt><trkpt lat="45.4088762" lon="10.539756"><ele>133.0</ele><time>2026-04-24T03:18:50.791Z</time></trkpt><trkpt lat="45.4090047" lon="10.5397838"><ele>133.0</ele><time>2026-04-24T03:19:06.786Z</time></trkpt><trkpt lat="45.4089196" lon="10.5397974"><ele>133.0</ele><time>2026-04-24T03:19:39.791Z</time></trkpt><trkpt lat="45.409005" lon="10.5397241"><ele>133.0</ele><time>2026-04-24T03:21:11.79Z</time></trkpt><trkpt lat="45.4091276" lon="10.5397905"><ele>133.0</ele><time>2026-04-24T03:21:19.796Z</time></trkpt><trkpt lat="45.4090837" lon="10.5398665"><ele>133.0</ele><time>2026-04-24T03:21:38.787Z</time></trkpt><trkpt lat="45.4089808" lon="10.5397922"><ele>133.0</ele><time>2026-04-24T03:22:06.794Z</time></trkpt><trkpt lat="45.4089077" lon="10.539839"><ele>133.0</ele><time>2026-04-24T03:22:35.787Z</time></trkpt><trkpt lat="45.4089837" lon="10.5399264"><ele>133.0</ele><time>2026-04-24T03:22:54.79Z</time></trkpt><trkpt lat="45.4090502" lon="10.539863"><ele>133.0</ele><time>2026-04-24T03:23:09.791Z</time></trkpt><trkpt lat="45.4090777" lon="10.5397301"><ele>133.0</ele><time>2026-04-24T03:23:35.791Z</time></trkpt><trkpt lat="45.4089879" lon="10.5397573"><ele>133.0</ele><time>2026-04-24T03:23:59.795Z</time></trkpt><trkpt lat="45.4089015" lon="10.5398852"><ele>133.0</ele><time>2026-04-24T03:24:45.788Z</time></trkpt><trkpt lat="45.408974" lon="10.5398468"><ele>133.0</ele><time>2026-04-24T03:25:24.788Z</time></trkpt><trkpt lat="45.4090424" lon="10.5397884"><ele>133.0</ele><time>2026-04-24T03:25:39.795Z</time></trkpt><trkpt lat="45.4089721" lon="10.5398228"><ele>133.0</ele><time>2026-04-24T03:26:21.787Z</time></trkpt><trkpt lat="45.4089098" lon="10.5397612"><ele>133.0</ele><time>2026-04-24T03:27:59.79Z</time></trkpt><trkpt lat="45.4089862" lon="10.5397911"><ele>133.0</ele><time>2026-04-24T03:28:23.789Z</time></trkpt><trkpt lat="45.40893" lon="10.5398569"><ele>133.0</ele><time>2026-04-24T03:28:54.789Z</time></trkpt><trkpt lat="45.4089984" lon="10.5398628"><ele>133.0</ele><time>2026-04-24T03:30:00.784Z</time></trkpt><trkpt lat="45.4089226" lon="10.5398308"><ele>133.0</ele><time>2026-04-24T03:31:14.787Z</time></trkpt><trkpt lat="45.4088451" lon="10.5397292"><ele>133.0</ele><time>2026-04-24T03:35:46.791Z</time></trkpt><trkpt lat="45.4089249" lon="10.539735"><ele>133.0</ele><time>2026-04-24T03:36:36.788Z</time></trkpt><trkpt lat="45.4089544" lon="10.5398427"><ele>133.0</ele><time>2026-04-24T03:36:43.797Z</time></trkpt><trkpt lat="45.4090111" lon="10.5399371"><ele>133.0</ele><time>2026-04-24T03:36:45.787Z</time></trkpt><trkpt lat="45.4089563" lon="10.5400058"><ele>133.0</ele><time>2026-04-24T03:36:56.787Z</time></trkpt><trkpt lat="45.409081" lon="10.5400658"><ele>133.0</ele><time>2026-04-24T03:38:00.789Z</time></trkpt><trkpt lat="45.409132" lon="10.5399622"><ele>133.0</ele><time>2026-04-24T03:38:10.787Z</time></trkpt><trkpt lat="45.4090701" lon="10.5398921"><ele>133.0</ele><time>2026-04-24T03:38:29.79Z</time></trkpt><trkpt lat="45.4089811" lon="10.5397877"><ele>133.0</ele><time>2026-04-24T03:39:30.795Z</time></trkpt><trkpt lat="45.4089142" lon="10.5397425"><ele>133.0</ele><time>2026-04-24T03:39:33.787Z</time></trkpt><trkpt lat="45.4088313" lon="10.5397386"><ele>133.0</ele><time>2026-04-24T03:39:54.785Z</time></trkpt><trkpt lat="45.408943" lon="10.5397717"><ele>133.0</ele><time>2026-04-24T03:40:13.785Z</time></trkpt><trkpt lat="45.4088741" lon="10.5397448"><ele>133.0</ele><time>2026-04-24T03:43:53.79Z</time></trkpt><trkpt lat="45.4089325" lon="10.5397026"><ele>133.0</ele><time>2026-04-24T03:44:25.79Z</time></trkpt><trkpt lat="45.4089078" lon="10.5397867"><ele>133.0</ele><time>2026-04-24T03:45:10.782Z</time></trkpt><trkpt lat="45.4088072" lon="10.5398478"><ele>133.0</ele><time>2026-04-24T03:45:37.789Z</time></trkpt><trkpt lat="45.4088805" lon="10.5398269"><ele>133.0</ele><time>2026-04-24T03:46:17.786Z</time></trkpt><trkpt lat="45.4089746" lon="10.5397632"><ele>133.0</ele><time>2026-04-24T03:46:25.788Z</time></trkpt><trkpt lat="45.4090934" lon="10.5397335"><ele>133.0</ele><time>2026-04-24T03:46:42.783Z</time></trkpt><trkpt lat="45.4092263" lon="10.5397262"><ele>133.0</ele><time>2026-04-24T03:46:57.79Z</time></trkpt><trkpt lat="45.4093239" lon="10.539677"><ele>133.0</ele><time>2026-04-24T03:47:06.789Z</time></trkpt><trkpt lat="45.4092486" lon="10.5397247"><ele>133.0</ele><time>2026-04-24T03:47:27.788Z</time></trkpt><trkpt lat="45.4090298" lon="10.5397627"><ele>133.0</ele><time>2026-04-24T03:47:29.791Z</time></trkpt><trkpt lat="45.4089003" lon="10.5397605"><ele>133.0</ele><time>2026-04-24T03:47:32.787Z</time></trkpt><trkpt lat="45.4087904" lon="10.5398001"><ele>133.0</ele><time>2026-04-24T03:47:46.794Z</time></trkpt><trkpt lat="45.4088613" lon="10.5398083"><ele>133.0</ele><time>2026-04-24T03:48:08.798Z</time></trkpt><trkpt lat="45.4089836" lon="10.5398468"><ele>133.0</ele><time>2026-04-24T03:50:55.777Z</time></trkpt><trkpt lat="45.4090771" lon="10.5398212"><ele>133.0</ele><time>2026-04-24T03:51:14.791Z</time></trkpt><trkpt lat="45.4090191" lon="10.5397696"><ele>133.0</ele><time>2026-04-24T03:51:32.789Z</time></trkpt><trkpt lat="45.4090545" lon="10.5398725"><ele>133.0</ele><time>2026-04-24T03:52:54.796Z</time></trkpt><trkpt lat="45.409001" lon="10.5397694"><ele>133.0</ele><time>2026-04-24T03:53:21.787Z</time></trkpt><trkpt lat="45.4089078" lon="10.5397436"><ele>133.0</ele><time>2026-04-24T03:53:51.796Z</time></trkpt><trkpt lat="45.4089642" lon="10.5398325"><ele>133.0</ele><time>2026-04-24T03:54:46.786Z</time></trkpt><trkpt lat="45.4089039" lon="10.5398862"><ele>133.0</ele><time>2026-04-24T03:54:59.786Z</time></trkpt><trkpt lat="45.4088002" lon="10.5398156"><ele>133.0</ele><time>2026-04-24T03:55:23.788Z</time></trkpt><trkpt lat="45.4087333" lon="10.5397733"><ele>133.0</ele><time>2026-04-24T03:55:25.79Z</time></trkpt><trkpt lat="45.4087978" lon="10.5397819"><ele>133.0</ele><time>2026-04-24T03:56:05.79Z</time></trkpt><trkpt lat="45.4088582" lon="10.5398642"><ele>133.0</ele><time>2026-04-24T03:56:40.795Z</time></trkpt><trkpt lat="45.408811" lon="10.5399825"><ele>133.0</ele><time>2026-04-24T03:57:07.787Z</time></trkpt><trkpt lat="45.4088655" lon="10.5399094"><ele>133.0</ele><time>2026-04-24T03:57:39.783Z</time></trkpt><trkpt lat="45.4087775" lon="10.5398909"><ele>133.0</ele><time>2026-04-24T03:58:26.795Z</time></trkpt><trkpt lat="45.4088915" lon="10.5398498"><ele>133.0</ele><time>2026-04-24T03:59:15.791Z</time></trkpt><trkpt lat="45.4089873" lon="10.5398675"><ele>133.0</ele><time>2026-04-24T04:00:06.799Z</time></trkpt><trkpt lat="45.4091109" lon="10.5398849"><ele>133.0</ele><time>2026-04-24T04:02:17.791Z</time></trkpt><trkpt lat="45.4089941" lon="10.5398558"><ele>133.0</ele><time>2026-04-24T04:02:54.794Z</time></trkpt><trkpt lat="45.4089327" lon="10.5398805"><ele>133.0</ele><time>2026-04-24T04:03:52.796Z</time></trkpt><trkpt lat="45.4088265" lon="10.5398418"><ele>133.0</ele><time>2026-04-24T04:04:43.789Z</time></trkpt><trkpt lat="45.4088845" lon="10.53977"><ele>133.0</ele><time>2026-04-24T04:05:54.794Z</time></trkpt><trkpt lat="45.4088158" lon="10.5398015"><ele>133.0</ele><time>2026-04-24T04:06:10.793Z</time></trkpt><trkpt lat="45.40888" lon="10.539808"><ele>133.0</ele><time>2026-04-24T04:06:58.787Z</time></trkpt><trkpt lat="45.4089856" lon="10.539726"><ele>133.0</ele><time>2026-04-24T04:07:09.794Z</time></trkpt><trkpt lat="45.4091027" lon="10.5396867"><ele>133.0</ele><time>2026-04-24T04:07:27.788Z</time></trkpt><trkpt lat="45.4089638" lon="10.5397893"><ele>133.0</ele><time>2026-04-24T04:08:25.789Z</time></trkpt><trkpt lat="45.4088754" lon="10.53983"><ele>133.0</ele><time>2026-04-24T04:08:27.788Z</time></trkpt><trkpt lat="45.4089391" lon="10.5398203"><ele>133.0</ele><time>2026-04-24T04:09:02.789Z</time></trkpt><trkpt lat="45.4088742" lon="10.5398627"><ele>133.0</ele><time>2026-04-24T04:09:23.789Z</time></trkpt><trkpt lat="45.408872" lon="10.5397544"><ele>133.0</ele><time>2026-04-24T04:10:02.788Z</time></trkpt><trkpt lat="45.4089564" lon="10.5398135"><ele>133.0</ele><time>2026-04-24T04:10:33.789Z</time></trkpt><trkpt lat="45.4090451" lon="10.5397634"><ele>133.0</ele><time>2026-04-24T04:11:04.796Z</time></trkpt><trkpt lat="45.4089596" lon="10.5398041"><ele>133.0</ele><time>2026-04-24T04:11:14.795Z</time></trkpt><trkpt lat="45.408856" lon="10.5398035"><ele>133.0</ele><time>2026-04-24T04:12:00.793Z</time></trkpt><trkpt lat="45.4089726" lon="10.5398327"><ele>133.0</ele><time>2026-04-24T04:14:18.791Z</time></trkpt><trkpt lat="45.4090762" lon="10.5397885"><ele>133.0</ele><time>2026-04-24T04:14:43.785Z</time></trkpt><trkpt lat="45.4090299" lon="10.5397245"><ele>133.0</ele><time>2026-04-24T04:15:34.791Z</time></trkpt><trkpt lat="45.4089628" lon="10.5398752"><ele>133.0</ele><time>2026-04-24T04:16:41.793Z</time></trkpt><trkpt lat="45.4089243" lon="10.539787"><ele>133.0</ele><time>2026-04-24T04:17:16.787Z</time></trkpt><trkpt lat="45.4088014" lon="10.539665"><ele>133.0</ele><time>2026-04-24T04:17:24.789Z</time></trkpt><trkpt lat="45.408889" lon="10.5397416"><ele>133.0</ele><time>2026-04-24T04:18:06.79Z</time></trkpt><trkpt lat="45.4089474" lon="10.5397805"><ele>133.0</ele><time>2026-04-24T04:18:08.793Z</time></trkpt><trkpt lat="45.4089908" lon="10.5398702"><ele>133.0</ele><time>2026-04-24T04:19:30.791Z</time></trkpt><trkpt lat="45.4089189" lon="10.5397961"><ele>133.0</ele><time>2026-04-24T04:20:01.791Z</time></trkpt><trkpt lat="45.4088489" lon="10.5397662"><ele>133.0</ele><time>2026-04-24T04:20:06.787Z</time></trkpt><trkpt lat="45.4087987" lon="10.539821"><ele>133.0</ele><time>2026-04-24T04:20:11.791Z</time></trkpt><trkpt lat="45.4087421" lon="10.5399172"><ele>133.0</ele><time>2026-04-24T04:20:18.793Z</time></trkpt><trkpt lat="45.4088232" lon="10.5399447"><ele>133.0</ele><time>2026-04-24T04:20:58.792Z</time></trkpt><trkpt lat="45.4087579" lon="10.5398964"><ele>133.0</ele><time>2026-04-24T04:21:26.791Z</time></trkpt><trkpt lat="45.4088315" lon="10.539931"><ele>133.0</ele><time>2026-04-24T04:21:41.798Z</time></trkpt><trkpt lat="45.4089426" lon="10.5398961"><ele>133.0</ele><time>2026-04-24T04:22:04.794Z</time></trkpt><trkpt lat="45.408873" lon="10.5398197"><ele>133.0</ele><time>2026-04-24T04:22:26.787Z</time></trkpt><trkpt lat="45.4089427" lon="10.5398834"><ele>133.0</ele><time>2026-04-24T04:22:56.791Z</time></trkpt><trkpt lat="45.408879" lon="10.5398408"><ele>133.0</ele><time>2026-04-24T04:25:24.788Z</time></trkpt><trkpt lat="45.4089475" lon="10.5398685"><ele>133.0</ele><time>2026-04-24T04:28:20.793Z</time></trkpt><trkpt lat="45.4090208" lon="10.5398228"><ele>133.0</ele><time>2026-04-24T04:32:12.786Z</time></trkpt><trkpt lat="45.4089674" lon="10.5397574"><ele>133.0</ele><time>2026-04-24T04:33:26.788Z</time></trkpt><trkpt lat="45.4090165" lon="10.5398408"><ele>133.0</ele><time>2026-04-24T04:35:17.798Z</time></trkpt><trkpt lat="45.4089409" lon="10.5398356"><ele>133.0</ele><time>2026-04-24T04:35:41.8Z</time></trkpt><trkpt lat="45.4090236" lon="10.5398077"><ele>133.0</ele><time>2026-04-24T04:52:32.795Z</time></trkpt><trkpt lat="45.408946" lon="10.5398343"><ele>133.0</ele><time>2026-04-24T04:52:54.788Z</time></trkpt><trkpt lat="45.4088734" lon="10.5397724"><ele>133.0</ele><time>2026-04-24T04:53:09.784Z</time></trkpt><trkpt lat="45.4089996" lon="10.5397704"><ele>133.0</ele><time>2026-04-24T04:53:44.788Z</time></trkpt><trkpt lat="45.4089356" lon="10.5398352"><ele>133.0</ele><time>2026-04-24T04:55:11.78Z</time></trkpt><trkpt lat="45.4090257" lon="10.5398088"><ele>133.0</ele><time>2026-04-24T04:56:32.783Z</time></trkpt><trkpt lat="45.4089574" lon="10.5397329"><ele>133.0</ele><time>2026-04-24T04:57:24.79Z</time></trkpt><trkpt lat="45.4090202" lon="10.5397684"><ele>133.0</ele><time>2026-04-24T04:58:02.932Z</time></trkpt><trkpt lat="45.4089518" lon="10.5397749"><ele>133.0</ele><time>2026-04-24T04:58:22.795Z</time></trkpt><trkpt lat="45.4089897" lon="10.5398921"><ele>133.0</ele><time>2026-04-24T05:00:57.787Z</time></trkpt><trkpt lat="45.4089169" lon="10.5399296"><ele>133.0</ele><time>2026-04-24T05:02:14.782Z</time></trkpt><trkpt lat="45.40887" lon="10.5398417"><ele>133.0</ele><time>2026-04-24T05:03:53.792Z</time></trkpt><trkpt lat="45.4089502" lon="10.5398346"><ele>133.0</ele><time>2026-04-24T05:03:54.792Z</time></trkpt><trkpt lat="45.4088973" lon="10.5398883"><ele>133.0</ele><time>2026-04-24T05:04:30.784Z</time></trkpt><trkpt lat="45.4089652" lon="10.5398583"><ele>133.0</ele><time>2026-04-24T05:05:06.79Z</time></trkpt><trkpt lat="45.4090914" lon="10.5398306"><ele>133.0</ele><time>2026-04-24T05:05:47.797Z</time></trkpt><trkpt lat="45.4090282" lon="10.5398074"><ele>133.0</ele><time>2026-04-24T05:07:09.796Z</time></trkpt><trkpt lat="45.409162" lon="10.5397691"><ele>133.0</ele><time>2026-04-24T05:09:09.786Z</time></trkpt><trkpt lat="45.4090973" lon="10.539791"><ele>133.0</ele><time>2026-04-24T05:10:26.793Z</time></trkpt><trkpt lat="45.4090336" lon="10.5397268"><ele>133.0</ele><time>2026-04-24T05:11:36.789Z</time></trkpt><trkpt lat="45.408969" lon="10.5398124"><ele>133.0</ele><time>2026-04-24T05:12:29.791Z</time></trkpt><trkpt lat="45.4089023" lon="10.5398229"><ele>133.0</ele><time>2026-04-24T05:15:20.792Z</time></trkpt><trkpt lat="45.4089764" lon="10.5398238"><ele>133.0</ele><time>2026-04-24T05:15:43.792Z</time></trkpt><trkpt lat="45.4090865" lon="10.5398414"><ele>133.0</ele><time>2026-04-24T05:16:21.784Z</time></trkpt><trkpt lat="45.4092233" lon="10.5398394"><ele>133.0</ele><time>2026-04-24T05:16:24.79Z</time></trkpt><trkpt lat="45.4091481" lon="10.5398162"><ele>133.0</ele><time>2026-04-24T05:16:40.791Z</time></trkpt><trkpt lat="45.4090707" lon="10.5397744"><ele>133.0</ele><time>2026-04-24T05:19:20.785Z</time></trkpt><trkpt lat="45.4091473" lon="10.5397504"><ele>133.0</ele><time>2026-04-24T05:21:41.794Z</time></trkpt><trkpt lat="45.4090723" lon="10.5397455"><ele>133.0</ele><time>2026-04-24T05:22:14.789Z</time></trkpt><trkpt lat="45.4089905" lon="10.5397707"><ele>133.0</ele><time>2026-04-24T05:22:32.788Z</time></trkpt><trkpt lat="45.4091286" lon="10.5397849"><ele>133.0</ele><time>2026-04-24T05:24:00.794Z</time></trkpt><trkpt lat="45.4090552" lon="10.5398125"><ele>133.0</ele><time>2026-04-24T05:24:16.792Z</time></trkpt><trkpt lat="45.4089946" lon="10.5398737"><ele>133.0</ele><time>2026-04-24T05:24:24.787Z</time></trkpt><trkpt lat="45.4089163" lon="10.5398983"><ele>133.0</ele><time>2026-04-24T05:25:35.785Z</time></trkpt><trkpt lat="45.4089718" lon="10.5398497"><ele>133.0</ele><time>2026-04-24T05:26:02.788Z</time></trkpt><trkpt lat="45.4090374" lon="10.5397615"><ele>133.0</ele><time>2026-04-24T05:27:01.791Z</time></trkpt><trkpt lat="45.4091113" lon="10.5396935"><ele>133.0</ele><time>2026-04-24T05:29:05.795Z</time></trkpt><trkpt lat="45.4090536" lon="10.5397439"><ele>133.0</ele><time>2026-04-24T05:30:19.788Z</time></trkpt><trkpt lat="45.4089372" lon="10.5397741"><ele>133.0</ele><time>2026-04-24T05:30:34.792Z</time></trkpt><trkpt lat="45.4090213" lon="10.53982"><ele>133.0</ele><time>2026-04-24T05:31:52.791Z</time></trkpt><trkpt lat="45.4091198" lon="10.5398255"><ele>133.0</ele><time>2026-04-24T05:32:19.796Z</time></trkpt><trkpt lat="45.4090522" lon="10.5397658"><ele>133.0</ele><time>2026-04-24T05:32:51.794Z</time></trkpt><trkpt lat="45.4089876" lon="10.5398368"><ele>133.0</ele><time>2026-04-24T05:33:29.792Z</time></trkpt><trkpt lat="45.4090568" lon="10.5397883"><ele>133.0</ele><time>2026-04-24T05:33:49.789Z</time></trkpt><trkpt lat="45.408993" lon="10.5397484"><ele>133.0</ele><time>2026-04-24T05:34:54.802Z</time></trkpt><trkpt lat="45.4089239" lon="10.5396673"><ele>133.0</ele><time>2026-04-24T05:38:11.784Z</time></trkpt><trkpt lat="45.4088757" lon="10.5398196"><ele>133.0</ele><time>2026-04-24T05:41:18.783Z</time></trkpt><trkpt lat="45.4089281" lon="10.539734"><ele>133.0</ele><time>2026-04-24T05:41:49.797Z</time></trkpt><trkpt lat="45.4088896" lon="10.5398088"><ele>133.0</ele><time>2026-04-24T05:45:32.783Z</time></trkpt><trkpt lat="45.4089536" lon="10.5397919"><ele>133.0</ele><time>2026-04-24T05:47:25.785Z</time></trkpt><trkpt lat="45.4090422" lon="10.5396956"><ele>133.0</ele><time>2026-04-24T05:48:38.782Z</time></trkpt><trkpt lat="45.4090449" lon="10.5397963"><ele>133.0</ele><time>2026-04-24T05:49:04.783Z</time></trkpt><trkpt lat="45.4089871" lon="10.5399249"><ele>133.0</ele><time>2026-04-24T05:49:15.792Z</time></trkpt><trkpt lat="45.4090354" lon="10.5398317"><ele>133.0</ele><time>2026-04-24T05:49:57.791Z</time></trkpt><trkpt lat="45.4091474" lon="10.5398245"><ele>133.0</ele><time>2026-04-24T05:51:43.793Z</time></trkpt><trkpt lat="45.4092316" lon="10.5398941"><ele>133.0</ele><time>2026-04-24T05:52:03.78Z</time></trkpt><trkpt lat="45.409171" lon="10.5397957"><ele>133.0</ele><time>2026-04-24T05:52:30.793Z</time></trkpt><trkpt lat="45.4090808" lon="10.5397771"><ele>133.0</ele><time>2026-04-24T05:52:35.785Z</time></trkpt><trkpt lat="45.4089801" lon="10.5398196"><ele>133.0</ele><time>2026-04-24T05:54:37.788Z</time></trkpt><trkpt lat="45.4090221" lon="10.5397187"><ele>133.0</ele><time>2026-04-24T05:56:55.788Z</time></trkpt><trkpt lat="45.4089685" lon="10.5397987"><ele>133.0</ele><time>2026-04-24T05:57:41.791Z</time></trkpt><trkpt lat="45.4088828" lon="10.5397846"><ele>133.0</ele><time>2026-04-24T05:57:56.791Z</time></trkpt><trkpt lat="45.408923" lon="10.5398571"><ele>133.0</ele><time>2026-04-24T05:58:40.785Z</time></trkpt><trkpt lat="45.4089194" lon="10.5399765"><ele>133.0</ele><time>2026-04-24T05:59:05.787Z</time></trkpt><trkpt lat="45.408978" lon="10.5398929"><ele>133.0</ele><time>2026-04-24T05:59:32.795Z</time></trkpt><trkpt lat="45.4088415" lon="10.5399334"><ele>133.0</ele><time>2026-04-24T06:00:25.785Z</time></trkpt><trkpt lat="45.4089164" lon="10.5398998"><ele>133.0</ele><time>2026-04-24T06:00:52.792Z</time></trkpt><trkpt lat="45.409021" lon="10.5398922"><ele>133.0</ele><time>2026-04-24T06:01:05.785Z</time></trkpt><trkpt lat="45.4089477" lon="10.5398342"><ele>133.0</ele><time>2026-04-24T06:01:33.79Z</time></trkpt><trkpt lat="45.4088561" lon="10.5399337"><ele>133.0</ele><time>2026-04-24T06:02:39.791Z</time></trkpt><trkpt lat="45.4089285" lon="10.5399059"><ele>133.0</ele><time>2026-04-24T06:02:56.793Z</time></trkpt><trkpt lat="45.4090042" lon="10.5397725"><ele>133.0</ele><time>2026-04-24T06:03:31.794Z</time></trkpt><trkpt lat="45.4089296" lon="10.539782"><ele>133.0</ele><time>2026-04-24T06:03:42.785Z</time></trkpt><trkpt lat="45.4088657" lon="10.5397832"><ele>133.0</ele><time>2026-04-24T06:03:49.796Z</time></trkpt><trkpt lat="45.4088095" lon="10.5396933"><ele>133.0</ele><time>2026-04-24T06:05:43.784Z</time></trkpt><trkpt lat="45.408888" lon="10.5397447"><ele>133.0</ele><time>2026-04-24T06:05:52.788Z</time></trkpt><trkpt lat="45.4089456" lon="10.5398453"><ele>133.0</ele><time>2026-04-24T06:08:04.794Z</time></trkpt><trkpt lat="45.4090195" lon="10.539873"><ele>133.0</ele><time>2026-04-24T06:08:40.797Z</time></trkpt><trkpt lat="45.4089481" lon="10.5398756"><ele>133.0</ele><time>2026-04-24T06:10:20.785Z</time></trkpt><trkpt lat="45.4090451" lon="10.5398415"><ele>133.0</ele><time>2026-04-24T06:10:44.786Z</time></trkpt><trkpt lat="45.4090967" lon="10.5399067"><ele>133.0</ele><time>2026-04-24T06:11:53.79Z</time></trkpt><trkpt lat="45.4090363" lon="10.5398756"><ele>133.0</ele><time>2026-04-24T06:11:55.788Z</time></trkpt><trkpt lat="45.408977" lon="10.5397493"><ele>133.0</ele><time>2026-04-24T06:13:24.793Z</time></trkpt><trkpt lat="45.4088694" lon="10.539785"><ele>133.0</ele><time>2026-04-24T06:14:51.791Z</time></trkpt><trkpt lat="45.4087976" lon="10.5396714"><ele>133.0</ele><time>2026-04-24T06:15:42.789Z</time></trkpt><trkpt lat="45.408866" lon="10.5397341"><ele>133.0</ele><time>2026-04-24T06:15:55.779Z</time></trkpt><trkpt lat="45.4089259" lon="10.5397866"><ele>133.0</ele><time>2026-04-24T06:16:28.785Z</time></trkpt><trkpt lat="45.4090373" lon="10.5397649"><ele>133.0</ele><time>2026-04-24T06:18:00.791Z</time></trkpt><trkpt lat="45.4089775" lon="10.5397036"><ele>133.0</ele><time>2026-04-24T06:18:12.783Z</time></trkpt><trkpt lat="45.4089877" lon="10.5397925"><ele>133.0</ele><time>2026-04-24T06:18:35.793Z</time></trkpt><trkpt lat="45.4089186" lon="10.5398106"><ele>133.0</ele><time>2026-04-24T06:18:54.794Z</time></trkpt><trkpt lat="45.4089846" lon="10.5398588"><ele>133.0</ele><time>2026-04-24T06:19:23.787Z</time></trkpt><trkpt lat="45.4089139" lon="10.5398029"><ele>133.0</ele><time>2026-04-24T06:20:03.781Z</time></trkpt><trkpt lat="45.4089667" lon="10.5397365"><ele>133.0</ele><time>2026-04-24T06:21:12.787Z</time></trkpt><trkpt lat="45.4089633" lon="10.53983"><ele>133.0</ele><time>2026-04-24T06:24:11.792Z</time></trkpt><trkpt lat="45.4089367" lon="10.539727"><ele>133.0</ele><time>2026-04-24T06:24:12.794Z</time></trkpt><trkpt lat="45.4088479" lon="10.5397182"><ele>133.0</ele><time>2026-04-24T06:25:21.782Z</time></trkpt><trkpt lat="45.4089219" lon="10.5397834"><ele>133.0</ele><time>2026-04-24T06:25:45.781Z</time></trkpt><trkpt lat="45.4090184" lon="10.5397806"><ele>133.0</ele><time>2026-04-24T06:26:48.788Z</time></trkpt><trkpt lat="45.4089677" lon="10.5397176"><ele>133.0</ele><time>2026-04-24T06:27:05.785Z</time></trkpt><trkpt lat="45.4090229" lon="10.5397743"><ele>133.0</ele><time>2026-04-24T06:27:42.787Z</time></trkpt><trkpt lat="45.4089555" lon="10.5398342"><ele>133.0</ele><time>2026-04-24T06:30:00.788Z</time></trkpt><trkpt lat="45.4089172" lon="10.5397422"><ele>133.0</ele><time>2026-04-24T06:32:05.789Z</time></trkpt><trkpt lat="45.4089865" lon="10.5397643"><ele>133.0</ele><time>2026-04-24T06:32:30.797Z</time></trkpt><trkpt lat="45.4089536" lon="10.5398449"><ele>133.0</ele><time>2026-04-24T06:33:42.795Z</time></trkpt><trkpt lat="45.4088787" lon="10.5398163"><ele>133.0</ele><time>2026-04-24T06:34:27.785Z</time></trkpt><trkpt lat="45.4089431" lon="10.5397291"><ele>133.0</ele><time>2026-04-24T06:34:53.785Z</time></trkpt><trkpt lat="45.4090126" lon="10.5398412"><ele>133.0</ele><time>2026-04-24T06:36:10.792Z</time></trkpt><trkpt lat="45.4091257" lon="10.5397935"><ele>133.0</ele><time>2026-04-24T06:36:25.794Z</time></trkpt><trkpt lat="45.4090457" lon="10.5397524"><ele>133.0</ele><time>2026-04-24T06:36:37.79Z</time></trkpt><trkpt lat="45.4089459" lon="10.53983"><ele>133.0</ele><time>2026-04-24T06:37:37.784Z</time></trkpt><trkpt lat="45.4090119" lon="10.539863"><ele>133.0</ele><time>2026-04-24T06:37:48.784Z</time></trkpt><trkpt lat="45.4091197" lon="10.5399389"><ele>133.0</ele><time>2026-04-24T06:37:55.796Z</time></trkpt><trkpt lat="45.4090347" lon="10.5398511"><ele>133.0</ele><time>2026-04-24T06:38:13.793Z</time></trkpt><trkpt lat="45.408921" lon="10.5398418"><ele>133.0</ele><time>2026-04-24T06:39:11.799Z</time></trkpt><trkpt lat="45.4090011" lon="10.5397314"><ele>133.0</ele><time>2026-04-24T06:41:34.786Z</time></trkpt><trkpt lat="45.4089578" lon="10.5398434"><ele>133.0</ele><time>2026-04-24T06:43:05.797Z</time></trkpt><trkpt lat="45.4090249" lon="10.5399075"><ele>133.0</ele><time>2026-04-24T06:43:21.795Z</time></trkpt><trkpt lat="45.4089616" lon="10.5399054"><ele>133.0</ele><time>2026-04-24T06:43:58.786Z</time></trkpt><trkpt lat="45.4089053" lon="10.5398246"><ele>133.0</ele><time>2026-04-24T06:45:03.786Z</time></trkpt><trkpt lat="45.4088432" lon="10.5397057"><ele>133.0</ele><time>2026-04-24T06:47:02.793Z</time></trkpt><trkpt lat="45.4088759" lon="10.53979"><ele>133.0</ele><time>2026-04-24T06:47:34.794Z</time></trkpt><trkpt lat="45.4089302" lon="10.5398858"><ele>133.0</ele><time>2026-04-24T06:48:02.794Z</time></trkpt><trkpt lat="45.4090219" lon="10.5398307"><ele>133.0</ele><time>2026-04-24T06:51:20.787Z</time></trkpt><trkpt lat="45.4089565" lon="10.5397694"><ele>133.0</ele><time>2026-04-24T06:52:04.794Z</time></trkpt><trkpt lat="45.4088635" lon="10.5397647"><ele>133.0</ele><time>2026-04-24T06:52:55.796Z</time></trkpt><trkpt lat="45.4087765" lon="10.5396983"><ele>133.0</ele><time>2026-04-24T06:53:27.793Z</time></trkpt><trkpt lat="45.4088402" lon="10.5397363"><ele>133.0</ele><time>2026-04-24T06:53:36.786Z</time></trkpt><trkpt lat="45.4089755" lon="10.5397962"><ele>133.0</ele><time>2026-04-24T06:54:59.787Z</time></trkpt><trkpt lat="45.4090778" lon="10.5397532"><ele>133.0</ele><time>2026-04-24T06:55:05.794Z</time></trkpt><trkpt lat="45.4091793" lon="10.5397654"><ele>133.0</ele><time>2026-04-24T06:55:22.781Z</time></trkpt><trkpt lat="45.4091109" lon="10.5397477"><ele>133.0</ele><time>2026-04-24T06:55:50.789Z</time></trkpt><trkpt lat="45.4090488" lon="10.53973"><ele>133.0</ele><time>2026-04-24T06:55:54.79Z</time></trkpt><trkpt lat="45.4090159" lon="10.539834"><ele>133.0</ele><time>2026-04-24T06:56:45.788Z</time></trkpt><trkpt lat="45.4090142" lon="10.5397318"><ele>133.0</ele><time>2026-04-24T06:57:46.788Z</time></trkpt><trkpt lat="45.4089617" lon="10.5397933"><ele>133.0</ele><time>2026-04-24T07:00:04.792Z</time></trkpt><trkpt lat="45.4089983" lon="10.5398875"><ele>133.0</ele><time>2026-04-24T07:00:05.793Z</time></trkpt><trkpt lat="45.4089224" lon="10.5398743"><ele>133.0</ele><time>2026-04-24T07:00:36.793Z</time></trkpt><trkpt lat="45.4088929" lon="10.5397707"><ele>133.0</ele><time>2026-04-24T07:00:49.787Z</time></trkpt><trkpt lat="45.4089654" lon="10.5397862"><ele>133.0</ele><time>2026-04-24T07:02:09.785Z</time></trkpt><trkpt lat="45.4090677" lon="10.5398402"><ele>133.0</ele><time>2026-04-24T07:02:54.79Z</time></trkpt><trkpt lat="45.4090182" lon="10.5398986"><ele>133.0</ele><time>2026-04-24T07:04:11.787Z</time></trkpt><trkpt lat="45.4089271" lon="10.5398429"><ele>133.0</ele><time>2026-04-24T07:04:25.796Z</time></trkpt><trkpt lat="45.4088117" lon="10.5398254"><ele>133.0</ele><time>2026-04-24T07:04:46.787Z</time></trkpt><trkpt lat="45.4089399" lon="10.5398652"><ele>133.0</ele><time>2026-04-24T07:06:15.785Z</time></trkpt><trkpt lat="45.4088498" lon="10.539891"><ele>133.0</ele><time>2026-04-24T07:08:00.783Z</time></trkpt><trkpt lat="45.4089165" lon="10.5398042"><ele>133.0</ele><time>2026-04-24T07:10:17.794Z</time></trkpt><trkpt lat="45.4089952" lon="10.5398146"><ele>133.0</ele><time>2026-04-24T07:12:26.792Z</time></trkpt><trkpt lat="45.4090508" lon="10.539868"><ele>133.0</ele><time>2026-04-24T07:12:33.791Z</time></trkpt><trkpt lat="45.4090067" lon="10.5399325"><ele>133.0</ele><time>2026-04-24T07:13:02.786Z</time></trkpt><trkpt lat="45.4089956" lon="10.5398203"><ele>133.0</ele><time>2026-04-24T07:15:20.785Z</time></trkpt><trkpt lat="45.4089142" lon="10.5397891"><ele>133.0</ele><time>2026-04-24T07:17:44.788Z</time></trkpt><trkpt lat="45.4089767" lon="10.5398033"><ele>133.0</ele><time>2026-04-24T07:18:33.789Z</time></trkpt><trkpt lat="45.4090316" lon="10.5398819"><ele>133.0</ele><time>2026-04-24T07:18:51.783Z</time></trkpt><trkpt lat="45.4090677" lon="10.5397837"><ele>133.0</ele><time>2026-04-24T07:19:47.795Z</time></trkpt><trkpt lat="45.4090113" lon="10.5396798"><ele>133.0</ele><time>2026-04-24T07:20:08.791Z</time></trkpt><trkpt lat="45.4089145" lon="10.5397319"><ele>133.0</ele><time>2026-04-24T07:20:20.783Z</time></trkpt><trkpt lat="45.4088653" lon="10.5398878"><ele>133.0</ele><time>2026-04-24T07:20:46.784Z</time></trkpt><trkpt lat="45.4089323" lon="10.5398597"><ele>133.0</ele><time>2026-04-24T07:21:03.786Z</time></trkpt><trkpt lat="45.4089204" lon="10.5397263"><ele>133.0</ele><time>2026-04-24T07:23:04.782Z</time></trkpt><trkpt lat="45.4088583" lon="10.5397868"><ele>133.0</ele><time>2026-04-24T07:23:53.785Z</time></trkpt><trkpt lat="45.4089274" lon="10.53983"><ele>133.0</ele><time>2026-04-24T07:25:46.787Z</time></trkpt><trkpt lat="45.4089112" lon="10.5399274"><ele>133.0</ele><time>2026-04-24T07:27:45.79Z</time></trkpt><trkpt lat="45.4088339" lon="10.5398908"><ele>133.0</ele><time>2026-04-24T07:28:50.794Z</time></trkpt><trkpt lat="45.4088709" lon="10.5399675"><ele>133.0</ele><time>2026-04-24T07:29:47.787Z</time></trkpt><trkpt lat="45.408911" lon="10.5398816"><ele>133.0</ele><time>2026-04-24T07:30:17.783Z</time></trkpt><trkpt lat="45.4089804" lon="10.5398221"><ele>133.0</ele><time>2026-04-24T07:30:35.793Z</time></trkpt><trkpt lat="45.408908" lon="10.5398382"><ele>133.0</ele><time>2026-04-24T07:31:33.789Z</time></trkpt><trkpt lat="45.4089341" lon="10.5397112"><ele>133.0</ele><time>2026-04-24T07:35:37.799Z</time></trkpt><trkpt lat="45.4090114" lon="10.5397535"><ele>133.0</ele><time>2026-04-24T07:38:04.791Z</time></trkpt><trkpt lat="45.4089274" lon="10.539744"><ele>133.0</ele><time>2026-04-24T07:40:05.789Z</time></trkpt><trkpt lat="45.4089576" lon="10.5398365"><ele>133.0</ele><time>2026-04-24T07:44:21.784Z</time></trkpt><trkpt lat="45.4088983" lon="10.5399378"><ele>133.0</ele><time>2026-04-24T07:46:47.782Z</time></trkpt><trkpt lat="45.4089343" lon="10.5398544"><ele>133.0</ele><time>2026-04-24T07:47:24.795Z</time></trkpt><trkpt lat="45.4090142" lon="10.5397027"><ele>133.0</ele><time>2026-04-24T07:48:12.79Z</time></trkpt><trkpt lat="45.409073" lon="10.5396328"><ele>133.0</ele><time>2026-04-24T07:48:14.795Z</time></trkpt><trkpt lat="45.4090731" lon="10.5395324"><ele>133.0</ele><time>2026-04-24T07:48:19.789Z</time></trkpt><trkpt lat="45.4090425" lon="10.5396474"><ele>133.0</ele><time>2026-04-24T07:48:35.785Z</time></trkpt><trkpt lat="45.4089789" lon="10.5398122"><ele>133.0</ele><time>2026-04-24T07:48:53.787Z</time></trkpt><trkpt lat="45.4089034" lon="10.5399256"><ele>133.0</ele><time>2026-04-24T07:49:35.789Z</time></trkpt><trkpt lat="45.4088826" lon="10.5400285"><ele>133.0</ele><time>2026-04-24T07:49:51.79Z</time></trkpt><trkpt lat="45.4089539" lon="10.5399906"><ele>133.0</ele><time>2026-04-24T07:51:06.79Z</time></trkpt><trkpt lat="45.4090014" lon="10.5398288"><ele>133.0</ele><time>2026-04-24T07:52:25.793Z</time></trkpt><trkpt lat="45.4090909" lon="10.5398434"><ele>133.0</ele><time>2026-04-24T08:02:34.792Z</time></trkpt><trkpt lat="45.4090976" lon="10.5397065"><ele>133.0</ele><time>2026-04-24T08:04:25.784Z</time></trkpt><trkpt lat="45.4090108" lon="10.5397544"><ele>133.0</ele><time>2026-04-24T08:04:50.781Z</time></trkpt><trkpt lat="45.4089303" lon="10.5398559"><ele>133.0</ele><time>2026-04-24T08:06:48.79Z</time></trkpt><trkpt lat="45.408999" lon="10.5398875"><ele>133.0</ele><time>2026-04-24T08:11:28.782Z</time></trkpt><trkpt lat="45.4089286" lon="10.5398239"><ele>133.0</ele><time>2026-04-24T08:11:58.789Z</time></trkpt><trkpt lat="45.4088732" lon="10.5399091"><ele>133.0</ele><time>2026-04-24T08:12:54.79Z</time></trkpt><trkpt lat="45.4089302" lon="10.5398427"><ele>133.0</ele><time>2026-04-24T08:13:36.791Z</time></trkpt><trkpt lat="45.4089317" lon="10.53975"><ele>133.0</ele><time>2026-04-24T08:20:55.796Z</time></trkpt><trkpt lat="45.4089333" lon="10.5398866"><ele>133.0</ele><time>2026-04-24T08:21:00.775Z</time></trkpt><trkpt lat="45.4088574" lon="10.5398711"><ele>133.0</ele><time>2026-04-24T08:23:15.796Z</time></trkpt><trkpt lat="45.4087566" lon="10.5398839"><ele>133.0</ele><time>2026-04-24T08:23:46.785Z</time></trkpt><trkpt lat="45.4088609" lon="10.5398826"><ele>133.0</ele><time>2026-04-24T08:24:34.792Z</time></trkpt><trkpt lat="45.4089732" lon="10.5398789"><ele>133.0</ele><time>2026-04-24T08:24:57.789Z</time></trkpt><trkpt lat="45.4089033" lon="10.5398233"><ele>133.0</ele><time>2026-04-24T08:35:11.784Z</time></trkpt><trkpt lat="45.4090015" lon="10.5397585"><ele>133.0</ele><time>2026-04-24T08:35:12.782Z</time></trkpt><trkpt lat="45.4089802" lon="10.5398462"><ele>133.0</ele><time>2026-04-24T08:35:21.781Z</time></trkpt><trkpt lat="45.4089757" lon="10.5399441"><ele>133.0</ele><time>2026-04-24T08:35:27.787Z</time></trkpt><trkpt lat="45.4090098" lon="10.5397858"><ele>133.0</ele><time>2026-04-24T08:36:42.786Z</time></trkpt><trkpt lat="45.4089543" lon="10.5398578"><ele>133.0</ele><time>2026-04-24T08:37:13.783Z</time></trkpt><trkpt lat="45.4090435" lon="10.539793"><ele>133.0</ele><time>2026-04-24T08:37:43.791Z</time></trkpt><trkpt lat="45.4089651" lon="10.5398051"><ele>133.0</ele><time>2026-04-24T08:38:25.791Z</time></trkpt><trkpt lat="45.4089022" lon="10.5398295"><ele>133.0</ele><time>2026-04-24T08:40:00.791Z</time></trkpt><trkpt lat="45.4088012" lon="10.5398306"><ele>133.0</ele><time>2026-04-24T08:40:13.785Z</time></trkpt><trkpt lat="45.408879" lon="10.5398989"><ele>133.0</ele><time>2026-04-24T08:41:00.787Z</time></trkpt><trkpt lat="45.4089293" lon="10.5398281"><ele>133.0</ele><time>2026-04-24T08:41:14.79Z</time></trkpt><trkpt lat="45.4090308" lon="10.5397526"><ele>133.0</ele><time>2026-04-24T08:45:08.784Z</time></trkpt><trkpt lat="45.4090701" lon="10.5398231"><ele>133.0</ele><time>2026-04-24T08:47:16.783Z</time></trkpt><trkpt lat="45.4090093" lon="10.5397302"><ele>133.0</ele><time>2026-04-24T08:48:16.791Z</time></trkpt><trkpt lat="45.4089676" lon="10.5398295"><ele>133.0</ele><time>2026-04-24T08:48:51.792Z</time></trkpt><trkpt lat="45.4089012" lon="10.5399193"><ele>133.0</ele><time>2026-04-24T08:49:50.782Z</time></trkpt><trkpt lat="45.4089702" lon="10.5398565"><ele>133.0</ele><time>2026-04-24T08:51:52.783Z</time></trkpt><trkpt lat="45.4089029" lon="10.5398694"><ele>133.0</ele><time>2026-04-24T08:53:15.781Z</time></trkpt><trkpt lat="45.4087769" lon="10.5398684"><ele>133.0</ele><time>2026-04-24T08:53:55.785Z</time></trkpt><trkpt lat="45.4088286" lon="10.5398126"><ele>133.0</ele><time>2026-04-24T08:54:12.784Z</time></trkpt><trkpt lat="45.4089544" lon="10.5398112"><ele>133.0</ele><time>2026-04-24T08:55:04.79Z</time></trkpt><trkpt lat="45.4088795" lon="10.5398981"><ele>133.0</ele><time>2026-04-24T08:56:24.786Z</time></trkpt><trkpt lat="45.4089603" lon="10.5398165"><ele>133.0</ele><time>2026-04-24T08:57:12.786Z</time></trkpt><trkpt lat="45.4090352" lon="10.5397703"><ele>133.0</ele><time>2026-04-24T08:59:55.791Z</time></trkpt><trkpt lat="45.4089718" lon="10.5397743"><ele>133.0</ele><time>2026-04-24T09:00:49.786Z</time></trkpt><trkpt lat="45.4088788" lon="10.5398277"><ele>133.0</ele><time>2026-04-24T09:01:09.789Z</time></trkpt><trkpt lat="45.4090014" lon="10.539765"><ele>133.0</ele><time>2026-04-24T09:03:27.785Z</time></trkpt><trkpt lat="45.4090556" lon="10.5398601"><ele>133.0</ele><time>2026-04-24T09:11:14.787Z</time></trkpt><trkpt lat="45.4089855" lon="10.5398364"><ele>133.0</ele><time>2026-04-24T09:11:50.78Z</time></trkpt><trkpt lat="45.4089835" lon="10.5397121"><ele>133.0</ele><time>2026-04-24T09:12:16.799Z</time></trkpt><trkpt lat="45.4089202" lon="10.5397374"><ele>133.0</ele><time>2026-04-24T09:12:42.793Z</time></trkpt><trkpt lat="45.4089835" lon="10.5397284"><ele>133.0</ele><time>2026-04-24T09:13:05.794Z</time></trkpt><trkpt lat="45.4090785" lon="10.5397146"><ele>133.0</ele><time>2026-04-24T09:13:16.792Z</time></trkpt><trkpt lat="45.4090445" lon="10.5398171"><ele>133.0</ele><time>2026-04-24T09:14:45.789Z</time></trkpt><trkpt lat="45.4089178" lon="10.5398826"><ele>133.0</ele><time>2026-04-24T09:14:55.776Z</time></trkpt><trkpt lat="45.4088758" lon="10.539953"><ele>133.0</ele><time>2026-04-24T09:16:10.783Z</time></trkpt><trkpt lat="45.408814" lon="10.5400555"><ele>133.0</ele><time>2026-04-24T09:16:18.783Z</time></trkpt><trkpt lat="45.4088704" lon="10.5400145"><ele>133.0</ele><time>2026-04-24T09:16:53.79Z</time></trkpt><trkpt lat="45.4089458" lon="10.5399468"><ele>133.0</ele><time>2026-04-24T09:17:17.786Z</time></trkpt><trkpt lat="45.4090253" lon="10.5398728"><ele>133.0</ele><time>2026-04-24T09:17:41.791Z</time></trkpt><trkpt lat="45.4091303" lon="10.5397854"><ele>133.0</ele><time>2026-04-24T09:17:50.79Z</time></trkpt><trkpt lat="45.4090367" lon="10.5397508"><ele>133.0</ele><time>2026-04-24T09:18:32.791Z</time></trkpt><trkpt lat="45.4089789" lon="10.5397909"><ele>133.0</ele><time>2026-04-24T09:21:05.793Z</time></trkpt><trkpt lat="45.408915" lon="10.5398543"><ele>133.0</ele><time>2026-04-24T09:21:08.792Z</time></trkpt><trkpt lat="45.4088427" lon="10.5399187"><ele>133.0</ele><time>2026-04-24T09:21:24.79Z</time></trkpt><trkpt lat="45.4088898" lon="10.5398268"><ele>133.0</ele><time>2026-04-24T09:22:36.79Z</time></trkpt><trkpt lat="45.4089619" lon="10.5397414"><ele>133.0</ele><time>2026-04-24T09:23:22.782Z</time></trkpt><trkpt lat="45.4090462" lon="10.5396152"><ele>133.0</ele><time>2026-04-24T09:23:53.785Z</time></trkpt><trkpt lat="45.4089725" lon="10.5396075"><ele>133.0</ele><time>2026-04-24T09:24:40.789Z</time></trkpt><trkpt lat="45.4089819" lon="10.5395004"><ele>133.0</ele><time>2026-04-24T09:25:09.784Z</time></trkpt><trkpt lat="45.4090634" lon="10.5395639"><ele>133.0</ele><time>2026-04-24T09:25:40.781Z</time></trkpt><trkpt lat="45.4091231" lon="10.5395162"><ele>133.0</ele><time>2026-04-24T09:25:58.789Z</time></trkpt><trkpt lat="45.4090594" lon="10.5395924"><ele>133.0</ele><time>2026-04-24T09:26:07.791Z</time></trkpt><trkpt lat="45.408998" lon="10.539715"><ele>133.0</ele><time>2026-04-24T09:26:25.794Z</time></trkpt><trkpt lat="45.408937" lon="10.5396904"><ele>133.0</ele><time>2026-04-24T09:29:40.793Z</time></trkpt><trkpt lat="45.4088647" lon="10.5396304"><ele>133.0</ele><time>2026-04-24T09:29:58.782Z</time></trkpt><trkpt lat="45.4089356" lon="10.5395059"><ele>133.0</ele><time>2026-04-24T09:30:23.783Z</time></trkpt><trkpt lat="45.4090227" lon="10.5393972"><ele>133.0</ele><time>2026-04-24T09:30:37.79Z</time></trkpt><trkpt lat="45.4089936" lon="10.5395093"><ele>133.0</ele><time>2026-04-24T09:30:53.792Z</time></trkpt><trkpt lat="45.4089538" lon="10.5395891"><ele>133.0</ele><time>2026-04-24T09:30:55.778Z</time></trkpt><trkpt lat="45.4089019" lon="10.5397145"><ele>133.0</ele><time>2026-04-24T09:31:02.791Z</time></trkpt><trkpt lat="45.4088137" lon="10.5398251"><ele>133.0</ele><time>2026-04-24T09:31:10.79Z</time></trkpt><trkpt lat="45.4088642" lon="10.5397659"><ele>133.0</ele><time>2026-04-24T09:31:41.788Z</time></trkpt><trkpt lat="45.4089514" lon="10.5397477"><ele>133.0</ele><time>2026-04-24T09:31:57.784Z</time></trkpt><trkpt lat="45.4089823" lon="10.539663"><ele>133.0</ele><time>2026-04-24T09:32:00.781Z</time></trkpt><trkpt lat="45.4090171" lon="10.5395601"><ele>133.0</ele><time>2026-04-24T09:32:45.791Z</time></trkpt><trkpt lat="45.4089974" lon="10.5396539"><ele>133.0</ele><time>2026-04-24T09:34:56.789Z</time></trkpt><trkpt lat="45.4089593" lon="10.5397717"><ele>133.0</ele><time>2026-04-24T09:35:47.784Z</time></trkpt><trkpt lat="45.4089874" lon="10.5398546"><ele>133.0</ele><time>2026-04-24T09:36:48.778Z</time></trkpt><trkpt lat="45.4089211" lon="10.5398843"><ele>133.0</ele><time>2026-04-24T09:38:34.79Z</time></trkpt><trkpt lat="45.4089557" lon="10.539772"><ele>133.0</ele><time>2026-04-24T09:38:53.779Z</time></trkpt><trkpt lat="45.4089291" lon="10.5396867"><ele>133.0</ele><time>2026-04-24T09:38:57.786Z</time></trkpt><trkpt lat="45.4090362" lon="10.5396955"><ele>133.0</ele><time>2026-04-24T09:39:43.781Z</time></trkpt><trkpt lat="45.4091128" lon="10.5395728"><ele>133.0</ele><time>2026-04-24T09:40:07.781Z</time></trkpt><trkpt lat="45.4091724" lon="10.5394539"><ele>133.0</ele><time>2026-04-24T09:40:20.786Z</time></trkpt><trkpt lat="45.4091264" lon="10.5395532"><ele>133.0</ele><time>2026-04-24T09:41:05.781Z</time></trkpt><trkpt lat="45.4092222" lon="10.5396076"><ele>133.0</ele><time>2026-04-24T09:42:42.784Z</time></trkpt><trkpt lat="45.4093239" lon="10.5395207"><ele>133.0</ele><time>2026-04-24T09:43:01.785Z</time></trkpt><trkpt lat="45.4093652" lon="10.5396248"><ele>133.0</ele><time>2026-04-24T09:43:34.788Z</time></trkpt><trkpt lat="45.4092721" lon="10.5396802"><ele>133.0</ele><time>2026-04-24T09:43:42.783Z</time></trkpt><trkpt lat="45.4092072" lon="10.5396834"><ele>133.0</ele><time>2026-04-24T09:43:45.79Z</time></trkpt><trkpt lat="45.4091192" lon="10.5397255"><ele>133.0</ele><time>2026-04-24T09:44:06.781Z</time></trkpt><trkpt lat="45.4090583" lon="10.5397483"><ele>133.0</ele><time>2026-04-24T09:44:18.791Z</time></trkpt><trkpt lat="45.4089809" lon="10.5397736"><ele>133.0</ele><time>2026-04-24T09:44:19.791Z</time></trkpt><trkpt lat="45.4089092" lon="10.5398721"><ele>133.0</ele><time>2026-04-24T09:45:18.782Z</time></trkpt><trkpt lat="45.4090116" lon="10.5399024"><ele>133.0</ele><time>2026-04-24T09:47:53.782Z</time></trkpt><trkpt lat="45.4089364" lon="10.5397491"><ele>133.0</ele><time>2026-04-24T09:49:14.78Z</time></trkpt><trkpt lat="45.4089484" lon="10.5398799"><ele>133.0</ele><time>2026-04-24T09:50:36.774Z</time></trkpt><trkpt lat="45.40889" lon="10.5399483"><ele>133.0</ele><time>2026-04-24T09:51:31.783Z</time></trkpt><trkpt lat="45.4089627" lon="10.5399511"><ele>133.0</ele><time>2026-04-24T09:52:02.785Z</time></trkpt><trkpt lat="45.4090302" lon="10.5398205"><ele>133.0</ele><time>2026-04-24T09:52:12.783Z</time></trkpt><trkpt lat="45.4090087" lon="10.5399261"><ele>133.0</ele><time>2026-04-24T09:52:38.782Z</time></trkpt><trkpt lat="45.4090424" lon="10.5397621"><ele>133.0</ele><time>2026-04-24T09:56:02.789Z</time></trkpt><trkpt lat="45.4090187" lon="10.5398649"><ele>133.0</ele><time>2026-04-24T09:57:25.795Z</time></trkpt><trkpt lat="45.4089439" lon="10.5399518"><ele>133.0</ele><time>2026-04-24T10:00:51.786Z</time></trkpt><trkpt lat="45.4088845" lon="10.5398865"><ele>133.0</ele><time>2026-04-24T10:03:10.784Z</time></trkpt><trkpt lat="45.408913" lon="10.5397779"><ele>133.0</ele><time>2026-04-24T10:03:58.781Z</time></trkpt><trkpt lat="45.4089932" lon="10.5397254"><ele>133.0</ele><time>2026-04-24T10:05:24.789Z</time></trkpt><trkpt lat="45.4090197" lon="10.5398197"><ele>133.0</ele><time>2026-04-24T10:14:47.788Z</time></trkpt><trkpt lat="45.4089368" lon="10.539853"><ele>133.0</ele><time>2026-04-24T10:14:51.783Z</time></trkpt><trkpt lat="45.4088215" lon="10.5398696"><ele>133.0</ele><time>2026-04-24T10:14:55.78Z</time></trkpt><trkpt lat="45.4088971" lon="10.5398602"><ele>133.0</ele><time>2026-04-24T10:15:10.789Z</time></trkpt><trkpt lat="45.4090115" lon="10.5398993"><ele>133.0</ele><time>2026-04-24T10:15:23.781Z</time></trkpt><trkpt lat="45.4089466" lon="10.5399263"><ele>133.0</ele><time>2026-04-24T10:15:51.784Z</time></trkpt><trkpt lat="45.4089733" lon="10.539845"><ele>133.0</ele><time>2026-04-24T10:17:27.783Z</time></trkpt><trkpt lat="45.409041" lon="10.539793"><ele>133.0</ele><time>2026-04-24T10:17:28.791Z</time></trkpt><trkpt lat="45.409099" lon="10.5398944"><ele>133.0</ele><time>2026-04-24T10:17:44.783Z</time></trkpt><trkpt lat="45.4090894" lon="10.5398052"><ele>133.0</ele><time>2026-04-24T10:18:25.79Z</time></trkpt><trkpt lat="45.4089863" lon="10.53974"><ele>133.0</ele><time>2026-04-24T10:18:51.788Z</time></trkpt><trkpt lat="45.40893" lon="10.5398547"><ele>133.0</ele><time>2026-04-24T10:19:17.787Z</time></trkpt><trkpt lat="45.4089937" lon="10.5399121"><ele>133.0</ele><time>2026-04-24T10:20:10.785Z</time></trkpt><trkpt lat="45.4089469" lon="10.5398231"><ele>133.0</ele><time>2026-04-24T10:22:09.781Z</time></trkpt><trkpt lat="45.4090098" lon="10.5398754"><ele>133.0</ele><time>2026-04-24T10:23:07.782Z</time></trkpt><trkpt lat="45.4089509" lon="10.5399164"><ele>133.0</ele><time>2026-04-24T10:24:52.783Z</time></trkpt><trkpt lat="45.4090076" lon="10.5398553"><ele>133.0</ele><time>2026-04-24T10:25:42.782Z</time></trkpt><trkpt lat="45.4089483" lon="10.539815"><ele>133.0</ele><time>2026-04-24T10:35:22.788Z</time></trkpt><trkpt lat="45.4089469" lon="10.5399328"><ele>133.0</ele><time>2026-04-24T10:35:23.782Z</time></trkpt><trkpt lat="45.4088689" lon="10.5398214"><ele>133.0</ele><time>2026-04-24T10:36:19.782Z</time></trkpt><trkpt lat="45.408786" lon="10.539723"><ele>133.0</ele><time>2026-04-24T10:36:41.781Z</time></trkpt><trkpt lat="45.4088828" lon="10.5397038"><ele>133.0</ele><time>2026-04-24T10:36:56.783Z</time></trkpt><trkpt lat="45.4089196" lon="10.5398315"><ele>133.0</ele><time>2026-04-24T10:37:23.785Z</time></trkpt><trkpt lat="45.4088941" lon="10.539711"><ele>133.0</ele><time>2026-04-24T10:38:36.787Z</time></trkpt><trkpt lat="45.4089836" lon="10.5398193"><ele>133.0</ele><time>2026-04-24T10:39:34.785Z</time></trkpt><trkpt lat="45.408885" lon="10.5399105"><ele>133.0</ele><time>2026-04-24T10:45:49.793Z</time></trkpt><trkpt lat="45.4088406" lon="10.5398186"><ele>133.0</ele><time>2026-04-24T10:47:57.789Z</time></trkpt><trkpt lat="45.4089323" lon="10.5396982"><ele>133.0</ele><time>2026-04-24T10:49:21.788Z</time></trkpt><trkpt lat="45.4089735" lon="10.5396178"><ele>133.0</ele><time>2026-04-24T10:49:23.792Z</time></trkpt><trkpt lat="45.4090184" lon="10.539681"><ele>133.0</ele><time>2026-04-24T10:50:03.781Z</time></trkpt><trkpt lat="45.4090004" lon="10.5398077"><ele>133.0</ele><time>2026-04-24T10:50:19.782Z</time></trkpt><trkpt lat="45.4089559" lon="10.5399527"><ele>133.0</ele><time>2026-04-24T10:50:38.781Z</time></trkpt><trkpt lat="45.4089945" lon="10.5398647"><ele>133.0</ele><time>2026-04-24T10:51:19.781Z</time></trkpt><trkpt lat="45.4089483" lon="10.5397957"><ele>133.0</ele><time>2026-04-24T10:51:48.787Z</time></trkpt><trkpt lat="45.4090215" lon="10.5398247"><ele>133.0</ele><time>2026-04-24T10:55:01.792Z</time></trkpt><trkpt lat="45.4089463" lon="10.5398091"><ele>133.0</ele><time>2026-04-24T10:57:12.79Z</time></trkpt><trkpt lat="45.408928" lon="10.5399407"><ele>133.0</ele><time>2026-04-24T10:57:35.785Z</time></trkpt><trkpt lat="45.4089833" lon="10.5398817"><ele>133.0</ele><time>2026-04-24T10:59:47.786Z</time></trkpt><trkpt lat="45.4089198" lon="10.5398199"><ele>133.0</ele><time>2026-04-24T10:59:48.79Z</time></trkpt><trkpt lat="45.4088609" lon="10.5398521"><ele>133.0</ele><time>2026-04-24T11:01:21.778Z</time></trkpt><trkpt lat="45.4088361" lon="10.5399629"><ele>133.0</ele><time>2026-04-24T11:02:02.783Z</time></trkpt><trkpt lat="45.4089066" lon="10.5399547"><ele>133.0</ele><time>2026-04-24T11:02:16.78Z</time></trkpt><trkpt lat="45.4089478" lon="10.5398424"><ele>133.0</ele><time>2026-04-24T11:02:42.785Z</time></trkpt><trkpt lat="45.4089583" lon="10.5397382"><ele>133.0</ele><time>2026-04-24T11:02:54.784Z</time></trkpt><trkpt lat="45.4089983" lon="10.5398167"><ele>133.0</ele><time>2026-04-24T11:04:06.791Z</time></trkpt><trkpt lat="45.4089391" lon="10.5398925"><ele>133.0</ele><time>2026-04-24T11:04:07.789Z</time></trkpt><trkpt lat="45.4089419" lon="10.5397867"><ele>133.0</ele><time>2026-04-24T11:04:32.785Z</time></trkpt><trkpt lat="45.409014" lon="10.5398389"><ele>133.0</ele><time>2026-04-24T11:07:28.784Z</time></trkpt><trkpt lat="45.409033" lon="10.5397335"><ele>133.0</ele><time>2026-04-24T11:07:53.781Z</time></trkpt><trkpt lat="45.408935" lon="10.5397343"><ele>133.0</ele><time>2026-04-24T11:08:36.786Z</time></trkpt><trkpt lat="45.4089793" lon="10.5398059"><ele>133.0</ele><time>2026-04-24T11:09:04.783Z</time></trkpt><trkpt lat="45.4090485" lon="10.539868"><ele>133.0</ele><time>2026-04-24T11:09:30.784Z</time></trkpt><trkpt lat="45.4089749" lon="10.5398151"><ele>133.0</ele><time>2026-04-24T11:10:08.78Z</time></trkpt><trkpt lat="45.4089102" lon="10.5398634"><ele>133.0</ele><time>2026-04-24T11:10:12.79Z</time></trkpt><trkpt lat="45.4090108" lon="10.5399116"><ele>133.0</ele><time>2026-04-24T11:11:58.787Z</time></trkpt><trkpt lat="45.4089472" lon="10.5398882"><ele>133.0</ele><time>2026-04-24T11:12:30.792Z</time></trkpt><trkpt lat="45.4089884" lon="10.5398203"><ele>133.0</ele><time>2026-04-24T11:12:51.785Z</time></trkpt><trkpt lat="45.4088935" lon="10.5399291"><ele>133.0</ele><time>2026-04-24T11:15:40.784Z</time></trkpt><trkpt lat="45.4088723" lon="10.5398358"><ele>133.0</ele><time>2026-04-24T11:16:50.788Z</time></trkpt><trkpt lat="45.4089812" lon="10.5398433"><ele>133.0</ele><time>2026-04-24T11:19:52.792Z</time></trkpt><trkpt lat="45.4090141" lon="10.5397183"><ele>133.0</ele><time>2026-04-24T11:20:24.784Z</time></trkpt><trkpt lat="45.4090525" lon="10.539807"><ele>133.0</ele><time>2026-04-24T11:21:18.784Z</time></trkpt><trkpt lat="45.4089739" lon="10.5398105"><ele>133.0</ele><time>2026-04-24T11:22:15.791Z</time></trkpt><trkpt lat="45.4089133" lon="10.5398978"><ele>133.0</ele><time>2026-04-24T11:25:18.781Z</time></trkpt><trkpt lat="45.4090167" lon="10.5398815"><ele>133.0</ele><time>2026-04-24T11:27:06.776Z</time></trkpt><trkpt lat="45.4090273" lon="10.5397705"><ele>133.0</ele><time>2026-04-24T11:30:03.782Z</time></trkpt><trkpt lat="45.4089282" lon="10.5398464"><ele>133.0</ele><time>2026-04-24T11:32:02.781Z</time></trkpt><trkpt lat="45.4088428" lon="10.5399061"><ele>133.0</ele><time>2026-04-24T11:33:29.79Z</time></trkpt><trkpt lat="45.4088869" lon="10.5398272"><ele>133.0</ele><time>2026-04-24T11:34:33.783Z</time></trkpt><trkpt lat="45.4089436" lon="10.5399049"><ele>133.0</ele><time>2026-04-24T11:37:03.792Z</time></trkpt><trkpt lat="45.4088796" lon="10.5399239"><ele>133.0</ele><time>2026-04-24T11:38:01.781Z</time></trkpt><trkpt lat="45.4088613" lon="10.5397839"><ele>133.0</ele><time>2026-04-24T11:38:17.785Z</time></trkpt><trkpt lat="45.4089211" lon="10.5398684"><ele>133.0</ele><time>2026-04-24T11:38:27.779Z</time></trkpt><trkpt lat="45.4089766" lon="10.539911"><ele>133.0</ele><time>2026-04-24T11:46:35.782Z</time></trkpt><trkpt lat="45.4088305" lon="10.5399261"><ele>133.0</ele><time>2026-04-24T11:48:06.783Z</time></trkpt><trkpt lat="45.4087424" lon="10.5399465"><ele>133.0</ele><time>2026-04-24T11:48:08.791Z</time></trkpt><trkpt lat="45.4086514" lon="10.5399512"><ele>133.0</ele><time>2026-04-24T11:48:23.781Z</time></trkpt><trkpt lat="45.4087147" lon="10.5399025"><ele>133.0</ele><time>2026-04-24T11:48:45.777Z</time></trkpt><trkpt lat="45.4088411" lon="10.539869"><ele>133.0</ele><time>2026-04-24T11:49:02.789Z</time></trkpt><trkpt lat="45.4089414" lon="10.5398454"><ele>133.0</ele><time>2026-04-24T11:49:15.789Z</time></trkpt><trkpt lat="45.4089017" lon="10.53993"><ele>133.0</ele><time>2026-04-24T11:51:14.78Z</time></trkpt><trkpt lat="45.4090277" lon="10.539935"><ele>133.0</ele><time>2026-04-24T11:52:31.788Z</time></trkpt><trkpt lat="45.4089971" lon="10.539855"><ele>133.0</ele><time>2026-04-24T11:52:47.785Z</time></trkpt><trkpt lat="45.409084" lon="10.5398169"><ele>133.0</ele><time>2026-04-24T11:53:20.786Z</time></trkpt><trkpt lat="45.4090117" lon="10.5398195"><ele>133.0</ele><time>2026-04-24T11:53:47.906Z</time></trkpt><trkpt lat="45.4089258" lon="10.5398223"><ele>133.0</ele><time>2026-04-24T11:53:52.788Z</time></trkpt><trkpt lat="45.4089328" lon="10.539921"><ele>133.0</ele><time>2026-04-24T11:55:24.791Z</time></trkpt><trkpt lat="45.4088795" lon="10.5398533"><ele>133.0</ele><time>2026-04-24T11:56:58.784Z</time></trkpt><trkpt lat="45.4088147" lon="10.5398467"><ele>133.0</ele><time>2026-04-24T11:57:09.785Z</time></trkpt><trkpt lat="45.4088796" lon="10.5398585"><ele>133.0</ele><time>2026-04-24T11:57:36.778Z</time></trkpt><trkpt lat="45.4089708" lon="10.5398617"><ele>133.0</ele><time>2026-04-24T11:57:47.791Z</time></trkpt><trkpt lat="45.4089095" lon="10.5399198"><ele>133.0</ele><time>2026-04-24T11:59:18.789Z</time></trkpt><trkpt lat="45.4088373" lon="10.5399083"><ele>133.0</ele><time>2026-04-24T11:59:59.793Z</time></trkpt><trkpt lat="45.4089351" lon="10.5398371"><ele>133.0</ele><time>2026-04-24T12:03:20.785Z</time></trkpt><trkpt lat="45.4089466" lon="10.5397326"><ele>133.0</ele><time>2026-04-24T12:11:14.781Z</time></trkpt><trkpt lat="45.4089553" lon="10.5396292"><ele>133.0</ele><time>2026-04-24T12:11:31.784Z</time></trkpt><trkpt lat="45.4090142" lon="10.539728"><ele>133.0</ele><time>2026-04-24T12:12:35.782Z</time></trkpt><trkpt lat="45.4089654" lon="10.5397957"><ele>133.0</ele><time>2026-04-24T12:13:26.79Z</time></trkpt><trkpt lat="45.4089177" lon="10.5399132"><ele>133.0</ele><time>2026-04-24T12:14:33.78Z</time></trkpt><trkpt lat="45.4089528" lon="10.5398386"><ele>133.0</ele><time>2026-04-24T12:15:42.779Z</time></trkpt><trkpt lat="45.4089017" lon="10.539891"><ele>133.0</ele><time>2026-04-24T12:17:36.778Z</time></trkpt><trkpt lat="45.4089528" lon="10.5398299"><ele>133.0</ele><time>2026-04-24T12:18:50.781Z</time></trkpt><trkpt lat="45.4088736" lon="10.5398126"><ele>133.0</ele><time>2026-04-24T12:19:17.789Z</time></trkpt><trkpt lat="45.4089725" lon="10.5398117"><ele>133.0</ele><time>2026-04-24T12:19:56.781Z</time></trkpt><trkpt lat="45.408847" lon="10.5398356"><ele>133.0</ele><time>2026-04-24T12:27:45.787Z</time></trkpt><trkpt lat="45.4089884" lon="10.5398182"><ele>133.0</ele><time>2026-04-24T12:30:13.773Z</time></trkpt><trkpt lat="45.4089253" lon="10.5398212"><ele>133.0</ele><time>2026-04-24T12:39:05.784Z</time></trkpt><trkpt lat="45.4089937" lon="10.5399376"><ele>133.0</ele><time>2026-04-24T12:40:37.788Z</time></trkpt><trkpt lat="45.4091091" lon="10.5399132"><ele>133.0</ele><time>2026-04-24T12:40:54.784Z</time></trkpt><trkpt lat="45.4090365" lon="10.5398769"><ele>133.0</ele><time>2026-04-24T12:41:14.782Z</time></trkpt><trkpt lat="45.409031" lon="10.5397787"><ele>133.0</ele><time>2026-04-24T12:43:20.783Z</time></trkpt><trkpt lat="45.4090556" lon="10.5396711"><ele>133.0</ele><time>2026-04-24T12:43:49.781Z</time></trkpt><trkpt lat="45.409088" lon="10.539756"><ele>133.0</ele><time>2026-04-24T12:44:14.779Z</time></trkpt><trkpt lat="45.4089947" lon="10.5397797"><ele>133.0</ele><time>2026-04-24T12:44:51.787Z</time></trkpt><trkpt lat="45.4088886" lon="10.5398519"><ele>133.0</ele><time>2026-04-24T12:45:29.779Z</time></trkpt><trkpt lat="45.4089379" lon="10.5397716"><ele>133.0</ele><time>2026-04-24T12:45:55.788Z</time></trkpt><trkpt lat="45.4089621" lon="10.5396566"><ele>133.0</ele><time>2026-04-24T12:46:15.775Z</time></trkpt><trkpt lat="45.4089205" lon="10.5397449"><ele>133.0</ele><time>2026-04-24T12:46:46.788Z</time></trkpt><trkpt lat="45.4089844" lon="10.5398828"><ele>133.0</ele><time>2026-04-24T12:49:06.781Z</time></trkpt><trkpt lat="45.4089222" lon="10.5398372"><ele>133.0</ele><time>2026-04-24T12:49:38.773Z</time></trkpt><trkpt lat="45.4088498" lon="10.5398616"><ele>133.0</ele><time>2026-04-24T12:49:41.782Z</time></trkpt><trkpt lat="45.4087763" lon="10.5399126"><ele>133.0</ele><time>2026-04-24T12:49:45.783Z</time></trkpt><trkpt lat="45.4088784" lon="10.5398888"><ele>133.0</ele><time>2026-04-24T12:50:18.787Z</time></trkpt><trkpt lat="45.4089945" lon="10.5398848"><ele>133.0</ele><time>2026-04-24T12:50:33.783Z</time></trkpt><trkpt lat="45.4089302" lon="10.5399"><ele>133.0</ele><time>2026-04-24T12:50:59.787Z</time></trkpt><trkpt lat="45.4088441" lon="10.5398524"><ele>133.0</ele><time>2026-04-24T12:51:10.78Z</time></trkpt><trkpt lat="45.4089197" lon="10.5398064"><ele>133.0</ele><time>2026-04-24T12:51:47.787Z</time></trkpt><trkpt lat="45.4088544" lon="10.539809"><ele>133.0</ele><time>2026-04-24T12:52:49.781Z</time></trkpt><trkpt lat="45.4089207" lon="10.5398065"><ele>133.0</ele><time>2026-04-24T12:53:19.788Z</time></trkpt><trkpt lat="45.4088332" lon="10.5398241"><ele>133.0</ele><time>2026-04-24T12:55:03.79Z</time></trkpt><trkpt lat="45.4089237" lon="10.5398254"><ele>133.0</ele><time>2026-04-24T12:55:47.781Z</time></trkpt><trkpt lat="45.4089983" lon="10.5398415"><ele>133.0</ele><time>2026-04-24T13:04:14.782Z</time></trkpt><trkpt lat="45.4090211" lon="10.5397527"><ele>133.0</ele><time>2026-04-24T13:07:12.776Z</time></trkpt><trkpt lat="45.4090892" lon="10.539692"><ele>133.0</ele><time>2026-04-24T13:08:36.789Z</time></trkpt><trkpt lat="45.4089902" lon="10.5396781"><ele>133.0</ele><time>2026-04-24T13:08:55.782Z</time></trkpt><trkpt lat="45.4089157" lon="10.5397895"><ele>133.0</ele><time>2026-04-24T13:10:02.78Z</time></trkpt><trkpt lat="45.4088577" lon="10.539733"><ele>133.0</ele><time>2026-04-24T13:13:56.78Z</time></trkpt><trkpt lat="45.408994" lon="10.5397585"><ele>133.0</ele><time>2026-04-24T13:16:59.788Z</time></trkpt><trkpt lat="45.4089077" lon="10.5398156"><ele>133.0</ele><time>2026-04-24T13:21:47.779Z</time></trkpt><trkpt lat="45.4090173" lon="10.5398665"><ele>133.0</ele><time>2026-04-24T13:25:47.787Z</time></trkpt><trkpt lat="45.4091166" lon="10.539873"><ele>133.0</ele><time>2026-04-24T13:27:07.785Z</time></trkpt><trkpt lat="45.4090502" lon="10.5398933"><ele>133.0</ele><time>2026-04-24T13:27:44.78Z</time></trkpt><trkpt lat="45.4089312" lon="10.5398835"><ele>133.0</ele><time>2026-04-24T13:27:55.789Z</time></trkpt><trkpt lat="45.4089765" lon="10.5398119"><ele>133.0</ele><time>2026-04-24T13:28:39.788Z</time></trkpt><trkpt lat="45.4090371" lon="10.5397593"><ele>133.0</ele><time>2026-04-24T13:32:44.792Z</time></trkpt><trkpt lat="45.4091628" lon="10.5397306"><ele>133.0</ele><time>2026-04-24T13:33:01.79Z</time></trkpt><trkpt lat="45.4091617" lon="10.5398534"><ele>133.0</ele><time>2026-04-24T13:35:44.778Z</time></trkpt><trkpt lat="45.4091349" lon="10.5397593"><ele>133.0</ele><time>2026-04-24T13:36:19.779Z</time></trkpt><trkpt lat="45.4090941" lon="10.5396563"><ele>133.0</ele><time>2026-04-24T13:37:32.777Z</time></trkpt><trkpt lat="45.4090673" lon="10.539749"><ele>133.0</ele><time>2026-04-24T13:38:26.782Z</time></trkpt><trkpt lat="45.4089858" lon="10.5397298"><ele>133.0</ele><time>2026-04-24T13:39:05.783Z</time></trkpt><trkpt lat="45.4090561" lon="10.5396983"><ele>133.0</ele><time>2026-04-24T13:39:28.784Z</time></trkpt><trkpt lat="45.4090939" lon="10.5397957"><ele>133.0</ele><time>2026-04-24T13:41:18.778Z</time></trkpt><trkpt lat="45.4090551" lon="10.5397103"><ele>133.0</ele><time>2026-04-24T13:41:50.778Z</time></trkpt><trkpt lat="45.4090937" lon="10.5396006"><ele>133.0</ele><time>2026-04-24T13:44:22.784Z</time></trkpt><trkpt lat="45.4090413" lon="10.5396548"><ele>133.0</ele><time>2026-04-24T13:45:21.783Z</time></trkpt><trkpt lat="45.4090386" lon="10.5397633"><ele>133.0</ele><time>2026-04-24T13:48:40.775Z</time></trkpt><trkpt lat="45.4089859" lon="10.5396999"><ele>133.0</ele><time>2026-04-24T13:49:31.784Z</time></trkpt><trkpt lat="45.408899" lon="10.5396553"><ele>133.0</ele><time>2026-04-24T13:50:01.775Z</time></trkpt><trkpt lat="45.4089671" lon="10.5397123"><ele>133.0</ele><time>2026-04-24T13:50:45.778Z</time></trkpt><trkpt lat="45.4088954" lon="10.5397076"><ele>133.0</ele><time>2026-04-24T13:51:06.775Z</time></trkpt><trkpt lat="45.4089296" lon="10.5398009"><ele>133.0</ele><time>2026-04-24T13:53:27.78Z</time></trkpt><trkpt lat="45.4089986" lon="10.5399019"><ele>133.0</ele><time>2026-04-24T13:54:07.784Z</time></trkpt><trkpt lat="45.408969" lon="10.5398085"><ele>133.0</ele><time>2026-04-24T13:54:52.78Z</time></trkpt><trkpt lat="45.4089069" lon="10.5397346"><ele>133.0</ele><time>2026-04-24T13:55:39.779Z</time></trkpt><trkpt lat="45.4089685" lon="10.5397567"><ele>133.0</ele><time>2026-04-24T13:56:11.784Z</time></trkpt><trkpt lat="45.4089122" lon="10.5398085"><ele>133.0</ele><time>2026-04-24T13:57:41.782Z</time></trkpt><trkpt lat="45.408968" lon="10.5397473"><ele>133.0</ele><time>2026-04-24T13:58:11.783Z</time></trkpt><trkpt lat="45.4090251" lon="10.5398329"><ele>133.0</ele><time>2026-04-24T13:58:35.776Z</time></trkpt><trkpt lat="45.4089502" lon="10.5398348"><ele>133.0</ele><time>2026-04-24T13:59:43.783Z</time></trkpt><trkpt lat="45.4089982" lon="10.5398959"><ele>133.0</ele><time>2026-04-24T14:01:37.78Z</time></trkpt><trkpt lat="45.4090517" lon="10.5398083"><ele>133.0</ele><time>2026-04-24T14:02:34.781Z</time></trkpt><trkpt lat="45.4089503" lon="10.5398364"><ele>133.0</ele><time>2026-04-24T14:02:35.782Z</time></trkpt><trkpt lat="45.408995" lon="10.5397525"><ele>133.0</ele><time>2026-04-24T14:02:55.781Z</time></trkpt><trkpt lat="45.4090045" lon="10.5399044"><ele>133.0</ele><time>2026-04-24T14:06:20.768Z</time></trkpt><trkpt lat="45.4090646" lon="10.5398147"><ele>133.0</ele><time>2026-04-24T14:07:47.781Z</time></trkpt><trkpt lat="45.4089953" lon="10.5397713"><ele>133.0</ele><time>2026-04-24T14:08:43.782Z</time></trkpt><trkpt lat="45.4089353" lon="10.53983"><ele>133.0</ele><time>2026-04-24T14:09:02.774Z</time></trkpt><trkpt lat="45.4088593" lon="10.5397517"><ele>133.0</ele><time>2026-04-24T14:09:28.777Z</time></trkpt><trkpt lat="45.4089069" lon="10.5396788"><ele>133.0</ele><time>2026-04-24T14:10:24.775Z</time></trkpt><trkpt lat="45.4088888" lon="10.5398104"><ele>133.0</ele><time>2026-04-24T14:11:22.775Z</time></trkpt><trkpt lat="45.4088214" lon="10.5399223"><ele>133.0</ele><time>2026-04-24T14:11:39.774Z</time></trkpt><trkpt lat="45.4089264" lon="10.5398853"><ele>133.0</ele><time>2026-04-24T14:12:49.775Z</time></trkpt><trkpt lat="45.4088406" lon="10.5398124"><ele>133.0</ele><time>2026-04-24T14:13:59.777Z</time></trkpt><trkpt lat="45.4087246" lon="10.5397562"><ele>133.0</ele><time>2026-04-24T14:14:19.779Z</time></trkpt><trkpt lat="45.4088328" lon="10.5398404"><ele>133.0</ele><time>2026-04-24T14:17:03.779Z</time></trkpt><trkpt lat="45.4088741" lon="10.5397027"><ele>133.0</ele><time>2026-04-24T14:18:38.779Z</time></trkpt><trkpt lat="45.4089919" lon="10.5397037"><ele>133.0</ele><time>2026-04-24T14:21:07.788Z</time></trkpt><trkpt lat="45.4089845" lon="10.539801"><ele>133.0</ele><time>2026-04-24T14:22:00.778Z</time></trkpt><trkpt lat="45.4090223" lon="10.5398888"><ele>133.0</ele><time>2026-04-24T14:22:23.777Z</time></trkpt><trkpt lat="45.4089615" lon="10.5399122"><ele>133.0</ele><time>2026-04-24T14:22:33.774Z</time></trkpt><trkpt lat="45.4088915" lon="10.5399142"><ele>133.0</ele><time>2026-04-24T14:22:36.778Z</time></trkpt><trkpt lat="45.408869" lon="10.5397999"><ele>133.0</ele><time>2026-04-24T14:23:14.781Z</time></trkpt><trkpt lat="45.4088152" lon="10.5398493"><ele>133.0</ele><time>2026-04-24T14:23:32.781Z</time></trkpt><trkpt lat="45.4088848" lon="10.539896"><ele>133.0</ele><time>2026-04-24T14:23:55.787Z</time></trkpt><trkpt lat="45.4089337" lon="10.5397643"><ele>133.0</ele><time>2026-04-24T14:25:09.779Z</time></trkpt><trkpt lat="45.4089765" lon="10.539665"><ele>133.0</ele><time>2026-04-24T14:27:29.783Z</time></trkpt><trkpt lat="45.4089159" lon="10.5397286"><ele>133.0</ele><time>2026-04-24T14:27:55.789Z</time></trkpt><trkpt lat="45.4088675" lon="10.5398256"><ele>133.0</ele><time>2026-04-24T14:28:55.776Z</time></trkpt><trkpt lat="45.4087759" lon="10.5398625"><ele>133.0</ele><time>2026-04-24T14:29:37.787Z</time></trkpt><trkpt lat="45.4088756" lon="10.5398613"><ele>133.0</ele><time>2026-04-24T14:30:19.778Z</time></trkpt><trkpt lat="45.4087987" lon="10.5398722"><ele>133.0</ele><time>2026-04-24T14:30:53.783Z</time></trkpt><trkpt lat="45.4087942" lon="10.5397408"><ele>133.0</ele><time>2026-04-24T14:31:09.785Z</time></trkpt><trkpt lat="45.4088796" lon="10.5396976"><ele>133.0</ele><time>2026-04-24T14:32:18.776Z</time></trkpt><trkpt lat="45.4089737" lon="10.5396917"><ele>133.0</ele><time>2026-04-24T14:32:48.778Z</time></trkpt><trkpt lat="45.4089055" lon="10.5396481"><ele>133.0</ele><time>2026-04-24T14:34:31.784Z</time></trkpt><trkpt lat="45.4089245" lon="10.5395045"><ele>133.0</ele><time>2026-04-24T14:34:43.776Z</time></trkpt><trkpt lat="45.408888" lon="10.5396943"><ele>133.0</ele><time>2026-04-24T14:35:09.779Z</time></trkpt><trkpt lat="45.4089133" lon="10.5398387"><ele>133.0</ele><time>2026-04-24T14:35:57.778Z</time></trkpt><trkpt lat="45.4089679" lon="10.5397692"><ele>133.0</ele><time>2026-04-24T14:36:31.787Z</time></trkpt><trkpt lat="45.4088405" lon="10.5398483"><ele>133.0</ele><time>2026-04-24T14:37:32.785Z</time></trkpt><trkpt lat="45.4087643" lon="10.53993"><ele>133.0</ele><time>2026-04-24T14:37:39.785Z</time></trkpt><trkpt lat="45.408827" lon="10.5398275"><ele>133.0</ele><time>2026-04-24T14:39:16.78Z</time></trkpt><trkpt lat="45.4089113" lon="10.5396167"><ele>133.0</ele><time>2026-04-24T14:39:30.781Z</time></trkpt><trkpt lat="45.4089455" lon="10.5395128"><ele>133.0</ele><time>2026-04-24T14:39:31.784Z</time></trkpt><trkpt lat="45.4089342" lon="10.5396165"><ele>133.0</ele><time>2026-04-24T14:40:10.776Z</time></trkpt><trkpt lat="45.4088751" lon="10.5397289"><ele>133.0</ele><time>2026-04-24T14:40:16.777Z</time></trkpt><trkpt lat="45.4088997" lon="10.5398258"><ele>133.0</ele><time>2026-04-24T14:40:42.779Z</time></trkpt><trkpt lat="45.4089947" lon="10.5397629"><ele>133.0</ele><time>2026-04-24T14:44:06.778Z</time></trkpt><trkpt lat="45.4089183" lon="10.5397433"><ele>133.0</ele><time>2026-04-24T14:45:22.78Z</time></trkpt><trkpt lat="45.4089155" lon="10.5398642"><ele>133.0</ele><time>2026-04-24T14:45:23.774Z</time></trkpt><trkpt lat="45.4089241" lon="10.5400283"><ele>133.0</ele><time>2026-04-24T14:46:20.779Z</time></trkpt><trkpt lat="45.4089401" lon="10.5399351"><ele>133.0</ele><time>2026-04-24T14:46:38.778Z</time></trkpt><trkpt lat="45.4089604" lon="10.5398028"><ele>133.0</ele><time>2026-04-24T14:46:46.778Z</time></trkpt><trkpt lat="45.4089033" lon="10.5398719"><ele>133.0</ele><time>2026-04-24T14:47:07.781Z</time></trkpt><trkpt lat="45.4090292" lon="10.5397921"><ele>133.0</ele><time>2026-04-24T14:48:21.785Z</time></trkpt><trkpt lat="45.4090163" lon="10.5398821"><ele>133.0</ele><time>2026-04-24T14:50:32.783Z</time></trkpt><trkpt lat="45.4089596" lon="10.5399817"><ele>133.0</ele><time>2026-04-24T14:50:52.776Z</time></trkpt><trkpt lat="45.4090015" lon="10.5399136"><ele>133.0</ele><time>2026-04-24T14:51:55.849Z</time></trkpt><trkpt lat="45.4090059" lon="10.5398051"><ele>133.0</ele><time>2026-04-24T14:53:25.776Z</time></trkpt><trkpt lat="45.4090424" lon="10.5396799"><ele>133.0</ele><time>2026-04-24T14:53:37.788Z</time></trkpt><trkpt lat="45.4090968" lon="10.5395881"><ele>133.0</ele><time>2026-04-24T14:53:40.779Z</time></trkpt><trkpt lat="45.4091045" lon="10.5397108"><ele>133.0</ele><time>2026-04-24T14:54:54.787Z</time></trkpt><trkpt lat="45.4092075" lon="10.5398006"><ele>133.0</ele><time>2026-04-24T14:55:17.77Z</time></trkpt><trkpt lat="45.4091473" lon="10.5397642"><ele>133.0</ele><time>2026-04-24T14:55:55.786Z</time></trkpt><trkpt lat="45.4090639" lon="10.539772"><ele>133.0</ele><time>2026-04-24T14:56:28.784Z</time></trkpt><trkpt lat="45.409096" lon="10.5396854"><ele>133.0</ele><time>2026-04-24T14:57:05.777Z</time></trkpt><trkpt lat="45.409048" lon="10.5397485"><ele>133.0</ele><time>2026-04-24T14:57:58.784Z</time></trkpt><trkpt lat="45.4091303" lon="10.5397734"><ele>133.0</ele><time>2026-04-24T14:58:58.786Z</time></trkpt><trkpt lat="45.4092341" lon="10.5396949"><ele>133.0</ele><time>2026-04-24T15:00:52.784Z</time></trkpt><trkpt lat="45.409165" lon="10.5396993"><ele>133.0</ele><time>2026-04-24T15:01:10.776Z</time></trkpt><trkpt lat="45.4092404" lon="10.5397839"><ele>133.0</ele><time>2026-04-24T15:01:20.783Z</time></trkpt><trkpt lat="45.4091557" lon="10.5398388"><ele>133.0</ele><time>2026-04-24T15:01:37.786Z</time></trkpt><trkpt lat="45.409122" lon="10.5396572"><ele>133.0</ele><time>2026-04-24T15:02:16.775Z</time></trkpt><trkpt lat="45.4091521" lon="10.5395434"><ele>133.0</ele><time>2026-04-24T15:02:18.784Z</time></trkpt><trkpt lat="45.4092063" lon="10.5393888"><ele>133.0</ele><time>2026-04-24T15:02:23.776Z</time></trkpt><trkpt lat="45.4092558" lon="10.5394467"><ele>133.0</ele><time>2026-04-24T15:03:04.778Z</time></trkpt><trkpt lat="45.4092056" lon="10.5395871"><ele>133.0</ele><time>2026-04-24T15:03:28.779Z</time></trkpt><trkpt lat="45.4091506" lon="10.5396371"><ele>133.0</ele><time>2026-04-24T15:04:01.777Z</time></trkpt><trkpt lat="45.4090502" lon="10.5396205"><ele>133.0</ele><time>2026-04-24T15:04:29.783Z</time></trkpt><trkpt lat="45.4089664" lon="10.5396048"><ele>133.0</ele><time>2026-04-24T15:04:43.79Z</time></trkpt><trkpt lat="45.4089438" lon="10.5397116"><ele>133.0</ele><time>2026-04-24T15:05:21.776Z</time></trkpt><trkpt lat="45.4090266" lon="10.5397511"><ele>133.0</ele><time>2026-04-24T15:06:13.786Z</time></trkpt><trkpt lat="45.4091014" lon="10.5396241"><ele>133.0</ele><time>2026-04-24T15:06:35.779Z</time></trkpt><trkpt lat="45.4091376" lon="10.5397045"><ele>133.0</ele><time>2026-04-24T15:07:15.774Z</time></trkpt><trkpt lat="45.4090774" lon="10.5397907"><ele>133.0</ele><time>2026-04-24T15:07:43.785Z</time></trkpt><trkpt lat="45.4089913" lon="10.5397208"><ele>133.0</ele><time>2026-04-24T15:08:17.786Z</time></trkpt><trkpt lat="45.4090326" lon="10.5397888"><ele>133.0</ele><time>2026-04-24T15:09:01.777Z</time></trkpt><trkpt lat="45.4089604" lon="10.5398288"><ele>133.0</ele><time>2026-04-24T15:10:22.782Z</time></trkpt><trkpt lat="45.4090029" lon="10.5397525"><ele>133.0</ele><time>2026-04-24T15:12:11.777Z</time></trkpt><trkpt lat="45.4090504" lon="10.5398467"><ele>133.0</ele><time>2026-04-24T15:13:14.772Z</time></trkpt><trkpt lat="45.408971" lon="10.5398346"><ele>133.0</ele><time>2026-04-24T15:13:48.774Z</time></trkpt><trkpt lat="45.409027" lon="10.5397107"><ele>133.0</ele><time>2026-04-24T15:13:55.773Z</time></trkpt><trkpt lat="45.4090677" lon="10.5396104"><ele>133.0</ele><time>2026-04-24T15:13:57.779Z</time></trkpt><trkpt lat="45.409072" lon="10.5397031"><ele>133.0</ele><time>2026-04-24T15:14:49.776Z</time></trkpt><trkpt lat="45.4090067" lon="10.5397683"><ele>133.0</ele><time>2026-04-24T15:15:27.776Z</time></trkpt><trkpt lat="45.4089308" lon="10.5396952"><ele>133.0</ele><time>2026-04-24T15:15:28.782Z</time></trkpt><trkpt lat="45.4090733" lon="10.539729"><ele>133.0</ele><time>2026-04-24T15:16:40.779Z</time></trkpt><trkpt lat="45.4090367" lon="10.5395799"><ele>133.0</ele><time>2026-04-24T15:19:17.777Z</time></trkpt><trkpt lat="45.4090474" lon="10.5396709"><ele>133.0</ele><time>2026-04-24T15:19:58.776Z</time></trkpt><trkpt lat="45.4089707" lon="10.5396829"><ele>133.0</ele><time>2026-04-24T15:20:08.786Z</time></trkpt><trkpt lat="45.408874" lon="10.5396809"><ele>133.0</ele><time>2026-04-24T15:20:24.786Z</time></trkpt><trkpt lat="45.4089983" lon="10.5396278"><ele>133.0</ele><time>2026-04-24T15:21:46.783Z</time></trkpt><trkpt lat="45.4090231" lon="10.5397122"><ele>133.0</ele><time>2026-04-24T15:22:09.782Z</time></trkpt><trkpt lat="45.408917" lon="10.5397691"><ele>133.0</ele><time>2026-04-24T15:22:18.779Z</time></trkpt><trkpt lat="45.4088304" lon="10.5397936"><ele>133.0</ele><time>2026-04-24T15:22:20.778Z</time></trkpt><trkpt lat="45.4089016" lon="10.5397608"><ele>133.0</ele><time>2026-04-24T15:22:33.779Z</time></trkpt><trkpt lat="45.408969" lon="10.5398579"><ele>133.0</ele><time>2026-04-24T15:23:03.782Z</time></trkpt><trkpt lat="45.4089667" lon="10.539749"><ele>133.0</ele><time>2026-04-24T15:23:30.779Z</time></trkpt><trkpt lat="45.4090166" lon="10.5396235"><ele>133.0</ele><time>2026-04-24T15:23:36.781Z</time></trkpt><trkpt lat="45.4090701" lon="10.5394991"><ele>133.0</ele><time>2026-04-24T15:23:51.767Z</time></trkpt><trkpt lat="45.4089561" lon="10.5395706"><ele>133.0</ele><time>2026-04-24T15:25:17.781Z</time></trkpt><trkpt lat="45.4089031" lon="10.5396806"><ele>133.0</ele><time>2026-04-24T15:25:19.777Z</time></trkpt><trkpt lat="45.4089341" lon="10.5397724"><ele>133.0</ele><time>2026-04-24T15:28:36.774Z</time></trkpt><trkpt lat="45.4089854" lon="10.5398764"><ele>133.0</ele><time>2026-04-24T15:28:42.775Z</time></trkpt><trkpt lat="45.4089564" lon="10.5399852"><ele>133.0</ele><time>2026-04-24T15:29:12.783Z</time></trkpt><trkpt lat="45.4089326" lon="10.5398939"><ele>133.0</ele><time>2026-04-24T15:29:55.776Z</time></trkpt><trkpt lat="45.4089814" lon="10.5397718"><ele>133.0</ele><time>2026-04-24T15:31:39.773Z</time></trkpt><trkpt lat="45.4088956" lon="10.539837"><ele>133.0</ele><time>2026-04-24T15:32:24.782Z</time></trkpt><trkpt lat="45.4087706" lon="10.5398207"><ele>133.0</ele><time>2026-04-24T15:36:22.774Z</time></trkpt><trkpt lat="45.4088124" lon="10.539899"><ele>133.0</ele><time>2026-04-24T15:37:04.786Z</time></trkpt><trkpt lat="45.4089529" lon="10.5398657"><ele>133.0</ele><time>2026-04-24T15:37:30.773Z</time></trkpt><trkpt lat="45.4090456" lon="10.5397946"><ele>133.0</ele><time>2026-04-24T15:38:02.775Z</time></trkpt><trkpt lat="45.4090066" lon="10.5398667"><ele>133.0</ele><time>2026-04-24T15:39:00.773Z</time></trkpt><trkpt lat="45.4089015" lon="10.5399709"><ele>133.0</ele><time>2026-04-24T15:41:53.773Z</time></trkpt><trkpt lat="45.4088379" lon="10.5399951"><ele>133.0</ele><time>2026-04-24T15:41:56.78Z</time></trkpt><trkpt lat="45.4088546" lon="10.5398189"><ele>133.0</ele><time>2026-04-24T15:42:05.776Z</time></trkpt><trkpt lat="45.4088329" lon="10.5396928"><ele>133.0</ele><time>2026-04-24T15:42:12.781Z</time></trkpt><trkpt lat="45.4088634" lon="10.5395769"><ele>133.0</ele><time>2026-04-24T15:42:21.779Z</time></trkpt><trkpt lat="45.4088444" lon="10.5397244"><ele>133.0</ele><time>2026-04-24T15:43:25.779Z</time></trkpt><trkpt lat="45.4087769" lon="10.5398704"><ele>133.0</ele><time>2026-04-24T15:43:39.773Z</time></trkpt><trkpt lat="45.4087558" lon="10.5397554"><ele>133.0</ele><time>2026-04-24T15:43:53.775Z</time></trkpt><trkpt lat="45.4088262" lon="10.5395558"><ele>133.0</ele><time>2026-04-24T15:44:17.777Z</time></trkpt><trkpt lat="45.4088604" lon="10.5394734"><ele>133.0</ele><time>2026-04-24T15:44:18.777Z</time></trkpt><trkpt lat="45.4088359" lon="10.5396659"><ele>133.0</ele><time>2026-04-24T15:46:01.784Z</time></trkpt><trkpt lat="45.4089868" lon="10.5396755"><ele>133.0</ele><time>2026-04-24T15:47:36.779Z</time></trkpt><trkpt lat="45.409077" lon="10.539771"><ele>133.0</ele><time>2026-04-24T15:47:55.775Z</time></trkpt><trkpt lat="45.4090783" lon="10.5398667"><ele>133.0</ele><time>2026-04-24T15:48:44.779Z</time></trkpt><trkpt lat="45.4090161" lon="10.5399"><ele>133.0</ele><time>2026-04-24T15:49:10.777Z</time></trkpt><trkpt lat="45.4089417" lon="10.5398212"><ele>133.0</ele><time>2026-04-24T15:50:02.775Z</time></trkpt><trkpt lat="45.4088595" lon="10.5398437"><ele>133.0</ele><time>2026-04-24T15:50:27.777Z</time></trkpt><trkpt lat="45.4087767" lon="10.5397691"><ele>130.75</ele><time>2026-04-24T15:51:09.779Z</time></trkpt><trkpt lat="45.4087299" lon="10.5396755"><ele>128.5</ele><time>2026-04-24T15:52:58.775Z</time></trkpt><trkpt lat="45.4085635" lon="10.539645"><ele>126.25</ele><time>2026-04-24T15:53:18.679Z</time></trkpt><trkpt lat="45.4086168" lon="10.5397309"><ele>124.0</ele><time>2026-04-24T15:53:19.782Z</time></trkpt><trkpt lat="45.4087579" lon="10.5399105"><ele>124.00000000000001</ele><time>2026-04-24T15:53:24.775Z</time></trkpt><trkpt lat="45.4088183" lon="10.5398702"><ele>124.0</ele><time>2026-04-24T15:55:22.781Z</time></trkpt><trkpt lat="45.4088562" lon="10.5397396"><ele>124.0</ele><time>2026-04-24T15:55:38.776Z</time></trkpt><trkpt lat="45.4087937" lon="10.5397533"><ele>124.0</ele><time>2026-04-24T15:56:56.773Z</time></trkpt><trkpt lat="45.4087361" lon="10.5396704"><ele>124.00000000000001</ele><time>2026-04-24T15:57:08.783Z</time></trkpt><trkpt lat="45.4088117" lon="10.5396767"><ele>124.0</ele><time>2026-04-24T15:57:26.782Z</time></trkpt><trkpt lat="45.4088918" lon="10.539678"><ele>124.83333333333334</ele><time>2026-04-24T15:58:49.774Z</time></trkpt><trkpt lat="45.4089675" lon="10.5396399"><ele>125.66666666666667</ele><time>2026-04-24T15:58:54.78Z</time></trkpt><trkpt lat="45.4090133" lon="10.5395697"><ele>126.5</ele><time>2026-04-24T15:58:57.773Z</time></trkpt><trkpt lat="45.4090779" lon="10.5394407"><ele>127.33333333333334</ele><time>2026-04-24T15:59:11.78Z</time></trkpt><trkpt lat="45.4090194" lon="10.5394929"><ele>128.16666666666666</ele><time>2026-04-24T15:59:41.782Z</time></trkpt><trkpt lat="45.4090012" lon="10.539622"><ele>129.0</ele><time>2026-04-24T15:59:55.774Z</time></trkpt><trkpt lat="45.4089411" lon="10.539724"><ele>129.66666666666666</ele><time>2026-04-24T16:01:09.775Z</time></trkpt><trkpt lat="45.4089903" lon="10.5397957"><ele>130.33333333333334</ele><time>2026-04-24T16:03:25.78Z</time></trkpt><trkpt lat="45.4088642" lon="10.5398473"><ele>131.0</ele><time>2026-04-24T16:05:41.78Z</time></trkpt><trkpt lat="45.4088037" lon="10.5397978"><ele>131.66666666666669</ele><time>2026-04-24T16:06:27.771Z</time></trkpt><trkpt lat="45.4088462" lon="10.539871"><ele>132.33333333333334</ele><time>2026-04-24T16:06:34.774Z</time></trkpt><trkpt lat="45.4088961" lon="10.5397386"><ele>133.0</ele><time>2026-04-24T16:09:03.78Z</time></trkpt><trkpt lat="45.4089691" lon="10.5397938"><ele>133.0</ele><time>2026-04-24T16:13:23.776Z</time></trkpt><trkpt lat="45.4089041" lon="10.5398123"><ele>133.0</ele><time>2026-04-24T16:13:45.778Z</time></trkpt><trkpt lat="45.4088164" lon="10.5399105"><ele>133.0</ele><time>2026-04-24T16:22:24.785Z</time></trkpt><trkpt lat="45.4088753" lon="10.5398261"><ele>133.0</ele><time>2026-04-24T16:26:33.778Z</time></trkpt><trkpt lat="45.4089658" lon="10.5398165"><ele>133.0</ele><time>2026-04-24T16:27:49.783Z</time></trkpt><trkpt lat="45.4089072" lon="10.5397661"><ele>133.0</ele><time>2026-04-24T16:28:31.777Z</time></trkpt><trkpt lat="45.4088351" lon="10.5397191"><ele>133.0</ele><time>2026-04-24T16:30:57.775Z</time></trkpt><trkpt lat="45.4088883" lon="10.5398317"><ele>133.0</ele><time>2026-04-24T16:33:54.772Z</time></trkpt><trkpt lat="45.4088155" lon="10.5398727"><ele>133.0</ele><time>2026-04-24T16:33:55.78Z</time></trkpt><trkpt lat="45.4087589" lon="10.5397606"><ele>133.0</ele><time>2026-04-24T16:33:58.773Z</time></trkpt><trkpt lat="45.4087509" lon="10.5396427"><ele>133.0</ele><time>2026-04-24T16:34:11.772Z</time></trkpt><trkpt lat="45.4088177" lon="10.5396527"><ele>133.0</ele><time>2026-04-24T16:35:19.774Z</time></trkpt><trkpt lat="45.4088479" lon="10.5398039"><ele>133.0</ele><time>2026-04-24T16:35:32.781Z</time></trkpt><trkpt lat="45.4089393" lon="10.5399298"><ele>133.0</ele><time>2026-04-24T16:36:03.776Z</time></trkpt><trkpt lat="45.4088661" lon="10.5398419"><ele>133.0</ele><time>2026-04-24T16:37:12.778Z</time></trkpt><trkpt lat="45.408932" lon="10.5398667"><ele>133.0</ele><time>2026-04-24T16:38:39.782Z</time></trkpt><trkpt lat="45.4089208" lon="10.5397538"><ele>133.0</ele><time>2026-04-24T16:42:04.774Z</time></trkpt><trkpt lat="45.4088936" lon="10.5398434"><ele>133.0</ele><time>2026-04-24T16:42:58.77Z</time></trkpt><trkpt lat="45.408947" lon="10.5397755"><ele>133.0</ele><time>2026-04-24T16:46:39.774Z</time></trkpt><trkpt lat="45.408995" lon="10.539668"><ele>133.0</ele><time>2026-04-24T16:47:42.77Z</time></trkpt><trkpt lat="45.4089252" lon="10.5397623"><ele>133.0</ele><time>2026-04-24T16:50:17.771Z</time></trkpt><trkpt lat="45.4089514" lon="10.5398748"><ele>133.0</ele><time>2026-04-24T16:50:59.772Z</time></trkpt><trkpt lat="45.4089418" lon="10.5397299"><ele>133.0</ele><time>2026-04-24T16:51:16.772Z</time></trkpt><trkpt lat="45.4088853" lon="10.5395914"><ele>133.0</ele><time>2026-04-24T16:51:26.779Z</time></trkpt><trkpt lat="45.4088579" lon="10.5396819"><ele>133.0</ele><time>2026-04-24T16:52:00.777Z</time></trkpt><trkpt lat="45.4088143" lon="10.5397816"><ele>133.0</ele><time>2026-04-24T16:52:28.771Z</time></trkpt><trkpt lat="45.4088248" lon="10.5399126"><ele>133.0</ele><time>2026-04-24T16:52:58.77Z</time></trkpt><trkpt lat="45.4089122" lon="10.5399484"><ele>133.0</ele><time>2026-04-24T16:55:05.777Z</time></trkpt><trkpt lat="45.4089291" lon="10.5398554"><ele>133.0</ele><time>2026-04-24T16:56:08.769Z</time></trkpt><trkpt lat="45.4088973" lon="10.5396958"><ele>133.0</ele><time>2026-04-24T16:56:24.774Z</time></trkpt><trkpt lat="45.408878" lon="10.5396095"><ele>133.0</ele><time>2026-04-24T16:56:27.775Z</time></trkpt><trkpt lat="45.4088406" lon="10.5396914"><ele>133.0</ele><time>2026-04-24T16:57:22.769Z</time></trkpt><trkpt lat="45.4088059" lon="10.5396074"><ele>133.0</ele><time>2026-04-24T16:58:00.779Z</time></trkpt><trkpt lat="45.4088468" lon="10.5396774"><ele>133.0</ele><time>2026-04-24T16:58:15.777Z</time></trkpt><trkpt lat="45.4089209" lon="10.5397773"><ele>133.0</ele><time>2026-04-24T16:58:33.775Z</time></trkpt><trkpt lat="45.4089486" lon="10.539925"><ele>133.0</ele><time>2026-04-24T16:58:53.771Z</time></trkpt><trkpt lat="45.4089724" lon="10.5400355"><ele>133.0</ele><time>2026-04-24T16:59:00.773Z</time></trkpt><trkpt lat="45.4090162" lon="10.540168"><ele>133.0</ele><time>2026-04-24T16:59:20.774Z</time></trkpt><trkpt lat="45.4090645" lon="10.5402647"><ele>133.0</ele><time>2026-04-24T16:59:37.783Z</time></trkpt><trkpt lat="45.409059" lon="10.5401593"><ele>133.0</ele><time>2026-04-24T16:59:53.778Z</time></trkpt><trkpt lat="45.4090344" lon="10.5400326"><ele>133.0</ele><time>2026-04-24T17:00:04.771Z</time></trkpt><trkpt lat="45.409001" lon="10.5399321"><ele>133.0</ele><time>2026-04-24T17:00:06.774Z</time></trkpt><trkpt lat="45.4089753" lon="10.5397672"><ele>133.0</ele><time>2026-04-24T17:00:10.78Z</time></trkpt><trkpt lat="45.4089639" lon="10.5396554"><ele>133.0</ele><time>2026-04-24T17:00:12.77Z</time></trkpt><trkpt lat="45.4088703" lon="10.5397212"><ele>133.0</ele><time>2026-04-24T17:00:20.77Z</time></trkpt><trkpt lat="45.4087988" lon="10.5398196"><ele>133.0</ele><time>2026-04-24T17:00:22.772Z</time></trkpt><trkpt lat="45.4089092" lon="10.5397652"><ele>133.0</ele><time>2026-04-24T17:01:05.782Z</time></trkpt><trkpt lat="45.4088667" lon="10.539684"><ele>133.0</ele><time>2026-04-24T17:01:28.771Z</time></trkpt><trkpt lat="45.4088616" lon="10.5394753"><ele>133.0</ele><time>2026-04-24T17:01:43.771Z</time></trkpt><trkpt lat="45.4089086" lon="10.5395591"><ele>133.0</ele><time>2026-04-24T17:02:06.769Z</time></trkpt><trkpt lat="45.4088783" lon="10.5397402"><ele>133.0</ele><time>2026-04-24T17:02:14.771Z</time></trkpt><trkpt lat="45.4088471" lon="10.5399084"><ele>133.0</ele><time>2026-04-24T17:02:27.774Z</time></trkpt><trkpt lat="45.4089135" lon="10.5398149"><ele>133.0</ele><time>2026-04-24T17:03:28.771Z</time></trkpt><trkpt lat="45.4089438" lon="10.5396896"><ele>133.0</ele><time>2026-04-24T17:03:36.771Z</time></trkpt><trkpt lat="45.4090314" lon="10.5396409"><ele>133.0</ele><time>2026-04-24T17:05:27.779Z</time></trkpt><trkpt lat="45.4089644" lon="10.5397253"><ele>133.0</ele><time>2026-04-24T17:05:51.777Z</time></trkpt><trkpt lat="45.4088957" lon="10.5398228"><ele>130.75</ele><time>2026-04-24T17:06:17.781Z</time></trkpt><trkpt lat="45.4087707" lon="10.5400511"><ele>128.5</ele><time>2026-04-24T17:06:37.774Z</time></trkpt><trkpt lat="45.4087473" lon="10.5398636"><ele>126.25</ele><time>2026-04-24T17:06:47.777Z</time></trkpt><trkpt lat="45.4087884" lon="10.5397184"><ele>124.0</ele><time>2026-04-24T17:07:08.77Z</time></trkpt><trkpt lat="45.4087594" lon="10.5396333"><ele>123.50000000000001</ele><time>2026-04-24T17:07:11.776Z</time></trkpt><trkpt lat="45.4088052" lon="10.5395433"><ele>123.0</ele><time>2026-04-24T17:07:18.77Z</time></trkpt><trkpt lat="45.4089164" lon="10.5395015"><ele>122.5</ele><time>2026-04-24T17:07:30.771Z</time></trkpt><trkpt lat="45.4089751" lon="10.5396384"><ele>122.0</ele><time>2026-04-24T17:07:56.778Z</time></trkpt><trkpt lat="45.4089435" lon="10.5397165"><ele>121.50000000000001</ele><time>2026-04-24T17:08:00.782Z</time></trkpt><trkpt lat="45.4088634" lon="10.5397265"><ele>121.0</ele><time>2026-04-24T17:09:41.775Z</time></trkpt><trkpt lat="45.4089486" lon="10.5397247"><ele>121.75</ele><time>2026-04-24T17:10:51.772Z</time></trkpt><trkpt lat="45.4090364" lon="10.5395897"><ele>122.5</ele><time>2026-04-24T17:11:40.77Z</time></trkpt><trkpt lat="45.4089771" lon="10.5396687"><ele>123.25</ele><time>2026-04-24T17:12:29.772Z</time></trkpt><trkpt lat="45.408913" lon="10.5397619"><ele>124.0</ele><time>2026-04-24T17:12:33.774Z</time></trkpt><trkpt lat="45.4088225" lon="10.5399573"><ele>124.00000000000001</ele><time>2026-04-24T17:12:53.773Z</time></trkpt><trkpt lat="45.4087757" lon="10.5400373"><ele>124.0</ele><time>2026-04-24T17:12:54.776Z</time></trkpt><trkpt lat="45.4088567" lon="10.5399978"><ele>124.0</ele><time>2026-04-24T17:13:03.773Z</time></trkpt><trkpt lat="45.4089285" lon="10.5398924"><ele>124.0</ele><time>2026-04-24T17:13:11.777Z</time></trkpt><trkpt lat="45.4088798" lon="10.5399608"><ele>124.00000000000001</ele><time>2026-04-24T17:13:46.772Z</time></trkpt><trkpt lat="45.4088228" lon="10.5400101"><ele>124.0</ele><time>2026-04-24T17:13:48.768Z</time></trkpt><trkpt lat="45.4086711" lon="10.5401814"><ele>124.0</ele><time>2026-04-24T17:14:47.772Z</time></trkpt><trkpt lat="45.4085751" lon="10.5402963"><ele>124.0</ele><time>2026-04-24T17:14:48.773Z</time></trkpt><trkpt lat="45.4086153" lon="10.5402121"><ele>124.0</ele><time>2026-04-24T17:14:59.782Z</time></trkpt><trkpt lat="45.4087285" lon="10.5400885"><ele>124.0</ele><time>2026-04-24T17:15:02.771Z</time></trkpt><trkpt lat="45.4088242" lon="10.5399739"><ele>125.50000000000001</ele><time>2026-04-24T17:15:04.77Z</time></trkpt><trkpt lat="45.4089032" lon="10.5398899"><ele>127.0</ele><time>2026-04-24T17:15:06.775Z</time></trkpt><trkpt lat="45.408977" lon="10.5398163"><ele>128.5</ele><time>2026-04-24T17:15:54.774Z</time></trkpt><trkpt lat="45.4090496" lon="10.5397199"><ele>130.0</ele><time>2026-04-24T17:15:56.774Z</time></trkpt><trkpt lat="45.4090997" lon="10.5396304"><ele>131.5</ele><time>2026-04-24T17:16:35.771Z</time></trkpt><trkpt lat="45.4090576" lon="10.5397097"><ele>133.0</ele><time>2026-04-24T17:16:49.774Z</time></trkpt><trkpt lat="45.4089729" lon="10.5398002"><ele>133.0</ele><time>2026-04-24T17:18:33.777Z</time></trkpt><trkpt lat="45.408934" lon="10.5399261"><ele>133.0</ele><time>2026-04-24T17:18:44.773Z</time></trkpt><trkpt lat="45.4089035" lon="10.5400047"><ele>133.0</ele><time>2026-04-24T17:18:51.771Z</time></trkpt><trkpt lat="45.4089755" lon="10.5398858"><ele>133.0</ele><time>2026-04-24T17:19:02.779Z</time></trkpt><trkpt lat="45.4090623" lon="10.5397665"><ele>133.0</ele><time>2026-04-24T17:19:21.776Z</time></trkpt><trkpt lat="45.4091019" lon="10.5396749"><ele>133.0</ele><time>2026-04-24T17:19:28.776Z</time></trkpt><trkpt lat="45.4090387" lon="10.539675"><ele>133.0</ele><time>2026-04-24T17:20:14.771Z</time></trkpt><trkpt lat="45.4089737" lon="10.5397667"><ele>133.0</ele><time>2026-04-24T17:20:25.776Z</time></trkpt><trkpt lat="45.408867" lon="10.5398755"><ele>133.0</ele><time>2026-04-24T17:20:52.78Z</time></trkpt><trkpt lat="45.40879" lon="10.5399463"><ele>133.0</ele><time>2026-04-24T17:21:06.773Z</time></trkpt><trkpt lat="45.4087054" lon="10.5400764"><ele>133.0</ele><time>2026-04-24T17:21:17.777Z</time></trkpt><trkpt lat="45.4087856" lon="10.5400219"><ele>133.0</ele><time>2026-04-24T17:22:21.768Z</time></trkpt><trkpt lat="45.4089302" lon="10.5398781"><ele>133.0</ele><time>2026-04-24T17:22:39.775Z</time></trkpt><trkpt lat="45.4090228" lon="10.5397706"><ele>133.0</ele><time>2026-04-24T17:22:41.77Z</time></trkpt><trkpt lat="45.409103" lon="10.5396863"><ele>133.0</ele><time>2026-04-24T17:22:57.769Z</time></trkpt><trkpt lat="45.4090559" lon="10.539579"><ele>133.0</ele><time>2026-04-24T17:23:08.775Z</time></trkpt><trkpt lat="45.4091278" lon="10.5395091"><ele>133.0</ele><time>2026-04-24T17:23:28.776Z</time></trkpt><trkpt lat="45.4090714" lon="10.5394372"><ele>133.0</ele><time>2026-04-24T17:24:05.774Z</time></trkpt><trkpt lat="45.4090271" lon="10.5393579"><ele>133.0</ele><time>2026-04-24T17:24:10.77Z</time></trkpt><trkpt lat="45.4091132" lon="10.5393685"><ele>133.0</ele><time>2026-04-24T17:24:21.773Z</time></trkpt><trkpt lat="45.4091377" lon="10.539473"><ele>133.0</ele><time>2026-04-24T17:25:02.778Z</time></trkpt><trkpt lat="45.4090603" lon="10.5395329"><ele>133.0</ele><time>2026-04-24T17:25:04.773Z</time></trkpt><trkpt lat="45.4090109" lon="10.5395891"><ele>133.0</ele><time>2026-04-24T17:26:08.779Z</time></trkpt><trkpt lat="45.4089428" lon="10.5396664"><ele>133.0</ele><time>2026-04-24T17:26:30.77Z</time></trkpt><trkpt lat="45.4090083" lon="10.5396666"><ele>133.0</ele><time>2026-04-24T17:26:49.779Z</time></trkpt><trkpt lat="45.4089454" lon="10.5396842"><ele>133.0</ele><time>2026-04-24T17:28:01.769Z</time></trkpt><trkpt lat="45.4089877" lon="10.5396077"><ele>133.0</ele><time>2026-04-24T17:28:14.777Z</time></trkpt><trkpt lat="45.4089884" lon="10.5394732"><ele>133.0</ele><time>2026-04-24T17:28:47.772Z</time></trkpt><trkpt lat="45.4089421" lon="10.5395546"><ele>133.0</ele><time>2026-04-24T17:28:55.778Z</time></trkpt><trkpt lat="45.4090019" lon="10.5393893"><ele>133.0</ele><time>2026-04-24T17:29:27.771Z</time></trkpt><trkpt lat="45.4090939" lon="10.5393534"><ele>133.0</ele><time>2026-04-24T17:29:41.781Z</time></trkpt><trkpt lat="45.4090727" lon="10.5395327"><ele>133.0</ele><time>2026-04-24T17:29:59.775Z</time></trkpt><trkpt lat="45.4090484" lon="10.5396537"><ele>133.0</ele><time>2026-04-24T17:30:52.767Z</time></trkpt><trkpt lat="45.4090323" lon="10.5397525"><ele>133.0</ele><time>2026-04-24T17:30:56.779Z</time></trkpt><trkpt lat="45.4089419" lon="10.5398711"><ele>133.0</ele><time>2026-04-24T17:32:11.771Z</time></trkpt><trkpt lat="45.4089941" lon="10.539777"><ele>133.0</ele><time>2026-04-24T17:32:25.78Z</time></trkpt><trkpt lat="45.4090468" lon="10.5396557"><ele>133.0</ele><time>2026-04-24T17:32:40.767Z</time></trkpt><trkpt lat="45.40899" lon="10.5397102"><ele>133.0</ele><time>2026-04-24T17:33:03.771Z</time></trkpt><trkpt lat="45.4089474" lon="10.5397782"><ele>133.0</ele><time>2026-04-24T17:33:06.772Z</time></trkpt><trkpt lat="45.4090071" lon="10.5397073"><ele>133.0</ele><time>2026-04-24T17:33:36.768Z</time></trkpt><trkpt lat="45.4090122" lon="10.5395658"><ele>133.0</ele><time>2026-04-24T17:33:44.774Z</time></trkpt><trkpt lat="45.4090733" lon="10.5395"><ele>133.0</ele><time>2026-04-24T17:34:33.773Z</time></trkpt><trkpt lat="45.4091001" lon="10.5393963"><ele>133.0</ele><time>2026-04-24T17:34:34.77Z</time></trkpt><trkpt lat="45.40915" lon="10.5394647"><ele>133.0</ele><time>2026-04-24T17:35:08.773Z</time></trkpt><trkpt lat="45.4091465" lon="10.5395635"><ele>133.0</ele><time>2026-04-24T17:35:32.771Z</time></trkpt><trkpt lat="45.409094" lon="10.5396451"><ele>133.0</ele><time>2026-04-24T17:35:35.779Z</time></trkpt><trkpt lat="45.4090517" lon="10.5397281"><ele>133.0</ele><time>2026-04-24T17:35:44.781Z</time></trkpt><trkpt lat="45.4090965" lon="10.5395668"><ele>133.0</ele><time>2026-04-24T17:36:54.774Z</time></trkpt><trkpt lat="45.4090788" lon="10.5396568"><ele>133.0</ele><time>2026-04-24T17:39:00.775Z</time></trkpt><trkpt lat="45.4090397" lon="10.5397582"><ele>133.0</ele><time>2026-04-24T17:39:44.772Z</time></trkpt><trkpt lat="45.408946" lon="10.5398279"><ele>133.0</ele><time>2026-04-24T17:40:05.773Z</time></trkpt><trkpt lat="45.4088372" lon="10.5398662"><ele>133.0</ele><time>2026-04-24T17:41:31.771Z</time></trkpt><trkpt lat="45.4087673" lon="10.5399569"><ele>133.0</ele><time>2026-04-24T17:42:03.771Z</time></trkpt><trkpt lat="45.4088246" lon="10.5399045"><ele>133.0</ele><time>2026-04-24T17:42:30.774Z</time></trkpt><trkpt lat="45.4088995" lon="10.5398642"><ele>133.0</ele><time>2026-04-24T17:42:45.77Z</time></trkpt><trkpt lat="45.4089895" lon="10.5397793"><ele>133.0</ele><time>2026-04-24T17:43:02.775Z</time></trkpt><trkpt lat="45.4089455" lon="10.5397089"><ele>133.0</ele><time>2026-04-24T17:43:15.771Z</time></trkpt><trkpt lat="45.4089517" lon="10.5395901"><ele>133.0</ele><time>2026-04-24T17:43:32.771Z</time></trkpt><trkpt lat="45.4090248" lon="10.5394722"><ele>133.0</ele><time>2026-04-24T17:43:54.779Z</time></trkpt><trkpt lat="45.4090407" lon="10.5393773"><ele>133.0</ele><time>2026-04-24T17:44:33.773Z</time></trkpt><trkpt lat="45.4090514" lon="10.5394923"><ele>133.0</ele><time>2026-04-24T17:45:23.776Z</time></trkpt><trkpt lat="45.409" lon="10.5396184"><ele>133.0</ele><time>2026-04-24T17:45:37.779Z</time></trkpt><trkpt lat="45.4089525" lon="10.5397984"><ele>133.0</ele><time>2026-04-24T17:46:18.768Z</time></trkpt><trkpt lat="45.4089173" lon="10.5397185"><ele>133.0</ele><time>2026-04-24T17:46:36.783Z</time></trkpt><trkpt lat="45.4089898" lon="10.5397664"><ele>133.0</ele><time>2026-04-24T17:50:42.778Z</time></trkpt><trkpt lat="45.4089167" lon="10.539797"><ele>133.0</ele><time>2026-04-24T17:51:25.77Z</time></trkpt><trkpt lat="45.4088632" lon="10.5398483"><ele>133.0</ele><time>2026-04-24T17:51:28.779Z</time></trkpt><trkpt lat="45.4089217" lon="10.5398039"><ele>133.0</ele><time>2026-04-24T17:51:45.781Z</time></trkpt><trkpt lat="45.4090128" lon="10.5397286"><ele>133.0</ele><time>2026-04-24T17:52:35.782Z</time></trkpt><trkpt lat="45.4089442" lon="10.5397738"><ele>133.0</ele><time>2026-04-24T17:53:24.775Z</time></trkpt><trkpt lat="45.4088543" lon="10.5398638"><ele>133.0</ele><time>2026-04-24T17:54:05.776Z</time></trkpt><trkpt lat="45.4089522" lon="10.5397348"><ele>133.0</ele><time>2026-04-24T17:55:06.778Z</time></trkpt><trkpt lat="45.409024" lon="10.5396242"><ele>133.0</ele><time>2026-04-24T17:55:22.771Z</time></trkpt><trkpt lat="45.408975" lon="10.5396941"><ele>133.0</ele><time>2026-04-24T17:55:39.768Z</time></trkpt><trkpt lat="45.4089231" lon="10.5398054"><ele>133.0</ele><time>2026-04-24T17:56:16.775Z</time></trkpt><trkpt lat="45.408995" lon="10.5397839"><ele>133.0</ele><time>2026-04-24T17:56:27.779Z</time></trkpt><trkpt lat="45.4089398" lon="10.5398509"><ele>133.0</ele><time>2026-04-24T17:57:17.767Z</time></trkpt><trkpt lat="45.4088727" lon="10.539904"><ele>133.0</ele><time>2026-04-24T17:57:34.77Z</time></trkpt><trkpt lat="45.4088012" lon="10.5399431"><ele>133.0</ele><time>2026-04-24T17:57:36.776Z</time></trkpt><trkpt lat="45.4086904" lon="10.5399584"><ele>133.0</ele><time>2026-04-24T17:58:36.774Z</time></trkpt><trkpt lat="45.4087612" lon="10.5399289"><ele>133.0</ele><time>2026-04-24T17:58:55.774Z</time></trkpt><trkpt lat="45.4088524" lon="10.5398707"><ele>133.0</ele><time>2026-04-24T17:59:05.772Z</time></trkpt><trkpt lat="45.4088707" lon="10.5397356"><ele>133.0</ele><time>2026-04-24T17:59:56.774Z</time></trkpt><trkpt lat="45.4089607" lon="10.5396978"><ele>133.0</ele><time>2026-04-24T18:00:25.775Z</time></trkpt><trkpt lat="45.4090367" lon="10.53973"><ele>133.0</ele><time>2026-04-24T18:02:16.78Z</time></trkpt><trkpt lat="45.4089805" lon="10.5398075"><ele>133.0</ele><time>2026-04-24T18:02:17.778Z</time></trkpt><trkpt lat="45.408954" lon="10.5397202"><ele>133.0</ele><time>2026-04-24T18:03:42.773Z</time></trkpt><trkpt lat="45.4090666" lon="10.5397722"><ele>133.0</ele><time>2026-04-24T18:08:58.776Z</time></trkpt><trkpt lat="45.4089902" lon="10.5397807"><ele>133.0</ele><time>2026-04-24T18:11:57.774Z</time></trkpt><trkpt lat="45.4089017" lon="10.5398452"><ele>133.0</ele><time>2026-04-24T18:12:29.781Z</time></trkpt><trkpt lat="45.4089717" lon="10.5398383"><ele>133.0</ele><time>2026-04-24T18:13:43.779Z</time></trkpt><trkpt lat="45.4090492" lon="10.5397878"><ele>133.0</ele><time>2026-04-24T18:13:44.775Z</time></trkpt><trkpt lat="45.409132" lon="10.5398278"><ele>133.0</ele><time>2026-04-24T18:19:19.78Z</time></trkpt><trkpt lat="45.4090569" lon="10.5398265"><ele>133.0</ele><time>2026-04-24T18:21:10.772Z</time></trkpt><trkpt lat="45.4089564" lon="10.5398136"><ele>133.0</ele><time>2026-04-24T18:22:14.769Z</time></trkpt><trkpt lat="45.4090237" lon="10.5397602"><ele>133.0</ele><time>2026-04-24T18:22:28.778Z</time></trkpt><trkpt lat="45.4091302" lon="10.5397759"><ele>133.0</ele><time>2026-04-24T18:22:46.772Z</time></trkpt><trkpt lat="45.4090862" lon="10.5396827"><ele>133.0</ele><time>2026-04-24T18:23:10.777Z</time></trkpt><trkpt lat="45.4090731" lon="10.5397793"><ele>133.0</ele><time>2026-04-24T18:27:05.774Z</time></trkpt><trkpt lat="45.4090016" lon="10.5397756"><ele>133.0</ele><time>2026-04-24T18:32:33.771Z</time></trkpt><trkpt lat="45.4089086" lon="10.5396971"><ele>133.0</ele><time>2026-04-24T18:33:02.775Z</time></trkpt><trkpt lat="45.4089527" lon="10.5397833"><ele>133.0</ele><time>2026-04-24T18:34:41.771Z</time></trkpt><trkpt lat="45.4090607" lon="10.5397842"><ele>133.0</ele><time>2026-04-24T18:34:55.781Z</time></trkpt><trkpt lat="45.4091582" lon="10.5397604"><ele>133.0</ele><time>2026-04-24T18:35:08.768Z</time></trkpt><trkpt lat="45.4092621" lon="10.5397523"><ele>133.0</ele><time>2026-04-24T18:35:26.768Z</time></trkpt><trkpt lat="45.4091851" lon="10.5397559"><ele>133.0</ele><time>2026-04-24T18:35:53.779Z</time></trkpt><trkpt lat="45.4090677" lon="10.5397614"><ele>133.0</ele><time>2026-04-24T18:36:19.782Z</time></trkpt><trkpt lat="45.408937" lon="10.5397668"><ele>133.0</ele><time>2026-04-24T18:36:39.771Z</time></trkpt><trkpt lat="45.408849" lon="10.5397474"><ele>133.0</ele><time>2026-04-24T18:37:38.778Z</time></trkpt><trkpt lat="45.4089023" lon="10.539806"><ele>133.0</ele><time>2026-04-24T18:38:48.771Z</time></trkpt><trkpt lat="45.4089796" lon="10.5398274"><ele>133.0</ele><time>2026-04-24T18:41:00.772Z</time></trkpt><trkpt lat="45.4089116" lon="10.5398327"><ele>133.0</ele><time>2026-04-24T18:44:10.772Z</time></trkpt><trkpt lat="45.4089984" lon="10.5397289"><ele>133.0</ele><time>2026-04-24T18:45:02.772Z</time></trkpt><trkpt lat="45.4089432" lon="10.5397928"><ele>133.0</ele><time>2026-04-24T18:45:46.77Z</time></trkpt><trkpt lat="45.4089198" lon="10.5398765"><ele>133.0</ele><time>2026-04-24T18:46:42.768Z</time></trkpt><trkpt lat="45.4089725" lon="10.5398056"><ele>133.0</ele><time>2026-04-24T18:48:32.773Z</time></trkpt><trkpt lat="45.4090432" lon="10.5396992"><ele>133.0</ele><time>2026-04-24T18:49:44.778Z</time></trkpt><trkpt lat="45.4091586" lon="10.5396461"><ele>133.0</ele><time>2026-04-24T18:51:39.775Z</time></trkpt><trkpt lat="45.4092345" lon="10.5395624"><ele>133.0</ele><time>2026-04-24T18:51:54.776Z</time></trkpt><trkpt lat="45.4091735" lon="10.5395925"><ele>133.0</ele><time>2026-04-24T18:52:14.771Z</time></trkpt><trkpt lat="45.4090815" lon="10.5396138"><ele>133.0</ele><time>2026-04-24T18:52:40.772Z</time></trkpt><trkpt lat="45.4090113" lon="10.5397376"><ele>133.0</ele><time>2026-04-24T18:53:05.764Z</time></trkpt><trkpt lat="45.4089224" lon="10.5398343"><ele>133.0</ele><time>2026-04-24T18:53:58.772Z</time></trkpt><trkpt lat="45.408967" lon="10.5397623"><ele>133.0</ele><time>2026-04-24T18:55:11.773Z</time></trkpt><trkpt lat="45.4090629" lon="10.5397148"><ele>133.0</ele><time>2026-04-24T18:55:20.77Z</time></trkpt><trkpt lat="45.4091548" lon="10.5396748"><ele>133.0</ele><time>2026-04-24T18:55:24.768Z</time></trkpt><trkpt lat="45.4091024" lon="10.5397559"><ele>133.0</ele><time>2026-04-24T18:56:02.778Z</time></trkpt><trkpt lat="45.4090247" lon="10.5398031"><ele>133.0</ele><time>2026-04-24T18:56:08.78Z</time></trkpt><trkpt lat="45.4089636" lon="10.5398489"><ele>133.0</ele><time>2026-04-24T18:56:12.772Z</time></trkpt><trkpt lat="45.4088458" lon="10.5399223"><ele>133.0</ele><time>2026-04-24T18:56:30.769Z</time></trkpt><trkpt lat="45.4089463" lon="10.5399097"><ele>133.0</ele><time>2026-04-24T18:57:42.77Z</time></trkpt><trkpt lat="45.4090056" lon="10.539844"><ele>133.0</ele><time>2026-04-24T18:58:39.771Z</time></trkpt><trkpt lat="45.4090716" lon="10.5398183"><ele>133.0</ele><time>2026-04-24T18:58:43.775Z</time></trkpt><trkpt lat="45.4090994" lon="10.5397065"><ele>133.0</ele><time>2026-04-24T18:58:59.777Z</time></trkpt><trkpt lat="45.4091233" lon="10.539561"><ele>133.0</ele><time>2026-04-24T18:59:21.771Z</time></trkpt><trkpt lat="45.4090587" lon="10.5395591"><ele>133.0</ele><time>2026-04-24T18:59:59.781Z</time></trkpt><trkpt lat="45.4092126" lon="10.5395069"><ele>133.0</ele><time>2026-04-24T19:00:42.769Z</time></trkpt><trkpt lat="45.4092501" lon="10.5396003"><ele>133.0</ele><time>2026-04-24T19:01:11.774Z</time></trkpt><trkpt lat="45.4092002" lon="10.5395415"><ele>133.0</ele><time>2026-04-24T19:02:01.77Z</time></trkpt><trkpt lat="45.4090834" lon="10.539465"><ele>133.0</ele><time>2026-04-24T19:03:19.777Z</time></trkpt><trkpt lat="45.409065" lon="10.5395579"><ele>133.0</ele><time>2026-04-24T19:04:16.781Z</time></trkpt><trkpt lat="45.4089933" lon="10.5396111"><ele>133.0</ele><time>2026-04-24T19:04:44.772Z</time></trkpt><trkpt lat="45.4090078" lon="10.5397253"><ele>133.0</ele><time>2026-04-24T19:05:14.77Z</time></trkpt><trkpt lat="45.4090955" lon="10.5396839"><ele>133.0</ele><time>2026-04-24T19:06:10.769Z</time></trkpt><trkpt lat="45.4090389" lon="10.539628"><ele>133.0</ele><time>2026-04-24T19:06:25.78Z</time></trkpt><trkpt lat="45.4090724" lon="10.5395057"><ele>133.0</ele><time>2026-04-24T19:06:40.769Z</time></trkpt><trkpt lat="45.4091801" lon="10.5395434"><ele>133.0</ele><time>2026-04-24T19:06:58.779Z</time></trkpt><trkpt lat="45.4092748" lon="10.5395148"><ele>133.0</ele><time>2026-04-24T19:07:21.77Z</time></trkpt><trkpt lat="45.4093541" lon="10.5395454"><ele>133.0</ele><time>2026-04-24T19:08:24.769Z</time></trkpt><trkpt lat="45.4094451" lon="10.5395657"><ele>133.0</ele><time>2026-04-24T19:08:40.769Z</time></trkpt><trkpt lat="45.4093164" lon="10.5395377"><ele>133.0</ele><time>2026-04-24T19:09:04.775Z</time></trkpt><trkpt lat="45.4092624" lon="10.5396098"><ele>133.0</ele><time>2026-04-24T19:09:50.777Z</time></trkpt><trkpt lat="45.4091585" lon="10.5396866"><ele>133.0</ele><time>2026-04-24T19:10:17.772Z</time></trkpt><trkpt lat="45.4090726" lon="10.5397391"><ele>133.0</ele><time>2026-04-24T19:10:25.779Z</time></trkpt><trkpt lat="45.4089898" lon="10.5397654"><ele>133.0</ele><time>2026-04-24T19:12:13.771Z</time></trkpt><trkpt lat="45.4089512" lon="10.5398779"><ele>133.0</ele><time>2026-04-24T19:12:44.768Z</time></trkpt><trkpt lat="45.4089695" lon="10.5397845"><ele>133.0</ele><time>2026-04-24T19:13:17.77Z</time></trkpt><trkpt lat="45.4089291" lon="10.5396439"><ele>133.0</ele><time>2026-04-24T19:13:46.774Z</time></trkpt><trkpt lat="45.4088808" lon="10.5397019"><ele>133.0</ele><time>2026-04-24T19:14:41.773Z</time></trkpt><trkpt lat="45.4088438" lon="10.5398634"><ele>133.0</ele><time>2026-04-24T19:15:15.777Z</time></trkpt><trkpt lat="45.4087667" lon="10.5398915"><ele>133.0</ele><time>2026-04-24T19:15:38.772Z</time></trkpt><trkpt lat="45.4089194" lon="10.5398766"><ele>133.0</ele><time>2026-04-24T19:16:22.778Z</time></trkpt><trkpt lat="45.4089889" lon="10.5398303"><ele>133.0</ele><time>2026-04-24T19:16:45.775Z</time></trkpt><trkpt lat="45.4089482" lon="10.5399248"><ele>133.0</ele><time>2026-04-24T19:18:00.775Z</time></trkpt><trkpt lat="45.4090349" lon="10.5398849"><ele>133.0</ele><time>2026-04-24T19:18:26.768Z</time></trkpt><trkpt lat="45.4089472" lon="10.5398913"><ele>133.0</ele><time>2026-04-24T19:19:26.768Z</time></trkpt><trkpt lat="45.4088795" lon="10.5398783"><ele>133.0</ele><time>2026-04-24T19:20:46.769Z</time></trkpt><trkpt lat="45.4088008" lon="10.5399316"><ele>133.0</ele><time>2026-04-24T19:22:12.77Z</time></trkpt><trkpt lat="45.408696" lon="10.5399609"><ele>133.0</ele><time>2026-04-24T19:22:24.768Z</time></trkpt><trkpt lat="45.4088063" lon="10.5399631"><ele>133.0</ele><time>2026-04-24T19:22:40.77Z</time></trkpt><trkpt lat="45.4089112" lon="10.5398836"><ele>133.0</ele><time>2026-04-24T19:23:51.773Z</time></trkpt><trkpt lat="45.4087895" lon="10.5399277"><ele>133.0</ele><time>2026-04-24T19:24:24.916Z</time></trkpt><trkpt lat="45.4089206" lon="10.5399065"><ele>133.0</ele><time>2026-04-24T19:25:57.765Z</time></trkpt><trkpt lat="45.4089032" lon="10.5397745"><ele>133.0</ele><time>2026-04-24T19:29:09.774Z</time></trkpt><trkpt lat="45.4089637" lon="10.5398055"><ele>133.0</ele><time>2026-04-24T19:30:37.778Z</time></trkpt><trkpt lat="45.4090468" lon="10.5397276"><ele>133.0</ele><time>2026-04-24T19:36:47.769Z</time></trkpt><trkpt lat="45.4089786" lon="10.5397452"><ele>133.0</ele><time>2026-04-24T19:37:32.773Z</time></trkpt><trkpt lat="45.4090403" lon="10.5398038"><ele>133.0</ele><time>2026-04-24T19:37:51.776Z</time></trkpt><trkpt lat="45.4089861" lon="10.5398559"><ele>133.0</ele><time>2026-04-24T19:38:09.766Z</time></trkpt><trkpt lat="45.4090479" lon="10.5398214"><ele>133.0</ele><time>2026-04-24T19:38:34.767Z</time></trkpt><trkpt lat="45.4091049" lon="10.5397337"><ele>133.0</ele><time>2026-04-24T19:39:37.78Z</time></trkpt><trkpt lat="45.4090797" lon="10.5398211"><ele>133.0</ele><time>2026-04-24T19:40:09.769Z</time></trkpt><trkpt lat="45.4091353" lon="10.5397523"><ele>133.0</ele><time>2026-04-24T19:40:46.767Z</time></trkpt><trkpt lat="45.4091927" lon="10.5397052"><ele>133.0</ele><time>2026-04-24T19:40:52.762Z</time></trkpt><trkpt lat="45.4090914" lon="10.5396743"><ele>133.0</ele><time>2026-04-24T19:42:12.772Z</time></trkpt><trkpt lat="45.4091514" lon="10.539623"><ele>133.0</ele><time>2026-04-24T19:42:47.767Z</time></trkpt><trkpt lat="45.4090979" lon="10.5397107"><ele>133.0</ele><time>2026-04-24T19:42:50.778Z</time></trkpt><trkpt lat="45.4090462" lon="10.5397869"><ele>133.0</ele><time>2026-04-24T19:42:52.769Z</time></trkpt><trkpt lat="45.4090875" lon="10.5397041"><ele>133.0</ele><time>2026-04-24T19:43:02.769Z</time></trkpt><trkpt lat="45.4091385" lon="10.539631"><ele>133.0</ele><time>2026-04-24T19:43:06.77Z</time></trkpt><trkpt lat="45.4091293" lon="10.5397282"><ele>133.0</ele><time>2026-04-24T19:43:29.767Z</time></trkpt><trkpt lat="45.409076" lon="10.5398061"><ele>133.0</ele><time>2026-04-24T19:43:32.766Z</time></trkpt><trkpt lat="45.4089974" lon="10.5398342"><ele>133.0</ele><time>2026-04-24T19:44:46.776Z</time></trkpt><trkpt lat="45.4090217" lon="10.5397505"><ele>133.0</ele><time>2026-04-24T19:45:19.774Z</time></trkpt><trkpt lat="45.4090664" lon="10.5396836"><ele>133.0</ele><time>2026-04-24T19:45:21.763Z</time></trkpt><trkpt lat="45.4091544" lon="10.539579"><ele>133.0</ele><time>2026-04-24T19:45:27.772Z</time></trkpt><trkpt lat="45.4091296" lon="10.5396805"><ele>133.0</ele><time>2026-04-24T19:45:47.767Z</time></trkpt><trkpt lat="45.4090579" lon="10.5397772"><ele>133.0</ele><time>2026-04-24T19:46:15.772Z</time></trkpt><trkpt lat="45.408974" lon="10.5398629"><ele>133.0</ele><time>2026-04-24T19:47:22.77Z</time></trkpt><trkpt lat="45.4090856" lon="10.5397959"><ele>133.0</ele><time>2026-04-24T19:48:15.766Z</time></trkpt><trkpt lat="45.4090337" lon="10.5397411"><ele>133.0</ele><time>2026-04-24T19:49:06.77Z</time></trkpt><trkpt lat="45.4089653" lon="10.5397979"><ele>133.0</ele><time>2026-04-24T19:49:22.769Z</time></trkpt><trkpt lat="45.4090537" lon="10.5397283"><ele>133.0</ele><time>2026-04-24T19:49:43.768Z</time></trkpt><trkpt lat="45.4090064" lon="10.5397993"><ele>133.0</ele><time>2026-04-24T19:50:16.768Z</time></trkpt><trkpt lat="45.408935" lon="10.5398205"><ele>133.0</ele><time>2026-04-24T19:54:46.762Z</time></trkpt><trkpt lat="45.4089887" lon="10.539731"><ele>133.0</ele><time>2026-04-24T19:55:34.766Z</time></trkpt><trkpt lat="45.409023" lon="10.5398283"><ele>133.0</ele><time>2026-04-24T19:56:04.766Z</time></trkpt><trkpt lat="45.409025" lon="10.5397367"><ele>133.0</ele><time>2026-04-24T19:58:50.768Z</time></trkpt><trkpt lat="45.4090124" lon="10.5396297"><ele>133.0</ele><time>2026-04-24T19:58:51.769Z</time></trkpt><trkpt lat="45.4091297" lon="10.5396678"><ele>133.0</ele><time>2026-04-24T20:01:45.773Z</time></trkpt><trkpt lat="45.4090718" lon="10.539727"><ele>133.0</ele><time>2026-04-24T20:03:23.763Z</time></trkpt><trkpt lat="45.4091809" lon="10.5396896"><ele>133.0</ele><time>2026-04-24T20:05:18.767Z</time></trkpt><trkpt lat="45.4091941" lon="10.5395714"><ele>133.0</ele><time>2026-04-24T20:05:45.771Z</time></trkpt><trkpt lat="45.4091317" lon="10.5394783"><ele>133.0</ele><time>2026-04-24T20:07:08.772Z</time></trkpt><trkpt lat="45.4090783" lon="10.5395542"><ele>133.0</ele><time>2026-04-24T20:07:09.765Z</time></trkpt><trkpt lat="45.4090185" lon="10.5396573"><ele>133.0</ele><time>2026-04-24T20:07:26.774Z</time></trkpt><trkpt lat="45.4089165" lon="10.5398409"><ele>133.0</ele><time>2026-04-24T20:08:26.766Z</time></trkpt><trkpt lat="45.4088697" lon="10.5399212"><ele>133.0</ele><time>2026-04-24T20:08:28.773Z</time></trkpt><trkpt lat="45.4087688" lon="10.5400288"><ele>133.0</ele><time>2026-04-24T20:08:32.769Z</time></trkpt><trkpt lat="45.4088181" lon="10.539965"><ele>133.0</ele><time>2026-04-24T20:08:47.78Z</time></trkpt><trkpt lat="45.4087643" lon="10.540049"><ele>133.0</ele><time>2026-04-24T20:09:10.773Z</time></trkpt><trkpt lat="45.4088272" lon="10.5400303"><ele>133.0</ele><time>2026-04-24T20:09:22.765Z</time></trkpt><trkpt lat="45.4088976" lon="10.5399248"><ele>133.0</ele><time>2026-04-24T20:09:36.773Z</time></trkpt><trkpt lat="45.4089825" lon="10.5398223"><ele>133.0</ele><time>2026-04-24T20:09:51.772Z</time></trkpt><trkpt lat="45.4090643" lon="10.5397013"><ele>133.0</ele><time>2026-04-24T20:10:03.766Z</time></trkpt><trkpt lat="45.4091205" lon="10.5395618"><ele>133.0</ele><time>2026-04-24T20:10:15.775Z</time></trkpt><trkpt lat="45.4091628" lon="10.539643"><ele>133.0</ele><time>2026-04-24T20:10:38.774Z</time></trkpt><trkpt lat="45.4090724" lon="10.5396146"><ele>133.0</ele><time>2026-04-24T20:11:02.768Z</time></trkpt><trkpt lat="45.4090356" lon="10.5397138"><ele>133.0</ele><time>2026-04-24T20:12:40.772Z</time></trkpt><trkpt lat="45.408989" lon="10.5398199"><ele>133.0</ele><time>2026-04-24T20:12:43.773Z</time></trkpt><trkpt lat="45.4089113" lon="10.5399464"><ele>133.0</ele><time>2026-04-24T20:12:49.771Z</time></trkpt><trkpt lat="45.4089585" lon="10.5398835"><ele>133.0</ele><time>2026-04-24T20:13:40.769Z</time></trkpt><trkpt lat="45.4089432" lon="10.5397781"><ele>133.0</ele><time>2026-04-24T20:14:22.765Z</time></trkpt><trkpt lat="45.4090171" lon="10.5396825"><ele>133.0</ele><time>2026-04-24T20:14:42.768Z</time></trkpt><trkpt lat="45.4089593" lon="10.5395861"><ele>133.0</ele><time>2026-04-24T20:14:58.769Z</time></trkpt><trkpt lat="45.4089044" lon="10.5396627"><ele>133.0</ele><time>2026-04-24T20:15:29.77Z</time></trkpt><trkpt lat="45.4089385" lon="10.5397424"><ele>133.0</ele><time>2026-04-24T20:16:11.765Z</time></trkpt><trkpt lat="45.4090247" lon="10.5396658"><ele>133.0</ele><time>2026-04-24T20:16:30.773Z</time></trkpt><trkpt lat="45.4089691" lon="10.5397413"><ele>133.0</ele><time>2026-04-24T20:18:24.773Z</time></trkpt><trkpt lat="45.4089943" lon="10.5396358"><ele>133.0</ele><time>2026-04-24T20:22:26.768Z</time></trkpt><trkpt lat="45.4089346" lon="10.5396852"><ele>133.0</ele><time>2026-04-24T20:23:13.771Z</time></trkpt><trkpt lat="45.4089475" lon="10.5398123"><ele>133.0</ele><time>2026-04-24T20:23:32.767Z</time></trkpt><trkpt lat="45.4089991" lon="10.5397411"><ele>133.0</ele><time>2026-04-24T20:25:03.765Z</time></trkpt><trkpt lat="45.4089348" lon="10.539689"><ele>133.0</ele><time>2026-04-24T20:26:12.763Z</time></trkpt><trkpt lat="45.4089748" lon="10.5397776"><ele>133.0</ele><time>2026-04-24T20:26:41.772Z</time></trkpt><trkpt lat="45.4090533" lon="10.5398732"><ele>133.0</ele><time>2026-04-24T20:27:37.791Z</time></trkpt><trkpt lat="45.4089917" lon="10.5399348"><ele>133.0</ele><time>2026-04-24T20:28:01.772Z</time></trkpt><trkpt lat="45.4089486" lon="10.5398334"><ele>133.0</ele><time>2026-04-24T20:28:46.77Z</time></trkpt><trkpt lat="45.4090132" lon="10.5397696"><ele>133.0</ele><time>2026-04-24T20:29:01.765Z</time></trkpt><trkpt lat="45.4090009" lon="10.5399045"><ele>133.0</ele><time>2026-04-24T20:29:04.767Z</time></trkpt><trkpt lat="45.4090584" lon="10.5398377"><ele>133.0</ele><time>2026-04-24T20:29:21.771Z</time></trkpt><trkpt lat="45.4091349" lon="10.5397094"><ele>133.0</ele><time>2026-04-24T20:29:32.768Z</time></trkpt><trkpt lat="45.4091759" lon="10.5395809"><ele>133.0</ele><time>2026-04-24T20:29:38.771Z</time></trkpt><trkpt lat="45.4091525" lon="10.5396796"><ele>133.0</ele><time>2026-04-24T20:29:50.764Z</time></trkpt><trkpt lat="45.4090366" lon="10.5397615"><ele>133.0</ele><time>2026-04-24T20:30:27.77Z</time></trkpt><trkpt lat="45.4091029" lon="10.5397376"><ele>133.0</ele><time>2026-04-24T20:31:57.772Z</time></trkpt><trkpt lat="45.4090032" lon="10.5398389"><ele>133.0</ele><time>2026-04-24T20:32:26.766Z</time></trkpt><trkpt lat="45.4090582" lon="10.5397131"><ele>133.0</ele><time>2026-04-24T20:34:45.767Z</time></trkpt><trkpt lat="45.408975" lon="10.539687"><ele>133.0</ele><time>2026-04-24T20:35:48.764Z</time></trkpt><trkpt lat="45.4089135" lon="10.5397099"><ele>133.0</ele><time>2026-04-24T20:35:51.768Z</time></trkpt><trkpt lat="45.4088343" lon="10.5397429"><ele>133.0</ele><time>2026-04-24T20:35:59.766Z</time></trkpt><trkpt lat="45.408915" lon="10.5397364"><ele>133.0</ele><time>2026-04-24T20:36:27.77Z</time></trkpt><trkpt lat="45.4090002" lon="10.5397193"><ele>133.0</ele><time>2026-04-24T20:37:26.761Z</time></trkpt><trkpt lat="45.408925" lon="10.5397693"><ele>133.0</ele><time>2026-04-24T20:37:53.77Z</time></trkpt><trkpt lat="45.4088315" lon="10.5398518"><ele>133.0</ele><time>2026-04-24T20:38:02.771Z</time></trkpt><trkpt lat="45.4089026" lon="10.5397411"><ele>133.0</ele><time>2026-04-24T20:43:14.77Z</time></trkpt><trkpt lat="45.408837" lon="10.5398102"><ele>133.0</ele><time>2026-04-24T20:43:47.774Z</time></trkpt><trkpt lat="45.4089166" lon="10.5397431"><ele>133.0</ele><time>2026-04-24T20:47:12.762Z</time></trkpt><trkpt lat="45.4090062" lon="10.5396888"><ele>133.0</ele><time>2026-04-24T20:47:30.765Z</time></trkpt><trkpt lat="45.4090882" lon="10.5397939"><ele>133.0</ele><time>2026-04-24T20:48:16.77Z</time></trkpt><trkpt lat="45.4090082" lon="10.5398053"><ele>133.0</ele><time>2026-04-24T20:49:08.762Z</time></trkpt><trkpt lat="45.4090537" lon="10.5397311"><ele>133.0</ele><time>2026-04-24T20:50:27.766Z</time></trkpt><trkpt lat="45.4091708" lon="10.539708"><ele>133.0</ele><time>2026-04-24T20:50:44.761Z</time></trkpt><trkpt lat="45.4090779" lon="10.5397297"><ele>133.0</ele><time>2026-04-24T20:50:52.765Z</time></trkpt><trkpt lat="45.4089942" lon="10.5397571"><ele>133.0</ele><time>2026-04-24T20:50:55.772Z</time></trkpt><trkpt lat="45.4089182" lon="10.5398011"><ele>133.0</ele><time>2026-04-24T20:50:58.766Z</time></trkpt><trkpt lat="45.4089949" lon="10.5398035"><ele>133.0</ele><time>2026-04-24T20:51:08.767Z</time></trkpt><trkpt lat="45.409134" lon="10.5397508"><ele>133.0</ele><time>2026-04-24T20:51:10.766Z</time></trkpt><trkpt lat="45.4093131" lon="10.5396704"><ele>133.0</ele><time>2026-04-24T20:51:12.763Z</time></trkpt><trkpt lat="45.4094407" lon="10.5396136"><ele>133.0</ele><time>2026-04-24T20:51:14.762Z</time></trkpt><trkpt lat="45.4093717" lon="10.5396185"><ele>133.0</ele><time>2026-04-24T20:51:30.763Z</time></trkpt><trkpt lat="45.4092598" lon="10.5396659"><ele>133.0</ele><time>2026-04-24T20:51:33.765Z</time></trkpt><trkpt lat="45.40919" lon="10.5397007"><ele>133.0</ele><time>2026-04-24T20:51:36.762Z</time></trkpt><trkpt lat="45.4092642" lon="10.5396755"><ele>133.0</ele><time>2026-04-24T20:52:20.769Z</time></trkpt><trkpt lat="45.4093505" lon="10.5396268"><ele>133.0</ele><time>2026-04-24T20:52:26.761Z</time></trkpt><trkpt lat="45.4092243" lon="10.5396541"><ele>133.0</ele><time>2026-04-24T20:52:38.772Z</time></trkpt><trkpt lat="45.4091415" lon="10.5396665"><ele>133.0</ele><time>2026-04-24T20:52:41.763Z</time></trkpt><trkpt lat="45.4090384" lon="10.5397961"><ele>133.0</ele><time>2026-04-24T20:53:32.764Z</time></trkpt><trkpt lat="45.4089613" lon="10.5399204"><ele>133.0</ele><time>2026-04-24T20:54:04.765Z</time></trkpt><trkpt lat="45.4089201" lon="10.539852"><ele>133.0</ele><time>2026-04-24T20:54:28.763Z</time></trkpt><trkpt lat="45.4089735" lon="10.5397725"><ele>133.0</ele><time>2026-04-24T20:54:36.764Z</time></trkpt><trkpt lat="45.4090459" lon="10.5397699"><ele>133.0</ele><time>2026-04-24T20:54:48.761Z</time></trkpt><trkpt lat="45.4089866" lon="10.5397177"><ele>133.0</ele><time>2026-04-24T20:55:16.757Z</time></trkpt><trkpt lat="45.4088512" lon="10.5397437"><ele>133.0</ele><time>2026-04-24T20:55:36.769Z</time></trkpt><trkpt lat="45.4087873" lon="10.5397864"><ele>133.0</ele><time>2026-04-24T20:55:40.761Z</time></trkpt><trkpt lat="45.4086705" lon="10.5398318"><ele>133.0</ele><time>2026-04-24T20:56:30.763Z</time></trkpt><trkpt lat="45.4087358" lon="10.5397802"><ele>133.0</ele><time>2026-04-24T20:57:17.76Z</time></trkpt><trkpt lat="45.4088132" lon="10.5398006"><ele>133.0</ele><time>2026-04-24T20:58:03.77Z</time></trkpt><trkpt lat="45.4089239" lon="10.5398325"><ele>133.0</ele><time>2026-04-24T20:58:09.763Z</time></trkpt><trkpt lat="45.40886" lon="10.5397978"><ele>133.0</ele><time>2026-04-24T21:00:10.763Z</time></trkpt><trkpt lat="45.4088667" lon="10.5396732"><ele>133.0</ele><time>2026-04-24T21:00:29.768Z</time></trkpt><trkpt lat="45.4088853" lon="10.5395585"><ele>133.0</ele><time>2026-04-24T21:00:44.755Z</time></trkpt><trkpt lat="45.4088812" lon="10.5394433"><ele>133.0</ele><time>2026-04-24T21:00:46.767Z</time></trkpt><trkpt lat="45.4088423" lon="10.5393296"><ele>133.0</ele><time>2026-04-24T21:01:11.769Z</time></trkpt><trkpt lat="45.4088513" lon="10.5394285"><ele>133.0</ele><time>2026-04-24T21:01:28.765Z</time></trkpt><trkpt lat="45.4088531" lon="10.539535"><ele>133.0</ele><time>2026-04-24T21:01:36.767Z</time></trkpt><trkpt lat="45.4089078" lon="10.5396963"><ele>133.0</ele><time>2026-04-24T21:01:42.768Z</time></trkpt><trkpt lat="45.4089673" lon="10.5396589"><ele>133.0</ele><time>2026-04-24T21:02:12.763Z</time></trkpt><trkpt lat="45.4089627" lon="10.5395594"><ele>133.0</ele><time>2026-04-24T21:02:15.769Z</time></trkpt><trkpt lat="45.4089285" lon="10.539452"><ele>133.0</ele><time>2026-04-24T21:02:24.768Z</time></trkpt><trkpt lat="45.4089217" lon="10.539613"><ele>133.0</ele><time>2026-04-24T21:02:43.764Z</time></trkpt><trkpt lat="45.4089496" lon="10.5397801"><ele>133.0</ele><time>2026-04-24T21:02:48.765Z</time></trkpt><trkpt lat="45.4088862" lon="10.5398524"><ele>133.0</ele><time>2026-04-24T21:03:15.77Z</time></trkpt><trkpt lat="45.40883" lon="10.5397778"><ele>133.0</ele><time>2026-04-24T21:04:31.767Z</time></trkpt><trkpt lat="45.4088697" lon="10.539865"><ele>133.0</ele><time>2026-04-24T21:05:40.766Z</time></trkpt><trkpt lat="45.4089527" lon="10.5398918"><ele>133.0</ele><time>2026-04-24T21:06:16.763Z</time></trkpt><trkpt lat="45.4090382" lon="10.539892"><ele>133.0</ele><time>2026-04-24T21:06:21.773Z</time></trkpt><trkpt lat="45.408986" lon="10.5398411"><ele>133.0</ele><time>2026-04-24T21:07:09.766Z</time></trkpt><trkpt lat="45.4088675" lon="10.5398092"><ele>133.0</ele><time>2026-04-24T21:08:47.77Z</time></trkpt><trkpt lat="45.4087867" lon="10.5398177"><ele>133.0</ele><time>2026-04-24T21:08:50.764Z</time></trkpt><trkpt lat="45.4088821" lon="10.5398304"><ele>133.0</ele><time>2026-04-24T21:09:02.766Z</time></trkpt><trkpt lat="45.4088022" lon="10.5397896"><ele>133.0</ele><time>2026-04-24T21:09:30.757Z</time></trkpt><trkpt lat="45.4088723" lon="10.5397297"><ele>133.0</ele><time>2026-04-24T21:10:49.768Z</time></trkpt><trkpt lat="45.408796" lon="10.5396408"><ele>133.0</ele><time>2026-04-24T21:11:39.768Z</time></trkpt><trkpt lat="45.408865" lon="10.5396981"><ele>133.0</ele><time>2026-04-24T21:12:09.763Z</time></trkpt><trkpt lat="45.4088275" lon="10.5398015"><ele>133.0</ele><time>2026-04-24T21:12:27.766Z</time></trkpt><trkpt lat="45.408745" lon="10.5397995"><ele>133.0</ele><time>2026-04-24T21:12:50.763Z</time></trkpt><trkpt lat="45.4088274" lon="10.5398136"><ele>133.0</ele><time>2026-04-24T21:13:55.767Z</time></trkpt><trkpt lat="45.4089281" lon="10.5398444"><ele>133.0</ele><time>2026-04-24T21:14:00.761Z</time></trkpt><trkpt lat="45.4090119" lon="10.5398487"><ele>133.0</ele><time>2026-04-24T21:14:03.767Z</time></trkpt><trkpt lat="45.4090937" lon="10.5398755"><ele>133.0</ele><time>2026-04-24T21:14:10.768Z</time></trkpt><trkpt lat="45.4090271" lon="10.5398874"><ele>133.0</ele><time>2026-04-24T21:14:12.766Z</time></trkpt><trkpt lat="45.4090658" lon="10.5397958"><ele>133.0</ele><time>2026-04-24T21:14:40.759Z</time></trkpt><trkpt lat="45.4090238" lon="10.5398637"><ele>133.0</ele><time>2026-04-24T21:15:05.759Z</time></trkpt><trkpt lat="45.408904" lon="10.5398774"><ele>133.0</ele><time>2026-04-24T21:15:12.759Z</time></trkpt><trkpt lat="45.4089111" lon="10.5397775"><ele>133.0</ele><time>2026-04-24T21:15:29.769Z</time></trkpt><trkpt lat="45.4088839" lon="10.5396951"><ele>133.0</ele><time>2026-04-24T21:15:37.76Z</time></trkpt><trkpt lat="45.408807" lon="10.5396593"><ele>133.0</ele><time>2026-04-24T21:15:44.763Z</time></trkpt><trkpt lat="45.4086991" lon="10.5396294"><ele>133.0</ele><time>2026-04-24T21:16:29.759Z</time></trkpt><trkpt lat="45.4088111" lon="10.5396181"><ele>133.0</ele><time>2026-04-24T21:16:47.763Z</time></trkpt><trkpt lat="45.4088844" lon="10.5396813"><ele>133.0</ele><time>2026-04-24T21:17:00.759Z</time></trkpt><trkpt lat="45.4088112" lon="10.5396963"><ele>133.0</ele><time>2026-04-24T21:17:28.768Z</time></trkpt><trkpt lat="45.4087136" lon="10.5396808"><ele>133.0</ele><time>2026-04-24T21:17:32.762Z</time></trkpt><trkpt lat="45.4086233" lon="10.5397032"><ele>133.0</ele><time>2026-04-24T21:17:47.759Z</time></trkpt><trkpt lat="45.4087221" lon="10.5398097"><ele>133.0</ele><time>2026-04-24T21:19:14.764Z</time></trkpt><trkpt lat="45.4087833" lon="10.5398562"><ele>133.0</ele><time>2026-04-24T21:19:20.77Z</time></trkpt><trkpt lat="45.4088947" lon="10.5398029"><ele>133.0</ele><time>2026-04-24T21:20:09.766Z</time></trkpt><trkpt lat="45.4088062" lon="10.5398126"><ele>133.0</ele><time>2026-04-24T21:21:10.766Z</time></trkpt><trkpt lat="45.4088762" lon="10.5398465"><ele>133.0</ele><time>2026-04-24T21:21:34.769Z</time></trkpt><trkpt lat="45.4088248" lon="10.5397854"><ele>133.0</ele><time>2026-04-24T21:22:20.765Z</time></trkpt><trkpt lat="45.4089137" lon="10.5398582"><ele>133.0</ele><time>2026-04-24T21:23:26.774Z</time></trkpt><trkpt lat="45.4088565" lon="10.5397906"><ele>133.0</ele><time>2026-04-24T21:23:52.774Z</time></trkpt><trkpt lat="45.4089319" lon="10.5398099"><ele>133.0</ele><time>2026-04-24T21:24:12.762Z</time></trkpt><trkpt lat="45.4089928" lon="10.5398391"><ele>133.0</ele><time>2026-04-24T21:24:13.772Z</time></trkpt><trkpt lat="45.4090725" lon="10.5398782"><ele>133.0</ele><time>2026-04-24T21:24:15.769Z</time></trkpt><trkpt lat="45.4090146" lon="10.5398241"><ele>133.0</ele><time>2026-04-24T21:24:25.774Z</time></trkpt><trkpt lat="45.4089435" lon="10.5398053"><ele>133.0</ele><time>2026-04-24T21:24:28.761Z</time></trkpt><trkpt lat="45.409006" lon="10.53979"><ele>133.0</ele><time>2026-04-24T21:25:04.77Z</time></trkpt><trkpt lat="45.4089383" lon="10.5397696"><ele>133.0</ele><time>2026-04-24T21:25:08.764Z</time></trkpt><trkpt lat="45.4088569" lon="10.5397246"><ele>133.0</ele><time>2026-04-24T21:25:20.773Z</time></trkpt><trkpt lat="45.4087724" lon="10.5396779"><ele>133.0</ele><time>2026-04-24T21:26:24.771Z</time></trkpt><trkpt lat="45.4088978" lon="10.5396546"><ele>133.0</ele><time>2026-04-24T21:26:56.769Z</time></trkpt><trkpt lat="45.408819" lon="10.5396092"><ele>133.0</ele><time>2026-04-24T21:27:23.774Z</time></trkpt><trkpt lat="45.4087521" lon="10.539667"><ele>133.0</ele><time>2026-04-24T21:27:41.762Z</time></trkpt><trkpt lat="45.4088388" lon="10.5397561"><ele>133.0</ele><time>2026-04-24T21:27:52.762Z</time></trkpt><trkpt lat="45.4089484" lon="10.5398244"><ele>133.0</ele><time>2026-04-24T21:27:54.77Z</time></trkpt><trkpt lat="45.4088915" lon="10.5398865"><ele>133.0</ele><time>2026-04-24T21:28:39.761Z</time></trkpt><trkpt lat="45.4087701" lon="10.5398695"><ele>133.0</ele><time>2026-04-24T21:28:49.764Z</time></trkpt><trkpt lat="45.4088516" lon="10.5398267"><ele>133.0</ele><time>2026-04-24T21:29:17.766Z</time></trkpt><trkpt lat="45.4087945" lon="10.5397415"><ele>133.0</ele><time>2026-04-24T21:30:22.757Z</time></trkpt><trkpt lat="45.4087283" lon="10.5397225"><ele>133.0</ele><time>2026-04-24T21:30:25.758Z</time></trkpt><trkpt lat="45.4086626" lon="10.5397402"><ele>133.0</ele><time>2026-04-24T21:30:40.769Z</time></trkpt><trkpt lat="45.4085823" lon="10.5397262"><ele>133.0</ele><time>2026-04-24T21:30:54.762Z</time></trkpt><trkpt lat="45.4086535" lon="10.5397492"><ele>133.0</ele><time>2026-04-24T21:30:58.773Z</time></trkpt><trkpt lat="45.4087482" lon="10.5397773"><ele>133.0</ele><time>2026-04-24T21:31:01.762Z</time></trkpt><trkpt lat="45.4088727" lon="10.5398323"><ele>133.0</ele><time>2026-04-24T21:31:05.77Z</time></trkpt><trkpt lat="45.4089463" lon="10.5398654"><ele>133.0</ele><time>2026-04-24T21:31:06.771Z</time></trkpt><trkpt lat="45.4088663" lon="10.5398158"><ele>133.0</ele><time>2026-04-24T21:31:31.773Z</time></trkpt><trkpt lat="45.4090039" lon="10.5398659"><ele>133.0</ele><time>2026-04-24T21:31:41.764Z</time></trkpt><trkpt lat="45.4089176" lon="10.5398064"><ele>133.0</ele><time>2026-04-24T21:32:53.771Z</time></trkpt><trkpt lat="45.4088436" lon="10.5397689"><ele>133.0</ele><time>2026-04-24T21:33:01.769Z</time></trkpt><trkpt lat="45.4089238" lon="10.5397851"><ele>133.0</ele><time>2026-04-24T21:33:10.755Z</time></trkpt><trkpt lat="45.4088373" lon="10.539784"><ele>133.0</ele><time>2026-04-24T21:33:51.761Z</time></trkpt><trkpt lat="45.4089156" lon="10.5398162"><ele>133.0</ele><time>2026-04-24T21:34:10.764Z</time></trkpt><trkpt lat="45.4088573" lon="10.5397791"><ele>133.0</ele><time>2026-04-24T21:34:33.759Z</time></trkpt><trkpt lat="45.40881" lon="10.539675"><ele>133.0</ele><time>2026-04-24T21:36:37.765Z</time></trkpt><trkpt lat="45.4087409" lon="10.5396883"><ele>133.0</ele><time>2026-04-24T21:36:41.76Z</time></trkpt><trkpt lat="45.40874" lon="10.5397884"><ele>133.0</ele><time>2026-04-24T21:38:12.759Z</time></trkpt><trkpt lat="45.4088134" lon="10.5397901"><ele>133.0</ele><time>2026-04-24T21:38:38.762Z</time></trkpt><trkpt lat="45.4087777" lon="10.5396609"><ele>133.0</ele><time>2026-04-24T21:40:02.756Z</time></trkpt><trkpt lat="45.4088795" lon="10.5396902"><ele>133.0</ele><time>2026-04-24T21:40:40.758Z</time></trkpt><trkpt lat="45.4089864" lon="10.5397781"><ele>133.0</ele><time>2026-04-24T21:41:13.761Z</time></trkpt><trkpt lat="45.4090488" lon="10.5398125"><ele>133.0</ele><time>2026-04-24T21:41:22.76Z</time></trkpt><trkpt lat="45.4091316" lon="10.5398302"><ele>133.0</ele><time>2026-04-24T21:41:27.766Z</time></trkpt><trkpt lat="45.4092351" lon="10.5398105"><ele>133.0</ele><time>2026-04-24T21:41:32.769Z</time></trkpt><trkpt lat="45.4091769" lon="10.539863"><ele>133.0</ele><time>2026-04-24T21:41:48.766Z</time></trkpt><trkpt lat="45.4090918" lon="10.5398731"><ele>133.0</ele><time>2026-04-24T21:41:55.767Z</time></trkpt><trkpt lat="45.4089806" lon="10.5397768"><ele>133.0</ele><time>2026-04-24T21:42:52.763Z</time></trkpt><trkpt lat="45.408923" lon="10.5399007"><ele>133.0</ele><time>2026-04-24T21:43:39.766Z</time></trkpt><trkpt lat="45.4088805" lon="10.5398267"><ele>133.0</ele><time>2026-04-24T21:43:57.759Z</time></trkpt><trkpt lat="45.4089529" lon="10.5397861"><ele>133.0</ele><time>2026-04-24T21:44:09.763Z</time></trkpt><trkpt lat="45.4090001" lon="10.5398479"><ele>133.0</ele><time>2026-04-24T21:44:17.765Z</time></trkpt><trkpt lat="45.4088913" lon="10.5398021"><ele>133.0</ele><time>2026-04-24T21:45:47.76Z</time></trkpt><trkpt lat="45.4089379" lon="10.5397097"><ele>133.0</ele><time>2026-04-24T21:47:14.761Z</time></trkpt><trkpt lat="45.4090022" lon="10.5397372"><ele>133.0</ele><time>2026-04-24T21:47:25.768Z</time></trkpt><trkpt lat="45.4089599" lon="10.5398073"><ele>133.0</ele><time>2026-04-24T21:48:17.764Z</time></trkpt><trkpt lat="45.4088577" lon="10.5397661"><ele>133.0</ele><time>2026-04-24T21:48:37.761Z</time></trkpt><trkpt lat="45.408933" lon="10.5398055"><ele>133.0</ele><time>2026-04-24T21:49:18.761Z</time></trkpt><trkpt lat="45.4090099" lon="10.5396653"><ele>133.0</ele><time>2026-04-24T21:50:07.759Z</time></trkpt><trkpt lat="45.4089837" lon="10.5397726"><ele>133.0</ele><time>2026-04-24T21:50:26.768Z</time></trkpt><trkpt lat="45.408905" lon="10.5397867"><ele>133.0</ele><time>2026-04-24T21:52:07.763Z</time></trkpt><trkpt lat="45.4089655" lon="10.5397079"><ele>133.0</ele><time>2026-04-24T21:52:08.76Z</time></trkpt><trkpt lat="45.4089889" lon="10.5396053"><ele>133.0</ele><time>2026-04-24T21:52:11.765Z</time></trkpt><trkpt lat="45.4090238" lon="10.5395015"><ele>133.0</ele><time>2026-04-24T21:52:25.762Z</time></trkpt><trkpt lat="45.4090193" lon="10.5395979"><ele>133.0</ele><time>2026-04-24T21:52:38.768Z</time></trkpt><trkpt lat="45.4089434" lon="10.5395869"><ele>133.0</ele><time>2026-04-24T21:53:37.763Z</time></trkpt><trkpt lat="45.4089621" lon="10.5396956"><ele>133.0</ele><time>2026-04-24T21:54:22.765Z</time></trkpt><trkpt lat="45.4089247" lon="10.5398616"><ele>133.0</ele><time>2026-04-24T21:54:44.761Z</time></trkpt><trkpt lat="45.4089178" lon="10.5397525"><ele>133.0</ele><time>2026-04-24T21:54:54.763Z</time></trkpt><trkpt lat="45.4090123" lon="10.5397382"><ele>133.0</ele><time>2026-04-24T21:55:34.763Z</time></trkpt><trkpt lat="45.4089304" lon="10.5397509"><ele>133.0</ele><time>2026-04-24T21:55:55.762Z</time></trkpt><trkpt lat="45.4089177" lon="10.539839"><ele>133.0</ele><time>2026-04-24T21:59:17.766Z</time></trkpt><trkpt lat="45.4089802" lon="10.5398735"><ele>133.0</ele><time>2026-04-24T21:59:45.761Z</time></trkpt><trkpt lat="45.408935" lon="10.5397876"><ele>133.0</ele><time>2026-04-24T21:59:58.765Z</time></trkpt><trkpt lat="45.4088878" lon="10.5397227"><ele>133.0</ele><time>2026-04-24T22:00:13.765Z</time></trkpt><trkpt lat="45.4088049" lon="10.5396688"><ele>133.0</ele><time>2026-04-24T22:00:18.761Z</time></trkpt><trkpt lat="45.4087541" lon="10.5396133"><ele>133.0</ele><time>2026-04-24T22:00:22.76Z</time></trkpt><trkpt lat="45.4088372" lon="10.5396707"><ele>133.0</ele><time>2026-04-24T22:01:01.768Z</time></trkpt><trkpt lat="45.4089428" lon="10.5397431"><ele>133.0</ele><time>2026-04-24T22:01:09.76Z</time></trkpt><trkpt lat="45.4090316" lon="10.5398731"><ele>133.0</ele><time>2026-04-24T22:01:33.762Z</time></trkpt><trkpt lat="45.4090942" lon="10.5399465"><ele>133.0</ele><time>2026-04-24T22:01:34.765Z</time></trkpt><trkpt lat="45.4090132" lon="10.539879"><ele>133.0</ele><time>2026-04-24T22:01:42.764Z</time></trkpt><trkpt lat="45.4089548" lon="10.5398202"><ele>133.0</ele><time>2026-04-24T22:01:44.762Z</time></trkpt><trkpt lat="45.4088858" lon="10.5397315"><ele>133.0</ele><time>2026-04-24T22:01:46.769Z</time></trkpt><trkpt lat="45.408827" lon="10.5396695"><ele>133.0</ele><time>2026-04-24T22:01:48.766Z</time></trkpt><trkpt lat="45.408772" lon="10.5396128"><ele>133.0</ele><time>2026-04-24T22:01:52.769Z</time></trkpt><trkpt lat="45.4087592" lon="10.5397131"><ele>133.0</ele><time>2026-04-24T22:02:04.755Z</time></trkpt><trkpt lat="45.4088166" lon="10.5397544"><ele>133.0</ele><time>2026-04-24T22:02:09.758Z</time></trkpt><trkpt lat="45.4089308" lon="10.5398061"><ele>133.0</ele><time>2026-04-24T22:02:26.764Z</time></trkpt><trkpt lat="45.4090838" lon="10.5399593"><ele>133.0</ele><time>2026-04-24T22:02:29.765Z</time></trkpt><trkpt lat="45.4090226" lon="10.5398552"><ele>133.0</ele><time>2026-04-24T22:02:42.764Z</time></trkpt><trkpt lat="45.4090199" lon="10.5397505"><ele>133.0</ele><time>2026-04-24T22:02:52.763Z</time></trkpt><trkpt lat="45.4089335" lon="10.5397219"><ele>133.0</ele><time>2026-04-24T22:03:19.763Z</time></trkpt><trkpt lat="45.4089567" lon="10.5398133"><ele>133.0</ele><time>2026-04-24T22:03:52.765Z</time></trkpt><trkpt lat="45.4090401" lon="10.5397919"><ele>133.0</ele><time>2026-04-24T22:04:36.771Z</time></trkpt><trkpt lat="45.409058" lon="10.5398852"><ele>133.0</ele><time>2026-04-24T22:06:27.76Z</time></trkpt><trkpt lat="45.4089921" lon="10.5398201"><ele>133.0</ele><time>2026-04-24T22:06:54.764Z</time></trkpt><trkpt lat="45.4090359" lon="10.5398877"><ele>133.0</ele><time>2026-04-24T22:08:07.77Z</time></trkpt><trkpt lat="45.4090994" lon="10.5398715"><ele>133.0</ele><time>2026-04-24T22:08:11.761Z</time></trkpt><trkpt lat="45.4091659" lon="10.5398387"><ele>133.0</ele><time>2026-04-24T22:08:17.763Z</time></trkpt><trkpt lat="45.4091058" lon="10.5398763"><ele>133.0</ele><time>2026-04-24T22:08:57.764Z</time></trkpt><trkpt lat="45.4089831" lon="10.5398413"><ele>133.0</ele><time>2026-04-24T22:09:24.763Z</time></trkpt><trkpt lat="45.4088956" lon="10.5397866"><ele>133.0</ele><time>2026-04-24T22:09:39.765Z</time></trkpt><trkpt lat="45.4090294" lon="10.5398041"><ele>133.0</ele><time>2026-04-24T22:12:20.774Z</time></trkpt><trkpt lat="45.4090608" lon="10.5397258"><ele>133.0</ele><time>2026-04-24T22:17:13.766Z</time></trkpt><trkpt lat="45.4090024" lon="10.5397815"><ele>133.0</ele><time>2026-04-24T22:17:33.761Z</time></trkpt><trkpt lat="45.4089494" lon="10.5397285"><ele>133.0</ele><time>2026-04-24T22:17:57.816Z</time></trkpt><trkpt lat="45.408849" lon="10.5396131"><ele>133.0</ele><time>2026-04-24T22:18:09.77Z</time></trkpt><trkpt lat="45.4088538" lon="10.5397518"><ele>133.0</ele><time>2026-04-24T22:19:42.763Z</time></trkpt><trkpt lat="45.4089846" lon="10.5397329"><ele>133.0</ele><time>2026-04-24T22:22:06.766Z</time></trkpt><trkpt lat="45.4090746" lon="10.5397874"><ele>133.0</ele><time>2026-04-24T22:23:20.763Z</time></trkpt><trkpt lat="45.4091033" lon="10.5398681"><ele>133.0</ele><time>2026-04-24T22:23:24.763Z</time></trkpt><trkpt lat="45.4090262" lon="10.5398881"><ele>133.0</ele><time>2026-04-24T22:24:14.761Z</time></trkpt><trkpt lat="45.4089571" lon="10.5397795"><ele>133.0</ele><time>2026-04-24T22:25:35.76Z</time></trkpt><trkpt lat="45.4090425" lon="10.5398114"><ele>133.0</ele><time>2026-04-24T22:26:21.767Z</time></trkpt><trkpt lat="45.4089583" lon="10.5398081"><ele>133.0</ele><time>2026-04-24T22:26:50.761Z</time></trkpt><trkpt lat="45.4089899" lon="10.5397209"><ele>133.0</ele><time>2026-04-24T22:27:30.761Z</time></trkpt><trkpt lat="45.409023" lon="10.5395393"><ele>133.0</ele><time>2026-04-24T22:27:42.764Z</time></trkpt><trkpt lat="45.4090934" lon="10.539402"><ele>133.0</ele><time>2026-04-24T22:27:53.758Z</time></trkpt><trkpt lat="45.4090509" lon="10.5394904"><ele>133.0</ele><time>2026-04-24T22:28:09.765Z</time></trkpt><trkpt lat="45.4089976" lon="10.5396436"><ele>133.0</ele><time>2026-04-24T22:28:27.76Z</time></trkpt><trkpt lat="45.4088989" lon="10.5396357"><ele>133.0</ele><time>2026-04-24T22:29:00.766Z</time></trkpt><trkpt lat="45.4088476" lon="10.5395157"><ele>133.0</ele><time>2026-04-24T22:29:41.762Z</time></trkpt><trkpt lat="45.4089041" lon="10.5395946"><ele>133.0</ele><time>2026-04-24T22:30:20.759Z</time></trkpt><trkpt lat="45.4088951" lon="10.5395008"><ele>133.0</ele><time>2026-04-24T22:30:59.773Z</time></trkpt><trkpt lat="45.4089142" lon="10.5395868"><ele>133.0</ele><time>2026-04-24T22:31:17.762Z</time></trkpt><trkpt lat="45.4088699" lon="10.5397301"><ele>133.0</ele><time>2026-04-24T22:32:02.767Z</time></trkpt><trkpt lat="45.408945" lon="10.5397617"><ele>133.0</ele><time>2026-04-24T22:32:42.769Z</time></trkpt><trkpt lat="45.408952" lon="10.5398702"><ele>133.0</ele><time>2026-04-24T22:34:34.76Z</time></trkpt><trkpt lat="45.409037" lon="10.5398783"><ele>133.0</ele><time>2026-04-24T22:36:59.759Z</time></trkpt><trkpt lat="45.4091025" lon="10.5397825"><ele>133.0</ele><time>2026-04-24T22:38:59.769Z</time></trkpt><trkpt lat="45.4090249" lon="10.5397627"><ele>133.0</ele><time>2026-04-24T22:40:32.759Z</time></trkpt><trkpt lat="45.4089686" lon="10.5398917"><ele>133.0</ele><time>2026-04-24T22:40:43.768Z</time></trkpt><trkpt lat="45.4089023" lon="10.5399511"><ele>133.0</ele><time>2026-04-24T22:41:39.759Z</time></trkpt><trkpt lat="45.4088851" lon="10.5398428"><ele>133.0</ele><time>2026-04-24T22:42:02.762Z</time></trkpt><trkpt lat="45.4089715" lon="10.5398098"><ele>133.0</ele><time>2026-04-24T22:42:05.77Z</time></trkpt><trkpt lat="45.4090643" lon="10.5398137"><ele>133.0</ele><time>2026-04-24T22:42:12.767Z</time></trkpt><trkpt lat="45.4089897" lon="10.5397707"><ele>133.0</ele><time>2026-04-24T22:42:28.761Z</time></trkpt><trkpt lat="45.4090832" lon="10.5397613"><ele>133.0</ele><time>2026-04-24T22:43:49.764Z</time></trkpt><trkpt lat="45.4091144" lon="10.5396572"><ele>133.0</ele><time>2026-04-24T22:44:10.765Z</time></trkpt><trkpt lat="45.4091546" lon="10.5395344"><ele>133.0</ele><time>2026-04-24T22:44:14.763Z</time></trkpt><trkpt lat="45.4091933" lon="10.5393909"><ele>133.0</ele><time>2026-04-24T22:44:16.772Z</time></trkpt><trkpt lat="45.4090992" lon="10.5395563"><ele>133.0</ele><time>2026-04-24T22:45:00.767Z</time></trkpt><trkpt lat="45.4090653" lon="10.5397334"><ele>133.0</ele><time>2026-04-24T22:45:40.768Z</time></trkpt><trkpt lat="45.4090618" lon="10.53987"><ele>133.0</ele><time>2026-04-24T22:45:42.761Z</time></trkpt><trkpt lat="45.4090805" lon="10.5399883"><ele>133.0</ele><time>2026-04-24T22:45:46.762Z</time></trkpt><trkpt lat="45.4090125" lon="10.5399552"><ele>133.0</ele><time>2026-04-24T22:45:52.76Z</time></trkpt><trkpt lat="45.4090361" lon="10.5398013"><ele>133.0</ele><time>2026-04-24T22:46:15.759Z</time></trkpt><trkpt lat="45.4089844" lon="10.5397353"><ele>133.0</ele><time>2026-04-24T22:46:19.759Z</time></trkpt><trkpt lat="45.4089227" lon="10.539659"><ele>133.0</ele><time>2026-04-24T22:46:32.76Z</time></trkpt><trkpt lat="45.408827" lon="10.5396307"><ele>133.0</ele><time>2026-04-24T22:46:45.769Z</time></trkpt><trkpt lat="45.4089558" lon="10.539689"><ele>133.0</ele><time>2026-04-24T22:47:14.757Z</time></trkpt><trkpt lat="45.408928" lon="10.5397696"><ele>133.0</ele><time>2026-04-24T22:47:35.763Z</time></trkpt><trkpt lat="45.408864" lon="10.5398194"><ele>133.0</ele><time>2026-04-24T22:48:24.761Z</time></trkpt><trkpt lat="45.4088352" lon="10.5397306"><ele>133.0</ele><time>2026-04-24T22:48:34.76Z</time></trkpt><trkpt lat="45.4088549" lon="10.5395949"><ele>132.20000000000002</ele><time>2026-04-24T22:48:42.759Z</time></trkpt><trkpt lat="45.4089073" lon="10.5394948"><ele>131.4</ele><time>2026-04-24T22:48:44.758Z</time></trkpt><trkpt lat="45.408968" lon="10.5393795"><ele>130.60000000000002</ele><time>2026-04-24T22:48:49.768Z</time></trkpt><trkpt lat="45.4090105" lon="10.5392256"><ele>129.8</ele><time>2026-04-24T22:48:51.758Z</time></trkpt><trkpt lat="45.4091178" lon="10.5392529"><ele>129.0</ele><time>2026-04-24T22:48:58.757Z</time></trkpt><trkpt lat="45.4091883" lon="10.5392667"><ele>129.0</ele><time>2026-04-24T22:49:06.763Z</time></trkpt><trkpt lat="45.4092379" lon="10.5393465"><ele>129.0</ele><time>2026-04-24T22:49:17.751Z</time></trkpt><trkpt lat="45.4093409" lon="10.539692"><ele>129.0</ele><time>2026-04-24T22:49:59.769Z</time></trkpt><trkpt lat="45.4091515" lon="10.5398051"><ele>129.8</ele><time>2026-04-24T22:50:02.77Z</time></trkpt><trkpt lat="45.4090109" lon="10.5398952"><ele>130.60000000000002</ele><time>2026-04-24T22:50:04.759Z</time></trkpt><trkpt lat="45.4089529" lon="10.5398001"><ele>131.4</ele><time>2026-04-24T22:50:09.77Z</time></trkpt><trkpt lat="45.4089665" lon="10.5397005"><ele>132.20000000000002</ele><time>2026-04-24T22:51:05.764Z</time></trkpt><trkpt lat="45.4090761" lon="10.5397493"><ele>133.0</ele><time>2026-04-24T22:51:43.761Z</time></trkpt><trkpt lat="45.4091074" lon="10.5398429"><ele>133.0</ele><time>2026-04-24T22:51:45.768Z</time></trkpt><trkpt lat="45.4090397" lon="10.5398951"><ele>133.0</ele><time>2026-04-24T22:52:06.761Z</time></trkpt><trkpt lat="45.4090978" lon="10.5398365"><ele>133.0</ele><time>2026-04-24T22:52:30.765Z</time></trkpt><trkpt lat="45.4090575" lon="10.5397274"><ele>133.0</ele><time>2026-04-24T22:53:11.761Z</time></trkpt><trkpt lat="45.4089861" lon="10.539762"><ele>133.0</ele><time>2026-04-24T22:53:25.769Z</time></trkpt><trkpt lat="45.409062" lon="10.5397102"><ele>133.0</ele><time>2026-04-24T22:54:04.764Z</time></trkpt><trkpt lat="45.409052" lon="10.5395861"><ele>133.0</ele><time>2026-04-24T22:55:07.761Z</time></trkpt><trkpt lat="45.4090813" lon="10.5396818"><ele>133.0</ele><time>2026-04-24T22:55:36.761Z</time></trkpt><trkpt lat="45.4091727" lon="10.539696"><ele>133.0</ele><time>2026-04-24T22:56:16.767Z</time></trkpt><trkpt lat="45.4091431" lon="10.5397912"><ele>133.0</ele><time>2026-04-24T22:56:23.764Z</time></trkpt><trkpt lat="45.4090051" lon="10.5397876"><ele>133.0</ele><time>2026-04-24T22:57:04.77Z</time></trkpt><trkpt lat="45.408952" lon="10.5397285"><ele>133.0</ele><time>2026-04-24T22:57:27.768Z</time></trkpt><trkpt lat="45.409017" lon="10.5398125"><ele>133.0</ele><time>2026-04-24T22:59:23.762Z</time></trkpt><trkpt lat="45.4090334" lon="10.5399148"><ele>133.0</ele><time>2026-04-24T22:59:45.757Z</time></trkpt><trkpt lat="45.4089416" lon="10.5398728"><ele>133.0</ele><time>2026-04-24T22:59:55.768Z</time></trkpt><trkpt lat="45.4090324" lon="10.5399083"><ele>133.0</ele><time>2026-04-24T23:01:15.763Z</time></trkpt><trkpt lat="45.4089633" lon="10.5397744"><ele>133.0</ele><time>2026-04-24T23:02:44.751Z</time></trkpt><trkpt lat="45.4089139" lon="10.5398463"><ele>133.0</ele><time>2026-04-24T23:03:00.758Z</time></trkpt><trkpt lat="45.4089983" lon="10.5398145"><ele>133.0</ele><time>2026-04-24T23:03:35.765Z</time></trkpt><trkpt lat="45.4090787" lon="10.5397544"><ele>133.0</ele><time>2026-04-24T23:04:23.764Z</time></trkpt><trkpt lat="45.4091748" lon="10.5397379"><ele>133.0</ele><time>2026-04-24T23:05:06.763Z</time></trkpt><trkpt lat="45.4092186" lon="10.539621"><ele>133.0</ele><time>2026-04-24T23:05:54.762Z</time></trkpt><trkpt lat="45.4092228" lon="10.5397726"><ele>133.0</ele><time>2026-04-24T23:06:09.765Z</time></trkpt><trkpt lat="45.4091311" lon="10.5397881"><ele>133.0</ele><time>2026-04-24T23:06:22.76Z</time></trkpt><trkpt lat="45.4090768" lon="10.5397307"><ele>133.0</ele><time>2026-04-24T23:06:39.756Z</time></trkpt><trkpt lat="45.4090951" lon="10.5398772"><ele>133.0</ele><time>2026-04-24T23:07:49.766Z</time></trkpt><trkpt lat="45.4090401" lon="10.5400149"><ele>133.0</ele><time>2026-04-24T23:08:04.76Z</time></trkpt><trkpt lat="45.4089824" lon="10.5399751"><ele>133.0</ele><time>2026-04-24T23:08:56.756Z</time></trkpt><trkpt lat="45.4088982" lon="10.5400395"><ele>133.0</ele><time>2026-04-24T23:09:07.758Z</time></trkpt><trkpt lat="45.4090352" lon="10.5401158"><ele>133.0</ele><time>2026-04-24T23:09:31.76Z</time></trkpt><trkpt lat="45.409106" lon="10.5401231"><ele>133.0</ele><time>2026-04-24T23:09:47.756Z</time></trkpt><trkpt lat="45.4091399" lon="10.5401993"><ele>133.0</ele><time>2026-04-24T23:09:52.756Z</time></trkpt><trkpt lat="45.4090364" lon="10.5401823"><ele>133.0</ele><time>2026-04-24T23:10:07.764Z</time></trkpt><trkpt lat="45.4089801" lon="10.5401272"><ele>133.0</ele><time>2026-04-24T23:10:58.769Z</time></trkpt><trkpt lat="45.4090069" lon="10.5400422"><ele>133.0</ele><time>2026-04-24T23:11:23.761Z</time></trkpt><trkpt lat="45.4089986" lon="10.5398873"><ele>133.0</ele><time>2026-04-24T23:11:38.761Z</time></trkpt><trkpt lat="45.4089103" lon="10.5398701"><ele>133.0</ele><time>2026-04-24T23:12:50.763Z</time></trkpt><trkpt lat="45.4090293" lon="10.5398151"><ele>133.0</ele><time>2026-04-24T23:14:19.771Z</time></trkpt><trkpt lat="45.4089678" lon="10.5398409"><ele>133.0</ele><time>2026-04-24T23:14:46.758Z</time></trkpt><trkpt lat="45.4090377" lon="10.5397892"><ele>133.0</ele><time>2026-04-24T23:16:45.763Z</time></trkpt><trkpt lat="45.4089385" lon="10.539822"><ele>133.0</ele><time>2026-04-24T23:18:12.758Z</time></trkpt><trkpt lat="45.4089944" lon="10.5398659"><ele>133.0</ele><time>2026-04-24T23:18:35.757Z</time></trkpt><trkpt lat="45.4089188" lon="10.5399253"><ele>133.0</ele><time>2026-04-24T23:19:02.762Z</time></trkpt><trkpt lat="45.4089823" lon="10.5398863"><ele>133.0</ele><time>2026-04-24T23:19:31.767Z</time></trkpt><trkpt lat="45.4090293" lon="10.5398199"><ele>133.0</ele><time>2026-04-24T23:26:38.751Z</time></trkpt><trkpt lat="45.408957" lon="10.5398588"><ele>133.0</ele><time>2026-04-24T23:28:11.763Z</time></trkpt><trkpt lat="45.4089772" lon="10.5397649"><ele>133.0</ele><time>2026-04-24T23:29:59.757Z</time></trkpt><trkpt lat="45.409061" lon="10.5397147"><ele>133.0</ele><time>2026-04-24T23:30:19.768Z</time></trkpt><trkpt lat="45.4089892" lon="10.5397229"><ele>133.0</ele><time>2026-04-24T23:30:36.766Z</time></trkpt><trkpt lat="45.4089286" lon="10.5398252"><ele>133.0</ele><time>2026-04-24T23:31:19.769Z</time></trkpt><trkpt lat="45.4089929" lon="10.5397864"><ele>133.0</ele><time>2026-04-24T23:32:10.756Z</time></trkpt><trkpt lat="45.4089281" lon="10.5398043"><ele>133.0</ele><time>2026-04-24T23:32:31.771Z</time></trkpt><trkpt lat="45.408987" lon="10.5397216"><ele>133.0</ele><time>2026-04-24T23:32:47.758Z</time></trkpt><trkpt lat="45.4090824" lon="10.5397616"><ele>133.0</ele><time>2026-04-24T23:33:26.766Z</time></trkpt><trkpt lat="45.4091453" lon="10.5397045"><ele>133.0</ele><time>2026-04-24T23:33:52.758Z</time></trkpt><trkpt lat="45.4091812" lon="10.5395962"><ele>133.0</ele><time>2026-04-24T23:33:56.757Z</time></trkpt><trkpt lat="45.4091911" lon="10.539691"><ele>133.0</ele><time>2026-04-24T23:34:20.759Z</time></trkpt><trkpt lat="45.4091436" lon="10.5397912"><ele>133.0</ele><time>2026-04-24T23:34:32.76Z</time></trkpt><trkpt lat="45.4090902" lon="10.5399419"><ele>133.0</ele><time>2026-04-24T23:35:18.756Z</time></trkpt><trkpt lat="45.409112" lon="10.539851"><ele>133.0</ele><time>2026-04-24T23:35:54.768Z</time></trkpt><trkpt lat="45.4090389" lon="10.5399001"><ele>133.0</ele><time>2026-04-24T23:37:13.76Z</time></trkpt><trkpt lat="45.4090305" lon="10.5400024"><ele>133.0</ele><time>2026-04-24T23:37:16.763Z</time></trkpt><trkpt lat="45.4089583" lon="10.540053"><ele>133.0</ele><time>2026-04-24T23:37:28.76Z</time></trkpt><trkpt lat="45.4089479" lon="10.5399334"><ele>133.0</ele><time>2026-04-24T23:38:03.762Z</time></trkpt><trkpt lat="45.4088747" lon="10.5399829"><ele>133.0</ele><time>2026-04-24T23:38:42.762Z</time></trkpt><trkpt lat="45.4089156" lon="10.5399098"><ele>133.0</ele><time>2026-04-24T23:38:55.765Z</time></trkpt><trkpt lat="45.408861" lon="10.5400006"><ele>133.0</ele><time>2026-04-24T23:39:18.764Z</time></trkpt><trkpt lat="45.4088278" lon="10.540093"><ele>133.0</ele><time>2026-04-24T23:39:21.763Z</time></trkpt><trkpt lat="45.408834" lon="10.5399803"><ele>133.0</ele><time>2026-04-24T23:39:46.757Z</time></trkpt><trkpt lat="45.408841" lon="10.5398835"><ele>133.0</ele><time>2026-04-24T23:40:40.763Z</time></trkpt><trkpt lat="45.4089061" lon="10.5398518"><ele>133.0</ele><time>2026-04-24T23:40:53.758Z</time></trkpt><trkpt lat="45.4090081" lon="10.5397845"><ele>133.0</ele><time>2026-04-24T23:40:58.764Z</time></trkpt><trkpt lat="45.4090555" lon="10.5397134"><ele>133.0</ele><time>2026-04-24T23:41:03.758Z</time></trkpt><trkpt lat="45.4091174" lon="10.5396285"><ele>133.0</ele><time>2026-04-24T23:41:06.759Z</time></trkpt><trkpt lat="45.4091618" lon="10.5395593"><ele>133.0</ele><time>2026-04-24T23:41:12.755Z</time></trkpt><trkpt lat="45.4092136" lon="10.5394575"><ele>133.0</ele><time>2026-04-24T23:41:25.766Z</time></trkpt><trkpt lat="45.409108" lon="10.5395583"><ele>133.0</ele><time>2026-04-24T23:42:36.758Z</time></trkpt><trkpt lat="45.4089984" lon="10.5397051"><ele>133.0</ele><time>2026-04-24T23:42:55.757Z</time></trkpt><trkpt lat="45.4089555" lon="10.5397758"><ele>133.0</ele><time>2026-04-24T23:42:59.756Z</time></trkpt><trkpt lat="45.4088902" lon="10.5398371"><ele>133.0</ele><time>2026-04-24T23:43:15.758Z</time></trkpt><trkpt lat="45.4088226" lon="10.5399321"><ele>133.0</ele><time>2026-04-24T23:43:37.758Z</time></trkpt><trkpt lat="45.408856" lon="10.5398445"><ele>133.0</ele><time>2026-04-24T23:44:03.754Z</time></trkpt><trkpt lat="45.4089301" lon="10.5397245"><ele>133.0</ele><time>2026-04-24T23:44:40.765Z</time></trkpt><trkpt lat="45.4089014" lon="10.5398183"><ele>133.0</ele><time>2026-04-24T23:44:52.757Z</time></trkpt><trkpt lat="45.4088454" lon="10.5399863"><ele>133.0</ele><time>2026-04-24T23:45:13.768Z</time></trkpt><trkpt lat="45.4088938" lon="10.5399272"><ele>133.0</ele><time>2026-04-24T23:45:29.764Z</time></trkpt><trkpt lat="45.408957" lon="10.5398195"><ele>133.0</ele><time>2026-04-24T23:45:45.902Z</time></trkpt><trkpt lat="45.4089198" lon="10.5399172"><ele>133.0</ele><time>2026-04-24T23:45:56.759Z</time></trkpt><trkpt lat="45.4089646" lon="10.5397799"><ele>133.0</ele><time>2026-04-24T23:46:37.759Z</time></trkpt><trkpt lat="45.4090344" lon="10.539672"><ele>133.0</ele><time>2026-04-24T23:47:05.759Z</time></trkpt><trkpt lat="45.4091007" lon="10.5395352"><ele>133.0</ele><time>2026-04-24T23:48:15.757Z</time></trkpt><trkpt lat="45.4090795" lon="10.5396242"><ele>133.0</ele><time>2026-04-24T23:49:36.76Z</time></trkpt><trkpt lat="45.4090198" lon="10.5397172"><ele>133.0</ele><time>2026-04-24T23:50:20.764Z</time></trkpt><trkpt lat="45.4090974" lon="10.539633"><ele>133.0</ele><time>2026-04-24T23:50:29.764Z</time></trkpt><trkpt lat="45.4090178" lon="10.5397642"><ele>133.0</ele><time>2026-04-24T23:51:05.75Z</time></trkpt><trkpt lat="45.4089459" lon="10.5398965"><ele>133.0</ele><time>2026-04-24T23:51:23.755Z</time></trkpt><trkpt lat="45.4088898" lon="10.5399596"><ele>133.0</ele><time>2026-04-24T23:51:26.763Z</time></trkpt><trkpt lat="45.4088308" lon="10.5399986"><ele>133.0</ele><time>2026-04-24T23:52:48.766Z</time></trkpt><trkpt lat="45.4088861" lon="10.5398842"><ele>133.0</ele><time>2026-04-24T23:53:10.756Z</time></trkpt><trkpt lat="45.4089585" lon="10.5397381"><ele>133.0</ele><time>2026-04-24T23:53:15.755Z</time></trkpt><trkpt lat="45.4088911" lon="10.5396694"><ele>133.0</ele><time>2026-04-24T23:53:25.758Z</time></trkpt><trkpt lat="45.4088246" lon="10.5397482"><ele>133.0</ele><time>2026-04-24T23:53:35.755Z</time></trkpt><trkpt lat="45.4087712" lon="10.5398825"><ele>133.0</ele><time>2026-04-24T23:53:43.763Z</time></trkpt><trkpt lat="45.408768" lon="10.5399924"><ele>133.0</ele><time>2026-04-24T23:53:53.765Z</time></trkpt><trkpt lat="45.4087098" lon="10.5401217"><ele>133.0</ele><time>2026-04-24T23:53:59.759Z</time></trkpt><trkpt lat="45.4086718" lon="10.5401988"><ele>133.0</ele><time>2026-04-24T23:54:01.768Z</time></trkpt><trkpt lat="45.408736" lon="10.5401234"><ele>133.0</ele><time>2026-04-24T23:54:11.763Z</time></trkpt><trkpt lat="45.4087903" lon="10.5400423"><ele>133.0</ele><time>2026-04-24T23:54:13.76Z</time></trkpt><trkpt lat="45.408857" lon="10.539941"><ele>133.0</ele><time>2026-04-24T23:54:19.765Z</time></trkpt><trkpt lat="45.4089114" lon="10.5398628"><ele>133.0</ele><time>2026-04-24T23:54:22.759Z</time></trkpt><trkpt lat="45.4089438" lon="10.5397719"><ele>133.0</ele><time>2026-04-24T23:56:13.768Z</time></trkpt><trkpt lat="45.4090242" lon="10.5397611"><ele>133.0</ele><time>2026-04-24T23:56:46.764Z</time></trkpt><trkpt lat="45.4089413" lon="10.5397957"><ele>133.0</ele><time>2026-04-24T23:58:38.768Z</time></trkpt><trkpt lat="45.4089173" lon="10.5398791"><ele>133.0</ele><time>2026-04-24T23:59:09.766Z</time></trkpt><trkpt lat="45.4088842" lon="10.5400627"><ele>133.0</ele><time>2026-04-25T00:02:44.765Z</time></trkpt><trkpt lat="45.4089044" lon="10.5399759"><ele>133.0</ele><time>2026-04-25T00:02:55.753Z</time></trkpt><trkpt lat="45.4089269" lon="10.5398289"><ele>133.0</ele><time>2026-04-25T00:03:52.758Z</time></trkpt><trkpt lat="45.4089831" lon="10.539703"><ele>133.0</ele><time>2026-04-25T00:04:02.757Z</time></trkpt><trkpt lat="45.4090313" lon="10.5396264"><ele>133.0</ele><time>2026-04-25T00:04:03.757Z</time></trkpt><trkpt lat="45.4090075" lon="10.5394979"><ele>133.0</ele><time>2026-04-25T00:04:41.757Z</time></trkpt><trkpt lat="45.4089783" lon="10.5395785"><ele>133.0</ele><time>2026-04-25T00:05:08.759Z</time></trkpt><trkpt lat="45.4089602" lon="10.5396889"><ele>133.0</ele><time>2026-04-25T00:05:12.748Z</time></trkpt><trkpt lat="45.4089349" lon="10.5397818"><ele>133.0</ele><time>2026-04-25T00:05:13.756Z</time></trkpt><trkpt lat="45.4089197" lon="10.539879"><ele>133.0</ele><time>2026-04-25T00:05:17.766Z</time></trkpt><trkpt lat="45.4088975" lon="10.5399657"><ele>133.0</ele><time>2026-04-25T00:05:22.757Z</time></trkpt><trkpt lat="45.4088527" lon="10.5400359"><ele>133.0</ele><time>2026-04-25T00:05:31.759Z</time></trkpt><trkpt lat="45.4088256" lon="10.5401348"><ele>133.0</ele><time>2026-04-25T00:05:35.76Z</time></trkpt><trkpt lat="45.408768" lon="10.5401959"><ele>133.0</ele><time>2026-04-25T00:05:49.757Z</time></trkpt><trkpt lat="45.4087045" lon="10.5402248"><ele>133.0</ele><time>2026-04-25T00:05:56.756Z</time></trkpt><trkpt lat="45.4087353" lon="10.5401392"><ele>133.0</ele><time>2026-04-25T00:06:18.768Z</time></trkpt><trkpt lat="45.4087846" lon="10.5400472"><ele>133.0</ele><time>2026-04-25T00:06:20.759Z</time></trkpt><trkpt lat="45.4088727" lon="10.539903"><ele>133.0</ele><time>2026-04-25T00:06:24.764Z</time></trkpt><trkpt lat="45.4089135" lon="10.5398228"><ele>133.0</ele><time>2026-04-25T00:06:26.758Z</time></trkpt><trkpt lat="45.4088977" lon="10.5399289"><ele>133.0</ele><time>2026-04-25T00:06:59.76Z</time></trkpt><trkpt lat="45.4088243" lon="10.540067"><ele>131.20000000000002</ele><time>2026-04-25T00:07:50.759Z</time></trkpt><trkpt lat="45.4087194" lon="10.5401348"><ele>129.4</ele><time>2026-04-25T00:07:52.762Z</time></trkpt><trkpt lat="45.4086589" lon="10.5401811"><ele>127.60000000000001</ele><time>2026-04-25T00:07:54.766Z</time></trkpt><trkpt lat="45.4085649" lon="10.5402111"><ele>125.80000000000001</ele><time>2026-04-25T00:07:59.755Z</time></trkpt><trkpt lat="45.4084746" lon="10.5402612"><ele>124.0</ele><time>2026-04-25T00:08:01.766Z</time></trkpt><trkpt lat="45.4085363" lon="10.5401417"><ele>124.0</ele><time>2026-04-25T00:09:17.77Z</time></trkpt><trkpt lat="45.4086608" lon="10.5401019"><ele>124.0</ele><time>2026-04-25T00:09:24.764Z</time></trkpt><trkpt lat="45.4087481" lon="10.5400939"><ele>124.0</ele><time>2026-04-25T00:09:27.757Z</time></trkpt><trkpt lat="45.4088115" lon="10.540027"><ele>124.0</ele><time>2026-04-25T00:09:30.757Z</time></trkpt><trkpt lat="45.4088587" lon="10.5399177"><ele>124.0</ele><time>2026-04-25T00:10:46.766Z</time></trkpt><trkpt lat="45.40897" lon="10.5398291"><ele>125.50000000000001</ele><time>2026-04-25T00:10:58.756Z</time></trkpt><trkpt lat="45.4090133" lon="10.5397583"><ele>127.0</ele><time>2026-04-25T00:11:45.759Z</time></trkpt><trkpt lat="45.4089543" lon="10.5396837"><ele>128.5</ele><time>2026-04-25T00:11:46.758Z</time></trkpt><trkpt lat="45.4089213" lon="10.5397893"><ele>130.0</ele><time>2026-04-25T00:12:41.766Z</time></trkpt><trkpt lat="45.4089578" lon="10.5396998"><ele>131.5</ele><time>2026-04-25T00:13:00.76Z</time></trkpt><trkpt lat="45.4089367" lon="10.5398313"><ele>133.0</ele><time>2026-04-25T00:13:35.764Z</time></trkpt><trkpt lat="45.4088877" lon="10.5399713"><ele>133.0</ele><time>2026-04-25T00:19:52.761Z</time></trkpt><trkpt lat="45.4089085" lon="10.5398778"><ele>133.0</ele><time>2026-04-25T00:20:44.757Z</time></trkpt><trkpt lat="45.4089012" lon="10.5397566"><ele>133.0</ele><time>2026-04-25T00:21:50.758Z</time></trkpt><trkpt lat="45.40889" lon="10.5398583"><ele>133.0</ele><time>2026-04-25T00:23:21.762Z</time></trkpt><trkpt lat="45.4088185" lon="10.5399286"><ele>133.0</ele><time>2026-04-25T00:23:22.763Z</time></trkpt><trkpt lat="45.4088033" lon="10.5398066"><ele>133.0</ele><time>2026-04-25T00:26:04.759Z</time></trkpt><trkpt lat="45.4088576" lon="10.5397406"><ele>133.0</ele><time>2026-04-25T00:26:13.761Z</time></trkpt><trkpt lat="45.408964" lon="10.5397531"><ele>133.0</ele><time>2026-04-25T00:26:22.76Z</time></trkpt><trkpt lat="45.409017" lon="10.5398658"><ele>133.0</ele><time>2026-04-25T00:26:45.757Z</time></trkpt><trkpt lat="45.408996" lon="10.5399719"><ele>133.0</ele><time>2026-04-25T00:27:45.761Z</time></trkpt><trkpt lat="45.4090301" lon="10.5398884"><ele>133.0</ele><time>2026-04-25T00:28:10.766Z</time></trkpt><trkpt lat="45.4089499" lon="10.539852"><ele>133.0</ele><time>2026-04-25T00:28:24.761Z</time></trkpt><trkpt lat="45.4088884" lon="10.5398318"><ele>133.0</ele><time>2026-04-25T00:28:29.755Z</time></trkpt><trkpt lat="45.4088188" lon="10.5398581"><ele>133.0</ele><time>2026-04-25T00:28:32.758Z</time></trkpt><trkpt lat="45.4089484" lon="10.5399411"><ele>133.0</ele><time>2026-04-25T00:29:01.755Z</time></trkpt><trkpt lat="45.4089214" lon="10.5398497"><ele>133.0</ele><time>2026-04-25T00:29:41.755Z</time></trkpt><trkpt lat="45.4088554" lon="10.5398692"><ele>133.0</ele><time>2026-04-25T00:30:18.761Z</time></trkpt><trkpt lat="45.408968" lon="10.5399028"><ele>133.0</ele><time>2026-04-25T00:31:06.761Z</time></trkpt><trkpt lat="45.4090329" lon="10.5397608"><ele>133.0</ele><time>2026-04-25T00:31:26.757Z</time></trkpt><trkpt lat="45.4091027" lon="10.5395718"><ele>133.0</ele><time>2026-04-25T00:31:47.76Z</time></trkpt><trkpt lat="45.4090446" lon="10.5396251"><ele>133.0</ele><time>2026-04-25T00:31:48.756Z</time></trkpt><trkpt lat="45.4089573" lon="10.5397099"><ele>133.0</ele><time>2026-04-25T00:31:52.754Z</time></trkpt><trkpt lat="45.4088943" lon="10.5397752"><ele>133.0</ele><time>2026-04-25T00:31:54.76Z</time></trkpt><trkpt lat="45.408829" lon="10.5398452"><ele>133.0</ele><time>2026-04-25T00:31:55.763Z</time></trkpt><trkpt lat="45.4087605" lon="10.5399351"><ele>133.0</ele><time>2026-04-25T00:31:56.76Z</time></trkpt><trkpt lat="45.4087054" lon="10.5400091"><ele>133.0</ele><time>2026-04-25T00:31:57.754Z</time></trkpt><trkpt lat="45.4088585" lon="10.5399218"><ele>133.0</ele><time>2026-04-25T00:32:03.76Z</time></trkpt><trkpt lat="45.4089554" lon="10.5398413"><ele>133.0</ele><time>2026-04-25T00:32:04.765Z</time></trkpt><trkpt lat="45.4090638" lon="10.5397617"><ele>133.0</ele><time>2026-04-25T00:32:07.754Z</time></trkpt><trkpt lat="45.4091302" lon="10.5396975"><ele>133.0</ele><time>2026-04-25T00:32:09.756Z</time></trkpt><trkpt lat="45.409067" lon="10.5396961"><ele>133.0</ele><time>2026-04-25T00:32:21.762Z</time></trkpt><trkpt lat="45.4089635" lon="10.5397629"><ele>133.0</ele><time>2026-04-25T00:34:17.764Z</time></trkpt><trkpt lat="45.4089207" lon="10.5398832"><ele>133.0</ele><time>2026-04-25T00:35:28.767Z</time></trkpt><trkpt lat="45.4089324" lon="10.5397876"><ele>133.0</ele><time>2026-04-25T00:36:41.76Z</time></trkpt><trkpt lat="45.4089773" lon="10.5398639"><ele>133.0</ele><time>2026-04-25T00:38:42.761Z</time></trkpt><trkpt lat="45.4089539" lon="10.540058"><ele>133.0</ele><time>2026-04-25T00:39:03.756Z</time></trkpt><trkpt lat="45.4090444" lon="10.5399642"><ele>133.0</ele><time>2026-04-25T00:39:57.765Z</time></trkpt><trkpt lat="45.409075" lon="10.5398642"><ele>133.0</ele><time>2026-04-25T00:40:28.763Z</time></trkpt><trkpt lat="45.4090263" lon="10.539763"><ele>133.0</ele><time>2026-04-25T00:41:02.761Z</time></trkpt><trkpt lat="45.4090255" lon="10.5398685"><ele>133.0</ele><time>2026-04-25T00:41:46.755Z</time></trkpt><trkpt lat="45.4089494" lon="10.5398137"><ele>133.0</ele><time>2026-04-25T00:42:40.758Z</time></trkpt><trkpt lat="45.4089282" lon="10.5397285"><ele>133.0</ele><time>2026-04-25T00:42:57.76Z</time></trkpt><trkpt lat="45.4090237" lon="10.5396549"><ele>133.0</ele><time>2026-04-25T00:43:26.757Z</time></trkpt><trkpt lat="45.408954" lon="10.5396758"><ele>133.0</ele><time>2026-04-25T00:43:42.752Z</time></trkpt><trkpt lat="45.4088452" lon="10.5398316"><ele>133.0</ele><time>2026-04-25T00:43:46.762Z</time></trkpt><trkpt lat="45.4087914" lon="10.5399272"><ele>133.0</ele><time>2026-04-25T00:43:48.751Z</time></trkpt><trkpt lat="45.4087483" lon="10.5399935"><ele>133.0</ele><time>2026-04-25T00:43:53.77Z</time></trkpt><trkpt lat="45.4088242" lon="10.539922"><ele>133.0</ele><time>2026-04-25T00:44:05.755Z</time></trkpt><trkpt lat="45.4089149" lon="10.5399228"><ele>133.0</ele><time>2026-04-25T00:44:08.758Z</time></trkpt><trkpt lat="45.4090063" lon="10.5398751"><ele>133.0</ele><time>2026-04-25T00:44:27.764Z</time></trkpt><trkpt lat="45.4089846" lon="10.5399966"><ele>133.0</ele><time>2026-04-25T00:44:33.761Z</time></trkpt><trkpt lat="45.4090922" lon="10.5399397"><ele>133.0</ele><time>2026-04-25T00:44:42.764Z</time></trkpt><trkpt lat="45.4091466" lon="10.5398907"><ele>133.0</ele><time>2026-04-25T00:44:43.761Z</time></trkpt><trkpt lat="45.4090865" lon="10.5398279"><ele>133.0</ele><time>2026-04-25T00:45:13.755Z</time></trkpt><trkpt lat="45.4089915" lon="10.5398399"><ele>133.0</ele><time>2026-04-25T00:45:15.761Z</time></trkpt><trkpt lat="45.4089778" lon="10.5399431"><ele>133.0</ele><time>2026-04-25T00:46:33.755Z</time></trkpt><trkpt lat="45.4089841" lon="10.5397828"><ele>133.0</ele><time>2026-04-25T00:47:36.767Z</time></trkpt><trkpt lat="45.4089871" lon="10.5398926"><ele>133.0</ele><time>2026-04-25T00:47:54.756Z</time></trkpt><trkpt lat="45.4089248" lon="10.539906"><ele>133.0</ele><time>2026-04-25T00:48:43.759Z</time></trkpt><trkpt lat="45.4089222" lon="10.5398047"><ele>133.0</ele><time>2026-04-25T00:49:04.745Z</time></trkpt><trkpt lat="45.4089063" lon="10.539914"><ele>133.0</ele><time>2026-04-25T00:50:33.76Z</time></trkpt><trkpt lat="45.4088328" lon="10.5399118"><ele>133.0</ele><time>2026-04-25T00:50:38.756Z</time></trkpt><trkpt lat="45.4089253" lon="10.5399329"><ele>133.0</ele><time>2026-04-25T00:52:42.763Z</time></trkpt><trkpt lat="45.4089275" lon="10.5398397"><ele>133.0</ele><time>2026-04-25T00:52:54.76Z</time></trkpt><trkpt lat="45.4088936" lon="10.5399234"><ele>133.0</ele><time>2026-04-25T00:53:05.757Z</time></trkpt><trkpt lat="45.4089296" lon="10.5400834"><ele>133.0</ele><time>2026-04-25T00:53:21.755Z</time></trkpt><trkpt lat="45.408953" lon="10.5399679"><ele>133.0</ele><time>2026-04-25T00:54:00.754Z</time></trkpt><trkpt lat="45.4089369" lon="10.5398689"><ele>133.0</ele><time>2026-04-25T00:54:08.755Z</time></trkpt><trkpt lat="45.4088911" lon="10.539685"><ele>133.0</ele><time>2026-04-25T00:54:36.758Z</time></trkpt><trkpt lat="45.4088537" lon="10.5396049"><ele>133.0</ele><time>2026-04-25T00:54:38.764Z</time></trkpt><trkpt lat="45.4088038" lon="10.53952"><ele>133.0</ele><time>2026-04-25T00:54:42.754Z</time></trkpt><trkpt lat="45.4087717" lon="10.5394356"><ele>133.0</ele><time>2026-04-25T00:54:44.753Z</time></trkpt><trkpt lat="45.4087261" lon="10.5393617"><ele>133.0</ele><time>2026-04-25T00:54:50.756Z</time></trkpt><trkpt lat="45.4087772" lon="10.5394684"><ele>133.0</ele><time>2026-04-25T00:55:09.758Z</time></trkpt><trkpt lat="45.408829" lon="10.539536"><ele>133.0</ele><time>2026-04-25T00:55:19.758Z</time></trkpt><trkpt lat="45.4088627" lon="10.5396175"><ele>133.0</ele><time>2026-04-25T00:55:23.763Z</time></trkpt><trkpt lat="45.4088962" lon="10.539712"><ele>133.0</ele><time>2026-04-25T00:55:30.757Z</time></trkpt><trkpt lat="45.4089569" lon="10.5397661"><ele>133.0</ele><time>2026-04-25T00:55:33.761Z</time></trkpt><trkpt lat="45.4089647" lon="10.5396768"><ele>133.0</ele><time>2026-04-25T00:55:47.76Z</time></trkpt><trkpt lat="45.4090196" lon="10.5398391"><ele>133.0</ele><time>2026-04-25T00:56:42.756Z</time></trkpt><trkpt lat="45.4089456" lon="10.5399338"><ele>133.0</ele><time>2026-04-25T00:59:18.754Z</time></trkpt><trkpt lat="45.408942" lon="10.539825"><ele>133.0</ele><time>2026-04-25T00:59:52.755Z</time></trkpt></trkseg></trk></gpx>